<?xml version="1.0" encoding="UTF-8" standalone="no" ?>
<gpx xmlns="http://www.topografix.com/GPX/1/1" xmlns:xsi="http://www.w3.org/2001/XMLSchema-instance" xsi:schemaLocation="http://www.topografix.com/GPX/1/1 http://www.topografix.com/GPX/1/1/gpx.xsd" version="1.1" creator="VisuGPX - https://www.visugpx.com">
  <metadata>
    <name>Autour de Valognes...</name>
    <desc><![CDATA[Avec Frédérique, Odile, Savane et moi]]></desc>
  </metadata>
  <trk>
    <name><![CDATA[Trace 1788420610438]]></name>
    <extensions>
      <line xmlns="http://www.topografix.com/GPX/gpx_style/0/2">
        <color>0000FF</color>
        <width>4</width>
      </line>
    </extensions>
    <trkseg>
      <trkpt lat="49.50671" lon="-1.45755">
        <ele>38.7</ele>
        <time>2026-09-03T07:30:10.438Z</time>
      </trkpt>
      <trkpt lat="49.50671" lon="-1.45757">
        <ele>38.7</ele>
        <time>2026-09-03T07:30:11.459Z</time>
      </trkpt>
      <trkpt lat="49.50672" lon="-1.45757">
        <ele>38.6</ele>
        <time>2026-09-03T07:30:12.481Z</time>
      </trkpt>
      <trkpt lat="49.50674" lon="-1.45755">
        <ele>38.5</ele>
        <time>2026-09-03T07:30:13.502Z</time>
      </trkpt>
      <trkpt lat="49.50675" lon="-1.4575">
        <ele>38.4</ele>
        <time>2026-09-03T07:30:14.524Z</time>
      </trkpt>
      <trkpt lat="49.50677" lon="-1.4574">
        <ele>38.4</ele>
        <time>2026-09-03T07:30:16.477Z</time>
      </trkpt>
      <trkpt lat="49.50678" lon="-1.45738">
        <ele>38.4</ele>
        <time>2026-09-03T07:30:17.499Z</time>
      </trkpt>
      <trkpt lat="49.50678" lon="-1.45736">
        <ele>38.4</ele>
        <time>2026-09-03T07:30:19.542Z</time>
      </trkpt>
      <trkpt lat="49.50679" lon="-1.45734">
        <ele>38.4</ele>
        <time>2026-09-03T07:30:20.554Z</time>
      </trkpt>
      <trkpt lat="49.5068" lon="-1.45733">
        <ele>38.3</ele>
        <time>2026-09-03T07:30:21.565Z</time>
      </trkpt>
      <trkpt lat="49.50684" lon="-1.45732">
        <ele>38.2</ele>
        <time>2026-09-03T07:30:23.559Z</time>
      </trkpt>
      <trkpt lat="49.50686" lon="-1.45729">
        <ele>38.1</ele>
        <time>2026-09-03T07:30:24.560Z</time>
      </trkpt>
      <trkpt lat="49.50687" lon="-1.45728">
        <ele>38.1</ele>
        <time>2026-09-03T07:30:25.562Z</time>
      </trkpt>
      <trkpt lat="49.50687" lon="-1.45726">
        <ele>38.2</ele>
        <time>2026-09-03T07:30:26.563Z</time>
      </trkpt>
      <trkpt lat="49.50689" lon="-1.45722">
        <ele>38.2</ele>
        <time>2026-09-03T07:30:28.531Z</time>
      </trkpt>
      <trkpt lat="49.5069" lon="-1.45721">
        <ele>38.2</ele>
        <time>2026-09-03T07:30:29.568Z</time>
      </trkpt>
      <trkpt lat="49.50691" lon="-1.45717">
        <ele>38.1</ele>
        <time>2026-09-03T07:30:31.533Z</time>
      </trkpt>
      <trkpt lat="49.50692" lon="-1.45715">
        <ele>38.1</ele>
        <time>2026-09-03T07:30:32.535Z</time>
      </trkpt>
      <trkpt lat="49.50691" lon="-1.4571">
        <ele>38.1</ele>
        <time>2026-09-03T07:30:34.536Z</time>
      </trkpt>
      <trkpt lat="49.50691" lon="-1.45708">
        <ele>38.1</ele>
        <time>2026-09-03T07:30:35.536Z</time>
      </trkpt>
      <trkpt lat="49.5069" lon="-1.45703">
        <ele>38.2</ele>
        <time>2026-09-03T07:30:37.540Z</time>
      </trkpt>
      <trkpt lat="49.50692" lon="-1.457">
        <ele>38.1</ele>
        <time>2026-09-03T07:30:39.464Z</time>
      </trkpt>
      <trkpt lat="49.50693" lon="-1.45699">
        <ele>38.1</ele>
        <time>2026-09-03T07:30:40.486Z</time>
      </trkpt>
      <trkpt lat="49.50693" lon="-1.45696">
        <ele>38.1</ele>
        <time>2026-09-03T07:30:41.518Z</time>
      </trkpt>
      <trkpt lat="49.50692" lon="-1.45695">
        <ele>38.1</ele>
        <time>2026-09-03T07:30:42.532Z</time>
      </trkpt>
      <trkpt lat="49.50692" lon="-1.45692">
        <ele>38.1</ele>
        <time>2026-09-03T07:30:43.533Z</time>
      </trkpt>
      <trkpt lat="49.5069" lon="-1.45688">
        <ele>38.2</ele>
        <time>2026-09-03T07:30:45.444Z</time>
      </trkpt>
      <trkpt lat="49.5069" lon="-1.45686">
        <ele>38.2</ele>
        <time>2026-09-03T07:30:46.466Z</time>
      </trkpt>
      <trkpt lat="49.5069" lon="-1.45684">
        <ele>38.2</ele>
        <time>2026-09-03T07:30:47.477Z</time>
      </trkpt>
      <trkpt lat="49.5069" lon="-1.45682">
        <ele>38.2</ele>
        <time>2026-09-03T07:30:48.519Z</time>
      </trkpt>
      <trkpt lat="49.5069" lon="-1.45681">
        <ele>38.2</ele>
        <time>2026-09-03T07:30:49.541Z</time>
      </trkpt>
      <trkpt lat="49.50691" lon="-1.45679">
        <ele>38.1</ele>
        <time>2026-09-03T07:30:50.542Z</time>
      </trkpt>
      <trkpt lat="49.50691" lon="-1.45676">
        <ele>38.1</ele>
        <time>2026-09-03T07:30:52.533Z</time>
      </trkpt>
      <trkpt lat="49.50691" lon="-1.45674">
        <ele>38.1</ele>
        <time>2026-09-03T07:30:53.541Z</time>
      </trkpt>
      <trkpt lat="49.50691" lon="-1.45672">
        <ele>38.1</ele>
        <time>2026-09-03T07:30:54.579Z</time>
      </trkpt>
      <trkpt lat="49.50691" lon="-1.45668">
        <ele>38.1</ele>
        <time>2026-09-03T07:30:56.535Z</time>
      </trkpt>
      <trkpt lat="49.5069" lon="-1.45662">
        <ele>38.2</ele>
        <time>2026-09-03T07:30:58.545Z</time>
      </trkpt>
      <trkpt lat="49.50689" lon="-1.45658">
        <ele>38.3</ele>
        <time>2026-09-03T07:31:00.538Z</time>
      </trkpt>
      <trkpt lat="49.50688" lon="-1.45656">
        <ele>38.3</ele>
        <time>2026-09-03T07:31:02.540Z</time>
      </trkpt>
      <trkpt lat="49.50688" lon="-1.45656">
        <ele>38.3</ele>
        <time>2026-09-03T07:31:04.532Z</time>
      </trkpt>
      <trkpt lat="49.50688" lon="-1.45657">
        <ele>38.3</ele>
        <time>2026-09-03T07:31:05.537Z</time>
      </trkpt>
      <trkpt lat="49.50688" lon="-1.45657">
        <ele>38.3</ele>
        <time>2026-09-03T07:31:07.533Z</time>
      </trkpt>
      <trkpt lat="49.50689" lon="-1.45657">
        <ele>38.3</ele>
        <time>2026-09-03T07:31:08.533Z</time>
      </trkpt>
      <trkpt lat="49.50689" lon="-1.45656">
        <ele>38.3</ele>
        <time>2026-09-03T07:31:09.539Z</time>
      </trkpt>
      <trkpt lat="49.5069" lon="-1.45653">
        <ele>38.2</ele>
        <time>2026-09-03T07:31:10.563Z</time>
      </trkpt>
      <trkpt lat="49.5069" lon="-1.45651">
        <ele>38.3</ele>
        <time>2026-09-03T07:31:11.565Z</time>
      </trkpt>
      <trkpt lat="49.50691" lon="-1.45646">
        <ele>38.2</ele>
        <time>2026-09-03T07:31:13.577Z</time>
      </trkpt>
      <trkpt lat="49.50691" lon="-1.45642">
        <ele>38.2</ele>
        <time>2026-09-03T07:31:15.561Z</time>
      </trkpt>
      <trkpt lat="49.50691" lon="-1.4564">
        <ele>38.2</ele>
        <time>2026-09-03T07:31:16.583Z</time>
      </trkpt>
      <trkpt lat="49.50691" lon="-1.45636">
        <ele>38.2</ele>
        <time>2026-09-03T07:31:18.566Z</time>
      </trkpt>
      <trkpt lat="49.50691" lon="-1.45632">
        <ele>38.2</ele>
        <time>2026-09-03T07:31:20.579Z</time>
      </trkpt>
      <trkpt lat="49.50692" lon="-1.45628">
        <ele>38.2</ele>
        <time>2026-09-03T07:31:22.552Z</time>
      </trkpt>
      <trkpt lat="49.50692" lon="-1.45626">
        <ele>38.2</ele>
        <time>2026-09-03T07:31:23.554Z</time>
      </trkpt>
      <trkpt lat="49.50692" lon="-1.45623">
        <ele>38.2</ele>
        <time>2026-09-03T07:31:24.555Z</time>
      </trkpt>
      <trkpt lat="49.50692" lon="-1.45621">
        <ele>38.2</ele>
        <time>2026-09-03T07:31:25.557Z</time>
      </trkpt>
      <trkpt lat="49.50692" lon="-1.45617">
        <ele>38.2</ele>
        <time>2026-09-03T07:31:27.480Z</time>
      </trkpt>
      <trkpt lat="49.50692" lon="-1.45615">
        <ele>38.2</ele>
        <time>2026-09-03T07:31:28.521Z</time>
      </trkpt>
      <trkpt lat="49.50692" lon="-1.45613">
        <ele>38.2</ele>
        <time>2026-09-03T07:31:29.563Z</time>
      </trkpt>
      <trkpt lat="49.50692" lon="-1.45611">
        <ele>38.2</ele>
        <time>2026-09-03T07:31:30.564Z</time>
      </trkpt>
      <trkpt lat="49.50692" lon="-1.45609">
        <ele>38.2</ele>
        <time>2026-09-03T07:31:31.566Z</time>
      </trkpt>
      <trkpt lat="49.50692" lon="-1.45607">
        <ele>38.3</ele>
        <time>2026-09-03T07:31:32.568Z</time>
      </trkpt>
      <trkpt lat="49.50692" lon="-1.45605">
        <ele>38.4</ele>
        <time>2026-09-03T07:31:33.569Z</time>
      </trkpt>
      <trkpt lat="49.50691" lon="-1.45601">
        <ele>38.6</ele>
        <time>2026-09-03T07:31:35.532Z</time>
      </trkpt>
      <trkpt lat="49.50691" lon="-1.45599">
        <ele>38.6</ele>
        <time>2026-09-03T07:31:36.532Z</time>
      </trkpt>
      <trkpt lat="49.50691" lon="-1.45597">
        <ele>38.7</ele>
        <time>2026-09-03T07:31:37.575Z</time>
      </trkpt>
      <trkpt lat="49.5069" lon="-1.45594">
        <ele>38.8</ele>
        <time>2026-09-03T07:31:39.536Z</time>
      </trkpt>
      <trkpt lat="49.50689" lon="-1.45591">
        <ele>39</ele>
        <time>2026-09-03T07:31:41.401Z</time>
      </trkpt>
      <trkpt lat="49.50688" lon="-1.45589">
        <ele>39.1</ele>
        <time>2026-09-03T07:31:42.534Z</time>
      </trkpt>
      <trkpt lat="49.50687" lon="-1.45587">
        <ele>39.2</ele>
        <time>2026-09-03T07:31:44.506Z</time>
      </trkpt>
      <trkpt lat="49.50687" lon="-1.45586">
        <ele>39.2</ele>
        <time>2026-09-03T07:31:45.517Z</time>
      </trkpt>
      <trkpt lat="49.50688" lon="-1.45583">
        <ele>39.2</ele>
        <time>2026-09-03T07:31:46.535Z</time>
      </trkpt>
      <trkpt lat="49.50688" lon="-1.4558">
        <ele>39.1</ele>
        <time>2026-09-03T07:31:48.522Z</time>
      </trkpt>
      <trkpt lat="49.50688" lon="-1.45578">
        <ele>39.1</ele>
        <time>2026-09-03T07:31:49.544Z</time>
      </trkpt>
      <trkpt lat="49.50689" lon="-1.45572">
        <ele>38.9</ele>
        <time>2026-09-03T07:31:51.534Z</time>
      </trkpt>
      <trkpt lat="49.5069" lon="-1.45569">
        <ele>38.7</ele>
        <time>2026-09-03T07:31:52.534Z</time>
      </trkpt>
      <trkpt lat="49.50692" lon="-1.45567">
        <ele>38.6</ele>
        <time>2026-09-03T07:31:53.536Z</time>
      </trkpt>
      <trkpt lat="49.50693" lon="-1.45564">
        <ele>38.4</ele>
        <time>2026-09-03T07:31:55.463Z</time>
      </trkpt>
      <trkpt lat="49.50692" lon="-1.45562">
        <ele>38.4</ele>
        <time>2026-09-03T07:31:56.464Z</time>
      </trkpt>
      <trkpt lat="49.50692" lon="-1.45559">
        <ele>38.3</ele>
        <time>2026-09-03T07:31:57.486Z</time>
      </trkpt>
      <trkpt lat="49.50692" lon="-1.45557">
        <ele>38.2</ele>
        <time>2026-09-03T07:31:58.517Z</time>
      </trkpt>
      <trkpt lat="49.50691" lon="-1.45555">
        <ele>38.3</ele>
        <time>2026-09-03T07:31:59.535Z</time>
      </trkpt>
      <trkpt lat="49.50691" lon="-1.4555">
        <ele>38.3</ele>
        <time>2026-09-03T07:32:01.540Z</time>
      </trkpt>
      <trkpt lat="49.5069" lon="-1.45548">
        <ele>38.4</ele>
        <time>2026-09-03T07:32:03.515Z</time>
      </trkpt>
      <trkpt lat="49.50688" lon="-1.45545">
        <ele>38.6</ele>
        <time>2026-09-03T07:32:04.540Z</time>
      </trkpt>
      <trkpt lat="49.50687" lon="-1.45541">
        <ele>38.7</ele>
        <time>2026-09-03T07:32:06.531Z</time>
      </trkpt>
      <trkpt lat="49.50687" lon="-1.45539">
        <ele>38.7</ele>
        <time>2026-09-03T07:32:07.533Z</time>
      </trkpt>
      <trkpt lat="49.50686" lon="-1.45537">
        <ele>38.8</ele>
        <time>2026-09-03T07:32:08.534Z</time>
      </trkpt>
      <trkpt lat="49.50685" lon="-1.45534">
        <ele>38.9</ele>
        <time>2026-09-03T07:32:09.584Z</time>
      </trkpt>
      <trkpt lat="49.50684" lon="-1.45533">
        <ele>39.1</ele>
        <time>2026-09-03T07:32:10.586Z</time>
      </trkpt>
      <trkpt lat="49.50682" lon="-1.4553">
        <ele>39.3</ele>
        <time>2026-09-03T07:32:12.539Z</time>
      </trkpt>
      <trkpt lat="49.50681" lon="-1.45531">
        <ele>39.4</ele>
        <time>2026-09-03T07:32:14.462Z</time>
      </trkpt>
      <trkpt lat="49.5068" lon="-1.45527">
        <ele>39.6</ele>
        <time>2026-09-03T07:32:15.463Z</time>
      </trkpt>
      <trkpt lat="49.5068" lon="-1.45524">
        <ele>39.6</ele>
        <time>2026-09-03T07:32:16.565Z</time>
      </trkpt>
      <trkpt lat="49.50679" lon="-1.4552">
        <ele>39.8</ele>
        <time>2026-09-03T07:32:18.530Z</time>
      </trkpt>
      <trkpt lat="49.50678" lon="-1.45518">
        <ele>39.9</ele>
        <time>2026-09-03T07:32:19.538Z</time>
      </trkpt>
      <trkpt lat="49.50678" lon="-1.45516">
        <ele>39.9</ele>
        <time>2026-09-03T07:32:20.544Z</time>
      </trkpt>
      <trkpt lat="49.50677" lon="-1.45513">
        <ele>40.1</ele>
        <time>2026-09-03T07:32:22.484Z</time>
      </trkpt>
      <trkpt lat="49.50676" lon="-1.45511">
        <ele>40.2</ele>
        <time>2026-09-03T07:32:23.531Z</time>
      </trkpt>
      <trkpt lat="49.50675" lon="-1.4551">
        <ele>40.3</ele>
        <time>2026-09-03T07:32:24.532Z</time>
      </trkpt>
      <trkpt lat="49.50673" lon="-1.45507">
        <ele>40.5</ele>
        <time>2026-09-03T07:32:26.537Z</time>
      </trkpt>
      <trkpt lat="49.5067" lon="-1.45504">
        <ele>40.7</ele>
        <time>2026-09-03T07:32:28.544Z</time>
      </trkpt>
      <trkpt lat="49.50669" lon="-1.45501">
        <ele>40.8</ele>
        <time>2026-09-03T07:32:30.534Z</time>
      </trkpt>
      <trkpt lat="49.50668" lon="-1.45498">
        <ele>41</ele>
        <time>2026-09-03T07:32:32.520Z</time>
      </trkpt>
      <trkpt lat="49.50668" lon="-1.45497">
        <ele>41</ele>
        <time>2026-09-03T07:32:33.530Z</time>
      </trkpt>
      <trkpt lat="49.50667" lon="-1.45496">
        <ele>41.1</ele>
        <time>2026-09-03T07:32:34.533Z</time>
      </trkpt>
      <trkpt lat="49.50666" lon="-1.45494">
        <ele>41.3</ele>
        <time>2026-09-03T07:32:35.565Z</time>
      </trkpt>
      <trkpt lat="49.50664" lon="-1.45493">
        <ele>41.4</ele>
        <time>2026-09-03T07:32:36.599Z</time>
      </trkpt>
      <trkpt lat="49.50663" lon="-1.45492">
        <ele>41.6</ele>
        <time>2026-09-03T07:32:37.599Z</time>
      </trkpt>
      <trkpt lat="49.50662" lon="-1.45491">
        <ele>41.7</ele>
        <time>2026-09-03T07:32:39.561Z</time>
      </trkpt>
      <trkpt lat="49.5066" lon="-1.45488">
        <ele>41.9</ele>
        <time>2026-09-03T07:32:41.464Z</time>
      </trkpt>
      <trkpt lat="49.50659" lon="-1.45487">
        <ele>42</ele>
        <time>2026-09-03T07:32:42.555Z</time>
      </trkpt>
      <trkpt lat="49.50659" lon="-1.45485">
        <ele>42.1</ele>
        <time>2026-09-03T07:32:43.557Z</time>
      </trkpt>
      <trkpt lat="49.50657" lon="-1.45484">
        <ele>42.3</ele>
        <time>2026-09-03T07:32:44.558Z</time>
      </trkpt>
      <trkpt lat="49.50656" lon="-1.45483">
        <ele>42.4</ele>
        <time>2026-09-03T07:32:46.581Z</time>
      </trkpt>
      <trkpt lat="49.50653" lon="-1.45482">
        <ele>42.6</ele>
        <time>2026-09-03T07:32:48.524Z</time>
      </trkpt>
      <trkpt lat="49.50652" lon="-1.45481">
        <ele>42.7</ele>
        <time>2026-09-03T07:32:49.532Z</time>
      </trkpt>
      <trkpt lat="49.50652" lon="-1.4548">
        <ele>42.8</ele>
        <time>2026-09-03T07:32:50.533Z</time>
      </trkpt>
      <trkpt lat="49.5065" lon="-1.45479">
        <ele>43</ele>
        <time>2026-09-03T07:32:51.539Z</time>
      </trkpt>
      <trkpt lat="49.50649" lon="-1.45479">
        <ele>43</ele>
        <time>2026-09-03T07:32:52.570Z</time>
      </trkpt>
      <trkpt lat="49.50648" lon="-1.45478">
        <ele>43.1</ele>
        <time>2026-09-03T07:32:53.572Z</time>
      </trkpt>
      <trkpt lat="49.50648" lon="-1.45476">
        <ele>43.2</ele>
        <time>2026-09-03T07:32:54.573Z</time>
      </trkpt>
      <trkpt lat="49.50647" lon="-1.45474">
        <ele>43.4</ele>
        <time>2026-09-03T07:32:55.575Z</time>
      </trkpt>
      <trkpt lat="49.50646" lon="-1.45472">
        <ele>43.5</ele>
        <time>2026-09-03T07:32:57.534Z</time>
      </trkpt>
      <trkpt lat="49.50643" lon="-1.4547">
        <ele>43.8</ele>
        <time>2026-09-03T07:32:59.580Z</time>
      </trkpt>
      <trkpt lat="49.50643" lon="-1.45469">
        <ele>43.8</ele>
        <time>2026-09-03T07:33:00.583Z</time>
      </trkpt>
      <trkpt lat="49.50642" lon="-1.45467">
        <ele>44</ele>
        <time>2026-09-03T07:33:01.599Z</time>
      </trkpt>
      <trkpt lat="49.5064" lon="-1.45464">
        <ele>44.2</ele>
        <time>2026-09-03T07:33:03.567Z</time>
      </trkpt>
      <trkpt lat="49.50639" lon="-1.45463">
        <ele>44.3</ele>
        <time>2026-09-03T07:33:04.569Z</time>
      </trkpt>
      <trkpt lat="49.50638" lon="-1.45462">
        <ele>44.5</ele>
        <time>2026-09-03T07:33:05.570Z</time>
      </trkpt>
      <trkpt lat="49.50637" lon="-1.45461">
        <ele>44.6</ele>
        <time>2026-09-03T07:33:06.582Z</time>
      </trkpt>
      <trkpt lat="49.50636" lon="-1.45458">
        <ele>44.8</ele>
        <time>2026-09-03T07:33:08.554Z</time>
      </trkpt>
      <trkpt lat="49.50635" lon="-1.45455">
        <ele>45</ele>
        <time>2026-09-03T07:33:10.539Z</time>
      </trkpt>
      <trkpt lat="49.50634" lon="-1.45453">
        <ele>45.2</ele>
        <time>2026-09-03T07:33:11.599Z</time>
      </trkpt>
      <trkpt lat="49.50632" lon="-1.4545">
        <ele>45.5</ele>
        <time>2026-09-03T07:33:13.542Z</time>
      </trkpt>
      <trkpt lat="49.50631" lon="-1.45449">
        <ele>45.7</ele>
        <time>2026-09-03T07:33:14.543Z</time>
      </trkpt>
      <trkpt lat="49.50631" lon="-1.45447">
        <ele>45.8</ele>
        <time>2026-09-03T07:33:15.545Z</time>
      </trkpt>
      <trkpt lat="49.5063" lon="-1.45445">
        <ele>45.9</ele>
        <time>2026-09-03T07:33:16.549Z</time>
      </trkpt>
      <trkpt lat="49.50629" lon="-1.45443">
        <ele>46.2</ele>
        <time>2026-09-03T07:33:18.536Z</time>
      </trkpt>
      <trkpt lat="49.50627" lon="-1.45441">
        <ele>46.5</ele>
        <time>2026-09-03T07:33:20.534Z</time>
      </trkpt>
      <trkpt lat="49.50626" lon="-1.4544">
        <ele>46.6</ele>
        <time>2026-09-03T07:33:21.535Z</time>
      </trkpt>
      <trkpt lat="49.50625" lon="-1.45439">
        <ele>46.8</ele>
        <time>2026-09-03T07:33:22.565Z</time>
      </trkpt>
      <trkpt lat="49.50623" lon="-1.45436">
        <ele>47.2</ele>
        <time>2026-09-03T07:33:24.538Z</time>
      </trkpt>
      <trkpt lat="49.50622" lon="-1.45434">
        <ele>47.3</ele>
        <time>2026-09-03T07:33:26.547Z</time>
      </trkpt>
      <trkpt lat="49.50621" lon="-1.4543">
        <ele>47.6</ele>
        <time>2026-09-03T07:33:28.534Z</time>
      </trkpt>
      <trkpt lat="49.50621" lon="-1.45429">
        <ele>47.7</ele>
        <time>2026-09-03T07:33:29.534Z</time>
      </trkpt>
      <trkpt lat="49.5062" lon="-1.45428">
        <ele>47.8</ele>
        <time>2026-09-03T07:33:30.534Z</time>
      </trkpt>
      <trkpt lat="49.50619" lon="-1.45426">
        <ele>48</ele>
        <time>2026-09-03T07:33:32.540Z</time>
      </trkpt>
      <trkpt lat="49.50618" lon="-1.45425">
        <ele>48.1</ele>
        <time>2026-09-03T07:33:33.552Z</time>
      </trkpt>
      <trkpt lat="49.50618" lon="-1.45423">
        <ele>48.2</ele>
        <time>2026-09-03T07:33:34.593Z</time>
      </trkpt>
      <trkpt lat="49.50616" lon="-1.45421">
        <ele>48.5</ele>
        <time>2026-09-03T07:33:36.576Z</time>
      </trkpt>
      <trkpt lat="49.50615" lon="-1.45418">
        <ele>48.7</ele>
        <time>2026-09-03T07:33:38.534Z</time>
      </trkpt>
      <trkpt lat="49.50614" lon="-1.45417">
        <ele>48.8</ele>
        <time>2026-09-03T07:33:39.534Z</time>
      </trkpt>
      <trkpt lat="49.50612" lon="-1.45414">
        <ele>48.9</ele>
        <time>2026-09-03T07:33:41.556Z</time>
      </trkpt>
      <trkpt lat="49.50611" lon="-1.45413">
        <ele>49</ele>
        <time>2026-09-03T07:33:43.531Z</time>
      </trkpt>
      <trkpt lat="49.5061" lon="-1.45411">
        <ele>49</ele>
        <time>2026-09-03T07:33:44.568Z</time>
      </trkpt>
      <trkpt lat="49.5061" lon="-1.4541">
        <ele>49</ele>
        <time>2026-09-03T07:33:45.569Z</time>
      </trkpt>
      <trkpt lat="49.50609" lon="-1.45408">
        <ele>49.1</ele>
        <time>2026-09-03T07:33:47.532Z</time>
      </trkpt>
      <trkpt lat="49.50608" lon="-1.45407">
        <ele>49.2</ele>
        <time>2026-09-03T07:33:48.534Z</time>
      </trkpt>
      <trkpt lat="49.50608" lon="-1.45405">
        <ele>49.2</ele>
        <time>2026-09-03T07:33:49.538Z</time>
      </trkpt>
      <trkpt lat="49.50607" lon="-1.45403">
        <ele>49.2</ele>
        <time>2026-09-03T07:33:50.557Z</time>
      </trkpt>
      <trkpt lat="49.50606" lon="-1.45402">
        <ele>49.3</ele>
        <time>2026-09-03T07:33:51.598Z</time>
      </trkpt>
      <trkpt lat="49.50606" lon="-1.454">
        <ele>49.3</ele>
        <time>2026-09-03T07:33:53.582Z</time>
      </trkpt>
      <trkpt lat="49.50605" lon="-1.45397">
        <ele>49.4</ele>
        <time>2026-09-03T07:33:55.534Z</time>
      </trkpt>
      <trkpt lat="49.50605" lon="-1.45396">
        <ele>49.4</ele>
        <time>2026-09-03T07:33:56.534Z</time>
      </trkpt>
      <trkpt lat="49.50605" lon="-1.45394">
        <ele>49.4</ele>
        <time>2026-09-03T07:33:57.560Z</time>
      </trkpt>
      <trkpt lat="49.50603" lon="-1.4539">
        <ele>49.6</ele>
        <time>2026-09-03T07:33:59.542Z</time>
      </trkpt>
      <trkpt lat="49.50602" lon="-1.45389">
        <ele>49.7</ele>
        <time>2026-09-03T07:34:00.565Z</time>
      </trkpt>
      <trkpt lat="49.50601" lon="-1.45385">
        <ele>50</ele>
        <time>2026-09-03T07:34:02.529Z</time>
      </trkpt>
      <trkpt lat="49.506" lon="-1.45384">
        <ele>50.1</ele>
        <time>2026-09-03T07:34:03.532Z</time>
      </trkpt>
      <trkpt lat="49.50599" lon="-1.45383">
        <ele>50.2</ele>
        <time>2026-09-03T07:34:05.419Z</time>
      </trkpt>
      <trkpt lat="49.50598" lon="-1.45381">
        <ele>50.4</ele>
        <time>2026-09-03T07:34:06.540Z</time>
      </trkpt>
      <trkpt lat="49.50598" lon="-1.45377">
        <ele>50.6</ele>
        <time>2026-09-03T07:34:08.536Z</time>
      </trkpt>
      <trkpt lat="49.50597" lon="-1.45373">
        <ele>50.9</ele>
        <time>2026-09-03T07:34:10.538Z</time>
      </trkpt>
      <trkpt lat="49.50598" lon="-1.4537">
        <ele>51</ele>
        <time>2026-09-03T07:34:12.531Z</time>
      </trkpt>
      <trkpt lat="49.50597" lon="-1.45368">
        <ele>51.1</ele>
        <time>2026-09-03T07:34:13.531Z</time>
      </trkpt>
      <trkpt lat="49.50595" lon="-1.45365">
        <ele>51.4</ele>
        <time>2026-09-03T07:34:15.564Z</time>
      </trkpt>
      <trkpt lat="49.50593" lon="-1.45363">
        <ele>51.6</ele>
        <time>2026-09-03T07:34:17.538Z</time>
      </trkpt>
      <trkpt lat="49.50592" lon="-1.4536">
        <ele>51.7</ele>
        <time>2026-09-03T07:34:19.540Z</time>
      </trkpt>
      <trkpt lat="49.50592" lon="-1.45358">
        <ele>51.7</ele>
        <time>2026-09-03T07:34:20.542Z</time>
      </trkpt>
      <trkpt lat="49.50592" lon="-1.45356">
        <ele>51.7</ele>
        <time>2026-09-03T07:34:21.543Z</time>
      </trkpt>
      <trkpt lat="49.50591" lon="-1.45354">
        <ele>51.7</ele>
        <time>2026-09-03T07:34:22.551Z</time>
      </trkpt>
      <trkpt lat="49.5059" lon="-1.45351">
        <ele>51.8</ele>
        <time>2026-09-03T07:34:24.498Z</time>
      </trkpt>
      <trkpt lat="49.5059" lon="-1.45349">
        <ele>51.8</ele>
        <time>2026-09-03T07:34:25.549Z</time>
      </trkpt>
      <trkpt lat="49.50589" lon="-1.45348">
        <ele>51.8</ele>
        <time>2026-09-03T07:34:26.551Z</time>
      </trkpt>
      <trkpt lat="49.50588" lon="-1.45345">
        <ele>51.8</ele>
        <time>2026-09-03T07:34:28.544Z</time>
      </trkpt>
      <trkpt lat="49.50588" lon="-1.45343">
        <ele>51.8</ele>
        <time>2026-09-03T07:34:29.555Z</time>
      </trkpt>
      <trkpt lat="49.50587" lon="-1.45341">
        <ele>51.9</ele>
        <time>2026-09-03T07:34:30.557Z</time>
      </trkpt>
      <trkpt lat="49.50586" lon="-1.45339">
        <ele>51.9</ele>
        <time>2026-09-03T07:34:31.558Z</time>
      </trkpt>
      <trkpt lat="49.50585" lon="-1.45338">
        <ele>51.9</ele>
        <time>2026-09-03T07:34:32.560Z</time>
      </trkpt>
      <trkpt lat="49.50583" lon="-1.45336">
        <ele>52</ele>
        <time>2026-09-03T07:34:34.543Z</time>
      </trkpt>
      <trkpt lat="49.50582" lon="-1.45335">
        <ele>52</ele>
        <time>2026-09-03T07:34:35.544Z</time>
      </trkpt>
      <trkpt lat="49.50581" lon="-1.45333">
        <ele>52</ele>
        <time>2026-09-03T07:34:36.546Z</time>
      </trkpt>
      <trkpt lat="49.5058" lon="-1.45331">
        <ele>51.9</ele>
        <time>2026-09-03T07:34:37.547Z</time>
      </trkpt>
      <trkpt lat="49.50579" lon="-1.4533">
        <ele>51.9</ele>
        <time>2026-09-03T07:34:38.549Z</time>
      </trkpt>
      <trkpt lat="49.50578" lon="-1.45327">
        <ele>51.9</ele>
        <time>2026-09-03T07:34:40.562Z</time>
      </trkpt>
      <trkpt lat="49.50577" lon="-1.45325">
        <ele>51.8</ele>
        <time>2026-09-03T07:34:42.555Z</time>
      </trkpt>
      <trkpt lat="49.50576" lon="-1.45325">
        <ele>51.9</ele>
        <time>2026-09-03T07:34:43.556Z</time>
      </trkpt>
      <trkpt lat="49.50574" lon="-1.45323">
        <ele>51.9</ele>
        <time>2026-09-03T07:34:45.379Z</time>
      </trkpt>
      <trkpt lat="49.50573" lon="-1.45324">
        <ele>51.9</ele>
        <time>2026-09-03T07:34:46.501Z</time>
      </trkpt>
      <trkpt lat="49.50572" lon="-1.45325">
        <ele>51.9</ele>
        <time>2026-09-03T07:34:47.562Z</time>
      </trkpt>
      <trkpt lat="49.50571" lon="-1.45324">
        <ele>52</ele>
        <time>2026-09-03T07:34:48.564Z</time>
      </trkpt>
      <trkpt lat="49.5057" lon="-1.45321">
        <ele>52</ele>
        <time>2026-09-03T07:34:49.565Z</time>
      </trkpt>
      <trkpt lat="49.50569" lon="-1.45318">
        <ele>52</ele>
        <time>2026-09-03T07:34:50.567Z</time>
      </trkpt>
      <trkpt lat="49.50568" lon="-1.45315">
        <ele>52.1</ele>
        <time>2026-09-03T07:34:52.570Z</time>
      </trkpt>
      <trkpt lat="49.50567" lon="-1.45311">
        <ele>52.1</ele>
        <time>2026-09-03T07:34:54.533Z</time>
      </trkpt>
      <trkpt lat="49.50568" lon="-1.45308">
        <ele>52.1</ele>
        <time>2026-09-03T07:34:56.545Z</time>
      </trkpt>
      <trkpt lat="49.50569" lon="-1.45304">
        <ele>52</ele>
        <time>2026-09-03T07:34:58.579Z</time>
      </trkpt>
      <trkpt lat="49.5057" lon="-1.453">
        <ele>51.8</ele>
        <time>2026-09-03T07:35:00.532Z</time>
      </trkpt>
      <trkpt lat="49.5057" lon="-1.45298">
        <ele>51.7</ele>
        <time>2026-09-03T07:35:01.623Z</time>
      </trkpt>
      <trkpt lat="49.5057" lon="-1.45293">
        <ele>51.5</ele>
        <time>2026-09-03T07:35:03.531Z</time>
      </trkpt>
      <trkpt lat="49.50571" lon="-1.45292">
        <ele>51.5</ele>
        <time>2026-09-03T07:35:04.534Z</time>
      </trkpt>
      <trkpt lat="49.50571" lon="-1.4529">
        <ele>51.4</ele>
        <time>2026-09-03T07:35:05.536Z</time>
      </trkpt>
      <trkpt lat="49.50572" lon="-1.45288">
        <ele>51.3</ele>
        <time>2026-09-03T07:35:07.402Z</time>
      </trkpt>
      <trkpt lat="49.50572" lon="-1.45286">
        <ele>51.2</ele>
        <time>2026-09-03T07:35:08.531Z</time>
      </trkpt>
      <trkpt lat="49.50572" lon="-1.45283">
        <ele>51.2</ele>
        <time>2026-09-03T07:35:09.537Z</time>
      </trkpt>
      <trkpt lat="49.50572" lon="-1.4528">
        <ele>51.1</ele>
        <time>2026-09-03T07:35:11.538Z</time>
      </trkpt>
      <trkpt lat="49.50572" lon="-1.45279">
        <ele>51</ele>
        <time>2026-09-03T07:35:12.539Z</time>
      </trkpt>
      <trkpt lat="49.50573" lon="-1.45277">
        <ele>51</ele>
        <time>2026-09-03T07:35:13.540Z</time>
      </trkpt>
      <trkpt lat="49.50574" lon="-1.45275">
        <ele>50.9</ele>
        <time>2026-09-03T07:35:15.504Z</time>
      </trkpt>
      <trkpt lat="49.50575" lon="-1.45273">
        <ele>50.9</ele>
        <time>2026-09-03T07:35:16.566Z</time>
      </trkpt>
      <trkpt lat="49.50575" lon="-1.45271">
        <ele>50.8</ele>
        <time>2026-09-03T07:35:18.534Z</time>
      </trkpt>
      <trkpt lat="49.50576" lon="-1.45268">
        <ele>50.7</ele>
        <time>2026-09-03T07:35:20.572Z</time>
      </trkpt>
      <trkpt lat="49.50577" lon="-1.45267">
        <ele>50.7</ele>
        <time>2026-09-03T07:35:21.574Z</time>
      </trkpt>
      <trkpt lat="49.50577" lon="-1.45265">
        <ele>50.6</ele>
        <time>2026-09-03T07:35:23.534Z</time>
      </trkpt>
      <trkpt lat="49.50577" lon="-1.45263">
        <ele>50.6</ele>
        <time>2026-09-03T07:35:24.534Z</time>
      </trkpt>
      <trkpt lat="49.50578" lon="-1.45262">
        <ele>50.5</ele>
        <time>2026-09-03T07:35:25.580Z</time>
      </trkpt>
      <trkpt lat="49.50578" lon="-1.45259">
        <ele>50.5</ele>
        <time>2026-09-03T07:35:27.554Z</time>
      </trkpt>
      <trkpt lat="49.50579" lon="-1.45256">
        <ele>50.3</ele>
        <time>2026-09-03T07:35:29.506Z</time>
      </trkpt>
      <trkpt lat="49.5058" lon="-1.45254">
        <ele>50.2</ele>
        <time>2026-09-03T07:35:30.532Z</time>
      </trkpt>
      <trkpt lat="49.5058" lon="-1.45253">
        <ele>50.2</ele>
        <time>2026-09-03T07:35:31.532Z</time>
      </trkpt>
      <trkpt lat="49.50581" lon="-1.45251">
        <ele>50.1</ele>
        <time>2026-09-03T07:35:32.535Z</time>
      </trkpt>
      <trkpt lat="49.5058" lon="-1.45247">
        <ele>50</ele>
        <time>2026-09-03T07:35:34.545Z</time>
      </trkpt>
      <trkpt lat="49.50581" lon="-1.45245">
        <ele>49.9</ele>
        <time>2026-09-03T07:35:35.565Z</time>
      </trkpt>
      <trkpt lat="49.5058" lon="-1.45242">
        <ele>49.9</ele>
        <time>2026-09-03T07:35:37.458Z</time>
      </trkpt>
      <trkpt lat="49.50579" lon="-1.4524">
        <ele>49.9</ele>
        <time>2026-09-03T07:35:38.535Z</time>
      </trkpt>
      <trkpt lat="49.50579" lon="-1.45237">
        <ele>49.8</ele>
        <time>2026-09-03T07:35:40.532Z</time>
      </trkpt>
      <trkpt lat="49.5058" lon="-1.45235">
        <ele>49.6</ele>
        <time>2026-09-03T07:35:41.533Z</time>
      </trkpt>
      <trkpt lat="49.5058" lon="-1.45233">
        <ele>49.6</ele>
        <time>2026-09-03T07:35:42.554Z</time>
      </trkpt>
      <trkpt lat="49.5058" lon="-1.45229">
        <ele>49.5</ele>
        <time>2026-09-03T07:35:44.458Z</time>
      </trkpt>
      <trkpt lat="49.50581" lon="-1.45228">
        <ele>49.4</ele>
        <time>2026-09-03T07:35:45.540Z</time>
      </trkpt>
      <trkpt lat="49.50581" lon="-1.45226">
        <ele>49.3</ele>
        <time>2026-09-03T07:35:46.551Z</time>
      </trkpt>
      <trkpt lat="49.50581" lon="-1.45225">
        <ele>49.3</ele>
        <time>2026-09-03T07:35:47.553Z</time>
      </trkpt>
      <trkpt lat="49.50582" lon="-1.45221">
        <ele>49</ele>
        <time>2026-09-03T07:35:49.546Z</time>
      </trkpt>
      <trkpt lat="49.50583" lon="-1.4522">
        <ele>48.9</ele>
        <time>2026-09-03T07:35:50.557Z</time>
      </trkpt>
      <trkpt lat="49.50584" lon="-1.45218">
        <ele>48.8</ele>
        <time>2026-09-03T07:35:51.559Z</time>
      </trkpt>
      <trkpt lat="49.50586" lon="-1.45214">
        <ele>48.7</ele>
        <time>2026-09-03T07:35:53.599Z</time>
      </trkpt>
      <trkpt lat="49.50587" lon="-1.45211">
        <ele>48.6</ele>
        <time>2026-09-03T07:35:55.565Z</time>
      </trkpt>
      <trkpt lat="49.50588" lon="-1.4521">
        <ele>48.6</ele>
        <time>2026-09-03T07:35:56.566Z</time>
      </trkpt>
      <trkpt lat="49.5059" lon="-1.45208">
        <ele>48.5</ele>
        <time>2026-09-03T07:35:58.532Z</time>
      </trkpt>
      <trkpt lat="49.50592" lon="-1.45206">
        <ele>48.4</ele>
        <time>2026-09-03T07:36:00.542Z</time>
      </trkpt>
      <trkpt lat="49.50594" lon="-1.45206">
        <ele>48.4</ele>
        <time>2026-09-03T07:36:01.563Z</time>
      </trkpt>
      <trkpt lat="49.50596" lon="-1.45205">
        <ele>48.4</ele>
        <time>2026-09-03T07:36:03.535Z</time>
      </trkpt>
      <trkpt lat="49.50598" lon="-1.45205">
        <ele>48.4</ele>
        <time>2026-09-03T07:36:05.532Z</time>
      </trkpt>
      <trkpt lat="49.50599" lon="-1.45204">
        <ele>48.3</ele>
        <time>2026-09-03T07:36:06.533Z</time>
      </trkpt>
      <trkpt lat="49.50602" lon="-1.45204">
        <ele>48.3</ele>
        <time>2026-09-03T07:36:08.584Z</time>
      </trkpt>
      <trkpt lat="49.50604" lon="-1.45204">
        <ele>48.3</ele>
        <time>2026-09-03T07:36:10.506Z</time>
      </trkpt>
      <trkpt lat="49.50605" lon="-1.45204">
        <ele>48.3</ele>
        <time>2026-09-03T07:36:11.568Z</time>
      </trkpt>
      <trkpt lat="49.50606" lon="-1.45203">
        <ele>48.3</ele>
        <time>2026-09-03T07:36:12.570Z</time>
      </trkpt>
      <trkpt lat="49.50607" lon="-1.45203">
        <ele>48.3</ele>
        <time>2026-09-03T07:36:13.571Z</time>
      </trkpt>
      <trkpt lat="49.50609" lon="-1.452">
        <ele>48.2</ele>
        <time>2026-09-03T07:36:15.534Z</time>
      </trkpt>
      <trkpt lat="49.5061" lon="-1.45198">
        <ele>48.1</ele>
        <time>2026-09-03T07:36:16.575Z</time>
      </trkpt>
      <trkpt lat="49.50612" lon="-1.45196">
        <ele>48</ele>
        <time>2026-09-03T07:36:18.542Z</time>
      </trkpt>
      <trkpt lat="49.50613" lon="-1.45195">
        <ele>48</ele>
        <time>2026-09-03T07:36:20.541Z</time>
      </trkpt>
      <trkpt lat="49.50615" lon="-1.45194">
        <ele>47.8</ele>
        <time>2026-09-03T07:36:22.504Z</time>
      </trkpt>
      <trkpt lat="49.50617" lon="-1.45193">
        <ele>47.7</ele>
        <time>2026-09-03T07:36:23.566Z</time>
      </trkpt>
      <trkpt lat="49.50619" lon="-1.45193">
        <ele>47.7</ele>
        <time>2026-09-03T07:36:25.569Z</time>
      </trkpt>
      <trkpt lat="49.5062" lon="-1.45192">
        <ele>47.6</ele>
        <time>2026-09-03T07:36:26.570Z</time>
      </trkpt>
      <trkpt lat="49.50622" lon="-1.45191">
        <ele>47.5</ele>
        <time>2026-09-03T07:36:28.537Z</time>
      </trkpt>
      <trkpt lat="49.50623" lon="-1.4519">
        <ele>47.4</ele>
        <time>2026-09-03T07:36:29.574Z</time>
      </trkpt>
      <trkpt lat="49.50624" lon="-1.45191">
        <ele>47.4</ele>
        <time>2026-09-03T07:36:31.532Z</time>
      </trkpt>
      <trkpt lat="49.50625" lon="-1.45191">
        <ele>47.4</ele>
        <time>2026-09-03T07:36:32.533Z</time>
      </trkpt>
      <trkpt lat="49.50625" lon="-1.45191">
        <ele>47.4</ele>
        <time>2026-09-03T07:36:33.536Z</time>
      </trkpt>
      <trkpt lat="49.50626" lon="-1.4519">
        <ele>47.3</ele>
        <time>2026-09-03T07:36:35.483Z</time>
      </trkpt>
      <trkpt lat="49.50627" lon="-1.45189">
        <ele>47.2</ele>
        <time>2026-09-03T07:36:36.565Z</time>
      </trkpt>
      <trkpt lat="49.50629" lon="-1.45189">
        <ele>47.2</ele>
        <time>2026-09-03T07:36:38.535Z</time>
      </trkpt>
      <trkpt lat="49.50631" lon="-1.45189">
        <ele>47.1</ele>
        <time>2026-09-03T07:36:40.533Z</time>
      </trkpt>
      <trkpt lat="49.50633" lon="-1.45189">
        <ele>47</ele>
        <time>2026-09-03T07:36:41.539Z</time>
      </trkpt>
      <trkpt lat="49.50636" lon="-1.45189">
        <ele>46.9</ele>
        <time>2026-09-03T07:36:43.535Z</time>
      </trkpt>
      <trkpt lat="49.50637" lon="-1.4519">
        <ele>46.9</ele>
        <time>2026-09-03T07:36:44.547Z</time>
      </trkpt>
      <trkpt lat="49.5064" lon="-1.45191">
        <ele>46.8</ele>
        <time>2026-09-03T07:36:46.534Z</time>
      </trkpt>
      <trkpt lat="49.50643" lon="-1.4519">
        <ele>46.7</ele>
        <time>2026-09-03T07:36:48.533Z</time>
      </trkpt>
      <trkpt lat="49.50645" lon="-1.45189">
        <ele>46.6</ele>
        <time>2026-09-03T07:36:49.537Z</time>
      </trkpt>
      <trkpt lat="49.50646" lon="-1.45188">
        <ele>46.5</ele>
        <time>2026-09-03T07:36:51.536Z</time>
      </trkpt>
      <trkpt lat="49.50648" lon="-1.45187">
        <ele>46.4</ele>
        <time>2026-09-03T07:36:52.540Z</time>
      </trkpt>
      <trkpt lat="49.50649" lon="-1.45186">
        <ele>46.3</ele>
        <time>2026-09-03T07:36:53.570Z</time>
      </trkpt>
      <trkpt lat="49.50651" lon="-1.45184">
        <ele>46.2</ele>
        <time>2026-09-03T07:36:55.583Z</time>
      </trkpt>
      <trkpt lat="49.50653" lon="-1.45182">
        <ele>46</ele>
        <time>2026-09-03T07:36:57.546Z</time>
      </trkpt>
      <trkpt lat="49.50655" lon="-1.45181">
        <ele>45.9</ele>
        <time>2026-09-03T07:36:59.559Z</time>
      </trkpt>
      <trkpt lat="49.50655" lon="-1.45181">
        <ele>45.9</ele>
        <time>2026-09-03T07:37:00.560Z</time>
      </trkpt>
      <trkpt lat="49.50656" lon="-1.4518">
        <ele>45.9</ele>
        <time>2026-09-03T07:37:01.562Z</time>
      </trkpt>
      <trkpt lat="49.50657" lon="-1.45179">
        <ele>45.8</ele>
        <time>2026-09-03T07:37:02.563Z</time>
      </trkpt>
      <trkpt lat="49.50659" lon="-1.45178">
        <ele>45.7</ele>
        <time>2026-09-03T07:37:03.565Z</time>
      </trkpt>
      <trkpt lat="49.50661" lon="-1.45175">
        <ele>45.5</ele>
        <time>2026-09-03T07:37:05.518Z</time>
      </trkpt>
      <trkpt lat="49.50663" lon="-1.45175">
        <ele>45.4</ele>
        <time>2026-09-03T07:37:06.540Z</time>
      </trkpt>
      <trkpt lat="49.50665" lon="-1.45174">
        <ele>45.3</ele>
        <time>2026-09-03T07:37:08.462Z</time>
      </trkpt>
      <trkpt lat="49.50666" lon="-1.45173">
        <ele>45.3</ele>
        <time>2026-09-03T07:37:09.537Z</time>
      </trkpt>
      <trkpt lat="49.50668" lon="-1.45173">
        <ele>45.2</ele>
        <time>2026-09-03T07:37:10.575Z</time>
      </trkpt>
      <trkpt lat="49.50669" lon="-1.45173">
        <ele>45.1</ele>
        <time>2026-09-03T07:37:12.530Z</time>
      </trkpt>
      <trkpt lat="49.5067" lon="-1.45173">
        <ele>45.1</ele>
        <time>2026-09-03T07:37:13.534Z</time>
      </trkpt>
      <trkpt lat="49.50672" lon="-1.45173">
        <ele>45</ele>
        <time>2026-09-03T07:37:14.536Z</time>
      </trkpt>
      <trkpt lat="49.50673" lon="-1.45173">
        <ele>45</ele>
        <time>2026-09-03T07:37:15.539Z</time>
      </trkpt>
      <trkpt lat="49.50675" lon="-1.45174">
        <ele>45</ele>
        <time>2026-09-03T07:37:17.565Z</time>
      </trkpt>
      <trkpt lat="49.50678" lon="-1.45174">
        <ele>44.9</ele>
        <time>2026-09-03T07:37:19.578Z</time>
      </trkpt>
      <trkpt lat="49.5068" lon="-1.45173">
        <ele>44.7</ele>
        <time>2026-09-03T07:37:21.534Z</time>
      </trkpt>
      <trkpt lat="49.50682" lon="-1.45172">
        <ele>44.6</ele>
        <time>2026-09-03T07:37:23.544Z</time>
      </trkpt>
      <trkpt lat="49.50684" lon="-1.45171">
        <ele>44.5</ele>
        <time>2026-09-03T07:37:24.566Z</time>
      </trkpt>
      <trkpt lat="49.50685" lon="-1.45169">
        <ele>44.4</ele>
        <time>2026-09-03T07:37:26.579Z</time>
      </trkpt>
      <trkpt lat="49.50686" lon="-1.45169">
        <ele>44.4</ele>
        <time>2026-09-03T07:37:27.580Z</time>
      </trkpt>
      <trkpt lat="49.50689" lon="-1.45166">
        <ele>44.2</ele>
        <time>2026-09-03T07:37:29.535Z</time>
      </trkpt>
      <trkpt lat="49.50691" lon="-1.45165">
        <ele>44.1</ele>
        <time>2026-09-03T07:37:30.535Z</time>
      </trkpt>
      <trkpt lat="49.50694" lon="-1.45163">
        <ele>44</ele>
        <time>2026-09-03T07:37:32.577Z</time>
      </trkpt>
      <trkpt lat="49.50697" lon="-1.45158">
        <ele>43.9</ele>
        <time>2026-09-03T07:37:34.530Z</time>
      </trkpt>
      <trkpt lat="49.50699" lon="-1.45157">
        <ele>43.8</ele>
        <time>2026-09-03T07:37:36.393Z</time>
      </trkpt>
      <trkpt lat="49.507" lon="-1.45155">
        <ele>43.8</ele>
        <time>2026-09-03T07:37:37.565Z</time>
      </trkpt>
      <trkpt lat="49.50703" lon="-1.45154">
        <ele>43.7</ele>
        <time>2026-09-03T07:37:39.598Z</time>
      </trkpt>
      <trkpt lat="49.50705" lon="-1.45151">
        <ele>43.6</ele>
        <time>2026-09-03T07:37:41.535Z</time>
      </trkpt>
      <trkpt lat="49.50707" lon="-1.45148">
        <ele>43.5</ele>
        <time>2026-09-03T07:37:43.503Z</time>
      </trkpt>
      <trkpt lat="49.50708" lon="-1.45147">
        <ele>43.5</ele>
        <time>2026-09-03T07:37:44.553Z</time>
      </trkpt>
      <trkpt lat="49.5071" lon="-1.45144">
        <ele>43.4</ele>
        <time>2026-09-03T07:37:46.544Z</time>
      </trkpt>
      <trkpt lat="49.50711" lon="-1.45142">
        <ele>43.4</ele>
        <time>2026-09-03T07:37:48.533Z</time>
      </trkpt>
      <trkpt lat="49.50713" lon="-1.45139">
        <ele>43.3</ele>
        <time>2026-09-03T07:37:50.543Z</time>
      </trkpt>
      <trkpt lat="49.50714" lon="-1.45137">
        <ele>43.2</ele>
        <time>2026-09-03T07:37:51.555Z</time>
      </trkpt>
      <trkpt lat="49.50715" lon="-1.45136">
        <ele>43.2</ele>
        <time>2026-09-03T07:37:52.576Z</time>
      </trkpt>
      <trkpt lat="49.50716" lon="-1.45134">
        <ele>43.1</ele>
        <time>2026-09-03T07:37:54.559Z</time>
      </trkpt>
      <trkpt lat="49.50717" lon="-1.45133">
        <ele>43</ele>
        <time>2026-09-03T07:37:55.561Z</time>
      </trkpt>
      <trkpt lat="49.50719" lon="-1.4513">
        <ele>42.8</ele>
        <time>2026-09-03T07:37:57.564Z</time>
      </trkpt>
      <trkpt lat="49.50721" lon="-1.45127">
        <ele>42.6</ele>
        <time>2026-09-03T07:37:59.466Z</time>
      </trkpt>
      <trkpt lat="49.50722" lon="-1.45126">
        <ele>42.5</ele>
        <time>2026-09-03T07:38:00.498Z</time>
      </trkpt>
      <trkpt lat="49.50722" lon="-1.45125">
        <ele>42.5</ele>
        <time>2026-09-03T07:38:01.579Z</time>
      </trkpt>
      <trkpt lat="49.50724" lon="-1.45122">
        <ele>42.3</ele>
        <time>2026-09-03T07:38:03.571Z</time>
      </trkpt>
      <trkpt lat="49.50726" lon="-1.4512">
        <ele>42.2</ele>
        <time>2026-09-03T07:38:05.485Z</time>
      </trkpt>
      <trkpt lat="49.50727" lon="-1.45119">
        <ele>42.1</ele>
        <time>2026-09-03T07:38:06.565Z</time>
      </trkpt>
      <trkpt lat="49.50729" lon="-1.45118">
        <ele>42</ele>
        <time>2026-09-03T07:38:08.539Z</time>
      </trkpt>
      <trkpt lat="49.50732" lon="-1.45116">
        <ele>41.8</ele>
        <time>2026-09-03T07:38:10.562Z</time>
      </trkpt>
      <trkpt lat="49.50733" lon="-1.45116">
        <ele>41.8</ele>
        <time>2026-09-03T07:38:11.564Z</time>
      </trkpt>
      <trkpt lat="49.50734" lon="-1.45115">
        <ele>41.7</ele>
        <time>2026-09-03T07:38:12.565Z</time>
      </trkpt>
      <trkpt lat="49.50735" lon="-1.45114">
        <ele>41.6</ele>
        <time>2026-09-03T07:38:13.567Z</time>
      </trkpt>
      <trkpt lat="49.50736" lon="-1.45113">
        <ele>41.6</ele>
        <time>2026-09-03T07:38:14.568Z</time>
      </trkpt>
      <trkpt lat="49.50737" lon="-1.45112">
        <ele>41.5</ele>
        <time>2026-09-03T07:38:15.569Z</time>
      </trkpt>
      <trkpt lat="49.50738" lon="-1.4511">
        <ele>41.4</ele>
        <time>2026-09-03T07:38:16.571Z</time>
      </trkpt>
      <trkpt lat="49.5074" lon="-1.45107">
        <ele>41.4</ele>
        <time>2026-09-03T07:38:18.574Z</time>
      </trkpt>
      <trkpt lat="49.50741" lon="-1.45106">
        <ele>41.3</ele>
        <time>2026-09-03T07:38:19.575Z</time>
      </trkpt>
      <trkpt lat="49.50743" lon="-1.45104">
        <ele>41.3</ele>
        <time>2026-09-03T07:38:21.578Z</time>
      </trkpt>
      <trkpt lat="49.50745" lon="-1.451">
        <ele>41.2</ele>
        <time>2026-09-03T07:38:23.559Z</time>
      </trkpt>
      <trkpt lat="49.50746" lon="-1.45099">
        <ele>41.1</ele>
        <time>2026-09-03T07:38:25.444Z</time>
      </trkpt>
      <trkpt lat="49.50747" lon="-1.45097">
        <ele>41.1</ele>
        <time>2026-09-03T07:38:26.534Z</time>
      </trkpt>
      <trkpt lat="49.50749" lon="-1.45096">
        <ele>41</ele>
        <time>2026-09-03T07:38:28.558Z</time>
      </trkpt>
      <trkpt lat="49.50751" lon="-1.45094">
        <ele>41</ele>
        <time>2026-09-03T07:38:30.533Z</time>
      </trkpt>
      <trkpt lat="49.50753" lon="-1.45092">
        <ele>40.9</ele>
        <time>2026-09-03T07:38:31.536Z</time>
      </trkpt>
      <trkpt lat="49.50753" lon="-1.45092">
        <ele>40.9</ele>
        <time>2026-09-03T07:38:32.541Z</time>
      </trkpt>
      <trkpt lat="49.50755" lon="-1.45089">
        <ele>40.9</ele>
        <time>2026-09-03T07:38:34.544Z</time>
      </trkpt>
      <trkpt lat="49.50757" lon="-1.45086">
        <ele>40.8</ele>
        <time>2026-09-03T07:38:36.535Z</time>
      </trkpt>
      <trkpt lat="49.50758" lon="-1.45083">
        <ele>40.7</ele>
        <time>2026-09-03T07:38:38.538Z</time>
      </trkpt>
      <trkpt lat="49.50759" lon="-1.45082">
        <ele>40.7</ele>
        <time>2026-09-03T07:38:39.541Z</time>
      </trkpt>
      <trkpt lat="49.50761" lon="-1.4508">
        <ele>40.6</ele>
        <time>2026-09-03T07:38:41.477Z</time>
      </trkpt>
      <trkpt lat="49.50762" lon="-1.45079">
        <ele>40.6</ele>
        <time>2026-09-03T07:38:42.558Z</time>
      </trkpt>
      <trkpt lat="49.50763" lon="-1.45078">
        <ele>40.5</ele>
        <time>2026-09-03T07:38:43.570Z</time>
      </trkpt>
      <trkpt lat="49.50764" lon="-1.45075">
        <ele>40.5</ele>
        <time>2026-09-03T07:38:45.531Z</time>
      </trkpt>
      <trkpt lat="49.50765" lon="-1.45074">
        <ele>40.5</ele>
        <time>2026-09-03T07:38:46.574Z</time>
      </trkpt>
      <trkpt lat="49.50767" lon="-1.45071">
        <ele>40.4</ele>
        <time>2026-09-03T07:38:48.517Z</time>
      </trkpt>
      <trkpt lat="49.50768" lon="-1.4507">
        <ele>40.4</ele>
        <time>2026-09-03T07:38:49.538Z</time>
      </trkpt>
      <trkpt lat="49.50769" lon="-1.45069">
        <ele>40.3</ele>
        <time>2026-09-03T07:38:50.580Z</time>
      </trkpt>
      <trkpt lat="49.50771" lon="-1.45067">
        <ele>40.2</ele>
        <time>2026-09-03T07:38:52.533Z</time>
      </trkpt>
      <trkpt lat="49.50773" lon="-1.45064">
        <ele>40.2</ele>
        <time>2026-09-03T07:38:54.534Z</time>
      </trkpt>
      <trkpt lat="49.50774" lon="-1.45063">
        <ele>40.1</ele>
        <time>2026-09-03T07:38:55.556Z</time>
      </trkpt>
      <trkpt lat="49.50775" lon="-1.45061">
        <ele>40.1</ele>
        <time>2026-09-03T07:38:56.569Z</time>
      </trkpt>
      <trkpt lat="49.50777" lon="-1.45059">
        <ele>40</ele>
        <time>2026-09-03T07:38:58.535Z</time>
      </trkpt>
      <trkpt lat="49.50779" lon="-1.45057">
        <ele>40</ele>
        <time>2026-09-03T07:38:59.537Z</time>
      </trkpt>
      <trkpt lat="49.50781" lon="-1.45053">
        <ele>39.9</ele>
        <time>2026-09-03T07:39:01.536Z</time>
      </trkpt>
      <trkpt lat="49.50782" lon="-1.45052">
        <ele>39.8</ele>
        <time>2026-09-03T07:39:02.537Z</time>
      </trkpt>
      <trkpt lat="49.50783" lon="-1.45051">
        <ele>39.8</ele>
        <time>2026-09-03T07:39:03.537Z</time>
      </trkpt>
      <trkpt lat="49.50785" lon="-1.45049">
        <ele>39.7</ele>
        <time>2026-09-03T07:39:05.561Z</time>
      </trkpt>
      <trkpt lat="49.50786" lon="-1.45047">
        <ele>39.7</ele>
        <time>2026-09-03T07:39:07.536Z</time>
      </trkpt>
      <trkpt lat="49.50786" lon="-1.45047">
        <ele>39.7</ele>
        <time>2026-09-03T07:39:08.536Z</time>
      </trkpt>
      <trkpt lat="49.50788" lon="-1.45045">
        <ele>39.6</ele>
        <time>2026-09-03T07:39:09.537Z</time>
      </trkpt>
      <trkpt lat="49.50789" lon="-1.45043">
        <ele>39.6</ele>
        <time>2026-09-03T07:39:10.539Z</time>
      </trkpt>
      <trkpt lat="49.50792" lon="-1.45041">
        <ele>39.5</ele>
        <time>2026-09-03T07:39:12.501Z</time>
      </trkpt>
      <trkpt lat="49.50792" lon="-1.45039">
        <ele>39.5</ele>
        <time>2026-09-03T07:39:13.543Z</time>
      </trkpt>
      <trkpt lat="49.50793" lon="-1.45039">
        <ele>39.5</ele>
        <time>2026-09-03T07:39:14.564Z</time>
      </trkpt>
      <trkpt lat="49.50795" lon="-1.45036">
        <ele>39.4</ele>
        <time>2026-09-03T07:39:16.547Z</time>
      </trkpt>
      <trkpt lat="49.50795" lon="-1.45035">
        <ele>39.4</ele>
        <time>2026-09-03T07:39:17.549Z</time>
      </trkpt>
      <trkpt lat="49.50796" lon="-1.45033">
        <ele>39.3</ele>
        <time>2026-09-03T07:39:18.550Z</time>
      </trkpt>
      <trkpt lat="49.50798" lon="-1.45032">
        <ele>39.3</ele>
        <time>2026-09-03T07:39:19.551Z</time>
      </trkpt>
      <trkpt lat="49.50799" lon="-1.45029">
        <ele>39.2</ele>
        <time>2026-09-03T07:39:21.536Z</time>
      </trkpt>
      <trkpt lat="49.50801" lon="-1.45027">
        <ele>39.2</ele>
        <time>2026-09-03T07:39:23.557Z</time>
      </trkpt>
      <trkpt lat="49.50802" lon="-1.45026">
        <ele>39.1</ele>
        <time>2026-09-03T07:39:24.559Z</time>
      </trkpt>
      <trkpt lat="49.50803" lon="-1.45024">
        <ele>39.1</ele>
        <time>2026-09-03T07:39:25.560Z</time>
      </trkpt>
      <trkpt lat="49.50804" lon="-1.45023">
        <ele>39.1</ele>
        <time>2026-09-03T07:39:26.561Z</time>
      </trkpt>
      <trkpt lat="49.50804" lon="-1.45021">
        <ele>39.1</ele>
        <time>2026-09-03T07:39:27.563Z</time>
      </trkpt>
      <trkpt lat="49.50807" lon="-1.45018">
        <ele>39</ele>
        <time>2026-09-03T07:39:29.526Z</time>
      </trkpt>
      <trkpt lat="49.50808" lon="-1.45018">
        <ele>39</ele>
        <time>2026-09-03T07:39:30.534Z</time>
      </trkpt>
      <trkpt lat="49.50809" lon="-1.45017">
        <ele>39</ele>
        <time>2026-09-03T07:39:31.549Z</time>
      </trkpt>
      <trkpt lat="49.5081" lon="-1.45016">
        <ele>38.9</ele>
        <time>2026-09-03T07:39:32.550Z</time>
      </trkpt>
      <trkpt lat="49.50813" lon="-1.45014">
        <ele>38.9</ele>
        <time>2026-09-03T07:39:34.523Z</time>
      </trkpt>
      <trkpt lat="49.50814" lon="-1.45013">
        <ele>38.8</ele>
        <time>2026-09-03T07:39:35.554Z</time>
      </trkpt>
      <trkpt lat="49.50815" lon="-1.45012">
        <ele>38.8</ele>
        <time>2026-09-03T07:39:36.556Z</time>
      </trkpt>
      <trkpt lat="49.50816" lon="-1.4501">
        <ele>38.8</ele>
        <time>2026-09-03T07:39:37.599Z</time>
      </trkpt>
      <trkpt lat="49.50818" lon="-1.45008">
        <ele>38.7</ele>
        <time>2026-09-03T07:39:39.539Z</time>
      </trkpt>
      <trkpt lat="49.50819" lon="-1.45007">
        <ele>38.6</ele>
        <time>2026-09-03T07:39:40.561Z</time>
      </trkpt>
      <trkpt lat="49.5082" lon="-1.45006">
        <ele>38.6</ele>
        <time>2026-09-03T07:39:41.563Z</time>
      </trkpt>
      <trkpt lat="49.5082" lon="-1.45004">
        <ele>38.6</ele>
        <time>2026-09-03T07:39:42.564Z</time>
      </trkpt>
      <trkpt lat="49.50821" lon="-1.45003">
        <ele>38.5</ele>
        <time>2026-09-03T07:39:43.566Z</time>
      </trkpt>
      <trkpt lat="49.50822" lon="-1.45001">
        <ele>38.4</ele>
        <time>2026-09-03T07:39:44.567Z</time>
      </trkpt>
      <trkpt lat="49.50824" lon="-1.44998">
        <ele>38.3</ele>
        <time>2026-09-03T07:39:46.541Z</time>
      </trkpt>
      <trkpt lat="49.50825" lon="-1.44997">
        <ele>38.2</ele>
        <time>2026-09-03T07:39:47.551Z</time>
      </trkpt>
      <trkpt lat="49.50826" lon="-1.44995">
        <ele>38.1</ele>
        <time>2026-09-03T07:39:48.553Z</time>
      </trkpt>
      <trkpt lat="49.50826" lon="-1.44994">
        <ele>38.1</ele>
        <time>2026-09-03T07:39:49.554Z</time>
      </trkpt>
      <trkpt lat="49.50827" lon="-1.44993">
        <ele>38</ele>
        <time>2026-09-03T07:39:50.556Z</time>
      </trkpt>
      <trkpt lat="49.50829" lon="-1.4499">
        <ele>37.9</ele>
        <time>2026-09-03T07:39:52.559Z</time>
      </trkpt>
      <trkpt lat="49.50831" lon="-1.44988">
        <ele>37.7</ele>
        <time>2026-09-03T07:39:53.560Z</time>
      </trkpt>
      <trkpt lat="49.50831" lon="-1.44988">
        <ele>37.7</ele>
        <time>2026-09-03T07:39:54.561Z</time>
      </trkpt>
      <trkpt lat="49.50832" lon="-1.44986">
        <ele>37.6</ele>
        <time>2026-09-03T07:39:55.563Z</time>
      </trkpt>
      <trkpt lat="49.50833" lon="-1.44985">
        <ele>37.5</ele>
        <time>2026-09-03T07:39:56.599Z</time>
      </trkpt>
      <trkpt lat="49.50835" lon="-1.44982">
        <ele>37.4</ele>
        <time>2026-09-03T07:39:58.567Z</time>
      </trkpt>
      <trkpt lat="49.50836" lon="-1.44981">
        <ele>37.3</ele>
        <time>2026-09-03T07:39:59.569Z</time>
      </trkpt>
      <trkpt lat="49.50837" lon="-1.44979">
        <ele>37.2</ele>
        <time>2026-09-03T07:40:00.570Z</time>
      </trkpt>
      <trkpt lat="49.50839" lon="-1.44977">
        <ele>37.2</ele>
        <time>2026-09-03T07:40:02.553Z</time>
      </trkpt>
      <trkpt lat="49.50841" lon="-1.44975">
        <ele>37.1</ele>
        <time>2026-09-03T07:40:04.537Z</time>
      </trkpt>
      <trkpt lat="49.50842" lon="-1.44973">
        <ele>37</ele>
        <time>2026-09-03T07:40:06.578Z</time>
      </trkpt>
      <trkpt lat="49.50844" lon="-1.44971">
        <ele>37</ele>
        <time>2026-09-03T07:40:08.501Z</time>
      </trkpt>
      <trkpt lat="49.50845" lon="-1.44969">
        <ele>37</ele>
        <time>2026-09-03T07:40:09.543Z</time>
      </trkpt>
      <trkpt lat="49.50847" lon="-1.44966">
        <ele>36.9</ele>
        <time>2026-09-03T07:40:11.546Z</time>
      </trkpt>
      <trkpt lat="49.50848" lon="-1.44965">
        <ele>36.9</ele>
        <time>2026-09-03T07:40:12.567Z</time>
      </trkpt>
      <trkpt lat="49.50849" lon="-1.44964">
        <ele>36.8</ele>
        <time>2026-09-03T07:40:13.599Z</time>
      </trkpt>
      <trkpt lat="49.50851" lon="-1.44962">
        <ele>36.8</ele>
        <time>2026-09-03T07:40:15.571Z</time>
      </trkpt>
      <trkpt lat="49.50852" lon="-1.4496">
        <ele>36.7</ele>
        <time>2026-09-03T07:40:16.572Z</time>
      </trkpt>
      <trkpt lat="49.50854" lon="-1.44957">
        <ele>36.6</ele>
        <time>2026-09-03T07:40:18.599Z</time>
      </trkpt>
      <trkpt lat="49.50855" lon="-1.44955">
        <ele>36.5</ele>
        <time>2026-09-03T07:40:20.540Z</time>
      </trkpt>
      <trkpt lat="49.50857" lon="-1.44951">
        <ele>36.3</ele>
        <time>2026-09-03T07:40:22.521Z</time>
      </trkpt>
      <trkpt lat="49.50858" lon="-1.4495">
        <ele>36.3</ele>
        <time>2026-09-03T07:40:23.583Z</time>
      </trkpt>
      <trkpt lat="49.5086" lon="-1.44947">
        <ele>36.1</ele>
        <time>2026-09-03T07:40:25.532Z</time>
      </trkpt>
      <trkpt lat="49.50861" lon="-1.44944">
        <ele>36</ele>
        <time>2026-09-03T07:40:26.532Z</time>
      </trkpt>
      <trkpt lat="49.50862" lon="-1.44943">
        <ele>36</ele>
        <time>2026-09-03T07:40:27.537Z</time>
      </trkpt>
      <trkpt lat="49.50863" lon="-1.4494">
        <ele>35.9</ele>
        <time>2026-09-03T07:40:29.601Z</time>
      </trkpt>
      <trkpt lat="49.50865" lon="-1.44938">
        <ele>35.9</ele>
        <time>2026-09-03T07:40:31.531Z</time>
      </trkpt>
      <trkpt lat="49.50866" lon="-1.44937">
        <ele>35.9</ele>
        <time>2026-09-03T07:40:32.533Z</time>
      </trkpt>
      <trkpt lat="49.50868" lon="-1.44934">
        <ele>35.8</ele>
        <time>2026-09-03T07:40:34.536Z</time>
      </trkpt>
      <trkpt lat="49.50869" lon="-1.44932">
        <ele>35.8</ele>
        <time>2026-09-03T07:40:35.599Z</time>
      </trkpt>
      <trkpt lat="49.5087" lon="-1.44929">
        <ele>35.9</ele>
        <time>2026-09-03T07:40:37.557Z</time>
      </trkpt>
      <trkpt lat="49.50871" lon="-1.44928">
        <ele>35.9</ele>
        <time>2026-09-03T07:40:38.599Z</time>
      </trkpt>
      <trkpt lat="49.50872" lon="-1.44926">
        <ele>35.9</ele>
        <time>2026-09-03T07:40:40.467Z</time>
      </trkpt>
      <trkpt lat="49.50872" lon="-1.44924">
        <ele>35.9</ele>
        <time>2026-09-03T07:40:41.518Z</time>
      </trkpt>
      <trkpt lat="49.50873" lon="-1.44923">
        <ele>35.9</ele>
        <time>2026-09-03T07:40:42.580Z</time>
      </trkpt>
      <trkpt lat="49.50875" lon="-1.4492">
        <ele>35.9</ele>
        <time>2026-09-03T07:40:44.535Z</time>
      </trkpt>
      <trkpt lat="49.50877" lon="-1.44917">
        <ele>36</ele>
        <time>2026-09-03T07:40:46.568Z</time>
      </trkpt>
      <trkpt lat="49.50879" lon="-1.44914">
        <ele>36</ele>
        <time>2026-09-03T07:40:48.534Z</time>
      </trkpt>
      <trkpt lat="49.50881" lon="-1.44912">
        <ele>36</ele>
        <time>2026-09-03T07:40:50.531Z</time>
      </trkpt>
      <trkpt lat="49.50883" lon="-1.4491">
        <ele>36.1</ele>
        <time>2026-09-03T07:40:51.537Z</time>
      </trkpt>
      <trkpt lat="49.50883" lon="-1.44909">
        <ele>36.1</ele>
        <time>2026-09-03T07:40:52.584Z</time>
      </trkpt>
      <trkpt lat="49.50884" lon="-1.44908">
        <ele>36.1</ele>
        <time>2026-09-03T07:40:53.599Z</time>
      </trkpt>
      <trkpt lat="49.50886" lon="-1.44906">
        <ele>36</ele>
        <time>2026-09-03T07:40:55.568Z</time>
      </trkpt>
      <trkpt lat="49.50886" lon="-1.44904">
        <ele>36</ele>
        <time>2026-09-03T07:40:56.569Z</time>
      </trkpt>
      <trkpt lat="49.50888" lon="-1.449">
        <ele>36</ele>
        <time>2026-09-03T07:40:58.562Z</time>
      </trkpt>
      <trkpt lat="49.5089" lon="-1.44896">
        <ele>36</ele>
        <time>2026-09-03T07:41:00.534Z</time>
      </trkpt>
      <trkpt lat="49.5089" lon="-1.44895">
        <ele>36</ele>
        <time>2026-09-03T07:41:01.557Z</time>
      </trkpt>
      <trkpt lat="49.50892" lon="-1.44892">
        <ele>36.1</ele>
        <time>2026-09-03T07:41:03.519Z</time>
      </trkpt>
      <trkpt lat="49.50893" lon="-1.44892">
        <ele>36.1</ele>
        <time>2026-09-03T07:41:04.561Z</time>
      </trkpt>
      <trkpt lat="49.50893" lon="-1.44891">
        <ele>36.1</ele>
        <time>2026-09-03T07:41:05.562Z</time>
      </trkpt>
      <trkpt lat="49.50894" lon="-1.4489">
        <ele>36.2</ele>
        <time>2026-09-03T07:41:06.564Z</time>
      </trkpt>
      <trkpt lat="49.50896" lon="-1.44889">
        <ele>36.3</ele>
        <time>2026-09-03T07:41:07.565Z</time>
      </trkpt>
      <trkpt lat="49.50897" lon="-1.44888">
        <ele>36.4</ele>
        <time>2026-09-03T07:41:08.566Z</time>
      </trkpt>
      <trkpt lat="49.50897" lon="-1.44886">
        <ele>36.5</ele>
        <time>2026-09-03T07:41:09.568Z</time>
      </trkpt>
      <trkpt lat="49.50898" lon="-1.44885">
        <ele>36.6</ele>
        <time>2026-09-03T07:41:10.569Z</time>
      </trkpt>
      <trkpt lat="49.50899" lon="-1.44882">
        <ele>36.9</ele>
        <time>2026-09-03T07:41:12.572Z</time>
      </trkpt>
      <trkpt lat="49.509" lon="-1.44879">
        <ele>37.1</ele>
        <time>2026-09-03T07:41:14.525Z</time>
      </trkpt>
      <trkpt lat="49.50901" lon="-1.44877">
        <ele>37.3</ele>
        <time>2026-09-03T07:41:15.534Z</time>
      </trkpt>
      <trkpt lat="49.50901" lon="-1.44875">
        <ele>37.4</ele>
        <time>2026-09-03T07:41:16.578Z</time>
      </trkpt>
      <trkpt lat="49.50903" lon="-1.44873">
        <ele>37.7</ele>
        <time>2026-09-03T07:41:18.480Z</time>
      </trkpt>
      <trkpt lat="49.50903" lon="-1.44871">
        <ele>37.8</ele>
        <time>2026-09-03T07:41:19.563Z</time>
      </trkpt>
      <trkpt lat="49.50904" lon="-1.4487">
        <ele>37.9</ele>
        <time>2026-09-03T07:41:21.532Z</time>
      </trkpt>
      <trkpt lat="49.50905" lon="-1.44869">
        <ele>38</ele>
        <time>2026-09-03T07:41:22.534Z</time>
      </trkpt>
      <trkpt lat="49.50906" lon="-1.44868">
        <ele>38.1</ele>
        <time>2026-09-03T07:41:23.535Z</time>
      </trkpt>
      <trkpt lat="49.50907" lon="-1.44866">
        <ele>38.3</ele>
        <time>2026-09-03T07:41:24.540Z</time>
      </trkpt>
      <trkpt lat="49.50908" lon="-1.44864">
        <ele>38.5</ele>
        <time>2026-09-03T07:41:25.550Z</time>
      </trkpt>
      <trkpt lat="49.50909" lon="-1.44861">
        <ele>38.7</ele>
        <time>2026-09-03T07:41:27.503Z</time>
      </trkpt>
      <trkpt lat="49.50909" lon="-1.44858">
        <ele>38.8</ele>
        <time>2026-09-03T07:41:28.531Z</time>
      </trkpt>
      <trkpt lat="49.50909" lon="-1.44856">
        <ele>38.8</ele>
        <time>2026-09-03T07:41:29.533Z</time>
      </trkpt>
      <trkpt lat="49.50909" lon="-1.44854">
        <ele>38.8</ele>
        <time>2026-09-03T07:41:30.533Z</time>
      </trkpt>
      <trkpt lat="49.5091" lon="-1.44852">
        <ele>38.8</ele>
        <time>2026-09-03T07:41:31.533Z</time>
      </trkpt>
      <trkpt lat="49.50912" lon="-1.44848">
        <ele>38.9</ele>
        <time>2026-09-03T07:41:33.522Z</time>
      </trkpt>
      <trkpt lat="49.50913" lon="-1.44847">
        <ele>38.9</ele>
        <time>2026-09-03T07:41:34.538Z</time>
      </trkpt>
      <trkpt lat="49.50914" lon="-1.44843">
        <ele>39</ele>
        <time>2026-09-03T07:41:36.533Z</time>
      </trkpt>
      <trkpt lat="49.50914" lon="-1.44841">
        <ele>39</ele>
        <time>2026-09-03T07:41:37.536Z</time>
      </trkpt>
      <trkpt lat="49.50915" lon="-1.44839">
        <ele>39</ele>
        <time>2026-09-03T07:41:39.530Z</time>
      </trkpt>
      <trkpt lat="49.50915" lon="-1.44837">
        <ele>39</ele>
        <time>2026-09-03T07:41:40.532Z</time>
      </trkpt>
      <trkpt lat="49.50916" lon="-1.44835">
        <ele>39</ele>
        <time>2026-09-03T07:41:41.538Z</time>
      </trkpt>
      <trkpt lat="49.50916" lon="-1.44834">
        <ele>39</ele>
        <time>2026-09-03T07:41:42.541Z</time>
      </trkpt>
      <trkpt lat="49.50917" lon="-1.44833">
        <ele>39</ele>
        <time>2026-09-03T07:41:43.546Z</time>
      </trkpt>
      <trkpt lat="49.50917" lon="-1.4483">
        <ele>39.1</ele>
        <time>2026-09-03T07:41:45.439Z</time>
      </trkpt>
      <trkpt lat="49.50918" lon="-1.44828">
        <ele>39.2</ele>
        <time>2026-09-03T07:41:46.521Z</time>
      </trkpt>
      <trkpt lat="49.50917" lon="-1.44827">
        <ele>39.2</ele>
        <time>2026-09-03T07:41:47.534Z</time>
      </trkpt>
      <trkpt lat="49.50917" lon="-1.44823">
        <ele>39.4</ele>
        <time>2026-09-03T07:41:49.535Z</time>
      </trkpt>
      <trkpt lat="49.50917" lon="-1.44821">
        <ele>39.4</ele>
        <time>2026-09-03T07:41:50.538Z</time>
      </trkpt>
      <trkpt lat="49.50917" lon="-1.44819">
        <ele>39.5</ele>
        <time>2026-09-03T07:41:51.538Z</time>
      </trkpt>
      <trkpt lat="49.50917" lon="-1.44817">
        <ele>39.6</ele>
        <time>2026-09-03T07:41:52.539Z</time>
      </trkpt>
      <trkpt lat="49.50918" lon="-1.44813">
        <ele>39.7</ele>
        <time>2026-09-03T07:41:54.501Z</time>
      </trkpt>
      <trkpt lat="49.50918" lon="-1.44812">
        <ele>39.7</ele>
        <time>2026-09-03T07:41:55.533Z</time>
      </trkpt>
      <trkpt lat="49.50918" lon="-1.4481">
        <ele>39.8</ele>
        <time>2026-09-03T07:41:56.535Z</time>
      </trkpt>
      <trkpt lat="49.50919" lon="-1.44806">
        <ele>39.9</ele>
        <time>2026-09-03T07:41:58.549Z</time>
      </trkpt>
      <trkpt lat="49.50919" lon="-1.44805">
        <ele>39.9</ele>
        <time>2026-09-03T07:41:59.559Z</time>
      </trkpt>
      <trkpt lat="49.5092" lon="-1.44802">
        <ele>39.9</ele>
        <time>2026-09-03T07:42:01.582Z</time>
      </trkpt>
      <trkpt lat="49.5092" lon="-1.44798">
        <ele>39.9</ele>
        <time>2026-09-03T07:42:03.533Z</time>
      </trkpt>
      <trkpt lat="49.50921" lon="-1.44795">
        <ele>39.9</ele>
        <time>2026-09-03T07:42:05.538Z</time>
      </trkpt>
      <trkpt lat="49.50921" lon="-1.44793">
        <ele>39.9</ele>
        <time>2026-09-03T07:42:06.544Z</time>
      </trkpt>
      <trkpt lat="49.50922" lon="-1.44791">
        <ele>39.9</ele>
        <time>2026-09-03T07:42:07.571Z</time>
      </trkpt>
      <trkpt lat="49.50922" lon="-1.44788">
        <ele>39.9</ele>
        <time>2026-09-03T07:42:09.534Z</time>
      </trkpt>
      <trkpt lat="49.50922" lon="-1.44786">
        <ele>39.9</ele>
        <time>2026-09-03T07:42:10.575Z</time>
      </trkpt>
      <trkpt lat="49.50922" lon="-1.44782">
        <ele>40</ele>
        <time>2026-09-03T07:42:12.534Z</time>
      </trkpt>
      <trkpt lat="49.50923" lon="-1.4478">
        <ele>40</ele>
        <time>2026-09-03T07:42:13.534Z</time>
      </trkpt>
      <trkpt lat="49.50923" lon="-1.44776">
        <ele>40</ele>
        <time>2026-09-03T07:42:15.542Z</time>
      </trkpt>
      <trkpt lat="49.50924" lon="-1.44773">
        <ele>40</ele>
        <time>2026-09-03T07:42:17.563Z</time>
      </trkpt>
      <trkpt lat="49.50924" lon="-1.44771">
        <ele>40</ele>
        <time>2026-09-03T07:42:19.538Z</time>
      </trkpt>
      <trkpt lat="49.50925" lon="-1.44767">
        <ele>40</ele>
        <time>2026-09-03T07:42:21.536Z</time>
      </trkpt>
      <trkpt lat="49.50925" lon="-1.44766">
        <ele>40</ele>
        <time>2026-09-03T07:42:22.536Z</time>
      </trkpt>
      <trkpt lat="49.50925" lon="-1.44764">
        <ele>40</ele>
        <time>2026-09-03T07:42:23.555Z</time>
      </trkpt>
      <trkpt lat="49.50926" lon="-1.44761">
        <ele>40</ele>
        <time>2026-09-03T07:42:25.547Z</time>
      </trkpt>
      <trkpt lat="49.50926" lon="-1.44758">
        <ele>40</ele>
        <time>2026-09-03T07:42:27.532Z</time>
      </trkpt>
      <trkpt lat="49.50926" lon="-1.44757">
        <ele>40</ele>
        <time>2026-09-03T07:42:28.536Z</time>
      </trkpt>
      <trkpt lat="49.50927" lon="-1.44753">
        <ele>40</ele>
        <time>2026-09-03T07:42:30.534Z</time>
      </trkpt>
      <trkpt lat="49.50928" lon="-1.44751">
        <ele>40</ele>
        <time>2026-09-03T07:42:31.551Z</time>
      </trkpt>
      <trkpt lat="49.50928" lon="-1.44749">
        <ele>40</ele>
        <time>2026-09-03T07:42:32.566Z</time>
      </trkpt>
      <trkpt lat="49.50928" lon="-1.44747">
        <ele>40</ele>
        <time>2026-09-03T07:42:33.568Z</time>
      </trkpt>
      <trkpt lat="49.50929" lon="-1.44745">
        <ele>39.9</ele>
        <time>2026-09-03T07:42:34.569Z</time>
      </trkpt>
      <trkpt lat="49.50929" lon="-1.44743">
        <ele>39.9</ele>
        <time>2026-09-03T07:42:35.571Z</time>
      </trkpt>
      <trkpt lat="49.5093" lon="-1.44741">
        <ele>39.8</ele>
        <time>2026-09-03T07:42:36.572Z</time>
      </trkpt>
      <trkpt lat="49.5093" lon="-1.44737">
        <ele>39.8</ele>
        <time>2026-09-03T07:42:38.525Z</time>
      </trkpt>
      <trkpt lat="49.5093" lon="-1.44735">
        <ele>39.7</ele>
        <time>2026-09-03T07:42:39.606Z</time>
      </trkpt>
      <trkpt lat="49.50931" lon="-1.44732">
        <ele>39.7</ele>
        <time>2026-09-03T07:42:41.535Z</time>
      </trkpt>
      <trkpt lat="49.50933" lon="-1.44728">
        <ele>39.5</ele>
        <time>2026-09-03T07:42:43.542Z</time>
      </trkpt>
      <trkpt lat="49.50933" lon="-1.44727">
        <ele>39.5</ele>
        <time>2026-09-03T07:42:44.583Z</time>
      </trkpt>
      <trkpt lat="49.50934" lon="-1.44724">
        <ele>39.4</ele>
        <time>2026-09-03T07:42:46.530Z</time>
      </trkpt>
      <trkpt lat="49.50935" lon="-1.44723">
        <ele>39.4</ele>
        <time>2026-09-03T07:42:47.535Z</time>
      </trkpt>
      <trkpt lat="49.50935" lon="-1.44721">
        <ele>39.4</ele>
        <time>2026-09-03T07:42:48.599Z</time>
      </trkpt>
      <trkpt lat="49.50937" lon="-1.44718">
        <ele>39.3</ele>
        <time>2026-09-03T07:42:50.572Z</time>
      </trkpt>
      <trkpt lat="49.50937" lon="-1.44717">
        <ele>39.3</ele>
        <time>2026-09-03T07:42:51.599Z</time>
      </trkpt>
      <trkpt lat="49.50938" lon="-1.44715">
        <ele>39.3</ele>
        <time>2026-09-03T07:42:53.532Z</time>
      </trkpt>
      <trkpt lat="49.50939" lon="-1.44713">
        <ele>39.3</ele>
        <time>2026-09-03T07:42:55.459Z</time>
      </trkpt>
      <trkpt lat="49.5094" lon="-1.4471">
        <ele>39.2</ele>
        <time>2026-09-03T07:42:56.560Z</time>
      </trkpt>
      <trkpt lat="49.50941" lon="-1.44708">
        <ele>39.2</ele>
        <time>2026-09-03T07:42:57.562Z</time>
      </trkpt>
      <trkpt lat="49.50942" lon="-1.44706">
        <ele>39.1</ele>
        <time>2026-09-03T07:42:58.563Z</time>
      </trkpt>
      <trkpt lat="49.50942" lon="-1.44704">
        <ele>39.1</ele>
        <time>2026-09-03T07:42:59.584Z</time>
      </trkpt>
      <trkpt lat="49.50943" lon="-1.447">
        <ele>39.1</ele>
        <time>2026-09-03T07:43:01.535Z</time>
      </trkpt>
      <trkpt lat="49.50944" lon="-1.44698">
        <ele>39</ele>
        <time>2026-09-03T07:43:02.535Z</time>
      </trkpt>
      <trkpt lat="49.50945" lon="-1.44696">
        <ele>39</ele>
        <time>2026-09-03T07:43:03.535Z</time>
      </trkpt>
      <trkpt lat="49.50946" lon="-1.44692">
        <ele>39.1</ele>
        <time>2026-09-03T07:43:05.563Z</time>
      </trkpt>
      <trkpt lat="49.50948" lon="-1.44689">
        <ele>39.1</ele>
        <time>2026-09-03T07:43:07.556Z</time>
      </trkpt>
      <trkpt lat="49.50949" lon="-1.44688">
        <ele>39.2</ele>
        <time>2026-09-03T07:43:08.557Z</time>
      </trkpt>
      <trkpt lat="49.50951" lon="-1.44686">
        <ele>39.2</ele>
        <time>2026-09-03T07:43:10.560Z</time>
      </trkpt>
      <trkpt lat="49.50952" lon="-1.44684">
        <ele>39.2</ele>
        <time>2026-09-03T07:43:11.561Z</time>
      </trkpt>
      <trkpt lat="49.50953" lon="-1.44683">
        <ele>39.2</ele>
        <time>2026-09-03T07:43:12.563Z</time>
      </trkpt>
      <trkpt lat="49.50955" lon="-1.4468">
        <ele>39.1</ele>
        <time>2026-09-03T07:43:14.585Z</time>
      </trkpt>
      <trkpt lat="49.50956" lon="-1.44676">
        <ele>39.1</ele>
        <time>2026-09-03T07:43:16.535Z</time>
      </trkpt>
      <trkpt lat="49.50957" lon="-1.44675">
        <ele>39.1</ele>
        <time>2026-09-03T07:43:17.539Z</time>
      </trkpt>
      <trkpt lat="49.50958" lon="-1.44672">
        <ele>39</ele>
        <time>2026-09-03T07:43:19.482Z</time>
      </trkpt>
      <trkpt lat="49.50959" lon="-1.4467">
        <ele>39</ele>
        <time>2026-09-03T07:43:20.564Z</time>
      </trkpt>
      <trkpt lat="49.5096" lon="-1.44668">
        <ele>38.9</ele>
        <time>2026-09-03T07:43:21.575Z</time>
      </trkpt>
      <trkpt lat="49.50961" lon="-1.44667">
        <ele>38.8</ele>
        <time>2026-09-03T07:43:22.577Z</time>
      </trkpt>
      <trkpt lat="49.50961" lon="-1.44664">
        <ele>38.8</ele>
        <time>2026-09-03T07:43:24.540Z</time>
      </trkpt>
      <trkpt lat="49.50961" lon="-1.44663">
        <ele>38.8</ele>
        <time>2026-09-03T07:43:25.541Z</time>
      </trkpt>
      <trkpt lat="49.50963" lon="-1.4466">
        <ele>38.7</ele>
        <time>2026-09-03T07:43:27.532Z</time>
      </trkpt>
      <trkpt lat="49.50963" lon="-1.44658">
        <ele>38.7</ele>
        <time>2026-09-03T07:43:28.532Z</time>
      </trkpt>
      <trkpt lat="49.50964" lon="-1.44655">
        <ele>38.6</ele>
        <time>2026-09-03T07:43:29.547Z</time>
      </trkpt>
      <trkpt lat="49.50964" lon="-1.44653">
        <ele>38.6</ele>
        <time>2026-09-03T07:43:30.548Z</time>
      </trkpt>
      <trkpt lat="49.50964" lon="-1.44651">
        <ele>38.6</ele>
        <time>2026-09-03T07:43:31.549Z</time>
      </trkpt>
      <trkpt lat="49.50965" lon="-1.44649">
        <ele>38.5</ele>
        <time>2026-09-03T07:43:32.551Z</time>
      </trkpt>
      <trkpt lat="49.50965" lon="-1.44648">
        <ele>38.5</ele>
        <time>2026-09-03T07:43:33.552Z</time>
      </trkpt>
      <trkpt lat="49.50966" lon="-1.44644">
        <ele>38.4</ele>
        <time>2026-09-03T07:43:35.565Z</time>
      </trkpt>
      <trkpt lat="49.50966" lon="-1.4464">
        <ele>38.4</ele>
        <time>2026-09-03T07:43:37.561Z</time>
      </trkpt>
      <trkpt lat="49.50966" lon="-1.44638">
        <ele>38.4</ele>
        <time>2026-09-03T07:43:38.599Z</time>
      </trkpt>
      <trkpt lat="49.50966" lon="-1.44633">
        <ele>38.4</ele>
        <time>2026-09-03T07:43:40.537Z</time>
      </trkpt>
      <trkpt lat="49.50966" lon="-1.44631">
        <ele>38.4</ele>
        <time>2026-09-03T07:43:41.537Z</time>
      </trkpt>
      <trkpt lat="49.50966" lon="-1.44627">
        <ele>38.4</ele>
        <time>2026-09-03T07:43:43.533Z</time>
      </trkpt>
      <trkpt lat="49.50967" lon="-1.44625">
        <ele>38.3</ele>
        <time>2026-09-03T07:43:44.535Z</time>
      </trkpt>
      <trkpt lat="49.50967" lon="-1.44623">
        <ele>38.3</ele>
        <time>2026-09-03T07:43:45.589Z</time>
      </trkpt>
      <trkpt lat="49.50968" lon="-1.44619">
        <ele>38.2</ele>
        <time>2026-09-03T07:43:47.552Z</time>
      </trkpt>
      <trkpt lat="49.50968" lon="-1.44617">
        <ele>38.2</ele>
        <time>2026-09-03T07:43:48.553Z</time>
      </trkpt>
      <trkpt lat="49.50968" lon="-1.44614">
        <ele>38.2</ele>
        <time>2026-09-03T07:43:50.566Z</time>
      </trkpt>
      <trkpt lat="49.50968" lon="-1.44611">
        <ele>38.2</ele>
        <time>2026-09-03T07:43:52.559Z</time>
      </trkpt>
      <trkpt lat="49.50968" lon="-1.44609">
        <ele>38.2</ele>
        <time>2026-09-03T07:43:53.560Z</time>
      </trkpt>
      <trkpt lat="49.5097" lon="-1.44605">
        <ele>38.1</ele>
        <time>2026-09-03T07:43:55.533Z</time>
      </trkpt>
      <trkpt lat="49.5097" lon="-1.44603">
        <ele>38.1</ele>
        <time>2026-09-03T07:43:56.585Z</time>
      </trkpt>
      <trkpt lat="49.50971" lon="-1.446">
        <ele>38</ele>
        <time>2026-09-03T07:43:58.567Z</time>
      </trkpt>
      <trkpt lat="49.50971" lon="-1.44598">
        <ele>38</ele>
        <time>2026-09-03T07:43:59.569Z</time>
      </trkpt>
      <trkpt lat="49.50971" lon="-1.44595">
        <ele>38</ele>
        <time>2026-09-03T07:44:00.570Z</time>
      </trkpt>
      <trkpt lat="49.50973" lon="-1.44592">
        <ele>38</ele>
        <time>2026-09-03T07:44:02.534Z</time>
      </trkpt>
      <trkpt lat="49.50973" lon="-1.44591">
        <ele>38</ele>
        <time>2026-09-03T07:44:03.539Z</time>
      </trkpt>
      <trkpt lat="49.50974" lon="-1.44589">
        <ele>37.9</ele>
        <time>2026-09-03T07:44:04.576Z</time>
      </trkpt>
      <trkpt lat="49.50975" lon="-1.44587">
        <ele>37.9</ele>
        <time>2026-09-03T07:44:05.577Z</time>
      </trkpt>
      <trkpt lat="49.50976" lon="-1.44585">
        <ele>37.9</ele>
        <time>2026-09-03T07:44:07.560Z</time>
      </trkpt>
      <trkpt lat="49.50978" lon="-1.44581">
        <ele>37.7</ele>
        <time>2026-09-03T07:44:09.531Z</time>
      </trkpt>
      <trkpt lat="49.50979" lon="-1.44579">
        <ele>37.6</ele>
        <time>2026-09-03T07:44:10.532Z</time>
      </trkpt>
      <trkpt lat="49.50979" lon="-1.44577">
        <ele>37.5</ele>
        <time>2026-09-03T07:44:11.586Z</time>
      </trkpt>
      <trkpt lat="49.50981" lon="-1.44573">
        <ele>37.3</ele>
        <time>2026-09-03T07:44:13.568Z</time>
      </trkpt>
      <trkpt lat="49.50981" lon="-1.44571">
        <ele>37.2</ele>
        <time>2026-09-03T07:44:14.599Z</time>
      </trkpt>
      <trkpt lat="49.50982" lon="-1.44567">
        <ele>37.1</ele>
        <time>2026-09-03T07:44:16.543Z</time>
      </trkpt>
      <trkpt lat="49.50982" lon="-1.44563">
        <ele>36.9</ele>
        <time>2026-09-03T07:44:18.533Z</time>
      </trkpt>
      <trkpt lat="49.50983" lon="-1.44559">
        <ele>36.7</ele>
        <time>2026-09-03T07:44:20.498Z</time>
      </trkpt>
      <trkpt lat="49.50984" lon="-1.44557">
        <ele>36.6</ele>
        <time>2026-09-03T07:44:21.600Z</time>
      </trkpt>
      <trkpt lat="49.50986" lon="-1.44555">
        <ele>36.5</ele>
        <time>2026-09-03T07:44:23.542Z</time>
      </trkpt>
      <trkpt lat="49.50986" lon="-1.44553">
        <ele>36.5</ele>
        <time>2026-09-03T07:44:24.544Z</time>
      </trkpt>
      <trkpt lat="49.50987" lon="-1.44551">
        <ele>36.5</ele>
        <time>2026-09-03T07:44:25.545Z</time>
      </trkpt>
      <trkpt lat="49.50988" lon="-1.44549">
        <ele>36.4</ele>
        <time>2026-09-03T07:44:26.546Z</time>
      </trkpt>
      <trkpt lat="49.50989" lon="-1.44547">
        <ele>36.4</ele>
        <time>2026-09-03T07:44:27.548Z</time>
      </trkpt>
      <trkpt lat="49.5099" lon="-1.44546">
        <ele>36.4</ele>
        <time>2026-09-03T07:44:28.579Z</time>
      </trkpt>
      <trkpt lat="49.50989" lon="-1.44542">
        <ele>36.4</ele>
        <time>2026-09-03T07:44:30.462Z</time>
      </trkpt>
      <trkpt lat="49.5099" lon="-1.4454">
        <ele>36.4</ele>
        <time>2026-09-03T07:44:31.553Z</time>
      </trkpt>
      <trkpt lat="49.5099" lon="-1.44539">
        <ele>36.4</ele>
        <time>2026-09-03T07:44:32.555Z</time>
      </trkpt>
      <trkpt lat="49.50991" lon="-1.44537">
        <ele>36.3</ele>
        <time>2026-09-03T07:44:33.556Z</time>
      </trkpt>
      <trkpt lat="49.50992" lon="-1.44533">
        <ele>36.3</ele>
        <time>2026-09-03T07:44:35.551Z</time>
      </trkpt>
      <trkpt lat="49.50993" lon="-1.44531">
        <ele>36.3</ele>
        <time>2026-09-03T07:44:36.559Z</time>
      </trkpt>
      <trkpt lat="49.50993" lon="-1.4453">
        <ele>36.3</ele>
        <time>2026-09-03T07:44:37.599Z</time>
      </trkpt>
      <trkpt lat="49.50994" lon="-1.44527">
        <ele>36.2</ele>
        <time>2026-09-03T07:44:39.525Z</time>
      </trkpt>
      <trkpt lat="49.50995" lon="-1.44525">
        <ele>36.3</ele>
        <time>2026-09-03T07:44:40.536Z</time>
      </trkpt>
      <trkpt lat="49.50996" lon="-1.44522">
        <ele>36.4</ele>
        <time>2026-09-03T07:44:42.529Z</time>
      </trkpt>
      <trkpt lat="49.50997" lon="-1.4452">
        <ele>36.4</ele>
        <time>2026-09-03T07:44:43.533Z</time>
      </trkpt>
      <trkpt lat="49.50998" lon="-1.44518">
        <ele>36.4</ele>
        <time>2026-09-03T07:44:44.552Z</time>
      </trkpt>
      <trkpt lat="49.50998" lon="-1.44516">
        <ele>36.5</ele>
        <time>2026-09-03T07:44:45.553Z</time>
      </trkpt>
      <trkpt lat="49.50998" lon="-1.44514">
        <ele>36.6</ele>
        <time>2026-09-03T07:44:46.554Z</time>
      </trkpt>
      <trkpt lat="49.50998" lon="-1.44512">
        <ele>36.6</ele>
        <time>2026-09-03T07:44:47.556Z</time>
      </trkpt>
      <trkpt lat="49.50997" lon="-1.4451">
        <ele>36.7</ele>
        <time>2026-09-03T07:44:48.557Z</time>
      </trkpt>
      <trkpt lat="49.50997" lon="-1.44509">
        <ele>36.8</ele>
        <time>2026-09-03T07:44:49.559Z</time>
      </trkpt>
      <trkpt lat="49.50998" lon="-1.44505">
        <ele>36.9</ele>
        <time>2026-09-03T07:44:51.530Z</time>
      </trkpt>
      <trkpt lat="49.50999" lon="-1.44503">
        <ele>36.9</ele>
        <time>2026-09-03T07:44:52.563Z</time>
      </trkpt>
      <trkpt lat="49.50999" lon="-1.44501">
        <ele>37</ele>
        <time>2026-09-03T07:44:53.564Z</time>
      </trkpt>
      <trkpt lat="49.51" lon="-1.44499">
        <ele>37</ele>
        <time>2026-09-03T07:44:54.566Z</time>
      </trkpt>
      <trkpt lat="49.51001" lon="-1.44497">
        <ele>37</ele>
        <time>2026-09-03T07:44:55.567Z</time>
      </trkpt>
      <trkpt lat="49.51002" lon="-1.44494">
        <ele>36.9</ele>
        <time>2026-09-03T07:44:57.535Z</time>
      </trkpt>
      <trkpt lat="49.51002" lon="-1.44492">
        <ele>36.9</ele>
        <time>2026-09-03T07:44:58.544Z</time>
      </trkpt>
      <trkpt lat="49.51003" lon="-1.44488">
        <ele>36.9</ele>
        <time>2026-09-03T07:45:00.539Z</time>
      </trkpt>
      <trkpt lat="49.51003" lon="-1.44484">
        <ele>36.9</ele>
        <time>2026-09-03T07:45:02.536Z</time>
      </trkpt>
      <trkpt lat="49.51005" lon="-1.44483">
        <ele>36.8</ele>
        <time>2026-09-03T07:45:03.538Z</time>
      </trkpt>
      <trkpt lat="49.51006" lon="-1.4448">
        <ele>36.8</ele>
        <time>2026-09-03T07:45:05.532Z</time>
      </trkpt>
      <trkpt lat="49.51006" lon="-1.44475">
        <ele>36.8</ele>
        <time>2026-09-03T07:45:07.530Z</time>
      </trkpt>
      <trkpt lat="49.51006" lon="-1.44472">
        <ele>36.8</ele>
        <time>2026-09-03T07:45:09.547Z</time>
      </trkpt>
      <trkpt lat="49.51007" lon="-1.44468">
        <ele>36.8</ele>
        <time>2026-09-03T07:45:11.536Z</time>
      </trkpt>
      <trkpt lat="49.51007" lon="-1.44466">
        <ele>36.8</ele>
        <time>2026-09-03T07:45:12.540Z</time>
      </trkpt>
      <trkpt lat="49.51008" lon="-1.44463">
        <ele>36.8</ele>
        <time>2026-09-03T07:45:14.505Z</time>
      </trkpt>
      <trkpt lat="49.51008" lon="-1.44461">
        <ele>36.8</ele>
        <time>2026-09-03T07:45:15.531Z</time>
      </trkpt>
      <trkpt lat="49.51009" lon="-1.4446">
        <ele>36.8</ele>
        <time>2026-09-03T07:45:16.533Z</time>
      </trkpt>
      <trkpt lat="49.5101" lon="-1.44458">
        <ele>36.8</ele>
        <time>2026-09-03T07:45:17.579Z</time>
      </trkpt>
      <trkpt lat="49.51011" lon="-1.44456">
        <ele>36.8</ele>
        <time>2026-09-03T07:45:19.542Z</time>
      </trkpt>
      <trkpt lat="49.51012" lon="-1.44455">
        <ele>36.8</ele>
        <time>2026-09-03T07:45:20.543Z</time>
      </trkpt>
      <trkpt lat="49.51012" lon="-1.44454">
        <ele>36.9</ele>
        <time>2026-09-03T07:45:21.545Z</time>
      </trkpt>
      <trkpt lat="49.51013" lon="-1.44453">
        <ele>36.9</ele>
        <time>2026-09-03T07:45:22.546Z</time>
      </trkpt>
      <trkpt lat="49.51013" lon="-1.44452">
        <ele>36.9</ele>
        <time>2026-09-03T07:45:23.548Z</time>
      </trkpt>
      <trkpt lat="49.51015" lon="-1.44449">
        <ele>36.9</ele>
        <time>2026-09-03T07:45:25.561Z</time>
      </trkpt>
      <trkpt lat="49.51017" lon="-1.44447">
        <ele>36.9</ele>
        <time>2026-09-03T07:45:27.573Z</time>
      </trkpt>
      <trkpt lat="49.51017" lon="-1.44446">
        <ele>37</ele>
        <time>2026-09-03T07:45:28.575Z</time>
      </trkpt>
      <trkpt lat="49.51019" lon="-1.44444">
        <ele>37</ele>
        <time>2026-09-03T07:45:30.517Z</time>
      </trkpt>
      <trkpt lat="49.5102" lon="-1.44444">
        <ele>37</ele>
        <time>2026-09-03T07:45:31.532Z</time>
      </trkpt>
      <trkpt lat="49.51021" lon="-1.44443">
        <ele>37</ele>
        <time>2026-09-03T07:45:32.535Z</time>
      </trkpt>
      <trkpt lat="49.51023" lon="-1.44442">
        <ele>37</ele>
        <time>2026-09-03T07:45:33.555Z</time>
      </trkpt>
      <trkpt lat="49.51025" lon="-1.44441">
        <ele>37</ele>
        <time>2026-09-03T07:45:35.532Z</time>
      </trkpt>
      <trkpt lat="49.51027" lon="-1.44441">
        <ele>37</ele>
        <time>2026-09-03T07:45:36.538Z</time>
      </trkpt>
      <trkpt lat="49.51029" lon="-1.44439">
        <ele>37</ele>
        <time>2026-09-03T07:45:38.534Z</time>
      </trkpt>
      <trkpt lat="49.51031" lon="-1.44437">
        <ele>37</ele>
        <time>2026-09-03T07:45:40.535Z</time>
      </trkpt>
      <trkpt lat="49.51034" lon="-1.44434">
        <ele>37</ele>
        <time>2026-09-03T07:45:42.484Z</time>
      </trkpt>
      <trkpt lat="49.51035" lon="-1.44433">
        <ele>37</ele>
        <time>2026-09-03T07:45:43.586Z</time>
      </trkpt>
      <trkpt lat="49.51037" lon="-1.4443">
        <ele>37</ele>
        <time>2026-09-03T07:45:45.535Z</time>
      </trkpt>
      <trkpt lat="49.51038" lon="-1.44429">
        <ele>37</ele>
        <time>2026-09-03T07:45:46.535Z</time>
      </trkpt>
      <trkpt lat="49.51039" lon="-1.44427">
        <ele>37</ele>
        <time>2026-09-03T07:45:47.535Z</time>
      </trkpt>
      <trkpt lat="49.51041" lon="-1.44425">
        <ele>37</ele>
        <time>2026-09-03T07:45:49.444Z</time>
      </trkpt>
      <trkpt lat="49.51043" lon="-1.44423">
        <ele>37</ele>
        <time>2026-09-03T07:45:50.545Z</time>
      </trkpt>
      <trkpt lat="49.51044" lon="-1.44421">
        <ele>37</ele>
        <time>2026-09-03T07:45:52.548Z</time>
      </trkpt>
      <trkpt lat="49.51046" lon="-1.44421">
        <ele>37</ele>
        <time>2026-09-03T07:45:54.551Z</time>
      </trkpt>
      <trkpt lat="49.51048" lon="-1.44421">
        <ele>37</ele>
        <time>2026-09-03T07:45:55.553Z</time>
      </trkpt>
      <trkpt lat="49.51049" lon="-1.4442">
        <ele>37</ele>
        <time>2026-09-03T07:45:56.554Z</time>
      </trkpt>
      <trkpt lat="49.51051" lon="-1.44419">
        <ele>37</ele>
        <time>2026-09-03T07:45:58.557Z</time>
      </trkpt>
      <trkpt lat="49.51053" lon="-1.44418">
        <ele>37</ele>
        <time>2026-09-03T07:45:59.558Z</time>
      </trkpt>
      <trkpt lat="49.51054" lon="-1.44416">
        <ele>37</ele>
        <time>2026-09-03T07:46:00.559Z</time>
      </trkpt>
      <trkpt lat="49.51055" lon="-1.44413">
        <ele>37</ele>
        <time>2026-09-03T07:46:02.563Z</time>
      </trkpt>
      <trkpt lat="49.51056" lon="-1.44412">
        <ele>37</ele>
        <time>2026-09-03T07:46:03.564Z</time>
      </trkpt>
      <trkpt lat="49.51058" lon="-1.4441">
        <ele>37</ele>
        <time>2026-09-03T07:46:05.567Z</time>
      </trkpt>
      <trkpt lat="49.51059" lon="-1.44409">
        <ele>37</ele>
        <time>2026-09-03T07:46:06.568Z</time>
      </trkpt>
      <trkpt lat="49.5106" lon="-1.44408">
        <ele>37</ele>
        <time>2026-09-03T07:46:07.570Z</time>
      </trkpt>
      <trkpt lat="49.51061" lon="-1.44407">
        <ele>37</ele>
        <time>2026-09-03T07:46:08.571Z</time>
      </trkpt>
      <trkpt lat="49.51062" lon="-1.44406">
        <ele>37</ele>
        <time>2026-09-03T07:46:09.572Z</time>
      </trkpt>
      <trkpt lat="49.51063" lon="-1.44403">
        <ele>37</ele>
        <time>2026-09-03T07:46:11.485Z</time>
      </trkpt>
      <trkpt lat="49.51064" lon="-1.44402">
        <ele>37</ele>
        <time>2026-09-03T07:46:12.567Z</time>
      </trkpt>
      <trkpt lat="49.51066" lon="-1.444">
        <ele>37</ele>
        <time>2026-09-03T07:46:14.537Z</time>
      </trkpt>
      <trkpt lat="49.51067" lon="-1.44399">
        <ele>37</ele>
        <time>2026-09-03T07:46:15.538Z</time>
      </trkpt>
      <trkpt lat="49.51069" lon="-1.44397">
        <ele>37</ele>
        <time>2026-09-03T07:46:17.539Z</time>
      </trkpt>
      <trkpt lat="49.51072" lon="-1.44394">
        <ele>37</ele>
        <time>2026-09-03T07:46:19.535Z</time>
      </trkpt>
      <trkpt lat="49.51073" lon="-1.44393">
        <ele>37</ele>
        <time>2026-09-03T07:46:20.536Z</time>
      </trkpt>
      <trkpt lat="49.51075" lon="-1.44391">
        <ele>37</ele>
        <time>2026-09-03T07:46:22.598Z</time>
      </trkpt>
      <trkpt lat="49.51077" lon="-1.44389">
        <ele>37</ele>
        <time>2026-09-03T07:46:24.543Z</time>
      </trkpt>
      <trkpt lat="49.51078" lon="-1.44388">
        <ele>37</ele>
        <time>2026-09-03T07:46:25.567Z</time>
      </trkpt>
      <trkpt lat="49.5108" lon="-1.44386">
        <ele>37.1</ele>
        <time>2026-09-03T07:46:27.536Z</time>
      </trkpt>
      <trkpt lat="49.51081" lon="-1.44385">
        <ele>37.1</ele>
        <time>2026-09-03T07:46:28.579Z</time>
      </trkpt>
      <trkpt lat="49.51082" lon="-1.44382">
        <ele>37.2</ele>
        <time>2026-09-03T07:46:30.522Z</time>
      </trkpt>
      <trkpt lat="49.51083" lon="-1.44381">
        <ele>37.3</ele>
        <time>2026-09-03T07:46:31.539Z</time>
      </trkpt>
      <trkpt lat="49.51084" lon="-1.44378">
        <ele>37.4</ele>
        <time>2026-09-03T07:46:33.538Z</time>
      </trkpt>
      <trkpt lat="49.51085" lon="-1.44375">
        <ele>37.5</ele>
        <time>2026-09-03T07:46:35.519Z</time>
      </trkpt>
      <trkpt lat="49.51085" lon="-1.44373">
        <ele>37.6</ele>
        <time>2026-09-03T07:46:36.530Z</time>
      </trkpt>
      <trkpt lat="49.51085" lon="-1.44372">
        <ele>37.6</ele>
        <time>2026-09-03T07:46:37.532Z</time>
      </trkpt>
      <trkpt lat="49.51083" lon="-1.44369">
        <ele>37.7</ele>
        <time>2026-09-03T07:46:39.540Z</time>
      </trkpt>
      <trkpt lat="49.51082" lon="-1.44367">
        <ele>37.8</ele>
        <time>2026-09-03T07:46:41.537Z</time>
      </trkpt>
      <trkpt lat="49.5108" lon="-1.44366">
        <ele>37.8</ele>
        <time>2026-09-03T07:46:42.552Z</time>
      </trkpt>
      <trkpt lat="49.51078" lon="-1.44365">
        <ele>37.9</ele>
        <time>2026-09-03T07:46:44.541Z</time>
      </trkpt>
      <trkpt lat="49.51075" lon="-1.44365">
        <ele>37.9</ele>
        <time>2026-09-03T07:46:46.544Z</time>
      </trkpt>
      <trkpt lat="49.51075" lon="-1.44365">
        <ele>37.9</ele>
        <time>2026-09-03T07:46:47.556Z</time>
      </trkpt>
      <trkpt lat="49.51073" lon="-1.44363">
        <ele>37.9</ele>
        <time>2026-09-03T07:46:49.518Z</time>
      </trkpt>
      <trkpt lat="49.51072" lon="-1.44363">
        <ele>37.9</ele>
        <time>2026-09-03T07:46:50.546Z</time>
      </trkpt>
      <trkpt lat="49.5107" lon="-1.44362">
        <ele>38</ele>
        <time>2026-09-03T07:46:52.536Z</time>
      </trkpt>
      <trkpt lat="49.51068" lon="-1.44359">
        <ele>38.1</ele>
        <time>2026-09-03T07:46:54.535Z</time>
      </trkpt>
      <trkpt lat="49.51067" lon="-1.44358">
        <ele>38.1</ele>
        <time>2026-09-03T07:46:55.543Z</time>
      </trkpt>
      <trkpt lat="49.51067" lon="-1.44357">
        <ele>38.1</ele>
        <time>2026-09-03T07:46:56.546Z</time>
      </trkpt>
      <trkpt lat="49.51066" lon="-1.44355">
        <ele>38.2</ele>
        <time>2026-09-03T07:46:57.559Z</time>
      </trkpt>
      <trkpt lat="49.51065" lon="-1.44353">
        <ele>38.3</ele>
        <time>2026-09-03T07:46:59.462Z</time>
      </trkpt>
      <trkpt lat="49.51065" lon="-1.44352">
        <ele>38.3</ele>
        <time>2026-09-03T07:47:00.533Z</time>
      </trkpt>
      <trkpt lat="49.51064" lon="-1.4435">
        <ele>38.4</ele>
        <time>2026-09-03T07:47:01.533Z</time>
      </trkpt>
      <trkpt lat="49.51063" lon="-1.44349">
        <ele>38.4</ele>
        <time>2026-09-03T07:47:02.534Z</time>
      </trkpt>
      <trkpt lat="49.51063" lon="-1.44348">
        <ele>38.5</ele>
        <time>2026-09-03T07:47:03.535Z</time>
      </trkpt>
      <trkpt lat="49.51061" lon="-1.44345">
        <ele>38.6</ele>
        <time>2026-09-03T07:47:05.538Z</time>
      </trkpt>
      <trkpt lat="49.5106" lon="-1.44343">
        <ele>38.7</ele>
        <time>2026-09-03T07:47:07.535Z</time>
      </trkpt>
      <trkpt lat="49.51059" lon="-1.44342">
        <ele>38.7</ele>
        <time>2026-09-03T07:47:08.538Z</time>
      </trkpt>
      <trkpt lat="49.51057" lon="-1.4434">
        <ele>38.8</ele>
        <time>2026-09-03T07:47:10.538Z</time>
      </trkpt>
      <trkpt lat="49.51057" lon="-1.44339">
        <ele>38.8</ele>
        <time>2026-09-03T07:47:11.539Z</time>
      </trkpt>
      <trkpt lat="49.51056" lon="-1.44338">
        <ele>38.8</ele>
        <time>2026-09-03T07:47:12.561Z</time>
      </trkpt>
      <trkpt lat="49.51054" lon="-1.44336">
        <ele>39</ele>
        <time>2026-09-03T07:47:14.531Z</time>
      </trkpt>
      <trkpt lat="49.51053" lon="-1.44335">
        <ele>39</ele>
        <time>2026-09-03T07:47:15.545Z</time>
      </trkpt>
      <trkpt lat="49.51052" lon="-1.44334">
        <ele>39.1</ele>
        <time>2026-09-03T07:47:16.586Z</time>
      </trkpt>
      <trkpt lat="49.51051" lon="-1.44332">
        <ele>39.3</ele>
        <time>2026-09-03T07:47:18.549Z</time>
      </trkpt>
      <trkpt lat="49.51049" lon="-1.44331">
        <ele>39.4</ele>
        <time>2026-09-03T07:47:19.550Z</time>
      </trkpt>
      <trkpt lat="49.51047" lon="-1.44329">
        <ele>39.6</ele>
        <time>2026-09-03T07:47:21.543Z</time>
      </trkpt>
      <trkpt lat="49.51046" lon="-1.44327">
        <ele>39.7</ele>
        <time>2026-09-03T07:47:23.539Z</time>
      </trkpt>
      <trkpt lat="49.51044" lon="-1.44326">
        <ele>39.8</ele>
        <time>2026-09-03T07:47:25.534Z</time>
      </trkpt>
      <trkpt lat="49.51043" lon="-1.44325">
        <ele>39.9</ele>
        <time>2026-09-03T07:47:26.534Z</time>
      </trkpt>
      <trkpt lat="49.51042" lon="-1.44324">
        <ele>40</ele>
        <time>2026-09-03T07:47:27.534Z</time>
      </trkpt>
      <trkpt lat="49.51039" lon="-1.44322">
        <ele>40.2</ele>
        <time>2026-09-03T07:47:29.599Z</time>
      </trkpt>
      <trkpt lat="49.51038" lon="-1.44321">
        <ele>40.2</ele>
        <time>2026-09-03T07:47:30.599Z</time>
      </trkpt>
      <trkpt lat="49.51037" lon="-1.4432">
        <ele>40.3</ele>
        <time>2026-09-03T07:47:32.499Z</time>
      </trkpt>
      <trkpt lat="49.51036" lon="-1.44318">
        <ele>40.4</ele>
        <time>2026-09-03T07:47:33.536Z</time>
      </trkpt>
      <trkpt lat="49.51035" lon="-1.44315">
        <ele>40.6</ele>
        <time>2026-09-03T07:47:35.533Z</time>
      </trkpt>
      <trkpt lat="49.51034" lon="-1.44313">
        <ele>40.7</ele>
        <time>2026-09-03T07:47:36.537Z</time>
      </trkpt>
      <trkpt lat="49.51033" lon="-1.4431">
        <ele>40.8</ele>
        <time>2026-09-03T07:47:38.557Z</time>
      </trkpt>
      <trkpt lat="49.51032" lon="-1.44308">
        <ele>40.9</ele>
        <time>2026-09-03T07:47:40.480Z</time>
      </trkpt>
      <trkpt lat="49.51032" lon="-1.44307">
        <ele>40.9</ele>
        <time>2026-09-03T07:47:41.535Z</time>
      </trkpt>
      <trkpt lat="49.51031" lon="-1.44305">
        <ele>41</ele>
        <time>2026-09-03T07:47:43.534Z</time>
      </trkpt>
      <trkpt lat="49.5103" lon="-1.44302">
        <ele>41.1</ele>
        <time>2026-09-03T07:47:45.546Z</time>
      </trkpt>
      <trkpt lat="49.51028" lon="-1.44299">
        <ele>41.2</ele>
        <time>2026-09-03T07:47:47.536Z</time>
      </trkpt>
      <trkpt lat="49.51028" lon="-1.44298">
        <ele>41.3</ele>
        <time>2026-09-03T07:47:48.538Z</time>
      </trkpt>
      <trkpt lat="49.51027" lon="-1.44296">
        <ele>41.4</ele>
        <time>2026-09-03T07:47:49.572Z</time>
      </trkpt>
      <trkpt lat="49.51025" lon="-1.44293">
        <ele>41.6</ele>
        <time>2026-09-03T07:47:51.535Z</time>
      </trkpt>
      <trkpt lat="49.51023" lon="-1.44289">
        <ele>41.8</ele>
        <time>2026-09-03T07:47:53.578Z</time>
      </trkpt>
      <trkpt lat="49.51021" lon="-1.44287">
        <ele>41.9</ele>
        <time>2026-09-03T07:47:55.520Z</time>
      </trkpt>
      <trkpt lat="49.5102" lon="-1.44285">
        <ele>42</ele>
        <time>2026-09-03T07:47:56.582Z</time>
      </trkpt>
      <trkpt lat="49.51019" lon="-1.44284">
        <ele>42.1</ele>
        <time>2026-09-03T07:47:57.584Z</time>
      </trkpt>
      <trkpt lat="49.51016" lon="-1.44287">
        <ele>42.1</ele>
        <time>2026-09-03T07:47:59.446Z</time>
      </trkpt>
      <trkpt lat="49.51016" lon="-1.44286">
        <ele>42.1</ele>
        <time>2026-09-03T07:48:00.529Z</time>
      </trkpt>
      <trkpt lat="49.51015" lon="-1.44285">
        <ele>42.2</ele>
        <time>2026-09-03T07:48:01.530Z</time>
      </trkpt>
      <trkpt lat="49.51014" lon="-1.44282">
        <ele>42.3</ele>
        <time>2026-09-03T07:48:02.535Z</time>
      </trkpt>
      <trkpt lat="49.51014" lon="-1.44281">
        <ele>42.4</ele>
        <time>2026-09-03T07:48:03.538Z</time>
      </trkpt>
      <trkpt lat="49.51013" lon="-1.4428">
        <ele>42.5</ele>
        <time>2026-09-03T07:48:04.543Z</time>
      </trkpt>
      <trkpt lat="49.51012" lon="-1.44276">
        <ele>42.6</ele>
        <time>2026-09-03T07:48:06.537Z</time>
      </trkpt>
      <trkpt lat="49.51012" lon="-1.44273">
        <ele>42.6</ele>
        <time>2026-09-03T07:48:08.479Z</time>
      </trkpt>
      <trkpt lat="49.51013" lon="-1.4427">
        <ele>42.7</ele>
        <time>2026-09-03T07:48:09.534Z</time>
      </trkpt>
      <trkpt lat="49.51014" lon="-1.44268">
        <ele>42.7</ele>
        <time>2026-09-03T07:48:10.536Z</time>
      </trkpt>
      <trkpt lat="49.51016" lon="-1.44265">
        <ele>42.7</ele>
        <time>2026-09-03T07:48:12.537Z</time>
      </trkpt>
      <trkpt lat="49.51017" lon="-1.44262">
        <ele>42.7</ele>
        <time>2026-09-03T07:48:14.536Z</time>
      </trkpt>
      <trkpt lat="49.51019" lon="-1.44259">
        <ele>42.8</ele>
        <time>2026-09-03T07:48:16.532Z</time>
      </trkpt>
      <trkpt lat="49.5102" lon="-1.44255">
        <ele>42.9</ele>
        <time>2026-09-03T07:48:18.535Z</time>
      </trkpt>
      <trkpt lat="49.51021" lon="-1.44255">
        <ele>42.9</ele>
        <time>2026-09-03T07:48:19.536Z</time>
      </trkpt>
      <trkpt lat="49.51021" lon="-1.44253">
        <ele>42.9</ele>
        <time>2026-09-03T07:48:20.536Z</time>
      </trkpt>
      <trkpt lat="49.51022" lon="-1.4425">
        <ele>43</ele>
        <time>2026-09-03T07:48:22.537Z</time>
      </trkpt>
      <trkpt lat="49.51023" lon="-1.44247">
        <ele>43</ele>
        <time>2026-09-03T07:48:24.535Z</time>
      </trkpt>
      <trkpt lat="49.51024" lon="-1.44242">
        <ele>43</ele>
        <time>2026-09-03T07:48:26.533Z</time>
      </trkpt>
      <trkpt lat="49.51024" lon="-1.44242">
        <ele>43</ele>
        <time>2026-09-03T07:48:27.535Z</time>
      </trkpt>
      <trkpt lat="49.51026" lon="-1.4424">
        <ele>43</ele>
        <time>2026-09-03T07:48:29.534Z</time>
      </trkpt>
      <trkpt lat="49.51027" lon="-1.44238">
        <ele>43</ele>
        <time>2026-09-03T07:48:30.536Z</time>
      </trkpt>
      <trkpt lat="49.51028" lon="-1.44235">
        <ele>43</ele>
        <time>2026-09-03T07:48:32.534Z</time>
      </trkpt>
      <trkpt lat="49.51029" lon="-1.44234">
        <ele>43</ele>
        <time>2026-09-03T07:48:33.535Z</time>
      </trkpt>
      <trkpt lat="49.5103" lon="-1.44232">
        <ele>43</ele>
        <time>2026-09-03T07:48:34.537Z</time>
      </trkpt>
      <trkpt lat="49.5103" lon="-1.44229">
        <ele>43</ele>
        <time>2026-09-03T07:48:35.538Z</time>
      </trkpt>
      <trkpt lat="49.5103" lon="-1.44228">
        <ele>43</ele>
        <time>2026-09-03T07:48:36.540Z</time>
      </trkpt>
      <trkpt lat="49.51031" lon="-1.44226">
        <ele>43</ele>
        <time>2026-09-03T07:48:37.541Z</time>
      </trkpt>
      <trkpt lat="49.51031" lon="-1.44223">
        <ele>43</ele>
        <time>2026-09-03T07:48:39.544Z</time>
      </trkpt>
      <trkpt lat="49.51032" lon="-1.44219">
        <ele>43.1</ele>
        <time>2026-09-03T07:48:41.547Z</time>
      </trkpt>
      <trkpt lat="49.51032" lon="-1.44218">
        <ele>43.2</ele>
        <time>2026-09-03T07:48:42.548Z</time>
      </trkpt>
      <trkpt lat="49.51032" lon="-1.44216">
        <ele>43.2</ele>
        <time>2026-09-03T07:48:43.550Z</time>
      </trkpt>
      <trkpt lat="49.51033" lon="-1.44214">
        <ele>43.3</ele>
        <time>2026-09-03T07:48:44.551Z</time>
      </trkpt>
      <trkpt lat="49.51033" lon="-1.44211">
        <ele>43.4</ele>
        <time>2026-09-03T07:48:46.534Z</time>
      </trkpt>
      <trkpt lat="49.51033" lon="-1.44209">
        <ele>43.5</ele>
        <time>2026-09-03T07:48:47.537Z</time>
      </trkpt>
      <trkpt lat="49.51032" lon="-1.44207">
        <ele>43.5</ele>
        <time>2026-09-03T07:48:49.534Z</time>
      </trkpt>
      <trkpt lat="49.51032" lon="-1.44205">
        <ele>43.6</ele>
        <time>2026-09-03T07:48:50.537Z</time>
      </trkpt>
      <trkpt lat="49.5103" lon="-1.44202">
        <ele>43.7</ele>
        <time>2026-09-03T07:48:52.443Z</time>
      </trkpt>
      <trkpt lat="49.51028" lon="-1.44204">
        <ele>43.7</ele>
        <time>2026-09-03T07:48:53.464Z</time>
      </trkpt>
      <trkpt lat="49.51027" lon="-1.44202">
        <ele>43.7</ele>
        <time>2026-09-03T07:48:54.534Z</time>
      </trkpt>
      <trkpt lat="49.51027" lon="-1.442">
        <ele>43.8</ele>
        <time>2026-09-03T07:48:55.536Z</time>
      </trkpt>
      <trkpt lat="49.51025" lon="-1.44196">
        <ele>43.9</ele>
        <time>2026-09-03T07:48:57.536Z</time>
      </trkpt>
      <trkpt lat="49.51024" lon="-1.44192">
        <ele>44.1</ele>
        <time>2026-09-03T07:48:59.537Z</time>
      </trkpt>
      <trkpt lat="49.51024" lon="-1.44191">
        <ele>44.1</ele>
        <time>2026-09-03T07:49:00.537Z</time>
      </trkpt>
      <trkpt lat="49.51023" lon="-1.44189">
        <ele>44.2</ele>
        <time>2026-09-03T07:49:01.538Z</time>
      </trkpt>
      <trkpt lat="49.51022" lon="-1.44187">
        <ele>44.2</ele>
        <time>2026-09-03T07:49:03.537Z</time>
      </trkpt>
      <trkpt lat="49.51021" lon="-1.44184">
        <ele>44.3</ele>
        <time>2026-09-03T07:49:05.534Z</time>
      </trkpt>
      <trkpt lat="49.51019" lon="-1.44182">
        <ele>44.3</ele>
        <time>2026-09-03T07:49:07.424Z</time>
      </trkpt>
      <trkpt lat="49.51017" lon="-1.44181">
        <ele>44.3</ele>
        <time>2026-09-03T07:49:08.541Z</time>
      </trkpt>
      <trkpt lat="49.51015" lon="-1.44179">
        <ele>44.3</ele>
        <time>2026-09-03T07:49:10.537Z</time>
      </trkpt>
      <trkpt lat="49.51014" lon="-1.44178">
        <ele>44.3</ele>
        <time>2026-09-03T07:49:11.580Z</time>
      </trkpt>
      <trkpt lat="49.51012" lon="-1.44177">
        <ele>44.3</ele>
        <time>2026-09-03T07:49:13.532Z</time>
      </trkpt>
      <trkpt lat="49.51011" lon="-1.44176">
        <ele>44.3</ele>
        <time>2026-09-03T07:49:14.534Z</time>
      </trkpt>
      <trkpt lat="49.5101" lon="-1.44175">
        <ele>44.3</ele>
        <time>2026-09-03T07:49:15.536Z</time>
      </trkpt>
      <trkpt lat="49.51008" lon="-1.44177">
        <ele>44.2</ele>
        <time>2026-09-03T07:49:16.537Z</time>
      </trkpt>
      <trkpt lat="49.51009" lon="-1.44179">
        <ele>44.2</ele>
        <time>2026-09-03T07:49:17.539Z</time>
      </trkpt>
      <trkpt lat="49.5101" lon="-1.4418">
        <ele>44.2</ele>
        <time>2026-09-03T07:49:18.540Z</time>
      </trkpt>
      <trkpt lat="49.51011" lon="-1.4418">
        <ele>44.2</ele>
        <time>2026-09-03T07:49:19.542Z</time>
      </trkpt>
      <trkpt lat="49.51013" lon="-1.4418">
        <ele>44.2</ele>
        <time>2026-09-03T07:49:21.544Z</time>
      </trkpt>
      <trkpt lat="49.51014" lon="-1.44179">
        <ele>44.3</ele>
        <time>2026-09-03T07:49:22.546Z</time>
      </trkpt>
      <trkpt lat="49.51015" lon="-1.44177">
        <ele>44.3</ele>
        <time>2026-09-03T07:49:23.546Z</time>
      </trkpt>
      <trkpt lat="49.51015" lon="-1.44175">
        <ele>44.4</ele>
        <time>2026-09-03T07:49:24.549Z</time>
      </trkpt>
      <trkpt lat="49.51016" lon="-1.44173">
        <ele>44.4</ele>
        <time>2026-09-03T07:49:25.550Z</time>
      </trkpt>
      <trkpt lat="49.51016" lon="-1.44171">
        <ele>44.5</ele>
        <time>2026-09-03T07:49:26.552Z</time>
      </trkpt>
      <trkpt lat="49.51017" lon="-1.44169">
        <ele>44.6</ele>
        <time>2026-09-03T07:49:27.553Z</time>
      </trkpt>
      <trkpt lat="49.51018" lon="-1.44167">
        <ele>44.6</ele>
        <time>2026-09-03T07:49:28.555Z</time>
      </trkpt>
      <trkpt lat="49.51019" lon="-1.44165">
        <ele>44.7</ele>
        <time>2026-09-03T07:49:29.556Z</time>
      </trkpt>
      <trkpt lat="49.5102" lon="-1.44162">
        <ele>44.9</ele>
        <time>2026-09-03T07:49:31.559Z</time>
      </trkpt>
      <trkpt lat="49.51021" lon="-1.4416">
        <ele>45</ele>
        <time>2026-09-03T07:49:32.561Z</time>
      </trkpt>
      <trkpt lat="49.51021" lon="-1.44159">
        <ele>45</ele>
        <time>2026-09-03T07:49:33.562Z</time>
      </trkpt>
      <trkpt lat="49.51022" lon="-1.44157">
        <ele>45.1</ele>
        <time>2026-09-03T07:49:34.564Z</time>
      </trkpt>
      <trkpt lat="49.51022" lon="-1.44155">
        <ele>45.2</ele>
        <time>2026-09-03T07:49:35.565Z</time>
      </trkpt>
      <trkpt lat="49.51023" lon="-1.44151">
        <ele>45.4</ele>
        <time>2026-09-03T07:49:37.558Z</time>
      </trkpt>
      <trkpt lat="49.51024" lon="-1.44151">
        <ele>45.4</ele>
        <time>2026-09-03T07:49:38.559Z</time>
      </trkpt>
      <trkpt lat="49.51026" lon="-1.44148">
        <ele>45.6</ele>
        <time>2026-09-03T07:49:40.531Z</time>
      </trkpt>
      <trkpt lat="49.51026" lon="-1.44146">
        <ele>45.7</ele>
        <time>2026-09-03T07:49:41.532Z</time>
      </trkpt>
      <trkpt lat="49.51026" lon="-1.44142">
        <ele>45.8</ele>
        <time>2026-09-03T07:49:43.527Z</time>
      </trkpt>
      <trkpt lat="49.51026" lon="-1.44141">
        <ele>45.9</ele>
        <time>2026-09-03T07:49:44.531Z</time>
      </trkpt>
      <trkpt lat="49.51026" lon="-1.44139">
        <ele>45.9</ele>
        <time>2026-09-03T07:49:45.532Z</time>
      </trkpt>
      <trkpt lat="49.51028" lon="-1.44135">
        <ele>46</ele>
        <time>2026-09-03T07:49:47.535Z</time>
      </trkpt>
      <trkpt lat="49.51028" lon="-1.44132">
        <ele>46</ele>
        <time>2026-09-03T07:49:49.532Z</time>
      </trkpt>
      <trkpt lat="49.51029" lon="-1.4413">
        <ele>46</ele>
        <time>2026-09-03T07:49:50.533Z</time>
      </trkpt>
      <trkpt lat="49.51029" lon="-1.44128">
        <ele>46</ele>
        <time>2026-09-03T07:49:51.534Z</time>
      </trkpt>
      <trkpt lat="49.5103" lon="-1.44125">
        <ele>46</ele>
        <time>2026-09-03T07:49:52.542Z</time>
      </trkpt>
      <trkpt lat="49.5103" lon="-1.44122">
        <ele>46</ele>
        <time>2026-09-03T07:49:54.443Z</time>
      </trkpt>
      <trkpt lat="49.5103" lon="-1.4412">
        <ele>46.1</ele>
        <time>2026-09-03T07:49:55.564Z</time>
      </trkpt>
      <trkpt lat="49.51031" lon="-1.44116">
        <ele>46.1</ele>
        <time>2026-09-03T07:49:57.536Z</time>
      </trkpt>
      <trkpt lat="49.51031" lon="-1.44115">
        <ele>46.1</ele>
        <time>2026-09-03T07:49:58.539Z</time>
      </trkpt>
      <trkpt lat="49.51031" lon="-1.44111">
        <ele>46.1</ele>
        <time>2026-09-03T07:50:00.537Z</time>
      </trkpt>
      <trkpt lat="49.5103" lon="-1.44108">
        <ele>46.3</ele>
        <time>2026-09-03T07:50:02.533Z</time>
      </trkpt>
      <trkpt lat="49.51029" lon="-1.44106">
        <ele>46.4</ele>
        <time>2026-09-03T07:50:03.534Z</time>
      </trkpt>
      <trkpt lat="49.51028" lon="-1.44104">
        <ele>46.5</ele>
        <time>2026-09-03T07:50:04.557Z</time>
      </trkpt>
      <trkpt lat="49.51027" lon="-1.44103">
        <ele>46.6</ele>
        <time>2026-09-03T07:50:06.541Z</time>
      </trkpt>
      <trkpt lat="49.51025" lon="-1.441">
        <ele>46.9</ele>
        <time>2026-09-03T07:50:08.534Z</time>
      </trkpt>
      <trkpt lat="49.51025" lon="-1.44099">
        <ele>47</ele>
        <time>2026-09-03T07:50:09.534Z</time>
      </trkpt>
      <trkpt lat="49.51023" lon="-1.44096">
        <ele>47.3</ele>
        <time>2026-09-03T07:50:11.536Z</time>
      </trkpt>
      <trkpt lat="49.51022" lon="-1.44096">
        <ele>47.3</ele>
        <time>2026-09-03T07:50:12.537Z</time>
      </trkpt>
      <trkpt lat="49.5102" lon="-1.44095">
        <ele>47.4</ele>
        <time>2026-09-03T07:50:14.534Z</time>
      </trkpt>
      <trkpt lat="49.51017" lon="-1.44095">
        <ele>47.5</ele>
        <time>2026-09-03T07:50:16.541Z</time>
      </trkpt>
      <trkpt lat="49.51015" lon="-1.44094">
        <ele>47.7</ele>
        <time>2026-09-03T07:50:18.531Z</time>
      </trkpt>
      <trkpt lat="49.51015" lon="-1.44093">
        <ele>47.8</ele>
        <time>2026-09-03T07:50:19.533Z</time>
      </trkpt>
      <trkpt lat="49.51012" lon="-1.44091">
        <ele>48</ele>
        <time>2026-09-03T07:50:21.561Z</time>
      </trkpt>
      <trkpt lat="49.51011" lon="-1.4409">
        <ele>48.1</ele>
        <time>2026-09-03T07:50:23.539Z</time>
      </trkpt>
      <trkpt lat="49.51009" lon="-1.44088">
        <ele>48.3</ele>
        <time>2026-09-03T07:50:25.538Z</time>
      </trkpt>
      <trkpt lat="49.51008" lon="-1.44087">
        <ele>48.4</ele>
        <time>2026-09-03T07:50:26.538Z</time>
      </trkpt>
      <trkpt lat="49.51007" lon="-1.44086">
        <ele>48.6</ele>
        <time>2026-09-03T07:50:27.540Z</time>
      </trkpt>
      <trkpt lat="49.51006" lon="-1.44086">
        <ele>48.6</ele>
        <time>2026-09-03T07:50:28.541Z</time>
      </trkpt>
      <trkpt lat="49.51004" lon="-1.44084">
        <ele>48.8</ele>
        <time>2026-09-03T07:50:30.544Z</time>
      </trkpt>
      <trkpt lat="49.51003" lon="-1.44083">
        <ele>48.9</ele>
        <time>2026-09-03T07:50:31.545Z</time>
      </trkpt>
      <trkpt lat="49.51002" lon="-1.44082">
        <ele>49.1</ele>
        <time>2026-09-03T07:50:32.567Z</time>
      </trkpt>
      <trkpt lat="49.51" lon="-1.4408">
        <ele>49.4</ele>
        <time>2026-09-03T07:50:34.550Z</time>
      </trkpt>
      <trkpt lat="49.50998" lon="-1.44079">
        <ele>49.5</ele>
        <time>2026-09-03T07:50:36.552Z</time>
      </trkpt>
      <trkpt lat="49.50997" lon="-1.44078">
        <ele>49.7</ele>
        <time>2026-09-03T07:50:37.554Z</time>
      </trkpt>
      <trkpt lat="49.50996" lon="-1.44076">
        <ele>49.9</ele>
        <time>2026-09-03T07:50:38.555Z</time>
      </trkpt>
      <trkpt lat="49.50995" lon="-1.44075">
        <ele>50</ele>
        <time>2026-09-03T07:50:39.557Z</time>
      </trkpt>
      <trkpt lat="49.50993" lon="-1.44072">
        <ele>50.4</ele>
        <time>2026-09-03T07:50:41.559Z</time>
      </trkpt>
      <trkpt lat="49.50993" lon="-1.44071">
        <ele>50.5</ele>
        <time>2026-09-03T07:50:42.561Z</time>
      </trkpt>
      <trkpt lat="49.50991" lon="-1.44068">
        <ele>50.8</ele>
        <time>2026-09-03T07:50:44.564Z</time>
      </trkpt>
      <trkpt lat="49.5099" lon="-1.44067">
        <ele>50.9</ele>
        <time>2026-09-03T07:50:45.565Z</time>
      </trkpt>
      <trkpt lat="49.50989" lon="-1.44065">
        <ele>51.1</ele>
        <time>2026-09-03T07:50:46.566Z</time>
      </trkpt>
      <trkpt lat="49.50987" lon="-1.44063">
        <ele>51.3</ele>
        <time>2026-09-03T07:50:48.569Z</time>
      </trkpt>
      <trkpt lat="49.50986" lon="-1.4406">
        <ele>51.6</ele>
        <time>2026-09-03T07:50:50.572Z</time>
      </trkpt>
      <trkpt lat="49.50984" lon="-1.44058">
        <ele>51.8</ele>
        <time>2026-09-03T07:50:52.533Z</time>
      </trkpt>
      <trkpt lat="49.50983" lon="-1.44057">
        <ele>51.9</ele>
        <time>2026-09-03T07:50:53.533Z</time>
      </trkpt>
      <trkpt lat="49.50983" lon="-1.44055">
        <ele>52</ele>
        <time>2026-09-03T07:50:54.535Z</time>
      </trkpt>
      <trkpt lat="49.50982" lon="-1.44054">
        <ele>52.1</ele>
        <time>2026-09-03T07:50:55.537Z</time>
      </trkpt>
      <trkpt lat="49.50981" lon="-1.44052">
        <ele>52.2</ele>
        <time>2026-09-03T07:50:56.581Z</time>
      </trkpt>
      <trkpt lat="49.50981" lon="-1.44048">
        <ele>52.5</ele>
        <time>2026-09-03T07:50:58.532Z</time>
      </trkpt>
      <trkpt lat="49.5098" lon="-1.44044">
        <ele>52.7</ele>
        <time>2026-09-03T07:51:00.466Z</time>
      </trkpt>
      <trkpt lat="49.5098" lon="-1.44042">
        <ele>52.8</ele>
        <time>2026-09-03T07:51:01.534Z</time>
      </trkpt>
      <trkpt lat="49.50979" lon="-1.44039">
        <ele>53</ele>
        <time>2026-09-03T07:51:02.589Z</time>
      </trkpt>
      <trkpt lat="49.50979" lon="-1.44036">
        <ele>53.2</ele>
        <time>2026-09-03T07:51:04.534Z</time>
      </trkpt>
      <trkpt lat="49.5098" lon="-1.44032">
        <ele>53.5</ele>
        <time>2026-09-03T07:51:06.535Z</time>
      </trkpt>
      <trkpt lat="49.50981" lon="-1.4403">
        <ele>53.5</ele>
        <time>2026-09-03T07:51:07.537Z</time>
      </trkpt>
      <trkpt lat="49.50981" lon="-1.44027">
        <ele>53.7</ele>
        <time>2026-09-03T07:51:09.538Z</time>
      </trkpt>
      <trkpt lat="49.50983" lon="-1.44023">
        <ele>53.8</ele>
        <time>2026-09-03T07:51:11.538Z</time>
      </trkpt>
      <trkpt lat="49.50985" lon="-1.4402">
        <ele>53.8</ele>
        <time>2026-09-03T07:51:13.533Z</time>
      </trkpt>
      <trkpt lat="49.50986" lon="-1.44018">
        <ele>53.9</ele>
        <time>2026-09-03T07:51:14.535Z</time>
      </trkpt>
      <trkpt lat="49.50988" lon="-1.44014">
        <ele>53.9</ele>
        <time>2026-09-03T07:51:16.541Z</time>
      </trkpt>
      <trkpt lat="49.50988" lon="-1.44013">
        <ele>53.9</ele>
        <time>2026-09-03T07:51:17.546Z</time>
      </trkpt>
      <trkpt lat="49.5099" lon="-1.44009">
        <ele>53.8</ele>
        <time>2026-09-03T07:51:19.563Z</time>
      </trkpt>
      <trkpt lat="49.50991" lon="-1.44006">
        <ele>53.8</ele>
        <time>2026-09-03T07:51:21.533Z</time>
      </trkpt>
      <trkpt lat="49.50991" lon="-1.44002">
        <ele>53.9</ele>
        <time>2026-09-03T07:51:23.531Z</time>
      </trkpt>
      <trkpt lat="49.50988" lon="-1.44001">
        <ele>54.3</ele>
        <time>2026-09-03T07:51:24.553Z</time>
      </trkpt>
      <trkpt lat="49.50987" lon="-1.44001">
        <ele>54.4</ele>
        <time>2026-09-03T07:51:26.535Z</time>
      </trkpt>
      <trkpt lat="49.50986" lon="-1.44001">
        <ele>54.5</ele>
        <time>2026-09-03T07:51:27.537Z</time>
      </trkpt>
      <trkpt lat="49.50986" lon="-1.44">
        <ele>54.5</ele>
        <time>2026-09-03T07:51:28.538Z</time>
      </trkpt>
      <trkpt lat="49.50987" lon="-1.44">
        <ele>54.4</ele>
        <time>2026-09-03T07:51:30.578Z</time>
      </trkpt>
      <trkpt lat="49.50986" lon="-1.43999">
        <ele>54.5</ele>
        <time>2026-09-03T07:51:32.461Z</time>
      </trkpt>
      <trkpt lat="49.50984" lon="-1.43999">
        <ele>54.7</ele>
        <time>2026-09-03T07:51:33.542Z</time>
      </trkpt>
      <trkpt lat="49.50988" lon="-1.43995">
        <ele>54.3</ele>
        <time>2026-09-03T07:51:34.546Z</time>
      </trkpt>
      <trkpt lat="49.50992" lon="-1.4399">
        <ele>53.9</ele>
        <time>2026-09-03T07:51:35.550Z</time>
      </trkpt>
      <trkpt lat="49.50997" lon="-1.43984">
        <ele>53.3</ele>
        <time>2026-09-03T07:51:37.538Z</time>
      </trkpt>
      <trkpt lat="49.50998" lon="-1.43983">
        <ele>53.2</ele>
        <time>2026-09-03T07:51:38.539Z</time>
      </trkpt>
      <trkpt lat="49.50999" lon="-1.43981">
        <ele>53.1</ele>
        <time>2026-09-03T07:51:39.541Z</time>
      </trkpt>
      <trkpt lat="49.51002" lon="-1.43978">
        <ele>52.9</ele>
        <time>2026-09-03T07:51:41.544Z</time>
      </trkpt>
      <trkpt lat="49.51004" lon="-1.43976">
        <ele>52.7</ele>
        <time>2026-09-03T07:51:42.545Z</time>
      </trkpt>
      <trkpt lat="49.51005" lon="-1.43975">
        <ele>52.6</ele>
        <time>2026-09-03T07:51:43.599Z</time>
      </trkpt>
      <trkpt lat="49.51006" lon="-1.43973">
        <ele>52.6</ele>
        <time>2026-09-03T07:51:45.549Z</time>
      </trkpt>
      <trkpt lat="49.51007" lon="-1.43972">
        <ele>52.5</ele>
        <time>2026-09-03T07:51:46.571Z</time>
      </trkpt>
      <trkpt lat="49.51008" lon="-1.43971">
        <ele>52.5</ele>
        <time>2026-09-03T07:51:47.572Z</time>
      </trkpt>
      <trkpt lat="49.51008" lon="-1.4397">
        <ele>52.5</ele>
        <time>2026-09-03T07:51:48.574Z</time>
      </trkpt>
      <trkpt lat="49.5101" lon="-1.43967">
        <ele>52.5</ele>
        <time>2026-09-03T07:51:50.486Z</time>
      </trkpt>
      <trkpt lat="49.51011" lon="-1.43965">
        <ele>52.5</ele>
        <time>2026-09-03T07:51:51.578Z</time>
      </trkpt>
      <trkpt lat="49.51013" lon="-1.43962">
        <ele>52.4</ele>
        <time>2026-09-03T07:51:53.460Z</time>
      </trkpt>
      <trkpt lat="49.51013" lon="-1.4396">
        <ele>52.5</ele>
        <time>2026-09-03T07:51:54.562Z</time>
      </trkpt>
      <trkpt lat="49.51015" lon="-1.43957">
        <ele>52.5</ele>
        <time>2026-09-03T07:51:56.531Z</time>
      </trkpt>
      <trkpt lat="49.51015" lon="-1.43955">
        <ele>52.5</ele>
        <time>2026-09-03T07:51:57.534Z</time>
      </trkpt>
      <trkpt lat="49.51016" lon="-1.43953">
        <ele>52.5</ele>
        <time>2026-09-03T07:51:58.535Z</time>
      </trkpt>
      <trkpt lat="49.51017" lon="-1.43951">
        <ele>52.5</ele>
        <time>2026-09-03T07:51:59.542Z</time>
      </trkpt>
      <trkpt lat="49.51018" lon="-1.43948">
        <ele>52.6</ele>
        <time>2026-09-03T07:52:01.522Z</time>
      </trkpt>
      <trkpt lat="49.51018" lon="-1.43947">
        <ele>52.6</ele>
        <time>2026-09-03T07:52:02.532Z</time>
      </trkpt>
      <trkpt lat="49.51019" lon="-1.43945">
        <ele>52.6</ele>
        <time>2026-09-03T07:52:03.536Z</time>
      </trkpt>
      <trkpt lat="49.5102" lon="-1.43942">
        <ele>52.7</ele>
        <time>2026-09-03T07:52:05.533Z</time>
      </trkpt>
      <trkpt lat="49.51022" lon="-1.43938">
        <ele>52.7</ele>
        <time>2026-09-03T07:52:07.600Z</time>
      </trkpt>
      <trkpt lat="49.51022" lon="-1.43936">
        <ele>52.8</ele>
        <time>2026-09-03T07:52:09.563Z</time>
      </trkpt>
      <trkpt lat="49.51024" lon="-1.43934">
        <ele>52.7</ele>
        <time>2026-09-03T07:52:11.542Z</time>
      </trkpt>
      <trkpt lat="49.51025" lon="-1.43931">
        <ele>52.7</ele>
        <time>2026-09-03T07:52:13.478Z</time>
      </trkpt>
      <trkpt lat="49.51025" lon="-1.4393">
        <ele>52.8</ele>
        <time>2026-09-03T07:52:14.533Z</time>
      </trkpt>
      <trkpt lat="49.51025" lon="-1.43928">
        <ele>52.9</ele>
        <time>2026-09-03T07:52:15.536Z</time>
      </trkpt>
      <trkpt lat="49.51026" lon="-1.43926">
        <ele>52.8</ele>
        <time>2026-09-03T07:52:16.542Z</time>
      </trkpt>
      <trkpt lat="49.51026" lon="-1.43922">
        <ele>53</ele>
        <time>2026-09-03T07:52:18.545Z</time>
      </trkpt>
      <trkpt lat="49.51027" lon="-1.43921">
        <ele>52.9</ele>
        <time>2026-09-03T07:52:19.577Z</time>
      </trkpt>
      <trkpt lat="49.51028" lon="-1.43917">
        <ele>53</ele>
        <time>2026-09-03T07:52:21.580Z</time>
      </trkpt>
      <trkpt lat="49.51029" lon="-1.43913">
        <ele>53</ele>
        <time>2026-09-03T07:52:23.531Z</time>
      </trkpt>
      <trkpt lat="49.51029" lon="-1.43909">
        <ele>53</ele>
        <time>2026-09-03T07:52:25.566Z</time>
      </trkpt>
      <trkpt lat="49.5103" lon="-1.43906">
        <ele>52.9</ele>
        <time>2026-09-03T07:52:27.533Z</time>
      </trkpt>
      <trkpt lat="49.51031" lon="-1.43904">
        <ele>52.9</ele>
        <time>2026-09-03T07:52:28.537Z</time>
      </trkpt>
      <trkpt lat="49.51031" lon="-1.43902">
        <ele>52.9</ele>
        <time>2026-09-03T07:52:29.538Z</time>
      </trkpt>
      <trkpt lat="49.51032" lon="-1.43901">
        <ele>52.8</ele>
        <time>2026-09-03T07:52:30.593Z</time>
      </trkpt>
      <trkpt lat="49.51033" lon="-1.43898">
        <ele>52.8</ele>
        <time>2026-09-03T07:52:32.540Z</time>
      </trkpt>
      <trkpt lat="49.51034" lon="-1.43895">
        <ele>52.8</ele>
        <time>2026-09-03T07:52:34.518Z</time>
      </trkpt>
      <trkpt lat="49.51034" lon="-1.43894">
        <ele>52.8</ele>
        <time>2026-09-03T07:52:35.530Z</time>
      </trkpt>
      <trkpt lat="49.51035" lon="-1.43892">
        <ele>52.7</ele>
        <time>2026-09-03T07:52:36.531Z</time>
      </trkpt>
      <trkpt lat="49.51035" lon="-1.4389">
        <ele>52.7</ele>
        <time>2026-09-03T07:52:37.537Z</time>
      </trkpt>
      <trkpt lat="49.51036" lon="-1.43889">
        <ele>52.7</ele>
        <time>2026-09-03T07:52:38.537Z</time>
      </trkpt>
      <trkpt lat="49.51037" lon="-1.43886">
        <ele>52.7</ele>
        <time>2026-09-03T07:52:40.547Z</time>
      </trkpt>
      <trkpt lat="49.51037" lon="-1.43885">
        <ele>52.8</ele>
        <time>2026-09-03T07:52:41.548Z</time>
      </trkpt>
      <trkpt lat="49.51038" lon="-1.43883">
        <ele>52.8</ele>
        <time>2026-09-03T07:52:42.549Z</time>
      </trkpt>
      <trkpt lat="49.51038" lon="-1.43881">
        <ele>52.8</ele>
        <time>2026-09-03T07:52:43.551Z</time>
      </trkpt>
      <trkpt lat="49.5104" lon="-1.43877">
        <ele>52.8</ele>
        <time>2026-09-03T07:52:45.444Z</time>
      </trkpt>
      <trkpt lat="49.51041" lon="-1.43875">
        <ele>52.8</ele>
        <time>2026-09-03T07:52:46.555Z</time>
      </trkpt>
      <trkpt lat="49.51041" lon="-1.43873">
        <ele>52.8</ele>
        <time>2026-09-03T07:52:47.557Z</time>
      </trkpt>
      <trkpt lat="49.51041" lon="-1.43871">
        <ele>52.9</ele>
        <time>2026-09-03T07:52:48.558Z</time>
      </trkpt>
      <trkpt lat="49.51042" lon="-1.43869">
        <ele>52.8</ele>
        <time>2026-09-03T07:52:49.559Z</time>
      </trkpt>
      <trkpt lat="49.51043" lon="-1.43864">
        <ele>52.9</ele>
        <time>2026-09-03T07:52:51.562Z</time>
      </trkpt>
      <trkpt lat="49.51044" lon="-1.43862">
        <ele>52.8</ele>
        <time>2026-09-03T07:52:52.564Z</time>
      </trkpt>
      <trkpt lat="49.51046" lon="-1.4386">
        <ele>52.6</ele>
        <time>2026-09-03T07:52:54.567Z</time>
      </trkpt>
      <trkpt lat="49.51048" lon="-1.43856">
        <ele>52.4</ele>
        <time>2026-09-03T07:52:56.535Z</time>
      </trkpt>
      <trkpt lat="49.51049" lon="-1.43854">
        <ele>52.2</ele>
        <time>2026-09-03T07:52:57.571Z</time>
      </trkpt>
      <trkpt lat="49.51051" lon="-1.4385">
        <ele>51.9</ele>
        <time>2026-09-03T07:52:59.574Z</time>
      </trkpt>
      <trkpt lat="49.51052" lon="-1.43849">
        <ele>51.8</ele>
        <time>2026-09-03T07:53:00.575Z</time>
      </trkpt>
      <trkpt lat="49.51051" lon="-1.43844">
        <ele>51.7</ele>
        <time>2026-09-03T07:53:02.534Z</time>
      </trkpt>
      <trkpt lat="49.51049" lon="-1.43839">
        <ele>51.7</ele>
        <time>2026-09-03T07:53:04.539Z</time>
      </trkpt>
      <trkpt lat="49.51048" lon="-1.43836">
        <ele>51.6</ele>
        <time>2026-09-03T07:53:06.536Z</time>
      </trkpt>
      <trkpt lat="49.51046" lon="-1.43834">
        <ele>51.7</ele>
        <time>2026-09-03T07:53:08.535Z</time>
      </trkpt>
      <trkpt lat="49.51045" lon="-1.43833">
        <ele>51.8</ele>
        <time>2026-09-03T07:53:09.535Z</time>
      </trkpt>
      <trkpt lat="49.51044" lon="-1.43832">
        <ele>51.9</ele>
        <time>2026-09-03T07:53:10.535Z</time>
      </trkpt>
      <trkpt lat="49.51041" lon="-1.43831">
        <ele>52.2</ele>
        <time>2026-09-03T07:53:12.544Z</time>
      </trkpt>
      <trkpt lat="49.51039" lon="-1.4383">
        <ele>52.4</ele>
        <time>2026-09-03T07:53:14.595Z</time>
      </trkpt>
      <trkpt lat="49.51037" lon="-1.43829">
        <ele>52.6</ele>
        <time>2026-09-03T07:53:16.530Z</time>
      </trkpt>
      <trkpt lat="49.51036" lon="-1.43828">
        <ele>52.7</ele>
        <time>2026-09-03T07:53:17.530Z</time>
      </trkpt>
      <trkpt lat="49.51034" lon="-1.43826">
        <ele>53</ele>
        <time>2026-09-03T07:53:19.502Z</time>
      </trkpt>
      <trkpt lat="49.51033" lon="-1.43824">
        <ele>53.2</ele>
        <time>2026-09-03T07:53:20.532Z</time>
      </trkpt>
      <trkpt lat="49.51033" lon="-1.43825">
        <ele>53.2</ele>
        <time>2026-09-03T07:53:21.534Z</time>
      </trkpt>
      <trkpt lat="49.51033" lon="-1.43826">
        <ele>53.1</ele>
        <time>2026-09-03T07:53:22.535Z</time>
      </trkpt>
      <trkpt lat="49.51034" lon="-1.43826">
        <ele>53</ele>
        <time>2026-09-03T07:53:23.536Z</time>
      </trkpt>
      <trkpt lat="49.51035" lon="-1.43825">
        <ele>53</ele>
        <time>2026-09-03T07:53:25.529Z</time>
      </trkpt>
      <trkpt lat="49.51035" lon="-1.43825">
        <ele>53</ele>
        <time>2026-09-03T07:53:26.529Z</time>
      </trkpt>
      <trkpt lat="49.51035" lon="-1.43825">
        <ele>53</ele>
        <time>2026-09-03T07:53:27.539Z</time>
      </trkpt>
      <trkpt lat="49.51035" lon="-1.43825">
        <ele>53</ele>
        <time>2026-09-03T07:53:28.542Z</time>
      </trkpt>
      <trkpt lat="49.51035" lon="-1.43824">
        <ele>53.1</ele>
        <time>2026-09-03T07:53:30.532Z</time>
      </trkpt>
      <trkpt lat="49.51035" lon="-1.43825">
        <ele>53</ele>
        <time>2026-09-03T07:53:31.532Z</time>
      </trkpt>
      <trkpt lat="49.51035" lon="-1.43825">
        <ele>53</ele>
        <time>2026-09-03T07:53:32.534Z</time>
      </trkpt>
      <trkpt lat="49.51034" lon="-1.43825">
        <ele>53.1</ele>
        <time>2026-09-03T07:53:33.534Z</time>
      </trkpt>
      <trkpt lat="49.51034" lon="-1.43826">
        <ele>53</ele>
        <time>2026-09-03T07:53:34.534Z</time>
      </trkpt>
      <trkpt lat="49.51032" lon="-1.43827">
        <ele>53.1</ele>
        <time>2026-09-03T07:53:35.537Z</time>
      </trkpt>
      <trkpt lat="49.51028" lon="-1.43828">
        <ele>53.4</ele>
        <time>2026-09-03T07:53:37.538Z</time>
      </trkpt>
      <trkpt lat="49.51026" lon="-1.43825">
        <ele>53.8</ele>
        <time>2026-09-03T07:53:38.540Z</time>
      </trkpt>
      <trkpt lat="49.51024" lon="-1.43823">
        <ele>54.1</ele>
        <time>2026-09-03T07:53:39.542Z</time>
      </trkpt>
      <trkpt lat="49.51022" lon="-1.43823">
        <ele>54.3</ele>
        <time>2026-09-03T07:53:40.543Z</time>
      </trkpt>
      <trkpt lat="49.5102" lon="-1.43823">
        <ele>54.5</ele>
        <time>2026-09-03T07:53:41.545Z</time>
      </trkpt>
      <trkpt lat="49.51018" lon="-1.43823">
        <ele>54.7</ele>
        <time>2026-09-03T07:53:42.546Z</time>
      </trkpt>
      <trkpt lat="49.51017" lon="-1.43823">
        <ele>54.8</ele>
        <time>2026-09-03T07:53:43.548Z</time>
      </trkpt>
      <trkpt lat="49.51016" lon="-1.43823">
        <ele>54.9</ele>
        <time>2026-09-03T07:53:44.549Z</time>
      </trkpt>
      <trkpt lat="49.51015" lon="-1.43822">
        <ele>55</ele>
        <time>2026-09-03T07:53:45.551Z</time>
      </trkpt>
      <trkpt lat="49.51014" lon="-1.43822">
        <ele>55.1</ele>
        <time>2026-09-03T07:53:46.552Z</time>
      </trkpt>
      <trkpt lat="49.51013" lon="-1.43821">
        <ele>55.2</ele>
        <time>2026-09-03T07:53:47.554Z</time>
      </trkpt>
      <trkpt lat="49.51011" lon="-1.43821">
        <ele>55.4</ele>
        <time>2026-09-03T07:53:48.555Z</time>
      </trkpt>
      <trkpt lat="49.5101" lon="-1.43821">
        <ele>55.5</ele>
        <time>2026-09-03T07:53:49.557Z</time>
      </trkpt>
      <trkpt lat="49.51008" lon="-1.4382">
        <ele>55.8</ele>
        <time>2026-09-03T07:53:51.560Z</time>
      </trkpt>
      <trkpt lat="49.51007" lon="-1.4382">
        <ele>55.8</ele>
        <time>2026-09-03T07:53:52.561Z</time>
      </trkpt>
      <trkpt lat="49.51005" lon="-1.4382">
        <ele>56</ele>
        <time>2026-09-03T07:53:53.563Z</time>
      </trkpt>
      <trkpt lat="49.51004" lon="-1.43819">
        <ele>56.2</ele>
        <time>2026-09-03T07:53:54.564Z</time>
      </trkpt>
      <trkpt lat="49.51002" lon="-1.43818">
        <ele>56.4</ele>
        <time>2026-09-03T07:53:56.538Z</time>
      </trkpt>
      <trkpt lat="49.51001" lon="-1.43817">
        <ele>56.5</ele>
        <time>2026-09-03T07:53:57.538Z</time>
      </trkpt>
      <trkpt lat="49.50999" lon="-1.43815">
        <ele>56.7</ele>
        <time>2026-09-03T07:53:59.534Z</time>
      </trkpt>
      <trkpt lat="49.50998" lon="-1.43814">
        <ele>56.8</ele>
        <time>2026-09-03T07:54:00.534Z</time>
      </trkpt>
      <trkpt lat="49.50996" lon="-1.43813">
        <ele>56.9</ele>
        <time>2026-09-03T07:54:02.506Z</time>
      </trkpt>
      <trkpt lat="49.50994" lon="-1.43812">
        <ele>57</ele>
        <time>2026-09-03T07:54:04.538Z</time>
      </trkpt>
      <trkpt lat="49.50992" lon="-1.43812">
        <ele>57.1</ele>
        <time>2026-09-03T07:54:05.560Z</time>
      </trkpt>
      <trkpt lat="49.5099" lon="-1.43811">
        <ele>57.2</ele>
        <time>2026-09-03T07:54:07.533Z</time>
      </trkpt>
      <trkpt lat="49.50988" lon="-1.43809">
        <ele>57.3</ele>
        <time>2026-09-03T07:54:09.536Z</time>
      </trkpt>
      <trkpt lat="49.50985" lon="-1.43808">
        <ele>57.5</ele>
        <time>2026-09-03T07:54:11.533Z</time>
      </trkpt>
      <trkpt lat="49.50984" lon="-1.43807">
        <ele>57.5</ele>
        <time>2026-09-03T07:54:12.539Z</time>
      </trkpt>
      <trkpt lat="49.50983" lon="-1.43806">
        <ele>57.6</ele>
        <time>2026-09-03T07:54:13.541Z</time>
      </trkpt>
      <trkpt lat="49.5098" lon="-1.43805">
        <ele>57.7</ele>
        <time>2026-09-03T07:54:15.532Z</time>
      </trkpt>
      <trkpt lat="49.50978" lon="-1.43804">
        <ele>57.8</ele>
        <time>2026-09-03T07:54:17.457Z</time>
      </trkpt>
      <trkpt lat="49.50977" lon="-1.43804">
        <ele>57.8</ele>
        <time>2026-09-03T07:54:18.519Z</time>
      </trkpt>
      <trkpt lat="49.50976" lon="-1.43804">
        <ele>57.9</ele>
        <time>2026-09-03T07:54:19.536Z</time>
      </trkpt>
      <trkpt lat="49.50973" lon="-1.43803">
        <ele>58</ele>
        <time>2026-09-03T07:54:21.532Z</time>
      </trkpt>
      <trkpt lat="49.50972" lon="-1.43802">
        <ele>58</ele>
        <time>2026-09-03T07:54:22.532Z</time>
      </trkpt>
      <trkpt lat="49.5097" lon="-1.43802">
        <ele>58</ele>
        <time>2026-09-03T07:54:24.457Z</time>
      </trkpt>
      <trkpt lat="49.50969" lon="-1.43802">
        <ele>58</ele>
        <time>2026-09-03T07:54:25.539Z</time>
      </trkpt>
      <trkpt lat="49.50966" lon="-1.43802">
        <ele>58</ele>
        <time>2026-09-03T07:54:27.537Z</time>
      </trkpt>
      <trkpt lat="49.50963" lon="-1.43802">
        <ele>58</ele>
        <time>2026-09-03T07:54:29.535Z</time>
      </trkpt>
      <trkpt lat="49.50961" lon="-1.43801">
        <ele>58.1</ele>
        <time>2026-09-03T07:54:31.532Z</time>
      </trkpt>
      <trkpt lat="49.50959" lon="-1.438">
        <ele>58.1</ele>
        <time>2026-09-03T07:54:32.533Z</time>
      </trkpt>
      <trkpt lat="49.50957" lon="-1.43799">
        <ele>58.1</ele>
        <time>2026-09-03T07:54:34.536Z</time>
      </trkpt>
      <trkpt lat="49.50956" lon="-1.43799">
        <ele>58.1</ele>
        <time>2026-09-03T07:54:35.538Z</time>
      </trkpt>
      <trkpt lat="49.50954" lon="-1.43798">
        <ele>58.2</ele>
        <time>2026-09-03T07:54:36.539Z</time>
      </trkpt>
      <trkpt lat="49.50953" lon="-1.43798">
        <ele>58.2</ele>
        <time>2026-09-03T07:54:37.540Z</time>
      </trkpt>
      <trkpt lat="49.5095" lon="-1.43797">
        <ele>58.2</ele>
        <time>2026-09-03T07:54:39.535Z</time>
      </trkpt>
      <trkpt lat="49.50947" lon="-1.43796">
        <ele>58.3</ele>
        <time>2026-09-03T07:54:41.462Z</time>
      </trkpt>
      <trkpt lat="49.50945" lon="-1.43796">
        <ele>58.3</ele>
        <time>2026-09-03T07:54:42.523Z</time>
      </trkpt>
      <trkpt lat="49.50944" lon="-1.43796">
        <ele>58.4</ele>
        <time>2026-09-03T07:54:43.565Z</time>
      </trkpt>
      <trkpt lat="49.50943" lon="-1.43796">
        <ele>58.4</ele>
        <time>2026-09-03T07:54:45.535Z</time>
      </trkpt>
      <trkpt lat="49.50941" lon="-1.43796">
        <ele>58.4</ele>
        <time>2026-09-03T07:54:47.500Z</time>
      </trkpt>
      <trkpt lat="49.5094" lon="-1.43796">
        <ele>58.4</ele>
        <time>2026-09-03T07:54:48.522Z</time>
      </trkpt>
      <trkpt lat="49.50939" lon="-1.43796">
        <ele>58.5</ele>
        <time>2026-09-03T07:54:49.532Z</time>
      </trkpt>
      <trkpt lat="49.50937" lon="-1.43796">
        <ele>58.5</ele>
        <time>2026-09-03T07:54:50.536Z</time>
      </trkpt>
      <trkpt lat="49.50936" lon="-1.43796">
        <ele>58.5</ele>
        <time>2026-09-03T07:54:51.537Z</time>
      </trkpt>
      <trkpt lat="49.50935" lon="-1.43796">
        <ele>58.6</ele>
        <time>2026-09-03T07:54:52.543Z</time>
      </trkpt>
      <trkpt lat="49.50932" lon="-1.43796">
        <ele>58.6</ele>
        <time>2026-09-03T07:54:54.599Z</time>
      </trkpt>
      <trkpt lat="49.5093" lon="-1.43797">
        <ele>58.7</ele>
        <time>2026-09-03T07:54:56.534Z</time>
      </trkpt>
      <trkpt lat="49.50931" lon="-1.43797">
        <ele>58.6</ele>
        <time>2026-09-03T07:54:57.535Z</time>
      </trkpt>
      <trkpt lat="49.50931" lon="-1.43797">
        <ele>58.6</ele>
        <time>2026-09-03T07:54:58.549Z</time>
      </trkpt>
      <trkpt lat="49.50931" lon="-1.43797">
        <ele>58.6</ele>
        <time>2026-09-03T07:55:00.543Z</time>
      </trkpt>
      <trkpt lat="49.50931" lon="-1.43797">
        <ele>58.6</ele>
        <time>2026-09-03T07:55:01.545Z</time>
      </trkpt>
      <trkpt lat="49.50932" lon="-1.43797">
        <ele>58.6</ele>
        <time>2026-09-03T07:55:03.530Z</time>
      </trkpt>
      <trkpt lat="49.50932" lon="-1.43797">
        <ele>58.6</ele>
        <time>2026-09-03T07:55:04.533Z</time>
      </trkpt>
      <trkpt lat="49.50932" lon="-1.43797">
        <ele>58.6</ele>
        <time>2026-09-03T07:55:06.531Z</time>
      </trkpt>
      <trkpt lat="49.50932" lon="-1.43797">
        <ele>58.6</ele>
        <time>2026-09-03T07:55:07.537Z</time>
      </trkpt>
      <trkpt lat="49.50932" lon="-1.43797">
        <ele>58.6</ele>
        <time>2026-09-03T07:55:09.552Z</time>
      </trkpt>
      <trkpt lat="49.50932" lon="-1.43797">
        <ele>58.6</ele>
        <time>2026-09-03T07:55:10.553Z</time>
      </trkpt>
      <trkpt lat="49.50932" lon="-1.43797">
        <ele>58.6</ele>
        <time>2026-09-03T07:55:11.555Z</time>
      </trkpt>
      <trkpt lat="49.50932" lon="-1.43797">
        <ele>58.6</ele>
        <time>2026-09-03T07:55:12.556Z</time>
      </trkpt>
      <trkpt lat="49.50932" lon="-1.43797">
        <ele>58.6</ele>
        <time>2026-09-03T07:55:13.558Z</time>
      </trkpt>
      <trkpt lat="49.50932" lon="-1.43797">
        <ele>58.6</ele>
        <time>2026-09-03T07:55:14.559Z</time>
      </trkpt>
      <trkpt lat="49.50932" lon="-1.43797">
        <ele>58.6</ele>
        <time>2026-09-03T07:55:15.599Z</time>
      </trkpt>
      <trkpt lat="49.50932" lon="-1.43797">
        <ele>58.6</ele>
        <time>2026-09-03T07:55:17.583Z</time>
      </trkpt>
      <trkpt lat="49.50932" lon="-1.43797">
        <ele>58.6</ele>
        <time>2026-09-03T07:55:19.546Z</time>
      </trkpt>
      <trkpt lat="49.50932" lon="-1.43797">
        <ele>58.6</ele>
        <time>2026-09-03T07:55:20.548Z</time>
      </trkpt>
      <trkpt lat="49.50932" lon="-1.43797">
        <ele>58.6</ele>
        <time>2026-09-03T07:55:21.549Z</time>
      </trkpt>
      <trkpt lat="49.50932" lon="-1.43797">
        <ele>58.6</ele>
        <time>2026-09-03T07:55:22.550Z</time>
      </trkpt>
      <trkpt lat="49.50932" lon="-1.43797">
        <ele>58.6</ele>
        <time>2026-09-03T07:55:23.552Z</time>
      </trkpt>
      <trkpt lat="49.50931" lon="-1.43798">
        <ele>58.6</ele>
        <time>2026-09-03T07:55:24.553Z</time>
      </trkpt>
      <trkpt lat="49.50931" lon="-1.43798">
        <ele>58.6</ele>
        <time>2026-09-03T07:55:25.555Z</time>
      </trkpt>
      <trkpt lat="49.50931" lon="-1.43798">
        <ele>58.6</ele>
        <time>2026-09-03T07:55:27.577Z</time>
      </trkpt>
      <trkpt lat="49.50931" lon="-1.43798">
        <ele>58.6</ele>
        <time>2026-09-03T07:55:29.532Z</time>
      </trkpt>
      <trkpt lat="49.50931" lon="-1.43798">
        <ele>58.6</ele>
        <time>2026-09-03T07:55:31.443Z</time>
      </trkpt>
      <trkpt lat="49.50931" lon="-1.43799">
        <ele>58.6</ele>
        <time>2026-09-03T07:55:32.584Z</time>
      </trkpt>
      <trkpt lat="49.50931" lon="-1.43803">
        <ele>58.5</ele>
        <time>2026-09-03T07:55:34.536Z</time>
      </trkpt>
      <trkpt lat="49.5093" lon="-1.43808">
        <ele>58.5</ele>
        <time>2026-09-03T07:55:36.534Z</time>
      </trkpt>
      <trkpt lat="49.5093" lon="-1.4381">
        <ele>58.5</ele>
        <time>2026-09-03T07:55:37.536Z</time>
      </trkpt>
      <trkpt lat="49.50929" lon="-1.43814">
        <ele>58.6</ele>
        <time>2026-09-03T07:55:39.534Z</time>
      </trkpt>
      <trkpt lat="49.50928" lon="-1.43816">
        <ele>58.6</ele>
        <time>2026-09-03T07:55:40.586Z</time>
      </trkpt>
      <trkpt lat="49.50927" lon="-1.43819">
        <ele>58.6</ele>
        <time>2026-09-03T07:55:42.578Z</time>
      </trkpt>
      <trkpt lat="49.50926" lon="-1.43823">
        <ele>58.7</ele>
        <time>2026-09-03T07:55:44.541Z</time>
      </trkpt>
      <trkpt lat="49.50925" lon="-1.43825">
        <ele>58.7</ele>
        <time>2026-09-03T07:55:45.543Z</time>
      </trkpt>
      <trkpt lat="49.50924" lon="-1.43828">
        <ele>58.7</ele>
        <time>2026-09-03T07:55:47.485Z</time>
      </trkpt>
      <trkpt lat="49.50923" lon="-1.43831">
        <ele>58.8</ele>
        <time>2026-09-03T07:55:49.518Z</time>
      </trkpt>
      <trkpt lat="49.50922" lon="-1.43835">
        <ele>58.8</ele>
        <time>2026-09-03T07:55:51.501Z</time>
      </trkpt>
      <trkpt lat="49.50921" lon="-1.43837">
        <ele>58.8</ele>
        <time>2026-09-03T07:55:52.502Z</time>
      </trkpt>
      <trkpt lat="49.5092" lon="-1.4384">
        <ele>58.9</ele>
        <time>2026-09-03T07:55:54.445Z</time>
      </trkpt>
      <trkpt lat="49.50919" lon="-1.43845">
        <ele>58.9</ele>
        <time>2026-09-03T07:55:56.338Z</time>
      </trkpt>
      <trkpt lat="49.50919" lon="-1.43846">
        <ele>58.9</ele>
        <time>2026-09-03T07:55:57.359Z</time>
      </trkpt>
      <trkpt lat="49.50919" lon="-1.43848">
        <ele>58.9</ele>
        <time>2026-09-03T07:55:58.381Z</time>
      </trkpt>
      <trkpt lat="49.50919" lon="-1.43853">
        <ele>58.9</ele>
        <time>2026-09-03T07:56:00.363Z</time>
      </trkpt>
      <trkpt lat="49.50918" lon="-1.43857">
        <ele>59</ele>
        <time>2026-09-03T07:56:02.366Z</time>
      </trkpt>
      <trkpt lat="49.50918" lon="-1.43861">
        <ele>59</ele>
        <time>2026-09-03T07:56:04.279Z</time>
      </trkpt>
      <trkpt lat="49.50917" lon="-1.43865">
        <ele>59</ele>
        <time>2026-09-03T07:56:06.222Z</time>
      </trkpt>
      <trkpt lat="49.50916" lon="-1.43868">
        <ele>59</ele>
        <time>2026-09-03T07:56:08.164Z</time>
      </trkpt>
      <trkpt lat="49.50916" lon="-1.43872">
        <ele>59</ele>
        <time>2026-09-03T07:56:10.097Z</time>
      </trkpt>
      <trkpt lat="49.50915" lon="-1.43876">
        <ele>59.1</ele>
        <time>2026-09-03T07:56:12.020Z</time>
      </trkpt>
      <trkpt lat="49.50914" lon="-1.43881">
        <ele>59.1</ele>
        <time>2026-09-03T07:56:13.962Z</time>
      </trkpt>
      <trkpt lat="49.50914" lon="-1.43885">
        <ele>59.1</ele>
        <time>2026-09-03T07:56:15.885Z</time>
      </trkpt>
      <trkpt lat="49.50913" lon="-1.43888">
        <ele>59.1</ele>
        <time>2026-09-03T07:56:17.547Z</time>
      </trkpt>
      <trkpt lat="49.50914" lon="-1.4389">
        <ele>59.1</ele>
        <time>2026-09-03T07:56:18.549Z</time>
      </trkpt>
      <trkpt lat="49.50914" lon="-1.43892">
        <ele>59.1</ele>
        <time>2026-09-03T07:56:19.553Z</time>
      </trkpt>
      <trkpt lat="49.50914" lon="-1.43894">
        <ele>59.1</ele>
        <time>2026-09-03T07:56:20.554Z</time>
      </trkpt>
      <trkpt lat="49.50913" lon="-1.43896">
        <ele>59.1</ele>
        <time>2026-09-03T07:56:21.646Z</time>
      </trkpt>
      <trkpt lat="49.50911" lon="-1.439">
        <ele>59.2</ele>
        <time>2026-09-03T07:56:23.566Z</time>
      </trkpt>
      <trkpt lat="49.50909" lon="-1.43904">
        <ele>59.3</ele>
        <time>2026-09-03T07:56:25.536Z</time>
      </trkpt>
      <trkpt lat="49.50907" lon="-1.43908">
        <ele>59.3</ele>
        <time>2026-09-03T07:56:27.535Z</time>
      </trkpt>
      <trkpt lat="49.50906" lon="-1.4391">
        <ele>59.4</ele>
        <time>2026-09-03T07:56:28.563Z</time>
      </trkpt>
      <trkpt lat="49.50904" lon="-1.43915">
        <ele>59.5</ele>
        <time>2026-09-03T07:56:30.526Z</time>
      </trkpt>
      <trkpt lat="49.50902" lon="-1.43918">
        <ele>59.5</ele>
        <time>2026-09-03T07:56:32.519Z</time>
      </trkpt>
      <trkpt lat="49.50901" lon="-1.4392">
        <ele>59.5</ele>
        <time>2026-09-03T07:56:33.520Z</time>
      </trkpt>
      <trkpt lat="49.50898" lon="-1.43924">
        <ele>59.5</ele>
        <time>2026-09-03T07:56:35.503Z</time>
      </trkpt>
      <trkpt lat="49.50898" lon="-1.43926">
        <ele>59.4</ele>
        <time>2026-09-03T07:56:36.538Z</time>
      </trkpt>
      <trkpt lat="49.50896" lon="-1.43929">
        <ele>59.4</ele>
        <time>2026-09-03T07:56:37.540Z</time>
      </trkpt>
      <trkpt lat="49.50895" lon="-1.43932">
        <ele>59.3</ele>
        <time>2026-09-03T07:56:39.379Z</time>
      </trkpt>
      <trkpt lat="49.50894" lon="-1.43934">
        <ele>59.3</ele>
        <time>2026-09-03T07:56:40.538Z</time>
      </trkpt>
      <trkpt lat="49.50892" lon="-1.43937">
        <ele>59.2</ele>
        <time>2026-09-03T07:56:42.403Z</time>
      </trkpt>
      <trkpt lat="49.5089" lon="-1.43939">
        <ele>59.2</ele>
        <time>2026-09-03T07:56:43.535Z</time>
      </trkpt>
      <trkpt lat="49.50888" lon="-1.43943">
        <ele>59.1</ele>
        <time>2026-09-03T07:56:45.540Z</time>
      </trkpt>
      <trkpt lat="49.50886" lon="-1.43947">
        <ele>59</ele>
        <time>2026-09-03T07:56:47.535Z</time>
      </trkpt>
      <trkpt lat="49.50885" lon="-1.43948">
        <ele>59</ele>
        <time>2026-09-03T07:56:48.538Z</time>
      </trkpt>
      <trkpt lat="49.50884" lon="-1.4395">
        <ele>58.9</ele>
        <time>2026-09-03T07:56:49.539Z</time>
      </trkpt>
      <trkpt lat="49.50882" lon="-1.43953">
        <ele>58.9</ele>
        <time>2026-09-03T07:56:51.530Z</time>
      </trkpt>
      <trkpt lat="49.5088" lon="-1.43954">
        <ele>58.9</ele>
        <time>2026-09-03T07:56:52.532Z</time>
      </trkpt>
      <trkpt lat="49.50877" lon="-1.43954">
        <ele>58.9</ele>
        <time>2026-09-03T07:56:54.501Z</time>
      </trkpt>
      <trkpt lat="49.50876" lon="-1.43956">
        <ele>58.9</ele>
        <time>2026-09-03T07:56:55.503Z</time>
      </trkpt>
      <trkpt lat="49.50874" lon="-1.43959">
        <ele>58.7</ele>
        <time>2026-09-03T07:56:57.465Z</time>
      </trkpt>
      <trkpt lat="49.50873" lon="-1.43961">
        <ele>58.6</ele>
        <time>2026-09-03T07:56:58.477Z</time>
      </trkpt>
      <trkpt lat="49.50872" lon="-1.43963">
        <ele>58.5</ele>
        <time>2026-09-03T07:56:59.498Z</time>
      </trkpt>
      <trkpt lat="49.50872" lon="-1.43965">
        <ele>58.4</ele>
        <time>2026-09-03T07:57:00.500Z</time>
      </trkpt>
      <trkpt lat="49.50871" lon="-1.43966">
        <ele>58.4</ele>
        <time>2026-09-03T07:57:01.541Z</time>
      </trkpt>
      <trkpt lat="49.5087" lon="-1.43968">
        <ele>58.3</ele>
        <time>2026-09-03T07:57:02.563Z</time>
      </trkpt>
      <trkpt lat="49.50868" lon="-1.4397">
        <ele>58.1</ele>
        <time>2026-09-03T07:57:04.526Z</time>
      </trkpt>
      <trkpt lat="49.50867" lon="-1.43971">
        <ele>58.1</ele>
        <time>2026-09-03T07:57:06.519Z</time>
      </trkpt>
      <trkpt lat="49.50865" lon="-1.43974">
        <ele>57.9</ele>
        <time>2026-09-03T07:57:08.541Z</time>
      </trkpt>
      <trkpt lat="49.50865" lon="-1.43975">
        <ele>57.9</ele>
        <time>2026-09-03T07:57:09.543Z</time>
      </trkpt>
      <trkpt lat="49.50864" lon="-1.43977">
        <ele>57.8</ele>
        <time>2026-09-03T07:57:10.564Z</time>
      </trkpt>
      <trkpt lat="49.50863" lon="-1.43979">
        <ele>57.8</ele>
        <time>2026-09-03T07:57:11.585Z</time>
      </trkpt>
      <trkpt lat="49.50861" lon="-1.43981">
        <ele>57.7</ele>
        <time>2026-09-03T07:57:13.539Z</time>
      </trkpt>
      <trkpt lat="49.5086" lon="-1.43983">
        <ele>57.6</ele>
        <time>2026-09-03T07:57:14.540Z</time>
      </trkpt>
      <trkpt lat="49.50859" lon="-1.43985">
        <ele>57.6</ele>
        <time>2026-09-03T07:57:15.541Z</time>
      </trkpt>
      <trkpt lat="49.50858" lon="-1.43986">
        <ele>57.6</ele>
        <time>2026-09-03T07:57:16.543Z</time>
      </trkpt>
      <trkpt lat="49.50857" lon="-1.43987">
        <ele>57.5</ele>
        <time>2026-09-03T07:57:17.544Z</time>
      </trkpt>
      <trkpt lat="49.50856" lon="-1.43989">
        <ele>57.5</ele>
        <time>2026-09-03T07:57:18.546Z</time>
      </trkpt>
      <trkpt lat="49.50855" lon="-1.4399">
        <ele>57.4</ele>
        <time>2026-09-03T07:57:19.547Z</time>
      </trkpt>
      <trkpt lat="49.50853" lon="-1.43992">
        <ele>57.4</ele>
        <time>2026-09-03T07:57:21.480Z</time>
      </trkpt>
      <trkpt lat="49.50852" lon="-1.43994">
        <ele>57.3</ele>
        <time>2026-09-03T07:57:22.521Z</time>
      </trkpt>
      <trkpt lat="49.50851" lon="-1.43995">
        <ele>57.2</ele>
        <time>2026-09-03T07:57:23.543Z</time>
      </trkpt>
      <trkpt lat="49.5085" lon="-1.43997">
        <ele>57.2</ele>
        <time>2026-09-03T07:57:24.554Z</time>
      </trkpt>
      <trkpt lat="49.5085" lon="-1.43998">
        <ele>57.1</ele>
        <time>2026-09-03T07:57:25.556Z</time>
      </trkpt>
      <trkpt lat="49.50848" lon="-1.44001">
        <ele>56.9</ele>
        <time>2026-09-03T07:57:26.557Z</time>
      </trkpt>
      <trkpt lat="49.50848" lon="-1.44001">
        <ele>56.9</ele>
        <time>2026-09-03T07:57:27.558Z</time>
      </trkpt>
      <trkpt lat="49.50847" lon="-1.44003">
        <ele>56.8</ele>
        <time>2026-09-03T07:57:28.560Z</time>
      </trkpt>
      <trkpt lat="49.50846" lon="-1.44005">
        <ele>56.7</ele>
        <time>2026-09-03T07:57:29.560Z</time>
      </trkpt>
      <trkpt lat="49.50845" lon="-1.44006">
        <ele>56.7</ele>
        <time>2026-09-03T07:57:30.563Z</time>
      </trkpt>
      <trkpt lat="49.50844" lon="-1.44008">
        <ele>56.6</ele>
        <time>2026-09-03T07:57:31.564Z</time>
      </trkpt>
      <trkpt lat="49.50841" lon="-1.44011">
        <ele>56.5</ele>
        <time>2026-09-03T07:57:33.533Z</time>
      </trkpt>
      <trkpt lat="49.50839" lon="-1.44014">
        <ele>56.4</ele>
        <time>2026-09-03T07:57:34.568Z</time>
      </trkpt>
      <trkpt lat="49.50838" lon="-1.44015">
        <ele>56.4</ele>
        <time>2026-09-03T07:57:35.570Z</time>
      </trkpt>
      <trkpt lat="49.50837" lon="-1.44016">
        <ele>56.3</ele>
        <time>2026-09-03T07:57:36.571Z</time>
      </trkpt>
      <trkpt lat="49.50836" lon="-1.44018">
        <ele>56.3</ele>
        <time>2026-09-03T07:57:37.573Z</time>
      </trkpt>
      <trkpt lat="49.50834" lon="-1.44021">
        <ele>56.2</ele>
        <time>2026-09-03T07:57:39.505Z</time>
      </trkpt>
      <trkpt lat="49.50833" lon="-1.44022">
        <ele>56.2</ele>
        <time>2026-09-03T07:57:40.547Z</time>
      </trkpt>
      <trkpt lat="49.50832" lon="-1.44024">
        <ele>56.1</ele>
        <time>2026-09-03T07:57:41.578Z</time>
      </trkpt>
      <trkpt lat="49.50831" lon="-1.44028">
        <ele>56</ele>
        <time>2026-09-03T07:57:43.533Z</time>
      </trkpt>
      <trkpt lat="49.5083" lon="-1.4403">
        <ele>56</ele>
        <time>2026-09-03T07:57:44.537Z</time>
      </trkpt>
      <trkpt lat="49.50828" lon="-1.44033">
        <ele>56</ele>
        <time>2026-09-03T07:57:46.505Z</time>
      </trkpt>
      <trkpt lat="49.50828" lon="-1.44035">
        <ele>56</ele>
        <time>2026-09-03T07:57:47.506Z</time>
      </trkpt>
      <trkpt lat="49.50828" lon="-1.44037">
        <ele>56.1</ele>
        <time>2026-09-03T07:57:48.535Z</time>
      </trkpt>
      <trkpt lat="49.50828" lon="-1.44039">
        <ele>56.1</ele>
        <time>2026-09-03T07:57:49.535Z</time>
      </trkpt>
      <trkpt lat="49.50828" lon="-1.44043">
        <ele>56.1</ele>
        <time>2026-09-03T07:57:51.539Z</time>
      </trkpt>
      <trkpt lat="49.50827" lon="-1.44045">
        <ele>56.1</ele>
        <time>2026-09-03T07:57:52.540Z</time>
      </trkpt>
      <trkpt lat="49.50827" lon="-1.44047">
        <ele>56.2</ele>
        <time>2026-09-03T07:57:53.540Z</time>
      </trkpt>
      <trkpt lat="49.50826" lon="-1.4405">
        <ele>56.2</ele>
        <time>2026-09-03T07:57:55.534Z</time>
      </trkpt>
      <trkpt lat="49.50826" lon="-1.44052">
        <ele>56.2</ele>
        <time>2026-09-03T07:57:56.535Z</time>
      </trkpt>
      <trkpt lat="49.50825" lon="-1.44053">
        <ele>56.3</ele>
        <time>2026-09-03T07:57:57.535Z</time>
      </trkpt>
      <trkpt lat="49.50824" lon="-1.44057">
        <ele>56.3</ele>
        <time>2026-09-03T07:57:59.538Z</time>
      </trkpt>
      <trkpt lat="49.50823" lon="-1.44059">
        <ele>56.4</ele>
        <time>2026-09-03T07:58:01.539Z</time>
      </trkpt>
      <trkpt lat="49.50822" lon="-1.44062">
        <ele>56.4</ele>
        <time>2026-09-03T07:58:03.539Z</time>
      </trkpt>
      <trkpt lat="49.50821" lon="-1.44065">
        <ele>56.4</ele>
        <time>2026-09-03T07:58:05.531Z</time>
      </trkpt>
      <trkpt lat="49.5082" lon="-1.44066">
        <ele>56.5</ele>
        <time>2026-09-03T07:58:06.533Z</time>
      </trkpt>
      <trkpt lat="49.50819" lon="-1.44068">
        <ele>56.5</ele>
        <time>2026-09-03T07:58:07.542Z</time>
      </trkpt>
      <trkpt lat="49.50818" lon="-1.44071">
        <ele>56.6</ele>
        <time>2026-09-03T07:58:09.541Z</time>
      </trkpt>
      <trkpt lat="49.50817" lon="-1.44074">
        <ele>56.6</ele>
        <time>2026-09-03T07:58:11.480Z</time>
      </trkpt>
      <trkpt lat="49.50816" lon="-1.44076">
        <ele>56.6</ele>
        <time>2026-09-03T07:58:12.541Z</time>
      </trkpt>
      <trkpt lat="49.50815" lon="-1.44079">
        <ele>56.7</ele>
        <time>2026-09-03T07:58:14.532Z</time>
      </trkpt>
      <trkpt lat="49.50814" lon="-1.44082">
        <ele>56.7</ele>
        <time>2026-09-03T07:58:16.417Z</time>
      </trkpt>
      <trkpt lat="49.50813" lon="-1.44083">
        <ele>56.7</ele>
        <time>2026-09-03T07:58:17.540Z</time>
      </trkpt>
      <trkpt lat="49.50812" lon="-1.44086">
        <ele>56.8</ele>
        <time>2026-09-03T07:58:19.534Z</time>
      </trkpt>
      <trkpt lat="49.50811" lon="-1.44087">
        <ele>56.9</ele>
        <time>2026-09-03T07:58:20.534Z</time>
      </trkpt>
      <trkpt lat="49.5081" lon="-1.4409">
        <ele>57</ele>
        <time>2026-09-03T07:58:22.535Z</time>
      </trkpt>
      <trkpt lat="49.50809" lon="-1.44092">
        <ele>57.1</ele>
        <time>2026-09-03T07:58:23.539Z</time>
      </trkpt>
      <trkpt lat="49.50809" lon="-1.44093">
        <ele>57.2</ele>
        <time>2026-09-03T07:58:24.539Z</time>
      </trkpt>
      <trkpt lat="49.50807" lon="-1.44096">
        <ele>57.4</ele>
        <time>2026-09-03T07:58:26.541Z</time>
      </trkpt>
      <trkpt lat="49.50806" lon="-1.44098">
        <ele>57.5</ele>
        <time>2026-09-03T07:58:27.542Z</time>
      </trkpt>
      <trkpt lat="49.50805" lon="-1.44099">
        <ele>57.6</ele>
        <time>2026-09-03T07:58:28.544Z</time>
      </trkpt>
      <trkpt lat="49.50804" lon="-1.44102">
        <ele>57.7</ele>
        <time>2026-09-03T07:58:30.546Z</time>
      </trkpt>
      <trkpt lat="49.50802" lon="-1.44105">
        <ele>57.8</ele>
        <time>2026-09-03T07:58:32.549Z</time>
      </trkpt>
      <trkpt lat="49.50801" lon="-1.44106">
        <ele>57.8</ele>
        <time>2026-09-03T07:58:33.551Z</time>
      </trkpt>
      <trkpt lat="49.508" lon="-1.44107">
        <ele>57.9</ele>
        <time>2026-09-03T07:58:34.552Z</time>
      </trkpt>
      <trkpt lat="49.50799" lon="-1.44109">
        <ele>57.9</ele>
        <time>2026-09-03T07:58:35.553Z</time>
      </trkpt>
      <trkpt lat="49.50798" lon="-1.4411">
        <ele>58</ele>
        <time>2026-09-03T07:58:36.555Z</time>
      </trkpt>
      <trkpt lat="49.50797" lon="-1.44111">
        <ele>58</ele>
        <time>2026-09-03T07:58:37.556Z</time>
      </trkpt>
      <trkpt lat="49.50796" lon="-1.44113">
        <ele>58</ele>
        <time>2026-09-03T07:58:38.558Z</time>
      </trkpt>
      <trkpt lat="49.50795" lon="-1.44114">
        <ele>58.1</ele>
        <time>2026-09-03T07:58:39.559Z</time>
      </trkpt>
      <trkpt lat="49.50794" lon="-1.44117">
        <ele>58.2</ele>
        <time>2026-09-03T07:58:41.582Z</time>
      </trkpt>
      <trkpt lat="49.50793" lon="-1.4412">
        <ele>58.3</ele>
        <time>2026-09-03T07:58:43.531Z</time>
      </trkpt>
      <trkpt lat="49.50792" lon="-1.44122">
        <ele>58.4</ele>
        <time>2026-09-03T07:58:45.497Z</time>
      </trkpt>
      <trkpt lat="49.50791" lon="-1.44124">
        <ele>58.5</ele>
        <time>2026-09-03T07:58:46.579Z</time>
      </trkpt>
      <trkpt lat="49.50789" lon="-1.44128">
        <ele>58.7</ele>
        <time>2026-09-03T07:58:48.538Z</time>
      </trkpt>
      <trkpt lat="49.50789" lon="-1.4413">
        <ele>58.8</ele>
        <time>2026-09-03T07:58:49.573Z</time>
      </trkpt>
      <trkpt lat="49.50787" lon="-1.44132">
        <ele>59</ele>
        <time>2026-09-03T07:58:51.538Z</time>
      </trkpt>
      <trkpt lat="49.50786" lon="-1.44134">
        <ele>59.2</ele>
        <time>2026-09-03T07:58:52.538Z</time>
      </trkpt>
      <trkpt lat="49.50785" lon="-1.44138">
        <ele>59.4</ele>
        <time>2026-09-03T07:58:54.534Z</time>
      </trkpt>
      <trkpt lat="49.50784" lon="-1.44143">
        <ele>59.7</ele>
        <time>2026-09-03T07:58:56.482Z</time>
      </trkpt>
      <trkpt lat="49.50783" lon="-1.44144">
        <ele>59.8</ele>
        <time>2026-09-03T07:58:57.584Z</time>
      </trkpt>
      <trkpt lat="49.50782" lon="-1.44147">
        <ele>60</ele>
        <time>2026-09-03T07:58:59.534Z</time>
      </trkpt>
      <trkpt lat="49.5078" lon="-1.44151">
        <ele>60.3</ele>
        <time>2026-09-03T07:59:01.478Z</time>
      </trkpt>
      <trkpt lat="49.50779" lon="-1.44152">
        <ele>60.4</ele>
        <time>2026-09-03T07:59:02.521Z</time>
      </trkpt>
      <trkpt lat="49.50778" lon="-1.44153">
        <ele>60.5</ele>
        <time>2026-09-03T07:59:03.539Z</time>
      </trkpt>
      <trkpt lat="49.50776" lon="-1.44155">
        <ele>60.6</ele>
        <time>2026-09-03T07:59:05.538Z</time>
      </trkpt>
      <trkpt lat="49.50774" lon="-1.44157">
        <ele>60.8</ele>
        <time>2026-09-03T07:59:07.534Z</time>
      </trkpt>
      <trkpt lat="49.50772" lon="-1.44159">
        <ele>60.9</ele>
        <time>2026-09-03T07:59:09.501Z</time>
      </trkpt>
      <trkpt lat="49.50771" lon="-1.4416">
        <ele>61</ele>
        <time>2026-09-03T07:59:10.539Z</time>
      </trkpt>
      <trkpt lat="49.50769" lon="-1.44162">
        <ele>61.1</ele>
        <time>2026-09-03T07:59:12.537Z</time>
      </trkpt>
      <trkpt lat="49.50768" lon="-1.44164">
        <ele>61.3</ele>
        <time>2026-09-03T07:59:13.537Z</time>
      </trkpt>
      <trkpt lat="49.50766" lon="-1.44166">
        <ele>61.4</ele>
        <time>2026-09-03T07:59:15.535Z</time>
      </trkpt>
      <trkpt lat="49.50764" lon="-1.44168">
        <ele>61.5</ele>
        <time>2026-09-03T07:59:17.534Z</time>
      </trkpt>
      <trkpt lat="49.50763" lon="-1.44169">
        <ele>61.5</ele>
        <time>2026-09-03T07:59:18.538Z</time>
      </trkpt>
      <trkpt lat="49.50761" lon="-1.44171">
        <ele>61.6</ele>
        <time>2026-09-03T07:59:20.539Z</time>
      </trkpt>
      <trkpt lat="49.50759" lon="-1.44173">
        <ele>61.7</ele>
        <time>2026-09-03T07:59:22.535Z</time>
      </trkpt>
      <trkpt lat="49.50758" lon="-1.44174">
        <ele>61.7</ele>
        <time>2026-09-03T07:59:23.535Z</time>
      </trkpt>
      <trkpt lat="49.50757" lon="-1.44175">
        <ele>61.7</ele>
        <time>2026-09-03T07:59:25.534Z</time>
      </trkpt>
      <trkpt lat="49.50756" lon="-1.44176">
        <ele>61.8</ele>
        <time>2026-09-03T07:59:26.540Z</time>
      </trkpt>
      <trkpt lat="49.50754" lon="-1.44178">
        <ele>61.9</ele>
        <time>2026-09-03T07:59:28.535Z</time>
      </trkpt>
      <trkpt lat="49.50753" lon="-1.4418">
        <ele>61.9</ele>
        <time>2026-09-03T07:59:29.538Z</time>
      </trkpt>
      <trkpt lat="49.50752" lon="-1.44182">
        <ele>61.9</ele>
        <time>2026-09-03T07:59:31.534Z</time>
      </trkpt>
      <trkpt lat="49.50751" lon="-1.44184">
        <ele>62</ele>
        <time>2026-09-03T07:59:32.535Z</time>
      </trkpt>
      <trkpt lat="49.50749" lon="-1.44187">
        <ele>62</ele>
        <time>2026-09-03T07:59:34.565Z</time>
      </trkpt>
      <trkpt lat="49.50748" lon="-1.44189">
        <ele>62</ele>
        <time>2026-09-03T07:59:36.538Z</time>
      </trkpt>
      <trkpt lat="49.50747" lon="-1.4419">
        <ele>62</ele>
        <time>2026-09-03T07:59:37.539Z</time>
      </trkpt>
      <trkpt lat="49.50747" lon="-1.44191">
        <ele>62</ele>
        <time>2026-09-03T07:59:38.541Z</time>
      </trkpt>
      <trkpt lat="49.50745" lon="-1.44195">
        <ele>62</ele>
        <time>2026-09-03T07:59:40.544Z</time>
      </trkpt>
      <trkpt lat="49.50744" lon="-1.44196">
        <ele>62</ele>
        <time>2026-09-03T07:59:41.545Z</time>
      </trkpt>
      <trkpt lat="49.50743" lon="-1.44199">
        <ele>62</ele>
        <time>2026-09-03T07:59:43.548Z</time>
      </trkpt>
      <trkpt lat="49.50742" lon="-1.442">
        <ele>62.1</ele>
        <time>2026-09-03T07:59:44.549Z</time>
      </trkpt>
      <trkpt lat="49.50742" lon="-1.44202">
        <ele>62.1</ele>
        <time>2026-09-03T07:59:45.550Z</time>
      </trkpt>
      <trkpt lat="49.50741" lon="-1.44203">
        <ele>62.1</ele>
        <time>2026-09-03T07:59:46.552Z</time>
      </trkpt>
      <trkpt lat="49.5074" lon="-1.44205">
        <ele>62.1</ele>
        <time>2026-09-03T07:59:47.553Z</time>
      </trkpt>
      <trkpt lat="49.5074" lon="-1.44206">
        <ele>62.1</ele>
        <time>2026-09-03T07:59:48.555Z</time>
      </trkpt>
      <trkpt lat="49.50738" lon="-1.4421">
        <ele>62.2</ele>
        <time>2026-09-03T07:59:50.557Z</time>
      </trkpt>
      <trkpt lat="49.50737" lon="-1.4421">
        <ele>62.3</ele>
        <time>2026-09-03T07:59:51.559Z</time>
      </trkpt>
      <trkpt lat="49.50736" lon="-1.44213">
        <ele>62.3</ele>
        <time>2026-09-03T07:59:53.562Z</time>
      </trkpt>
      <trkpt lat="49.50735" lon="-1.44215">
        <ele>62.4</ele>
        <time>2026-09-03T07:59:54.563Z</time>
      </trkpt>
      <trkpt lat="49.50734" lon="-1.44216">
        <ele>62.4</ele>
        <time>2026-09-03T07:59:55.564Z</time>
      </trkpt>
      <trkpt lat="49.50734" lon="-1.44218">
        <ele>62.5</ele>
        <time>2026-09-03T07:59:56.566Z</time>
      </trkpt>
      <trkpt lat="49.50733" lon="-1.4422">
        <ele>62.6</ele>
        <time>2026-09-03T07:59:57.567Z</time>
      </trkpt>
      <trkpt lat="49.50732" lon="-1.44223">
        <ele>62.7</ele>
        <time>2026-09-03T07:59:59.520Z</time>
      </trkpt>
      <trkpt lat="49.50731" lon="-1.44225">
        <ele>62.8</ele>
        <time>2026-09-03T08:00:00.571Z</time>
      </trkpt>
      <trkpt lat="49.5073" lon="-1.44227">
        <ele>62.8</ele>
        <time>2026-09-03T08:00:01.573Z</time>
      </trkpt>
      <trkpt lat="49.50729" lon="-1.4423">
        <ele>63</ele>
        <time>2026-09-03T08:00:03.525Z</time>
      </trkpt>
      <trkpt lat="49.50728" lon="-1.44231">
        <ele>63</ele>
        <time>2026-09-03T08:00:04.533Z</time>
      </trkpt>
      <trkpt lat="49.50728" lon="-1.44232">
        <ele>63.1</ele>
        <time>2026-09-03T08:00:05.535Z</time>
      </trkpt>
      <trkpt lat="49.50727" lon="-1.44234">
        <ele>63.2</ele>
        <time>2026-09-03T08:00:06.536Z</time>
      </trkpt>
      <trkpt lat="49.50727" lon="-1.44236">
        <ele>63.2</ele>
        <time>2026-09-03T08:00:07.538Z</time>
      </trkpt>
      <trkpt lat="49.50725" lon="-1.44238">
        <ele>63.4</ele>
        <time>2026-09-03T08:00:09.534Z</time>
      </trkpt>
      <trkpt lat="49.50725" lon="-1.4424">
        <ele>63.5</ele>
        <time>2026-09-03T08:00:10.540Z</time>
      </trkpt>
      <trkpt lat="49.50724" lon="-1.44241">
        <ele>63.6</ele>
        <time>2026-09-03T08:00:11.546Z</time>
      </trkpt>
      <trkpt lat="49.50724" lon="-1.44244">
        <ele>63.7</ele>
        <time>2026-09-03T08:00:13.536Z</time>
      </trkpt>
      <trkpt lat="49.50723" lon="-1.44248">
        <ele>63.9</ele>
        <time>2026-09-03T08:00:15.540Z</time>
      </trkpt>
      <trkpt lat="49.50722" lon="-1.44251">
        <ele>64</ele>
        <time>2026-09-03T08:00:17.538Z</time>
      </trkpt>
      <trkpt lat="49.50721" lon="-1.44252">
        <ele>64.1</ele>
        <time>2026-09-03T08:00:18.538Z</time>
      </trkpt>
      <trkpt lat="49.5072" lon="-1.44255">
        <ele>64.2</ele>
        <time>2026-09-03T08:00:20.536Z</time>
      </trkpt>
      <trkpt lat="49.50719" lon="-1.44258">
        <ele>64.4</ele>
        <time>2026-09-03T08:00:22.533Z</time>
      </trkpt>
      <trkpt lat="49.50718" lon="-1.44261">
        <ele>64.5</ele>
        <time>2026-09-03T08:00:24.539Z</time>
      </trkpt>
      <trkpt lat="49.50717" lon="-1.44263">
        <ele>64.6</ele>
        <time>2026-09-03T08:00:25.566Z</time>
      </trkpt>
      <trkpt lat="49.50717" lon="-1.44265">
        <ele>64.6</ele>
        <time>2026-09-03T08:00:27.534Z</time>
      </trkpt>
      <trkpt lat="49.50716" lon="-1.44266">
        <ele>64.7</ele>
        <time>2026-09-03T08:00:28.534Z</time>
      </trkpt>
      <trkpt lat="49.50716" lon="-1.44267">
        <ele>64.7</ele>
        <time>2026-09-03T08:00:29.571Z</time>
      </trkpt>
      <trkpt lat="49.50714" lon="-1.44271">
        <ele>64.8</ele>
        <time>2026-09-03T08:00:31.574Z</time>
      </trkpt>
      <trkpt lat="49.50713" lon="-1.44274">
        <ele>64.9</ele>
        <time>2026-09-03T08:00:33.577Z</time>
      </trkpt>
      <trkpt lat="49.50712" lon="-1.44277">
        <ele>65</ele>
        <time>2026-09-03T08:00:35.534Z</time>
      </trkpt>
      <trkpt lat="49.50711" lon="-1.4428">
        <ele>65</ele>
        <time>2026-09-03T08:00:37.533Z</time>
      </trkpt>
      <trkpt lat="49.5071" lon="-1.44282">
        <ele>65.1</ele>
        <time>2026-09-03T08:00:38.534Z</time>
      </trkpt>
      <trkpt lat="49.5071" lon="-1.44284">
        <ele>65.1</ele>
        <time>2026-09-03T08:00:39.537Z</time>
      </trkpt>
      <trkpt lat="49.50709" lon="-1.44285">
        <ele>65.1</ele>
        <time>2026-09-03T08:00:40.538Z</time>
      </trkpt>
      <trkpt lat="49.50709" lon="-1.44287">
        <ele>65.2</ele>
        <time>2026-09-03T08:00:41.538Z</time>
      </trkpt>
      <trkpt lat="49.50708" lon="-1.44289">
        <ele>65.2</ele>
        <time>2026-09-03T08:00:42.544Z</time>
      </trkpt>
      <trkpt lat="49.50707" lon="-1.44292">
        <ele>65.3</ele>
        <time>2026-09-03T08:00:44.442Z</time>
      </trkpt>
      <trkpt lat="49.50706" lon="-1.44294">
        <ele>65.3</ele>
        <time>2026-09-03T08:00:45.544Z</time>
      </trkpt>
      <trkpt lat="49.50705" lon="-1.44297">
        <ele>65.4</ele>
        <time>2026-09-03T08:00:47.532Z</time>
      </trkpt>
      <trkpt lat="49.50703" lon="-1.443">
        <ele>65.6</ele>
        <time>2026-09-03T08:00:49.543Z</time>
      </trkpt>
      <trkpt lat="49.50702" lon="-1.44302">
        <ele>65.6</ele>
        <time>2026-09-03T08:00:51.540Z</time>
      </trkpt>
      <trkpt lat="49.50701" lon="-1.44305">
        <ele>65.7</ele>
        <time>2026-09-03T08:00:53.535Z</time>
      </trkpt>
      <trkpt lat="49.507" lon="-1.44307">
        <ele>65.8</ele>
        <time>2026-09-03T08:00:54.566Z</time>
      </trkpt>
      <trkpt lat="49.50698" lon="-1.4431">
        <ele>65.9</ele>
        <time>2026-09-03T08:00:56.541Z</time>
      </trkpt>
      <trkpt lat="49.50698" lon="-1.44311">
        <ele>65.8</ele>
        <time>2026-09-03T08:00:57.560Z</time>
      </trkpt>
      <trkpt lat="49.50697" lon="-1.44314">
        <ele>65.9</ele>
        <time>2026-09-03T08:00:59.539Z</time>
      </trkpt>
      <trkpt lat="49.50696" lon="-1.44315">
        <ele>65.9</ele>
        <time>2026-09-03T08:01:00.540Z</time>
      </trkpt>
      <trkpt lat="49.50695" lon="-1.44318">
        <ele>66</ele>
        <time>2026-09-03T08:01:02.535Z</time>
      </trkpt>
      <trkpt lat="49.50693" lon="-1.44322">
        <ele>66</ele>
        <time>2026-09-03T08:01:04.560Z</time>
      </trkpt>
      <trkpt lat="49.50692" lon="-1.44325">
        <ele>66</ele>
        <time>2026-09-03T08:01:06.544Z</time>
      </trkpt>
      <trkpt lat="49.50691" lon="-1.44328">
        <ele>66</ele>
        <time>2026-09-03T08:01:08.445Z</time>
      </trkpt>
      <trkpt lat="49.5069" lon="-1.44329">
        <ele>66</ele>
        <time>2026-09-03T08:01:09.557Z</time>
      </trkpt>
      <trkpt lat="49.50689" lon="-1.44331">
        <ele>66</ele>
        <time>2026-09-03T08:01:10.558Z</time>
      </trkpt>
      <trkpt lat="49.50687" lon="-1.44335">
        <ele>66</ele>
        <time>2026-09-03T08:01:12.555Z</time>
      </trkpt>
      <trkpt lat="49.50686" lon="-1.44337">
        <ele>65.9</ele>
        <time>2026-09-03T08:01:14.541Z</time>
      </trkpt>
      <trkpt lat="49.50685" lon="-1.44339">
        <ele>65.9</ele>
        <time>2026-09-03T08:01:15.575Z</time>
      </trkpt>
      <trkpt lat="49.50684" lon="-1.4434">
        <ele>65.9</ele>
        <time>2026-09-03T08:01:16.577Z</time>
      </trkpt>
      <trkpt lat="49.50681" lon="-1.44345">
        <ele>65.8</ele>
        <time>2026-09-03T08:01:18.499Z</time>
      </trkpt>
      <trkpt lat="49.50681" lon="-1.44347">
        <ele>65.7</ele>
        <time>2026-09-03T08:01:19.536Z</time>
      </trkpt>
      <trkpt lat="49.50682" lon="-1.44346">
        <ele>65.7</ele>
        <time>2026-09-03T08:01:20.537Z</time>
      </trkpt>
      <trkpt lat="49.50682" lon="-1.44348">
        <ele>65.7</ele>
        <time>2026-09-03T08:01:22.505Z</time>
      </trkpt>
      <trkpt lat="49.50682" lon="-1.44349">
        <ele>65.7</ele>
        <time>2026-09-03T08:01:23.537Z</time>
      </trkpt>
      <trkpt lat="49.50681" lon="-1.44351">
        <ele>65.7</ele>
        <time>2026-09-03T08:01:24.537Z</time>
      </trkpt>
      <trkpt lat="49.50681" lon="-1.44354">
        <ele>65.6</ele>
        <time>2026-09-03T08:01:26.534Z</time>
      </trkpt>
      <trkpt lat="49.5068" lon="-1.44356">
        <ele>65.6</ele>
        <time>2026-09-03T08:01:27.534Z</time>
      </trkpt>
      <trkpt lat="49.50678" lon="-1.44359">
        <ele>65.6</ele>
        <time>2026-09-03T08:01:29.541Z</time>
      </trkpt>
      <trkpt lat="49.50677" lon="-1.44362">
        <ele>65.6</ele>
        <time>2026-09-03T08:01:31.457Z</time>
      </trkpt>
      <trkpt lat="49.50677" lon="-1.44364">
        <ele>65.5</ele>
        <time>2026-09-03T08:01:32.539Z</time>
      </trkpt>
      <trkpt lat="49.50675" lon="-1.44366">
        <ele>65.5</ele>
        <time>2026-09-03T08:01:34.531Z</time>
      </trkpt>
      <trkpt lat="49.50674" lon="-1.44368">
        <ele>65.4</ele>
        <time>2026-09-03T08:01:35.534Z</time>
      </trkpt>
      <trkpt lat="49.50672" lon="-1.44371">
        <ele>65.4</ele>
        <time>2026-09-03T08:01:37.586Z</time>
      </trkpt>
      <trkpt lat="49.50671" lon="-1.44373">
        <ele>65.3</ele>
        <time>2026-09-03T08:01:39.534Z</time>
      </trkpt>
      <trkpt lat="49.5067" lon="-1.44375">
        <ele>65.3</ele>
        <time>2026-09-03T08:01:40.539Z</time>
      </trkpt>
      <trkpt lat="49.5067" lon="-1.44377">
        <ele>65.2</ele>
        <time>2026-09-03T08:01:41.539Z</time>
      </trkpt>
      <trkpt lat="49.50669" lon="-1.4438">
        <ele>65.2</ele>
        <time>2026-09-03T08:01:43.534Z</time>
      </trkpt>
      <trkpt lat="49.50668" lon="-1.44382">
        <ele>65.2</ele>
        <time>2026-09-03T08:01:44.535Z</time>
      </trkpt>
      <trkpt lat="49.50667" lon="-1.44385">
        <ele>65.1</ele>
        <time>2026-09-03T08:01:46.518Z</time>
      </trkpt>
      <trkpt lat="49.50666" lon="-1.44387">
        <ele>65</ele>
        <time>2026-09-03T08:01:47.540Z</time>
      </trkpt>
      <trkpt lat="49.50665" lon="-1.4439">
        <ele>64.9</ele>
        <time>2026-09-03T08:01:49.534Z</time>
      </trkpt>
      <trkpt lat="49.50663" lon="-1.44394">
        <ele>64.7</ele>
        <time>2026-09-03T08:01:51.505Z</time>
      </trkpt>
      <trkpt lat="49.50663" lon="-1.44396">
        <ele>64.6</ele>
        <time>2026-09-03T08:01:52.566Z</time>
      </trkpt>
      <trkpt lat="49.50661" lon="-1.444">
        <ele>64.4</ele>
        <time>2026-09-03T08:01:54.536Z</time>
      </trkpt>
      <trkpt lat="49.5066" lon="-1.44401">
        <ele>64.3</ele>
        <time>2026-09-03T08:01:55.548Z</time>
      </trkpt>
      <trkpt lat="49.50659" lon="-1.44403">
        <ele>64.2</ele>
        <time>2026-09-03T08:01:56.552Z</time>
      </trkpt>
      <trkpt lat="49.50658" lon="-1.44407">
        <ele>64</ele>
        <time>2026-09-03T08:01:58.535Z</time>
      </trkpt>
      <trkpt lat="49.50657" lon="-1.44408">
        <ele>64</ele>
        <time>2026-09-03T08:01:59.536Z</time>
      </trkpt>
      <trkpt lat="49.50656" lon="-1.4441">
        <ele>63.9</ele>
        <time>2026-09-03T08:02:00.537Z</time>
      </trkpt>
      <trkpt lat="49.50655" lon="-1.44412">
        <ele>63.7</ele>
        <time>2026-09-03T08:02:01.542Z</time>
      </trkpt>
      <trkpt lat="49.50654" lon="-1.44415">
        <ele>63.6</ele>
        <time>2026-09-03T08:02:03.481Z</time>
      </trkpt>
      <trkpt lat="49.50653" lon="-1.44416">
        <ele>63.5</ele>
        <time>2026-09-03T08:02:04.563Z</time>
      </trkpt>
      <trkpt lat="49.50652" lon="-1.4442">
        <ele>63.4</ele>
        <time>2026-09-03T08:02:06.546Z</time>
      </trkpt>
      <trkpt lat="49.50651" lon="-1.44421">
        <ele>63.3</ele>
        <time>2026-09-03T08:02:07.547Z</time>
      </trkpt>
      <trkpt lat="49.5065" lon="-1.44426">
        <ele>63.1</ele>
        <time>2026-09-03T08:02:09.480Z</time>
      </trkpt>
      <trkpt lat="49.50651" lon="-1.44428">
        <ele>63.1</ele>
        <time>2026-09-03T08:02:10.541Z</time>
      </trkpt>
      <trkpt lat="49.50651" lon="-1.44432">
        <ele>63</ele>
        <time>2026-09-03T08:02:12.504Z</time>
      </trkpt>
      <trkpt lat="49.50651" lon="-1.44434">
        <ele>62.9</ele>
        <time>2026-09-03T08:02:13.555Z</time>
      </trkpt>
      <trkpt lat="49.50652" lon="-1.44436">
        <ele>62.8</ele>
        <time>2026-09-03T08:02:15.529Z</time>
      </trkpt>
      <trkpt lat="49.50651" lon="-1.44438">
        <ele>62.8</ele>
        <time>2026-09-03T08:02:16.529Z</time>
      </trkpt>
      <trkpt lat="49.50651" lon="-1.4444">
        <ele>62.7</ele>
        <time>2026-09-03T08:02:17.561Z</time>
      </trkpt>
      <trkpt lat="49.50646" lon="-1.44441">
        <ele>62.8</ele>
        <time>2026-09-03T08:02:19.536Z</time>
      </trkpt>
      <trkpt lat="49.50643" lon="-1.44439">
        <ele>62.9</ele>
        <time>2026-09-03T08:02:21.567Z</time>
      </trkpt>
      <trkpt lat="49.50641" lon="-1.44437">
        <ele>63</ele>
        <time>2026-09-03T08:02:23.479Z</time>
      </trkpt>
      <trkpt lat="49.50639" lon="-1.44437">
        <ele>63</ele>
        <time>2026-09-03T08:02:24.541Z</time>
      </trkpt>
      <trkpt lat="49.50637" lon="-1.44435">
        <ele>63</ele>
        <time>2026-09-03T08:02:26.574Z</time>
      </trkpt>
      <trkpt lat="49.50636" lon="-1.44434">
        <ele>62.9</ele>
        <time>2026-09-03T08:02:27.575Z</time>
      </trkpt>
      <trkpt lat="49.50634" lon="-1.44434">
        <ele>62.9</ele>
        <time>2026-09-03T08:02:28.577Z</time>
      </trkpt>
      <trkpt lat="49.50632" lon="-1.44434">
        <ele>62.8</ele>
        <time>2026-09-03T08:02:30.539Z</time>
      </trkpt>
      <trkpt lat="49.50629" lon="-1.44433">
        <ele>62.8</ele>
        <time>2026-09-03T08:02:32.532Z</time>
      </trkpt>
      <trkpt lat="49.50628" lon="-1.44433">
        <ele>62.8</ele>
        <time>2026-09-03T08:02:33.534Z</time>
      </trkpt>
      <trkpt lat="49.50626" lon="-1.44432">
        <ele>62.7</ele>
        <time>2026-09-03T08:02:34.552Z</time>
      </trkpt>
      <trkpt lat="49.50625" lon="-1.44431">
        <ele>62.7</ele>
        <time>2026-09-03T08:02:36.518Z</time>
      </trkpt>
      <trkpt lat="49.50624" lon="-1.44431">
        <ele>62.7</ele>
        <time>2026-09-03T08:02:37.536Z</time>
      </trkpt>
      <trkpt lat="49.50623" lon="-1.44429">
        <ele>62.7</ele>
        <time>2026-09-03T08:02:39.534Z</time>
      </trkpt>
      <trkpt lat="49.50622" lon="-1.44426">
        <ele>62.8</ele>
        <time>2026-09-03T08:02:41.535Z</time>
      </trkpt>
      <trkpt lat="49.50621" lon="-1.44423">
        <ele>62.9</ele>
        <time>2026-09-03T08:02:42.536Z</time>
      </trkpt>
      <trkpt lat="49.50621" lon="-1.44422">
        <ele>62.9</ele>
        <time>2026-09-03T08:02:43.536Z</time>
      </trkpt>
      <trkpt lat="49.5062" lon="-1.44419">
        <ele>62.9</ele>
        <time>2026-09-03T08:02:45.538Z</time>
      </trkpt>
      <trkpt lat="49.50619" lon="-1.44418">
        <ele>63</ele>
        <time>2026-09-03T08:02:46.539Z</time>
      </trkpt>
      <trkpt lat="49.50618" lon="-1.44415">
        <ele>63.1</ele>
        <time>2026-09-03T08:02:48.535Z</time>
      </trkpt>
      <trkpt lat="49.50617" lon="-1.44414">
        <ele>63.1</ele>
        <time>2026-09-03T08:02:49.545Z</time>
      </trkpt>
      <trkpt lat="49.50616" lon="-1.44412">
        <ele>63.2</ele>
        <time>2026-09-03T08:02:51.532Z</time>
      </trkpt>
      <trkpt lat="49.50616" lon="-1.4441">
        <ele>63.2</ele>
        <time>2026-09-03T08:02:52.535Z</time>
      </trkpt>
      <trkpt lat="49.50616" lon="-1.44406">
        <ele>63.4</ele>
        <time>2026-09-03T08:02:54.538Z</time>
      </trkpt>
      <trkpt lat="49.50616" lon="-1.44402">
        <ele>63.5</ele>
        <time>2026-09-03T08:02:56.534Z</time>
      </trkpt>
      <trkpt lat="49.50616" lon="-1.44398">
        <ele>63.7</ele>
        <time>2026-09-03T08:02:58.499Z</time>
      </trkpt>
      <trkpt lat="49.50616" lon="-1.44396">
        <ele>63.7</ele>
        <time>2026-09-03T08:02:59.534Z</time>
      </trkpt>
      <trkpt lat="49.50616" lon="-1.44395">
        <ele>63.8</ele>
        <time>2026-09-03T08:03:00.536Z</time>
      </trkpt>
      <trkpt lat="49.50616" lon="-1.44393">
        <ele>63.9</ele>
        <time>2026-09-03T08:03:01.548Z</time>
      </trkpt>
      <trkpt lat="49.50618" lon="-1.44392">
        <ele>63.9</ele>
        <time>2026-09-03T08:03:03.534Z</time>
      </trkpt>
      <trkpt lat="49.50617" lon="-1.44391">
        <ele>63.9</ele>
        <time>2026-09-03T08:03:05.549Z</time>
      </trkpt>
      <trkpt lat="49.50617" lon="-1.4439">
        <ele>64</ele>
        <time>2026-09-03T08:03:06.550Z</time>
      </trkpt>
      <trkpt lat="49.50618" lon="-1.44389">
        <ele>64</ele>
        <time>2026-09-03T08:03:07.551Z</time>
      </trkpt>
      <trkpt lat="49.50618" lon="-1.44391">
        <ele>63.9</ele>
        <time>2026-09-03T08:03:08.553Z</time>
      </trkpt>
      <trkpt lat="49.50619" lon="-1.44396">
        <ele>63.7</ele>
        <time>2026-09-03T08:03:10.563Z</time>
      </trkpt>
      <trkpt lat="49.50619" lon="-1.44396">
        <ele>63.7</ele>
        <time>2026-09-03T08:03:12.532Z</time>
      </trkpt>
      <trkpt lat="49.50619" lon="-1.44396">
        <ele>63.7</ele>
        <time>2026-09-03T08:03:14.529Z</time>
      </trkpt>
      <trkpt lat="49.50619" lon="-1.44396">
        <ele>63.7</ele>
        <time>2026-09-03T08:03:15.534Z</time>
      </trkpt>
      <trkpt lat="49.50619" lon="-1.44396">
        <ele>63.7</ele>
        <time>2026-09-03T08:03:16.572Z</time>
      </trkpt>
      <trkpt lat="49.50618" lon="-1.44395">
        <ele>63.8</ele>
        <time>2026-09-03T08:03:18.477Z</time>
      </trkpt>
      <trkpt lat="49.50618" lon="-1.44394">
        <ele>63.8</ele>
        <time>2026-09-03T08:03:19.534Z</time>
      </trkpt>
      <trkpt lat="49.50619" lon="-1.44393">
        <ele>63.9</ele>
        <time>2026-09-03T08:03:21.534Z</time>
      </trkpt>
      <trkpt lat="49.50621" lon="-1.44386">
        <ele>64</ele>
        <time>2026-09-03T08:03:23.539Z</time>
      </trkpt>
      <trkpt lat="49.50621" lon="-1.44383">
        <ele>64.1</ele>
        <time>2026-09-03T08:03:25.544Z</time>
      </trkpt>
      <trkpt lat="49.50618" lon="-1.44378">
        <ele>64.1</ele>
        <time>2026-09-03T08:03:27.533Z</time>
      </trkpt>
      <trkpt lat="49.50616" lon="-1.44376">
        <ele>64.1</ele>
        <time>2026-09-03T08:03:28.538Z</time>
      </trkpt>
      <trkpt lat="49.50612" lon="-1.4437">
        <ele>64</ele>
        <time>2026-09-03T08:03:30.532Z</time>
      </trkpt>
      <trkpt lat="49.50612" lon="-1.44367">
        <ele>64</ele>
        <time>2026-09-03T08:03:31.535Z</time>
      </trkpt>
      <trkpt lat="49.50611" lon="-1.44362">
        <ele>64</ele>
        <time>2026-09-03T08:03:33.536Z</time>
      </trkpt>
      <trkpt lat="49.50611" lon="-1.44358">
        <ele>64</ele>
        <time>2026-09-03T08:03:35.535Z</time>
      </trkpt>
      <trkpt lat="49.50611" lon="-1.44356">
        <ele>64</ele>
        <time>2026-09-03T08:03:36.539Z</time>
      </trkpt>
      <trkpt lat="49.5061" lon="-1.44354">
        <ele>64</ele>
        <time>2026-09-03T08:03:37.544Z</time>
      </trkpt>
      <trkpt lat="49.5061" lon="-1.44351">
        <ele>64</ele>
        <time>2026-09-03T08:03:38.547Z</time>
      </trkpt>
      <trkpt lat="49.50609" lon="-1.44347">
        <ele>64</ele>
        <time>2026-09-03T08:03:40.534Z</time>
      </trkpt>
      <trkpt lat="49.50609" lon="-1.44343">
        <ele>64</ele>
        <time>2026-09-03T08:03:42.537Z</time>
      </trkpt>
      <trkpt lat="49.50608" lon="-1.44339">
        <ele>64</ele>
        <time>2026-09-03T08:03:44.541Z</time>
      </trkpt>
      <trkpt lat="49.50608" lon="-1.44335">
        <ele>64</ele>
        <time>2026-09-03T08:03:46.540Z</time>
      </trkpt>
      <trkpt lat="49.50608" lon="-1.44333">
        <ele>64</ele>
        <time>2026-09-03T08:03:47.541Z</time>
      </trkpt>
      <trkpt lat="49.50608" lon="-1.44331">
        <ele>64</ele>
        <time>2026-09-03T08:03:48.543Z</time>
      </trkpt>
      <trkpt lat="49.50608" lon="-1.44328">
        <ele>64</ele>
        <time>2026-09-03T08:03:49.544Z</time>
      </trkpt>
      <trkpt lat="49.50608" lon="-1.44326">
        <ele>64</ele>
        <time>2026-09-03T08:03:50.546Z</time>
      </trkpt>
      <trkpt lat="49.50608" lon="-1.44324">
        <ele>64</ele>
        <time>2026-09-03T08:03:51.547Z</time>
      </trkpt>
      <trkpt lat="49.50608" lon="-1.44321">
        <ele>64</ele>
        <time>2026-09-03T08:03:52.548Z</time>
      </trkpt>
      <trkpt lat="49.50608" lon="-1.44319">
        <ele>64</ele>
        <time>2026-09-03T08:03:53.550Z</time>
      </trkpt>
      <trkpt lat="49.50608" lon="-1.44317">
        <ele>64</ele>
        <time>2026-09-03T08:03:54.551Z</time>
      </trkpt>
      <trkpt lat="49.50607" lon="-1.44315">
        <ele>64</ele>
        <time>2026-09-03T08:03:55.553Z</time>
      </trkpt>
      <trkpt lat="49.50607" lon="-1.44313">
        <ele>64</ele>
        <time>2026-09-03T08:03:56.554Z</time>
      </trkpt>
      <trkpt lat="49.50607" lon="-1.44311">
        <ele>64</ele>
        <time>2026-09-03T08:03:57.556Z</time>
      </trkpt>
      <trkpt lat="49.50607" lon="-1.4431">
        <ele>64</ele>
        <time>2026-09-03T08:03:58.557Z</time>
      </trkpt>
      <trkpt lat="49.50607" lon="-1.44308">
        <ele>64</ele>
        <time>2026-09-03T08:03:59.559Z</time>
      </trkpt>
      <trkpt lat="49.50607" lon="-1.44306">
        <ele>64</ele>
        <time>2026-09-03T08:04:00.560Z</time>
      </trkpt>
      <trkpt lat="49.50607" lon="-1.44305">
        <ele>64</ele>
        <time>2026-09-03T08:04:01.562Z</time>
      </trkpt>
      <trkpt lat="49.50607" lon="-1.44304">
        <ele>64</ele>
        <time>2026-09-03T08:04:02.563Z</time>
      </trkpt>
      <trkpt lat="49.50607" lon="-1.44302">
        <ele>64</ele>
        <time>2026-09-03T08:04:03.564Z</time>
      </trkpt>
      <trkpt lat="49.50608" lon="-1.44299">
        <ele>64</ele>
        <time>2026-09-03T08:04:04.566Z</time>
      </trkpt>
      <trkpt lat="49.50608" lon="-1.44297">
        <ele>64</ele>
        <time>2026-09-03T08:04:05.567Z</time>
      </trkpt>
      <trkpt lat="49.50608" lon="-1.44293">
        <ele>64</ele>
        <time>2026-09-03T08:04:07.500Z</time>
      </trkpt>
      <trkpt lat="49.50608" lon="-1.4429">
        <ele>64</ele>
        <time>2026-09-03T08:04:08.522Z</time>
      </trkpt>
      <trkpt lat="49.50608" lon="-1.44288">
        <ele>64</ele>
        <time>2026-09-03T08:04:09.583Z</time>
      </trkpt>
      <trkpt lat="49.50608" lon="-1.44285">
        <ele>64</ele>
        <time>2026-09-03T08:04:11.535Z</time>
      </trkpt>
      <trkpt lat="49.50608" lon="-1.44283">
        <ele>64</ele>
        <time>2026-09-03T08:04:12.539Z</time>
      </trkpt>
      <trkpt lat="49.50607" lon="-1.44279">
        <ele>64</ele>
        <time>2026-09-03T08:04:14.500Z</time>
      </trkpt>
      <trkpt lat="49.50606" lon="-1.44277">
        <ele>64</ele>
        <time>2026-09-03T08:04:15.562Z</time>
      </trkpt>
      <trkpt lat="49.50605" lon="-1.44274">
        <ele>63.9</ele>
        <time>2026-09-03T08:04:17.538Z</time>
      </trkpt>
      <trkpt lat="49.50604" lon="-1.44272">
        <ele>63.8</ele>
        <time>2026-09-03T08:04:18.541Z</time>
      </trkpt>
      <trkpt lat="49.50603" lon="-1.4427">
        <ele>63.8</ele>
        <time>2026-09-03T08:04:19.587Z</time>
      </trkpt>
      <trkpt lat="49.50601" lon="-1.44267">
        <ele>63.8</ele>
        <time>2026-09-03T08:04:21.541Z</time>
      </trkpt>
      <trkpt lat="49.506" lon="-1.44264">
        <ele>63.7</ele>
        <time>2026-09-03T08:04:23.535Z</time>
      </trkpt>
      <trkpt lat="49.50599" lon="-1.44262">
        <ele>63.7</ele>
        <time>2026-09-03T08:04:24.536Z</time>
      </trkpt>
      <trkpt lat="49.50598" lon="-1.44261">
        <ele>63.7</ele>
        <time>2026-09-03T08:04:25.541Z</time>
      </trkpt>
      <trkpt lat="49.50596" lon="-1.44258">
        <ele>63.7</ele>
        <time>2026-09-03T08:04:27.519Z</time>
      </trkpt>
      <trkpt lat="49.50595" lon="-1.44257">
        <ele>63.7</ele>
        <time>2026-09-03T08:04:28.580Z</time>
      </trkpt>
      <trkpt lat="49.50593" lon="-1.44255">
        <ele>63.7</ele>
        <time>2026-09-03T08:04:30.535Z</time>
      </trkpt>
      <trkpt lat="49.50591" lon="-1.44253">
        <ele>63.8</ele>
        <time>2026-09-03T08:04:32.566Z</time>
      </trkpt>
      <trkpt lat="49.5059" lon="-1.4425">
        <ele>63.8</ele>
        <time>2026-09-03T08:04:34.537Z</time>
      </trkpt>
      <trkpt lat="49.50588" lon="-1.44247">
        <ele>63.8</ele>
        <time>2026-09-03T08:04:36.535Z</time>
      </trkpt>
      <trkpt lat="49.50588" lon="-1.44246">
        <ele>63.7</ele>
        <time>2026-09-03T08:04:37.541Z</time>
      </trkpt>
      <trkpt lat="49.50586" lon="-1.44243">
        <ele>63.7</ele>
        <time>2026-09-03T08:04:39.535Z</time>
      </trkpt>
      <trkpt lat="49.50585" lon="-1.44242">
        <ele>63.7</ele>
        <time>2026-09-03T08:04:40.535Z</time>
      </trkpt>
      <trkpt lat="49.50583" lon="-1.44241">
        <ele>63.7</ele>
        <time>2026-09-03T08:04:41.539Z</time>
      </trkpt>
      <trkpt lat="49.50581" lon="-1.44239">
        <ele>63.6</ele>
        <time>2026-09-03T08:04:43.537Z</time>
      </trkpt>
      <trkpt lat="49.50579" lon="-1.44237">
        <ele>63.5</ele>
        <time>2026-09-03T08:04:45.540Z</time>
      </trkpt>
      <trkpt lat="49.50577" lon="-1.44235">
        <ele>63.5</ele>
        <time>2026-09-03T08:04:47.533Z</time>
      </trkpt>
      <trkpt lat="49.50576" lon="-1.44234">
        <ele>63.4</ele>
        <time>2026-09-03T08:04:48.533Z</time>
      </trkpt>
      <trkpt lat="49.50574" lon="-1.44233">
        <ele>63.4</ele>
        <time>2026-09-03T08:04:49.539Z</time>
      </trkpt>
      <trkpt lat="49.50572" lon="-1.44232">
        <ele>63.4</ele>
        <time>2026-09-03T08:04:51.535Z</time>
      </trkpt>
      <trkpt lat="49.50571" lon="-1.44231">
        <ele>63.3</ele>
        <time>2026-09-03T08:04:52.538Z</time>
      </trkpt>
      <trkpt lat="49.5057" lon="-1.4423">
        <ele>63.3</ele>
        <time>2026-09-03T08:04:53.538Z</time>
      </trkpt>
      <trkpt lat="49.50567" lon="-1.44228">
        <ele>63.2</ele>
        <time>2026-09-03T08:04:55.538Z</time>
      </trkpt>
      <trkpt lat="49.50566" lon="-1.44227">
        <ele>63.2</ele>
        <time>2026-09-03T08:04:56.540Z</time>
      </trkpt>
      <trkpt lat="49.50565" lon="-1.44226">
        <ele>63.1</ele>
        <time>2026-09-03T08:04:57.541Z</time>
      </trkpt>
      <trkpt lat="49.50564" lon="-1.44225">
        <ele>63.1</ele>
        <time>2026-09-03T08:04:58.599Z</time>
      </trkpt>
      <trkpt lat="49.50562" lon="-1.44224">
        <ele>63.1</ele>
        <time>2026-09-03T08:05:00.545Z</time>
      </trkpt>
      <trkpt lat="49.50561" lon="-1.44223">
        <ele>63</ele>
        <time>2026-09-03T08:05:01.547Z</time>
      </trkpt>
      <trkpt lat="49.50559" lon="-1.44223">
        <ele>63</ele>
        <time>2026-09-03T08:05:02.548Z</time>
      </trkpt>
      <trkpt lat="49.50558" lon="-1.44222">
        <ele>63</ele>
        <time>2026-09-03T08:05:03.550Z</time>
      </trkpt>
      <trkpt lat="49.50557" lon="-1.44221">
        <ele>63</ele>
        <time>2026-09-03T08:05:04.551Z</time>
      </trkpt>
      <trkpt lat="49.50556" lon="-1.4422">
        <ele>63</ele>
        <time>2026-09-03T08:05:05.552Z</time>
      </trkpt>
      <trkpt lat="49.50554" lon="-1.44219">
        <ele>63</ele>
        <time>2026-09-03T08:05:06.554Z</time>
      </trkpt>
      <trkpt lat="49.50552" lon="-1.44216">
        <ele>63</ele>
        <time>2026-09-03T08:05:08.527Z</time>
      </trkpt>
      <trkpt lat="49.50551" lon="-1.44215">
        <ele>63</ele>
        <time>2026-09-03T08:05:09.538Z</time>
      </trkpt>
      <trkpt lat="49.5055" lon="-1.44214">
        <ele>63</ele>
        <time>2026-09-03T08:05:10.559Z</time>
      </trkpt>
      <trkpt lat="49.50548" lon="-1.44213">
        <ele>63</ele>
        <time>2026-09-03T08:05:11.561Z</time>
      </trkpt>
      <trkpt lat="49.50547" lon="-1.44213">
        <ele>63</ele>
        <time>2026-09-03T08:05:12.562Z</time>
      </trkpt>
      <trkpt lat="49.50546" lon="-1.44211">
        <ele>63</ele>
        <time>2026-09-03T08:05:13.564Z</time>
      </trkpt>
      <trkpt lat="49.50545" lon="-1.44211">
        <ele>63</ele>
        <time>2026-09-03T08:05:14.565Z</time>
      </trkpt>
      <trkpt lat="49.50544" lon="-1.4421">
        <ele>63</ele>
        <time>2026-09-03T08:05:15.567Z</time>
      </trkpt>
      <trkpt lat="49.50543" lon="-1.44209">
        <ele>63</ele>
        <time>2026-09-03T08:05:16.599Z</time>
      </trkpt>
      <trkpt lat="49.50541" lon="-1.44206">
        <ele>63</ele>
        <time>2026-09-03T08:05:18.561Z</time>
      </trkpt>
      <trkpt lat="49.5054" lon="-1.44205">
        <ele>63</ele>
        <time>2026-09-03T08:05:19.562Z</time>
      </trkpt>
      <trkpt lat="49.50538" lon="-1.44201">
        <ele>63</ele>
        <time>2026-09-03T08:05:21.555Z</time>
      </trkpt>
      <trkpt lat="49.50537" lon="-1.44199">
        <ele>63</ele>
        <time>2026-09-03T08:05:23.538Z</time>
      </trkpt>
      <trkpt lat="49.50536" lon="-1.44198">
        <ele>63</ele>
        <time>2026-09-03T08:05:24.559Z</time>
      </trkpt>
      <trkpt lat="49.50535" lon="-1.44197">
        <ele>63</ele>
        <time>2026-09-03T08:05:25.559Z</time>
      </trkpt>
      <trkpt lat="49.50534" lon="-1.44196">
        <ele>63</ele>
        <time>2026-09-03T08:05:26.559Z</time>
      </trkpt>
      <trkpt lat="49.50532" lon="-1.44195">
        <ele>63</ele>
        <time>2026-09-03T08:05:27.559Z</time>
      </trkpt>
      <trkpt lat="49.50531" lon="-1.44195">
        <ele>63</ele>
        <time>2026-09-03T08:05:28.618Z</time>
      </trkpt>
      <trkpt lat="49.50528" lon="-1.44193">
        <ele>63</ele>
        <time>2026-09-03T08:05:30.559Z</time>
      </trkpt>
      <trkpt lat="49.50527" lon="-1.44192">
        <ele>63</ele>
        <time>2026-09-03T08:05:31.589Z</time>
      </trkpt>
      <trkpt lat="49.50526" lon="-1.44191">
        <ele>63</ele>
        <time>2026-09-03T08:05:32.599Z</time>
      </trkpt>
      <trkpt lat="49.50524" lon="-1.44189">
        <ele>63</ele>
        <time>2026-09-03T08:05:34.533Z</time>
      </trkpt>
      <trkpt lat="49.50523" lon="-1.44189">
        <ele>63</ele>
        <time>2026-09-03T08:05:35.533Z</time>
      </trkpt>
      <trkpt lat="49.5052" lon="-1.44188">
        <ele>63</ele>
        <time>2026-09-03T08:05:37.517Z</time>
      </trkpt>
      <trkpt lat="49.50519" lon="-1.44187">
        <ele>63</ele>
        <time>2026-09-03T08:05:38.559Z</time>
      </trkpt>
      <trkpt lat="49.50517" lon="-1.44185">
        <ele>63</ele>
        <time>2026-09-03T08:05:40.538Z</time>
      </trkpt>
      <trkpt lat="49.50514" lon="-1.44182">
        <ele>63</ele>
        <time>2026-09-03T08:05:42.444Z</time>
      </trkpt>
      <trkpt lat="49.50513" lon="-1.44181">
        <ele>63</ele>
        <time>2026-09-03T08:05:43.506Z</time>
      </trkpt>
      <trkpt lat="49.50512" lon="-1.4418">
        <ele>63</ele>
        <time>2026-09-03T08:05:44.577Z</time>
      </trkpt>
      <trkpt lat="49.50511" lon="-1.44178">
        <ele>63</ele>
        <time>2026-09-03T08:05:46.533Z</time>
      </trkpt>
      <trkpt lat="49.5051" lon="-1.44178">
        <ele>63</ele>
        <time>2026-09-03T08:05:47.551Z</time>
      </trkpt>
      <trkpt lat="49.50508" lon="-1.44177">
        <ele>63</ele>
        <time>2026-09-03T08:05:48.613Z</time>
      </trkpt>
      <trkpt lat="49.50507" lon="-1.44174">
        <ele>63</ele>
        <time>2026-09-03T08:05:50.536Z</time>
      </trkpt>
      <trkpt lat="49.50505" lon="-1.44172">
        <ele>63</ele>
        <time>2026-09-03T08:05:52.534Z</time>
      </trkpt>
      <trkpt lat="49.50503" lon="-1.44171">
        <ele>63</ele>
        <time>2026-09-03T08:05:53.538Z</time>
      </trkpt>
      <trkpt lat="49.50501" lon="-1.44169">
        <ele>63</ele>
        <time>2026-09-03T08:05:55.538Z</time>
      </trkpt>
      <trkpt lat="49.50499" lon="-1.44167">
        <ele>63</ele>
        <time>2026-09-03T08:05:57.545Z</time>
      </trkpt>
      <trkpt lat="49.50497" lon="-1.44166">
        <ele>63</ele>
        <time>2026-09-03T08:05:59.531Z</time>
      </trkpt>
      <trkpt lat="49.50496" lon="-1.44165">
        <ele>62.9</ele>
        <time>2026-09-03T08:06:00.531Z</time>
      </trkpt>
      <trkpt lat="49.50495" lon="-1.44164">
        <ele>62.9</ele>
        <time>2026-09-03T08:06:01.538Z</time>
      </trkpt>
      <trkpt lat="49.50494" lon="-1.44163">
        <ele>62.9</ele>
        <time>2026-09-03T08:06:02.538Z</time>
      </trkpt>
      <trkpt lat="49.50492" lon="-1.44161">
        <ele>62.9</ele>
        <time>2026-09-03T08:06:04.465Z</time>
      </trkpt>
      <trkpt lat="49.5049" lon="-1.4416">
        <ele>62.8</ele>
        <time>2026-09-03T08:06:05.486Z</time>
      </trkpt>
      <trkpt lat="49.50489" lon="-1.44159">
        <ele>62.8</ele>
        <time>2026-09-03T08:06:06.538Z</time>
      </trkpt>
      <trkpt lat="49.50487" lon="-1.44156">
        <ele>62.8</ele>
        <time>2026-09-03T08:06:08.540Z</time>
      </trkpt>
      <trkpt lat="49.50486" lon="-1.44155">
        <ele>62.8</ele>
        <time>2026-09-03T08:06:09.542Z</time>
      </trkpt>
      <trkpt lat="49.50485" lon="-1.44154">
        <ele>62.8</ele>
        <time>2026-09-03T08:06:10.563Z</time>
      </trkpt>
      <trkpt lat="49.50484" lon="-1.44154">
        <ele>62.8</ele>
        <time>2026-09-03T08:06:11.565Z</time>
      </trkpt>
      <trkpt lat="49.50483" lon="-1.44154">
        <ele>62.8</ele>
        <time>2026-09-03T08:06:12.566Z</time>
      </trkpt>
      <trkpt lat="49.50482" lon="-1.44153">
        <ele>62.8</ele>
        <time>2026-09-03T08:06:13.567Z</time>
      </trkpt>
      <trkpt lat="49.5048" lon="-1.44152">
        <ele>62.9</ele>
        <time>2026-09-03T08:06:14.568Z</time>
      </trkpt>
      <trkpt lat="49.50478" lon="-1.44149">
        <ele>62.9</ele>
        <time>2026-09-03T08:06:16.535Z</time>
      </trkpt>
      <trkpt lat="49.50476" lon="-1.44147">
        <ele>62.9</ele>
        <time>2026-09-03T08:06:18.535Z</time>
      </trkpt>
      <trkpt lat="49.50475" lon="-1.44145">
        <ele>62.9</ele>
        <time>2026-09-03T08:06:19.576Z</time>
      </trkpt>
      <trkpt lat="49.50474" lon="-1.44143">
        <ele>62.9</ele>
        <time>2026-09-03T08:06:21.540Z</time>
      </trkpt>
      <trkpt lat="49.50472" lon="-1.4414">
        <ele>63</ele>
        <time>2026-09-03T08:06:23.532Z</time>
      </trkpt>
      <trkpt lat="49.5047" lon="-1.44138">
        <ele>62.9</ele>
        <time>2026-09-03T08:06:25.564Z</time>
      </trkpt>
      <trkpt lat="49.50469" lon="-1.44136">
        <ele>62.9</ele>
        <time>2026-09-03T08:06:26.605Z</time>
      </trkpt>
      <trkpt lat="49.50468" lon="-1.44133">
        <ele>62.8</ele>
        <time>2026-09-03T08:06:28.533Z</time>
      </trkpt>
      <trkpt lat="49.50467" lon="-1.44132">
        <ele>62.8</ele>
        <time>2026-09-03T08:06:29.535Z</time>
      </trkpt>
      <trkpt lat="49.50466" lon="-1.44131">
        <ele>62.8</ele>
        <time>2026-09-03T08:06:30.538Z</time>
      </trkpt>
      <trkpt lat="49.50464" lon="-1.44128">
        <ele>62.7</ele>
        <time>2026-09-03T08:06:32.534Z</time>
      </trkpt>
      <trkpt lat="49.50462" lon="-1.44127">
        <ele>62.6</ele>
        <time>2026-09-03T08:06:33.534Z</time>
      </trkpt>
      <trkpt lat="49.50461" lon="-1.44126">
        <ele>62.6</ele>
        <time>2026-09-03T08:06:34.539Z</time>
      </trkpt>
      <trkpt lat="49.5046" lon="-1.44125">
        <ele>62.6</ele>
        <time>2026-09-03T08:06:35.541Z</time>
      </trkpt>
      <trkpt lat="49.50458" lon="-1.44123">
        <ele>62.5</ele>
        <time>2026-09-03T08:06:37.501Z</time>
      </trkpt>
      <trkpt lat="49.50457" lon="-1.44122">
        <ele>62.5</ele>
        <time>2026-09-03T08:06:38.562Z</time>
      </trkpt>
      <trkpt lat="49.50455" lon="-1.4412">
        <ele>62.4</ele>
        <time>2026-09-03T08:06:40.531Z</time>
      </trkpt>
      <trkpt lat="49.50452" lon="-1.44118">
        <ele>62.3</ele>
        <time>2026-09-03T08:06:42.539Z</time>
      </trkpt>
      <trkpt lat="49.5045" lon="-1.44116">
        <ele>62.2</ele>
        <time>2026-09-03T08:06:44.537Z</time>
      </trkpt>
      <trkpt lat="49.5045" lon="-1.44114">
        <ele>62.2</ele>
        <time>2026-09-03T08:06:45.539Z</time>
      </trkpt>
      <trkpt lat="49.5045" lon="-1.44112">
        <ele>62.2</ele>
        <time>2026-09-03T08:06:46.539Z</time>
      </trkpt>
      <trkpt lat="49.50449" lon="-1.44107">
        <ele>62.3</ele>
        <time>2026-09-03T08:06:48.536Z</time>
      </trkpt>
      <trkpt lat="49.50448" lon="-1.44103">
        <ele>62.4</ele>
        <time>2026-09-03T08:06:50.458Z</time>
      </trkpt>
      <trkpt lat="49.50448" lon="-1.44101">
        <ele>62.5</ele>
        <time>2026-09-03T08:06:51.520Z</time>
      </trkpt>
      <trkpt lat="49.50447" lon="-1.441">
        <ele>62.5</ele>
        <time>2026-09-03T08:06:52.533Z</time>
      </trkpt>
      <trkpt lat="49.50446" lon="-1.44098">
        <ele>62.5</ele>
        <time>2026-09-03T08:06:53.533Z</time>
      </trkpt>
      <trkpt lat="49.50445" lon="-1.44094">
        <ele>62.6</ele>
        <time>2026-09-03T08:06:55.566Z</time>
      </trkpt>
      <trkpt lat="49.50445" lon="-1.44091">
        <ele>62.7</ele>
        <time>2026-09-03T08:06:57.533Z</time>
      </trkpt>
      <trkpt lat="49.50444" lon="-1.44089">
        <ele>62.8</ele>
        <time>2026-09-03T08:06:58.537Z</time>
      </trkpt>
      <trkpt lat="49.50444" lon="-1.44087">
        <ele>62.9</ele>
        <time>2026-09-03T08:06:59.540Z</time>
      </trkpt>
      <trkpt lat="49.50444" lon="-1.44085">
        <ele>62.9</ele>
        <time>2026-09-03T08:07:00.541Z</time>
      </trkpt>
      <trkpt lat="49.50443" lon="-1.44081">
        <ele>63</ele>
        <time>2026-09-03T08:07:02.539Z</time>
      </trkpt>
      <trkpt lat="49.50443" lon="-1.44077">
        <ele>63</ele>
        <time>2026-09-03T08:07:04.538Z</time>
      </trkpt>
      <trkpt lat="49.50442" lon="-1.44075">
        <ele>63</ele>
        <time>2026-09-03T08:07:05.538Z</time>
      </trkpt>
      <trkpt lat="49.50441" lon="-1.44074">
        <ele>63</ele>
        <time>2026-09-03T08:07:06.540Z</time>
      </trkpt>
      <trkpt lat="49.50441" lon="-1.4407">
        <ele>63</ele>
        <time>2026-09-03T08:07:08.563Z</time>
      </trkpt>
      <trkpt lat="49.50441" lon="-1.44066">
        <ele>63</ele>
        <time>2026-09-03T08:07:10.546Z</time>
      </trkpt>
      <trkpt lat="49.50441" lon="-1.44065">
        <ele>63</ele>
        <time>2026-09-03T08:07:11.548Z</time>
      </trkpt>
      <trkpt lat="49.50441" lon="-1.44063">
        <ele>63</ele>
        <time>2026-09-03T08:07:12.549Z</time>
      </trkpt>
      <trkpt lat="49.50441" lon="-1.44061">
        <ele>63</ele>
        <time>2026-09-03T08:07:13.550Z</time>
      </trkpt>
      <trkpt lat="49.50441" lon="-1.44059">
        <ele>63</ele>
        <time>2026-09-03T08:07:14.552Z</time>
      </trkpt>
      <trkpt lat="49.5044" lon="-1.44056">
        <ele>63</ele>
        <time>2026-09-03T08:07:16.555Z</time>
      </trkpt>
      <trkpt lat="49.5044" lon="-1.44054">
        <ele>63</ele>
        <time>2026-09-03T08:07:18.457Z</time>
      </trkpt>
      <trkpt lat="49.5044" lon="-1.44053">
        <ele>63</ele>
        <time>2026-09-03T08:07:19.519Z</time>
      </trkpt>
      <trkpt lat="49.50439" lon="-1.44051">
        <ele>63</ele>
        <time>2026-09-03T08:07:20.560Z</time>
      </trkpt>
      <trkpt lat="49.50439" lon="-1.44049">
        <ele>63</ele>
        <time>2026-09-03T08:07:21.582Z</time>
      </trkpt>
      <trkpt lat="49.50437" lon="-1.44045">
        <ele>63</ele>
        <time>2026-09-03T08:07:23.532Z</time>
      </trkpt>
      <trkpt lat="49.50437" lon="-1.44043">
        <ele>63</ele>
        <time>2026-09-03T08:07:24.532Z</time>
      </trkpt>
      <trkpt lat="49.50437" lon="-1.44038">
        <ele>63</ele>
        <time>2026-09-03T08:07:26.558Z</time>
      </trkpt>
      <trkpt lat="49.50437" lon="-1.44036">
        <ele>63</ele>
        <time>2026-09-03T08:07:27.600Z</time>
      </trkpt>
      <trkpt lat="49.50436" lon="-1.44032">
        <ele>63</ele>
        <time>2026-09-03T08:07:29.533Z</time>
      </trkpt>
      <trkpt lat="49.50435" lon="-1.44028">
        <ele>63</ele>
        <time>2026-09-03T08:07:31.537Z</time>
      </trkpt>
      <trkpt lat="49.50435" lon="-1.44026">
        <ele>63</ele>
        <time>2026-09-03T08:07:32.540Z</time>
      </trkpt>
      <trkpt lat="49.50434" lon="-1.44021">
        <ele>63</ele>
        <time>2026-09-03T08:07:34.541Z</time>
      </trkpt>
      <trkpt lat="49.50434" lon="-1.44017">
        <ele>63</ele>
        <time>2026-09-03T08:07:36.536Z</time>
      </trkpt>
      <trkpt lat="49.50433" lon="-1.44013">
        <ele>63</ele>
        <time>2026-09-03T08:07:38.505Z</time>
      </trkpt>
      <trkpt lat="49.50433" lon="-1.44011">
        <ele>63</ele>
        <time>2026-09-03T08:07:39.541Z</time>
      </trkpt>
      <trkpt lat="49.50432" lon="-1.44007">
        <ele>63</ele>
        <time>2026-09-03T08:07:41.459Z</time>
      </trkpt>
      <trkpt lat="49.50432" lon="-1.44006">
        <ele>63</ele>
        <time>2026-09-03T08:07:42.571Z</time>
      </trkpt>
      <trkpt lat="49.50432" lon="-1.44003">
        <ele>63</ele>
        <time>2026-09-03T08:07:43.572Z</time>
      </trkpt>
      <trkpt lat="49.50432" lon="-1.44">
        <ele>63</ele>
        <time>2026-09-03T08:07:45.535Z</time>
      </trkpt>
      <trkpt lat="49.50432" lon="-1.43998">
        <ele>63</ele>
        <time>2026-09-03T08:07:46.535Z</time>
      </trkpt>
      <trkpt lat="49.50432" lon="-1.43996">
        <ele>63</ele>
        <time>2026-09-03T08:07:47.578Z</time>
      </trkpt>
      <trkpt lat="49.50431" lon="-1.43994">
        <ele>63</ele>
        <time>2026-09-03T08:07:48.599Z</time>
      </trkpt>
      <trkpt lat="49.50431" lon="-1.43992">
        <ele>63</ele>
        <time>2026-09-03T08:07:49.599Z</time>
      </trkpt>
      <trkpt lat="49.50431" lon="-1.4399">
        <ele>63</ele>
        <time>2026-09-03T08:07:51.563Z</time>
      </trkpt>
      <trkpt lat="49.5043" lon="-1.43987">
        <ele>63</ele>
        <time>2026-09-03T08:07:53.535Z</time>
      </trkpt>
      <trkpt lat="49.5043" lon="-1.43982">
        <ele>63</ele>
        <time>2026-09-03T08:07:55.579Z</time>
      </trkpt>
      <trkpt lat="49.50429" lon="-1.43978">
        <ele>63</ele>
        <time>2026-09-03T08:07:57.540Z</time>
      </trkpt>
      <trkpt lat="49.50429" lon="-1.43976">
        <ele>63</ele>
        <time>2026-09-03T08:07:58.542Z</time>
      </trkpt>
      <trkpt lat="49.50429" lon="-1.43972">
        <ele>63</ele>
        <time>2026-09-03T08:08:00.539Z</time>
      </trkpt>
      <trkpt lat="49.50428" lon="-1.43968">
        <ele>63</ele>
        <time>2026-09-03T08:08:02.538Z</time>
      </trkpt>
      <trkpt lat="49.50428" lon="-1.43966">
        <ele>63</ele>
        <time>2026-09-03T08:08:03.538Z</time>
      </trkpt>
      <trkpt lat="49.50428" lon="-1.43965">
        <ele>63</ele>
        <time>2026-09-03T08:08:04.541Z</time>
      </trkpt>
      <trkpt lat="49.50427" lon="-1.43961">
        <ele>63</ele>
        <time>2026-09-03T08:08:06.544Z</time>
      </trkpt>
      <trkpt lat="49.50428" lon="-1.43959">
        <ele>63</ele>
        <time>2026-09-03T08:08:07.545Z</time>
      </trkpt>
      <trkpt lat="49.50428" lon="-1.43957">
        <ele>63</ele>
        <time>2026-09-03T08:08:08.546Z</time>
      </trkpt>
      <trkpt lat="49.50427" lon="-1.43955">
        <ele>63</ele>
        <time>2026-09-03T08:08:09.548Z</time>
      </trkpt>
      <trkpt lat="49.50427" lon="-1.43954">
        <ele>63</ele>
        <time>2026-09-03T08:08:10.549Z</time>
      </trkpt>
      <trkpt lat="49.50426" lon="-1.43952">
        <ele>63</ele>
        <time>2026-09-03T08:08:11.551Z</time>
      </trkpt>
      <trkpt lat="49.50426" lon="-1.4395">
        <ele>63</ele>
        <time>2026-09-03T08:08:12.552Z</time>
      </trkpt>
      <trkpt lat="49.50425" lon="-1.43948">
        <ele>63</ele>
        <time>2026-09-03T08:08:13.552Z</time>
      </trkpt>
      <trkpt lat="49.50425" lon="-1.43946">
        <ele>63</ele>
        <time>2026-09-03T08:08:14.555Z</time>
      </trkpt>
      <trkpt lat="49.50425" lon="-1.43943">
        <ele>63</ele>
        <time>2026-09-03T08:08:16.577Z</time>
      </trkpt>
      <trkpt lat="49.50424" lon="-1.43939">
        <ele>63</ele>
        <time>2026-09-03T08:08:18.560Z</time>
      </trkpt>
      <trkpt lat="49.50424" lon="-1.43938">
        <ele>63</ele>
        <time>2026-09-03T08:08:19.562Z</time>
      </trkpt>
      <trkpt lat="49.50423" lon="-1.43934">
        <ele>63</ele>
        <time>2026-09-03T08:08:21.539Z</time>
      </trkpt>
      <trkpt lat="49.50422" lon="-1.4393">
        <ele>63</ele>
        <time>2026-09-03T08:08:23.535Z</time>
      </trkpt>
      <trkpt lat="49.50421" lon="-1.43928">
        <ele>63</ele>
        <time>2026-09-03T08:08:24.543Z</time>
      </trkpt>
      <trkpt lat="49.5042" lon="-1.43924">
        <ele>63</ele>
        <time>2026-09-03T08:08:26.535Z</time>
      </trkpt>
      <trkpt lat="49.5042" lon="-1.43921">
        <ele>63</ele>
        <time>2026-09-03T08:08:28.541Z</time>
      </trkpt>
      <trkpt lat="49.50419" lon="-1.43918">
        <ele>63</ele>
        <time>2026-09-03T08:08:30.567Z</time>
      </trkpt>
      <trkpt lat="49.50419" lon="-1.43915">
        <ele>63</ele>
        <time>2026-09-03T08:08:32.535Z</time>
      </trkpt>
      <trkpt lat="49.50419" lon="-1.43911">
        <ele>63</ele>
        <time>2026-09-03T08:08:34.502Z</time>
      </trkpt>
      <trkpt lat="49.50419" lon="-1.43909">
        <ele>63</ele>
        <time>2026-09-03T08:08:35.535Z</time>
      </trkpt>
      <trkpt lat="49.50418" lon="-1.43908">
        <ele>63</ele>
        <time>2026-09-03T08:08:36.536Z</time>
      </trkpt>
      <trkpt lat="49.50418" lon="-1.43906">
        <ele>63</ele>
        <time>2026-09-03T08:08:37.566Z</time>
      </trkpt>
      <trkpt lat="49.50418" lon="-1.43904">
        <ele>63</ele>
        <time>2026-09-03T08:08:38.599Z</time>
      </trkpt>
      <trkpt lat="49.50417" lon="-1.43901">
        <ele>63</ele>
        <time>2026-09-03T08:08:40.570Z</time>
      </trkpt>
      <trkpt lat="49.50416" lon="-1.43897">
        <ele>63</ele>
        <time>2026-09-03T08:08:42.573Z</time>
      </trkpt>
      <trkpt lat="49.50415" lon="-1.43893">
        <ele>63</ele>
        <time>2026-09-03T08:08:44.526Z</time>
      </trkpt>
      <trkpt lat="49.50415" lon="-1.43891">
        <ele>63</ele>
        <time>2026-09-03T08:08:45.539Z</time>
      </trkpt>
      <trkpt lat="49.50414" lon="-1.43887">
        <ele>63</ele>
        <time>2026-09-03T08:08:47.541Z</time>
      </trkpt>
      <trkpt lat="49.50413" lon="-1.43883">
        <ele>63</ele>
        <time>2026-09-03T08:08:49.563Z</time>
      </trkpt>
      <trkpt lat="49.50413" lon="-1.43879">
        <ele>63</ele>
        <time>2026-09-03T08:08:51.532Z</time>
      </trkpt>
      <trkpt lat="49.50413" lon="-1.43877">
        <ele>63</ele>
        <time>2026-09-03T08:08:52.533Z</time>
      </trkpt>
      <trkpt lat="49.50412" lon="-1.43875">
        <ele>63</ele>
        <time>2026-09-03T08:08:53.534Z</time>
      </trkpt>
      <trkpt lat="49.50412" lon="-1.43873">
        <ele>63</ele>
        <time>2026-09-03T08:08:54.542Z</time>
      </trkpt>
      <trkpt lat="49.50412" lon="-1.43869">
        <ele>63</ele>
        <time>2026-09-03T08:08:56.533Z</time>
      </trkpt>
      <trkpt lat="49.50412" lon="-1.43867">
        <ele>63</ele>
        <time>2026-09-03T08:08:57.534Z</time>
      </trkpt>
      <trkpt lat="49.50411" lon="-1.43865">
        <ele>63</ele>
        <time>2026-09-03T08:08:58.536Z</time>
      </trkpt>
      <trkpt lat="49.50411" lon="-1.43863">
        <ele>63</ele>
        <time>2026-09-03T08:08:59.541Z</time>
      </trkpt>
      <trkpt lat="49.50411" lon="-1.43859">
        <ele>62.9</ele>
        <time>2026-09-03T08:09:01.499Z</time>
      </trkpt>
      <trkpt lat="49.5041" lon="-1.43858">
        <ele>62.9</ele>
        <time>2026-09-03T08:09:02.561Z</time>
      </trkpt>
      <trkpt lat="49.5041" lon="-1.43854">
        <ele>62.7</ele>
        <time>2026-09-03T08:09:04.532Z</time>
      </trkpt>
      <trkpt lat="49.50409" lon="-1.43852">
        <ele>62.7</ele>
        <time>2026-09-03T08:09:05.534Z</time>
      </trkpt>
      <trkpt lat="49.50409" lon="-1.43849">
        <ele>62.6</ele>
        <time>2026-09-03T08:09:07.540Z</time>
      </trkpt>
      <trkpt lat="49.50408" lon="-1.43845">
        <ele>62.4</ele>
        <time>2026-09-03T08:09:09.540Z</time>
      </trkpt>
      <trkpt lat="49.50408" lon="-1.43841">
        <ele>62.3</ele>
        <time>2026-09-03T08:09:11.531Z</time>
      </trkpt>
      <trkpt lat="49.50408" lon="-1.43839">
        <ele>62.2</ele>
        <time>2026-09-03T08:09:12.535Z</time>
      </trkpt>
      <trkpt lat="49.50408" lon="-1.43835">
        <ele>62.1</ele>
        <time>2026-09-03T08:09:14.536Z</time>
      </trkpt>
      <trkpt lat="49.50408" lon="-1.43833">
        <ele>62</ele>
        <time>2026-09-03T08:09:15.540Z</time>
      </trkpt>
      <trkpt lat="49.50408" lon="-1.43829">
        <ele>62</ele>
        <time>2026-09-03T08:09:17.481Z</time>
      </trkpt>
      <trkpt lat="49.50407" lon="-1.43827">
        <ele>62</ele>
        <time>2026-09-03T08:09:18.522Z</time>
      </trkpt>
      <trkpt lat="49.50407" lon="-1.43826">
        <ele>62</ele>
        <time>2026-09-03T08:09:19.535Z</time>
      </trkpt>
      <trkpt lat="49.50406" lon="-1.43822">
        <ele>62</ele>
        <time>2026-09-03T08:09:21.533Z</time>
      </trkpt>
      <trkpt lat="49.50405" lon="-1.43818">
        <ele>62</ele>
        <time>2026-09-03T08:09:23.479Z</time>
      </trkpt>
      <trkpt lat="49.50405" lon="-1.43816">
        <ele>62</ele>
        <time>2026-09-03T08:09:24.561Z</time>
      </trkpt>
      <trkpt lat="49.50404" lon="-1.43812">
        <ele>62</ele>
        <time>2026-09-03T08:09:26.533Z</time>
      </trkpt>
      <trkpt lat="49.50404" lon="-1.4381">
        <ele>62</ele>
        <time>2026-09-03T08:09:27.535Z</time>
      </trkpt>
      <trkpt lat="49.50404" lon="-1.43808">
        <ele>62</ele>
        <time>2026-09-03T08:09:28.536Z</time>
      </trkpt>
      <trkpt lat="49.50404" lon="-1.43807">
        <ele>62</ele>
        <time>2026-09-03T08:09:29.538Z</time>
      </trkpt>
      <trkpt lat="49.50403" lon="-1.43805">
        <ele>62</ele>
        <time>2026-09-03T08:09:30.539Z</time>
      </trkpt>
      <trkpt lat="49.50403" lon="-1.43803">
        <ele>62</ele>
        <time>2026-09-03T08:09:31.540Z</time>
      </trkpt>
      <trkpt lat="49.50403" lon="-1.43801">
        <ele>61.9</ele>
        <time>2026-09-03T08:09:32.542Z</time>
      </trkpt>
      <trkpt lat="49.50403" lon="-1.43799">
        <ele>61.9</ele>
        <time>2026-09-03T08:09:33.543Z</time>
      </trkpt>
      <trkpt lat="49.50402" lon="-1.43795">
        <ele>61.8</ele>
        <time>2026-09-03T08:09:35.566Z</time>
      </trkpt>
      <trkpt lat="49.50402" lon="-1.43792">
        <ele>61.8</ele>
        <time>2026-09-03T08:09:37.549Z</time>
      </trkpt>
      <trkpt lat="49.50402" lon="-1.4379">
        <ele>61.7</ele>
        <time>2026-09-03T08:09:38.550Z</time>
      </trkpt>
      <trkpt lat="49.50401" lon="-1.43786">
        <ele>61.7</ele>
        <time>2026-09-03T08:09:40.563Z</time>
      </trkpt>
      <trkpt lat="49.504" lon="-1.43781">
        <ele>61.6</ele>
        <time>2026-09-03T08:09:42.555Z</time>
      </trkpt>
      <trkpt lat="49.504" lon="-1.43779">
        <ele>61.6</ele>
        <time>2026-09-03T08:09:43.557Z</time>
      </trkpt>
      <trkpt lat="49.504" lon="-1.43777">
        <ele>61.6</ele>
        <time>2026-09-03T08:09:44.558Z</time>
      </trkpt>
      <trkpt lat="49.504" lon="-1.43775">
        <ele>61.4</ele>
        <time>2026-09-03T08:09:45.560Z</time>
      </trkpt>
      <trkpt lat="49.504" lon="-1.43773">
        <ele>61.3</ele>
        <time>2026-09-03T08:09:46.561Z</time>
      </trkpt>
      <trkpt lat="49.504" lon="-1.43771">
        <ele>61.2</ele>
        <time>2026-09-03T08:09:47.562Z</time>
      </trkpt>
      <trkpt lat="49.504" lon="-1.43769">
        <ele>61.1</ele>
        <time>2026-09-03T08:09:48.564Z</time>
      </trkpt>
      <trkpt lat="49.504" lon="-1.43768">
        <ele>61</ele>
        <time>2026-09-03T08:09:49.565Z</time>
      </trkpt>
      <trkpt lat="49.504" lon="-1.43764">
        <ele>60.8</ele>
        <time>2026-09-03T08:09:51.558Z</time>
      </trkpt>
      <trkpt lat="49.50399" lon="-1.4376">
        <ele>60.6</ele>
        <time>2026-09-03T08:09:53.530Z</time>
      </trkpt>
      <trkpt lat="49.50399" lon="-1.43756">
        <ele>60.4</ele>
        <time>2026-09-03T08:09:55.503Z</time>
      </trkpt>
      <trkpt lat="49.50399" lon="-1.43754">
        <ele>60.2</ele>
        <time>2026-09-03T08:09:56.565Z</time>
      </trkpt>
      <trkpt lat="49.50399" lon="-1.43751">
        <ele>60.1</ele>
        <time>2026-09-03T08:09:58.538Z</time>
      </trkpt>
      <trkpt lat="49.50399" lon="-1.43749">
        <ele>60</ele>
        <time>2026-09-03T08:09:59.559Z</time>
      </trkpt>
      <trkpt lat="49.504" lon="-1.43746">
        <ele>59.9</ele>
        <time>2026-09-03T08:10:01.532Z</time>
      </trkpt>
      <trkpt lat="49.504" lon="-1.43742">
        <ele>59.7</ele>
        <time>2026-09-03T08:10:03.532Z</time>
      </trkpt>
      <trkpt lat="49.50399" lon="-1.4374">
        <ele>59.6</ele>
        <time>2026-09-03T08:10:04.533Z</time>
      </trkpt>
      <trkpt lat="49.50399" lon="-1.43738">
        <ele>59.6</ele>
        <time>2026-09-03T08:10:05.536Z</time>
      </trkpt>
      <trkpt lat="49.50399" lon="-1.43736">
        <ele>59.5</ele>
        <time>2026-09-03T08:10:06.536Z</time>
      </trkpt>
      <trkpt lat="49.50399" lon="-1.43734">
        <ele>59.4</ele>
        <time>2026-09-03T08:10:07.537Z</time>
      </trkpt>
      <trkpt lat="49.50399" lon="-1.4373">
        <ele>59.3</ele>
        <time>2026-09-03T08:10:09.535Z</time>
      </trkpt>
      <trkpt lat="49.50398" lon="-1.43728">
        <ele>59.2</ele>
        <time>2026-09-03T08:10:10.544Z</time>
      </trkpt>
      <trkpt lat="49.50398" lon="-1.43726">
        <ele>59.1</ele>
        <time>2026-09-03T08:10:11.565Z</time>
      </trkpt>
      <trkpt lat="49.50397" lon="-1.43722">
        <ele>59</ele>
        <time>2026-09-03T08:10:13.531Z</time>
      </trkpt>
      <trkpt lat="49.50397" lon="-1.4372">
        <ele>58.9</ele>
        <time>2026-09-03T08:10:14.552Z</time>
      </trkpt>
      <trkpt lat="49.50397" lon="-1.43717">
        <ele>58.7</ele>
        <time>2026-09-03T08:10:16.532Z</time>
      </trkpt>
      <trkpt lat="49.50396" lon="-1.43714">
        <ele>58.5</ele>
        <time>2026-09-03T08:10:17.533Z</time>
      </trkpt>
      <trkpt lat="49.50396" lon="-1.43712">
        <ele>58.4</ele>
        <time>2026-09-03T08:10:18.533Z</time>
      </trkpt>
      <trkpt lat="49.50396" lon="-1.4371">
        <ele>58.2</ele>
        <time>2026-09-03T08:10:19.533Z</time>
      </trkpt>
      <trkpt lat="49.50396" lon="-1.43708">
        <ele>58.1</ele>
        <time>2026-09-03T08:10:20.538Z</time>
      </trkpt>
      <trkpt lat="49.50396" lon="-1.43706">
        <ele>58</ele>
        <time>2026-09-03T08:10:21.539Z</time>
      </trkpt>
      <trkpt lat="49.50395" lon="-1.43702">
        <ele>57.7</ele>
        <time>2026-09-03T08:10:23.482Z</time>
      </trkpt>
      <trkpt lat="49.50395" lon="-1.437">
        <ele>57.6</ele>
        <time>2026-09-03T08:10:24.524Z</time>
      </trkpt>
      <trkpt lat="49.50394" lon="-1.43698">
        <ele>57.4</ele>
        <time>2026-09-03T08:10:25.534Z</time>
      </trkpt>
      <trkpt lat="49.50394" lon="-1.43696">
        <ele>57.3</ele>
        <time>2026-09-03T08:10:26.535Z</time>
      </trkpt>
      <trkpt lat="49.50393" lon="-1.43694">
        <ele>57.1</ele>
        <time>2026-09-03T08:10:27.578Z</time>
      </trkpt>
      <trkpt lat="49.50394" lon="-1.4369">
        <ele>57.1</ele>
        <time>2026-09-03T08:10:29.535Z</time>
      </trkpt>
      <trkpt lat="49.50393" lon="-1.43688">
        <ele>57</ele>
        <time>2026-09-03T08:10:30.535Z</time>
      </trkpt>
      <trkpt lat="49.50392" lon="-1.43686">
        <ele>56.8</ele>
        <time>2026-09-03T08:10:31.542Z</time>
      </trkpt>
      <trkpt lat="49.50392" lon="-1.43682">
        <ele>56.7</ele>
        <time>2026-09-03T08:10:33.534Z</time>
      </trkpt>
      <trkpt lat="49.50392" lon="-1.4368">
        <ele>56.7</ele>
        <time>2026-09-03T08:10:34.535Z</time>
      </trkpt>
      <trkpt lat="49.50391" lon="-1.43676">
        <ele>56.5</ele>
        <time>2026-09-03T08:10:36.536Z</time>
      </trkpt>
      <trkpt lat="49.5039" lon="-1.43675">
        <ele>56.4</ele>
        <time>2026-09-03T08:10:37.541Z</time>
      </trkpt>
      <trkpt lat="49.5039" lon="-1.43671">
        <ele>56.2</ele>
        <time>2026-09-03T08:10:39.535Z</time>
      </trkpt>
      <trkpt lat="49.50389" lon="-1.43669">
        <ele>56.1</ele>
        <time>2026-09-03T08:10:40.536Z</time>
      </trkpt>
      <trkpt lat="49.5039" lon="-1.43665">
        <ele>56</ele>
        <time>2026-09-03T08:10:42.499Z</time>
      </trkpt>
      <trkpt lat="49.5039" lon="-1.43663">
        <ele>55.9</ele>
        <time>2026-09-03T08:10:43.560Z</time>
      </trkpt>
      <trkpt lat="49.5039" lon="-1.43661">
        <ele>55.9</ele>
        <time>2026-09-03T08:10:44.562Z</time>
      </trkpt>
      <trkpt lat="49.5039" lon="-1.43659">
        <ele>55.8</ele>
        <time>2026-09-03T08:10:45.563Z</time>
      </trkpt>
      <trkpt lat="49.5039" lon="-1.43657">
        <ele>55.7</ele>
        <time>2026-09-03T08:10:46.565Z</time>
      </trkpt>
      <trkpt lat="49.50389" lon="-1.43655">
        <ele>55.6</ele>
        <time>2026-09-03T08:10:47.566Z</time>
      </trkpt>
      <trkpt lat="49.50389" lon="-1.43651">
        <ele>55.4</ele>
        <time>2026-09-03T08:10:49.539Z</time>
      </trkpt>
      <trkpt lat="49.50389" lon="-1.43647">
        <ele>55.3</ele>
        <time>2026-09-03T08:10:51.521Z</time>
      </trkpt>
      <trkpt lat="49.50389" lon="-1.43645">
        <ele>55.2</ele>
        <time>2026-09-03T08:10:52.543Z</time>
      </trkpt>
      <trkpt lat="49.50389" lon="-1.43644">
        <ele>55.2</ele>
        <time>2026-09-03T08:10:53.564Z</time>
      </trkpt>
      <trkpt lat="49.50389" lon="-1.43641">
        <ele>55.1</ele>
        <time>2026-09-03T08:10:55.557Z</time>
      </trkpt>
      <trkpt lat="49.50389" lon="-1.43637">
        <ele>55</ele>
        <time>2026-09-03T08:10:57.560Z</time>
      </trkpt>
      <trkpt lat="49.50389" lon="-1.43635">
        <ele>55</ele>
        <time>2026-09-03T08:10:58.560Z</time>
      </trkpt>
      <trkpt lat="49.50388" lon="-1.43632">
        <ele>55.1</ele>
        <time>2026-09-03T08:10:59.562Z</time>
      </trkpt>
      <trkpt lat="49.50388" lon="-1.4363">
        <ele>55.1</ele>
        <time>2026-09-03T08:11:00.564Z</time>
      </trkpt>
      <trkpt lat="49.50387" lon="-1.43627">
        <ele>55.1</ele>
        <time>2026-09-03T08:11:01.599Z</time>
      </trkpt>
      <trkpt lat="49.50387" lon="-1.43623">
        <ele>55.1</ele>
        <time>2026-09-03T08:11:03.568Z</time>
      </trkpt>
      <trkpt lat="49.50386" lon="-1.43621">
        <ele>55.1</ele>
        <time>2026-09-03T08:11:04.569Z</time>
      </trkpt>
      <trkpt lat="49.50386" lon="-1.43619">
        <ele>55.1</ele>
        <time>2026-09-03T08:11:05.571Z</time>
      </trkpt>
      <trkpt lat="49.50385" lon="-1.43617">
        <ele>55.2</ele>
        <time>2026-09-03T08:11:06.572Z</time>
      </trkpt>
      <trkpt lat="49.50385" lon="-1.43615">
        <ele>55.2</ele>
        <time>2026-09-03T08:11:07.573Z</time>
      </trkpt>
      <trkpt lat="49.50384" lon="-1.43611">
        <ele>55.2</ele>
        <time>2026-09-03T08:11:09.566Z</time>
      </trkpt>
      <trkpt lat="49.50384" lon="-1.43607">
        <ele>55.1</ele>
        <time>2026-09-03T08:11:11.533Z</time>
      </trkpt>
      <trkpt lat="49.50383" lon="-1.43603">
        <ele>55.2</ele>
        <time>2026-09-03T08:11:13.522Z</time>
      </trkpt>
      <trkpt lat="49.50383" lon="-1.43601">
        <ele>55.1</ele>
        <time>2026-09-03T08:11:14.543Z</time>
      </trkpt>
      <trkpt lat="49.50382" lon="-1.43599">
        <ele>55.1</ele>
        <time>2026-09-03T08:11:15.604Z</time>
      </trkpt>
      <trkpt lat="49.50382" lon="-1.43597">
        <ele>55.1</ele>
        <time>2026-09-03T08:11:17.567Z</time>
      </trkpt>
      <trkpt lat="49.50381" lon="-1.43593">
        <ele>55.1</ele>
        <time>2026-09-03T08:11:19.533Z</time>
      </trkpt>
      <trkpt lat="49.5038" lon="-1.43591">
        <ele>55.1</ele>
        <time>2026-09-03T08:11:20.571Z</time>
      </trkpt>
      <trkpt lat="49.5038" lon="-1.43589">
        <ele>55.1</ele>
        <time>2026-09-03T08:11:21.573Z</time>
      </trkpt>
      <trkpt lat="49.50379" lon="-1.43587">
        <ele>55</ele>
        <time>2026-09-03T08:11:22.574Z</time>
      </trkpt>
      <trkpt lat="49.50379" lon="-1.43584">
        <ele>55</ele>
        <time>2026-09-03T08:11:23.575Z</time>
      </trkpt>
      <trkpt lat="49.5038" lon="-1.43582">
        <ele>55</ele>
        <time>2026-09-03T08:11:24.576Z</time>
      </trkpt>
      <trkpt lat="49.50379" lon="-1.43579">
        <ele>54.8</ele>
        <time>2026-09-03T08:11:26.499Z</time>
      </trkpt>
      <trkpt lat="49.50379" lon="-1.43577">
        <ele>54.8</ele>
        <time>2026-09-03T08:11:27.561Z</time>
      </trkpt>
      <trkpt lat="49.50379" lon="-1.43574">
        <ele>54.7</ele>
        <time>2026-09-03T08:11:29.539Z</time>
      </trkpt>
      <trkpt lat="49.50379" lon="-1.4357">
        <ele>54.5</ele>
        <time>2026-09-03T08:11:31.486Z</time>
      </trkpt>
      <trkpt lat="49.50378" lon="-1.43568">
        <ele>54.4</ele>
        <time>2026-09-03T08:11:32.558Z</time>
      </trkpt>
      <trkpt lat="49.50378" lon="-1.43565">
        <ele>54.3</ele>
        <time>2026-09-03T08:11:34.534Z</time>
      </trkpt>
      <trkpt lat="49.50377" lon="-1.43561">
        <ele>54.2</ele>
        <time>2026-09-03T08:11:36.540Z</time>
      </trkpt>
      <trkpt lat="49.50376" lon="-1.43557">
        <ele>54.1</ele>
        <time>2026-09-03T08:11:38.535Z</time>
      </trkpt>
      <trkpt lat="49.50376" lon="-1.43556">
        <ele>54</ele>
        <time>2026-09-03T08:11:39.541Z</time>
      </trkpt>
      <trkpt lat="49.50375" lon="-1.43552">
        <ele>53.9</ele>
        <time>2026-09-03T08:11:41.532Z</time>
      </trkpt>
      <trkpt lat="49.50375" lon="-1.4355">
        <ele>53.9</ele>
        <time>2026-09-03T08:11:42.533Z</time>
      </trkpt>
      <trkpt lat="49.50374" lon="-1.43547">
        <ele>53.9</ele>
        <time>2026-09-03T08:11:44.532Z</time>
      </trkpt>
      <trkpt lat="49.50374" lon="-1.43545">
        <ele>53.8</ele>
        <time>2026-09-03T08:11:45.533Z</time>
      </trkpt>
      <trkpt lat="49.50374" lon="-1.43543">
        <ele>53.8</ele>
        <time>2026-09-03T08:11:46.535Z</time>
      </trkpt>
      <trkpt lat="49.50373" lon="-1.43541">
        <ele>53.8</ele>
        <time>2026-09-03T08:11:47.539Z</time>
      </trkpt>
      <trkpt lat="49.50372" lon="-1.43538">
        <ele>53.8</ele>
        <time>2026-09-03T08:11:49.501Z</time>
      </trkpt>
      <trkpt lat="49.50372" lon="-1.43536">
        <ele>53.7</ele>
        <time>2026-09-03T08:11:50.533Z</time>
      </trkpt>
      <trkpt lat="49.50371" lon="-1.43534">
        <ele>53.7</ele>
        <time>2026-09-03T08:11:51.535Z</time>
      </trkpt>
      <trkpt lat="49.5037" lon="-1.43533">
        <ele>53.7</ele>
        <time>2026-09-03T08:11:52.540Z</time>
      </trkpt>
      <trkpt lat="49.5037" lon="-1.43533">
        <ele>53.7</ele>
        <time>2026-09-03T08:11:53.548Z</time>
      </trkpt>
      <trkpt lat="49.5037" lon="-1.43531">
        <ele>53.7</ele>
        <time>2026-09-03T08:11:55.541Z</time>
      </trkpt>
      <trkpt lat="49.50369" lon="-1.43527">
        <ele>53.7</ele>
        <time>2026-09-03T08:11:57.531Z</time>
      </trkpt>
      <trkpt lat="49.50369" lon="-1.43525">
        <ele>53.6</ele>
        <time>2026-09-03T08:11:58.533Z</time>
      </trkpt>
      <trkpt lat="49.50368" lon="-1.43522">
        <ele>53.6</ele>
        <time>2026-09-03T08:11:59.535Z</time>
      </trkpt>
      <trkpt lat="49.50368" lon="-1.4352">
        <ele>53.5</ele>
        <time>2026-09-03T08:12:00.540Z</time>
      </trkpt>
      <trkpt lat="49.50367" lon="-1.43516">
        <ele>53.5</ele>
        <time>2026-09-03T08:12:02.540Z</time>
      </trkpt>
      <trkpt lat="49.50367" lon="-1.43512">
        <ele>53.3</ele>
        <time>2026-09-03T08:12:04.539Z</time>
      </trkpt>
      <trkpt lat="49.50366" lon="-1.43508">
        <ele>53.2</ele>
        <time>2026-09-03T08:12:06.525Z</time>
      </trkpt>
      <trkpt lat="49.50366" lon="-1.43507">
        <ele>53.2</ele>
        <time>2026-09-03T08:12:07.536Z</time>
      </trkpt>
      <trkpt lat="49.50365" lon="-1.43505">
        <ele>53.2</ele>
        <time>2026-09-03T08:12:08.538Z</time>
      </trkpt>
      <trkpt lat="49.50365" lon="-1.43503">
        <ele>53.1</ele>
        <time>2026-09-03T08:12:09.539Z</time>
      </trkpt>
      <trkpt lat="49.50364" lon="-1.435">
        <ele>53</ele>
        <time>2026-09-03T08:12:11.522Z</time>
      </trkpt>
      <trkpt lat="49.50364" lon="-1.43498">
        <ele>53</ele>
        <time>2026-09-03T08:12:12.563Z</time>
      </trkpt>
      <trkpt lat="49.50364" lon="-1.43495">
        <ele>53</ele>
        <time>2026-09-03T08:12:14.530Z</time>
      </trkpt>
      <trkpt lat="49.50363" lon="-1.43493">
        <ele>53</ele>
        <time>2026-09-03T08:12:15.567Z</time>
      </trkpt>
      <trkpt lat="49.50363" lon="-1.43491">
        <ele>53</ele>
        <time>2026-09-03T08:12:16.569Z</time>
      </trkpt>
      <trkpt lat="49.50362" lon="-1.43489">
        <ele>53</ele>
        <time>2026-09-03T08:12:17.570Z</time>
      </trkpt>
      <trkpt lat="49.50362" lon="-1.43487">
        <ele>53</ele>
        <time>2026-09-03T08:12:18.572Z</time>
      </trkpt>
      <trkpt lat="49.50361" lon="-1.43486">
        <ele>53</ele>
        <time>2026-09-03T08:12:19.573Z</time>
      </trkpt>
      <trkpt lat="49.5036" lon="-1.43483">
        <ele>53</ele>
        <time>2026-09-03T08:12:21.534Z</time>
      </trkpt>
      <trkpt lat="49.50358" lon="-1.4348">
        <ele>52.8</ele>
        <time>2026-09-03T08:12:23.518Z</time>
      </trkpt>
      <trkpt lat="49.50357" lon="-1.43478">
        <ele>52.8</ele>
        <time>2026-09-03T08:12:24.560Z</time>
      </trkpt>
      <trkpt lat="49.50357" lon="-1.43475">
        <ele>52.7</ele>
        <time>2026-09-03T08:12:26.535Z</time>
      </trkpt>
      <trkpt lat="49.50356" lon="-1.43471">
        <ele>52.7</ele>
        <time>2026-09-03T08:12:28.485Z</time>
      </trkpt>
      <trkpt lat="49.50355" lon="-1.43469">
        <ele>52.7</ele>
        <time>2026-09-03T08:12:29.577Z</time>
      </trkpt>
      <trkpt lat="49.50355" lon="-1.43466">
        <ele>52.8</ele>
        <time>2026-09-03T08:12:31.536Z</time>
      </trkpt>
      <trkpt lat="49.50355" lon="-1.43462">
        <ele>52.9</ele>
        <time>2026-09-03T08:12:33.538Z</time>
      </trkpt>
      <trkpt lat="49.50355" lon="-1.4346">
        <ele>53</ele>
        <time>2026-09-03T08:12:34.554Z</time>
      </trkpt>
      <trkpt lat="49.50356" lon="-1.43457">
        <ele>53.2</ele>
        <time>2026-09-03T08:12:36.567Z</time>
      </trkpt>
      <trkpt lat="49.50357" lon="-1.43455">
        <ele>53.3</ele>
        <time>2026-09-03T08:12:38.599Z</time>
      </trkpt>
      <trkpt lat="49.5036" lon="-1.43453">
        <ele>53.6</ele>
        <time>2026-09-03T08:12:40.534Z</time>
      </trkpt>
      <trkpt lat="49.50361" lon="-1.43452">
        <ele>53.7</ele>
        <time>2026-09-03T08:12:41.563Z</time>
      </trkpt>
      <trkpt lat="49.50363" lon="-1.4345">
        <ele>53.9</ele>
        <time>2026-09-03T08:12:43.535Z</time>
      </trkpt>
      <trkpt lat="49.50365" lon="-1.43447">
        <ele>54</ele>
        <time>2026-09-03T08:12:45.561Z</time>
      </trkpt>
      <trkpt lat="49.50366" lon="-1.43444">
        <ele>54.2</ele>
        <time>2026-09-03T08:12:47.542Z</time>
      </trkpt>
      <trkpt lat="49.50368" lon="-1.4344">
        <ele>54.4</ele>
        <time>2026-09-03T08:12:49.574Z</time>
      </trkpt>
      <trkpt lat="49.50369" lon="-1.43436">
        <ele>54.6</ele>
        <time>2026-09-03T08:12:51.536Z</time>
      </trkpt>
      <trkpt lat="49.50371" lon="-1.43433">
        <ele>54.8</ele>
        <time>2026-09-03T08:12:53.500Z</time>
      </trkpt>
      <trkpt lat="49.50372" lon="-1.43431">
        <ele>54.9</ele>
        <time>2026-09-03T08:12:54.535Z</time>
      </trkpt>
      <trkpt lat="49.50373" lon="-1.4343">
        <ele>54.9</ele>
        <time>2026-09-03T08:12:55.540Z</time>
      </trkpt>
      <trkpt lat="49.50375" lon="-1.43427">
        <ele>55.1</ele>
        <time>2026-09-03T08:12:57.537Z</time>
      </trkpt>
      <trkpt lat="49.50377" lon="-1.43425">
        <ele>55.3</ele>
        <time>2026-09-03T08:12:59.536Z</time>
      </trkpt>
      <trkpt lat="49.50378" lon="-1.43422">
        <ele>55.4</ele>
        <time>2026-09-03T08:13:01.481Z</time>
      </trkpt>
      <trkpt lat="49.50379" lon="-1.4342">
        <ele>55.5</ele>
        <time>2026-09-03T08:13:02.582Z</time>
      </trkpt>
      <trkpt lat="49.50381" lon="-1.43419">
        <ele>55.6</ele>
        <time>2026-09-03T08:13:04.538Z</time>
      </trkpt>
      <trkpt lat="49.50383" lon="-1.43417">
        <ele>55.8</ele>
        <time>2026-09-03T08:13:06.530Z</time>
      </trkpt>
      <trkpt lat="49.50384" lon="-1.43417">
        <ele>55.8</ele>
        <time>2026-09-03T08:13:07.536Z</time>
      </trkpt>
      <trkpt lat="49.50385" lon="-1.43416">
        <ele>55.9</ele>
        <time>2026-09-03T08:13:08.537Z</time>
      </trkpt>
      <trkpt lat="49.50388" lon="-1.43414">
        <ele>56.1</ele>
        <time>2026-09-03T08:13:10.966Z</time>
      </trkpt>
      <trkpt lat="49.50389" lon="-1.43413">
        <ele>56.1</ele>
        <time>2026-09-03T08:13:12.326Z</time>
      </trkpt>
      <trkpt lat="49.5039" lon="-1.43412">
        <ele>56.2</ele>
        <time>2026-09-03T08:13:13.437Z</time>
      </trkpt>
      <trkpt lat="49.50391" lon="-1.43412">
        <ele>56.2</ele>
        <time>2026-09-03T08:13:14.557Z</time>
      </trkpt>
      <trkpt lat="49.50394" lon="-1.43411">
        <ele>56.2</ele>
        <time>2026-09-03T08:13:16.535Z</time>
      </trkpt>
      <trkpt lat="49.50395" lon="-1.4341">
        <ele>56.3</ele>
        <time>2026-09-03T08:13:17.535Z</time>
      </trkpt>
      <trkpt lat="49.50397" lon="-1.4341">
        <ele>56.3</ele>
        <time>2026-09-03T08:13:18.535Z</time>
      </trkpt>
      <trkpt lat="49.50398" lon="-1.4341">
        <ele>56.3</ele>
        <time>2026-09-03T08:13:19.537Z</time>
      </trkpt>
      <trkpt lat="49.50399" lon="-1.4341">
        <ele>56.3</ele>
        <time>2026-09-03T08:13:20.540Z</time>
      </trkpt>
      <trkpt lat="49.50402" lon="-1.4341">
        <ele>56.4</ele>
        <time>2026-09-03T08:13:22.560Z</time>
      </trkpt>
      <trkpt lat="49.50403" lon="-1.43409">
        <ele>56.4</ele>
        <time>2026-09-03T08:13:23.561Z</time>
      </trkpt>
      <trkpt lat="49.50406" lon="-1.43409">
        <ele>56.4</ele>
        <time>2026-09-03T08:13:25.564Z</time>
      </trkpt>
      <trkpt lat="49.50409" lon="-1.43409">
        <ele>56.5</ele>
        <time>2026-09-03T08:13:27.539Z</time>
      </trkpt>
      <trkpt lat="49.5041" lon="-1.43409">
        <ele>56.5</ele>
        <time>2026-09-03T08:13:28.554Z</time>
      </trkpt>
      <trkpt lat="49.50411" lon="-1.43409">
        <ele>56.5</ele>
        <time>2026-09-03T08:13:29.569Z</time>
      </trkpt>
      <trkpt lat="49.50413" lon="-1.43409">
        <ele>56.5</ele>
        <time>2026-09-03T08:13:31.502Z</time>
      </trkpt>
      <trkpt lat="49.50414" lon="-1.43409">
        <ele>56.5</ele>
        <time>2026-09-03T08:13:32.573Z</time>
      </trkpt>
      <trkpt lat="49.50416" lon="-1.43409">
        <ele>56.5</ele>
        <time>2026-09-03T08:13:34.486Z</time>
      </trkpt>
      <trkpt lat="49.50417" lon="-1.43408">
        <ele>56.6</ele>
        <time>2026-09-03T08:13:35.577Z</time>
      </trkpt>
      <trkpt lat="49.5042" lon="-1.43407">
        <ele>56.7</ele>
        <time>2026-09-03T08:13:37.559Z</time>
      </trkpt>
      <trkpt lat="49.50421" lon="-1.43407">
        <ele>56.6</ele>
        <time>2026-09-03T08:13:38.561Z</time>
      </trkpt>
      <trkpt lat="49.50422" lon="-1.43406">
        <ele>56.7</ele>
        <time>2026-09-03T08:13:39.563Z</time>
      </trkpt>
      <trkpt lat="49.50424" lon="-1.43404">
        <ele>56.8</ele>
        <time>2026-09-03T08:13:41.534Z</time>
      </trkpt>
      <trkpt lat="49.50427" lon="-1.43404">
        <ele>56.7</ele>
        <time>2026-09-03T08:13:43.558Z</time>
      </trkpt>
      <trkpt lat="49.5043" lon="-1.43403">
        <ele>56.7</ele>
        <time>2026-09-03T08:13:45.536Z</time>
      </trkpt>
      <trkpt lat="49.50432" lon="-1.43402">
        <ele>56.8</ele>
        <time>2026-09-03T08:13:47.524Z</time>
      </trkpt>
      <trkpt lat="49.50434" lon="-1.43401">
        <ele>56.8</ele>
        <time>2026-09-03T08:13:48.575Z</time>
      </trkpt>
      <trkpt lat="49.50436" lon="-1.434">
        <ele>56.8</ele>
        <time>2026-09-03T08:13:50.532Z</time>
      </trkpt>
      <trkpt lat="49.50437" lon="-1.43399">
        <ele>56.8</ele>
        <time>2026-09-03T08:13:51.559Z</time>
      </trkpt>
      <trkpt lat="49.50439" lon="-1.43399">
        <ele>56.8</ele>
        <time>2026-09-03T08:13:52.561Z</time>
      </trkpt>
      <trkpt lat="49.50441" lon="-1.43398">
        <ele>56.8</ele>
        <time>2026-09-03T08:13:54.535Z</time>
      </trkpt>
      <trkpt lat="49.50443" lon="-1.43398">
        <ele>56.7</ele>
        <time>2026-09-03T08:13:55.535Z</time>
      </trkpt>
      <trkpt lat="49.50445" lon="-1.43397">
        <ele>56.7</ele>
        <time>2026-09-03T08:13:57.497Z</time>
      </trkpt>
      <trkpt lat="49.50447" lon="-1.43396">
        <ele>56.8</ele>
        <time>2026-09-03T08:13:58.559Z</time>
      </trkpt>
      <trkpt lat="49.50449" lon="-1.43396">
        <ele>56.9</ele>
        <time>2026-09-03T08:14:00.532Z</time>
      </trkpt>
      <trkpt lat="49.50452" lon="-1.43395">
        <ele>57.1</ele>
        <time>2026-09-03T08:14:02.610Z</time>
      </trkpt>
      <trkpt lat="49.50455" lon="-1.43394">
        <ele>57.2</ele>
        <time>2026-09-03T08:14:04.534Z</time>
      </trkpt>
      <trkpt lat="49.50456" lon="-1.43394">
        <ele>57.2</ele>
        <time>2026-09-03T08:14:05.535Z</time>
      </trkpt>
      <trkpt lat="49.50457" lon="-1.43392">
        <ele>57.3</ele>
        <time>2026-09-03T08:14:06.535Z</time>
      </trkpt>
      <trkpt lat="49.50458" lon="-1.43391">
        <ele>57.4</ele>
        <time>2026-09-03T08:14:07.540Z</time>
      </trkpt>
      <trkpt lat="49.50459" lon="-1.43391">
        <ele>57.4</ele>
        <time>2026-09-03T08:14:08.540Z</time>
      </trkpt>
      <trkpt lat="49.50462" lon="-1.4339">
        <ele>57.6</ele>
        <time>2026-09-03T08:14:10.536Z</time>
      </trkpt>
      <trkpt lat="49.50464" lon="-1.43389">
        <ele>57.7</ele>
        <time>2026-09-03T08:14:12.538Z</time>
      </trkpt>
      <trkpt lat="49.50466" lon="-1.43389">
        <ele>57.8</ele>
        <time>2026-09-03T08:14:13.549Z</time>
      </trkpt>
      <trkpt lat="49.50467" lon="-1.43388">
        <ele>57.9</ele>
        <time>2026-09-03T08:14:14.551Z</time>
      </trkpt>
      <trkpt lat="49.50468" lon="-1.43388">
        <ele>57.9</ele>
        <time>2026-09-03T08:14:15.552Z</time>
      </trkpt>
      <trkpt lat="49.50469" lon="-1.43388">
        <ele>57.9</ele>
        <time>2026-09-03T08:14:16.553Z</time>
      </trkpt>
      <trkpt lat="49.50472" lon="-1.43386">
        <ele>58.1</ele>
        <time>2026-09-03T08:14:18.566Z</time>
      </trkpt>
      <trkpt lat="49.50474" lon="-1.43386">
        <ele>58.1</ele>
        <time>2026-09-03T08:14:20.558Z</time>
      </trkpt>
      <trkpt lat="49.50475" lon="-1.43385">
        <ele>58.1</ele>
        <time>2026-09-03T08:14:21.560Z</time>
      </trkpt>
      <trkpt lat="49.50478" lon="-1.43384">
        <ele>58.2</ele>
        <time>2026-09-03T08:14:23.603Z</time>
      </trkpt>
      <trkpt lat="49.5048" lon="-1.43383">
        <ele>58.2</ele>
        <time>2026-09-03T08:14:25.535Z</time>
      </trkpt>
      <trkpt lat="49.50482" lon="-1.43382">
        <ele>58.2</ele>
        <time>2026-09-03T08:14:27.518Z</time>
      </trkpt>
      <trkpt lat="49.50485" lon="-1.43381">
        <ele>58.3</ele>
        <time>2026-09-03T08:14:29.537Z</time>
      </trkpt>
      <trkpt lat="49.50488" lon="-1.43381">
        <ele>58.3</ele>
        <time>2026-09-03T08:14:31.524Z</time>
      </trkpt>
      <trkpt lat="49.50489" lon="-1.4338">
        <ele>58.3</ele>
        <time>2026-09-03T08:14:32.536Z</time>
      </trkpt>
      <trkpt lat="49.50492" lon="-1.4338">
        <ele>58.3</ele>
        <time>2026-09-03T08:14:34.535Z</time>
      </trkpt>
      <trkpt lat="49.50493" lon="-1.4338">
        <ele>58.3</ele>
        <time>2026-09-03T08:14:35.579Z</time>
      </trkpt>
      <trkpt lat="49.50495" lon="-1.43379">
        <ele>58.4</ele>
        <time>2026-09-03T08:14:37.535Z</time>
      </trkpt>
      <trkpt lat="49.50496" lon="-1.43379">
        <ele>58.4</ele>
        <time>2026-09-03T08:14:38.535Z</time>
      </trkpt>
      <trkpt lat="49.50498" lon="-1.43379">
        <ele>58.4</ele>
        <time>2026-09-03T08:14:39.535Z</time>
      </trkpt>
      <trkpt lat="49.505" lon="-1.43378">
        <ele>58.4</ele>
        <time>2026-09-03T08:14:41.517Z</time>
      </trkpt>
      <trkpt lat="49.50502" lon="-1.43378">
        <ele>58.4</ele>
        <time>2026-09-03T08:14:42.534Z</time>
      </trkpt>
      <trkpt lat="49.50504" lon="-1.43377">
        <ele>58.4</ele>
        <time>2026-09-03T08:14:44.461Z</time>
      </trkpt>
      <trkpt lat="49.50505" lon="-1.43376">
        <ele>58.5</ele>
        <time>2026-09-03T08:14:45.523Z</time>
      </trkpt>
      <trkpt lat="49.50506" lon="-1.43376">
        <ele>58.5</ele>
        <time>2026-09-03T08:14:46.535Z</time>
      </trkpt>
      <trkpt lat="49.50509" lon="-1.43376">
        <ele>58.5</ele>
        <time>2026-09-03T08:14:48.539Z</time>
      </trkpt>
      <trkpt lat="49.5051" lon="-1.43376">
        <ele>58.5</ele>
        <time>2026-09-03T08:14:49.543Z</time>
      </trkpt>
      <trkpt lat="49.50512" lon="-1.43375">
        <ele>58.5</ele>
        <time>2026-09-03T08:14:51.538Z</time>
      </trkpt>
      <trkpt lat="49.50515" lon="-1.43374">
        <ele>58.5</ele>
        <time>2026-09-03T08:14:53.444Z</time>
      </trkpt>
      <trkpt lat="49.50516" lon="-1.43373">
        <ele>58.6</ele>
        <time>2026-09-03T08:14:54.545Z</time>
      </trkpt>
      <trkpt lat="49.50517" lon="-1.43373">
        <ele>58.6</ele>
        <time>2026-09-03T08:14:55.547Z</time>
      </trkpt>
      <trkpt lat="49.50518" lon="-1.43372">
        <ele>58.6</ele>
        <time>2026-09-03T08:14:56.548Z</time>
      </trkpt>
      <trkpt lat="49.50519" lon="-1.43372">
        <ele>58.6</ele>
        <time>2026-09-03T08:14:57.569Z</time>
      </trkpt>
      <trkpt lat="49.50521" lon="-1.43372">
        <ele>58.6</ele>
        <time>2026-09-03T08:14:59.572Z</time>
      </trkpt>
      <trkpt lat="49.50525" lon="-1.43372">
        <ele>58.6</ele>
        <time>2026-09-03T08:15:01.595Z</time>
      </trkpt>
      <trkpt lat="49.50527" lon="-1.43372">
        <ele>58.6</ele>
        <time>2026-09-03T08:15:03.539Z</time>
      </trkpt>
      <trkpt lat="49.50528" lon="-1.43371">
        <ele>58.6</ele>
        <time>2026-09-03T08:15:04.541Z</time>
      </trkpt>
      <trkpt lat="49.5053" lon="-1.43371">
        <ele>58.6</ele>
        <time>2026-09-03T08:15:06.536Z</time>
      </trkpt>
      <trkpt lat="49.50533" lon="-1.43373">
        <ele>58.6</ele>
        <time>2026-09-03T08:15:08.542Z</time>
      </trkpt>
      <trkpt lat="49.50534" lon="-1.43374">
        <ele>58.5</ele>
        <time>2026-09-03T08:15:09.542Z</time>
      </trkpt>
      <trkpt lat="49.50535" lon="-1.43374">
        <ele>58.5</ele>
        <time>2026-09-03T08:15:10.548Z</time>
      </trkpt>
      <trkpt lat="49.50538" lon="-1.43375">
        <ele>58.5</ele>
        <time>2026-09-03T08:15:12.560Z</time>
      </trkpt>
      <trkpt lat="49.50541" lon="-1.43376">
        <ele>58.5</ele>
        <time>2026-09-03T08:15:14.538Z</time>
      </trkpt>
      <trkpt lat="49.50544" lon="-1.43377">
        <ele>58.4</ele>
        <time>2026-09-03T08:15:16.541Z</time>
      </trkpt>
      <trkpt lat="49.50545" lon="-1.43376">
        <ele>58.5</ele>
        <time>2026-09-03T08:15:17.541Z</time>
      </trkpt>
      <trkpt lat="49.50546" lon="-1.43377">
        <ele>58.4</ele>
        <time>2026-09-03T08:15:18.558Z</time>
      </trkpt>
      <trkpt lat="49.50547" lon="-1.43376">
        <ele>58.5</ele>
        <time>2026-09-03T08:15:19.599Z</time>
      </trkpt>
      <trkpt lat="49.50549" lon="-1.43376">
        <ele>58.5</ele>
        <time>2026-09-03T08:15:21.481Z</time>
      </trkpt>
      <trkpt lat="49.5055" lon="-1.43376">
        <ele>58.5</ele>
        <time>2026-09-03T08:15:22.563Z</time>
      </trkpt>
      <trkpt lat="49.50551" lon="-1.43376">
        <ele>58.5</ele>
        <time>2026-09-03T08:15:23.565Z</time>
      </trkpt>
      <trkpt lat="49.50553" lon="-1.43376">
        <ele>58.5</ele>
        <time>2026-09-03T08:15:24.566Z</time>
      </trkpt>
      <trkpt lat="49.50555" lon="-1.43377">
        <ele>58.4</ele>
        <time>2026-09-03T08:15:25.608Z</time>
      </trkpt>
      <trkpt lat="49.50557" lon="-1.43377">
        <ele>58.4</ele>
        <time>2026-09-03T08:15:27.539Z</time>
      </trkpt>
      <trkpt lat="49.50558" lon="-1.43377">
        <ele>58.4</ele>
        <time>2026-09-03T08:15:28.540Z</time>
      </trkpt>
      <trkpt lat="49.50559" lon="-1.43377">
        <ele>58.4</ele>
        <time>2026-09-03T08:15:29.547Z</time>
      </trkpt>
      <trkpt lat="49.50561" lon="-1.43378">
        <ele>58.4</ele>
        <time>2026-09-03T08:15:31.533Z</time>
      </trkpt>
      <trkpt lat="49.50562" lon="-1.43378">
        <ele>58.4</ele>
        <time>2026-09-03T08:15:32.539Z</time>
      </trkpt>
      <trkpt lat="49.50565" lon="-1.43379">
        <ele>58.4</ele>
        <time>2026-09-03T08:15:34.560Z</time>
      </trkpt>
      <trkpt lat="49.50568" lon="-1.43381">
        <ele>58.3</ele>
        <time>2026-09-03T08:15:36.539Z</time>
      </trkpt>
      <trkpt lat="49.50571" lon="-1.43383">
        <ele>58.2</ele>
        <time>2026-09-03T08:15:38.539Z</time>
      </trkpt>
      <trkpt lat="49.50573" lon="-1.43385">
        <ele>58.1</ele>
        <time>2026-09-03T08:15:40.534Z</time>
      </trkpt>
      <trkpt lat="49.50575" lon="-1.43385">
        <ele>58.1</ele>
        <time>2026-09-03T08:15:41.539Z</time>
      </trkpt>
      <trkpt lat="49.50577" lon="-1.43386">
        <ele>58.1</ele>
        <time>2026-09-03T08:15:43.539Z</time>
      </trkpt>
      <trkpt lat="49.50579" lon="-1.43387">
        <ele>58.1</ele>
        <time>2026-09-03T08:15:45.540Z</time>
      </trkpt>
      <trkpt lat="49.50582" lon="-1.43388">
        <ele>58</ele>
        <time>2026-09-03T08:15:47.478Z</time>
      </trkpt>
      <trkpt lat="49.50583" lon="-1.43389">
        <ele>58</ele>
        <time>2026-09-03T08:15:48.538Z</time>
      </trkpt>
      <trkpt lat="49.50585" lon="-1.43388">
        <ele>58</ele>
        <time>2026-09-03T08:15:49.538Z</time>
      </trkpt>
      <trkpt lat="49.50586" lon="-1.43389">
        <ele>57.9</ele>
        <time>2026-09-03T08:15:50.539Z</time>
      </trkpt>
      <trkpt lat="49.50588" lon="-1.4339">
        <ele>57.8</ele>
        <time>2026-09-03T08:15:52.550Z</time>
      </trkpt>
      <trkpt lat="49.5059" lon="-1.43391">
        <ele>57.8</ele>
        <time>2026-09-03T08:15:54.531Z</time>
      </trkpt>
      <trkpt lat="49.50591" lon="-1.43391">
        <ele>57.7</ele>
        <time>2026-09-03T08:15:55.532Z</time>
      </trkpt>
      <trkpt lat="49.50593" lon="-1.43391">
        <ele>57.7</ele>
        <time>2026-09-03T08:15:56.532Z</time>
      </trkpt>
      <trkpt lat="49.50595" lon="-1.4339">
        <ele>57.6</ele>
        <time>2026-09-03T08:15:57.536Z</time>
      </trkpt>
      <trkpt lat="49.50596" lon="-1.4339">
        <ele>57.5</ele>
        <time>2026-09-03T08:15:58.538Z</time>
      </trkpt>
      <trkpt lat="49.50597" lon="-1.4339">
        <ele>57.5</ele>
        <time>2026-09-03T08:15:59.540Z</time>
      </trkpt>
      <trkpt lat="49.50599" lon="-1.4339">
        <ele>57.4</ele>
        <time>2026-09-03T08:16:01.543Z</time>
      </trkpt>
      <trkpt lat="49.50602" lon="-1.43391">
        <ele>57.3</ele>
        <time>2026-09-03T08:16:03.481Z</time>
      </trkpt>
      <trkpt lat="49.50603" lon="-1.43391">
        <ele>57.3</ele>
        <time>2026-09-03T08:16:04.542Z</time>
      </trkpt>
      <trkpt lat="49.50605" lon="-1.43392">
        <ele>57.2</ele>
        <time>2026-09-03T08:16:06.405Z</time>
      </trkpt>
      <trkpt lat="49.50606" lon="-1.43393">
        <ele>57.2</ele>
        <time>2026-09-03T08:16:07.466Z</time>
      </trkpt>
      <trkpt lat="49.50608" lon="-1.43394">
        <ele>57.1</ele>
        <time>2026-09-03T08:16:08.558Z</time>
      </trkpt>
      <trkpt lat="49.5061" lon="-1.43395">
        <ele>57</ele>
        <time>2026-09-03T08:16:10.551Z</time>
      </trkpt>
      <trkpt lat="49.50612" lon="-1.43395">
        <ele>57</ele>
        <time>2026-09-03T08:16:11.552Z</time>
      </trkpt>
      <trkpt lat="49.50613" lon="-1.43395">
        <ele>56.9</ele>
        <time>2026-09-03T08:16:12.553Z</time>
      </trkpt>
      <trkpt lat="49.50614" lon="-1.43395">
        <ele>56.9</ele>
        <time>2026-09-03T08:16:13.555Z</time>
      </trkpt>
      <trkpt lat="49.50615" lon="-1.43395">
        <ele>56.9</ele>
        <time>2026-09-03T08:16:14.556Z</time>
      </trkpt>
      <trkpt lat="49.50616" lon="-1.43395">
        <ele>56.8</ele>
        <time>2026-09-03T08:16:15.558Z</time>
      </trkpt>
      <trkpt lat="49.50618" lon="-1.43395">
        <ele>56.8</ele>
        <time>2026-09-03T08:16:16.559Z</time>
      </trkpt>
      <trkpt lat="49.50619" lon="-1.43395">
        <ele>56.7</ele>
        <time>2026-09-03T08:16:17.560Z</time>
      </trkpt>
      <trkpt lat="49.5062" lon="-1.43395">
        <ele>56.7</ele>
        <time>2026-09-03T08:16:18.562Z</time>
      </trkpt>
      <trkpt lat="49.50622" lon="-1.43395">
        <ele>56.6</ele>
        <time>2026-09-03T08:16:20.545Z</time>
      </trkpt>
      <trkpt lat="49.50624" lon="-1.43396">
        <ele>56.5</ele>
        <time>2026-09-03T08:16:21.566Z</time>
      </trkpt>
      <trkpt lat="49.50625" lon="-1.43397">
        <ele>56.5</ele>
        <time>2026-09-03T08:16:22.567Z</time>
      </trkpt>
      <trkpt lat="49.50626" lon="-1.43397">
        <ele>56.5</ele>
        <time>2026-09-03T08:16:23.569Z</time>
      </trkpt>
      <trkpt lat="49.50627" lon="-1.43398">
        <ele>56.4</ele>
        <time>2026-09-03T08:16:24.570Z</time>
      </trkpt>
      <trkpt lat="49.50628" lon="-1.43398">
        <ele>56.4</ele>
        <time>2026-09-03T08:16:25.572Z</time>
      </trkpt>
      <trkpt lat="49.50631" lon="-1.43399">
        <ele>56.3</ele>
        <time>2026-09-03T08:16:27.564Z</time>
      </trkpt>
      <trkpt lat="49.50633" lon="-1.434">
        <ele>56.2</ele>
        <time>2026-09-03T08:16:29.534Z</time>
      </trkpt>
      <trkpt lat="49.50635" lon="-1.434">
        <ele>56.1</ele>
        <time>2026-09-03T08:16:30.579Z</time>
      </trkpt>
      <trkpt lat="49.50637" lon="-1.43402">
        <ele>56.1</ele>
        <time>2026-09-03T08:16:32.535Z</time>
      </trkpt>
      <trkpt lat="49.50638" lon="-1.43402">
        <ele>56</ele>
        <time>2026-09-03T08:16:33.540Z</time>
      </trkpt>
      <trkpt lat="49.50641" lon="-1.43403">
        <ele>56</ele>
        <time>2026-09-03T08:16:35.536Z</time>
      </trkpt>
      <trkpt lat="49.50643" lon="-1.43403">
        <ele>55.9</ele>
        <time>2026-09-03T08:16:37.535Z</time>
      </trkpt>
      <trkpt lat="49.50645" lon="-1.43404">
        <ele>55.9</ele>
        <time>2026-09-03T08:16:38.541Z</time>
      </trkpt>
      <trkpt lat="49.50647" lon="-1.43405">
        <ele>55.9</ele>
        <time>2026-09-03T08:16:40.539Z</time>
      </trkpt>
      <trkpt lat="49.5065" lon="-1.43405">
        <ele>55.8</ele>
        <time>2026-09-03T08:16:42.505Z</time>
      </trkpt>
      <trkpt lat="49.50651" lon="-1.43406">
        <ele>55.8</ele>
        <time>2026-09-03T08:16:43.567Z</time>
      </trkpt>
      <trkpt lat="49.50653" lon="-1.43407">
        <ele>55.8</ele>
        <time>2026-09-03T08:16:45.531Z</time>
      </trkpt>
      <trkpt lat="49.50655" lon="-1.43407">
        <ele>55.8</ele>
        <time>2026-09-03T08:16:46.536Z</time>
      </trkpt>
      <trkpt lat="49.50657" lon="-1.43407">
        <ele>55.8</ele>
        <time>2026-09-03T08:16:48.484Z</time>
      </trkpt>
      <trkpt lat="49.50659" lon="-1.43407">
        <ele>55.7</ele>
        <time>2026-09-03T08:16:49.545Z</time>
      </trkpt>
      <trkpt lat="49.50661" lon="-1.43408">
        <ele>55.8</ele>
        <time>2026-09-03T08:16:51.578Z</time>
      </trkpt>
      <trkpt lat="49.50663" lon="-1.43407">
        <ele>55.7</ele>
        <time>2026-09-03T08:16:53.537Z</time>
      </trkpt>
      <trkpt lat="49.50665" lon="-1.43407">
        <ele>55.7</ele>
        <time>2026-09-03T08:16:55.533Z</time>
      </trkpt>
      <trkpt lat="49.50667" lon="-1.43407">
        <ele>55.7</ele>
        <time>2026-09-03T08:16:56.538Z</time>
      </trkpt>
      <trkpt lat="49.50668" lon="-1.43408">
        <ele>55.7</ele>
        <time>2026-09-03T08:16:57.539Z</time>
      </trkpt>
      <trkpt lat="49.50671" lon="-1.43407">
        <ele>55.7</ele>
        <time>2026-09-03T08:16:59.534Z</time>
      </trkpt>
      <trkpt lat="49.50673" lon="-1.43405">
        <ele>55.7</ele>
        <time>2026-09-03T08:17:01.531Z</time>
      </trkpt>
      <trkpt lat="49.50674" lon="-1.43403">
        <ele>55.6</ele>
        <time>2026-09-03T08:17:02.541Z</time>
      </trkpt>
      <trkpt lat="49.50675" lon="-1.434">
        <ele>55.6</ele>
        <time>2026-09-03T08:17:04.446Z</time>
      </trkpt>
      <trkpt lat="49.50675" lon="-1.43398">
        <ele>55.5</ele>
        <time>2026-09-03T08:17:05.538Z</time>
      </trkpt>
      <trkpt lat="49.50676" lon="-1.43394">
        <ele>55.5</ele>
        <time>2026-09-03T08:17:07.531Z</time>
      </trkpt>
      <trkpt lat="49.50677" lon="-1.43392">
        <ele>55.4</ele>
        <time>2026-09-03T08:17:08.534Z</time>
      </trkpt>
      <trkpt lat="49.50677" lon="-1.43391">
        <ele>55.4</ele>
        <time>2026-09-03T08:17:09.535Z</time>
      </trkpt>
      <trkpt lat="49.50678" lon="-1.43387">
        <ele>55.4</ele>
        <time>2026-09-03T08:17:11.540Z</time>
      </trkpt>
      <trkpt lat="49.50679" lon="-1.43384">
        <ele>55.5</ele>
        <time>2026-09-03T08:17:13.540Z</time>
      </trkpt>
      <trkpt lat="49.50679" lon="-1.43382">
        <ele>55.6</ele>
        <time>2026-09-03T08:17:14.540Z</time>
      </trkpt>
      <trkpt lat="49.5068" lon="-1.43379">
        <ele>55.7</ele>
        <time>2026-09-03T08:17:16.543Z</time>
      </trkpt>
      <trkpt lat="49.50681" lon="-1.43378">
        <ele>55.7</ele>
        <time>2026-09-03T08:17:17.545Z</time>
      </trkpt>
      <trkpt lat="49.50682" lon="-1.43377">
        <ele>55.7</ele>
        <time>2026-09-03T08:17:18.546Z</time>
      </trkpt>
      <trkpt lat="49.50683" lon="-1.43375">
        <ele>55.8</ele>
        <time>2026-09-03T08:17:19.548Z</time>
      </trkpt>
      <trkpt lat="49.50683" lon="-1.43373">
        <ele>55.8</ele>
        <time>2026-09-03T08:17:20.549Z</time>
      </trkpt>
      <trkpt lat="49.50682" lon="-1.43371">
        <ele>55.8</ele>
        <time>2026-09-03T08:17:21.550Z</time>
      </trkpt>
      <trkpt lat="49.50681" lon="-1.43367">
        <ele>55.9</ele>
        <time>2026-09-03T08:17:23.553Z</time>
      </trkpt>
      <trkpt lat="49.5068" lon="-1.43365">
        <ele>55.9</ele>
        <time>2026-09-03T08:17:24.555Z</time>
      </trkpt>
      <trkpt lat="49.5068" lon="-1.43361">
        <ele>56</ele>
        <time>2026-09-03T08:17:26.517Z</time>
      </trkpt>
      <trkpt lat="49.50679" lon="-1.43359">
        <ele>56</ele>
        <time>2026-09-03T08:17:27.559Z</time>
      </trkpt>
      <trkpt lat="49.50679" lon="-1.43358">
        <ele>56</ele>
        <time>2026-09-03T08:17:28.560Z</time>
      </trkpt>
      <trkpt lat="49.5068" lon="-1.43356">
        <ele>56</ele>
        <time>2026-09-03T08:17:29.561Z</time>
      </trkpt>
      <trkpt lat="49.5068" lon="-1.43354">
        <ele>56</ele>
        <time>2026-09-03T08:17:30.563Z</time>
      </trkpt>
      <trkpt lat="49.50679" lon="-1.43351">
        <ele>56</ele>
        <time>2026-09-03T08:17:32.566Z</time>
      </trkpt>
      <trkpt lat="49.50679" lon="-1.43348">
        <ele>56</ele>
        <time>2026-09-03T08:17:34.479Z</time>
      </trkpt>
      <trkpt lat="49.50679" lon="-1.43346">
        <ele>56</ele>
        <time>2026-09-03T08:17:35.570Z</time>
      </trkpt>
      <trkpt lat="49.50679" lon="-1.43345">
        <ele>56</ele>
        <time>2026-09-03T08:17:36.571Z</time>
      </trkpt>
      <trkpt lat="49.50679" lon="-1.43344">
        <ele>56</ele>
        <time>2026-09-03T08:17:37.573Z</time>
      </trkpt>
      <trkpt lat="49.50679" lon="-1.43342">
        <ele>56</ele>
        <time>2026-09-03T08:17:38.574Z</time>
      </trkpt>
      <trkpt lat="49.50679" lon="-1.4334">
        <ele>56</ele>
        <time>2026-09-03T08:17:39.576Z</time>
      </trkpt>
      <trkpt lat="49.50678" lon="-1.43338">
        <ele>56</ele>
        <time>2026-09-03T08:17:41.534Z</time>
      </trkpt>
      <trkpt lat="49.50678" lon="-1.43336">
        <ele>56</ele>
        <time>2026-09-03T08:17:42.534Z</time>
      </trkpt>
      <trkpt lat="49.50678" lon="-1.43332">
        <ele>56</ele>
        <time>2026-09-03T08:17:44.546Z</time>
      </trkpt>
      <trkpt lat="49.50678" lon="-1.43329">
        <ele>56</ele>
        <time>2026-09-03T08:17:46.532Z</time>
      </trkpt>
      <trkpt lat="49.50678" lon="-1.43327">
        <ele>56</ele>
        <time>2026-09-03T08:17:47.538Z</time>
      </trkpt>
      <trkpt lat="49.5068" lon="-1.43324">
        <ele>56</ele>
        <time>2026-09-03T08:17:49.536Z</time>
      </trkpt>
      <trkpt lat="49.50681" lon="-1.43323">
        <ele>56</ele>
        <time>2026-09-03T08:17:50.536Z</time>
      </trkpt>
      <trkpt lat="49.50683" lon="-1.4332">
        <ele>56</ele>
        <time>2026-09-03T08:17:52.536Z</time>
      </trkpt>
      <trkpt lat="49.50684" lon="-1.43319">
        <ele>56</ele>
        <time>2026-09-03T08:17:53.536Z</time>
      </trkpt>
      <trkpt lat="49.50685" lon="-1.43318">
        <ele>56</ele>
        <time>2026-09-03T08:17:54.536Z</time>
      </trkpt>
      <trkpt lat="49.50686" lon="-1.43317">
        <ele>56</ele>
        <time>2026-09-03T08:17:55.536Z</time>
      </trkpt>
      <trkpt lat="49.50687" lon="-1.43316">
        <ele>56</ele>
        <time>2026-09-03T08:17:56.536Z</time>
      </trkpt>
      <trkpt lat="49.50689" lon="-1.43314">
        <ele>56</ele>
        <time>2026-09-03T08:17:57.536Z</time>
      </trkpt>
      <trkpt lat="49.5069" lon="-1.43314">
        <ele>56</ele>
        <time>2026-09-03T08:17:58.536Z</time>
      </trkpt>
      <trkpt lat="49.50692" lon="-1.43312">
        <ele>56</ele>
        <time>2026-09-03T08:18:00.536Z</time>
      </trkpt>
      <trkpt lat="49.50693" lon="-1.43312">
        <ele>56</ele>
        <time>2026-09-03T08:18:01.536Z</time>
      </trkpt>
      <trkpt lat="49.50694" lon="-1.43311">
        <ele>56</ele>
        <time>2026-09-03T08:18:02.536Z</time>
      </trkpt>
      <trkpt lat="49.50695" lon="-1.4331">
        <ele>56</ele>
        <time>2026-09-03T08:18:03.536Z</time>
      </trkpt>
      <trkpt lat="49.50697" lon="-1.43307">
        <ele>56.1</ele>
        <time>2026-09-03T08:18:05.536Z</time>
      </trkpt>
      <trkpt lat="49.50697" lon="-1.43306">
        <ele>56.1</ele>
        <time>2026-09-03T08:18:06.536Z</time>
      </trkpt>
      <trkpt lat="49.50697" lon="-1.43304">
        <ele>56.1</ele>
        <time>2026-09-03T08:18:07.536Z</time>
      </trkpt>
      <trkpt lat="49.50698" lon="-1.43302">
        <ele>56.1</ele>
        <time>2026-09-03T08:18:09.536Z</time>
      </trkpt>
      <trkpt lat="49.50699" lon="-1.43301">
        <ele>56.1</ele>
        <time>2026-09-03T08:18:10.536Z</time>
      </trkpt>
      <trkpt lat="49.507" lon="-1.433">
        <ele>56.2</ele>
        <time>2026-09-03T08:18:11.536Z</time>
      </trkpt>
      <trkpt lat="49.50701" lon="-1.43299">
        <ele>56.2</ele>
        <time>2026-09-03T08:18:12.536Z</time>
      </trkpt>
      <trkpt lat="49.50702" lon="-1.43297">
        <ele>56.2</ele>
        <time>2026-09-03T08:18:14.535Z</time>
      </trkpt>
      <trkpt lat="49.50703" lon="-1.43296">
        <ele>56.2</ele>
        <time>2026-09-03T08:18:15.567Z</time>
      </trkpt>
      <trkpt lat="49.50705" lon="-1.43294">
        <ele>56.2</ele>
        <time>2026-09-03T08:18:17.536Z</time>
      </trkpt>
      <trkpt lat="49.50706" lon="-1.43293">
        <ele>56.2</ele>
        <time>2026-09-03T08:18:18.536Z</time>
      </trkpt>
      <trkpt lat="49.50708" lon="-1.43292">
        <ele>56.2</ele>
        <time>2026-09-03T08:18:20.536Z</time>
      </trkpt>
      <trkpt lat="49.50709" lon="-1.4329">
        <ele>56.2</ele>
        <time>2026-09-03T08:18:22.536Z</time>
      </trkpt>
      <trkpt lat="49.5071" lon="-1.43289">
        <ele>56.2</ele>
        <time>2026-09-03T08:18:23.536Z</time>
      </trkpt>
      <trkpt lat="49.50711" lon="-1.43288">
        <ele>56.2</ele>
        <time>2026-09-03T08:18:24.536Z</time>
      </trkpt>
      <trkpt lat="49.50712" lon="-1.43288">
        <ele>56.2</ele>
        <time>2026-09-03T08:18:25.536Z</time>
      </trkpt>
      <trkpt lat="49.50713" lon="-1.43285">
        <ele>56.2</ele>
        <time>2026-09-03T08:18:27.536Z</time>
      </trkpt>
      <trkpt lat="49.50714" lon="-1.43284">
        <ele>56.2</ele>
        <time>2026-09-03T08:18:28.536Z</time>
      </trkpt>
      <trkpt lat="49.50716" lon="-1.43282">
        <ele>56.1</ele>
        <time>2026-09-03T08:18:30.536Z</time>
      </trkpt>
      <trkpt lat="49.50717" lon="-1.43281">
        <ele>56.1</ele>
        <time>2026-09-03T08:18:31.536Z</time>
      </trkpt>
      <trkpt lat="49.50718" lon="-1.4328">
        <ele>56.1</ele>
        <time>2026-09-03T08:18:32.536Z</time>
      </trkpt>
      <trkpt lat="49.50719" lon="-1.43279">
        <ele>56</ele>
        <time>2026-09-03T08:18:33.536Z</time>
      </trkpt>
      <trkpt lat="49.5072" lon="-1.43278">
        <ele>56</ele>
        <time>2026-09-03T08:18:34.543Z</time>
      </trkpt>
      <trkpt lat="49.50722" lon="-1.43277">
        <ele>56</ele>
        <time>2026-09-03T08:18:36.536Z</time>
      </trkpt>
      <trkpt lat="49.50722" lon="-1.43276">
        <ele>56</ele>
        <time>2026-09-03T08:18:37.536Z</time>
      </trkpt>
      <trkpt lat="49.50724" lon="-1.43275">
        <ele>56.1</ele>
        <time>2026-09-03T08:18:38.536Z</time>
      </trkpt>
      <trkpt lat="49.50725" lon="-1.43275">
        <ele>56.1</ele>
        <time>2026-09-03T08:18:39.536Z</time>
      </trkpt>
      <trkpt lat="49.50726" lon="-1.43275">
        <ele>56.1</ele>
        <time>2026-09-03T08:18:40.536Z</time>
      </trkpt>
      <trkpt lat="49.50727" lon="-1.43273">
        <ele>56.2</ele>
        <time>2026-09-03T08:18:42.536Z</time>
      </trkpt>
      <trkpt lat="49.50729" lon="-1.43271">
        <ele>56.2</ele>
        <time>2026-09-03T08:18:44.537Z</time>
      </trkpt>
      <trkpt lat="49.5073" lon="-1.43269">
        <ele>56.3</ele>
        <time>2026-09-03T08:18:46.536Z</time>
      </trkpt>
      <trkpt lat="49.50731" lon="-1.43268">
        <ele>56.3</ele>
        <time>2026-09-03T08:18:47.536Z</time>
      </trkpt>
      <trkpt lat="49.50733" lon="-1.43266">
        <ele>56.4</ele>
        <time>2026-09-03T08:18:49.536Z</time>
      </trkpt>
      <trkpt lat="49.50735" lon="-1.43264">
        <ele>56.5</ele>
        <time>2026-09-03T08:18:51.536Z</time>
      </trkpt>
      <trkpt lat="49.50735" lon="-1.43263">
        <ele>56.5</ele>
        <time>2026-09-03T08:18:52.536Z</time>
      </trkpt>
      <trkpt lat="49.50736" lon="-1.43262">
        <ele>56.5</ele>
        <time>2026-09-03T08:18:53.536Z</time>
      </trkpt>
      <trkpt lat="49.50738" lon="-1.4326">
        <ele>56.6</ele>
        <time>2026-09-03T08:18:55.536Z</time>
      </trkpt>
      <trkpt lat="49.50738" lon="-1.43259">
        <ele>56.6</ele>
        <time>2026-09-03T08:18:56.536Z</time>
      </trkpt>
      <trkpt lat="49.50739" lon="-1.43258">
        <ele>56.6</ele>
        <time>2026-09-03T08:18:57.536Z</time>
      </trkpt>
      <trkpt lat="49.5074" lon="-1.43258">
        <ele>56.6</ele>
        <time>2026-09-03T08:18:58.536Z</time>
      </trkpt>
      <trkpt lat="49.50743" lon="-1.43257">
        <ele>56.7</ele>
        <time>2026-09-03T08:19:00.539Z</time>
      </trkpt>
      <trkpt lat="49.50744" lon="-1.43256">
        <ele>56.8</ele>
        <time>2026-09-03T08:19:02.552Z</time>
      </trkpt>
      <trkpt lat="49.50744" lon="-1.43254">
        <ele>56.8</ele>
        <time>2026-09-03T08:19:04.536Z</time>
      </trkpt>
      <trkpt lat="49.50746" lon="-1.43252">
        <ele>56.9</ele>
        <time>2026-09-03T08:19:06.537Z</time>
      </trkpt>
      <trkpt lat="49.50748" lon="-1.43249">
        <ele>56.9</ele>
        <time>2026-09-03T08:19:08.600Z</time>
      </trkpt>
      <trkpt lat="49.5075" lon="-1.43248">
        <ele>57</ele>
        <time>2026-09-03T08:19:10.536Z</time>
      </trkpt>
      <trkpt lat="49.5075" lon="-1.43247">
        <ele>57</ele>
        <time>2026-09-03T08:19:11.564Z</time>
      </trkpt>
      <trkpt lat="49.50751" lon="-1.43247">
        <ele>57</ele>
        <time>2026-09-03T08:19:12.565Z</time>
      </trkpt>
      <trkpt lat="49.50753" lon="-1.43245">
        <ele>57.1</ele>
        <time>2026-09-03T08:19:14.558Z</time>
      </trkpt>
      <trkpt lat="49.50754" lon="-1.43245">
        <ele>57.1</ele>
        <time>2026-09-03T08:19:15.570Z</time>
      </trkpt>
      <trkpt lat="49.50755" lon="-1.43244">
        <ele>57.2</ele>
        <time>2026-09-03T08:19:16.571Z</time>
      </trkpt>
      <trkpt lat="49.50757" lon="-1.43243">
        <ele>57.3</ele>
        <time>2026-09-03T08:19:17.571Z</time>
      </trkpt>
      <trkpt lat="49.50759" lon="-1.43241">
        <ele>57.3</ele>
        <time>2026-09-03T08:19:19.536Z</time>
      </trkpt>
      <trkpt lat="49.5076" lon="-1.4324">
        <ele>57.4</ele>
        <time>2026-09-03T08:19:21.536Z</time>
      </trkpt>
      <trkpt lat="49.50761" lon="-1.43239">
        <ele>57.4</ele>
        <time>2026-09-03T08:19:22.536Z</time>
      </trkpt>
      <trkpt lat="49.50762" lon="-1.43238">
        <ele>57.4</ele>
        <time>2026-09-03T08:19:23.536Z</time>
      </trkpt>
      <trkpt lat="49.50764" lon="-1.43237">
        <ele>57.5</ele>
        <time>2026-09-03T08:19:25.536Z</time>
      </trkpt>
      <trkpt lat="49.50765" lon="-1.43236">
        <ele>57.5</ele>
        <time>2026-09-03T08:19:26.536Z</time>
      </trkpt>
      <trkpt lat="49.50767" lon="-1.43236">
        <ele>57.6</ele>
        <time>2026-09-03T08:19:28.536Z</time>
      </trkpt>
      <trkpt lat="49.50769" lon="-1.43236">
        <ele>57.7</ele>
        <time>2026-09-03T08:19:29.536Z</time>
      </trkpt>
      <trkpt lat="49.5077" lon="-1.43236">
        <ele>57.7</ele>
        <time>2026-09-03T08:19:30.536Z</time>
      </trkpt>
      <trkpt lat="49.5077" lon="-1.43234">
        <ele>57.7</ele>
        <time>2026-09-03T08:19:31.536Z</time>
      </trkpt>
      <trkpt lat="49.50771" lon="-1.43233">
        <ele>57.8</ele>
        <time>2026-09-03T08:19:32.536Z</time>
      </trkpt>
      <trkpt lat="49.50772" lon="-1.43232">
        <ele>57.8</ele>
        <time>2026-09-03T08:19:33.536Z</time>
      </trkpt>
      <trkpt lat="49.50773" lon="-1.43231">
        <ele>57.8</ele>
        <time>2026-09-03T08:19:34.536Z</time>
      </trkpt>
      <trkpt lat="49.50774" lon="-1.4323">
        <ele>57.9</ele>
        <time>2026-09-03T08:19:35.537Z</time>
      </trkpt>
      <trkpt lat="49.50776" lon="-1.43229">
        <ele>57.9</ele>
        <time>2026-09-03T08:19:37.540Z</time>
      </trkpt>
      <trkpt lat="49.50777" lon="-1.43228">
        <ele>58</ele>
        <time>2026-09-03T08:19:38.561Z</time>
      </trkpt>
      <trkpt lat="49.50778" lon="-1.43227">
        <ele>58</ele>
        <time>2026-09-03T08:19:39.562Z</time>
      </trkpt>
      <trkpt lat="49.50779" lon="-1.43227">
        <ele>58</ele>
        <time>2026-09-03T08:19:40.564Z</time>
      </trkpt>
      <trkpt lat="49.5078" lon="-1.43226">
        <ele>58</ele>
        <time>2026-09-03T08:19:41.565Z</time>
      </trkpt>
      <trkpt lat="49.50781" lon="-1.43225">
        <ele>58</ele>
        <time>2026-09-03T08:19:42.566Z</time>
      </trkpt>
      <trkpt lat="49.50782" lon="-1.43223">
        <ele>58</ele>
        <time>2026-09-03T08:19:44.569Z</time>
      </trkpt>
      <trkpt lat="49.50784" lon="-1.43222">
        <ele>58</ele>
        <time>2026-09-03T08:19:46.536Z</time>
      </trkpt>
      <trkpt lat="49.50785" lon="-1.43221">
        <ele>58</ele>
        <time>2026-09-03T08:19:47.536Z</time>
      </trkpt>
      <trkpt lat="49.50786" lon="-1.4322">
        <ele>58</ele>
        <time>2026-09-03T08:19:48.536Z</time>
      </trkpt>
      <trkpt lat="49.50787" lon="-1.43218">
        <ele>58</ele>
        <time>2026-09-03T08:19:50.577Z</time>
      </trkpt>
      <trkpt lat="49.50789" lon="-1.43216">
        <ele>58</ele>
        <time>2026-09-03T08:19:52.536Z</time>
      </trkpt>
      <trkpt lat="49.50789" lon="-1.43215">
        <ele>58</ele>
        <time>2026-09-03T08:19:53.536Z</time>
      </trkpt>
      <trkpt lat="49.5079" lon="-1.43214">
        <ele>58</ele>
        <time>2026-09-03T08:19:54.536Z</time>
      </trkpt>
      <trkpt lat="49.50791" lon="-1.43213">
        <ele>58</ele>
        <time>2026-09-03T08:19:55.536Z</time>
      </trkpt>
      <trkpt lat="49.50792" lon="-1.43213">
        <ele>58</ele>
        <time>2026-09-03T08:19:56.536Z</time>
      </trkpt>
      <trkpt lat="49.50793" lon="-1.43213">
        <ele>58</ele>
        <time>2026-09-03T08:19:57.536Z</time>
      </trkpt>
      <trkpt lat="49.50794" lon="-1.43213">
        <ele>58</ele>
        <time>2026-09-03T08:19:58.536Z</time>
      </trkpt>
      <trkpt lat="49.50795" lon="-1.43214">
        <ele>58</ele>
        <time>2026-09-03T08:19:59.570Z</time>
      </trkpt>
      <trkpt lat="49.50794" lon="-1.43214">
        <ele>58</ele>
        <time>2026-09-03T08:20:01.572Z</time>
      </trkpt>
      <trkpt lat="49.50794" lon="-1.43214">
        <ele>58</ele>
        <time>2026-09-03T08:20:02.574Z</time>
      </trkpt>
      <trkpt lat="49.50794" lon="-1.43214">
        <ele>58</ele>
        <time>2026-09-03T08:20:04.536Z</time>
      </trkpt>
      <trkpt lat="49.50794" lon="-1.43214">
        <ele>58</ele>
        <time>2026-09-03T08:20:05.577Z</time>
      </trkpt>
      <trkpt lat="49.50794" lon="-1.43214">
        <ele>58</ele>
        <time>2026-09-03T08:20:07.599Z</time>
      </trkpt>
      <trkpt lat="49.50796" lon="-1.43214">
        <ele>58</ele>
        <time>2026-09-03T08:20:09.536Z</time>
      </trkpt>
      <trkpt lat="49.50797" lon="-1.43214">
        <ele>58</ele>
        <time>2026-09-03T08:20:10.536Z</time>
      </trkpt>
      <trkpt lat="49.50798" lon="-1.43213">
        <ele>58</ele>
        <time>2026-09-03T08:20:11.536Z</time>
      </trkpt>
      <trkpt lat="49.50799" lon="-1.43213">
        <ele>58</ele>
        <time>2026-09-03T08:20:12.536Z</time>
      </trkpt>
      <trkpt lat="49.50803" lon="-1.43212">
        <ele>58</ele>
        <time>2026-09-03T08:20:14.536Z</time>
      </trkpt>
      <trkpt lat="49.50804" lon="-1.43211">
        <ele>58</ele>
        <time>2026-09-03T08:20:15.536Z</time>
      </trkpt>
      <trkpt lat="49.50805" lon="-1.4321">
        <ele>58</ele>
        <time>2026-09-03T08:20:16.536Z</time>
      </trkpt>
      <trkpt lat="49.50805" lon="-1.4321">
        <ele>58</ele>
        <time>2026-09-03T08:20:17.536Z</time>
      </trkpt>
      <trkpt lat="49.50806" lon="-1.4321">
        <ele>58</ele>
        <time>2026-09-03T08:20:18.536Z</time>
      </trkpt>
      <trkpt lat="49.50806" lon="-1.43209">
        <ele>58</ele>
        <time>2026-09-03T08:20:20.536Z</time>
      </trkpt>
      <trkpt lat="49.50807" lon="-1.43207">
        <ele>58.1</ele>
        <time>2026-09-03T08:20:22.581Z</time>
      </trkpt>
      <trkpt lat="49.50808" lon="-1.43205">
        <ele>58.1</ele>
        <time>2026-09-03T08:20:24.443Z</time>
      </trkpt>
      <trkpt lat="49.50809" lon="-1.43204">
        <ele>58.1</ele>
        <time>2026-09-03T08:20:25.565Z</time>
      </trkpt>
      <trkpt lat="49.5081" lon="-1.43202">
        <ele>58.2</ele>
        <time>2026-09-03T08:20:26.566Z</time>
      </trkpt>
      <trkpt lat="49.50811" lon="-1.432">
        <ele>58.2</ele>
        <time>2026-09-03T08:20:27.567Z</time>
      </trkpt>
      <trkpt lat="49.50812" lon="-1.43199">
        <ele>58.2</ele>
        <time>2026-09-03T08:20:28.569Z</time>
      </trkpt>
      <trkpt lat="49.50815" lon="-1.43195">
        <ele>58.3</ele>
        <time>2026-09-03T08:20:30.472Z</time>
      </trkpt>
      <trkpt lat="49.50816" lon="-1.43193">
        <ele>58.4</ele>
        <time>2026-09-03T08:20:31.583Z</time>
      </trkpt>
      <trkpt lat="49.50817" lon="-1.4319">
        <ele>58.4</ele>
        <time>2026-09-03T08:20:33.599Z</time>
      </trkpt>
      <trkpt lat="49.50817" lon="-1.43187">
        <ele>58.4</ele>
        <time>2026-09-03T08:20:35.539Z</time>
      </trkpt>
      <trkpt lat="49.50819" lon="-1.43183">
        <ele>58.5</ele>
        <time>2026-09-03T08:20:37.521Z</time>
      </trkpt>
      <trkpt lat="49.50819" lon="-1.43182">
        <ele>58.5</ele>
        <time>2026-09-03T08:20:38.536Z</time>
      </trkpt>
      <trkpt lat="49.5082" lon="-1.4318">
        <ele>58.5</ele>
        <time>2026-09-03T08:20:39.599Z</time>
      </trkpt>
      <trkpt lat="49.50821" lon="-1.43177">
        <ele>58.6</ele>
        <time>2026-09-03T08:20:41.567Z</time>
      </trkpt>
      <trkpt lat="49.50823" lon="-1.43175">
        <ele>58.6</ele>
        <time>2026-09-03T08:20:43.479Z</time>
      </trkpt>
      <trkpt lat="49.50824" lon="-1.43174">
        <ele>58.7</ele>
        <time>2026-09-03T08:20:44.551Z</time>
      </trkpt>
      <trkpt lat="49.50825" lon="-1.43173">
        <ele>58.7</ele>
        <time>2026-09-03T08:20:45.552Z</time>
      </trkpt>
      <trkpt lat="49.50826" lon="-1.43172">
        <ele>58.7</ele>
        <time>2026-09-03T08:20:46.554Z</time>
      </trkpt>
      <trkpt lat="49.50829" lon="-1.4317">
        <ele>58.8</ele>
        <time>2026-09-03T08:20:48.536Z</time>
      </trkpt>
      <trkpt lat="49.50829" lon="-1.43169">
        <ele>58.8</ele>
        <time>2026-09-03T08:20:49.578Z</time>
      </trkpt>
      <trkpt lat="49.50832" lon="-1.43168">
        <ele>59</ele>
        <time>2026-09-03T08:20:51.560Z</time>
      </trkpt>
      <trkpt lat="49.50833" lon="-1.43167">
        <ele>59</ele>
        <time>2026-09-03T08:20:52.562Z</time>
      </trkpt>
      <trkpt lat="49.50834" lon="-1.43167">
        <ele>59</ele>
        <time>2026-09-03T08:20:53.563Z</time>
      </trkpt>
      <trkpt lat="49.50836" lon="-1.43166">
        <ele>59</ele>
        <time>2026-09-03T08:20:55.466Z</time>
      </trkpt>
      <trkpt lat="49.50838" lon="-1.43164">
        <ele>59</ele>
        <time>2026-09-03T08:20:56.567Z</time>
      </trkpt>
      <trkpt lat="49.50839" lon="-1.43163">
        <ele>59</ele>
        <time>2026-09-03T08:20:57.569Z</time>
      </trkpt>
      <trkpt lat="49.5084" lon="-1.4316">
        <ele>59.1</ele>
        <time>2026-09-03T08:20:59.571Z</time>
      </trkpt>
      <trkpt lat="49.50842" lon="-1.43158">
        <ele>59.1</ele>
        <time>2026-09-03T08:21:01.536Z</time>
      </trkpt>
      <trkpt lat="49.50842" lon="-1.43156">
        <ele>59.1</ele>
        <time>2026-09-03T08:21:02.536Z</time>
      </trkpt>
      <trkpt lat="49.50843" lon="-1.43155">
        <ele>59.1</ele>
        <time>2026-09-03T08:21:03.536Z</time>
      </trkpt>
      <trkpt lat="49.50843" lon="-1.43154">
        <ele>59.2</ele>
        <time>2026-09-03T08:21:04.536Z</time>
      </trkpt>
      <trkpt lat="49.50845" lon="-1.43152">
        <ele>59.2</ele>
        <time>2026-09-03T08:21:06.536Z</time>
      </trkpt>
      <trkpt lat="49.50846" lon="-1.4315">
        <ele>59.3</ele>
        <time>2026-09-03T08:21:07.536Z</time>
      </trkpt>
      <trkpt lat="49.50847" lon="-1.43149">
        <ele>59.3</ele>
        <time>2026-09-03T08:21:08.536Z</time>
      </trkpt>
      <trkpt lat="49.50848" lon="-1.43146">
        <ele>59.4</ele>
        <time>2026-09-03T08:21:10.536Z</time>
      </trkpt>
      <trkpt lat="49.50849" lon="-1.43146">
        <ele>59.4</ele>
        <time>2026-09-03T08:21:11.536Z</time>
      </trkpt>
      <trkpt lat="49.5085" lon="-1.43145">
        <ele>59.5</ele>
        <time>2026-09-03T08:21:13.536Z</time>
      </trkpt>
      <trkpt lat="49.50851" lon="-1.43144">
        <ele>59.5</ele>
        <time>2026-09-03T08:21:14.536Z</time>
      </trkpt>
      <trkpt lat="49.50852" lon="-1.43143">
        <ele>59.6</ele>
        <time>2026-09-03T08:21:15.536Z</time>
      </trkpt>
      <trkpt lat="49.50853" lon="-1.43142">
        <ele>59.6</ele>
        <time>2026-09-03T08:21:16.536Z</time>
      </trkpt>
      <trkpt lat="49.50854" lon="-1.4314">
        <ele>59.7</ele>
        <time>2026-09-03T08:21:17.536Z</time>
      </trkpt>
      <trkpt lat="49.50855" lon="-1.43139">
        <ele>59.8</ele>
        <time>2026-09-03T08:21:18.536Z</time>
      </trkpt>
      <trkpt lat="49.50856" lon="-1.43138">
        <ele>59.8</ele>
        <time>2026-09-03T08:21:19.536Z</time>
      </trkpt>
      <trkpt lat="49.50856" lon="-1.43137">
        <ele>59.8</ele>
        <time>2026-09-03T08:21:20.536Z</time>
      </trkpt>
      <trkpt lat="49.50857" lon="-1.43136">
        <ele>59.8</ele>
        <time>2026-09-03T08:21:21.536Z</time>
      </trkpt>
      <trkpt lat="49.50858" lon="-1.43134">
        <ele>59.7</ele>
        <time>2026-09-03T08:21:23.536Z</time>
      </trkpt>
      <trkpt lat="49.50859" lon="-1.43133">
        <ele>59.7</ele>
        <time>2026-09-03T08:21:24.536Z</time>
      </trkpt>
      <trkpt lat="49.5086" lon="-1.43131">
        <ele>59.7</ele>
        <time>2026-09-03T08:21:25.536Z</time>
      </trkpt>
      <trkpt lat="49.5086" lon="-1.43131">
        <ele>59.7</ele>
        <time>2026-09-03T08:21:26.536Z</time>
      </trkpt>
      <trkpt lat="49.50861" lon="-1.4313">
        <ele>59.7</ele>
        <time>2026-09-03T08:21:27.536Z</time>
      </trkpt>
      <trkpt lat="49.50862" lon="-1.43129">
        <ele>59.7</ele>
        <time>2026-09-03T08:21:28.536Z</time>
      </trkpt>
      <trkpt lat="49.50863" lon="-1.4313">
        <ele>59.7</ele>
        <time>2026-09-03T08:21:29.536Z</time>
      </trkpt>
      <trkpt lat="49.50863" lon="-1.43131">
        <ele>59.7</ele>
        <time>2026-09-03T08:21:30.536Z</time>
      </trkpt>
      <trkpt lat="49.50864" lon="-1.43131">
        <ele>59.7</ele>
        <time>2026-09-03T08:21:31.536Z</time>
      </trkpt>
      <trkpt lat="49.50864" lon="-1.43131">
        <ele>59.7</ele>
        <time>2026-09-03T08:21:32.556Z</time>
      </trkpt>
      <trkpt lat="49.50865" lon="-1.4313">
        <ele>59.7</ele>
        <time>2026-09-03T08:21:33.578Z</time>
      </trkpt>
      <trkpt lat="49.50867" lon="-1.43129">
        <ele>59.7</ele>
        <time>2026-09-03T08:21:35.560Z</time>
      </trkpt>
      <trkpt lat="49.50868" lon="-1.43127">
        <ele>59.7</ele>
        <time>2026-09-03T08:21:37.563Z</time>
      </trkpt>
      <trkpt lat="49.50869" lon="-1.43126">
        <ele>59.7</ele>
        <time>2026-09-03T08:21:38.564Z</time>
      </trkpt>
      <trkpt lat="49.50872" lon="-1.43124">
        <ele>59.7</ele>
        <time>2026-09-03T08:21:40.567Z</time>
      </trkpt>
      <trkpt lat="49.50872" lon="-1.43122">
        <ele>59.6</ele>
        <time>2026-09-03T08:21:41.568Z</time>
      </trkpt>
      <trkpt lat="49.50873" lon="-1.43118">
        <ele>59.6</ele>
        <time>2026-09-03T08:21:43.571Z</time>
      </trkpt>
      <trkpt lat="49.50875" lon="-1.43116">
        <ele>59.6</ele>
        <time>2026-09-03T08:21:45.384Z</time>
      </trkpt>
      <trkpt lat="49.50876" lon="-1.43115">
        <ele>59.6</ele>
        <time>2026-09-03T08:21:46.536Z</time>
      </trkpt>
      <trkpt lat="49.50877" lon="-1.43114">
        <ele>59.6</ele>
        <time>2026-09-03T08:21:48.536Z</time>
      </trkpt>
      <trkpt lat="49.50878" lon="-1.43114">
        <ele>59.6</ele>
        <time>2026-09-03T08:21:49.536Z</time>
      </trkpt>
      <trkpt lat="49.50879" lon="-1.43114">
        <ele>59.7</ele>
        <time>2026-09-03T08:21:50.536Z</time>
      </trkpt>
      <trkpt lat="49.5088" lon="-1.43114">
        <ele>59.7</ele>
        <time>2026-09-03T08:21:51.536Z</time>
      </trkpt>
      <trkpt lat="49.50881" lon="-1.43113">
        <ele>59.7</ele>
        <time>2026-09-03T08:21:52.584Z</time>
      </trkpt>
      <trkpt lat="49.50884" lon="-1.43107">
        <ele>59.8</ele>
        <time>2026-09-03T08:21:54.536Z</time>
      </trkpt>
      <trkpt lat="49.50884" lon="-1.43105">
        <ele>59.8</ele>
        <time>2026-09-03T08:21:55.536Z</time>
      </trkpt>
      <trkpt lat="49.50885" lon="-1.43103">
        <ele>59.9</ele>
        <time>2026-09-03T08:21:56.536Z</time>
      </trkpt>
      <trkpt lat="49.50886" lon="-1.43101">
        <ele>59.9</ele>
        <time>2026-09-03T08:21:57.536Z</time>
      </trkpt>
      <trkpt lat="49.50886" lon="-1.431">
        <ele>59.9</ele>
        <time>2026-09-03T08:21:58.536Z</time>
      </trkpt>
      <trkpt lat="49.50887" lon="-1.43098">
        <ele>59.9</ele>
        <time>2026-09-03T08:21:59.543Z</time>
      </trkpt>
      <trkpt lat="49.50889" lon="-1.43095">
        <ele>60</ele>
        <time>2026-09-03T08:22:01.536Z</time>
      </trkpt>
      <trkpt lat="49.5089" lon="-1.43093">
        <ele>60</ele>
        <time>2026-09-03T08:22:03.536Z</time>
      </trkpt>
      <trkpt lat="49.50891" lon="-1.43092">
        <ele>59.9</ele>
        <time>2026-09-03T08:22:04.536Z</time>
      </trkpt>
      <trkpt lat="49.50892" lon="-1.43091">
        <ele>59.9</ele>
        <time>2026-09-03T08:22:05.536Z</time>
      </trkpt>
      <trkpt lat="49.50893" lon="-1.43088">
        <ele>59.9</ele>
        <time>2026-09-03T08:22:07.536Z</time>
      </trkpt>
      <trkpt lat="49.50894" lon="-1.43087">
        <ele>59.8</ele>
        <time>2026-09-03T08:22:08.536Z</time>
      </trkpt>
      <trkpt lat="49.50894" lon="-1.43087">
        <ele>59.8</ele>
        <time>2026-09-03T08:22:09.536Z</time>
      </trkpt>
      <trkpt lat="49.50895" lon="-1.43086">
        <ele>59.8</ele>
        <time>2026-09-03T08:22:10.536Z</time>
      </trkpt>
      <trkpt lat="49.50897" lon="-1.43086">
        <ele>59.7</ele>
        <time>2026-09-03T08:22:11.536Z</time>
      </trkpt>
      <trkpt lat="49.50899" lon="-1.43085">
        <ele>59.7</ele>
        <time>2026-09-03T08:22:13.483Z</time>
      </trkpt>
      <trkpt lat="49.509" lon="-1.43083">
        <ele>59.6</ele>
        <time>2026-09-03T08:22:14.536Z</time>
      </trkpt>
      <trkpt lat="49.50902" lon="-1.43082">
        <ele>59.5</ele>
        <time>2026-09-03T08:22:15.536Z</time>
      </trkpt>
      <trkpt lat="49.50902" lon="-1.43081">
        <ele>59.5</ele>
        <time>2026-09-03T08:22:16.536Z</time>
      </trkpt>
      <trkpt lat="49.50903" lon="-1.43081">
        <ele>59.5</ele>
        <time>2026-09-03T08:22:18.536Z</time>
      </trkpt>
      <trkpt lat="49.50904" lon="-1.43081">
        <ele>59.5</ele>
        <time>2026-09-03T08:22:19.536Z</time>
      </trkpt>
      <trkpt lat="49.50904" lon="-1.4308">
        <ele>59.5</ele>
        <time>2026-09-03T08:22:20.536Z</time>
      </trkpt>
      <trkpt lat="49.50905" lon="-1.43078">
        <ele>59.4</ele>
        <time>2026-09-03T08:22:21.536Z</time>
      </trkpt>
      <trkpt lat="49.50906" lon="-1.43076">
        <ele>59.4</ele>
        <time>2026-09-03T08:22:22.536Z</time>
      </trkpt>
      <trkpt lat="49.50907" lon="-1.43075">
        <ele>59.3</ele>
        <time>2026-09-03T08:22:23.578Z</time>
      </trkpt>
      <trkpt lat="49.50908" lon="-1.43072">
        <ele>59.3</ele>
        <time>2026-09-03T08:22:25.536Z</time>
      </trkpt>
      <trkpt lat="49.50908" lon="-1.43073">
        <ele>59.3</ele>
        <time>2026-09-03T08:22:26.536Z</time>
      </trkpt>
      <trkpt lat="49.50908" lon="-1.43074">
        <ele>59.3</ele>
        <time>2026-09-03T08:22:27.536Z</time>
      </trkpt>
      <trkpt lat="49.50908" lon="-1.43074">
        <ele>59.3</ele>
        <time>2026-09-03T08:22:28.536Z</time>
      </trkpt>
      <trkpt lat="49.50908" lon="-1.43074">
        <ele>59.3</ele>
        <time>2026-09-03T08:22:29.536Z</time>
      </trkpt>
      <trkpt lat="49.50909" lon="-1.43074">
        <ele>59.3</ele>
        <time>2026-09-03T08:22:30.536Z</time>
      </trkpt>
      <trkpt lat="49.5091" lon="-1.43073">
        <ele>59.2</ele>
        <time>2026-09-03T08:22:31.536Z</time>
      </trkpt>
      <trkpt lat="49.50912" lon="-1.43072">
        <ele>59.2</ele>
        <time>2026-09-03T08:22:32.536Z</time>
      </trkpt>
      <trkpt lat="49.50915" lon="-1.43068">
        <ele>59.1</ele>
        <time>2026-09-03T08:22:34.536Z</time>
      </trkpt>
      <trkpt lat="49.50916" lon="-1.43067">
        <ele>59</ele>
        <time>2026-09-03T08:22:35.564Z</time>
      </trkpt>
      <trkpt lat="49.50918" lon="-1.43065">
        <ele>59</ele>
        <time>2026-09-03T08:22:37.536Z</time>
      </trkpt>
      <trkpt lat="49.50919" lon="-1.43064">
        <ele>59</ele>
        <time>2026-09-03T08:22:38.579Z</time>
      </trkpt>
      <trkpt lat="49.50919" lon="-1.43062">
        <ele>59</ele>
        <time>2026-09-03T08:22:40.561Z</time>
      </trkpt>
      <trkpt lat="49.5092" lon="-1.43061">
        <ele>59.1</ele>
        <time>2026-09-03T08:22:42.536Z</time>
      </trkpt>
      <trkpt lat="49.50921" lon="-1.4306">
        <ele>59.1</ele>
        <time>2026-09-03T08:22:43.546Z</time>
      </trkpt>
      <trkpt lat="49.50922" lon="-1.43058">
        <ele>59.2</ele>
        <time>2026-09-03T08:22:45.536Z</time>
      </trkpt>
      <trkpt lat="49.50922" lon="-1.43056">
        <ele>59.2</ele>
        <time>2026-09-03T08:22:46.536Z</time>
      </trkpt>
      <trkpt lat="49.50923" lon="-1.43055">
        <ele>59.2</ele>
        <time>2026-09-03T08:22:47.536Z</time>
      </trkpt>
      <trkpt lat="49.50924" lon="-1.43054">
        <ele>59.3</ele>
        <time>2026-09-03T08:22:48.536Z</time>
      </trkpt>
      <trkpt lat="49.50926" lon="-1.43053">
        <ele>59.4</ele>
        <time>2026-09-03T08:22:50.536Z</time>
      </trkpt>
      <trkpt lat="49.50928" lon="-1.43051">
        <ele>59.5</ele>
        <time>2026-09-03T08:22:51.536Z</time>
      </trkpt>
      <trkpt lat="49.50928" lon="-1.4305">
        <ele>59.5</ele>
        <time>2026-09-03T08:22:52.558Z</time>
      </trkpt>
      <trkpt lat="49.5093" lon="-1.43048">
        <ele>59.6</ele>
        <time>2026-09-03T08:22:54.536Z</time>
      </trkpt>
      <trkpt lat="49.50931" lon="-1.43046">
        <ele>59.7</ele>
        <time>2026-09-03T08:22:55.536Z</time>
      </trkpt>
      <trkpt lat="49.50932" lon="-1.43046">
        <ele>59.7</ele>
        <time>2026-09-03T08:22:56.536Z</time>
      </trkpt>
      <trkpt lat="49.50933" lon="-1.43043">
        <ele>59.8</ele>
        <time>2026-09-03T08:22:58.546Z</time>
      </trkpt>
      <trkpt lat="49.50933" lon="-1.43039">
        <ele>59.8</ele>
        <time>2026-09-03T08:23:00.439Z</time>
      </trkpt>
      <trkpt lat="49.50934" lon="-1.43038">
        <ele>59.9</ele>
        <time>2026-09-03T08:23:01.536Z</time>
      </trkpt>
      <trkpt lat="49.50935" lon="-1.43037">
        <ele>59.9</ele>
        <time>2026-09-03T08:23:02.536Z</time>
      </trkpt>
      <trkpt lat="49.50935" lon="-1.43035">
        <ele>59.9</ele>
        <time>2026-09-03T08:23:03.536Z</time>
      </trkpt>
      <trkpt lat="49.50937" lon="-1.43033">
        <ele>59.9</ele>
        <time>2026-09-03T08:23:05.526Z</time>
      </trkpt>
      <trkpt lat="49.50938" lon="-1.43033">
        <ele>60</ele>
        <time>2026-09-03T08:23:06.536Z</time>
      </trkpt>
      <trkpt lat="49.50939" lon="-1.43032">
        <ele>60</ele>
        <time>2026-09-03T08:23:07.536Z</time>
      </trkpt>
      <trkpt lat="49.5094" lon="-1.43034">
        <ele>60</ele>
        <time>2026-09-03T08:23:09.536Z</time>
      </trkpt>
      <trkpt lat="49.50941" lon="-1.43035">
        <ele>60</ele>
        <time>2026-09-03T08:23:10.536Z</time>
      </trkpt>
      <trkpt lat="49.50943" lon="-1.43035">
        <ele>60</ele>
        <time>2026-09-03T08:23:12.566Z</time>
      </trkpt>
      <trkpt lat="49.50944" lon="-1.43032">
        <ele>60</ele>
        <time>2026-09-03T08:23:14.536Z</time>
      </trkpt>
      <trkpt lat="49.50946" lon="-1.4303">
        <ele>60</ele>
        <time>2026-09-03T08:23:16.536Z</time>
      </trkpt>
      <trkpt lat="49.50947" lon="-1.43029">
        <ele>60</ele>
        <time>2026-09-03T08:23:17.536Z</time>
      </trkpt>
      <trkpt lat="49.50947" lon="-1.43028">
        <ele>60</ele>
        <time>2026-09-03T08:23:18.536Z</time>
      </trkpt>
      <trkpt lat="49.50949" lon="-1.43027">
        <ele>60</ele>
        <time>2026-09-03T08:23:19.536Z</time>
      </trkpt>
      <trkpt lat="49.50949" lon="-1.43027">
        <ele>60</ele>
        <time>2026-09-03T08:23:20.536Z</time>
      </trkpt>
      <trkpt lat="49.5095" lon="-1.43026">
        <ele>60</ele>
        <time>2026-09-03T08:23:21.536Z</time>
      </trkpt>
      <trkpt lat="49.50951" lon="-1.43025">
        <ele>60</ele>
        <time>2026-09-03T08:23:22.536Z</time>
      </trkpt>
      <trkpt lat="49.50951" lon="-1.43024">
        <ele>60</ele>
        <time>2026-09-03T08:23:23.536Z</time>
      </trkpt>
      <trkpt lat="49.50952" lon="-1.43023">
        <ele>60</ele>
        <time>2026-09-03T08:23:24.536Z</time>
      </trkpt>
      <trkpt lat="49.50953" lon="-1.43022">
        <ele>60</ele>
        <time>2026-09-03T08:23:25.536Z</time>
      </trkpt>
      <trkpt lat="49.50954" lon="-1.43021">
        <ele>60</ele>
        <time>2026-09-03T08:23:26.536Z</time>
      </trkpt>
      <trkpt lat="49.50955" lon="-1.4302">
        <ele>60</ele>
        <time>2026-09-03T08:23:27.546Z</time>
      </trkpt>
      <trkpt lat="49.50956" lon="-1.43018">
        <ele>60</ele>
        <time>2026-09-03T08:23:29.479Z</time>
      </trkpt>
      <trkpt lat="49.50957" lon="-1.43018">
        <ele>60</ele>
        <time>2026-09-03T08:23:30.535Z</time>
      </trkpt>
      <trkpt lat="49.50957" lon="-1.43017">
        <ele>60</ele>
        <time>2026-09-03T08:23:31.536Z</time>
      </trkpt>
      <trkpt lat="49.50958" lon="-1.43016">
        <ele>60</ele>
        <time>2026-09-03T08:23:32.536Z</time>
      </trkpt>
      <trkpt lat="49.50959" lon="-1.43016">
        <ele>60</ele>
        <time>2026-09-03T08:23:33.536Z</time>
      </trkpt>
      <trkpt lat="49.5096" lon="-1.43015">
        <ele>60</ele>
        <time>2026-09-03T08:23:34.536Z</time>
      </trkpt>
      <trkpt lat="49.50961" lon="-1.43014">
        <ele>60</ele>
        <time>2026-09-03T08:23:35.537Z</time>
      </trkpt>
      <trkpt lat="49.50961" lon="-1.43013">
        <ele>60</ele>
        <time>2026-09-03T08:23:36.539Z</time>
      </trkpt>
      <trkpt lat="49.50962" lon="-1.43012">
        <ele>60</ele>
        <time>2026-09-03T08:23:37.540Z</time>
      </trkpt>
      <trkpt lat="49.50963" lon="-1.43011">
        <ele>60</ele>
        <time>2026-09-03T08:23:38.561Z</time>
      </trkpt>
      <trkpt lat="49.50965" lon="-1.43009">
        <ele>60</ele>
        <time>2026-09-03T08:23:40.564Z</time>
      </trkpt>
      <trkpt lat="49.50966" lon="-1.43008">
        <ele>60</ele>
        <time>2026-09-03T08:23:41.565Z</time>
      </trkpt>
      <trkpt lat="49.50966" lon="-1.43007">
        <ele>60</ele>
        <time>2026-09-03T08:23:42.567Z</time>
      </trkpt>
      <trkpt lat="49.50967" lon="-1.43006">
        <ele>60</ele>
        <time>2026-09-03T08:23:43.578Z</time>
      </trkpt>
      <trkpt lat="49.50968" lon="-1.43004">
        <ele>60</ele>
        <time>2026-09-03T08:23:45.536Z</time>
      </trkpt>
      <trkpt lat="49.5097" lon="-1.43003">
        <ele>60</ele>
        <time>2026-09-03T08:23:46.536Z</time>
      </trkpt>
      <trkpt lat="49.5097" lon="-1.43002">
        <ele>60</ele>
        <time>2026-09-03T08:23:47.536Z</time>
      </trkpt>
      <trkpt lat="49.50971" lon="-1.43001">
        <ele>60</ele>
        <time>2026-09-03T08:23:48.536Z</time>
      </trkpt>
      <trkpt lat="49.50972" lon="-1.42999">
        <ele>60</ele>
        <time>2026-09-03T08:23:49.536Z</time>
      </trkpt>
      <trkpt lat="49.50973" lon="-1.42998">
        <ele>60.1</ele>
        <time>2026-09-03T08:23:50.538Z</time>
      </trkpt>
      <trkpt lat="49.50975" lon="-1.42996">
        <ele>60.1</ele>
        <time>2026-09-03T08:23:52.536Z</time>
      </trkpt>
      <trkpt lat="49.50975" lon="-1.42995">
        <ele>60.1</ele>
        <time>2026-09-03T08:23:53.562Z</time>
      </trkpt>
      <trkpt lat="49.50977" lon="-1.42993">
        <ele>60.2</ele>
        <time>2026-09-03T08:23:55.536Z</time>
      </trkpt>
      <trkpt lat="49.50978" lon="-1.42992">
        <ele>60.2</ele>
        <time>2026-09-03T08:23:56.536Z</time>
      </trkpt>
      <trkpt lat="49.5098" lon="-1.4299">
        <ele>60.2</ele>
        <time>2026-09-03T08:23:58.539Z</time>
      </trkpt>
      <trkpt lat="49.50982" lon="-1.42989">
        <ele>60.1</ele>
        <time>2026-09-03T08:24:00.536Z</time>
      </trkpt>
      <trkpt lat="49.50983" lon="-1.42988">
        <ele>60.1</ele>
        <time>2026-09-03T08:24:01.543Z</time>
      </trkpt>
      <trkpt lat="49.50984" lon="-1.42986">
        <ele>60.1</ele>
        <time>2026-09-03T08:24:03.536Z</time>
      </trkpt>
      <trkpt lat="49.50985" lon="-1.42984">
        <ele>60</ele>
        <time>2026-09-03T08:24:04.536Z</time>
      </trkpt>
      <trkpt lat="49.50986" lon="-1.42983">
        <ele>60</ele>
        <time>2026-09-03T08:24:05.536Z</time>
      </trkpt>
      <trkpt lat="49.50988" lon="-1.42982">
        <ele>59.9</ele>
        <time>2026-09-03T08:24:07.536Z</time>
      </trkpt>
      <trkpt lat="49.50989" lon="-1.42982">
        <ele>59.9</ele>
        <time>2026-09-03T08:24:08.536Z</time>
      </trkpt>
      <trkpt lat="49.5099" lon="-1.42981">
        <ele>59.8</ele>
        <time>2026-09-03T08:24:09.543Z</time>
      </trkpt>
      <trkpt lat="49.50992" lon="-1.42978">
        <ele>59.7</ele>
        <time>2026-09-03T08:24:11.536Z</time>
      </trkpt>
      <trkpt lat="49.50992" lon="-1.42977">
        <ele>59.6</ele>
        <time>2026-09-03T08:24:12.536Z</time>
      </trkpt>
      <trkpt lat="49.50994" lon="-1.42976">
        <ele>59.5</ele>
        <time>2026-09-03T08:24:13.536Z</time>
      </trkpt>
      <trkpt lat="49.50995" lon="-1.42976">
        <ele>59.4</ele>
        <time>2026-09-03T08:24:14.536Z</time>
      </trkpt>
      <trkpt lat="49.50996" lon="-1.42974">
        <ele>59.3</ele>
        <time>2026-09-03T08:24:16.564Z</time>
      </trkpt>
      <trkpt lat="49.50998" lon="-1.42971">
        <ele>59.2</ele>
        <time>2026-09-03T08:24:18.546Z</time>
      </trkpt>
      <trkpt lat="49.50999" lon="-1.42968">
        <ele>59.2</ele>
        <time>2026-09-03T08:24:20.536Z</time>
      </trkpt>
      <trkpt lat="49.51001" lon="-1.42968">
        <ele>59.1</ele>
        <time>2026-09-03T08:24:21.536Z</time>
      </trkpt>
      <trkpt lat="49.51002" lon="-1.42967">
        <ele>59.2</ele>
        <time>2026-09-03T08:24:22.536Z</time>
      </trkpt>
      <trkpt lat="49.51003" lon="-1.42967">
        <ele>59.2</ele>
        <time>2026-09-03T08:24:23.536Z</time>
      </trkpt>
      <trkpt lat="49.51005" lon="-1.42965">
        <ele>59.2</ele>
        <time>2026-09-03T08:24:25.586Z</time>
      </trkpt>
      <trkpt lat="49.51006" lon="-1.42963">
        <ele>59.3</ele>
        <time>2026-09-03T08:24:27.499Z</time>
      </trkpt>
      <trkpt lat="49.51007" lon="-1.42962">
        <ele>59.3</ele>
        <time>2026-09-03T08:24:28.536Z</time>
      </trkpt>
      <trkpt lat="49.51007" lon="-1.42961">
        <ele>59.3</ele>
        <time>2026-09-03T08:24:29.536Z</time>
      </trkpt>
      <trkpt lat="49.51008" lon="-1.42959">
        <ele>59.3</ele>
        <time>2026-09-03T08:24:30.599Z</time>
      </trkpt>
      <trkpt lat="49.51009" lon="-1.42957">
        <ele>59.4</ele>
        <time>2026-09-03T08:24:32.536Z</time>
      </trkpt>
      <trkpt lat="49.51011" lon="-1.42955">
        <ele>59.4</ele>
        <time>2026-09-03T08:24:34.536Z</time>
      </trkpt>
      <trkpt lat="49.51013" lon="-1.42953">
        <ele>59.4</ele>
        <time>2026-09-03T08:24:36.536Z</time>
      </trkpt>
      <trkpt lat="49.51014" lon="-1.42952">
        <ele>59.4</ele>
        <time>2026-09-03T08:24:37.562Z</time>
      </trkpt>
      <trkpt lat="49.51014" lon="-1.42951">
        <ele>59.4</ele>
        <time>2026-09-03T08:24:38.564Z</time>
      </trkpt>
      <trkpt lat="49.51015" lon="-1.42951">
        <ele>59.4</ele>
        <time>2026-09-03T08:24:39.565Z</time>
      </trkpt>
      <trkpt lat="49.51016" lon="-1.4295">
        <ele>59.3</ele>
        <time>2026-09-03T08:24:40.567Z</time>
      </trkpt>
      <trkpt lat="49.51016" lon="-1.42948">
        <ele>59.4</ele>
        <time>2026-09-03T08:24:41.568Z</time>
      </trkpt>
      <trkpt lat="49.51018" lon="-1.42945">
        <ele>59.3</ele>
        <time>2026-09-03T08:24:43.551Z</time>
      </trkpt>
      <trkpt lat="49.51019" lon="-1.42944">
        <ele>59.3</ele>
        <time>2026-09-03T08:24:44.552Z</time>
      </trkpt>
      <trkpt lat="49.51021" lon="-1.42943">
        <ele>59.3</ele>
        <time>2026-09-03T08:24:46.575Z</time>
      </trkpt>
      <trkpt lat="49.51023" lon="-1.42941">
        <ele>59.3</ele>
        <time>2026-09-03T08:24:48.536Z</time>
      </trkpt>
      <trkpt lat="49.51025" lon="-1.42941">
        <ele>59.2</ele>
        <time>2026-09-03T08:24:49.536Z</time>
      </trkpt>
      <trkpt lat="49.51026" lon="-1.4294">
        <ele>59.2</ele>
        <time>2026-09-03T08:24:50.536Z</time>
      </trkpt>
      <trkpt lat="49.51028" lon="-1.42938">
        <ele>59.2</ele>
        <time>2026-09-03T08:24:52.563Z</time>
      </trkpt>
      <trkpt lat="49.51031" lon="-1.42936">
        <ele>59.3</ele>
        <time>2026-09-03T08:24:54.466Z</time>
      </trkpt>
      <trkpt lat="49.51032" lon="-1.42936">
        <ele>59.3</ele>
        <time>2026-09-03T08:24:55.537Z</time>
      </trkpt>
      <trkpt lat="49.51034" lon="-1.42934">
        <ele>59.3</ele>
        <time>2026-09-03T08:24:57.536Z</time>
      </trkpt>
      <trkpt lat="49.51035" lon="-1.42933">
        <ele>59.3</ele>
        <time>2026-09-03T08:24:58.536Z</time>
      </trkpt>
      <trkpt lat="49.51037" lon="-1.42932">
        <ele>59.3</ele>
        <time>2026-09-03T08:24:59.536Z</time>
      </trkpt>
      <trkpt lat="49.51038" lon="-1.42932">
        <ele>59.3</ele>
        <time>2026-09-03T08:25:00.574Z</time>
      </trkpt>
      <trkpt lat="49.51039" lon="-1.4293">
        <ele>59.3</ele>
        <time>2026-09-03T08:25:02.597Z</time>
      </trkpt>
      <trkpt lat="49.51041" lon="-1.42928">
        <ele>59.3</ele>
        <time>2026-09-03T08:25:04.536Z</time>
      </trkpt>
      <trkpt lat="49.51042" lon="-1.42927">
        <ele>59.3</ele>
        <time>2026-09-03T08:25:05.536Z</time>
      </trkpt>
      <trkpt lat="49.51042" lon="-1.42925">
        <ele>59.3</ele>
        <time>2026-09-03T08:25:06.536Z</time>
      </trkpt>
      <trkpt lat="49.51043" lon="-1.42924">
        <ele>59.3</ele>
        <time>2026-09-03T08:25:07.536Z</time>
      </trkpt>
      <trkpt lat="49.51044" lon="-1.42922">
        <ele>59.3</ele>
        <time>2026-09-03T08:25:08.536Z</time>
      </trkpt>
      <trkpt lat="49.51045" lon="-1.42919">
        <ele>59.3</ele>
        <time>2026-09-03T08:25:10.536Z</time>
      </trkpt>
      <trkpt lat="49.51045" lon="-1.42917">
        <ele>59.4</ele>
        <time>2026-09-03T08:25:11.536Z</time>
      </trkpt>
      <trkpt lat="49.51046" lon="-1.42915">
        <ele>59.4</ele>
        <time>2026-09-03T08:25:12.560Z</time>
      </trkpt>
      <trkpt lat="49.51047" lon="-1.42912">
        <ele>59.4</ele>
        <time>2026-09-03T08:25:14.536Z</time>
      </trkpt>
      <trkpt lat="49.51048" lon="-1.42911">
        <ele>59.4</ele>
        <time>2026-09-03T08:25:15.536Z</time>
      </trkpt>
      <trkpt lat="49.51049" lon="-1.42909">
        <ele>59.4</ele>
        <time>2026-09-03T08:25:16.536Z</time>
      </trkpt>
      <trkpt lat="49.5105" lon="-1.42908">
        <ele>59.4</ele>
        <time>2026-09-03T08:25:17.536Z</time>
      </trkpt>
      <trkpt lat="49.5105" lon="-1.42906">
        <ele>59.5</ele>
        <time>2026-09-03T08:25:18.558Z</time>
      </trkpt>
      <trkpt lat="49.51051" lon="-1.42903">
        <ele>59.6</ele>
        <time>2026-09-03T08:25:20.536Z</time>
      </trkpt>
      <trkpt lat="49.51052" lon="-1.42902">
        <ele>59.6</ele>
        <time>2026-09-03T08:25:21.536Z</time>
      </trkpt>
      <trkpt lat="49.51053" lon="-1.429">
        <ele>59.6</ele>
        <time>2026-09-03T08:25:22.536Z</time>
      </trkpt>
      <trkpt lat="49.51053" lon="-1.42898">
        <ele>59.7</ele>
        <time>2026-09-03T08:25:23.536Z</time>
      </trkpt>
      <trkpt lat="49.51054" lon="-1.42897">
        <ele>59.7</ele>
        <time>2026-09-03T08:25:24.536Z</time>
      </trkpt>
      <trkpt lat="49.51054" lon="-1.42896">
        <ele>59.8</ele>
        <time>2026-09-03T08:25:25.568Z</time>
      </trkpt>
      <trkpt lat="49.51055" lon="-1.42892">
        <ele>59.9</ele>
        <time>2026-09-03T08:25:27.536Z</time>
      </trkpt>
      <trkpt lat="49.51055" lon="-1.4289">
        <ele>60</ele>
        <time>2026-09-03T08:25:28.536Z</time>
      </trkpt>
      <trkpt lat="49.51056" lon="-1.42886">
        <ele>60</ele>
        <time>2026-09-03T08:25:30.536Z</time>
      </trkpt>
      <trkpt lat="49.51056" lon="-1.42884">
        <ele>60</ele>
        <time>2026-09-03T08:25:31.536Z</time>
      </trkpt>
      <trkpt lat="49.51057" lon="-1.42882">
        <ele>60</ele>
        <time>2026-09-03T08:25:32.536Z</time>
      </trkpt>
      <trkpt lat="49.51057" lon="-1.4288">
        <ele>60</ele>
        <time>2026-09-03T08:25:33.536Z</time>
      </trkpt>
      <trkpt lat="49.51058" lon="-1.42878">
        <ele>60</ele>
        <time>2026-09-03T08:25:34.536Z</time>
      </trkpt>
      <trkpt lat="49.51058" lon="-1.42876">
        <ele>60</ele>
        <time>2026-09-03T08:25:35.582Z</time>
      </trkpt>
      <trkpt lat="49.5106" lon="-1.42873">
        <ele>60.1</ele>
        <time>2026-09-03T08:25:37.536Z</time>
      </trkpt>
      <trkpt lat="49.51061" lon="-1.4287">
        <ele>60.1</ele>
        <time>2026-09-03T08:25:39.536Z</time>
      </trkpt>
      <trkpt lat="49.51062" lon="-1.42868">
        <ele>60.2</ele>
        <time>2026-09-03T08:25:40.536Z</time>
      </trkpt>
      <trkpt lat="49.51063" lon="-1.42866">
        <ele>60.2</ele>
        <time>2026-09-03T08:25:41.536Z</time>
      </trkpt>
      <trkpt lat="49.51064" lon="-1.42865">
        <ele>60.3</ele>
        <time>2026-09-03T08:25:42.536Z</time>
      </trkpt>
      <trkpt lat="49.51065" lon="-1.42863">
        <ele>60.3</ele>
        <time>2026-09-03T08:25:43.536Z</time>
      </trkpt>
      <trkpt lat="49.51067" lon="-1.4286">
        <ele>60.4</ele>
        <time>2026-09-03T08:25:45.535Z</time>
      </trkpt>
      <trkpt lat="49.51068" lon="-1.42859">
        <ele>60.5</ele>
        <time>2026-09-03T08:25:46.536Z</time>
      </trkpt>
      <trkpt lat="49.51069" lon="-1.42857">
        <ele>60.6</ele>
        <time>2026-09-03T08:25:47.536Z</time>
      </trkpt>
      <trkpt lat="49.5107" lon="-1.42855">
        <ele>60.6</ele>
        <time>2026-09-03T08:25:48.559Z</time>
      </trkpt>
      <trkpt lat="49.51072" lon="-1.42853">
        <ele>60.7</ele>
        <time>2026-09-03T08:25:50.536Z</time>
      </trkpt>
      <trkpt lat="49.51072" lon="-1.42852">
        <ele>60.7</ele>
        <time>2026-09-03T08:25:51.536Z</time>
      </trkpt>
      <trkpt lat="49.51073" lon="-1.42851">
        <ele>60.8</ele>
        <time>2026-09-03T08:25:52.536Z</time>
      </trkpt>
      <trkpt lat="49.51075" lon="-1.42848">
        <ele>60.8</ele>
        <time>2026-09-03T08:25:54.558Z</time>
      </trkpt>
      <trkpt lat="49.51077" lon="-1.42845">
        <ele>60.9</ele>
        <time>2026-09-03T08:25:56.610Z</time>
      </trkpt>
      <trkpt lat="49.51078" lon="-1.42842">
        <ele>60.9</ele>
        <time>2026-09-03T08:25:58.536Z</time>
      </trkpt>
      <trkpt lat="49.51079" lon="-1.42841">
        <ele>61</ele>
        <time>2026-09-03T08:25:59.536Z</time>
      </trkpt>
      <trkpt lat="49.5108" lon="-1.42841">
        <ele>61</ele>
        <time>2026-09-03T08:26:00.536Z</time>
      </trkpt>
      <trkpt lat="49.51081" lon="-1.4284">
        <ele>61</ele>
        <time>2026-09-03T08:26:01.536Z</time>
      </trkpt>
      <trkpt lat="49.51082" lon="-1.42838">
        <ele>61</ele>
        <time>2026-09-03T08:26:02.536Z</time>
      </trkpt>
      <trkpt lat="49.51083" lon="-1.42837">
        <ele>61</ele>
        <time>2026-09-03T08:26:03.560Z</time>
      </trkpt>
      <trkpt lat="49.51085" lon="-1.42835">
        <ele>61.1</ele>
        <time>2026-09-03T08:26:04.601Z</time>
      </trkpt>
      <trkpt lat="49.51086" lon="-1.42832">
        <ele>61.2</ele>
        <time>2026-09-03T08:26:06.504Z</time>
      </trkpt>
      <trkpt lat="49.51087" lon="-1.4283">
        <ele>61.4</ele>
        <time>2026-09-03T08:26:07.605Z</time>
      </trkpt>
      <trkpt lat="49.51089" lon="-1.42828">
        <ele>61.5</ele>
        <time>2026-09-03T08:26:09.536Z</time>
      </trkpt>
      <trkpt lat="49.5109" lon="-1.42827">
        <ele>61.6</ele>
        <time>2026-09-03T08:26:10.536Z</time>
      </trkpt>
      <trkpt lat="49.51091" lon="-1.42827">
        <ele>61.7</ele>
        <time>2026-09-03T08:26:11.536Z</time>
      </trkpt>
      <trkpt lat="49.51094" lon="-1.42824">
        <ele>61.9</ele>
        <time>2026-09-03T08:26:13.536Z</time>
      </trkpt>
      <trkpt lat="49.51094" lon="-1.42823">
        <ele>62</ele>
        <time>2026-09-03T08:26:14.574Z</time>
      </trkpt>
      <trkpt lat="49.51096" lon="-1.42822">
        <ele>62.1</ele>
        <time>2026-09-03T08:26:16.538Z</time>
      </trkpt>
      <trkpt lat="49.51099" lon="-1.4282">
        <ele>62.3</ele>
        <time>2026-09-03T08:26:18.536Z</time>
      </trkpt>
      <trkpt lat="49.511" lon="-1.42818">
        <ele>62.4</ele>
        <time>2026-09-03T08:26:19.536Z</time>
      </trkpt>
      <trkpt lat="49.51101" lon="-1.42817">
        <ele>62.4</ele>
        <time>2026-09-03T08:26:20.536Z</time>
      </trkpt>
      <trkpt lat="49.51103" lon="-1.42815">
        <ele>62.6</ele>
        <time>2026-09-03T08:26:22.566Z</time>
      </trkpt>
      <trkpt lat="49.51104" lon="-1.42812">
        <ele>62.7</ele>
        <time>2026-09-03T08:26:24.458Z</time>
      </trkpt>
      <trkpt lat="49.51105" lon="-1.42811">
        <ele>62.8</ele>
        <time>2026-09-03T08:26:25.580Z</time>
      </trkpt>
      <trkpt lat="49.51107" lon="-1.42809">
        <ele>62.9</ele>
        <time>2026-09-03T08:26:27.536Z</time>
      </trkpt>
      <trkpt lat="49.51108" lon="-1.42808">
        <ele>62.9</ele>
        <time>2026-09-03T08:26:28.536Z</time>
      </trkpt>
      <trkpt lat="49.51109" lon="-1.42807">
        <ele>62.9</ele>
        <time>2026-09-03T08:26:29.536Z</time>
      </trkpt>
      <trkpt lat="49.51111" lon="-1.42805">
        <ele>63</ele>
        <time>2026-09-03T08:26:31.538Z</time>
      </trkpt>
      <trkpt lat="49.51112" lon="-1.42804">
        <ele>63.2</ele>
        <time>2026-09-03T08:26:32.539Z</time>
      </trkpt>
      <trkpt lat="49.51114" lon="-1.42802">
        <ele>63.4</ele>
        <time>2026-09-03T08:26:34.542Z</time>
      </trkpt>
      <trkpt lat="49.51114" lon="-1.428">
        <ele>63.6</ele>
        <time>2026-09-03T08:26:35.544Z</time>
      </trkpt>
      <trkpt lat="49.51115" lon="-1.42799">
        <ele>63.7</ele>
        <time>2026-09-03T08:26:36.545Z</time>
      </trkpt>
      <trkpt lat="49.51116" lon="-1.42797">
        <ele>63.9</ele>
        <time>2026-09-03T08:26:37.546Z</time>
      </trkpt>
      <trkpt lat="49.51118" lon="-1.42795">
        <ele>64.1</ele>
        <time>2026-09-03T08:26:39.519Z</time>
      </trkpt>
      <trkpt lat="49.51118" lon="-1.42794">
        <ele>64.1</ele>
        <time>2026-09-03T08:26:40.536Z</time>
      </trkpt>
      <trkpt lat="49.51119" lon="-1.42793">
        <ele>64.2</ele>
        <time>2026-09-03T08:26:41.536Z</time>
      </trkpt>
      <trkpt lat="49.5112" lon="-1.42791">
        <ele>64.4</ele>
        <time>2026-09-03T08:26:43.544Z</time>
      </trkpt>
      <trkpt lat="49.51123" lon="-1.42788">
        <ele>64.6</ele>
        <time>2026-09-03T08:26:45.537Z</time>
      </trkpt>
      <trkpt lat="49.51124" lon="-1.42787">
        <ele>64.6</ele>
        <time>2026-09-03T08:26:46.579Z</time>
      </trkpt>
      <trkpt lat="49.51126" lon="-1.42785">
        <ele>64.8</ele>
        <time>2026-09-03T08:26:48.481Z</time>
      </trkpt>
      <trkpt lat="49.51127" lon="-1.42784">
        <ele>64.8</ele>
        <time>2026-09-03T08:26:49.583Z</time>
      </trkpt>
      <trkpt lat="49.5113" lon="-1.42783">
        <ele>64.9</ele>
        <time>2026-09-03T08:26:51.465Z</time>
      </trkpt>
      <trkpt lat="49.51131" lon="-1.42782">
        <ele>64.9</ele>
        <time>2026-09-03T08:26:52.527Z</time>
      </trkpt>
      <trkpt lat="49.51132" lon="-1.42781">
        <ele>64.9</ele>
        <time>2026-09-03T08:26:53.568Z</time>
      </trkpt>
      <trkpt lat="49.51134" lon="-1.42778">
        <ele>65</ele>
        <time>2026-09-03T08:26:55.536Z</time>
      </trkpt>
      <trkpt lat="49.51135" lon="-1.42777">
        <ele>65.1</ele>
        <time>2026-09-03T08:26:56.536Z</time>
      </trkpt>
      <trkpt lat="49.51136" lon="-1.42775">
        <ele>65.2</ele>
        <time>2026-09-03T08:26:57.536Z</time>
      </trkpt>
      <trkpt lat="49.51138" lon="-1.42773">
        <ele>65.3</ele>
        <time>2026-09-03T08:26:59.536Z</time>
      </trkpt>
      <trkpt lat="49.5114" lon="-1.42771">
        <ele>65.5</ele>
        <time>2026-09-03T08:27:01.536Z</time>
      </trkpt>
      <trkpt lat="49.51142" lon="-1.42769">
        <ele>65.8</ele>
        <time>2026-09-03T08:27:03.536Z</time>
      </trkpt>
      <trkpt lat="49.51142" lon="-1.42768">
        <ele>65.8</ele>
        <time>2026-09-03T08:27:04.536Z</time>
      </trkpt>
      <trkpt lat="49.51144" lon="-1.42766">
        <ele>66.1</ele>
        <time>2026-09-03T08:27:06.526Z</time>
      </trkpt>
      <trkpt lat="49.51145" lon="-1.42765">
        <ele>66.2</ele>
        <time>2026-09-03T08:27:07.567Z</time>
      </trkpt>
      <trkpt lat="49.51148" lon="-1.42763">
        <ele>66.4</ele>
        <time>2026-09-03T08:27:09.536Z</time>
      </trkpt>
      <trkpt lat="49.51149" lon="-1.42762">
        <ele>66.5</ele>
        <time>2026-09-03T08:27:10.536Z</time>
      </trkpt>
      <trkpt lat="49.5115" lon="-1.42761">
        <ele>66.5</ele>
        <time>2026-09-03T08:27:11.573Z</time>
      </trkpt>
      <trkpt lat="49.51151" lon="-1.4276">
        <ele>66.6</ele>
        <time>2026-09-03T08:27:12.574Z</time>
      </trkpt>
      <trkpt lat="49.51152" lon="-1.4276">
        <ele>66.6</ele>
        <time>2026-09-03T08:27:13.575Z</time>
      </trkpt>
      <trkpt lat="49.51154" lon="-1.42758">
        <ele>66.7</ele>
        <time>2026-09-03T08:27:15.578Z</time>
      </trkpt>
      <trkpt lat="49.51156" lon="-1.42755">
        <ele>66.9</ele>
        <time>2026-09-03T08:27:17.536Z</time>
      </trkpt>
      <trkpt lat="49.51157" lon="-1.42754">
        <ele>66.9</ele>
        <time>2026-09-03T08:27:18.536Z</time>
      </trkpt>
      <trkpt lat="49.51158" lon="-1.42752">
        <ele>67</ele>
        <time>2026-09-03T08:27:19.536Z</time>
      </trkpt>
      <trkpt lat="49.51159" lon="-1.42751">
        <ele>67</ele>
        <time>2026-09-03T08:27:20.565Z</time>
      </trkpt>
      <trkpt lat="49.5116" lon="-1.4275">
        <ele>67</ele>
        <time>2026-09-03T08:27:21.606Z</time>
      </trkpt>
      <trkpt lat="49.51161" lon="-1.42747">
        <ele>67</ele>
        <time>2026-09-03T08:27:23.499Z</time>
      </trkpt>
      <trkpt lat="49.51161" lon="-1.42745">
        <ele>67</ele>
        <time>2026-09-03T08:27:24.550Z</time>
      </trkpt>
      <trkpt lat="49.51162" lon="-1.42744">
        <ele>67</ele>
        <time>2026-09-03T08:27:25.552Z</time>
      </trkpt>
      <trkpt lat="49.51163" lon="-1.42742">
        <ele>67</ele>
        <time>2026-09-03T08:27:26.553Z</time>
      </trkpt>
      <trkpt lat="49.51164" lon="-1.42739">
        <ele>67</ele>
        <time>2026-09-03T08:27:28.556Z</time>
      </trkpt>
      <trkpt lat="49.51165" lon="-1.42737">
        <ele>67</ele>
        <time>2026-09-03T08:27:29.557Z</time>
      </trkpt>
      <trkpt lat="49.51166" lon="-1.42736">
        <ele>67</ele>
        <time>2026-09-03T08:27:30.558Z</time>
      </trkpt>
      <trkpt lat="49.51168" lon="-1.42734">
        <ele>67.1</ele>
        <time>2026-09-03T08:27:31.560Z</time>
      </trkpt>
      <trkpt lat="49.51169" lon="-1.42733">
        <ele>67.1</ele>
        <time>2026-09-03T08:27:32.561Z</time>
      </trkpt>
      <trkpt lat="49.5117" lon="-1.42732">
        <ele>67.2</ele>
        <time>2026-09-03T08:27:33.563Z</time>
      </trkpt>
      <trkpt lat="49.51171" lon="-1.42731">
        <ele>67.3</ele>
        <time>2026-09-03T08:27:34.564Z</time>
      </trkpt>
      <trkpt lat="49.51172" lon="-1.42728">
        <ele>67.3</ele>
        <time>2026-09-03T08:27:36.567Z</time>
      </trkpt>
      <trkpt lat="49.51173" lon="-1.42727">
        <ele>67.4</ele>
        <time>2026-09-03T08:27:37.568Z</time>
      </trkpt>
      <trkpt lat="49.51174" lon="-1.42725">
        <ele>67.5</ele>
        <time>2026-09-03T08:27:38.569Z</time>
      </trkpt>
      <trkpt lat="49.51174" lon="-1.42723">
        <ele>67.5</ele>
        <time>2026-09-03T08:27:39.571Z</time>
      </trkpt>
      <trkpt lat="49.51174" lon="-1.42721">
        <ele>67.6</ele>
        <time>2026-09-03T08:27:40.572Z</time>
      </trkpt>
      <trkpt lat="49.51173" lon="-1.42717">
        <ele>67.6</ele>
        <time>2026-09-03T08:27:42.565Z</time>
      </trkpt>
      <trkpt lat="49.51172" lon="-1.42713">
        <ele>67.7</ele>
        <time>2026-09-03T08:27:44.536Z</time>
      </trkpt>
      <trkpt lat="49.51172" lon="-1.42712">
        <ele>67.7</ele>
        <time>2026-09-03T08:27:45.579Z</time>
      </trkpt>
      <trkpt lat="49.5117" lon="-1.42709">
        <ele>67.7</ele>
        <time>2026-09-03T08:27:47.536Z</time>
      </trkpt>
      <trkpt lat="49.5117" lon="-1.42707">
        <ele>67.7</ele>
        <time>2026-09-03T08:27:48.536Z</time>
      </trkpt>
      <trkpt lat="49.51169" lon="-1.42703">
        <ele>67.8</ele>
        <time>2026-09-03T08:27:50.536Z</time>
      </trkpt>
      <trkpt lat="49.51169" lon="-1.42701">
        <ele>67.9</ele>
        <time>2026-09-03T08:27:51.536Z</time>
      </trkpt>
      <trkpt lat="49.51167" lon="-1.42697">
        <ele>67.9</ele>
        <time>2026-09-03T08:27:53.536Z</time>
      </trkpt>
      <trkpt lat="49.51165" lon="-1.42694">
        <ele>68.1</ele>
        <time>2026-09-03T08:27:55.536Z</time>
      </trkpt>
      <trkpt lat="49.51165" lon="-1.42692">
        <ele>68.2</ele>
        <time>2026-09-03T08:27:56.536Z</time>
      </trkpt>
      <trkpt lat="49.51163" lon="-1.42689">
        <ele>68.5</ele>
        <time>2026-09-03T08:27:58.536Z</time>
      </trkpt>
      <trkpt lat="49.51163" lon="-1.42687">
        <ele>68.6</ele>
        <time>2026-09-03T08:27:59.536Z</time>
      </trkpt>
      <trkpt lat="49.51162" lon="-1.42686">
        <ele>68.7</ele>
        <time>2026-09-03T08:28:00.536Z</time>
      </trkpt>
      <trkpt lat="49.51162" lon="-1.42684">
        <ele>68.9</ele>
        <time>2026-09-03T08:28:01.536Z</time>
      </trkpt>
      <trkpt lat="49.51161" lon="-1.4268">
        <ele>69.1</ele>
        <time>2026-09-03T08:28:03.564Z</time>
      </trkpt>
      <trkpt lat="49.51161" lon="-1.42678">
        <ele>69.3</ele>
        <time>2026-09-03T08:28:04.565Z</time>
      </trkpt>
      <trkpt lat="49.5116" lon="-1.42676">
        <ele>69.4</ele>
        <time>2026-09-03T08:28:05.567Z</time>
      </trkpt>
      <trkpt lat="49.5116" lon="-1.42675">
        <ele>69.5</ele>
        <time>2026-09-03T08:28:06.568Z</time>
      </trkpt>
      <trkpt lat="49.51159" lon="-1.42671">
        <ele>69.7</ele>
        <time>2026-09-03T08:28:08.536Z</time>
      </trkpt>
      <trkpt lat="49.51159" lon="-1.42669">
        <ele>69.9</ele>
        <time>2026-09-03T08:28:09.572Z</time>
      </trkpt>
      <trkpt lat="49.51158" lon="-1.42667">
        <ele>70</ele>
        <time>2026-09-03T08:28:10.583Z</time>
      </trkpt>
      <trkpt lat="49.51158" lon="-1.42664">
        <ele>70.1</ele>
        <time>2026-09-03T08:28:12.576Z</time>
      </trkpt>
      <trkpt lat="49.51157" lon="-1.42662">
        <ele>70.1</ele>
        <time>2026-09-03T08:28:13.577Z</time>
      </trkpt>
      <trkpt lat="49.51157" lon="-1.42658">
        <ele>70.2</ele>
        <time>2026-09-03T08:28:15.536Z</time>
      </trkpt>
      <trkpt lat="49.51156" lon="-1.42657">
        <ele>70.2</ele>
        <time>2026-09-03T08:28:16.536Z</time>
      </trkpt>
      <trkpt lat="49.51155" lon="-1.42653">
        <ele>70.3</ele>
        <time>2026-09-03T08:28:18.584Z</time>
      </trkpt>
      <trkpt lat="49.51154" lon="-1.4265">
        <ele>70.3</ele>
        <time>2026-09-03T08:28:20.536Z</time>
      </trkpt>
      <trkpt lat="49.51154" lon="-1.42648">
        <ele>70.4</ele>
        <time>2026-09-03T08:28:21.578Z</time>
      </trkpt>
      <trkpt lat="49.51153" lon="-1.42646">
        <ele>70.4</ele>
        <time>2026-09-03T08:28:23.536Z</time>
      </trkpt>
      <trkpt lat="49.51152" lon="-1.42644">
        <ele>70.4</ele>
        <time>2026-09-03T08:28:24.536Z</time>
      </trkpt>
      <trkpt lat="49.51151" lon="-1.42642">
        <ele>70.4</ele>
        <time>2026-09-03T08:28:25.536Z</time>
      </trkpt>
      <trkpt lat="49.51151" lon="-1.42641">
        <ele>70.4</ele>
        <time>2026-09-03T08:28:26.536Z</time>
      </trkpt>
      <trkpt lat="49.5115" lon="-1.42639">
        <ele>70.4</ele>
        <time>2026-09-03T08:28:27.536Z</time>
      </trkpt>
      <trkpt lat="49.51149" lon="-1.42637">
        <ele>70.4</ele>
        <time>2026-09-03T08:28:28.538Z</time>
      </trkpt>
      <trkpt lat="49.51148" lon="-1.42635">
        <ele>70.5</ele>
        <time>2026-09-03T08:28:30.541Z</time>
      </trkpt>
      <trkpt lat="49.51147" lon="-1.42633">
        <ele>70.5</ele>
        <time>2026-09-03T08:28:31.542Z</time>
      </trkpt>
      <trkpt lat="49.51147" lon="-1.42631">
        <ele>70.6</ele>
        <time>2026-09-03T08:28:32.543Z</time>
      </trkpt>
      <trkpt lat="49.51146" lon="-1.42628">
        <ele>70.6</ele>
        <time>2026-09-03T08:28:33.545Z</time>
      </trkpt>
      <trkpt lat="49.51144" lon="-1.42624">
        <ele>70.7</ele>
        <time>2026-09-03T08:28:35.547Z</time>
      </trkpt>
      <trkpt lat="49.51143" lon="-1.42623">
        <ele>70.7</ele>
        <time>2026-09-03T08:28:36.549Z</time>
      </trkpt>
      <trkpt lat="49.51143" lon="-1.42621">
        <ele>70.8</ele>
        <time>2026-09-03T08:28:37.550Z</time>
      </trkpt>
      <trkpt lat="49.51143" lon="-1.42619">
        <ele>70.9</ele>
        <time>2026-09-03T08:28:38.560Z</time>
      </trkpt>
      <trkpt lat="49.51142" lon="-1.42616">
        <ele>70.9</ele>
        <time>2026-09-03T08:28:40.554Z</time>
      </trkpt>
      <trkpt lat="49.51142" lon="-1.42615">
        <ele>71</ele>
        <time>2026-09-03T08:28:41.556Z</time>
      </trkpt>
      <trkpt lat="49.51142" lon="-1.42613">
        <ele>71</ele>
        <time>2026-09-03T08:28:42.557Z</time>
      </trkpt>
      <trkpt lat="49.51141" lon="-1.42612">
        <ele>71</ele>
        <time>2026-09-03T08:28:43.558Z</time>
      </trkpt>
      <trkpt lat="49.51142" lon="-1.42611">
        <ele>71.1</ele>
        <time>2026-09-03T08:28:44.560Z</time>
      </trkpt>
      <trkpt lat="49.51142" lon="-1.42609">
        <ele>71.3</ele>
        <time>2026-09-03T08:28:45.561Z</time>
      </trkpt>
      <trkpt lat="49.51142" lon="-1.42605">
        <ele>71.5</ele>
        <time>2026-09-03T08:28:47.599Z</time>
      </trkpt>
      <trkpt lat="49.51141" lon="-1.42602">
        <ele>71.7</ele>
        <time>2026-09-03T08:28:49.536Z</time>
      </trkpt>
      <trkpt lat="49.51141" lon="-1.42599">
        <ele>71.9</ele>
        <time>2026-09-03T08:28:50.536Z</time>
      </trkpt>
      <trkpt lat="49.51141" lon="-1.42598">
        <ele>72</ele>
        <time>2026-09-03T08:28:51.536Z</time>
      </trkpt>
      <trkpt lat="49.51142" lon="-1.42597">
        <ele>72.1</ele>
        <time>2026-09-03T08:28:52.536Z</time>
      </trkpt>
      <trkpt lat="49.51142" lon="-1.42596">
        <ele>72.1</ele>
        <time>2026-09-03T08:28:53.571Z</time>
      </trkpt>
      <trkpt lat="49.51143" lon="-1.42597">
        <ele>72.1</ele>
        <time>2026-09-03T08:28:55.536Z</time>
      </trkpt>
      <trkpt lat="49.51143" lon="-1.42597">
        <ele>72.1</ele>
        <time>2026-09-03T08:28:56.536Z</time>
      </trkpt>
      <trkpt lat="49.51142" lon="-1.42597">
        <ele>72.1</ele>
        <time>2026-09-03T08:28:57.536Z</time>
      </trkpt>
      <trkpt lat="49.51142" lon="-1.42597">
        <ele>72.1</ele>
        <time>2026-09-03T08:28:58.536Z</time>
      </trkpt>
      <trkpt lat="49.51142" lon="-1.42597">
        <ele>72.1</ele>
        <time>2026-09-03T08:28:59.536Z</time>
      </trkpt>
      <trkpt lat="49.51142" lon="-1.42597">
        <ele>72.1</ele>
        <time>2026-09-03T08:29:00.536Z</time>
      </trkpt>
      <trkpt lat="49.51142" lon="-1.42597">
        <ele>72.1</ele>
        <time>2026-09-03T08:29:01.536Z</time>
      </trkpt>
      <trkpt lat="49.51142" lon="-1.42597">
        <ele>72.1</ele>
        <time>2026-09-03T08:29:02.536Z</time>
      </trkpt>
      <trkpt lat="49.51143" lon="-1.42598">
        <ele>72</ele>
        <time>2026-09-03T08:29:03.536Z</time>
      </trkpt>
      <trkpt lat="49.51144" lon="-1.42598">
        <ele>72</ele>
        <time>2026-09-03T08:29:05.419Z</time>
      </trkpt>
      <trkpt lat="49.51145" lon="-1.42599">
        <ele>72</ele>
        <time>2026-09-03T08:29:06.536Z</time>
      </trkpt>
      <trkpt lat="49.51147" lon="-1.42599">
        <ele>72</ele>
        <time>2026-09-03T08:29:07.536Z</time>
      </trkpt>
      <trkpt lat="49.51148" lon="-1.42598">
        <ele>72.1</ele>
        <time>2026-09-03T08:29:08.536Z</time>
      </trkpt>
      <trkpt lat="49.51149" lon="-1.42597">
        <ele>72.2</ele>
        <time>2026-09-03T08:29:09.536Z</time>
      </trkpt>
      <trkpt lat="49.5115" lon="-1.42596">
        <ele>72.3</ele>
        <time>2026-09-03T08:29:10.536Z</time>
      </trkpt>
      <trkpt lat="49.51151" lon="-1.42594">
        <ele>72.4</ele>
        <time>2026-09-03T08:29:11.538Z</time>
      </trkpt>
      <trkpt lat="49.51152" lon="-1.42592">
        <ele>72.5</ele>
        <time>2026-09-03T08:29:13.540Z</time>
      </trkpt>
      <trkpt lat="49.51153" lon="-1.42591">
        <ele>72.6</ele>
        <time>2026-09-03T08:29:15.536Z</time>
      </trkpt>
      <trkpt lat="49.51154" lon="-1.42593">
        <ele>72.5</ele>
        <time>2026-09-03T08:29:16.536Z</time>
      </trkpt>
      <trkpt lat="49.51154" lon="-1.42594">
        <ele>72.4</ele>
        <time>2026-09-03T08:29:17.536Z</time>
      </trkpt>
      <trkpt lat="49.51156" lon="-1.42595">
        <ele>72.4</ele>
        <time>2026-09-03T08:29:19.536Z</time>
      </trkpt>
      <trkpt lat="49.51158" lon="-1.42594">
        <ele>72.5</ele>
        <time>2026-09-03T08:29:20.536Z</time>
      </trkpt>
      <trkpt lat="49.51159" lon="-1.42593">
        <ele>72.6</ele>
        <time>2026-09-03T08:29:21.536Z</time>
      </trkpt>
      <trkpt lat="49.5116" lon="-1.42593">
        <ele>72.6</ele>
        <time>2026-09-03T08:29:22.536Z</time>
      </trkpt>
      <trkpt lat="49.51161" lon="-1.42592">
        <ele>72.6</ele>
        <time>2026-09-03T08:29:23.536Z</time>
      </trkpt>
      <trkpt lat="49.51162" lon="-1.42591">
        <ele>72.7</ele>
        <time>2026-09-03T08:29:24.546Z</time>
      </trkpt>
      <trkpt lat="49.51164" lon="-1.4259">
        <ele>72.7</ele>
        <time>2026-09-03T08:29:26.458Z</time>
      </trkpt>
      <trkpt lat="49.51165" lon="-1.42589">
        <ele>72.8</ele>
        <time>2026-09-03T08:29:27.580Z</time>
      </trkpt>
      <trkpt lat="49.51167" lon="-1.42588">
        <ele>72.8</ele>
        <time>2026-09-03T08:29:29.536Z</time>
      </trkpt>
      <trkpt lat="49.51168" lon="-1.42588">
        <ele>72.8</ele>
        <time>2026-09-03T08:29:30.599Z</time>
      </trkpt>
      <trkpt lat="49.5117" lon="-1.42586">
        <ele>72.9</ele>
        <time>2026-09-03T08:29:32.567Z</time>
      </trkpt>
      <trkpt lat="49.51172" lon="-1.42585">
        <ele>72.9</ele>
        <time>2026-09-03T08:29:34.536Z</time>
      </trkpt>
      <trkpt lat="49.51174" lon="-1.42583">
        <ele>73</ele>
        <time>2026-09-03T08:29:36.572Z</time>
      </trkpt>
      <trkpt lat="49.51176" lon="-1.42584">
        <ele>73</ele>
        <time>2026-09-03T08:29:38.536Z</time>
      </trkpt>
      <trkpt lat="49.51177" lon="-1.42583">
        <ele>73</ele>
        <time>2026-09-03T08:29:39.536Z</time>
      </trkpt>
      <trkpt lat="49.51178" lon="-1.42582">
        <ele>73</ele>
        <time>2026-09-03T08:29:40.536Z</time>
      </trkpt>
      <trkpt lat="49.51178" lon="-1.42582">
        <ele>73</ele>
        <time>2026-09-03T08:29:41.536Z</time>
      </trkpt>
      <trkpt lat="49.51181" lon="-1.42582">
        <ele>73</ele>
        <time>2026-09-03T08:29:43.536Z</time>
      </trkpt>
      <trkpt lat="49.51182" lon="-1.42582">
        <ele>73</ele>
        <time>2026-09-03T08:29:44.599Z</time>
      </trkpt>
      <trkpt lat="49.51184" lon="-1.42582">
        <ele>73</ele>
        <time>2026-09-03T08:29:46.536Z</time>
      </trkpt>
      <trkpt lat="49.51187" lon="-1.42582">
        <ele>73</ele>
        <time>2026-09-03T08:29:48.536Z</time>
      </trkpt>
      <trkpt lat="49.5119" lon="-1.42581">
        <ele>73</ele>
        <time>2026-09-03T08:29:50.621Z</time>
      </trkpt>
      <trkpt lat="49.51191" lon="-1.42581">
        <ele>73</ele>
        <time>2026-09-03T08:29:52.484Z</time>
      </trkpt>
      <trkpt lat="49.51192" lon="-1.42581">
        <ele>73</ele>
        <time>2026-09-03T08:29:53.565Z</time>
      </trkpt>
      <trkpt lat="49.51194" lon="-1.4258">
        <ele>73</ele>
        <time>2026-09-03T08:29:55.536Z</time>
      </trkpt>
      <trkpt lat="49.51195" lon="-1.4258">
        <ele>73</ele>
        <time>2026-09-03T08:29:56.536Z</time>
      </trkpt>
      <trkpt lat="49.51197" lon="-1.42579">
        <ele>73</ele>
        <time>2026-09-03T08:29:57.536Z</time>
      </trkpt>
      <trkpt lat="49.51198" lon="-1.42577">
        <ele>73</ele>
        <time>2026-09-03T08:29:59.503Z</time>
      </trkpt>
      <trkpt lat="49.51199" lon="-1.42575">
        <ele>73</ele>
        <time>2026-09-03T08:30:00.536Z</time>
      </trkpt>
      <trkpt lat="49.512" lon="-1.42575">
        <ele>73.1</ele>
        <time>2026-09-03T08:30:01.536Z</time>
      </trkpt>
      <trkpt lat="49.51202" lon="-1.42575">
        <ele>73.1</ele>
        <time>2026-09-03T08:30:03.536Z</time>
      </trkpt>
      <trkpt lat="49.51204" lon="-1.42575">
        <ele>73.1</ele>
        <time>2026-09-03T08:30:04.536Z</time>
      </trkpt>
      <trkpt lat="49.51205" lon="-1.42574">
        <ele>73.1</ele>
        <time>2026-09-03T08:30:05.536Z</time>
      </trkpt>
      <trkpt lat="49.51207" lon="-1.42574">
        <ele>73.2</ele>
        <time>2026-09-03T08:30:07.536Z</time>
      </trkpt>
      <trkpt lat="49.51208" lon="-1.42574">
        <ele>73.2</ele>
        <time>2026-09-03T08:30:08.536Z</time>
      </trkpt>
      <trkpt lat="49.51209" lon="-1.42574">
        <ele>73.2</ele>
        <time>2026-09-03T08:30:09.537Z</time>
      </trkpt>
      <trkpt lat="49.5121" lon="-1.42573">
        <ele>73.2</ele>
        <time>2026-09-03T08:30:10.538Z</time>
      </trkpt>
      <trkpt lat="49.51212" lon="-1.42573">
        <ele>73.2</ele>
        <time>2026-09-03T08:30:11.540Z</time>
      </trkpt>
      <trkpt lat="49.51213" lon="-1.42573">
        <ele>73.2</ele>
        <time>2026-09-03T08:30:12.541Z</time>
      </trkpt>
      <trkpt lat="49.51215" lon="-1.42573">
        <ele>73.3</ele>
        <time>2026-09-03T08:30:13.543Z</time>
      </trkpt>
      <trkpt lat="49.51216" lon="-1.42572">
        <ele>73.3</ele>
        <time>2026-09-03T08:30:14.544Z</time>
      </trkpt>
      <trkpt lat="49.51217" lon="-1.42572">
        <ele>73.3</ele>
        <time>2026-09-03T08:30:15.545Z</time>
      </trkpt>
      <trkpt lat="49.51218" lon="-1.42571">
        <ele>73.4</ele>
        <time>2026-09-03T08:30:16.547Z</time>
      </trkpt>
      <trkpt lat="49.5122" lon="-1.42569">
        <ele>73.5</ele>
        <time>2026-09-03T08:30:17.548Z</time>
      </trkpt>
      <trkpt lat="49.5122" lon="-1.42568">
        <ele>73.5</ele>
        <time>2026-09-03T08:30:18.549Z</time>
      </trkpt>
      <trkpt lat="49.51221" lon="-1.42567">
        <ele>73.6</ele>
        <time>2026-09-03T08:30:19.551Z</time>
      </trkpt>
      <trkpt lat="49.51222" lon="-1.42566">
        <ele>73.6</ele>
        <time>2026-09-03T08:30:20.552Z</time>
      </trkpt>
      <trkpt lat="49.51223" lon="-1.42565">
        <ele>73.6</ele>
        <time>2026-09-03T08:30:21.553Z</time>
      </trkpt>
      <trkpt lat="49.51225" lon="-1.42565">
        <ele>73.6</ele>
        <time>2026-09-03T08:30:22.555Z</time>
      </trkpt>
      <trkpt lat="49.51226" lon="-1.42564">
        <ele>73.6</ele>
        <time>2026-09-03T08:30:23.556Z</time>
      </trkpt>
      <trkpt lat="49.51227" lon="-1.42564">
        <ele>73.5</ele>
        <time>2026-09-03T08:30:24.558Z</time>
      </trkpt>
      <trkpt lat="49.51229" lon="-1.42564">
        <ele>73.5</ele>
        <time>2026-09-03T08:30:25.559Z</time>
      </trkpt>
      <trkpt lat="49.51231" lon="-1.42563">
        <ele>73.4</ele>
        <time>2026-09-03T08:30:27.562Z</time>
      </trkpt>
      <trkpt lat="49.51232" lon="-1.42562">
        <ele>73.4</ele>
        <time>2026-09-03T08:30:28.563Z</time>
      </trkpt>
      <trkpt lat="49.51234" lon="-1.42561">
        <ele>73.4</ele>
        <time>2026-09-03T08:30:30.486Z</time>
      </trkpt>
      <trkpt lat="49.51235" lon="-1.42561">
        <ele>73.3</ele>
        <time>2026-09-03T08:30:31.577Z</time>
      </trkpt>
      <trkpt lat="49.51238" lon="-1.4256">
        <ele>73.3</ele>
        <time>2026-09-03T08:30:33.536Z</time>
      </trkpt>
      <trkpt lat="49.51239" lon="-1.42559">
        <ele>73.3</ele>
        <time>2026-09-03T08:30:34.536Z</time>
      </trkpt>
      <trkpt lat="49.5124" lon="-1.42559">
        <ele>73.2</ele>
        <time>2026-09-03T08:30:35.553Z</time>
      </trkpt>
      <trkpt lat="49.51242" lon="-1.42559">
        <ele>73.2</ele>
        <time>2026-09-03T08:30:37.575Z</time>
      </trkpt>
      <trkpt lat="49.51244" lon="-1.42557">
        <ele>73.2</ele>
        <time>2026-09-03T08:30:39.536Z</time>
      </trkpt>
      <trkpt lat="49.51246" lon="-1.42555">
        <ele>73.2</ele>
        <time>2026-09-03T08:30:41.581Z</time>
      </trkpt>
      <trkpt lat="49.51247" lon="-1.42554">
        <ele>73.2</ele>
        <time>2026-09-03T08:30:42.581Z</time>
      </trkpt>
      <trkpt lat="49.51249" lon="-1.42554">
        <ele>73.1</ele>
        <time>2026-09-03T08:30:43.584Z</time>
      </trkpt>
      <trkpt lat="49.5125" lon="-1.42553">
        <ele>73.1</ele>
        <time>2026-09-03T08:30:44.585Z</time>
      </trkpt>
      <trkpt lat="49.51252" lon="-1.42552">
        <ele>73</ele>
        <time>2026-09-03T08:30:46.536Z</time>
      </trkpt>
      <trkpt lat="49.51253" lon="-1.42552">
        <ele>73</ele>
        <time>2026-09-03T08:30:47.536Z</time>
      </trkpt>
      <trkpt lat="49.51254" lon="-1.42551">
        <ele>73</ele>
        <time>2026-09-03T08:30:48.536Z</time>
      </trkpt>
      <trkpt lat="49.51256" lon="-1.42551">
        <ele>72.9</ele>
        <time>2026-09-03T08:30:49.536Z</time>
      </trkpt>
      <trkpt lat="49.51257" lon="-1.4255">
        <ele>72.9</ele>
        <time>2026-09-03T08:30:50.536Z</time>
      </trkpt>
      <trkpt lat="49.51258" lon="-1.42549">
        <ele>72.9</ele>
        <time>2026-09-03T08:30:51.574Z</time>
      </trkpt>
      <trkpt lat="49.5126" lon="-1.42548">
        <ele>72.8</ele>
        <time>2026-09-03T08:30:53.536Z</time>
      </trkpt>
      <trkpt lat="49.51261" lon="-1.42548">
        <ele>72.8</ele>
        <time>2026-09-03T08:30:55.580Z</time>
      </trkpt>
      <trkpt lat="49.51264" lon="-1.42546">
        <ele>72.7</ele>
        <time>2026-09-03T08:30:57.559Z</time>
      </trkpt>
      <trkpt lat="49.51267" lon="-1.42544">
        <ele>72.5</ele>
        <time>2026-09-03T08:30:59.536Z</time>
      </trkpt>
      <trkpt lat="49.51268" lon="-1.42544">
        <ele>72.5</ele>
        <time>2026-09-03T08:31:00.567Z</time>
      </trkpt>
      <trkpt lat="49.51269" lon="-1.42543">
        <ele>72.5</ele>
        <time>2026-09-03T08:31:01.568Z</time>
      </trkpt>
      <trkpt lat="49.51269" lon="-1.42542">
        <ele>72.5</ele>
        <time>2026-09-03T08:31:02.569Z</time>
      </trkpt>
      <trkpt lat="49.51271" lon="-1.4254">
        <ele>72.4</ele>
        <time>2026-09-03T08:31:04.572Z</time>
      </trkpt>
      <trkpt lat="49.51274" lon="-1.42537">
        <ele>72.2</ele>
        <time>2026-09-03T08:31:06.536Z</time>
      </trkpt>
      <trkpt lat="49.51275" lon="-1.42535">
        <ele>72.2</ele>
        <time>2026-09-03T08:31:07.576Z</time>
      </trkpt>
      <trkpt lat="49.51277" lon="-1.42531">
        <ele>72.1</ele>
        <time>2026-09-03T08:31:09.579Z</time>
      </trkpt>
      <trkpt lat="49.51278" lon="-1.4253">
        <ele>72</ele>
        <time>2026-09-03T08:31:10.580Z</time>
      </trkpt>
      <trkpt lat="49.5128" lon="-1.42525">
        <ele>71.9</ele>
        <time>2026-09-03T08:31:12.535Z</time>
      </trkpt>
      <trkpt lat="49.51281" lon="-1.42524">
        <ele>71.9</ele>
        <time>2026-09-03T08:31:13.536Z</time>
      </trkpt>
      <trkpt lat="49.51282" lon="-1.42522">
        <ele>71.9</ele>
        <time>2026-09-03T08:31:14.536Z</time>
      </trkpt>
      <trkpt lat="49.51284" lon="-1.42519">
        <ele>71.8</ele>
        <time>2026-09-03T08:31:16.518Z</time>
      </trkpt>
      <trkpt lat="49.51285" lon="-1.42517">
        <ele>71.8</ele>
        <time>2026-09-03T08:31:17.580Z</time>
      </trkpt>
      <trkpt lat="49.51287" lon="-1.42513">
        <ele>71.7</ele>
        <time>2026-09-03T08:31:19.536Z</time>
      </trkpt>
      <trkpt lat="49.51288" lon="-1.42512">
        <ele>71.6</ele>
        <time>2026-09-03T08:31:20.536Z</time>
      </trkpt>
      <trkpt lat="49.5129" lon="-1.42511">
        <ele>71.5</ele>
        <time>2026-09-03T08:31:21.536Z</time>
      </trkpt>
      <trkpt lat="49.51291" lon="-1.4251">
        <ele>71.4</ele>
        <time>2026-09-03T08:31:22.536Z</time>
      </trkpt>
      <trkpt lat="49.51292" lon="-1.42509">
        <ele>71.3</ele>
        <time>2026-09-03T08:31:23.536Z</time>
      </trkpt>
      <trkpt lat="49.51293" lon="-1.42508">
        <ele>71.2</ele>
        <time>2026-09-03T08:31:24.536Z</time>
      </trkpt>
      <trkpt lat="49.51295" lon="-1.42507">
        <ele>71</ele>
        <time>2026-09-03T08:31:25.536Z</time>
      </trkpt>
      <trkpt lat="49.51297" lon="-1.42505">
        <ele>70.9</ele>
        <time>2026-09-03T08:31:27.544Z</time>
      </trkpt>
      <trkpt lat="49.51298" lon="-1.42501">
        <ele>70.8</ele>
        <time>2026-09-03T08:31:29.536Z</time>
      </trkpt>
      <trkpt lat="49.51299" lon="-1.42498">
        <ele>70.9</ele>
        <time>2026-09-03T08:31:31.499Z</time>
      </trkpt>
      <trkpt lat="49.513" lon="-1.42496">
        <ele>70.9</ele>
        <time>2026-09-03T08:31:32.541Z</time>
      </trkpt>
      <trkpt lat="49.51302" lon="-1.42494">
        <ele>70.8</ele>
        <time>2026-09-03T08:31:34.573Z</time>
      </trkpt>
      <trkpt lat="49.51303" lon="-1.42494">
        <ele>70.7</ele>
        <time>2026-09-03T08:31:35.575Z</time>
      </trkpt>
      <trkpt lat="49.51305" lon="-1.42492">
        <ele>70.6</ele>
        <time>2026-09-03T08:31:37.536Z</time>
      </trkpt>
      <trkpt lat="49.51306" lon="-1.42491">
        <ele>70.6</ele>
        <time>2026-09-03T08:31:38.536Z</time>
      </trkpt>
      <trkpt lat="49.51308" lon="-1.42489">
        <ele>70.6</ele>
        <time>2026-09-03T08:31:39.536Z</time>
      </trkpt>
      <trkpt lat="49.51309" lon="-1.42488">
        <ele>70.6</ele>
        <time>2026-09-03T08:31:40.536Z</time>
      </trkpt>
      <trkpt lat="49.5131" lon="-1.42487">
        <ele>70.6</ele>
        <time>2026-09-03T08:31:41.536Z</time>
      </trkpt>
      <trkpt lat="49.51311" lon="-1.42485">
        <ele>70.7</ele>
        <time>2026-09-03T08:31:42.599Z</time>
      </trkpt>
      <trkpt lat="49.51313" lon="-1.42482">
        <ele>70.7</ele>
        <time>2026-09-03T08:31:44.537Z</time>
      </trkpt>
      <trkpt lat="49.51314" lon="-1.42481">
        <ele>70.6</ele>
        <time>2026-09-03T08:31:45.568Z</time>
      </trkpt>
      <trkpt lat="49.51315" lon="-1.4248">
        <ele>70.6</ele>
        <time>2026-09-03T08:31:46.570Z</time>
      </trkpt>
      <trkpt lat="49.51316" lon="-1.42478">
        <ele>70.6</ele>
        <time>2026-09-03T08:31:47.571Z</time>
      </trkpt>
      <trkpt lat="49.51317" lon="-1.42476">
        <ele>70.6</ele>
        <time>2026-09-03T08:31:48.573Z</time>
      </trkpt>
      <trkpt lat="49.51318" lon="-1.42473">
        <ele>70.6</ele>
        <time>2026-09-03T08:31:50.545Z</time>
      </trkpt>
      <trkpt lat="49.51319" lon="-1.42472">
        <ele>70.6</ele>
        <time>2026-09-03T08:31:51.557Z</time>
      </trkpt>
      <trkpt lat="49.51321" lon="-1.4247">
        <ele>70.4</ele>
        <time>2026-09-03T08:31:52.558Z</time>
      </trkpt>
      <trkpt lat="49.51322" lon="-1.42469">
        <ele>70.4</ele>
        <time>2026-09-03T08:31:53.559Z</time>
      </trkpt>
      <trkpt lat="49.51322" lon="-1.42468">
        <ele>70.4</ele>
        <time>2026-09-03T08:31:54.561Z</time>
      </trkpt>
      <trkpt lat="49.51323" lon="-1.42466">
        <ele>70.4</ele>
        <time>2026-09-03T08:31:55.562Z</time>
      </trkpt>
      <trkpt lat="49.51324" lon="-1.42464">
        <ele>70.4</ele>
        <time>2026-09-03T08:31:56.599Z</time>
      </trkpt>
      <trkpt lat="49.51326" lon="-1.42462">
        <ele>70.3</ele>
        <time>2026-09-03T08:31:58.546Z</time>
      </trkpt>
      <trkpt lat="49.51328" lon="-1.4246">
        <ele>70.1</ele>
        <time>2026-09-03T08:32:00.519Z</time>
      </trkpt>
      <trkpt lat="49.51329" lon="-1.42459">
        <ele>70</ele>
        <time>2026-09-03T08:32:01.536Z</time>
      </trkpt>
      <trkpt lat="49.51329" lon="-1.42458">
        <ele>70.1</ele>
        <time>2026-09-03T08:32:02.536Z</time>
      </trkpt>
      <trkpt lat="49.51331" lon="-1.42457">
        <ele>69.8</ele>
        <time>2026-09-03T08:32:03.536Z</time>
      </trkpt>
      <trkpt lat="49.51333" lon="-1.42454">
        <ele>69.7</ele>
        <time>2026-09-03T08:32:05.526Z</time>
      </trkpt>
      <trkpt lat="49.51334" lon="-1.42453">
        <ele>69.7</ele>
        <time>2026-09-03T08:32:06.557Z</time>
      </trkpt>
      <trkpt lat="49.51335" lon="-1.42452">
        <ele>69.7</ele>
        <time>2026-09-03T08:32:07.558Z</time>
      </trkpt>
      <trkpt lat="49.51335" lon="-1.42452">
        <ele>69.7</ele>
        <time>2026-09-03T08:32:08.560Z</time>
      </trkpt>
      <trkpt lat="49.51336" lon="-1.42451">
        <ele>69.6</ele>
        <time>2026-09-03T08:32:09.561Z</time>
      </trkpt>
      <trkpt lat="49.51338" lon="-1.4245">
        <ele>69.6</ele>
        <time>2026-09-03T08:32:10.561Z</time>
      </trkpt>
      <trkpt lat="49.51341" lon="-1.42448">
        <ele>69.6</ele>
        <time>2026-09-03T08:32:12.565Z</time>
      </trkpt>
      <trkpt lat="49.51342" lon="-1.42447">
        <ele>69.6</ele>
        <time>2026-09-03T08:32:13.567Z</time>
      </trkpt>
      <trkpt lat="49.51343" lon="-1.42446">
        <ele>69.6</ele>
        <time>2026-09-03T08:32:14.568Z</time>
      </trkpt>
      <trkpt lat="49.51345" lon="-1.42444">
        <ele>69.6</ele>
        <time>2026-09-03T08:32:15.569Z</time>
      </trkpt>
      <trkpt lat="49.51347" lon="-1.42442">
        <ele>69.7</ele>
        <time>2026-09-03T08:32:17.562Z</time>
      </trkpt>
      <trkpt lat="49.51349" lon="-1.42439">
        <ele>69.8</ele>
        <time>2026-09-03T08:32:19.536Z</time>
      </trkpt>
      <trkpt lat="49.5135" lon="-1.42437">
        <ele>69.9</ele>
        <time>2026-09-03T08:32:20.536Z</time>
      </trkpt>
      <trkpt lat="49.51351" lon="-1.42436">
        <ele>69.9</ele>
        <time>2026-09-03T08:32:21.536Z</time>
      </trkpt>
      <trkpt lat="49.51352" lon="-1.42435">
        <ele>69.9</ele>
        <time>2026-09-03T08:32:22.539Z</time>
      </trkpt>
      <trkpt lat="49.51353" lon="-1.42433">
        <ele>69.9</ele>
        <time>2026-09-03T08:32:24.536Z</time>
      </trkpt>
      <trkpt lat="49.51354" lon="-1.42432">
        <ele>69.9</ele>
        <time>2026-09-03T08:32:25.536Z</time>
      </trkpt>
      <trkpt lat="49.51355" lon="-1.42431">
        <ele>69.9</ele>
        <time>2026-09-03T08:32:26.536Z</time>
      </trkpt>
      <trkpt lat="49.51356" lon="-1.4243">
        <ele>69.9</ele>
        <time>2026-09-03T08:32:27.536Z</time>
      </trkpt>
      <trkpt lat="49.51358" lon="-1.42429">
        <ele>69.8</ele>
        <time>2026-09-03T08:32:28.536Z</time>
      </trkpt>
      <trkpt lat="49.51359" lon="-1.42427">
        <ele>69.8</ele>
        <time>2026-09-03T08:32:29.536Z</time>
      </trkpt>
      <trkpt lat="49.51361" lon="-1.42425">
        <ele>69.7</ele>
        <time>2026-09-03T08:32:31.561Z</time>
      </trkpt>
      <trkpt lat="49.51362" lon="-1.42423">
        <ele>69.7</ele>
        <time>2026-09-03T08:32:33.536Z</time>
      </trkpt>
      <trkpt lat="49.51364" lon="-1.42421">
        <ele>69.6</ele>
        <time>2026-09-03T08:32:35.547Z</time>
      </trkpt>
      <trkpt lat="49.51366" lon="-1.42418">
        <ele>69.6</ele>
        <time>2026-09-03T08:32:37.539Z</time>
      </trkpt>
      <trkpt lat="49.51367" lon="-1.42417">
        <ele>69.6</ele>
        <time>2026-09-03T08:32:38.541Z</time>
      </trkpt>
      <trkpt lat="49.51368" lon="-1.42416">
        <ele>69.5</ele>
        <time>2026-09-03T08:32:39.562Z</time>
      </trkpt>
      <trkpt lat="49.5137" lon="-1.42413">
        <ele>69.5</ele>
        <time>2026-09-03T08:32:41.536Z</time>
      </trkpt>
      <trkpt lat="49.51372" lon="-1.4241">
        <ele>69.5</ele>
        <time>2026-09-03T08:32:43.536Z</time>
      </trkpt>
      <trkpt lat="49.51372" lon="-1.42409">
        <ele>69.5</ele>
        <time>2026-09-03T08:32:44.536Z</time>
      </trkpt>
      <trkpt lat="49.51372" lon="-1.42407">
        <ele>69.6</ele>
        <time>2026-09-03T08:32:45.536Z</time>
      </trkpt>
      <trkpt lat="49.51372" lon="-1.42406">
        <ele>69.6</ele>
        <time>2026-09-03T08:32:46.536Z</time>
      </trkpt>
      <trkpt lat="49.51372" lon="-1.42406">
        <ele>69.6</ele>
        <time>2026-09-03T08:32:47.536Z</time>
      </trkpt>
      <trkpt lat="49.51372" lon="-1.42406">
        <ele>69.6</ele>
        <time>2026-09-03T08:32:48.536Z</time>
      </trkpt>
      <trkpt lat="49.51371" lon="-1.42406">
        <ele>69.7</ele>
        <time>2026-09-03T08:32:49.536Z</time>
      </trkpt>
      <trkpt lat="49.51371" lon="-1.42406">
        <ele>69.7</ele>
        <time>2026-09-03T08:32:50.536Z</time>
      </trkpt>
      <trkpt lat="49.51371" lon="-1.42406">
        <ele>69.7</ele>
        <time>2026-09-03T08:32:51.536Z</time>
      </trkpt>
      <trkpt lat="49.5137" lon="-1.42407">
        <ele>69.7</ele>
        <time>2026-09-03T08:32:52.536Z</time>
      </trkpt>
      <trkpt lat="49.5137" lon="-1.42407">
        <ele>69.7</ele>
        <time>2026-09-03T08:32:53.536Z</time>
      </trkpt>
      <trkpt lat="49.5137" lon="-1.42407">
        <ele>69.7</ele>
        <time>2026-09-03T08:32:54.536Z</time>
      </trkpt>
      <trkpt lat="49.51371" lon="-1.42406">
        <ele>69.7</ele>
        <time>2026-09-03T08:32:56.536Z</time>
      </trkpt>
      <trkpt lat="49.51371" lon="-1.42405">
        <ele>69.7</ele>
        <time>2026-09-03T08:32:57.536Z</time>
      </trkpt>
      <trkpt lat="49.51372" lon="-1.42403">
        <ele>69.7</ele>
        <time>2026-09-03T08:32:58.536Z</time>
      </trkpt>
      <trkpt lat="49.51373" lon="-1.424">
        <ele>69.7</ele>
        <time>2026-09-03T08:32:59.630Z</time>
      </trkpt>
      <trkpt lat="49.51376" lon="-1.42398">
        <ele>69.6</ele>
        <time>2026-09-03T08:33:01.536Z</time>
      </trkpt>
      <trkpt lat="49.51378" lon="-1.42398">
        <ele>69.5</ele>
        <time>2026-09-03T08:33:02.536Z</time>
      </trkpt>
      <trkpt lat="49.51379" lon="-1.42397">
        <ele>69.4</ele>
        <time>2026-09-03T08:33:03.536Z</time>
      </trkpt>
      <trkpt lat="49.51381" lon="-1.42397">
        <ele>69.3</ele>
        <time>2026-09-03T08:33:04.537Z</time>
      </trkpt>
      <trkpt lat="49.51383" lon="-1.42397">
        <ele>69.1</ele>
        <time>2026-09-03T08:33:05.539Z</time>
      </trkpt>
      <trkpt lat="49.51384" lon="-1.42397">
        <ele>69.1</ele>
        <time>2026-09-03T08:33:06.540Z</time>
      </trkpt>
      <trkpt lat="49.51386" lon="-1.42397">
        <ele>68.9</ele>
        <time>2026-09-03T08:33:07.542Z</time>
      </trkpt>
      <trkpt lat="49.51387" lon="-1.42396">
        <ele>68.9</ele>
        <time>2026-09-03T08:33:08.543Z</time>
      </trkpt>
      <trkpt lat="49.51389" lon="-1.42394">
        <ele>68.8</ele>
        <time>2026-09-03T08:33:10.505Z</time>
      </trkpt>
      <trkpt lat="49.5139" lon="-1.42393">
        <ele>68.8</ele>
        <time>2026-09-03T08:33:11.518Z</time>
      </trkpt>
      <trkpt lat="49.51391" lon="-1.42392">
        <ele>68.8</ele>
        <time>2026-09-03T08:33:12.579Z</time>
      </trkpt>
      <trkpt lat="49.51393" lon="-1.42389">
        <ele>68.8</ele>
        <time>2026-09-03T08:33:14.552Z</time>
      </trkpt>
      <trkpt lat="49.51394" lon="-1.42388">
        <ele>68.8</ele>
        <time>2026-09-03T08:33:15.554Z</time>
      </trkpt>
      <trkpt lat="49.51396" lon="-1.42387">
        <ele>68.8</ele>
        <time>2026-09-03T08:33:16.554Z</time>
      </trkpt>
      <trkpt lat="49.51397" lon="-1.42386">
        <ele>68.8</ele>
        <time>2026-09-03T08:33:17.557Z</time>
      </trkpt>
      <trkpt lat="49.51399" lon="-1.42382">
        <ele>68.8</ele>
        <time>2026-09-03T08:33:19.519Z</time>
      </trkpt>
      <trkpt lat="49.514" lon="-1.4238">
        <ele>68.8</ele>
        <time>2026-09-03T08:33:20.561Z</time>
      </trkpt>
      <trkpt lat="49.514" lon="-1.42379">
        <ele>68.8</ele>
        <time>2026-09-03T08:33:21.582Z</time>
      </trkpt>
      <trkpt lat="49.51402" lon="-1.42376">
        <ele>68.8</ele>
        <time>2026-09-03T08:33:23.565Z</time>
      </trkpt>
      <trkpt lat="49.51403" lon="-1.42373">
        <ele>68.8</ele>
        <time>2026-09-03T08:33:25.536Z</time>
      </trkpt>
      <trkpt lat="49.51404" lon="-1.42372">
        <ele>68.7</ele>
        <time>2026-09-03T08:33:26.569Z</time>
      </trkpt>
      <trkpt lat="49.51405" lon="-1.4237">
        <ele>68.7</ele>
        <time>2026-09-03T08:33:27.571Z</time>
      </trkpt>
      <trkpt lat="49.51407" lon="-1.42367">
        <ele>68.6</ele>
        <time>2026-09-03T08:33:29.574Z</time>
      </trkpt>
      <trkpt lat="49.51408" lon="-1.42366">
        <ele>68.6</ele>
        <time>2026-09-03T08:33:30.575Z</time>
      </trkpt>
      <trkpt lat="49.5141" lon="-1.42363">
        <ele>68.5</ele>
        <time>2026-09-03T08:33:32.536Z</time>
      </trkpt>
      <trkpt lat="49.5141" lon="-1.42362">
        <ele>68.5</ele>
        <time>2026-09-03T08:33:33.536Z</time>
      </trkpt>
      <trkpt lat="49.51412" lon="-1.4236">
        <ele>68.3</ele>
        <time>2026-09-03T08:33:35.536Z</time>
      </trkpt>
      <trkpt lat="49.51413" lon="-1.42359">
        <ele>68.3</ele>
        <time>2026-09-03T08:33:36.563Z</time>
      </trkpt>
      <trkpt lat="49.51414" lon="-1.42358">
        <ele>68.2</ele>
        <time>2026-09-03T08:33:37.565Z</time>
      </trkpt>
      <trkpt lat="49.51415" lon="-1.42358">
        <ele>68.1</ele>
        <time>2026-09-03T08:33:38.566Z</time>
      </trkpt>
      <trkpt lat="49.51417" lon="-1.42356">
        <ele>68</ele>
        <time>2026-09-03T08:33:40.579Z</time>
      </trkpt>
      <trkpt lat="49.51419" lon="-1.42353">
        <ele>67.9</ele>
        <time>2026-09-03T08:33:42.572Z</time>
      </trkpt>
      <trkpt lat="49.51421" lon="-1.4235">
        <ele>67.8</ele>
        <time>2026-09-03T08:33:44.536Z</time>
      </trkpt>
      <trkpt lat="49.51422" lon="-1.42349">
        <ele>67.8</ele>
        <time>2026-09-03T08:33:45.536Z</time>
      </trkpt>
      <trkpt lat="49.51423" lon="-1.42348">
        <ele>67.8</ele>
        <time>2026-09-03T08:33:46.536Z</time>
      </trkpt>
      <trkpt lat="49.51424" lon="-1.42346">
        <ele>67.8</ele>
        <time>2026-09-03T08:33:47.536Z</time>
      </trkpt>
      <trkpt lat="49.51425" lon="-1.42343">
        <ele>67.8</ele>
        <time>2026-09-03T08:33:49.544Z</time>
      </trkpt>
      <trkpt lat="49.51426" lon="-1.4234">
        <ele>67.8</ele>
        <time>2026-09-03T08:33:51.507Z</time>
      </trkpt>
      <trkpt lat="49.51425" lon="-1.42339">
        <ele>67.9</ele>
        <time>2026-09-03T08:33:52.518Z</time>
      </trkpt>
      <trkpt lat="49.51425" lon="-1.4234">
        <ele>67.9</ele>
        <time>2026-09-03T08:33:53.536Z</time>
      </trkpt>
      <trkpt lat="49.51425" lon="-1.4234">
        <ele>67.9</ele>
        <time>2026-09-03T08:33:54.536Z</time>
      </trkpt>
      <trkpt lat="49.51425" lon="-1.42341">
        <ele>67.8</ele>
        <time>2026-09-03T08:33:55.536Z</time>
      </trkpt>
      <trkpt lat="49.51425" lon="-1.4234">
        <ele>67.9</ele>
        <time>2026-09-03T08:33:56.536Z</time>
      </trkpt>
      <trkpt lat="49.51425" lon="-1.4234">
        <ele>67.9</ele>
        <time>2026-09-03T08:33:57.536Z</time>
      </trkpt>
      <trkpt lat="49.51425" lon="-1.42339">
        <ele>67.9</ele>
        <time>2026-09-03T08:33:58.536Z</time>
      </trkpt>
      <trkpt lat="49.51425" lon="-1.42338">
        <ele>67.9</ele>
        <time>2026-09-03T08:33:59.536Z</time>
      </trkpt>
      <trkpt lat="49.51425" lon="-1.42337">
        <ele>67.9</ele>
        <time>2026-09-03T08:34:00.536Z</time>
      </trkpt>
      <trkpt lat="49.51426" lon="-1.42334">
        <ele>68</ele>
        <time>2026-09-03T08:34:01.539Z</time>
      </trkpt>
      <trkpt lat="49.51427" lon="-1.42331">
        <ele>68.1</ele>
        <time>2026-09-03T08:34:02.540Z</time>
      </trkpt>
      <trkpt lat="49.51427" lon="-1.42329">
        <ele>68.3</ele>
        <time>2026-09-03T08:34:03.542Z</time>
      </trkpt>
      <trkpt lat="49.51427" lon="-1.42327">
        <ele>68.4</ele>
        <time>2026-09-03T08:34:04.563Z</time>
      </trkpt>
      <trkpt lat="49.51427" lon="-1.42325">
        <ele>68.5</ele>
        <time>2026-09-03T08:34:05.599Z</time>
      </trkpt>
      <trkpt lat="49.51427" lon="-1.42322">
        <ele>68.7</ele>
        <time>2026-09-03T08:34:07.547Z</time>
      </trkpt>
      <trkpt lat="49.51427" lon="-1.42322">
        <ele>68.7</ele>
        <time>2026-09-03T08:34:08.549Z</time>
      </trkpt>
      <trkpt lat="49.51426" lon="-1.42321">
        <ele>68.7</ele>
        <time>2026-09-03T08:34:09.551Z</time>
      </trkpt>
      <trkpt lat="49.51426" lon="-1.42322">
        <ele>68.7</ele>
        <time>2026-09-03T08:34:10.552Z</time>
      </trkpt>
      <trkpt lat="49.51426" lon="-1.42322">
        <ele>68.7</ele>
        <time>2026-09-03T08:34:11.554Z</time>
      </trkpt>
      <trkpt lat="49.51426" lon="-1.42322">
        <ele>68.7</ele>
        <time>2026-09-03T08:34:12.555Z</time>
      </trkpt>
      <trkpt lat="49.51426" lon="-1.42323">
        <ele>68.6</ele>
        <time>2026-09-03T08:34:13.557Z</time>
      </trkpt>
      <trkpt lat="49.51425" lon="-1.42323">
        <ele>68.6</ele>
        <time>2026-09-03T08:34:14.558Z</time>
      </trkpt>
      <trkpt lat="49.51425" lon="-1.42323">
        <ele>68.6</ele>
        <time>2026-09-03T08:34:15.560Z</time>
      </trkpt>
      <trkpt lat="49.51425" lon="-1.42323">
        <ele>68.6</ele>
        <time>2026-09-03T08:34:16.561Z</time>
      </trkpt>
      <trkpt lat="49.51425" lon="-1.42323">
        <ele>68.6</ele>
        <time>2026-09-03T08:34:17.563Z</time>
      </trkpt>
      <trkpt lat="49.51425" lon="-1.42323">
        <ele>68.6</ele>
        <time>2026-09-03T08:34:18.564Z</time>
      </trkpt>
      <trkpt lat="49.51425" lon="-1.42324">
        <ele>68.6</ele>
        <time>2026-09-03T08:34:19.566Z</time>
      </trkpt>
      <trkpt lat="49.51425" lon="-1.42323">
        <ele>68.6</ele>
        <time>2026-09-03T08:34:20.566Z</time>
      </trkpt>
      <trkpt lat="49.51424" lon="-1.4232">
        <ele>68.8</ele>
        <time>2026-09-03T08:34:22.570Z</time>
      </trkpt>
      <trkpt lat="49.51422" lon="-1.42317">
        <ele>69.1</ele>
        <time>2026-09-03T08:34:24.536Z</time>
      </trkpt>
      <trkpt lat="49.51421" lon="-1.42317">
        <ele>69.1</ele>
        <time>2026-09-03T08:34:25.536Z</time>
      </trkpt>
      <trkpt lat="49.51419" lon="-1.42316">
        <ele>69.2</ele>
        <time>2026-09-03T08:34:26.536Z</time>
      </trkpt>
      <trkpt lat="49.51417" lon="-1.42315">
        <ele>69.3</ele>
        <time>2026-09-03T08:34:27.536Z</time>
      </trkpt>
      <trkpt lat="49.51416" lon="-1.42314">
        <ele>69.5</ele>
        <time>2026-09-03T08:34:28.536Z</time>
      </trkpt>
      <trkpt lat="49.51414" lon="-1.42314">
        <ele>69.7</ele>
        <time>2026-09-03T08:34:29.536Z</time>
      </trkpt>
      <trkpt lat="49.51412" lon="-1.42312">
        <ele>70.1</ele>
        <time>2026-09-03T08:34:31.536Z</time>
      </trkpt>
      <trkpt lat="49.51411" lon="-1.42311">
        <ele>70.3</ele>
        <time>2026-09-03T08:34:32.536Z</time>
      </trkpt>
      <trkpt lat="49.5141" lon="-1.42309">
        <ele>70.5</ele>
        <time>2026-09-03T08:34:33.536Z</time>
      </trkpt>
      <trkpt lat="49.51409" lon="-1.42308">
        <ele>70.7</ele>
        <time>2026-09-03T08:34:34.536Z</time>
      </trkpt>
      <trkpt lat="49.51409" lon="-1.42308">
        <ele>70.7</ele>
        <time>2026-09-03T08:34:35.579Z</time>
      </trkpt>
      <trkpt lat="49.51409" lon="-1.42307">
        <ele>70.7</ele>
        <time>2026-09-03T08:34:36.599Z</time>
      </trkpt>
      <trkpt lat="49.51408" lon="-1.42306">
        <ele>70.9</ele>
        <time>2026-09-03T08:34:37.599Z</time>
      </trkpt>
      <trkpt lat="49.51405" lon="-1.42303">
        <ele>71.3</ele>
        <time>2026-09-03T08:34:39.536Z</time>
      </trkpt>
      <trkpt lat="49.51404" lon="-1.42301">
        <ele>71.5</ele>
        <time>2026-09-03T08:34:40.536Z</time>
      </trkpt>
      <trkpt lat="49.51402" lon="-1.42298">
        <ele>71.7</ele>
        <time>2026-09-03T08:34:42.459Z</time>
      </trkpt>
      <trkpt lat="49.51401" lon="-1.42297">
        <ele>71.8</ele>
        <time>2026-09-03T08:34:43.571Z</time>
      </trkpt>
      <trkpt lat="49.51399" lon="-1.42294">
        <ele>72.1</ele>
        <time>2026-09-03T08:34:45.536Z</time>
      </trkpt>
      <trkpt lat="49.51397" lon="-1.42292">
        <ele>72.3</ele>
        <time>2026-09-03T08:34:47.536Z</time>
      </trkpt>
      <trkpt lat="49.51396" lon="-1.4229">
        <ele>72.4</ele>
        <time>2026-09-03T08:34:49.519Z</time>
      </trkpt>
      <trkpt lat="49.51395" lon="-1.42288">
        <ele>72.5</ele>
        <time>2026-09-03T08:34:50.541Z</time>
      </trkpt>
      <trkpt lat="49.51394" lon="-1.42287">
        <ele>72.6</ele>
        <time>2026-09-03T08:34:51.542Z</time>
      </trkpt>
      <trkpt lat="49.51393" lon="-1.42285">
        <ele>72.7</ele>
        <time>2026-09-03T08:34:52.543Z</time>
      </trkpt>
      <trkpt lat="49.51393" lon="-1.42284">
        <ele>72.7</ele>
        <time>2026-09-03T08:34:53.545Z</time>
      </trkpt>
      <trkpt lat="49.51392" lon="-1.42281">
        <ele>72.8</ele>
        <time>2026-09-03T08:34:55.548Z</time>
      </trkpt>
      <trkpt lat="49.51391" lon="-1.42279">
        <ele>72.8</ele>
        <time>2026-09-03T08:34:56.549Z</time>
      </trkpt>
      <trkpt lat="49.5139" lon="-1.42277">
        <ele>72.9</ele>
        <time>2026-09-03T08:34:57.551Z</time>
      </trkpt>
      <trkpt lat="49.5139" lon="-1.42276">
        <ele>73</ele>
        <time>2026-09-03T08:34:58.552Z</time>
      </trkpt>
      <trkpt lat="49.51392" lon="-1.42275">
        <ele>72.9</ele>
        <time>2026-09-03T08:34:59.554Z</time>
      </trkpt>
      <trkpt lat="49.51392" lon="-1.42278">
        <ele>72.8</ele>
        <time>2026-09-03T08:35:00.555Z</time>
      </trkpt>
      <trkpt lat="49.5139" lon="-1.42277">
        <ele>72.9</ele>
        <time>2026-09-03T08:35:01.556Z</time>
      </trkpt>
      <trkpt lat="49.51389" lon="-1.42274">
        <ele>73.1</ele>
        <time>2026-09-03T08:35:02.558Z</time>
      </trkpt>
      <trkpt lat="49.51388" lon="-1.42272">
        <ele>73.3</ele>
        <time>2026-09-03T08:35:03.559Z</time>
      </trkpt>
      <trkpt lat="49.51387" lon="-1.42271">
        <ele>73.4</ele>
        <time>2026-09-03T08:35:04.560Z</time>
      </trkpt>
      <trkpt lat="49.51386" lon="-1.42269">
        <ele>73.6</ele>
        <time>2026-09-03T08:35:05.562Z</time>
      </trkpt>
      <trkpt lat="49.51385" lon="-1.42267">
        <ele>73.8</ele>
        <time>2026-09-03T08:35:06.564Z</time>
      </trkpt>
      <trkpt lat="49.51383" lon="-1.42264">
        <ele>74</ele>
        <time>2026-09-03T08:35:08.566Z</time>
      </trkpt>
      <trkpt lat="49.51382" lon="-1.42262">
        <ele>74.2</ele>
        <time>2026-09-03T08:35:09.568Z</time>
      </trkpt>
      <trkpt lat="49.51381" lon="-1.42258">
        <ele>74.4</ele>
        <time>2026-09-03T08:35:11.536Z</time>
      </trkpt>
      <trkpt lat="49.5138" lon="-1.42255">
        <ele>74.5</ele>
        <time>2026-09-03T08:35:13.583Z</time>
      </trkpt>
      <trkpt lat="49.51379" lon="-1.42251">
        <ele>74.7</ele>
        <time>2026-09-03T08:35:15.536Z</time>
      </trkpt>
      <trkpt lat="49.51378" lon="-1.42249">
        <ele>74.8</ele>
        <time>2026-09-03T08:35:16.536Z</time>
      </trkpt>
      <trkpt lat="49.51378" lon="-1.42248">
        <ele>74.9</ele>
        <time>2026-09-03T08:35:17.539Z</time>
      </trkpt>
      <trkpt lat="49.51378" lon="-1.42246">
        <ele>74.9</ele>
        <time>2026-09-03T08:35:18.580Z</time>
      </trkpt>
      <trkpt lat="49.51376" lon="-1.42244">
        <ele>75.1</ele>
        <time>2026-09-03T08:35:20.535Z</time>
      </trkpt>
      <trkpt lat="49.51375" lon="-1.42242">
        <ele>75.3</ele>
        <time>2026-09-03T08:35:21.536Z</time>
      </trkpt>
      <trkpt lat="49.51374" lon="-1.42241">
        <ele>75.4</ele>
        <time>2026-09-03T08:35:22.536Z</time>
      </trkpt>
      <trkpt lat="49.51374" lon="-1.42239">
        <ele>75.5</ele>
        <time>2026-09-03T08:35:23.536Z</time>
      </trkpt>
      <trkpt lat="49.51372" lon="-1.42236">
        <ele>75.7</ele>
        <time>2026-09-03T08:35:25.536Z</time>
      </trkpt>
      <trkpt lat="49.51371" lon="-1.42234">
        <ele>75.9</ele>
        <time>2026-09-03T08:35:26.592Z</time>
      </trkpt>
      <trkpt lat="49.5137" lon="-1.42231">
        <ele>76</ele>
        <time>2026-09-03T08:35:28.574Z</time>
      </trkpt>
      <trkpt lat="49.51369" lon="-1.42231">
        <ele>76.1</ele>
        <time>2026-09-03T08:35:29.576Z</time>
      </trkpt>
      <trkpt lat="49.51368" lon="-1.42228">
        <ele>76.3</ele>
        <time>2026-09-03T08:35:31.536Z</time>
      </trkpt>
      <trkpt lat="49.51367" lon="-1.42227">
        <ele>76.4</ele>
        <time>2026-09-03T08:35:32.536Z</time>
      </trkpt>
      <trkpt lat="49.51366" lon="-1.42226">
        <ele>76.5</ele>
        <time>2026-09-03T08:35:33.536Z</time>
      </trkpt>
      <trkpt lat="49.51366" lon="-1.42224">
        <ele>76.6</ele>
        <time>2026-09-03T08:35:34.563Z</time>
      </trkpt>
      <trkpt lat="49.51364" lon="-1.42222">
        <ele>76.8</ele>
        <time>2026-09-03T08:35:36.536Z</time>
      </trkpt>
      <trkpt lat="49.51363" lon="-1.42221">
        <ele>76.9</ele>
        <time>2026-09-03T08:35:37.536Z</time>
      </trkpt>
      <trkpt lat="49.51361" lon="-1.42218">
        <ele>77</ele>
        <time>2026-09-03T08:35:39.536Z</time>
      </trkpt>
      <trkpt lat="49.51361" lon="-1.42216">
        <ele>77</ele>
        <time>2026-09-03T08:35:40.536Z</time>
      </trkpt>
      <trkpt lat="49.5136" lon="-1.42214">
        <ele>77.1</ele>
        <time>2026-09-03T08:35:41.536Z</time>
      </trkpt>
      <trkpt lat="49.51359" lon="-1.42211">
        <ele>77.2</ele>
        <time>2026-09-03T08:35:43.536Z</time>
      </trkpt>
      <trkpt lat="49.51359" lon="-1.4221">
        <ele>77.2</ele>
        <time>2026-09-03T08:35:44.536Z</time>
      </trkpt>
      <trkpt lat="49.51359" lon="-1.42209">
        <ele>77.2</ele>
        <time>2026-09-03T08:35:45.536Z</time>
      </trkpt>
      <trkpt lat="49.51358" lon="-1.42207">
        <ele>77.3</ele>
        <time>2026-09-03T08:35:46.539Z</time>
      </trkpt>
      <trkpt lat="49.51358" lon="-1.42204">
        <ele>77.3</ele>
        <time>2026-09-03T08:35:48.482Z</time>
      </trkpt>
      <trkpt lat="49.51357" lon="-1.42203">
        <ele>77.4</ele>
        <time>2026-09-03T08:35:49.536Z</time>
      </trkpt>
      <trkpt lat="49.51356" lon="-1.422">
        <ele>77.6</ele>
        <time>2026-09-03T08:35:51.536Z</time>
      </trkpt>
      <trkpt lat="49.51356" lon="-1.42198">
        <ele>77.6</ele>
        <time>2026-09-03T08:35:52.536Z</time>
      </trkpt>
      <trkpt lat="49.51355" lon="-1.42195">
        <ele>77.7</ele>
        <time>2026-09-03T08:35:54.536Z</time>
      </trkpt>
      <trkpt lat="49.51354" lon="-1.42192">
        <ele>77.8</ele>
        <time>2026-09-03T08:35:56.536Z</time>
      </trkpt>
      <trkpt lat="49.51353" lon="-1.4219">
        <ele>78</ele>
        <time>2026-09-03T08:35:57.536Z</time>
      </trkpt>
      <trkpt lat="49.51353" lon="-1.42188">
        <ele>78</ele>
        <time>2026-09-03T08:35:58.556Z</time>
      </trkpt>
      <trkpt lat="49.51352" lon="-1.42187">
        <ele>78.2</ele>
        <time>2026-09-03T08:35:59.557Z</time>
      </trkpt>
      <trkpt lat="49.51351" lon="-1.42185">
        <ele>78.3</ele>
        <time>2026-09-03T08:36:00.599Z</time>
      </trkpt>
      <trkpt lat="49.5135" lon="-1.42184">
        <ele>78.4</ele>
        <time>2026-09-03T08:36:02.481Z</time>
      </trkpt>
      <trkpt lat="49.5135" lon="-1.42182">
        <ele>78.5</ele>
        <time>2026-09-03T08:36:03.536Z</time>
      </trkpt>
      <trkpt lat="49.51349" lon="-1.4218">
        <ele>78.6</ele>
        <time>2026-09-03T08:36:04.536Z</time>
      </trkpt>
      <trkpt lat="49.51348" lon="-1.42179">
        <ele>78.7</ele>
        <time>2026-09-03T08:36:05.536Z</time>
      </trkpt>
      <trkpt lat="49.51347" lon="-1.42176">
        <ele>78.9</ele>
        <time>2026-09-03T08:36:06.536Z</time>
      </trkpt>
      <trkpt lat="49.51346" lon="-1.42175">
        <ele>79</ele>
        <time>2026-09-03T08:36:07.536Z</time>
      </trkpt>
      <trkpt lat="49.51346" lon="-1.42173">
        <ele>79</ele>
        <time>2026-09-03T08:36:08.536Z</time>
      </trkpt>
      <trkpt lat="49.51345" lon="-1.4217">
        <ele>79.1</ele>
        <time>2026-09-03T08:36:10.536Z</time>
      </trkpt>
      <trkpt lat="49.51345" lon="-1.42168">
        <ele>79.1</ele>
        <time>2026-09-03T08:36:11.536Z</time>
      </trkpt>
      <trkpt lat="49.51344" lon="-1.42166">
        <ele>79.2</ele>
        <time>2026-09-03T08:36:12.536Z</time>
      </trkpt>
      <trkpt lat="49.51344" lon="-1.42164">
        <ele>79.3</ele>
        <time>2026-09-03T08:36:13.536Z</time>
      </trkpt>
      <trkpt lat="49.51343" lon="-1.42163">
        <ele>79.3</ele>
        <time>2026-09-03T08:36:14.536Z</time>
      </trkpt>
      <trkpt lat="49.51342" lon="-1.42162">
        <ele>79.4</ele>
        <time>2026-09-03T08:36:15.536Z</time>
      </trkpt>
      <trkpt lat="49.51341" lon="-1.4216">
        <ele>79.5</ele>
        <time>2026-09-03T08:36:16.541Z</time>
      </trkpt>
      <trkpt lat="49.5134" lon="-1.42159">
        <ele>79.6</ele>
        <time>2026-09-03T08:36:17.562Z</time>
      </trkpt>
      <trkpt lat="49.5134" lon="-1.42157">
        <ele>79.6</ele>
        <time>2026-09-03T08:36:18.564Z</time>
      </trkpt>
      <trkpt lat="49.51339" lon="-1.42156">
        <ele>79.7</ele>
        <time>2026-09-03T08:36:19.565Z</time>
      </trkpt>
      <trkpt lat="49.51339" lon="-1.42155">
        <ele>79.7</ele>
        <time>2026-09-03T08:36:20.566Z</time>
      </trkpt>
      <trkpt lat="49.51338" lon="-1.42154">
        <ele>79.7</ele>
        <time>2026-09-03T08:36:21.568Z</time>
      </trkpt>
      <trkpt lat="49.51337" lon="-1.42151">
        <ele>79.8</ele>
        <time>2026-09-03T08:36:23.540Z</time>
      </trkpt>
      <trkpt lat="49.51336" lon="-1.42148">
        <ele>79.9</ele>
        <time>2026-09-03T08:36:25.553Z</time>
      </trkpt>
      <trkpt lat="49.51335" lon="-1.42146">
        <ele>79.9</ele>
        <time>2026-09-03T08:36:26.555Z</time>
      </trkpt>
      <trkpt lat="49.51335" lon="-1.42143">
        <ele>79.9</ele>
        <time>2026-09-03T08:36:28.557Z</time>
      </trkpt>
      <trkpt lat="49.51335" lon="-1.42141">
        <ele>79.9</ele>
        <time>2026-09-03T08:36:29.559Z</time>
      </trkpt>
      <trkpt lat="49.51334" lon="-1.4214">
        <ele>80</ele>
        <time>2026-09-03T08:36:30.580Z</time>
      </trkpt>
      <trkpt lat="49.51334" lon="-1.42137">
        <ele>80</ele>
        <time>2026-09-03T08:36:32.536Z</time>
      </trkpt>
      <trkpt lat="49.51333" lon="-1.42135">
        <ele>80.2</ele>
        <time>2026-09-03T08:36:33.564Z</time>
      </trkpt>
      <trkpt lat="49.51333" lon="-1.42134">
        <ele>80.2</ele>
        <time>2026-09-03T08:36:34.566Z</time>
      </trkpt>
      <trkpt lat="49.51333" lon="-1.42133">
        <ele>80.2</ele>
        <time>2026-09-03T08:36:35.567Z</time>
      </trkpt>
      <trkpt lat="49.51332" lon="-1.4213">
        <ele>80.5</ele>
        <time>2026-09-03T08:36:37.536Z</time>
      </trkpt>
      <trkpt lat="49.51331" lon="-1.42129">
        <ele>80.6</ele>
        <time>2026-09-03T08:36:38.536Z</time>
      </trkpt>
      <trkpt lat="49.51331" lon="-1.42127">
        <ele>80.7</ele>
        <time>2026-09-03T08:36:39.536Z</time>
      </trkpt>
      <trkpt lat="49.5133" lon="-1.42125">
        <ele>80.9</ele>
        <time>2026-09-03T08:36:40.536Z</time>
      </trkpt>
      <trkpt lat="49.5133" lon="-1.42124">
        <ele>80.9</ele>
        <time>2026-09-03T08:36:41.536Z</time>
      </trkpt>
      <trkpt lat="49.5133" lon="-1.42122">
        <ele>81</ele>
        <time>2026-09-03T08:36:42.536Z</time>
      </trkpt>
      <trkpt lat="49.51329" lon="-1.4212">
        <ele>81.1</ele>
        <time>2026-09-03T08:36:43.578Z</time>
      </trkpt>
      <trkpt lat="49.51329" lon="-1.42118">
        <ele>81.2</ele>
        <time>2026-09-03T08:36:45.536Z</time>
      </trkpt>
      <trkpt lat="49.51328" lon="-1.42116">
        <ele>81.4</ele>
        <time>2026-09-03T08:36:46.536Z</time>
      </trkpt>
      <trkpt lat="49.51328" lon="-1.42115">
        <ele>81.4</ele>
        <time>2026-09-03T08:36:47.536Z</time>
      </trkpt>
      <trkpt lat="49.51327" lon="-1.42113">
        <ele>81.6</ele>
        <time>2026-09-03T08:36:48.536Z</time>
      </trkpt>
      <trkpt lat="49.51327" lon="-1.42111">
        <ele>81.7</ele>
        <time>2026-09-03T08:36:49.566Z</time>
      </trkpt>
      <trkpt lat="49.51326" lon="-1.42108">
        <ele>81.9</ele>
        <time>2026-09-03T08:36:51.498Z</time>
      </trkpt>
      <trkpt lat="49.51326" lon="-1.42107">
        <ele>81.9</ele>
        <time>2026-09-03T08:36:52.550Z</time>
      </trkpt>
      <trkpt lat="49.51326" lon="-1.42105">
        <ele>82</ele>
        <time>2026-09-03T08:36:53.552Z</time>
      </trkpt>
      <trkpt lat="49.51326" lon="-1.42103">
        <ele>82.1</ele>
        <time>2026-09-03T08:36:54.553Z</time>
      </trkpt>
      <trkpt lat="49.51325" lon="-1.42099">
        <ele>82.3</ele>
        <time>2026-09-03T08:36:56.626Z</time>
      </trkpt>
      <trkpt lat="49.51325" lon="-1.42097">
        <ele>82.4</ele>
        <time>2026-09-03T08:36:58.536Z</time>
      </trkpt>
      <trkpt lat="49.51324" lon="-1.42096">
        <ele>82.6</ele>
        <time>2026-09-03T08:36:59.536Z</time>
      </trkpt>
      <trkpt lat="49.51324" lon="-1.42095">
        <ele>82.6</ele>
        <time>2026-09-03T08:37:00.536Z</time>
      </trkpt>
      <trkpt lat="49.51324" lon="-1.42093">
        <ele>82.7</ele>
        <time>2026-09-03T08:37:01.536Z</time>
      </trkpt>
      <trkpt lat="49.51324" lon="-1.42091">
        <ele>82.7</ele>
        <time>2026-09-03T08:37:02.536Z</time>
      </trkpt>
      <trkpt lat="49.51323" lon="-1.42089">
        <ele>82.9</ele>
        <time>2026-09-03T08:37:03.565Z</time>
      </trkpt>
      <trkpt lat="49.51322" lon="-1.42086">
        <ele>83.1</ele>
        <time>2026-09-03T08:37:05.536Z</time>
      </trkpt>
      <trkpt lat="49.51321" lon="-1.42085">
        <ele>83.3</ele>
        <time>2026-09-03T08:37:06.536Z</time>
      </trkpt>
      <trkpt lat="49.51321" lon="-1.42083">
        <ele>83.3</ele>
        <time>2026-09-03T08:37:07.536Z</time>
      </trkpt>
      <trkpt lat="49.5132" lon="-1.42081">
        <ele>83.5</ele>
        <time>2026-09-03T08:37:08.536Z</time>
      </trkpt>
      <trkpt lat="49.51319" lon="-1.4208">
        <ele>83.6</ele>
        <time>2026-09-03T08:37:09.536Z</time>
      </trkpt>
      <trkpt lat="49.51317" lon="-1.42077">
        <ele>83.9</ele>
        <time>2026-09-03T08:37:11.536Z</time>
      </trkpt>
      <trkpt lat="49.51315" lon="-1.42074">
        <ele>84.1</ele>
        <time>2026-09-03T08:37:13.399Z</time>
      </trkpt>
      <trkpt lat="49.51314" lon="-1.42074">
        <ele>84.2</ele>
        <time>2026-09-03T08:37:14.536Z</time>
      </trkpt>
      <trkpt lat="49.51313" lon="-1.42072">
        <ele>84.3</ele>
        <time>2026-09-03T08:37:15.562Z</time>
      </trkpt>
      <trkpt lat="49.51312" lon="-1.42071">
        <ele>84.4</ele>
        <time>2026-09-03T08:37:16.563Z</time>
      </trkpt>
      <trkpt lat="49.51311" lon="-1.4207">
        <ele>84.5</ele>
        <time>2026-09-03T08:37:17.565Z</time>
      </trkpt>
      <trkpt lat="49.5131" lon="-1.42069">
        <ele>84.6</ele>
        <time>2026-09-03T08:37:18.566Z</time>
      </trkpt>
      <trkpt lat="49.51309" lon="-1.42066">
        <ele>84.7</ele>
        <time>2026-09-03T08:37:20.569Z</time>
      </trkpt>
      <trkpt lat="49.51308" lon="-1.42064">
        <ele>84.8</ele>
        <time>2026-09-03T08:37:22.551Z</time>
      </trkpt>
      <trkpt lat="49.51308" lon="-1.42062">
        <ele>84.8</ele>
        <time>2026-09-03T08:37:23.553Z</time>
      </trkpt>
      <trkpt lat="49.51308" lon="-1.42061">
        <ele>84.8</ele>
        <time>2026-09-03T08:37:24.554Z</time>
      </trkpt>
      <trkpt lat="49.51307" lon="-1.42061">
        <ele>84.9</ele>
        <time>2026-09-03T08:37:25.556Z</time>
      </trkpt>
      <trkpt lat="49.51307" lon="-1.4206">
        <ele>84.9</ele>
        <time>2026-09-03T08:37:26.557Z</time>
      </trkpt>
      <trkpt lat="49.51307" lon="-1.42059">
        <ele>84.9</ele>
        <time>2026-09-03T08:37:27.558Z</time>
      </trkpt>
      <trkpt lat="49.51306" lon="-1.42057">
        <ele>85</ele>
        <time>2026-09-03T08:37:28.560Z</time>
      </trkpt>
      <trkpt lat="49.51306" lon="-1.42054">
        <ele>85</ele>
        <time>2026-09-03T08:37:29.601Z</time>
      </trkpt>
      <trkpt lat="49.51305" lon="-1.42051">
        <ele>85.3</ele>
        <time>2026-09-03T08:37:31.544Z</time>
      </trkpt>
      <trkpt lat="49.51306" lon="-1.4205">
        <ele>85.2</ele>
        <time>2026-09-03T08:37:32.565Z</time>
      </trkpt>
      <trkpt lat="49.51306" lon="-1.42047">
        <ele>85.3</ele>
        <time>2026-09-03T08:37:33.566Z</time>
      </trkpt>
      <trkpt lat="49.51307" lon="-1.42046">
        <ele>85.2</ele>
        <time>2026-09-03T08:37:34.568Z</time>
      </trkpt>
      <trkpt lat="49.51307" lon="-1.42045">
        <ele>85.3</ele>
        <time>2026-09-03T08:37:35.569Z</time>
      </trkpt>
      <trkpt lat="49.51308" lon="-1.42043">
        <ele>85.3</ele>
        <time>2026-09-03T08:37:37.592Z</time>
      </trkpt>
      <trkpt lat="49.51309" lon="-1.4204">
        <ele>85.3</ele>
        <time>2026-09-03T08:37:39.536Z</time>
      </trkpt>
      <trkpt lat="49.51309" lon="-1.42039">
        <ele>85.3</ele>
        <time>2026-09-03T08:37:40.576Z</time>
      </trkpt>
      <trkpt lat="49.51308" lon="-1.42037">
        <ele>85.5</ele>
        <time>2026-09-03T08:37:41.577Z</time>
      </trkpt>
      <trkpt lat="49.51308" lon="-1.42036">
        <ele>85.5</ele>
        <time>2026-09-03T08:37:42.579Z</time>
      </trkpt>
      <trkpt lat="49.51307" lon="-1.42033">
        <ele>85.7</ele>
        <time>2026-09-03T08:37:44.536Z</time>
      </trkpt>
      <trkpt lat="49.51307" lon="-1.42032">
        <ele>85.7</ele>
        <time>2026-09-03T08:37:45.536Z</time>
      </trkpt>
      <trkpt lat="49.51307" lon="-1.4203">
        <ele>85.8</ele>
        <time>2026-09-03T08:37:46.536Z</time>
      </trkpt>
      <trkpt lat="49.51307" lon="-1.42029">
        <ele>85.9</ele>
        <time>2026-09-03T08:37:47.536Z</time>
      </trkpt>
      <trkpt lat="49.51307" lon="-1.42028">
        <ele>85.9</ele>
        <time>2026-09-03T08:37:48.567Z</time>
      </trkpt>
      <trkpt lat="49.51307" lon="-1.42027">
        <ele>85.9</ele>
        <time>2026-09-03T08:37:49.568Z</time>
      </trkpt>
      <trkpt lat="49.51307" lon="-1.42024">
        <ele>86</ele>
        <time>2026-09-03T08:37:51.536Z</time>
      </trkpt>
      <trkpt lat="49.51308" lon="-1.42023">
        <ele>86</ele>
        <time>2026-09-03T08:37:52.536Z</time>
      </trkpt>
      <trkpt lat="49.51308" lon="-1.42022">
        <ele>86</ele>
        <time>2026-09-03T08:37:53.536Z</time>
      </trkpt>
      <trkpt lat="49.51308" lon="-1.4202">
        <ele>86.1</ele>
        <time>2026-09-03T08:37:54.575Z</time>
      </trkpt>
      <trkpt lat="49.51308" lon="-1.42017">
        <ele>86.2</ele>
        <time>2026-09-03T08:37:56.536Z</time>
      </trkpt>
      <trkpt lat="49.51308" lon="-1.42014">
        <ele>86.3</ele>
        <time>2026-09-03T08:37:58.536Z</time>
      </trkpt>
      <trkpt lat="49.51308" lon="-1.42012">
        <ele>86.4</ele>
        <time>2026-09-03T08:37:59.536Z</time>
      </trkpt>
      <trkpt lat="49.51308" lon="-1.42011">
        <ele>86.4</ele>
        <time>2026-09-03T08:38:00.536Z</time>
      </trkpt>
      <trkpt lat="49.51308" lon="-1.42009">
        <ele>86.5</ele>
        <time>2026-09-03T08:38:01.536Z</time>
      </trkpt>
      <trkpt lat="49.51308" lon="-1.42007">
        <ele>86.6</ele>
        <time>2026-09-03T08:38:02.536Z</time>
      </trkpt>
      <trkpt lat="49.51308" lon="-1.42006">
        <ele>86.6</ele>
        <time>2026-09-03T08:38:03.536Z</time>
      </trkpt>
      <trkpt lat="49.51307" lon="-1.42003">
        <ele>86.8</ele>
        <time>2026-09-03T08:38:05.536Z</time>
      </trkpt>
      <trkpt lat="49.51307" lon="-1.42">
        <ele>86.9</ele>
        <time>2026-09-03T08:38:07.553Z</time>
      </trkpt>
      <trkpt lat="49.51307" lon="-1.41997">
        <ele>87</ele>
        <time>2026-09-03T08:38:09.536Z</time>
      </trkpt>
      <trkpt lat="49.51306" lon="-1.41993">
        <ele>87.2</ele>
        <time>2026-09-03T08:38:11.536Z</time>
      </trkpt>
      <trkpt lat="49.51305" lon="-1.41991">
        <ele>87.4</ele>
        <time>2026-09-03T08:38:13.536Z</time>
      </trkpt>
      <trkpt lat="49.51305" lon="-1.41989">
        <ele>87.5</ele>
        <time>2026-09-03T08:38:14.536Z</time>
      </trkpt>
      <trkpt lat="49.51305" lon="-1.41988">
        <ele>87.5</ele>
        <time>2026-09-03T08:38:15.564Z</time>
      </trkpt>
      <trkpt lat="49.51304" lon="-1.41987">
        <ele>87.7</ele>
        <time>2026-09-03T08:38:16.565Z</time>
      </trkpt>
      <trkpt lat="49.51303" lon="-1.41988">
        <ele>87.8</ele>
        <time>2026-09-03T08:38:17.567Z</time>
      </trkpt>
      <trkpt lat="49.51303" lon="-1.4199">
        <ele>87.7</ele>
        <time>2026-09-03T08:38:18.568Z</time>
      </trkpt>
      <trkpt lat="49.51303" lon="-1.41991">
        <ele>87.7</ele>
        <time>2026-09-03T08:38:19.569Z</time>
      </trkpt>
      <trkpt lat="49.51303" lon="-1.41994">
        <ele>87.6</ele>
        <time>2026-09-03T08:38:21.536Z</time>
      </trkpt>
      <trkpt lat="49.51304" lon="-1.41995">
        <ele>87.4</ele>
        <time>2026-09-03T08:38:22.573Z</time>
      </trkpt>
      <trkpt lat="49.51304" lon="-1.41995">
        <ele>87.4</ele>
        <time>2026-09-03T08:38:23.575Z</time>
      </trkpt>
      <trkpt lat="49.51305" lon="-1.41994">
        <ele>87.3</ele>
        <time>2026-09-03T08:38:25.536Z</time>
      </trkpt>
      <trkpt lat="49.51305" lon="-1.4199">
        <ele>87.4</ele>
        <time>2026-09-03T08:38:27.536Z</time>
      </trkpt>
      <trkpt lat="49.51306" lon="-1.41987">
        <ele>87.4</ele>
        <time>2026-09-03T08:38:29.536Z</time>
      </trkpt>
      <trkpt lat="49.51306" lon="-1.41985">
        <ele>87.5</ele>
        <time>2026-09-03T08:38:30.536Z</time>
      </trkpt>
      <trkpt lat="49.51306" lon="-1.41983">
        <ele>87.6</ele>
        <time>2026-09-03T08:38:31.536Z</time>
      </trkpt>
      <trkpt lat="49.51307" lon="-1.41979">
        <ele>87.6</ele>
        <time>2026-09-03T08:38:33.536Z</time>
      </trkpt>
      <trkpt lat="49.51307" lon="-1.41975">
        <ele>87.7</ele>
        <time>2026-09-03T08:38:35.536Z</time>
      </trkpt>
      <trkpt lat="49.51308" lon="-1.41973">
        <ele>87.7</ele>
        <time>2026-09-03T08:38:36.536Z</time>
      </trkpt>
      <trkpt lat="49.51308" lon="-1.41971">
        <ele>87.8</ele>
        <time>2026-09-03T08:38:37.536Z</time>
      </trkpt>
      <trkpt lat="49.51308" lon="-1.41969">
        <ele>87.9</ele>
        <time>2026-09-03T08:38:38.536Z</time>
      </trkpt>
      <trkpt lat="49.51309" lon="-1.41965">
        <ele>87.9</ele>
        <time>2026-09-03T08:38:40.536Z</time>
      </trkpt>
      <trkpt lat="49.51309" lon="-1.41962">
        <ele>88</ele>
        <time>2026-09-03T08:38:41.558Z</time>
      </trkpt>
      <trkpt lat="49.51309" lon="-1.41957">
        <ele>88.2</ele>
        <time>2026-09-03T08:38:43.536Z</time>
      </trkpt>
      <trkpt lat="49.51309" lon="-1.41956">
        <ele>88.2</ele>
        <time>2026-09-03T08:38:44.599Z</time>
      </trkpt>
      <trkpt lat="49.5131" lon="-1.41953">
        <ele>88.2</ele>
        <time>2026-09-03T08:38:46.536Z</time>
      </trkpt>
      <trkpt lat="49.51311" lon="-1.41949">
        <ele>88.2</ele>
        <time>2026-09-03T08:38:48.536Z</time>
      </trkpt>
      <trkpt lat="49.51311" lon="-1.41947">
        <ele>88.3</ele>
        <time>2026-09-03T08:38:49.536Z</time>
      </trkpt>
      <trkpt lat="49.51311" lon="-1.41945">
        <ele>88.4</ele>
        <time>2026-09-03T08:38:50.536Z</time>
      </trkpt>
      <trkpt lat="49.51311" lon="-1.41941">
        <ele>88.4</ele>
        <time>2026-09-03T08:38:52.536Z</time>
      </trkpt>
      <trkpt lat="49.51311" lon="-1.41939">
        <ele>88.4</ele>
        <time>2026-09-03T08:38:53.536Z</time>
      </trkpt>
      <trkpt lat="49.51311" lon="-1.41937">
        <ele>88.4</ele>
        <time>2026-09-03T08:38:54.536Z</time>
      </trkpt>
      <trkpt lat="49.51311" lon="-1.41936">
        <ele>88.4</ele>
        <time>2026-09-03T08:38:55.536Z</time>
      </trkpt>
      <trkpt lat="49.51311" lon="-1.41934">
        <ele>88.4</ele>
        <time>2026-09-03T08:38:56.536Z</time>
      </trkpt>
      <trkpt lat="49.51311" lon="-1.41932">
        <ele>88.4</ele>
        <time>2026-09-03T08:38:57.536Z</time>
      </trkpt>
      <trkpt lat="49.51311" lon="-1.4193">
        <ele>88.4</ele>
        <time>2026-09-03T08:38:58.536Z</time>
      </trkpt>
      <trkpt lat="49.51312" lon="-1.41928">
        <ele>88.3</ele>
        <time>2026-09-03T08:38:59.574Z</time>
      </trkpt>
      <trkpt lat="49.51311" lon="-1.41924">
        <ele>88.4</ele>
        <time>2026-09-03T08:39:01.557Z</time>
      </trkpt>
      <trkpt lat="49.51311" lon="-1.41921">
        <ele>88.4</ele>
        <time>2026-09-03T08:39:03.536Z</time>
      </trkpt>
      <trkpt lat="49.51311" lon="-1.41919">
        <ele>88.4</ele>
        <time>2026-09-03T08:39:04.536Z</time>
      </trkpt>
      <trkpt lat="49.51311" lon="-1.41915">
        <ele>88.5</ele>
        <time>2026-09-03T08:39:06.554Z</time>
      </trkpt>
      <trkpt lat="49.51309" lon="-1.41911">
        <ele>88.8</ele>
        <time>2026-09-03T08:39:08.496Z</time>
      </trkpt>
      <trkpt lat="49.51309" lon="-1.4191">
        <ele>88.9</ele>
        <time>2026-09-03T08:39:09.538Z</time>
      </trkpt>
      <trkpt lat="49.51308" lon="-1.41908">
        <ele>89</ele>
        <time>2026-09-03T08:39:10.539Z</time>
      </trkpt>
      <trkpt lat="49.51308" lon="-1.41906">
        <ele>89.1</ele>
        <time>2026-09-03T08:39:11.540Z</time>
      </trkpt>
      <trkpt lat="49.51308" lon="-1.41904">
        <ele>89.2</ele>
        <time>2026-09-03T08:39:12.542Z</time>
      </trkpt>
      <trkpt lat="49.51307" lon="-1.419">
        <ele>89.4</ele>
        <time>2026-09-03T08:39:14.555Z</time>
      </trkpt>
      <trkpt lat="49.51306" lon="-1.41896">
        <ele>89.7</ele>
        <time>2026-09-03T08:39:16.537Z</time>
      </trkpt>
      <trkpt lat="49.51306" lon="-1.41895">
        <ele>89.7</ele>
        <time>2026-09-03T08:39:17.549Z</time>
      </trkpt>
      <trkpt lat="49.51306" lon="-1.41893">
        <ele>89.8</ele>
        <time>2026-09-03T08:39:18.550Z</time>
      </trkpt>
      <trkpt lat="49.51305" lon="-1.41889">
        <ele>90</ele>
        <time>2026-09-03T08:39:20.573Z</time>
      </trkpt>
      <trkpt lat="49.51304" lon="-1.41887">
        <ele>90.1</ele>
        <time>2026-09-03T08:39:22.536Z</time>
      </trkpt>
      <trkpt lat="49.51302" lon="-1.41884">
        <ele>90.3</ele>
        <time>2026-09-03T08:39:24.536Z</time>
      </trkpt>
      <trkpt lat="49.51302" lon="-1.41882">
        <ele>90.3</ele>
        <time>2026-09-03T08:39:25.536Z</time>
      </trkpt>
      <trkpt lat="49.51301" lon="-1.41878">
        <ele>90.4</ele>
        <time>2026-09-03T08:39:27.536Z</time>
      </trkpt>
      <trkpt lat="49.513" lon="-1.41876">
        <ele>90.5</ele>
        <time>2026-09-03T08:39:28.574Z</time>
      </trkpt>
      <trkpt lat="49.51299" lon="-1.41873">
        <ele>90.6</ele>
        <time>2026-09-03T08:39:30.476Z</time>
      </trkpt>
      <trkpt lat="49.51298" lon="-1.41871">
        <ele>90.7</ele>
        <time>2026-09-03T08:39:31.536Z</time>
      </trkpt>
      <trkpt lat="49.51297" lon="-1.41868">
        <ele>90.8</ele>
        <time>2026-09-03T08:39:32.536Z</time>
      </trkpt>
      <trkpt lat="49.51297" lon="-1.41867">
        <ele>90.9</ele>
        <time>2026-09-03T08:39:33.536Z</time>
      </trkpt>
      <trkpt lat="49.51296" lon="-1.41866">
        <ele>91</ele>
        <time>2026-09-03T08:39:34.536Z</time>
      </trkpt>
      <trkpt lat="49.51294" lon="-1.41862">
        <ele>91.2</ele>
        <time>2026-09-03T08:39:36.536Z</time>
      </trkpt>
      <trkpt lat="49.51294" lon="-1.4186">
        <ele>91.3</ele>
        <time>2026-09-03T08:39:37.536Z</time>
      </trkpt>
      <trkpt lat="49.51293" lon="-1.41858">
        <ele>91.4</ele>
        <time>2026-09-03T08:39:38.557Z</time>
      </trkpt>
      <trkpt lat="49.51292" lon="-1.41855">
        <ele>91.6</ele>
        <time>2026-09-03T08:39:40.536Z</time>
      </trkpt>
      <trkpt lat="49.51291" lon="-1.41853">
        <ele>91.7</ele>
        <time>2026-09-03T08:39:41.622Z</time>
      </trkpt>
      <trkpt lat="49.51291" lon="-1.4185">
        <ele>91.8</ele>
        <time>2026-09-03T08:39:43.536Z</time>
      </trkpt>
      <trkpt lat="49.51291" lon="-1.41848">
        <ele>91.8</ele>
        <time>2026-09-03T08:39:44.536Z</time>
      </trkpt>
      <trkpt lat="49.51291" lon="-1.41845">
        <ele>91.8</ele>
        <time>2026-09-03T08:39:46.568Z</time>
      </trkpt>
      <trkpt lat="49.51291" lon="-1.41841">
        <ele>91.9</ele>
        <time>2026-09-03T08:39:48.536Z</time>
      </trkpt>
      <trkpt lat="49.51291" lon="-1.41839">
        <ele>92</ele>
        <time>2026-09-03T08:39:49.536Z</time>
      </trkpt>
      <trkpt lat="49.5129" lon="-1.41835">
        <ele>92.1</ele>
        <time>2026-09-03T08:39:51.599Z</time>
      </trkpt>
      <trkpt lat="49.5129" lon="-1.41832">
        <ele>92.1</ele>
        <time>2026-09-03T08:39:53.578Z</time>
      </trkpt>
      <trkpt lat="49.51289" lon="-1.41829">
        <ele>92.2</ele>
        <time>2026-09-03T08:39:55.561Z</time>
      </trkpt>
      <trkpt lat="49.51289" lon="-1.41828">
        <ele>92.2</ele>
        <time>2026-09-03T08:39:56.562Z</time>
      </trkpt>
      <trkpt lat="49.51288" lon="-1.41823">
        <ele>92.3</ele>
        <time>2026-09-03T08:39:58.475Z</time>
      </trkpt>
      <trkpt lat="49.51288" lon="-1.41821">
        <ele>92.3</ele>
        <time>2026-09-03T08:39:59.536Z</time>
      </trkpt>
      <trkpt lat="49.51287" lon="-1.4182">
        <ele>92.3</ele>
        <time>2026-09-03T08:40:00.536Z</time>
      </trkpt>
      <trkpt lat="49.51287" lon="-1.41818">
        <ele>92.3</ele>
        <time>2026-09-03T08:40:01.559Z</time>
      </trkpt>
      <trkpt lat="49.51286" lon="-1.41815">
        <ele>92.4</ele>
        <time>2026-09-03T08:40:03.536Z</time>
      </trkpt>
      <trkpt lat="49.51286" lon="-1.41813">
        <ele>92.4</ele>
        <time>2026-09-03T08:40:04.536Z</time>
      </trkpt>
      <trkpt lat="49.51286" lon="-1.41811">
        <ele>92.4</ele>
        <time>2026-09-03T08:40:05.536Z</time>
      </trkpt>
      <trkpt lat="49.51286" lon="-1.41809">
        <ele>92.4</ele>
        <time>2026-09-03T08:40:06.576Z</time>
      </trkpt>
      <trkpt lat="49.51286" lon="-1.41806">
        <ele>92.4</ele>
        <time>2026-09-03T08:40:08.478Z</time>
      </trkpt>
      <trkpt lat="49.51286" lon="-1.41804">
        <ele>92.5</ele>
        <time>2026-09-03T08:40:09.640Z</time>
      </trkpt>
      <trkpt lat="49.51285" lon="-1.41802">
        <ele>92.6</ele>
        <time>2026-09-03T08:40:10.821Z</time>
      </trkpt>
      <trkpt lat="49.51285" lon="-1.418">
        <ele>92.7</ele>
        <time>2026-09-03T08:40:11.953Z</time>
      </trkpt>
      <trkpt lat="49.51284" lon="-1.41798">
        <ele>92.8</ele>
        <time>2026-09-03T08:40:13.134Z</time>
      </trkpt>
      <trkpt lat="49.51284" lon="-1.41796">
        <ele>92.9</ele>
        <time>2026-09-03T08:40:14.486Z</time>
      </trkpt>
      <trkpt lat="49.51282" lon="-1.41791">
        <ele>93.2</ele>
        <time>2026-09-03T08:40:16.536Z</time>
      </trkpt>
      <trkpt lat="49.51282" lon="-1.41789">
        <ele>93.3</ele>
        <time>2026-09-03T08:40:17.536Z</time>
      </trkpt>
      <trkpt lat="49.51281" lon="-1.41788">
        <ele>93.4</ele>
        <time>2026-09-03T08:40:18.572Z</time>
      </trkpt>
      <trkpt lat="49.5128" lon="-1.41785">
        <ele>93.6</ele>
        <time>2026-09-03T08:40:20.536Z</time>
      </trkpt>
      <trkpt lat="49.51279" lon="-1.41783">
        <ele>93.7</ele>
        <time>2026-09-03T08:40:21.556Z</time>
      </trkpt>
      <trkpt lat="49.51279" lon="-1.4178">
        <ele>93.8</ele>
        <time>2026-09-03T08:40:23.536Z</time>
      </trkpt>
      <trkpt lat="49.51279" lon="-1.41778">
        <ele>93.9</ele>
        <time>2026-09-03T08:40:24.536Z</time>
      </trkpt>
      <trkpt lat="49.51278" lon="-1.41777">
        <ele>94</ele>
        <time>2026-09-03T08:40:25.599Z</time>
      </trkpt>
      <trkpt lat="49.51279" lon="-1.41774">
        <ele>93.9</ele>
        <time>2026-09-03T08:40:27.536Z</time>
      </trkpt>
      <trkpt lat="49.51279" lon="-1.4177">
        <ele>93.9</ele>
        <time>2026-09-03T08:40:29.536Z</time>
      </trkpt>
      <trkpt lat="49.5128" lon="-1.41766">
        <ele>93.8</ele>
        <time>2026-09-03T08:40:31.536Z</time>
      </trkpt>
      <trkpt lat="49.5128" lon="-1.41764">
        <ele>93.8</ele>
        <time>2026-09-03T08:40:32.536Z</time>
      </trkpt>
      <trkpt lat="49.5128" lon="-1.41762">
        <ele>93.8</ele>
        <time>2026-09-03T08:40:33.536Z</time>
      </trkpt>
      <trkpt lat="49.5128" lon="-1.4176">
        <ele>93.8</ele>
        <time>2026-09-03T08:40:34.536Z</time>
      </trkpt>
      <trkpt lat="49.5128" lon="-1.41758">
        <ele>93.8</ele>
        <time>2026-09-03T08:40:35.536Z</time>
      </trkpt>
      <trkpt lat="49.51281" lon="-1.41754">
        <ele>93.8</ele>
        <time>2026-09-03T08:40:37.536Z</time>
      </trkpt>
      <trkpt lat="49.51281" lon="-1.41751">
        <ele>93.8</ele>
        <time>2026-09-03T08:40:39.536Z</time>
      </trkpt>
      <trkpt lat="49.51281" lon="-1.41749">
        <ele>93.8</ele>
        <time>2026-09-03T08:40:40.536Z</time>
      </trkpt>
      <trkpt lat="49.51281" lon="-1.41747">
        <ele>93.8</ele>
        <time>2026-09-03T08:40:41.536Z</time>
      </trkpt>
      <trkpt lat="49.51279" lon="-1.41743">
        <ele>93.9</ele>
        <time>2026-09-03T08:40:43.536Z</time>
      </trkpt>
      <trkpt lat="49.51279" lon="-1.41741">
        <ele>93.9</ele>
        <time>2026-09-03T08:40:44.536Z</time>
      </trkpt>
      <trkpt lat="49.51279" lon="-1.41739">
        <ele>93.9</ele>
        <time>2026-09-03T08:40:45.536Z</time>
      </trkpt>
      <trkpt lat="49.51279" lon="-1.41738">
        <ele>93.9</ele>
        <time>2026-09-03T08:40:46.536Z</time>
      </trkpt>
      <trkpt lat="49.51278" lon="-1.41736">
        <ele>94</ele>
        <time>2026-09-03T08:40:47.536Z</time>
      </trkpt>
      <trkpt lat="49.51277" lon="-1.41733">
        <ele>94.1</ele>
        <time>2026-09-03T08:40:49.536Z</time>
      </trkpt>
      <trkpt lat="49.51277" lon="-1.4173">
        <ele>94.1</ele>
        <time>2026-09-03T08:40:51.536Z</time>
      </trkpt>
      <trkpt lat="49.51276" lon="-1.41728">
        <ele>94.2</ele>
        <time>2026-09-03T08:40:52.536Z</time>
      </trkpt>
      <trkpt lat="49.51276" lon="-1.41726">
        <ele>94.2</ele>
        <time>2026-09-03T08:40:53.536Z</time>
      </trkpt>
      <trkpt lat="49.51277" lon="-1.41724">
        <ele>94.1</ele>
        <time>2026-09-03T08:40:54.536Z</time>
      </trkpt>
      <trkpt lat="49.51277" lon="-1.41723">
        <ele>94.1</ele>
        <time>2026-09-03T08:40:55.536Z</time>
      </trkpt>
      <trkpt lat="49.51277" lon="-1.4172">
        <ele>94.2</ele>
        <time>2026-09-03T08:40:57.536Z</time>
      </trkpt>
      <trkpt lat="49.51277" lon="-1.41718">
        <ele>94.2</ele>
        <time>2026-09-03T08:40:58.536Z</time>
      </trkpt>
      <trkpt lat="49.51276" lon="-1.41716">
        <ele>94.4</ele>
        <time>2026-09-03T08:40:59.536Z</time>
      </trkpt>
      <trkpt lat="49.51276" lon="-1.41714">
        <ele>94.5</ele>
        <time>2026-09-03T08:41:00.536Z</time>
      </trkpt>
      <trkpt lat="49.51275" lon="-1.41713">
        <ele>94.6</ele>
        <time>2026-09-03T08:41:01.536Z</time>
      </trkpt>
      <trkpt lat="49.51275" lon="-1.41711">
        <ele>94.7</ele>
        <time>2026-09-03T08:41:02.536Z</time>
      </trkpt>
      <trkpt lat="49.51274" lon="-1.41709">
        <ele>94.8</ele>
        <time>2026-09-03T08:41:03.536Z</time>
      </trkpt>
      <trkpt lat="49.51273" lon="-1.41707">
        <ele>95</ele>
        <time>2026-09-03T08:41:04.536Z</time>
      </trkpt>
      <trkpt lat="49.51273" lon="-1.41706">
        <ele>95</ele>
        <time>2026-09-03T08:41:05.536Z</time>
      </trkpt>
      <trkpt lat="49.51272" lon="-1.41704">
        <ele>95.1</ele>
        <time>2026-09-03T08:41:06.537Z</time>
      </trkpt>
      <trkpt lat="49.51271" lon="-1.41701">
        <ele>95.3</ele>
        <time>2026-09-03T08:41:08.540Z</time>
      </trkpt>
      <trkpt lat="49.5127" lon="-1.41699">
        <ele>95.4</ele>
        <time>2026-09-03T08:41:10.543Z</time>
      </trkpt>
      <trkpt lat="49.51269" lon="-1.41698">
        <ele>95.5</ele>
        <time>2026-09-03T08:41:11.544Z</time>
      </trkpt>
      <trkpt lat="49.51269" lon="-1.41696">
        <ele>95.6</ele>
        <time>2026-09-03T08:41:12.545Z</time>
      </trkpt>
      <trkpt lat="49.51269" lon="-1.41694">
        <ele>95.6</ele>
        <time>2026-09-03T08:41:13.547Z</time>
      </trkpt>
      <trkpt lat="49.51269" lon="-1.41691">
        <ele>95.6</ele>
        <time>2026-09-03T08:41:15.548Z</time>
      </trkpt>
      <trkpt lat="49.51269" lon="-1.4169">
        <ele>95.6</ele>
        <time>2026-09-03T08:41:16.551Z</time>
      </trkpt>
      <trkpt lat="49.51269" lon="-1.41688">
        <ele>95.6</ele>
        <time>2026-09-03T08:41:17.552Z</time>
      </trkpt>
      <trkpt lat="49.51269" lon="-1.41686">
        <ele>95.6</ele>
        <time>2026-09-03T08:41:18.554Z</time>
      </trkpt>
      <trkpt lat="49.51269" lon="-1.41685">
        <ele>95.6</ele>
        <time>2026-09-03T08:41:19.555Z</time>
      </trkpt>
      <trkpt lat="49.51269" lon="-1.41683">
        <ele>95.6</ele>
        <time>2026-09-03T08:41:20.556Z</time>
      </trkpt>
      <trkpt lat="49.51269" lon="-1.4168">
        <ele>95.6</ele>
        <time>2026-09-03T08:41:22.559Z</time>
      </trkpt>
      <trkpt lat="49.51269" lon="-1.41677">
        <ele>95.6</ele>
        <time>2026-09-03T08:41:24.511Z</time>
      </trkpt>
      <trkpt lat="49.51269" lon="-1.41675">
        <ele>95.6</ele>
        <time>2026-09-03T08:41:25.563Z</time>
      </trkpt>
      <trkpt lat="49.51269" lon="-1.41674">
        <ele>95.6</ele>
        <time>2026-09-03T08:41:26.564Z</time>
      </trkpt>
      <trkpt lat="49.51268" lon="-1.41672">
        <ele>95.7</ele>
        <time>2026-09-03T08:41:27.566Z</time>
      </trkpt>
      <trkpt lat="49.51268" lon="-1.4167">
        <ele>95.7</ele>
        <time>2026-09-03T08:41:28.567Z</time>
      </trkpt>
      <trkpt lat="49.51268" lon="-1.41669">
        <ele>95.7</ele>
        <time>2026-09-03T08:41:29.569Z</time>
      </trkpt>
      <trkpt lat="49.51268" lon="-1.41667">
        <ele>95.7</ele>
        <time>2026-09-03T08:41:30.570Z</time>
      </trkpt>
      <trkpt lat="49.51268" lon="-1.41664">
        <ele>95.7</ele>
        <time>2026-09-03T08:41:32.573Z</time>
      </trkpt>
      <trkpt lat="49.51268" lon="-1.41662">
        <ele>95.7</ele>
        <time>2026-09-03T08:41:33.574Z</time>
      </trkpt>
      <trkpt lat="49.51269" lon="-1.41658">
        <ele>95.6</ele>
        <time>2026-09-03T08:41:35.536Z</time>
      </trkpt>
      <trkpt lat="49.51269" lon="-1.41657">
        <ele>95.6</ele>
        <time>2026-09-03T08:41:36.536Z</time>
      </trkpt>
      <trkpt lat="49.51269" lon="-1.41655">
        <ele>95.6</ele>
        <time>2026-09-03T08:41:37.536Z</time>
      </trkpt>
      <trkpt lat="49.51268" lon="-1.41653">
        <ele>95.7</ele>
        <time>2026-09-03T08:41:38.536Z</time>
      </trkpt>
      <trkpt lat="49.51268" lon="-1.41651">
        <ele>95.7</ele>
        <time>2026-09-03T08:41:39.536Z</time>
      </trkpt>
      <trkpt lat="49.51269" lon="-1.4165">
        <ele>95.6</ele>
        <time>2026-09-03T08:41:40.536Z</time>
      </trkpt>
      <trkpt lat="49.51269" lon="-1.41648">
        <ele>95.6</ele>
        <time>2026-09-03T08:41:41.536Z</time>
      </trkpt>
      <trkpt lat="49.51268" lon="-1.41646">
        <ele>95.7</ele>
        <time>2026-09-03T08:41:42.536Z</time>
      </trkpt>
      <trkpt lat="49.51268" lon="-1.41645">
        <ele>95.7</ele>
        <time>2026-09-03T08:41:43.536Z</time>
      </trkpt>
      <trkpt lat="49.51268" lon="-1.41643">
        <ele>95.7</ele>
        <time>2026-09-03T08:41:44.536Z</time>
      </trkpt>
      <trkpt lat="49.51268" lon="-1.41642">
        <ele>95.7</ele>
        <time>2026-09-03T08:41:45.536Z</time>
      </trkpt>
      <trkpt lat="49.51268" lon="-1.4164">
        <ele>95.7</ele>
        <time>2026-09-03T08:41:46.536Z</time>
      </trkpt>
      <trkpt lat="49.51268" lon="-1.41639">
        <ele>95.7</ele>
        <time>2026-09-03T08:41:47.536Z</time>
      </trkpt>
      <trkpt lat="49.51269" lon="-1.41639">
        <ele>95.6</ele>
        <time>2026-09-03T08:41:48.536Z</time>
      </trkpt>
      <trkpt lat="49.51269" lon="-1.41639">
        <ele>95.6</ele>
        <time>2026-09-03T08:41:49.536Z</time>
      </trkpt>
      <trkpt lat="49.51269" lon="-1.41639">
        <ele>95.6</ele>
        <time>2026-09-03T08:41:50.536Z</time>
      </trkpt>
      <trkpt lat="49.5127" lon="-1.41639">
        <ele>95.6</ele>
        <time>2026-09-03T08:41:51.536Z</time>
      </trkpt>
      <trkpt lat="49.5127" lon="-1.41639">
        <ele>95.6</ele>
        <time>2026-09-03T08:41:52.536Z</time>
      </trkpt>
      <trkpt lat="49.5127" lon="-1.41639">
        <ele>95.6</ele>
        <time>2026-09-03T08:41:53.536Z</time>
      </trkpt>
      <trkpt lat="49.5127" lon="-1.41639">
        <ele>95.6</ele>
        <time>2026-09-03T08:41:54.536Z</time>
      </trkpt>
      <trkpt lat="49.5127" lon="-1.41638">
        <ele>95.6</ele>
        <time>2026-09-03T08:41:55.536Z</time>
      </trkpt>
      <trkpt lat="49.5127" lon="-1.41638">
        <ele>95.6</ele>
        <time>2026-09-03T08:41:56.536Z</time>
      </trkpt>
      <trkpt lat="49.5127" lon="-1.41638">
        <ele>95.6</ele>
        <time>2026-09-03T08:41:57.536Z</time>
      </trkpt>
      <trkpt lat="49.51271" lon="-1.41638">
        <ele>95.5</ele>
        <time>2026-09-03T08:41:58.536Z</time>
      </trkpt>
      <trkpt lat="49.51271" lon="-1.41638">
        <ele>95.5</ele>
        <time>2026-09-03T08:41:59.536Z</time>
      </trkpt>
      <trkpt lat="49.51271" lon="-1.41638">
        <ele>95.5</ele>
        <time>2026-09-03T08:42:00.536Z</time>
      </trkpt>
      <trkpt lat="49.5127" lon="-1.41638">
        <ele>95.6</ele>
        <time>2026-09-03T08:42:01.536Z</time>
      </trkpt>
      <trkpt lat="49.5127" lon="-1.41638">
        <ele>95.6</ele>
        <time>2026-09-03T08:42:02.536Z</time>
      </trkpt>
      <trkpt lat="49.5127" lon="-1.41638">
        <ele>95.6</ele>
        <time>2026-09-03T08:42:03.536Z</time>
      </trkpt>
      <trkpt lat="49.5127" lon="-1.41638">
        <ele>95.6</ele>
        <time>2026-09-03T08:42:04.536Z</time>
      </trkpt>
      <trkpt lat="49.5127" lon="-1.41638">
        <ele>95.6</ele>
        <time>2026-09-03T08:42:05.536Z</time>
      </trkpt>
      <trkpt lat="49.51269" lon="-1.41638">
        <ele>95.6</ele>
        <time>2026-09-03T08:42:06.536Z</time>
      </trkpt>
      <trkpt lat="49.51269" lon="-1.41638">
        <ele>95.6</ele>
        <time>2026-09-03T08:42:07.536Z</time>
      </trkpt>
      <trkpt lat="49.51269" lon="-1.41638">
        <ele>95.6</ele>
        <time>2026-09-03T08:42:08.536Z</time>
      </trkpt>
      <trkpt lat="49.51269" lon="-1.41638">
        <ele>95.6</ele>
        <time>2026-09-03T08:42:09.536Z</time>
      </trkpt>
      <trkpt lat="49.51269" lon="-1.41638">
        <ele>95.6</ele>
        <time>2026-09-03T08:42:10.536Z</time>
      </trkpt>
      <trkpt lat="49.51269" lon="-1.41638">
        <ele>95.6</ele>
        <time>2026-09-03T08:42:12.569Z</time>
      </trkpt>
      <trkpt lat="49.5127" lon="-1.41639">
        <ele>95.6</ele>
        <time>2026-09-03T08:42:14.551Z</time>
      </trkpt>
      <trkpt lat="49.51271" lon="-1.41639">
        <ele>95.5</ele>
        <time>2026-09-03T08:42:15.553Z</time>
      </trkpt>
      <trkpt lat="49.51272" lon="-1.41633">
        <ele>95.4</ele>
        <time>2026-09-03T08:42:17.536Z</time>
      </trkpt>
      <trkpt lat="49.51272" lon="-1.41633">
        <ele>95.4</ele>
        <time>2026-09-03T08:42:18.536Z</time>
      </trkpt>
      <trkpt lat="49.51271" lon="-1.41634">
        <ele>95.5</ele>
        <time>2026-09-03T08:42:19.536Z</time>
      </trkpt>
      <trkpt lat="49.51271" lon="-1.41635">
        <ele>95.5</ele>
        <time>2026-09-03T08:42:20.536Z</time>
      </trkpt>
      <trkpt lat="49.5127" lon="-1.41637">
        <ele>95.6</ele>
        <time>2026-09-03T08:42:21.536Z</time>
      </trkpt>
      <trkpt lat="49.51269" lon="-1.41638">
        <ele>95.6</ele>
        <time>2026-09-03T08:42:22.536Z</time>
      </trkpt>
      <trkpt lat="49.51269" lon="-1.41639">
        <ele>95.6</ele>
        <time>2026-09-03T08:42:23.536Z</time>
      </trkpt>
      <trkpt lat="49.51269" lon="-1.4164">
        <ele>95.6</ele>
        <time>2026-09-03T08:42:24.536Z</time>
      </trkpt>
      <trkpt lat="49.51269" lon="-1.41641">
        <ele>95.6</ele>
        <time>2026-09-03T08:42:25.536Z</time>
      </trkpt>
      <trkpt lat="49.5127" lon="-1.41641">
        <ele>95.6</ele>
        <time>2026-09-03T08:42:26.536Z</time>
      </trkpt>
      <trkpt lat="49.5127" lon="-1.4164">
        <ele>95.6</ele>
        <time>2026-09-03T08:42:27.536Z</time>
      </trkpt>
      <trkpt lat="49.5127" lon="-1.4164">
        <ele>95.6</ele>
        <time>2026-09-03T08:42:28.536Z</time>
      </trkpt>
      <trkpt lat="49.5127" lon="-1.4164">
        <ele>95.6</ele>
        <time>2026-09-03T08:42:29.536Z</time>
      </trkpt>
      <trkpt lat="49.5127" lon="-1.4164">
        <ele>95.6</ele>
        <time>2026-09-03T08:42:30.536Z</time>
      </trkpt>
      <trkpt lat="49.5127" lon="-1.4164">
        <ele>95.6</ele>
        <time>2026-09-03T08:42:31.536Z</time>
      </trkpt>
      <trkpt lat="49.5127" lon="-1.4164">
        <ele>95.6</ele>
        <time>2026-09-03T08:42:32.536Z</time>
      </trkpt>
      <trkpt lat="49.5127" lon="-1.4164">
        <ele>95.6</ele>
        <time>2026-09-03T08:42:33.536Z</time>
      </trkpt>
      <trkpt lat="49.5127" lon="-1.4164">
        <ele>95.6</ele>
        <time>2026-09-03T08:42:34.536Z</time>
      </trkpt>
      <trkpt lat="49.5127" lon="-1.4164">
        <ele>95.6</ele>
        <time>2026-09-03T08:42:35.536Z</time>
      </trkpt>
      <trkpt lat="49.5127" lon="-1.4164">
        <ele>95.6</ele>
        <time>2026-09-03T08:42:36.562Z</time>
      </trkpt>
      <trkpt lat="49.5127" lon="-1.4164">
        <ele>95.6</ele>
        <time>2026-09-03T08:42:37.563Z</time>
      </trkpt>
      <trkpt lat="49.5127" lon="-1.4164">
        <ele>95.6</ele>
        <time>2026-09-03T08:42:38.565Z</time>
      </trkpt>
      <trkpt lat="49.5127" lon="-1.4164">
        <ele>95.6</ele>
        <time>2026-09-03T08:42:39.586Z</time>
      </trkpt>
      <trkpt lat="49.5127" lon="-1.41641">
        <ele>95.6</ele>
        <time>2026-09-03T08:42:41.536Z</time>
      </trkpt>
      <trkpt lat="49.5127" lon="-1.41641">
        <ele>95.6</ele>
        <time>2026-09-03T08:42:42.536Z</time>
      </trkpt>
      <trkpt lat="49.5127" lon="-1.41641">
        <ele>95.6</ele>
        <time>2026-09-03T08:42:43.536Z</time>
      </trkpt>
      <trkpt lat="49.5127" lon="-1.41641">
        <ele>95.6</ele>
        <time>2026-09-03T08:42:44.536Z</time>
      </trkpt>
      <trkpt lat="49.5127" lon="-1.41641">
        <ele>95.6</ele>
        <time>2026-09-03T08:42:45.554Z</time>
      </trkpt>
      <trkpt lat="49.5127" lon="-1.41641">
        <ele>95.6</ele>
        <time>2026-09-03T08:42:47.536Z</time>
      </trkpt>
      <trkpt lat="49.5127" lon="-1.4164">
        <ele>95.6</ele>
        <time>2026-09-03T08:42:48.579Z</time>
      </trkpt>
      <trkpt lat="49.5127" lon="-1.4164">
        <ele>95.6</ele>
        <time>2026-09-03T08:42:50.536Z</time>
      </trkpt>
      <trkpt lat="49.5127" lon="-1.4164">
        <ele>95.6</ele>
        <time>2026-09-03T08:42:51.536Z</time>
      </trkpt>
      <trkpt lat="49.5127" lon="-1.4164">
        <ele>95.6</ele>
        <time>2026-09-03T08:42:52.536Z</time>
      </trkpt>
      <trkpt lat="49.5127" lon="-1.4164">
        <ele>95.6</ele>
        <time>2026-09-03T08:42:53.565Z</time>
      </trkpt>
      <trkpt lat="49.5127" lon="-1.4164">
        <ele>95.6</ele>
        <time>2026-09-03T08:42:54.567Z</time>
      </trkpt>
      <trkpt lat="49.5127" lon="-1.4164">
        <ele>95.6</ele>
        <time>2026-09-03T08:42:56.550Z</time>
      </trkpt>
      <trkpt lat="49.5127" lon="-1.4164">
        <ele>95.6</ele>
        <time>2026-09-03T08:42:58.552Z</time>
      </trkpt>
      <trkpt lat="49.5127" lon="-1.41638">
        <ele>95.6</ele>
        <time>2026-09-03T08:42:59.554Z</time>
      </trkpt>
      <trkpt lat="49.5127" lon="-1.41635">
        <ele>95.6</ele>
        <time>2026-09-03T08:43:00.555Z</time>
      </trkpt>
      <trkpt lat="49.51269" lon="-1.41632">
        <ele>95.6</ele>
        <time>2026-09-03T08:43:01.556Z</time>
      </trkpt>
      <trkpt lat="49.51268" lon="-1.41628">
        <ele>95.7</ele>
        <time>2026-09-03T08:43:03.539Z</time>
      </trkpt>
      <trkpt lat="49.51268" lon="-1.41626">
        <ele>95.7</ele>
        <time>2026-09-03T08:43:04.561Z</time>
      </trkpt>
      <trkpt lat="49.51268" lon="-1.41622">
        <ele>95.7</ele>
        <time>2026-09-03T08:43:06.563Z</time>
      </trkpt>
      <trkpt lat="49.51267" lon="-1.4162">
        <ele>95.8</ele>
        <time>2026-09-03T08:43:07.565Z</time>
      </trkpt>
      <trkpt lat="49.51266" lon="-1.41619">
        <ele>95.8</ele>
        <time>2026-09-03T08:43:08.566Z</time>
      </trkpt>
      <trkpt lat="49.51265" lon="-1.41618">
        <ele>95.9</ele>
        <time>2026-09-03T08:43:09.567Z</time>
      </trkpt>
      <trkpt lat="49.51263" lon="-1.41619">
        <ele>96.1</ele>
        <time>2026-09-03T08:43:10.569Z</time>
      </trkpt>
      <trkpt lat="49.51262" lon="-1.41621">
        <ele>96.1</ele>
        <time>2026-09-03T08:43:11.570Z</time>
      </trkpt>
      <trkpt lat="49.51261" lon="-1.41625">
        <ele>96.2</ele>
        <time>2026-09-03T08:43:13.573Z</time>
      </trkpt>
      <trkpt lat="49.51261" lon="-1.41626">
        <ele>96.2</ele>
        <time>2026-09-03T08:43:14.574Z</time>
      </trkpt>
      <trkpt lat="49.51261" lon="-1.41626">
        <ele>96.2</ele>
        <time>2026-09-03T08:43:16.536Z</time>
      </trkpt>
      <trkpt lat="49.51261" lon="-1.41626">
        <ele>96.2</ele>
        <time>2026-09-03T08:43:17.536Z</time>
      </trkpt>
      <trkpt lat="49.51261" lon="-1.41626">
        <ele>96.2</ele>
        <time>2026-09-03T08:43:18.580Z</time>
      </trkpt>
      <trkpt lat="49.51261" lon="-1.41626">
        <ele>96.2</ele>
        <time>2026-09-03T08:43:20.536Z</time>
      </trkpt>
      <trkpt lat="49.51261" lon="-1.41626">
        <ele>96.2</ele>
        <time>2026-09-03T08:43:21.536Z</time>
      </trkpt>
      <trkpt lat="49.51261" lon="-1.41627">
        <ele>96.2</ele>
        <time>2026-09-03T08:43:22.536Z</time>
      </trkpt>
      <trkpt lat="49.51261" lon="-1.41627">
        <ele>96.2</ele>
        <time>2026-09-03T08:43:23.536Z</time>
      </trkpt>
      <trkpt lat="49.51261" lon="-1.41627">
        <ele>96.2</ele>
        <time>2026-09-03T08:43:24.536Z</time>
      </trkpt>
      <trkpt lat="49.51261" lon="-1.41627">
        <ele>96.2</ele>
        <time>2026-09-03T08:43:25.549Z</time>
      </trkpt>
      <trkpt lat="49.51261" lon="-1.41626">
        <ele>96.2</ele>
        <time>2026-09-03T08:43:26.551Z</time>
      </trkpt>
      <trkpt lat="49.51261" lon="-1.41627">
        <ele>96.2</ele>
        <time>2026-09-03T08:43:28.536Z</time>
      </trkpt>
      <trkpt lat="49.51261" lon="-1.41627">
        <ele>96.2</ele>
        <time>2026-09-03T08:43:29.575Z</time>
      </trkpt>
      <trkpt lat="49.51261" lon="-1.41626">
        <ele>96.2</ele>
        <time>2026-09-03T08:43:31.536Z</time>
      </trkpt>
      <trkpt lat="49.51261" lon="-1.41626">
        <ele>96.2</ele>
        <time>2026-09-03T08:43:32.536Z</time>
      </trkpt>
      <trkpt lat="49.51261" lon="-1.41626">
        <ele>96.2</ele>
        <time>2026-09-03T08:43:33.536Z</time>
      </trkpt>
      <trkpt lat="49.51261" lon="-1.41626">
        <ele>96.2</ele>
        <time>2026-09-03T08:43:34.542Z</time>
      </trkpt>
      <trkpt lat="49.51261" lon="-1.41627">
        <ele>96.2</ele>
        <time>2026-09-03T08:43:36.536Z</time>
      </trkpt>
      <trkpt lat="49.51261" lon="-1.41627">
        <ele>96.2</ele>
        <time>2026-09-03T08:43:37.536Z</time>
      </trkpt>
      <trkpt lat="49.51261" lon="-1.41627">
        <ele>96.2</ele>
        <time>2026-09-03T08:43:38.536Z</time>
      </trkpt>
      <trkpt lat="49.51261" lon="-1.41627">
        <ele>96.2</ele>
        <time>2026-09-03T08:43:39.536Z</time>
      </trkpt>
      <trkpt lat="49.51261" lon="-1.41627">
        <ele>96.2</ele>
        <time>2026-09-03T08:43:40.536Z</time>
      </trkpt>
      <trkpt lat="49.51261" lon="-1.41627">
        <ele>96.2</ele>
        <time>2026-09-03T08:43:41.536Z</time>
      </trkpt>
      <trkpt lat="49.51261" lon="-1.41627">
        <ele>96.2</ele>
        <time>2026-09-03T08:43:42.536Z</time>
      </trkpt>
      <trkpt lat="49.51261" lon="-1.41627">
        <ele>96.2</ele>
        <time>2026-09-03T08:43:43.536Z</time>
      </trkpt>
      <trkpt lat="49.51261" lon="-1.41627">
        <ele>96.2</ele>
        <time>2026-09-03T08:43:44.536Z</time>
      </trkpt>
      <trkpt lat="49.51261" lon="-1.41627">
        <ele>96.2</ele>
        <time>2026-09-03T08:43:45.577Z</time>
      </trkpt>
      <trkpt lat="49.51261" lon="-1.41627">
        <ele>96.2</ele>
        <time>2026-09-03T08:43:46.578Z</time>
      </trkpt>
      <trkpt lat="49.51261" lon="-1.41627">
        <ele>96.2</ele>
        <time>2026-09-03T08:43:48.536Z</time>
      </trkpt>
      <trkpt lat="49.51261" lon="-1.41627">
        <ele>96.2</ele>
        <time>2026-09-03T08:43:49.536Z</time>
      </trkpt>
      <trkpt lat="49.51261" lon="-1.41627">
        <ele>96.2</ele>
        <time>2026-09-03T08:43:50.536Z</time>
      </trkpt>
      <trkpt lat="49.51261" lon="-1.41627">
        <ele>96.2</ele>
        <time>2026-09-03T08:43:51.545Z</time>
      </trkpt>
      <trkpt lat="49.51261" lon="-1.41627">
        <ele>96.2</ele>
        <time>2026-09-03T08:43:53.548Z</time>
      </trkpt>
      <trkpt lat="49.51261" lon="-1.41628">
        <ele>96.2</ele>
        <time>2026-09-03T08:43:54.549Z</time>
      </trkpt>
      <trkpt lat="49.51261" lon="-1.41628">
        <ele>96.2</ele>
        <time>2026-09-03T08:43:55.551Z</time>
      </trkpt>
      <trkpt lat="49.51261" lon="-1.41628">
        <ele>96.2</ele>
        <time>2026-09-03T08:43:56.552Z</time>
      </trkpt>
      <trkpt lat="49.51261" lon="-1.41628">
        <ele>96.2</ele>
        <time>2026-09-03T08:43:57.553Z</time>
      </trkpt>
      <trkpt lat="49.51261" lon="-1.41628">
        <ele>96.2</ele>
        <time>2026-09-03T08:43:59.556Z</time>
      </trkpt>
      <trkpt lat="49.51261" lon="-1.41628">
        <ele>96.2</ele>
        <time>2026-09-03T08:44:00.557Z</time>
      </trkpt>
      <trkpt lat="49.51261" lon="-1.41628">
        <ele>96.2</ele>
        <time>2026-09-03T08:44:01.599Z</time>
      </trkpt>
      <trkpt lat="49.5126" lon="-1.41628">
        <ele>96.3</ele>
        <time>2026-09-03T08:44:03.541Z</time>
      </trkpt>
      <trkpt lat="49.51261" lon="-1.41625">
        <ele>96.2</ele>
        <time>2026-09-03T08:44:05.536Z</time>
      </trkpt>
      <trkpt lat="49.51263" lon="-1.41624">
        <ele>96.1</ele>
        <time>2026-09-03T08:44:06.536Z</time>
      </trkpt>
      <trkpt lat="49.51265" lon="-1.41623">
        <ele>95.9</ele>
        <time>2026-09-03T08:44:07.547Z</time>
      </trkpt>
      <trkpt lat="49.51267" lon="-1.41621">
        <ele>95.8</ele>
        <time>2026-09-03T08:44:08.568Z</time>
      </trkpt>
      <trkpt lat="49.51267" lon="-1.41615">
        <ele>95.8</ele>
        <time>2026-09-03T08:44:10.551Z</time>
      </trkpt>
      <trkpt lat="49.51266" lon="-1.41612">
        <ele>95.8</ele>
        <time>2026-09-03T08:44:11.552Z</time>
      </trkpt>
      <trkpt lat="49.51266" lon="-1.41609">
        <ele>95.8</ele>
        <time>2026-09-03T08:44:12.554Z</time>
      </trkpt>
      <trkpt lat="49.51265" lon="-1.41607">
        <ele>95.8</ele>
        <time>2026-09-03T08:44:13.555Z</time>
      </trkpt>
      <trkpt lat="49.51265" lon="-1.41605">
        <ele>95.8</ele>
        <time>2026-09-03T08:44:14.557Z</time>
      </trkpt>
      <trkpt lat="49.51265" lon="-1.41602">
        <ele>95.7</ele>
        <time>2026-09-03T08:44:15.557Z</time>
      </trkpt>
      <trkpt lat="49.51265" lon="-1.416">
        <ele>95.7</ele>
        <time>2026-09-03T08:44:16.559Z</time>
      </trkpt>
      <trkpt lat="49.51264" lon="-1.41597">
        <ele>95.7</ele>
        <time>2026-09-03T08:44:17.561Z</time>
      </trkpt>
      <trkpt lat="49.51264" lon="-1.41595">
        <ele>95.7</ele>
        <time>2026-09-03T08:44:18.562Z</time>
      </trkpt>
      <trkpt lat="49.51264" lon="-1.41593">
        <ele>95.7</ele>
        <time>2026-09-03T08:44:19.563Z</time>
      </trkpt>
      <trkpt lat="49.51263" lon="-1.4159">
        <ele>95.7</ele>
        <time>2026-09-03T08:44:20.565Z</time>
      </trkpt>
      <trkpt lat="49.51263" lon="-1.41588">
        <ele>95.7</ele>
        <time>2026-09-03T08:44:21.576Z</time>
      </trkpt>
      <trkpt lat="49.51262" lon="-1.41583">
        <ele>95.7</ele>
        <time>2026-09-03T08:44:23.539Z</time>
      </trkpt>
      <trkpt lat="49.51262" lon="-1.41581">
        <ele>95.7</ele>
        <time>2026-09-03T08:44:24.540Z</time>
      </trkpt>
      <trkpt lat="49.51262" lon="-1.41579">
        <ele>95.6</ele>
        <time>2026-09-03T08:44:25.552Z</time>
      </trkpt>
      <trkpt lat="49.51262" lon="-1.41575">
        <ele>95.5</ele>
        <time>2026-09-03T08:44:27.494Z</time>
      </trkpt>
      <trkpt lat="49.51263" lon="-1.41572">
        <ele>95.4</ele>
        <time>2026-09-03T08:44:28.496Z</time>
      </trkpt>
      <trkpt lat="49.51262" lon="-1.4157">
        <ele>95.4</ele>
        <time>2026-09-03T08:44:29.497Z</time>
      </trkpt>
      <trkpt lat="49.51261" lon="-1.41564">
        <ele>95.4</ele>
        <time>2026-09-03T08:44:31.536Z</time>
      </trkpt>
      <trkpt lat="49.5126" lon="-1.41559">
        <ele>95.4</ele>
        <time>2026-09-03T08:44:33.536Z</time>
      </trkpt>
      <trkpt lat="49.5126" lon="-1.41554">
        <ele>95.3</ele>
        <time>2026-09-03T08:44:35.515Z</time>
      </trkpt>
      <trkpt lat="49.51259" lon="-1.4155">
        <ele>95.3</ele>
        <time>2026-09-03T08:44:37.518Z</time>
      </trkpt>
      <trkpt lat="49.51258" lon="-1.41545">
        <ele>95.3</ele>
        <time>2026-09-03T08:44:39.501Z</time>
      </trkpt>
      <trkpt lat="49.51257" lon="-1.4154">
        <ele>95.4</ele>
        <time>2026-09-03T08:44:41.473Z</time>
      </trkpt>
      <trkpt lat="49.51256" lon="-1.41538">
        <ele>95.4</ele>
        <time>2026-09-03T08:44:42.495Z</time>
      </trkpt>
      <trkpt lat="49.51256" lon="-1.41536">
        <ele>95.4</ele>
        <time>2026-09-03T08:44:43.496Z</time>
      </trkpt>
      <trkpt lat="49.51255" lon="-1.41534">
        <ele>95.5</ele>
        <time>2026-09-03T08:44:44.516Z</time>
      </trkpt>
      <trkpt lat="49.51254" lon="-1.41529">
        <ele>95.6</ele>
        <time>2026-09-03T08:44:46.499Z</time>
      </trkpt>
      <trkpt lat="49.51253" lon="-1.41527">
        <ele>95.6</ele>
        <time>2026-09-03T08:44:47.502Z</time>
      </trkpt>
      <trkpt lat="49.51252" lon="-1.41526">
        <ele>95.7</ele>
        <time>2026-09-03T08:44:48.533Z</time>
      </trkpt>
      <trkpt lat="49.5125" lon="-1.41522">
        <ele>95.8</ele>
        <time>2026-09-03T08:44:50.516Z</time>
      </trkpt>
      <trkpt lat="49.5125" lon="-1.4152">
        <ele>95.7</ele>
        <time>2026-09-03T08:44:51.517Z</time>
      </trkpt>
      <trkpt lat="49.5125" lon="-1.41518">
        <ele>95.6</ele>
        <time>2026-09-03T08:44:52.539Z</time>
      </trkpt>
      <trkpt lat="49.51249" lon="-1.41514">
        <ele>95.6</ele>
        <time>2026-09-03T08:44:54.541Z</time>
      </trkpt>
      <trkpt lat="49.51247" lon="-1.41509">
        <ele>95.5</ele>
        <time>2026-09-03T08:44:56.536Z</time>
      </trkpt>
      <trkpt lat="49.51245" lon="-1.41505">
        <ele>95.5</ele>
        <time>2026-09-03T08:44:58.537Z</time>
      </trkpt>
      <trkpt lat="49.51245" lon="-1.41504">
        <ele>95.5</ele>
        <time>2026-09-03T08:44:59.538Z</time>
      </trkpt>
      <trkpt lat="49.51243" lon="-1.415">
        <ele>95.5</ele>
        <time>2026-09-03T08:45:01.541Z</time>
      </trkpt>
      <trkpt lat="49.51242" lon="-1.41498">
        <ele>95.5</ele>
        <time>2026-09-03T08:45:02.552Z</time>
      </trkpt>
      <trkpt lat="49.51241" lon="-1.41496">
        <ele>95.5</ele>
        <time>2026-09-03T08:45:03.554Z</time>
      </trkpt>
      <trkpt lat="49.51239" lon="-1.41491">
        <ele>95.5</ele>
        <time>2026-09-03T08:45:05.556Z</time>
      </trkpt>
      <trkpt lat="49.51238" lon="-1.41486">
        <ele>95.4</ele>
        <time>2026-09-03T08:45:07.499Z</time>
      </trkpt>
      <trkpt lat="49.51237" lon="-1.41484">
        <ele>95.4</ele>
        <time>2026-09-03T08:45:08.536Z</time>
      </trkpt>
      <trkpt lat="49.51236" lon="-1.41479">
        <ele>95.3</ele>
        <time>2026-09-03T08:45:10.513Z</time>
      </trkpt>
      <trkpt lat="49.51236" lon="-1.41476">
        <ele>95.1</ele>
        <time>2026-09-03T08:45:12.476Z</time>
      </trkpt>
      <trkpt lat="49.51236" lon="-1.41474">
        <ele>95.1</ele>
        <time>2026-09-03T08:45:13.497Z</time>
      </trkpt>
      <trkpt lat="49.51236" lon="-1.41473">
        <ele>95</ele>
        <time>2026-09-03T08:45:14.559Z</time>
      </trkpt>
      <trkpt lat="49.51235" lon="-1.41469">
        <ele>95</ele>
        <time>2026-09-03T08:45:16.481Z</time>
      </trkpt>
      <trkpt lat="49.51234" lon="-1.41466">
        <ele>94.9</ele>
        <time>2026-09-03T08:45:17.493Z</time>
      </trkpt>
      <trkpt lat="49.51232" lon="-1.41461">
        <ele>94.9</ele>
        <time>2026-09-03T08:45:19.455Z</time>
      </trkpt>
      <trkpt lat="49.51231" lon="-1.41459">
        <ele>94.9</ele>
        <time>2026-09-03T08:45:20.457Z</time>
      </trkpt>
      <trkpt lat="49.51229" lon="-1.41455">
        <ele>94.9</ele>
        <time>2026-09-03T08:45:22.439Z</time>
      </trkpt>
      <trkpt lat="49.51228" lon="-1.41453">
        <ele>94.9</ele>
        <time>2026-09-03T08:45:23.441Z</time>
      </trkpt>
      <trkpt lat="49.51226" lon="-1.41449">
        <ele>94.9</ele>
        <time>2026-09-03T08:45:25.434Z</time>
      </trkpt>
      <trkpt lat="49.51225" lon="-1.41446">
        <ele>94.9</ele>
        <time>2026-09-03T08:45:26.455Z</time>
      </trkpt>
      <trkpt lat="49.51223" lon="-1.41442">
        <ele>94.9</ele>
        <time>2026-09-03T08:45:28.598Z</time>
      </trkpt>
      <trkpt lat="49.51222" lon="-1.41438">
        <ele>95</ele>
        <time>2026-09-03T08:45:30.536Z</time>
      </trkpt>
      <trkpt lat="49.51221" lon="-1.41435">
        <ele>95.1</ele>
        <time>2026-09-03T08:45:32.473Z</time>
      </trkpt>
      <trkpt lat="49.5122" lon="-1.41431">
        <ele>95.1</ele>
        <time>2026-09-03T08:45:34.456Z</time>
      </trkpt>
      <trkpt lat="49.51219" lon="-1.41429">
        <ele>95.2</ele>
        <time>2026-09-03T08:45:35.477Z</time>
      </trkpt>
      <trkpt lat="49.51218" lon="-1.41427">
        <ele>95.2</ele>
        <time>2026-09-03T08:45:36.479Z</time>
      </trkpt>
      <trkpt lat="49.51217" lon="-1.41424">
        <ele>95.2</ele>
        <time>2026-09-03T08:45:37.536Z</time>
      </trkpt>
      <trkpt lat="49.51215" lon="-1.41421">
        <ele>95.3</ele>
        <time>2026-09-03T08:45:39.536Z</time>
      </trkpt>
      <trkpt lat="49.51214" lon="-1.41418">
        <ele>95.3</ele>
        <time>2026-09-03T08:45:40.599Z</time>
      </trkpt>
      <trkpt lat="49.51212" lon="-1.41415">
        <ele>95.3</ele>
        <time>2026-09-03T08:45:42.437Z</time>
      </trkpt>
      <trkpt lat="49.51211" lon="-1.41413">
        <ele>95.2</ele>
        <time>2026-09-03T08:45:43.536Z</time>
      </trkpt>
      <trkpt lat="49.51209" lon="-1.41409">
        <ele>95.1</ele>
        <time>2026-09-03T08:45:45.441Z</time>
      </trkpt>
      <trkpt lat="49.51208" lon="-1.41405">
        <ele>94.9</ele>
        <time>2026-09-03T08:45:47.413Z</time>
      </trkpt>
      <trkpt lat="49.51207" lon="-1.41403">
        <ele>94.8</ele>
        <time>2026-09-03T08:45:48.435Z</time>
      </trkpt>
      <trkpt lat="49.51206" lon="-1.41401">
        <ele>94.8</ele>
        <time>2026-09-03T08:45:49.436Z</time>
      </trkpt>
      <trkpt lat="49.51206" lon="-1.414">
        <ele>94.7</ele>
        <time>2026-09-03T08:45:50.438Z</time>
      </trkpt>
      <trkpt lat="49.51204" lon="-1.41395">
        <ele>94.6</ele>
        <time>2026-09-03T08:45:52.420Z</time>
      </trkpt>
      <trkpt lat="49.51203" lon="-1.41391">
        <ele>94.5</ele>
        <time>2026-09-03T08:45:54.393Z</time>
      </trkpt>
      <trkpt lat="49.51202" lon="-1.41389">
        <ele>94.5</ele>
        <time>2026-09-03T08:45:55.394Z</time>
      </trkpt>
      <trkpt lat="49.51201" lon="-1.41384">
        <ele>94.4</ele>
        <time>2026-09-03T08:45:57.377Z</time>
      </trkpt>
      <trkpt lat="49.512" lon="-1.41382">
        <ele>94.4</ele>
        <time>2026-09-03T08:45:58.535Z</time>
      </trkpt>
      <trkpt lat="49.51199" lon="-1.4138">
        <ele>94.4</ele>
        <time>2026-09-03T08:45:59.580Z</time>
      </trkpt>
      <trkpt lat="49.51198" lon="-1.41378">
        <ele>94.4</ele>
        <time>2026-09-03T08:46:00.581Z</time>
      </trkpt>
      <trkpt lat="49.51196" lon="-1.41374">
        <ele>94.4</ele>
        <time>2026-09-03T08:46:02.536Z</time>
      </trkpt>
      <trkpt lat="49.51195" lon="-1.41372">
        <ele>94.4</ele>
        <time>2026-09-03T08:46:03.545Z</time>
      </trkpt>
      <trkpt lat="49.51193" lon="-1.41368">
        <ele>94.4</ele>
        <time>2026-09-03T08:46:05.536Z</time>
      </trkpt>
      <trkpt lat="49.51192" lon="-1.41367">
        <ele>94.5</ele>
        <time>2026-09-03T08:46:06.536Z</time>
      </trkpt>
      <trkpt lat="49.51191" lon="-1.41365">
        <ele>94.5</ele>
        <time>2026-09-03T08:46:07.536Z</time>
      </trkpt>
      <trkpt lat="49.5119" lon="-1.41363">
        <ele>94.5</ele>
        <time>2026-09-03T08:46:08.572Z</time>
      </trkpt>
      <trkpt lat="49.51189" lon="-1.41361">
        <ele>94.6</ele>
        <time>2026-09-03T08:46:09.574Z</time>
      </trkpt>
      <trkpt lat="49.51186" lon="-1.41358">
        <ele>94.9</ele>
        <time>2026-09-03T08:46:11.556Z</time>
      </trkpt>
      <trkpt lat="49.51185" lon="-1.41356">
        <ele>95</ele>
        <time>2026-09-03T08:46:12.558Z</time>
      </trkpt>
      <trkpt lat="49.51182" lon="-1.41353">
        <ele>95.2</ele>
        <time>2026-09-03T08:46:14.560Z</time>
      </trkpt>
      <trkpt lat="49.51179" lon="-1.41349">
        <ele>95.4</ele>
        <time>2026-09-03T08:46:16.563Z</time>
      </trkpt>
      <trkpt lat="49.51178" lon="-1.41347">
        <ele>95.5</ele>
        <time>2026-09-03T08:46:17.564Z</time>
      </trkpt>
      <trkpt lat="49.51176" lon="-1.41343">
        <ele>95.6</ele>
        <time>2026-09-03T08:46:19.536Z</time>
      </trkpt>
      <trkpt lat="49.51175" lon="-1.41341">
        <ele>95.6</ele>
        <time>2026-09-03T08:46:20.536Z</time>
      </trkpt>
      <trkpt lat="49.51174" lon="-1.41339">
        <ele>95.6</ele>
        <time>2026-09-03T08:46:21.536Z</time>
      </trkpt>
      <trkpt lat="49.51173" lon="-1.41336">
        <ele>95.6</ele>
        <time>2026-09-03T08:46:22.536Z</time>
      </trkpt>
      <trkpt lat="49.51172" lon="-1.41332">
        <ele>95.6</ele>
        <time>2026-09-03T08:46:24.474Z</time>
      </trkpt>
      <trkpt lat="49.51171" lon="-1.41331">
        <ele>95.6</ele>
        <time>2026-09-03T08:46:25.536Z</time>
      </trkpt>
      <trkpt lat="49.51171" lon="-1.41327">
        <ele>95.5</ele>
        <time>2026-09-03T08:46:27.538Z</time>
      </trkpt>
      <trkpt lat="49.51171" lon="-1.41325">
        <ele>95.4</ele>
        <time>2026-09-03T08:46:28.559Z</time>
      </trkpt>
      <trkpt lat="49.5117" lon="-1.41322">
        <ele>95.4</ele>
        <time>2026-09-03T08:46:29.561Z</time>
      </trkpt>
      <trkpt lat="49.51169" lon="-1.41318">
        <ele>95.3</ele>
        <time>2026-09-03T08:46:31.573Z</time>
      </trkpt>
      <trkpt lat="49.51166" lon="-1.41315">
        <ele>95.4</ele>
        <time>2026-09-03T08:46:33.536Z</time>
      </trkpt>
      <trkpt lat="49.51164" lon="-1.41313">
        <ele>95.5</ele>
        <time>2026-09-03T08:46:34.536Z</time>
      </trkpt>
      <trkpt lat="49.51163" lon="-1.41311">
        <ele>95.5</ele>
        <time>2026-09-03T08:46:35.536Z</time>
      </trkpt>
      <trkpt lat="49.51161" lon="-1.41309">
        <ele>95.5</ele>
        <time>2026-09-03T08:46:36.550Z</time>
      </trkpt>
      <trkpt lat="49.5116" lon="-1.41308">
        <ele>95.6</ele>
        <time>2026-09-03T08:46:37.571Z</time>
      </trkpt>
      <trkpt lat="49.51158" lon="-1.41305">
        <ele>95.6</ele>
        <time>2026-09-03T08:46:39.536Z</time>
      </trkpt>
      <trkpt lat="49.51156" lon="-1.41303">
        <ele>95.8</ele>
        <time>2026-09-03T08:46:40.536Z</time>
      </trkpt>
      <trkpt lat="49.51155" lon="-1.41302">
        <ele>95.8</ele>
        <time>2026-09-03T08:46:41.536Z</time>
      </trkpt>
      <trkpt lat="49.51154" lon="-1.413">
        <ele>95.9</ele>
        <time>2026-09-03T08:46:42.558Z</time>
      </trkpt>
      <trkpt lat="49.51152" lon="-1.41297">
        <ele>96.1</ele>
        <time>2026-09-03T08:46:44.541Z</time>
      </trkpt>
      <trkpt lat="49.51151" lon="-1.41295">
        <ele>96.1</ele>
        <time>2026-09-03T08:46:45.542Z</time>
      </trkpt>
      <trkpt lat="49.5115" lon="-1.41293">
        <ele>96.2</ele>
        <time>2026-09-03T08:46:46.544Z</time>
      </trkpt>
      <trkpt lat="49.51148" lon="-1.41288">
        <ele>96.3</ele>
        <time>2026-09-03T08:46:48.546Z</time>
      </trkpt>
      <trkpt lat="49.51148" lon="-1.41286">
        <ele>96.3</ele>
        <time>2026-09-03T08:46:49.568Z</time>
      </trkpt>
      <trkpt lat="49.51147" lon="-1.41283">
        <ele>96.4</ele>
        <time>2026-09-03T08:46:50.569Z</time>
      </trkpt>
      <trkpt lat="49.51146" lon="-1.41282">
        <ele>96.5</ele>
        <time>2026-09-03T08:46:51.570Z</time>
      </trkpt>
      <trkpt lat="49.51145" lon="-1.41277">
        <ele>96.6</ele>
        <time>2026-09-03T08:46:53.573Z</time>
      </trkpt>
      <trkpt lat="49.51144" lon="-1.41275">
        <ele>96.6</ele>
        <time>2026-09-03T08:46:54.599Z</time>
      </trkpt>
      <trkpt lat="49.51142" lon="-1.41271">
        <ele>96.8</ele>
        <time>2026-09-03T08:46:56.536Z</time>
      </trkpt>
      <trkpt lat="49.5114" lon="-1.41268">
        <ele>96.9</ele>
        <time>2026-09-03T08:46:57.578Z</time>
      </trkpt>
      <trkpt lat="49.51139" lon="-1.41264">
        <ele>97</ele>
        <time>2026-09-03T08:46:59.561Z</time>
      </trkpt>
      <trkpt lat="49.51138" lon="-1.41263">
        <ele>97.1</ele>
        <time>2026-09-03T08:47:00.599Z</time>
      </trkpt>
      <trkpt lat="49.51137" lon="-1.41259">
        <ele>97.1</ele>
        <time>2026-09-03T08:47:02.536Z</time>
      </trkpt>
      <trkpt lat="49.51136" lon="-1.41257">
        <ele>97.2</ele>
        <time>2026-09-03T08:47:03.567Z</time>
      </trkpt>
      <trkpt lat="49.51135" lon="-1.41255">
        <ele>97.3</ele>
        <time>2026-09-03T08:47:04.567Z</time>
      </trkpt>
      <trkpt lat="49.51134" lon="-1.41253">
        <ele>97.4</ele>
        <time>2026-09-03T08:47:05.569Z</time>
      </trkpt>
      <trkpt lat="49.51134" lon="-1.41252">
        <ele>97.4</ele>
        <time>2026-09-03T08:47:06.571Z</time>
      </trkpt>
      <trkpt lat="49.51133" lon="-1.4125">
        <ele>97.4</ele>
        <time>2026-09-03T08:47:07.572Z</time>
      </trkpt>
      <trkpt lat="49.51132" lon="-1.41248">
        <ele>97.4</ele>
        <time>2026-09-03T08:47:08.573Z</time>
      </trkpt>
      <trkpt lat="49.51132" lon="-1.41246">
        <ele>97.4</ele>
        <time>2026-09-03T08:47:09.575Z</time>
      </trkpt>
      <trkpt lat="49.5113" lon="-1.41242">
        <ele>97.4</ele>
        <time>2026-09-03T08:47:11.517Z</time>
      </trkpt>
      <trkpt lat="49.51128" lon="-1.41238">
        <ele>97.4</ele>
        <time>2026-09-03T08:47:13.500Z</time>
      </trkpt>
      <trkpt lat="49.51127" lon="-1.41236">
        <ele>97.4</ele>
        <time>2026-09-03T08:47:14.581Z</time>
      </trkpt>
      <trkpt lat="49.51126" lon="-1.41233">
        <ele>97.3</ele>
        <time>2026-09-03T08:47:16.534Z</time>
      </trkpt>
      <trkpt lat="49.51125" lon="-1.41231">
        <ele>97.3</ele>
        <time>2026-09-03T08:47:17.555Z</time>
      </trkpt>
      <trkpt lat="49.51123" lon="-1.4123">
        <ele>97.4</ele>
        <time>2026-09-03T08:47:18.566Z</time>
      </trkpt>
      <trkpt lat="49.51123" lon="-1.41229">
        <ele>97.4</ele>
        <time>2026-09-03T08:47:19.568Z</time>
      </trkpt>
      <trkpt lat="49.51121" lon="-1.41227">
        <ele>97.5</ele>
        <time>2026-09-03T08:47:20.599Z</time>
      </trkpt>
      <trkpt lat="49.51119" lon="-1.41224">
        <ele>97.5</ele>
        <time>2026-09-03T08:47:22.552Z</time>
      </trkpt>
      <trkpt lat="49.51118" lon="-1.41223">
        <ele>97.5</ele>
        <time>2026-09-03T08:47:23.553Z</time>
      </trkpt>
      <trkpt lat="49.51116" lon="-1.41222">
        <ele>97.6</ele>
        <time>2026-09-03T08:47:24.555Z</time>
      </trkpt>
      <trkpt lat="49.51114" lon="-1.4122">
        <ele>97.7</ele>
        <time>2026-09-03T08:47:26.557Z</time>
      </trkpt>
      <trkpt lat="49.51112" lon="-1.41218">
        <ele>97.8</ele>
        <time>2026-09-03T08:47:27.559Z</time>
      </trkpt>
      <trkpt lat="49.51111" lon="-1.41217">
        <ele>97.8</ele>
        <time>2026-09-03T08:47:28.560Z</time>
      </trkpt>
      <trkpt lat="49.5111" lon="-1.41216">
        <ele>97.9</ele>
        <time>2026-09-03T08:47:29.599Z</time>
      </trkpt>
      <trkpt lat="49.51108" lon="-1.41214">
        <ele>97.9</ele>
        <time>2026-09-03T08:47:31.564Z</time>
      </trkpt>
      <trkpt lat="49.51107" lon="-1.41212">
        <ele>97.9</ele>
        <time>2026-09-03T08:47:32.566Z</time>
      </trkpt>
      <trkpt lat="49.51106" lon="-1.41211">
        <ele>98</ele>
        <time>2026-09-03T08:47:33.567Z</time>
      </trkpt>
      <trkpt lat="49.51105" lon="-1.4121">
        <ele>98</ele>
        <time>2026-09-03T08:47:34.568Z</time>
      </trkpt>
      <trkpt lat="49.51103" lon="-1.41207">
        <ele>98</ele>
        <time>2026-09-03T08:47:36.500Z</time>
      </trkpt>
      <trkpt lat="49.51102" lon="-1.41205">
        <ele>98</ele>
        <time>2026-09-03T08:47:37.512Z</time>
      </trkpt>
      <trkpt lat="49.51101" lon="-1.41203">
        <ele>98</ele>
        <time>2026-09-03T08:47:38.534Z</time>
      </trkpt>
      <trkpt lat="49.51101" lon="-1.41201">
        <ele>98</ele>
        <time>2026-09-03T08:47:39.555Z</time>
      </trkpt>
      <trkpt lat="49.511" lon="-1.41199">
        <ele>98</ele>
        <time>2026-09-03T08:47:40.576Z</time>
      </trkpt>
      <trkpt lat="49.51098" lon="-1.41195">
        <ele>98</ele>
        <time>2026-09-03T08:47:42.559Z</time>
      </trkpt>
      <trkpt lat="49.51098" lon="-1.41193">
        <ele>97.9</ele>
        <time>2026-09-03T08:47:43.580Z</time>
      </trkpt>
      <trkpt lat="49.51097" lon="-1.4119">
        <ele>97.9</ele>
        <time>2026-09-03T08:47:45.563Z</time>
      </trkpt>
      <trkpt lat="49.51095" lon="-1.41187">
        <ele>97.9</ele>
        <time>2026-09-03T08:47:47.535Z</time>
      </trkpt>
      <trkpt lat="49.51094" lon="-1.41185">
        <ele>97.9</ele>
        <time>2026-09-03T08:47:48.535Z</time>
      </trkpt>
      <trkpt lat="49.51093" lon="-1.41184">
        <ele>97.9</ele>
        <time>2026-09-03T08:47:49.536Z</time>
      </trkpt>
      <trkpt lat="49.51092" lon="-1.41181">
        <ele>97.9</ele>
        <time>2026-09-03T08:47:50.536Z</time>
      </trkpt>
      <trkpt lat="49.51091" lon="-1.41179">
        <ele>97.9</ele>
        <time>2026-09-03T08:47:51.536Z</time>
      </trkpt>
      <trkpt lat="49.5109" lon="-1.41178">
        <ele>97.9</ele>
        <time>2026-09-03T08:47:52.536Z</time>
      </trkpt>
      <trkpt lat="49.51089" lon="-1.41176">
        <ele>97.9</ele>
        <time>2026-09-03T08:47:53.536Z</time>
      </trkpt>
      <trkpt lat="49.51088" lon="-1.41174">
        <ele>97.9</ele>
        <time>2026-09-03T08:47:54.536Z</time>
      </trkpt>
      <trkpt lat="49.51087" lon="-1.41172">
        <ele>97.9</ele>
        <time>2026-09-03T08:47:55.536Z</time>
      </trkpt>
      <trkpt lat="49.51085" lon="-1.41171">
        <ele>98</ele>
        <time>2026-09-03T08:47:56.558Z</time>
      </trkpt>
      <trkpt lat="49.51084" lon="-1.41169">
        <ele>98</ele>
        <time>2026-09-03T08:47:57.599Z</time>
      </trkpt>
      <trkpt lat="49.51081" lon="-1.41167">
        <ele>98.1</ele>
        <time>2026-09-03T08:47:59.582Z</time>
      </trkpt>
      <trkpt lat="49.51078" lon="-1.41165">
        <ele>98.1</ele>
        <time>2026-09-03T08:48:01.536Z</time>
      </trkpt>
      <trkpt lat="49.51076" lon="-1.41164">
        <ele>98.1</ele>
        <time>2026-09-03T08:48:02.599Z</time>
      </trkpt>
      <trkpt lat="49.51074" lon="-1.41161">
        <ele>98</ele>
        <time>2026-09-03T08:48:04.536Z</time>
      </trkpt>
      <trkpt lat="49.51073" lon="-1.4116">
        <ele>98</ele>
        <time>2026-09-03T08:48:05.536Z</time>
      </trkpt>
      <trkpt lat="49.51072" lon="-1.41158">
        <ele>97.9</ele>
        <time>2026-09-03T08:48:06.536Z</time>
      </trkpt>
      <trkpt lat="49.51071" lon="-1.41157">
        <ele>97.9</ele>
        <time>2026-09-03T08:48:07.536Z</time>
      </trkpt>
      <trkpt lat="49.5107" lon="-1.41155">
        <ele>97.8</ele>
        <time>2026-09-03T08:48:08.574Z</time>
      </trkpt>
      <trkpt lat="49.51069" lon="-1.41154">
        <ele>97.8</ele>
        <time>2026-09-03T08:48:09.575Z</time>
      </trkpt>
      <trkpt lat="49.51067" lon="-1.41153">
        <ele>97.9</ele>
        <time>2026-09-03T08:48:10.577Z</time>
      </trkpt>
      <trkpt lat="49.51066" lon="-1.41151">
        <ele>97.8</ele>
        <time>2026-09-03T08:48:11.578Z</time>
      </trkpt>
      <trkpt lat="49.51064" lon="-1.41147">
        <ele>97.8</ele>
        <time>2026-09-03T08:48:13.461Z</time>
      </trkpt>
      <trkpt lat="49.51063" lon="-1.41146">
        <ele>97.8</ele>
        <time>2026-09-03T08:48:14.536Z</time>
      </trkpt>
      <trkpt lat="49.51062" lon="-1.41143">
        <ele>97.7</ele>
        <time>2026-09-03T08:48:16.555Z</time>
      </trkpt>
      <trkpt lat="49.51061" lon="-1.41142">
        <ele>97.7</ele>
        <time>2026-09-03T08:48:17.566Z</time>
      </trkpt>
      <trkpt lat="49.5106" lon="-1.4114">
        <ele>97.7</ele>
        <time>2026-09-03T08:48:18.567Z</time>
      </trkpt>
      <trkpt lat="49.51057" lon="-1.41137">
        <ele>97.8</ele>
        <time>2026-09-03T08:48:20.570Z</time>
      </trkpt>
      <trkpt lat="49.51056" lon="-1.41135">
        <ele>97.8</ele>
        <time>2026-09-03T08:48:21.571Z</time>
      </trkpt>
      <trkpt lat="49.51054" lon="-1.41131">
        <ele>97.8</ele>
        <time>2026-09-03T08:48:23.536Z</time>
      </trkpt>
      <trkpt lat="49.51053" lon="-1.41127">
        <ele>97.7</ele>
        <time>2026-09-03T08:48:25.457Z</time>
      </trkpt>
      <trkpt lat="49.51052" lon="-1.41125">
        <ele>97.6</ele>
        <time>2026-09-03T08:48:26.478Z</time>
      </trkpt>
      <trkpt lat="49.51052" lon="-1.41122">
        <ele>97.5</ele>
        <time>2026-09-03T08:48:27.560Z</time>
      </trkpt>
      <trkpt lat="49.51052" lon="-1.4112">
        <ele>97.4</ele>
        <time>2026-09-03T08:48:28.581Z</time>
      </trkpt>
      <trkpt lat="49.51051" lon="-1.41117">
        <ele>97.4</ele>
        <time>2026-09-03T08:48:30.544Z</time>
      </trkpt>
      <trkpt lat="49.51051" lon="-1.41116">
        <ele>97.3</ele>
        <time>2026-09-03T08:48:31.545Z</time>
      </trkpt>
      <trkpt lat="49.51049" lon="-1.41112">
        <ele>97.3</ele>
        <time>2026-09-03T08:48:33.568Z</time>
      </trkpt>
      <trkpt lat="49.51048" lon="-1.41111">
        <ele>97.3</ele>
        <time>2026-09-03T08:48:34.569Z</time>
      </trkpt>
      <trkpt lat="49.51045" lon="-1.41107">
        <ele>97.1</ele>
        <time>2026-09-03T08:48:36.572Z</time>
      </trkpt>
      <trkpt lat="49.51042" lon="-1.41105">
        <ele>97</ele>
        <time>2026-09-03T08:48:38.536Z</time>
      </trkpt>
      <trkpt lat="49.51039" lon="-1.41102">
        <ele>96.9</ele>
        <time>2026-09-03T08:48:40.536Z</time>
      </trkpt>
      <trkpt lat="49.51037" lon="-1.411">
        <ele>96.9</ele>
        <time>2026-09-03T08:48:42.560Z</time>
      </trkpt>
      <trkpt lat="49.51036" lon="-1.41099">
        <ele>96.8</ele>
        <time>2026-09-03T08:48:43.601Z</time>
      </trkpt>
      <trkpt lat="49.51035" lon="-1.41097">
        <ele>96.7</ele>
        <time>2026-09-03T08:48:45.536Z</time>
      </trkpt>
      <trkpt lat="49.51034" lon="-1.41096">
        <ele>96.7</ele>
        <time>2026-09-03T08:48:46.536Z</time>
      </trkpt>
      <trkpt lat="49.51032" lon="-1.41093">
        <ele>96.5</ele>
        <time>2026-09-03T08:48:48.538Z</time>
      </trkpt>
      <trkpt lat="49.51032" lon="-1.41091">
        <ele>96.4</ele>
        <time>2026-09-03T08:48:49.579Z</time>
      </trkpt>
      <trkpt lat="49.51031" lon="-1.41088">
        <ele>96.2</ele>
        <time>2026-09-03T08:48:51.536Z</time>
      </trkpt>
      <trkpt lat="49.5103" lon="-1.41086">
        <ele>96.1</ele>
        <time>2026-09-03T08:48:52.553Z</time>
      </trkpt>
      <trkpt lat="49.51029" lon="-1.41086">
        <ele>96.1</ele>
        <time>2026-09-03T08:48:53.554Z</time>
      </trkpt>
      <trkpt lat="49.51026" lon="-1.41088">
        <ele>96.4</ele>
        <time>2026-09-03T08:48:55.557Z</time>
      </trkpt>
      <trkpt lat="49.51025" lon="-1.41089">
        <ele>96.5</ele>
        <time>2026-09-03T08:48:56.558Z</time>
      </trkpt>
      <trkpt lat="49.51025" lon="-1.41089">
        <ele>96.5</ele>
        <time>2026-09-03T08:48:57.560Z</time>
      </trkpt>
      <trkpt lat="49.51025" lon="-1.41088">
        <ele>96.4</ele>
        <time>2026-09-03T08:48:59.562Z</time>
      </trkpt>
      <trkpt lat="49.51026" lon="-1.41086">
        <ele>96.2</ele>
        <time>2026-09-03T08:49:01.495Z</time>
      </trkpt>
      <trkpt lat="49.51026" lon="-1.41085">
        <ele>96.2</ele>
        <time>2026-09-03T08:49:02.577Z</time>
      </trkpt>
      <trkpt lat="49.51026" lon="-1.41083">
        <ele>96.1</ele>
        <time>2026-09-03T08:49:04.569Z</time>
      </trkpt>
      <trkpt lat="49.51025" lon="-1.4108">
        <ele>96</ele>
        <time>2026-09-03T08:49:06.532Z</time>
      </trkpt>
      <trkpt lat="49.51025" lon="-1.41078">
        <ele>95.9</ele>
        <time>2026-09-03T08:49:07.573Z</time>
      </trkpt>
      <trkpt lat="49.51023" lon="-1.41075">
        <ele>95.8</ele>
        <time>2026-09-03T08:49:09.576Z</time>
      </trkpt>
      <trkpt lat="49.51022" lon="-1.4107">
        <ele>95.6</ele>
        <time>2026-09-03T08:49:11.536Z</time>
      </trkpt>
      <trkpt lat="49.51021" lon="-1.41068">
        <ele>95.6</ele>
        <time>2026-09-03T08:49:12.536Z</time>
      </trkpt>
      <trkpt lat="49.51021" lon="-1.41066">
        <ele>95.5</ele>
        <time>2026-09-03T08:49:13.536Z</time>
      </trkpt>
      <trkpt lat="49.5102" lon="-1.41064">
        <ele>95.4</ele>
        <time>2026-09-03T08:49:14.536Z</time>
      </trkpt>
      <trkpt lat="49.51018" lon="-1.41062">
        <ele>95.3</ele>
        <time>2026-09-03T08:49:15.536Z</time>
      </trkpt>
      <trkpt lat="49.51016" lon="-1.41061">
        <ele>95.3</ele>
        <time>2026-09-03T08:49:16.536Z</time>
      </trkpt>
      <trkpt lat="49.51013" lon="-1.41058">
        <ele>95.1</ele>
        <time>2026-09-03T08:49:18.498Z</time>
      </trkpt>
      <trkpt lat="49.51012" lon="-1.41057">
        <ele>95.1</ele>
        <time>2026-09-03T08:49:19.569Z</time>
      </trkpt>
      <trkpt lat="49.5101" lon="-1.41056">
        <ele>95</ele>
        <time>2026-09-03T08:49:20.571Z</time>
      </trkpt>
      <trkpt lat="49.51009" lon="-1.41055">
        <ele>95</ele>
        <time>2026-09-03T08:49:21.572Z</time>
      </trkpt>
      <trkpt lat="49.51007" lon="-1.41054">
        <ele>94.9</ele>
        <time>2026-09-03T08:49:22.573Z</time>
      </trkpt>
      <trkpt lat="49.51005" lon="-1.41052">
        <ele>94.8</ele>
        <time>2026-09-03T08:49:23.575Z</time>
      </trkpt>
      <trkpt lat="49.51003" lon="-1.4105">
        <ele>94.8</ele>
        <time>2026-09-03T08:49:25.497Z</time>
      </trkpt>
      <trkpt lat="49.51001" lon="-1.41048">
        <ele>94.7</ele>
        <time>2026-09-03T08:49:26.499Z</time>
      </trkpt>
      <trkpt lat="49.51" lon="-1.41047">
        <ele>94.7</ele>
        <time>2026-09-03T08:49:27.536Z</time>
      </trkpt>
      <trkpt lat="49.50999" lon="-1.41046">
        <ele>94.7</ele>
        <time>2026-09-03T08:49:28.536Z</time>
      </trkpt>
      <trkpt lat="49.50998" lon="-1.41045">
        <ele>94.6</ele>
        <time>2026-09-03T08:49:29.536Z</time>
      </trkpt>
      <trkpt lat="49.50997" lon="-1.41044">
        <ele>94.6</ele>
        <time>2026-09-03T08:49:30.536Z</time>
      </trkpt>
      <trkpt lat="49.50996" lon="-1.41043">
        <ele>94.5</ele>
        <time>2026-09-03T08:49:31.536Z</time>
      </trkpt>
      <trkpt lat="49.50994" lon="-1.41041">
        <ele>94.5</ele>
        <time>2026-09-03T08:49:33.568Z</time>
      </trkpt>
      <trkpt lat="49.50992" lon="-1.41038">
        <ele>94.4</ele>
        <time>2026-09-03T08:49:35.571Z</time>
      </trkpt>
      <trkpt lat="49.50991" lon="-1.41035">
        <ele>94.3</ele>
        <time>2026-09-03T08:49:37.536Z</time>
      </trkpt>
      <trkpt lat="49.5099" lon="-1.41033">
        <ele>94.2</ele>
        <time>2026-09-03T08:49:38.599Z</time>
      </trkpt>
      <trkpt lat="49.50988" lon="-1.4103">
        <ele>94.1</ele>
        <time>2026-09-03T08:49:40.437Z</time>
      </trkpt>
      <trkpt lat="49.50987" lon="-1.41029">
        <ele>94</ele>
        <time>2026-09-03T08:49:41.499Z</time>
      </trkpt>
      <trkpt lat="49.50986" lon="-1.41027">
        <ele>94</ele>
        <time>2026-09-03T08:49:42.540Z</time>
      </trkpt>
      <trkpt lat="49.50986" lon="-1.41026">
        <ele>93.9</ele>
        <time>2026-09-03T08:49:43.572Z</time>
      </trkpt>
      <trkpt lat="49.50985" lon="-1.41022">
        <ele>93.8</ele>
        <time>2026-09-03T08:49:45.536Z</time>
      </trkpt>
      <trkpt lat="49.50984" lon="-1.4102">
        <ele>93.7</ele>
        <time>2026-09-03T08:49:46.606Z</time>
      </trkpt>
      <trkpt lat="49.50983" lon="-1.41018">
        <ele>93.6</ele>
        <time>2026-09-03T08:49:48.498Z</time>
      </trkpt>
      <trkpt lat="49.50982" lon="-1.41016">
        <ele>93.6</ele>
        <time>2026-09-03T08:49:49.549Z</time>
      </trkpt>
      <trkpt lat="49.50982" lon="-1.41015">
        <ele>93.5</ele>
        <time>2026-09-03T08:49:50.551Z</time>
      </trkpt>
      <trkpt lat="49.50982" lon="-1.41013">
        <ele>93.5</ele>
        <time>2026-09-03T08:49:51.552Z</time>
      </trkpt>
      <trkpt lat="49.50981" lon="-1.41012">
        <ele>93.4</ele>
        <time>2026-09-03T08:49:52.554Z</time>
      </trkpt>
      <trkpt lat="49.5098" lon="-1.4101">
        <ele>93.4</ele>
        <time>2026-09-03T08:49:53.555Z</time>
      </trkpt>
      <trkpt lat="49.50979" lon="-1.41009">
        <ele>93.3</ele>
        <time>2026-09-03T08:49:54.556Z</time>
      </trkpt>
      <trkpt lat="49.50978" lon="-1.41007">
        <ele>93.3</ele>
        <time>2026-09-03T08:49:55.558Z</time>
      </trkpt>
      <trkpt lat="49.50976" lon="-1.41006">
        <ele>93.2</ele>
        <time>2026-09-03T08:49:56.559Z</time>
      </trkpt>
      <trkpt lat="49.50975" lon="-1.41005">
        <ele>93.2</ele>
        <time>2026-09-03T08:49:57.561Z</time>
      </trkpt>
      <trkpt lat="49.50973" lon="-1.41002">
        <ele>93.1</ele>
        <time>2026-09-03T08:49:59.453Z</time>
      </trkpt>
      <trkpt lat="49.50972" lon="-1.41001">
        <ele>93</ele>
        <time>2026-09-03T08:50:00.515Z</time>
      </trkpt>
      <trkpt lat="49.50971" lon="-1.41">
        <ele>93</ele>
        <time>2026-09-03T08:50:01.556Z</time>
      </trkpt>
      <trkpt lat="49.5097" lon="-1.40998">
        <ele>92.9</ele>
        <time>2026-09-03T08:50:02.567Z</time>
      </trkpt>
      <trkpt lat="49.50969" lon="-1.40997">
        <ele>92.8</ele>
        <time>2026-09-03T08:50:03.569Z</time>
      </trkpt>
      <trkpt lat="49.50968" lon="-1.40996">
        <ele>92.7</ele>
        <time>2026-09-03T08:50:04.570Z</time>
      </trkpt>
      <trkpt lat="49.50966" lon="-1.40992">
        <ele>92.6</ele>
        <time>2026-09-03T08:50:06.533Z</time>
      </trkpt>
      <trkpt lat="49.50965" lon="-1.40991">
        <ele>92.5</ele>
        <time>2026-09-03T08:50:07.574Z</time>
      </trkpt>
      <trkpt lat="49.50963" lon="-1.40989">
        <ele>92.4</ele>
        <time>2026-09-03T08:50:09.536Z</time>
      </trkpt>
      <trkpt lat="49.50962" lon="-1.40988">
        <ele>92.4</ele>
        <time>2026-09-03T08:50:10.536Z</time>
      </trkpt>
      <trkpt lat="49.50961" lon="-1.40987">
        <ele>92.3</ele>
        <time>2026-09-03T08:50:11.536Z</time>
      </trkpt>
      <trkpt lat="49.5096" lon="-1.40986">
        <ele>92.3</ele>
        <time>2026-09-03T08:50:12.536Z</time>
      </trkpt>
      <trkpt lat="49.50959" lon="-1.40984">
        <ele>92.2</ele>
        <time>2026-09-03T08:50:13.536Z</time>
      </trkpt>
      <trkpt lat="49.50958" lon="-1.40982">
        <ele>92.2</ele>
        <time>2026-09-03T08:50:14.536Z</time>
      </trkpt>
      <trkpt lat="49.50958" lon="-1.4098">
        <ele>92.1</ele>
        <time>2026-09-03T08:50:15.536Z</time>
      </trkpt>
      <trkpt lat="49.50957" lon="-1.40979">
        <ele>92.1</ele>
        <time>2026-09-03T08:50:16.566Z</time>
      </trkpt>
      <trkpt lat="49.50955" lon="-1.40977">
        <ele>92.1</ele>
        <time>2026-09-03T08:50:18.539Z</time>
      </trkpt>
      <trkpt lat="49.50954" lon="-1.40976">
        <ele>92</ele>
        <time>2026-09-03T08:50:19.560Z</time>
      </trkpt>
      <trkpt lat="49.50953" lon="-1.40976">
        <ele>92</ele>
        <time>2026-09-03T08:50:20.561Z</time>
      </trkpt>
      <trkpt lat="49.50955" lon="-1.4098">
        <ele>92.1</ele>
        <time>2026-09-03T08:50:22.454Z</time>
      </trkpt>
      <trkpt lat="49.50957" lon="-1.4098">
        <ele>92.1</ele>
        <time>2026-09-03T08:50:23.576Z</time>
      </trkpt>
      <trkpt lat="49.50958" lon="-1.40976">
        <ele>92.1</ele>
        <time>2026-09-03T08:50:24.577Z</time>
      </trkpt>
      <trkpt lat="49.50958" lon="-1.40968">
        <ele>91.8</ele>
        <time>2026-09-03T08:50:26.536Z</time>
      </trkpt>
      <trkpt lat="49.50958" lon="-1.40965">
        <ele>91.7</ele>
        <time>2026-09-03T08:50:27.599Z</time>
      </trkpt>
      <trkpt lat="49.50956" lon="-1.40961">
        <ele>91.6</ele>
        <time>2026-09-03T08:50:29.453Z</time>
      </trkpt>
      <trkpt lat="49.50955" lon="-1.40959">
        <ele>91.5</ele>
        <time>2026-09-03T08:50:30.515Z</time>
      </trkpt>
      <trkpt lat="49.50954" lon="-1.40957">
        <ele>91.5</ele>
        <time>2026-09-03T08:50:31.596Z</time>
      </trkpt>
      <trkpt lat="49.50951" lon="-1.40954">
        <ele>91.3</ele>
        <time>2026-09-03T08:50:33.536Z</time>
      </trkpt>
      <trkpt lat="49.50949" lon="-1.40953">
        <ele>91.3</ele>
        <time>2026-09-03T08:50:34.536Z</time>
      </trkpt>
      <trkpt lat="49.50948" lon="-1.40952">
        <ele>91.3</ele>
        <time>2026-09-03T08:50:35.536Z</time>
      </trkpt>
      <trkpt lat="49.50946" lon="-1.40951">
        <ele>91.2</ele>
        <time>2026-09-03T08:50:36.536Z</time>
      </trkpt>
      <trkpt lat="49.50945" lon="-1.4095">
        <ele>91.2</ele>
        <time>2026-09-03T08:50:37.536Z</time>
      </trkpt>
      <trkpt lat="49.50942" lon="-1.40949">
        <ele>91.2</ele>
        <time>2026-09-03T08:50:39.536Z</time>
      </trkpt>
      <trkpt lat="49.50941" lon="-1.40948">
        <ele>91.1</ele>
        <time>2026-09-03T08:50:40.538Z</time>
      </trkpt>
      <trkpt lat="49.50938" lon="-1.40949">
        <ele>91.2</ele>
        <time>2026-09-03T08:50:42.481Z</time>
      </trkpt>
      <trkpt lat="49.50936" lon="-1.40949">
        <ele>91.2</ele>
        <time>2026-09-03T08:50:43.492Z</time>
      </trkpt>
      <trkpt lat="49.50935" lon="-1.40949">
        <ele>91.2</ele>
        <time>2026-09-03T08:50:44.536Z</time>
      </trkpt>
      <trkpt lat="49.50933" lon="-1.40949">
        <ele>91.2</ele>
        <time>2026-09-03T08:50:45.575Z</time>
      </trkpt>
      <trkpt lat="49.50932" lon="-1.40949">
        <ele>91.2</ele>
        <time>2026-09-03T08:50:46.586Z</time>
      </trkpt>
      <trkpt lat="49.50929" lon="-1.40948">
        <ele>91.1</ele>
        <time>2026-09-03T08:50:48.568Z</time>
      </trkpt>
      <trkpt lat="49.50928" lon="-1.40946">
        <ele>91.1</ele>
        <time>2026-09-03T08:50:49.570Z</time>
      </trkpt>
      <trkpt lat="49.50926" lon="-1.40945">
        <ele>91</ele>
        <time>2026-09-03T08:50:50.572Z</time>
      </trkpt>
      <trkpt lat="49.50924" lon="-1.40942">
        <ele>91</ele>
        <time>2026-09-03T08:50:52.574Z</time>
      </trkpt>
      <trkpt lat="49.50923" lon="-1.40941">
        <ele>91</ele>
        <time>2026-09-03T08:50:53.576Z</time>
      </trkpt>
      <trkpt lat="49.50923" lon="-1.40938">
        <ele>91</ele>
        <time>2026-09-03T08:50:54.577Z</time>
      </trkpt>
      <trkpt lat="49.50922" lon="-1.40936">
        <ele>91</ele>
        <time>2026-09-03T08:50:55.578Z</time>
      </trkpt>
      <trkpt lat="49.5092" lon="-1.40934">
        <ele>91</ele>
        <time>2026-09-03T08:50:57.536Z</time>
      </trkpt>
      <trkpt lat="49.50918" lon="-1.40933">
        <ele>91</ele>
        <time>2026-09-03T08:50:58.536Z</time>
      </trkpt>
      <trkpt lat="49.50917" lon="-1.40932">
        <ele>91</ele>
        <time>2026-09-03T08:50:59.536Z</time>
      </trkpt>
      <trkpt lat="49.50915" lon="-1.40931">
        <ele>91</ele>
        <time>2026-09-03T08:51:00.565Z</time>
      </trkpt>
      <trkpt lat="49.50912" lon="-1.40932">
        <ele>91</ele>
        <time>2026-09-03T08:51:02.536Z</time>
      </trkpt>
      <trkpt lat="49.5091" lon="-1.40933">
        <ele>91</ele>
        <time>2026-09-03T08:51:03.549Z</time>
      </trkpt>
      <trkpt lat="49.50909" lon="-1.40935">
        <ele>91</ele>
        <time>2026-09-03T08:51:04.551Z</time>
      </trkpt>
      <trkpt lat="49.50909" lon="-1.40936">
        <ele>91</ele>
        <time>2026-09-03T08:51:05.552Z</time>
      </trkpt>
      <trkpt lat="49.50909" lon="-1.40937">
        <ele>91</ele>
        <time>2026-09-03T08:51:06.553Z</time>
      </trkpt>
      <trkpt lat="49.50909" lon="-1.40937">
        <ele>91</ele>
        <time>2026-09-03T08:51:07.555Z</time>
      </trkpt>
      <trkpt lat="49.5091" lon="-1.40938">
        <ele>91</ele>
        <time>2026-09-03T08:51:08.556Z</time>
      </trkpt>
      <trkpt lat="49.5091" lon="-1.40938">
        <ele>91</ele>
        <time>2026-09-03T08:51:09.557Z</time>
      </trkpt>
      <trkpt lat="49.5091" lon="-1.40939">
        <ele>91</ele>
        <time>2026-09-03T08:51:10.559Z</time>
      </trkpt>
      <trkpt lat="49.5091" lon="-1.40939">
        <ele>91</ele>
        <time>2026-09-03T08:51:11.560Z</time>
      </trkpt>
      <trkpt lat="49.5091" lon="-1.40939">
        <ele>91</ele>
        <time>2026-09-03T08:51:12.561Z</time>
      </trkpt>
      <trkpt lat="49.50912" lon="-1.4094">
        <ele>91</ele>
        <time>2026-09-03T08:51:14.564Z</time>
      </trkpt>
      <trkpt lat="49.50913" lon="-1.40942">
        <ele>91</ele>
        <time>2026-09-03T08:51:15.564Z</time>
      </trkpt>
      <trkpt lat="49.50914" lon="-1.40944">
        <ele>91</ele>
        <time>2026-09-03T08:51:16.567Z</time>
      </trkpt>
      <trkpt lat="49.50916" lon="-1.40945">
        <ele>91</ele>
        <time>2026-09-03T08:51:17.568Z</time>
      </trkpt>
      <trkpt lat="49.50917" lon="-1.40946">
        <ele>91.1</ele>
        <time>2026-09-03T08:51:18.569Z</time>
      </trkpt>
      <trkpt lat="49.50918" lon="-1.40947">
        <ele>91.1</ele>
        <time>2026-09-03T08:51:19.571Z</time>
      </trkpt>
      <trkpt lat="49.50918" lon="-1.40947">
        <ele>91.1</ele>
        <time>2026-09-03T08:51:20.572Z</time>
      </trkpt>
      <trkpt lat="49.50918" lon="-1.40948">
        <ele>91.1</ele>
        <time>2026-09-03T08:51:22.536Z</time>
      </trkpt>
      <trkpt lat="49.50918" lon="-1.40948">
        <ele>91.1</ele>
        <time>2026-09-03T08:51:23.536Z</time>
      </trkpt>
      <trkpt lat="49.50918" lon="-1.40948">
        <ele>91.1</ele>
        <time>2026-09-03T08:51:24.536Z</time>
      </trkpt>
      <trkpt lat="49.50918" lon="-1.40948">
        <ele>91.1</ele>
        <time>2026-09-03T08:51:25.536Z</time>
      </trkpt>
      <trkpt lat="49.50918" lon="-1.40948">
        <ele>91.1</ele>
        <time>2026-09-03T08:51:26.536Z</time>
      </trkpt>
      <trkpt lat="49.50919" lon="-1.40948">
        <ele>91.1</ele>
        <time>2026-09-03T08:51:27.536Z</time>
      </trkpt>
      <trkpt lat="49.50918" lon="-1.40948">
        <ele>91.1</ele>
        <time>2026-09-03T08:51:28.536Z</time>
      </trkpt>
      <trkpt lat="49.50918" lon="-1.40948">
        <ele>91.1</ele>
        <time>2026-09-03T08:51:29.536Z</time>
      </trkpt>
      <trkpt lat="49.50918" lon="-1.40948">
        <ele>91.1</ele>
        <time>2026-09-03T08:51:30.536Z</time>
      </trkpt>
      <trkpt lat="49.50918" lon="-1.40948">
        <ele>91.1</ele>
        <time>2026-09-03T08:51:31.536Z</time>
      </trkpt>
      <trkpt lat="49.50918" lon="-1.40948">
        <ele>91.1</ele>
        <time>2026-09-03T08:51:32.536Z</time>
      </trkpt>
      <trkpt lat="49.50918" lon="-1.40948">
        <ele>91.1</ele>
        <time>2026-09-03T08:51:33.536Z</time>
      </trkpt>
      <trkpt lat="49.50918" lon="-1.40948">
        <ele>91.1</ele>
        <time>2026-09-03T08:51:34.536Z</time>
      </trkpt>
      <trkpt lat="49.50918" lon="-1.40948">
        <ele>91.1</ele>
        <time>2026-09-03T08:51:35.536Z</time>
      </trkpt>
      <trkpt lat="49.50918" lon="-1.40947">
        <ele>91.1</ele>
        <time>2026-09-03T08:51:36.536Z</time>
      </trkpt>
      <trkpt lat="49.50918" lon="-1.40947">
        <ele>91.1</ele>
        <time>2026-09-03T08:51:37.536Z</time>
      </trkpt>
      <trkpt lat="49.50918" lon="-1.40947">
        <ele>91.1</ele>
        <time>2026-09-03T08:51:38.536Z</time>
      </trkpt>
      <trkpt lat="49.50918" lon="-1.40947">
        <ele>91.1</ele>
        <time>2026-09-03T08:51:39.536Z</time>
      </trkpt>
      <trkpt lat="49.50918" lon="-1.40947">
        <ele>91.1</ele>
        <time>2026-09-03T08:51:40.536Z</time>
      </trkpt>
      <trkpt lat="49.50918" lon="-1.40947">
        <ele>91.1</ele>
        <time>2026-09-03T08:51:41.536Z</time>
      </trkpt>
      <trkpt lat="49.50918" lon="-1.40947">
        <ele>91.1</ele>
        <time>2026-09-03T08:51:42.582Z</time>
      </trkpt>
      <trkpt lat="49.50918" lon="-1.40947">
        <ele>91.1</ele>
        <time>2026-09-03T08:51:44.536Z</time>
      </trkpt>
      <trkpt lat="49.50918" lon="-1.40947">
        <ele>91.1</ele>
        <time>2026-09-03T08:51:45.536Z</time>
      </trkpt>
      <trkpt lat="49.50919" lon="-1.40947">
        <ele>91.1</ele>
        <time>2026-09-03T08:51:46.536Z</time>
      </trkpt>
      <trkpt lat="49.50919" lon="-1.40947">
        <ele>91.1</ele>
        <time>2026-09-03T08:51:47.568Z</time>
      </trkpt>
      <trkpt lat="49.50919" lon="-1.40947">
        <ele>91.1</ele>
        <time>2026-09-03T08:51:49.551Z</time>
      </trkpt>
      <trkpt lat="49.50919" lon="-1.40947">
        <ele>91.1</ele>
        <time>2026-09-03T08:51:50.552Z</time>
      </trkpt>
      <trkpt lat="49.50919" lon="-1.40947">
        <ele>91.1</ele>
        <time>2026-09-03T08:51:51.554Z</time>
      </trkpt>
      <trkpt lat="49.50919" lon="-1.40947">
        <ele>91.1</ele>
        <time>2026-09-03T08:51:52.555Z</time>
      </trkpt>
      <trkpt lat="49.50919" lon="-1.40947">
        <ele>91.1</ele>
        <time>2026-09-03T08:51:53.556Z</time>
      </trkpt>
      <trkpt lat="49.50919" lon="-1.40947">
        <ele>91.1</ele>
        <time>2026-09-03T08:51:55.536Z</time>
      </trkpt>
      <trkpt lat="49.50918" lon="-1.40947">
        <ele>91.1</ele>
        <time>2026-09-03T08:51:56.536Z</time>
      </trkpt>
      <trkpt lat="49.50919" lon="-1.40947">
        <ele>91.1</ele>
        <time>2026-09-03T08:51:57.542Z</time>
      </trkpt>
      <trkpt lat="49.50918" lon="-1.40947">
        <ele>91.1</ele>
        <time>2026-09-03T08:51:58.543Z</time>
      </trkpt>
      <trkpt lat="49.50918" lon="-1.40947">
        <ele>91.1</ele>
        <time>2026-09-03T08:51:59.545Z</time>
      </trkpt>
      <trkpt lat="49.50918" lon="-1.40947">
        <ele>91.1</ele>
        <time>2026-09-03T08:52:00.546Z</time>
      </trkpt>
      <trkpt lat="49.50918" lon="-1.40947">
        <ele>91.1</ele>
        <time>2026-09-03T08:52:01.547Z</time>
      </trkpt>
      <trkpt lat="49.50918" lon="-1.40946">
        <ele>91.1</ele>
        <time>2026-09-03T08:52:03.536Z</time>
      </trkpt>
      <trkpt lat="49.50918" lon="-1.40946">
        <ele>91.1</ele>
        <time>2026-09-03T08:52:04.536Z</time>
      </trkpt>
      <trkpt lat="49.50918" lon="-1.40946">
        <ele>91.1</ele>
        <time>2026-09-03T08:52:05.536Z</time>
      </trkpt>
      <trkpt lat="49.50918" lon="-1.40946">
        <ele>91.1</ele>
        <time>2026-09-03T08:52:06.574Z</time>
      </trkpt>
      <trkpt lat="49.50918" lon="-1.40946">
        <ele>91.1</ele>
        <time>2026-09-03T08:52:08.536Z</time>
      </trkpt>
      <trkpt lat="49.50918" lon="-1.40946">
        <ele>91.1</ele>
        <time>2026-09-03T08:52:09.536Z</time>
      </trkpt>
      <trkpt lat="49.50918" lon="-1.40946">
        <ele>91.1</ele>
        <time>2026-09-03T08:52:10.536Z</time>
      </trkpt>
      <trkpt lat="49.50918" lon="-1.40946">
        <ele>91.1</ele>
        <time>2026-09-03T08:52:11.561Z</time>
      </trkpt>
      <trkpt lat="49.50918" lon="-1.40946">
        <ele>91.1</ele>
        <time>2026-09-03T08:52:13.563Z</time>
      </trkpt>
      <trkpt lat="49.50918" lon="-1.40946">
        <ele>91.1</ele>
        <time>2026-09-03T08:52:14.565Z</time>
      </trkpt>
      <trkpt lat="49.50918" lon="-1.40946">
        <ele>91.1</ele>
        <time>2026-09-03T08:52:15.566Z</time>
      </trkpt>
      <trkpt lat="49.50918" lon="-1.40946">
        <ele>91.1</ele>
        <time>2026-09-03T08:52:16.567Z</time>
      </trkpt>
      <trkpt lat="49.50918" lon="-1.40946">
        <ele>91.1</ele>
        <time>2026-09-03T08:52:17.569Z</time>
      </trkpt>
      <trkpt lat="49.50918" lon="-1.40945">
        <ele>91</ele>
        <time>2026-09-03T08:52:19.520Z</time>
      </trkpt>
      <trkpt lat="49.50917" lon="-1.40945">
        <ele>91</ele>
        <time>2026-09-03T08:52:20.573Z</time>
      </trkpt>
      <trkpt lat="49.50916" lon="-1.40944">
        <ele>91</ele>
        <time>2026-09-03T08:52:22.536Z</time>
      </trkpt>
      <trkpt lat="49.50916" lon="-1.40943">
        <ele>91</ele>
        <time>2026-09-03T08:52:23.536Z</time>
      </trkpt>
      <trkpt lat="49.50917" lon="-1.40943">
        <ele>91</ele>
        <time>2026-09-03T08:52:24.536Z</time>
      </trkpt>
      <trkpt lat="49.50916" lon="-1.4094">
        <ele>91</ele>
        <time>2026-09-03T08:52:26.535Z</time>
      </trkpt>
      <trkpt lat="49.50916" lon="-1.40938">
        <ele>91</ele>
        <time>2026-09-03T08:52:27.536Z</time>
      </trkpt>
      <trkpt lat="49.50915" lon="-1.40936">
        <ele>91</ele>
        <time>2026-09-03T08:52:28.536Z</time>
      </trkpt>
      <trkpt lat="49.50914" lon="-1.40936">
        <ele>91</ele>
        <time>2026-09-03T08:52:29.545Z</time>
      </trkpt>
      <trkpt lat="49.50914" lon="-1.40935">
        <ele>91</ele>
        <time>2026-09-03T08:52:30.546Z</time>
      </trkpt>
      <trkpt lat="49.50912" lon="-1.40933">
        <ele>91</ele>
        <time>2026-09-03T08:52:31.548Z</time>
      </trkpt>
      <trkpt lat="49.50911" lon="-1.40932">
        <ele>91</ele>
        <time>2026-09-03T08:52:32.549Z</time>
      </trkpt>
      <trkpt lat="49.50908" lon="-1.40928">
        <ele>91</ele>
        <time>2026-09-03T08:52:34.572Z</time>
      </trkpt>
      <trkpt lat="49.50906" lon="-1.40928">
        <ele>91</ele>
        <time>2026-09-03T08:52:36.536Z</time>
      </trkpt>
      <trkpt lat="49.50906" lon="-1.40929">
        <ele>91</ele>
        <time>2026-09-03T08:52:37.536Z</time>
      </trkpt>
      <trkpt lat="49.50906" lon="-1.4093">
        <ele>91</ele>
        <time>2026-09-03T08:52:38.536Z</time>
      </trkpt>
      <trkpt lat="49.50907" lon="-1.4093">
        <ele>91</ele>
        <time>2026-09-03T08:52:39.536Z</time>
      </trkpt>
      <trkpt lat="49.50907" lon="-1.4093">
        <ele>91</ele>
        <time>2026-09-03T08:52:41.536Z</time>
      </trkpt>
      <trkpt lat="49.50907" lon="-1.40927">
        <ele>91</ele>
        <time>2026-09-03T08:52:43.536Z</time>
      </trkpt>
      <trkpt lat="49.50907" lon="-1.40924">
        <ele>91</ele>
        <time>2026-09-03T08:52:44.536Z</time>
      </trkpt>
      <trkpt lat="49.50906" lon="-1.40922">
        <ele>91</ele>
        <time>2026-09-03T08:52:45.536Z</time>
      </trkpt>
      <trkpt lat="49.50905" lon="-1.4092">
        <ele>91</ele>
        <time>2026-09-03T08:52:46.536Z</time>
      </trkpt>
      <trkpt lat="49.50904" lon="-1.40917">
        <ele>91</ele>
        <time>2026-09-03T08:52:48.420Z</time>
      </trkpt>
      <trkpt lat="49.50903" lon="-1.40915">
        <ele>91</ele>
        <time>2026-09-03T08:52:49.492Z</time>
      </trkpt>
      <trkpt lat="49.50902" lon="-1.40914">
        <ele>91</ele>
        <time>2026-09-03T08:52:50.553Z</time>
      </trkpt>
      <trkpt lat="49.50901" lon="-1.40913">
        <ele>91</ele>
        <time>2026-09-03T08:52:51.575Z</time>
      </trkpt>
      <trkpt lat="49.50898" lon="-1.40912">
        <ele>91</ele>
        <time>2026-09-03T08:52:53.536Z</time>
      </trkpt>
      <trkpt lat="49.50896" lon="-1.40911">
        <ele>91</ele>
        <time>2026-09-03T08:52:54.536Z</time>
      </trkpt>
      <trkpt lat="49.50895" lon="-1.40911">
        <ele>91</ele>
        <time>2026-09-03T08:52:55.536Z</time>
      </trkpt>
      <trkpt lat="49.50893" lon="-1.4091">
        <ele>91</ele>
        <time>2026-09-03T08:52:56.536Z</time>
      </trkpt>
      <trkpt lat="49.50892" lon="-1.40909">
        <ele>91</ele>
        <time>2026-09-03T08:52:57.603Z</time>
      </trkpt>
      <trkpt lat="49.50889" lon="-1.40908">
        <ele>91</ele>
        <time>2026-09-03T08:52:59.515Z</time>
      </trkpt>
      <trkpt lat="49.50887" lon="-1.40907">
        <ele>90.9</ele>
        <time>2026-09-03T08:53:00.557Z</time>
      </trkpt>
      <trkpt lat="49.50886" lon="-1.40907">
        <ele>90.9</ele>
        <time>2026-09-03T08:53:01.558Z</time>
      </trkpt>
      <trkpt lat="49.50884" lon="-1.40905">
        <ele>90.8</ele>
        <time>2026-09-03T08:53:03.551Z</time>
      </trkpt>
      <trkpt lat="49.50881" lon="-1.40903">
        <ele>90.7</ele>
        <time>2026-09-03T08:53:05.594Z</time>
      </trkpt>
      <trkpt lat="49.50878" lon="-1.409">
        <ele>90.6</ele>
        <time>2026-09-03T08:53:07.536Z</time>
      </trkpt>
      <trkpt lat="49.50877" lon="-1.40899">
        <ele>90.6</ele>
        <time>2026-09-03T08:53:08.536Z</time>
      </trkpt>
      <trkpt lat="49.50876" lon="-1.40898">
        <ele>90.5</ele>
        <time>2026-09-03T08:53:09.536Z</time>
      </trkpt>
      <trkpt lat="49.50875" lon="-1.40897">
        <ele>90.5</ele>
        <time>2026-09-03T08:53:10.536Z</time>
      </trkpt>
      <trkpt lat="49.50874" lon="-1.40895">
        <ele>90.5</ele>
        <time>2026-09-03T08:53:11.562Z</time>
      </trkpt>
      <trkpt lat="49.50872" lon="-1.40893">
        <ele>90.4</ele>
        <time>2026-09-03T08:53:13.494Z</time>
      </trkpt>
      <trkpt lat="49.50871" lon="-1.40892">
        <ele>90.4</ele>
        <time>2026-09-03T08:53:14.496Z</time>
      </trkpt>
      <trkpt lat="49.5087" lon="-1.4089">
        <ele>90.3</ele>
        <time>2026-09-03T08:53:15.557Z</time>
      </trkpt>
      <trkpt lat="49.50869" lon="-1.40887">
        <ele>90.3</ele>
        <time>2026-09-03T08:53:17.536Z</time>
      </trkpt>
      <trkpt lat="49.50867" lon="-1.40885">
        <ele>90.2</ele>
        <time>2026-09-03T08:53:18.536Z</time>
      </trkpt>
      <trkpt lat="49.50866" lon="-1.40883">
        <ele>90.1</ele>
        <time>2026-09-03T08:53:19.536Z</time>
      </trkpt>
      <trkpt lat="49.50865" lon="-1.4088">
        <ele>90.1</ele>
        <time>2026-09-03T08:53:21.535Z</time>
      </trkpt>
      <trkpt lat="49.50864" lon="-1.40878">
        <ele>90.1</ele>
        <time>2026-09-03T08:53:22.577Z</time>
      </trkpt>
      <trkpt lat="49.50862" lon="-1.40876">
        <ele>90</ele>
        <time>2026-09-03T08:53:24.559Z</time>
      </trkpt>
      <trkpt lat="49.50861" lon="-1.40874">
        <ele>90</ele>
        <time>2026-09-03T08:53:26.542Z</time>
      </trkpt>
      <trkpt lat="49.5086" lon="-1.40873">
        <ele>89.9</ele>
        <time>2026-09-03T08:53:27.543Z</time>
      </trkpt>
      <trkpt lat="49.50859" lon="-1.40872">
        <ele>89.8</ele>
        <time>2026-09-03T08:53:28.545Z</time>
      </trkpt>
      <trkpt lat="49.50858" lon="-1.4087">
        <ele>89.8</ele>
        <time>2026-09-03T08:53:29.546Z</time>
      </trkpt>
      <trkpt lat="49.50859" lon="-1.40869">
        <ele>89.8</ele>
        <time>2026-09-03T08:53:30.547Z</time>
      </trkpt>
      <trkpt lat="49.50859" lon="-1.40867">
        <ele>89.8</ele>
        <time>2026-09-03T08:53:32.550Z</time>
      </trkpt>
      <trkpt lat="49.50859" lon="-1.40865">
        <ele>89.8</ele>
        <time>2026-09-03T08:53:33.552Z</time>
      </trkpt>
      <trkpt lat="49.50858" lon="-1.40864">
        <ele>89.8</ele>
        <time>2026-09-03T08:53:34.553Z</time>
      </trkpt>
      <trkpt lat="49.50857" lon="-1.40862">
        <ele>89.7</ele>
        <time>2026-09-03T08:53:35.554Z</time>
      </trkpt>
      <trkpt lat="49.50856" lon="-1.4086">
        <ele>89.6</ele>
        <time>2026-09-03T08:53:36.556Z</time>
      </trkpt>
      <trkpt lat="49.50854" lon="-1.40857">
        <ele>89.5</ele>
        <time>2026-09-03T08:53:38.498Z</time>
      </trkpt>
      <trkpt lat="49.50853" lon="-1.40856">
        <ele>89.4</ele>
        <time>2026-09-03T08:53:39.536Z</time>
      </trkpt>
      <trkpt lat="49.50852" lon="-1.40855">
        <ele>89.3</ele>
        <time>2026-09-03T08:53:40.561Z</time>
      </trkpt>
      <trkpt lat="49.50851" lon="-1.40855">
        <ele>89.3</ele>
        <time>2026-09-03T08:53:41.562Z</time>
      </trkpt>
      <trkpt lat="49.50849" lon="-1.40853">
        <ele>89.1</ele>
        <time>2026-09-03T08:53:42.564Z</time>
      </trkpt>
      <trkpt lat="49.50847" lon="-1.40852">
        <ele>89</ele>
        <time>2026-09-03T08:53:43.565Z</time>
      </trkpt>
      <trkpt lat="49.50845" lon="-1.40851">
        <ele>88.8</ele>
        <time>2026-09-03T08:53:45.558Z</time>
      </trkpt>
      <trkpt lat="49.50843" lon="-1.4085">
        <ele>88.7</ele>
        <time>2026-09-03T08:53:46.559Z</time>
      </trkpt>
      <trkpt lat="49.50841" lon="-1.40849">
        <ele>88.6</ele>
        <time>2026-09-03T08:53:48.572Z</time>
      </trkpt>
      <trkpt lat="49.50839" lon="-1.40848">
        <ele>88.4</ele>
        <time>2026-09-03T08:53:49.573Z</time>
      </trkpt>
      <trkpt lat="49.50837" lon="-1.40846">
        <ele>88.3</ele>
        <time>2026-09-03T08:53:51.536Z</time>
      </trkpt>
      <trkpt lat="49.50836" lon="-1.40845">
        <ele>88.2</ele>
        <time>2026-09-03T08:53:52.577Z</time>
      </trkpt>
      <trkpt lat="49.50834" lon="-1.40844">
        <ele>88</ele>
        <time>2026-09-03T08:53:54.480Z</time>
      </trkpt>
      <trkpt lat="49.50833" lon="-1.40842">
        <ele>88</ele>
        <time>2026-09-03T08:53:55.536Z</time>
      </trkpt>
      <trkpt lat="49.50833" lon="-1.40841">
        <ele>88</ele>
        <time>2026-09-03T08:53:56.536Z</time>
      </trkpt>
      <trkpt lat="49.50832" lon="-1.40839">
        <ele>87.9</ele>
        <time>2026-09-03T08:53:57.536Z</time>
      </trkpt>
      <trkpt lat="49.50832" lon="-1.40837">
        <ele>87.9</ele>
        <time>2026-09-03T08:53:58.536Z</time>
      </trkpt>
      <trkpt lat="49.50831" lon="-1.40835">
        <ele>87.8</ele>
        <time>2026-09-03T08:53:59.536Z</time>
      </trkpt>
      <trkpt lat="49.5083" lon="-1.40834">
        <ele>87.8</ele>
        <time>2026-09-03T08:54:00.536Z</time>
      </trkpt>
      <trkpt lat="49.50829" lon="-1.40832">
        <ele>87.7</ele>
        <time>2026-09-03T08:54:01.536Z</time>
      </trkpt>
      <trkpt lat="49.50829" lon="-1.40831">
        <ele>87.7</ele>
        <time>2026-09-03T08:54:02.536Z</time>
      </trkpt>
      <trkpt lat="49.50828" lon="-1.40829">
        <ele>87.6</ele>
        <time>2026-09-03T08:54:03.536Z</time>
      </trkpt>
      <trkpt lat="49.50827" lon="-1.40828">
        <ele>87.5</ele>
        <time>2026-09-03T08:54:04.536Z</time>
      </trkpt>
      <trkpt lat="49.50825" lon="-1.40825">
        <ele>87.3</ele>
        <time>2026-09-03T08:54:06.516Z</time>
      </trkpt>
      <trkpt lat="49.50824" lon="-1.40824">
        <ele>87.2</ele>
        <time>2026-09-03T08:54:07.558Z</time>
      </trkpt>
      <trkpt lat="49.50822" lon="-1.40822">
        <ele>87</ele>
        <time>2026-09-03T08:54:09.536Z</time>
      </trkpt>
      <trkpt lat="49.50821" lon="-1.40821">
        <ele>86.9</ele>
        <time>2026-09-03T08:54:10.536Z</time>
      </trkpt>
      <trkpt lat="49.50819" lon="-1.4082">
        <ele>86.7</ele>
        <time>2026-09-03T08:54:11.536Z</time>
      </trkpt>
      <trkpt lat="49.50818" lon="-1.40819">
        <ele>86.6</ele>
        <time>2026-09-03T08:54:12.536Z</time>
      </trkpt>
      <trkpt lat="49.50817" lon="-1.40819">
        <ele>86.5</ele>
        <time>2026-09-03T08:54:13.536Z</time>
      </trkpt>
      <trkpt lat="49.50816" lon="-1.40817">
        <ele>86.4</ele>
        <time>2026-09-03T08:54:14.536Z</time>
      </trkpt>
      <trkpt lat="49.50815" lon="-1.40816">
        <ele>86.3</ele>
        <time>2026-09-03T08:54:15.536Z</time>
      </trkpt>
      <trkpt lat="49.50814" lon="-1.40815">
        <ele>86.1</ele>
        <time>2026-09-03T08:54:16.536Z</time>
      </trkpt>
      <trkpt lat="49.50812" lon="-1.40813">
        <ele>85.9</ele>
        <time>2026-09-03T08:54:18.493Z</time>
      </trkpt>
      <trkpt lat="49.50809" lon="-1.40812">
        <ele>85.6</ele>
        <time>2026-09-03T08:54:20.516Z</time>
      </trkpt>
      <trkpt lat="49.50808" lon="-1.4081">
        <ele>85.4</ele>
        <time>2026-09-03T08:54:21.536Z</time>
      </trkpt>
      <trkpt lat="49.50808" lon="-1.40808">
        <ele>85.3</ele>
        <time>2026-09-03T08:54:22.536Z</time>
      </trkpt>
      <trkpt lat="49.50807" lon="-1.40806">
        <ele>85.2</ele>
        <time>2026-09-03T08:54:23.536Z</time>
      </trkpt>
      <trkpt lat="49.50806" lon="-1.40804">
        <ele>85</ele>
        <time>2026-09-03T08:54:24.536Z</time>
      </trkpt>
      <trkpt lat="49.50804" lon="-1.40802">
        <ele>84.9</ele>
        <time>2026-09-03T08:54:26.555Z</time>
      </trkpt>
      <trkpt lat="49.50802" lon="-1.40801">
        <ele>84.7</ele>
        <time>2026-09-03T08:54:28.536Z</time>
      </trkpt>
      <trkpt lat="49.50801" lon="-1.408">
        <ele>84.7</ele>
        <time>2026-09-03T08:54:29.536Z</time>
      </trkpt>
      <trkpt lat="49.508" lon="-1.40798">
        <ele>84.6</ele>
        <time>2026-09-03T08:54:30.536Z</time>
      </trkpt>
      <trkpt lat="49.50799" lon="-1.40797">
        <ele>84.5</ele>
        <time>2026-09-03T08:54:31.536Z</time>
      </trkpt>
      <trkpt lat="49.50798" lon="-1.40796">
        <ele>84.5</ele>
        <time>2026-09-03T08:54:32.536Z</time>
      </trkpt>
      <trkpt lat="49.50797" lon="-1.40794">
        <ele>84.4</ele>
        <time>2026-09-03T08:54:33.536Z</time>
      </trkpt>
      <trkpt lat="49.50796" lon="-1.40793">
        <ele>84.3</ele>
        <time>2026-09-03T08:54:34.536Z</time>
      </trkpt>
      <trkpt lat="49.50795" lon="-1.40792">
        <ele>84.2</ele>
        <time>2026-09-03T08:54:35.578Z</time>
      </trkpt>
      <trkpt lat="49.50793" lon="-1.4079">
        <ele>84.1</ele>
        <time>2026-09-03T08:54:37.580Z</time>
      </trkpt>
      <trkpt lat="49.50791" lon="-1.40788">
        <ele>84</ele>
        <time>2026-09-03T08:54:39.513Z</time>
      </trkpt>
      <trkpt lat="49.5079" lon="-1.40787">
        <ele>83.9</ele>
        <time>2026-09-03T08:54:40.554Z</time>
      </trkpt>
      <trkpt lat="49.50788" lon="-1.40784">
        <ele>83.7</ele>
        <time>2026-09-03T08:54:42.599Z</time>
      </trkpt>
      <trkpt lat="49.50787" lon="-1.40783">
        <ele>83.7</ele>
        <time>2026-09-03T08:54:43.599Z</time>
      </trkpt>
      <trkpt lat="49.50786" lon="-1.40779">
        <ele>83.6</ele>
        <time>2026-09-03T08:54:45.536Z</time>
      </trkpt>
      <trkpt lat="49.50784" lon="-1.40776">
        <ele>83.4</ele>
        <time>2026-09-03T08:54:47.536Z</time>
      </trkpt>
      <trkpt lat="49.50783" lon="-1.40775">
        <ele>83.4</ele>
        <time>2026-09-03T08:54:48.536Z</time>
      </trkpt>
      <trkpt lat="49.50782" lon="-1.40773">
        <ele>83.3</ele>
        <time>2026-09-03T08:54:49.536Z</time>
      </trkpt>
      <trkpt lat="49.50781" lon="-1.40771">
        <ele>83.2</ele>
        <time>2026-09-03T08:54:50.536Z</time>
      </trkpt>
      <trkpt lat="49.5078" lon="-1.4077">
        <ele>83.1</ele>
        <time>2026-09-03T08:54:51.536Z</time>
      </trkpt>
      <trkpt lat="49.5078" lon="-1.40769">
        <ele>83.1</ele>
        <time>2026-09-03T08:54:52.536Z</time>
      </trkpt>
      <trkpt lat="49.50779" lon="-1.40767">
        <ele>83.1</ele>
        <time>2026-09-03T08:54:53.562Z</time>
      </trkpt>
      <trkpt lat="49.50778" lon="-1.40766">
        <ele>83</ele>
        <time>2026-09-03T08:54:54.564Z</time>
      </trkpt>
      <trkpt lat="49.50777" lon="-1.40764">
        <ele>83</ele>
        <time>2026-09-03T08:54:55.565Z</time>
      </trkpt>
      <trkpt lat="49.50776" lon="-1.40763">
        <ele>82.9</ele>
        <time>2026-09-03T08:54:56.566Z</time>
      </trkpt>
      <trkpt lat="49.50775" lon="-1.40763">
        <ele>82.9</ele>
        <time>2026-09-03T08:54:57.568Z</time>
      </trkpt>
      <trkpt lat="49.50774" lon="-1.40762">
        <ele>82.9</ele>
        <time>2026-09-03T08:54:58.569Z</time>
      </trkpt>
      <trkpt lat="49.50773" lon="-1.4076">
        <ele>82.8</ele>
        <time>2026-09-03T08:55:00.572Z</time>
      </trkpt>
      <trkpt lat="49.50771" lon="-1.40758">
        <ele>82.8</ele>
        <time>2026-09-03T08:55:02.536Z</time>
      </trkpt>
      <trkpt lat="49.50771" lon="-1.40757">
        <ele>82.8</ele>
        <time>2026-09-03T08:55:03.536Z</time>
      </trkpt>
      <trkpt lat="49.5077" lon="-1.40756">
        <ele>82.7</ele>
        <time>2026-09-03T08:55:04.536Z</time>
      </trkpt>
      <trkpt lat="49.50767" lon="-1.40754">
        <ele>82.6</ele>
        <time>2026-09-03T08:55:06.600Z</time>
      </trkpt>
      <trkpt lat="49.50765" lon="-1.40752">
        <ele>82.5</ele>
        <time>2026-09-03T08:55:08.563Z</time>
      </trkpt>
      <trkpt lat="49.50763" lon="-1.40749">
        <ele>82.5</ele>
        <time>2026-09-03T08:55:10.566Z</time>
      </trkpt>
      <trkpt lat="49.50762" lon="-1.40749">
        <ele>82.4</ele>
        <time>2026-09-03T08:55:11.567Z</time>
      </trkpt>
      <trkpt lat="49.50761" lon="-1.40747">
        <ele>82.4</ele>
        <time>2026-09-03T08:55:12.568Z</time>
      </trkpt>
      <trkpt lat="49.5076" lon="-1.40746">
        <ele>82.3</ele>
        <time>2026-09-03T08:55:13.570Z</time>
      </trkpt>
      <trkpt lat="49.50759" lon="-1.40745">
        <ele>82.3</ele>
        <time>2026-09-03T08:55:14.571Z</time>
      </trkpt>
      <trkpt lat="49.50759" lon="-1.40744">
        <ele>82.3</ele>
        <time>2026-09-03T08:55:15.572Z</time>
      </trkpt>
      <trkpt lat="49.50758" lon="-1.40743">
        <ele>82.2</ele>
        <time>2026-09-03T08:55:16.574Z</time>
      </trkpt>
      <trkpt lat="49.50757" lon="-1.40742">
        <ele>82.2</ele>
        <time>2026-09-03T08:55:17.575Z</time>
      </trkpt>
      <trkpt lat="49.50756" lon="-1.4074">
        <ele>82.1</ele>
        <time>2026-09-03T08:55:18.577Z</time>
      </trkpt>
      <trkpt lat="49.50755" lon="-1.40738">
        <ele>82.1</ele>
        <time>2026-09-03T08:55:20.536Z</time>
      </trkpt>
      <trkpt lat="49.50755" lon="-1.40736">
        <ele>82.1</ele>
        <time>2026-09-03T08:55:21.536Z</time>
      </trkpt>
      <trkpt lat="49.50753" lon="-1.40736">
        <ele>82.1</ele>
        <time>2026-09-03T08:55:22.536Z</time>
      </trkpt>
      <trkpt lat="49.50752" lon="-1.40735">
        <ele>82</ele>
        <time>2026-09-03T08:55:23.563Z</time>
      </trkpt>
      <trkpt lat="49.50751" lon="-1.40735">
        <ele>82</ele>
        <time>2026-09-03T08:55:24.565Z</time>
      </trkpt>
      <trkpt lat="49.5075" lon="-1.40734">
        <ele>82</ele>
        <time>2026-09-03T08:55:26.536Z</time>
      </trkpt>
      <trkpt lat="49.5075" lon="-1.40734">
        <ele>82</ele>
        <time>2026-09-03T08:55:27.536Z</time>
      </trkpt>
      <trkpt lat="49.50749" lon="-1.40735">
        <ele>82</ele>
        <time>2026-09-03T08:55:29.421Z</time>
      </trkpt>
      <trkpt lat="49.50748" lon="-1.40734">
        <ele>81.9</ele>
        <time>2026-09-03T08:55:30.433Z</time>
      </trkpt>
      <trkpt lat="49.50746" lon="-1.40732">
        <ele>81.9</ele>
        <time>2026-09-03T08:55:31.454Z</time>
      </trkpt>
      <trkpt lat="49.50745" lon="-1.40731">
        <ele>81.8</ele>
        <time>2026-09-03T08:55:32.536Z</time>
      </trkpt>
      <trkpt lat="49.50743" lon="-1.40728">
        <ele>81.7</ele>
        <time>2026-09-03T08:55:34.558Z</time>
      </trkpt>
      <trkpt lat="49.50742" lon="-1.40727">
        <ele>81.7</ele>
        <time>2026-09-03T08:55:35.600Z</time>
      </trkpt>
      <trkpt lat="49.5074" lon="-1.40724">
        <ele>81.6</ele>
        <time>2026-09-03T08:55:37.536Z</time>
      </trkpt>
      <trkpt lat="49.50737" lon="-1.40721">
        <ele>81.5</ele>
        <time>2026-09-03T08:55:39.475Z</time>
      </trkpt>
      <trkpt lat="49.50736" lon="-1.4072">
        <ele>81.5</ele>
        <time>2026-09-03T08:55:40.516Z</time>
      </trkpt>
      <trkpt lat="49.50736" lon="-1.40718">
        <ele>81.4</ele>
        <time>2026-09-03T08:55:41.538Z</time>
      </trkpt>
      <trkpt lat="49.50736" lon="-1.40716">
        <ele>81.4</ele>
        <time>2026-09-03T08:55:42.559Z</time>
      </trkpt>
      <trkpt lat="49.50735" lon="-1.40715">
        <ele>81.3</ele>
        <time>2026-09-03T08:55:43.571Z</time>
      </trkpt>
      <trkpt lat="49.50735" lon="-1.40713">
        <ele>81.3</ele>
        <time>2026-09-03T08:55:44.572Z</time>
      </trkpt>
      <trkpt lat="49.50734" lon="-1.40712">
        <ele>81.3</ele>
        <time>2026-09-03T08:55:45.573Z</time>
      </trkpt>
      <trkpt lat="49.50733" lon="-1.4071">
        <ele>81.2</ele>
        <time>2026-09-03T08:55:46.575Z</time>
      </trkpt>
      <trkpt lat="49.50731" lon="-1.40708">
        <ele>81.2</ele>
        <time>2026-09-03T08:55:48.577Z</time>
      </trkpt>
      <trkpt lat="49.50728" lon="-1.40706">
        <ele>81.1</ele>
        <time>2026-09-03T08:55:50.536Z</time>
      </trkpt>
      <trkpt lat="49.50727" lon="-1.40705">
        <ele>81.1</ele>
        <time>2026-09-03T08:55:51.536Z</time>
      </trkpt>
      <trkpt lat="49.50726" lon="-1.40703">
        <ele>81</ele>
        <time>2026-09-03T08:55:52.536Z</time>
      </trkpt>
      <trkpt lat="49.50724" lon="-1.40702">
        <ele>81</ele>
        <time>2026-09-03T08:55:53.536Z</time>
      </trkpt>
      <trkpt lat="49.50723" lon="-1.40701">
        <ele>81</ele>
        <time>2026-09-03T08:55:54.536Z</time>
      </trkpt>
      <trkpt lat="49.50722" lon="-1.40699">
        <ele>81</ele>
        <time>2026-09-03T08:55:55.536Z</time>
      </trkpt>
      <trkpt lat="49.50721" lon="-1.40698">
        <ele>81</ele>
        <time>2026-09-03T08:55:56.599Z</time>
      </trkpt>
      <trkpt lat="49.50718" lon="-1.40696">
        <ele>80.8</ele>
        <time>2026-09-03T08:55:58.571Z</time>
      </trkpt>
      <trkpt lat="49.50717" lon="-1.40695">
        <ele>80.8</ele>
        <time>2026-09-03T08:55:59.572Z</time>
      </trkpt>
      <trkpt lat="49.50714" lon="-1.40693">
        <ele>80.7</ele>
        <time>2026-09-03T08:56:01.575Z</time>
      </trkpt>
      <trkpt lat="49.50712" lon="-1.4069">
        <ele>80.6</ele>
        <time>2026-09-03T08:56:03.558Z</time>
      </trkpt>
      <trkpt lat="49.50711" lon="-1.40689">
        <ele>80.6</ele>
        <time>2026-09-03T08:56:04.599Z</time>
      </trkpt>
      <trkpt lat="49.5071" lon="-1.40686">
        <ele>80.6</ele>
        <time>2026-09-03T08:56:06.536Z</time>
      </trkpt>
      <trkpt lat="49.50708" lon="-1.40685">
        <ele>80.5</ele>
        <time>2026-09-03T08:56:07.536Z</time>
      </trkpt>
      <trkpt lat="49.50707" lon="-1.40684">
        <ele>80.5</ele>
        <time>2026-09-03T08:56:08.536Z</time>
      </trkpt>
      <trkpt lat="49.50706" lon="-1.40683">
        <ele>80.4</ele>
        <time>2026-09-03T08:56:09.536Z</time>
      </trkpt>
      <trkpt lat="49.50705" lon="-1.40681">
        <ele>80.4</ele>
        <time>2026-09-03T08:56:10.536Z</time>
      </trkpt>
      <trkpt lat="49.50704" lon="-1.40678">
        <ele>80.3</ele>
        <time>2026-09-03T08:56:12.480Z</time>
      </trkpt>
      <trkpt lat="49.50703" lon="-1.40676">
        <ele>80.3</ele>
        <time>2026-09-03T08:56:13.521Z</time>
      </trkpt>
      <trkpt lat="49.50702" lon="-1.40675">
        <ele>80.3</ele>
        <time>2026-09-03T08:56:14.573Z</time>
      </trkpt>
      <trkpt lat="49.507" lon="-1.40673">
        <ele>80.2</ele>
        <time>2026-09-03T08:56:16.536Z</time>
      </trkpt>
      <trkpt lat="49.50697" lon="-1.40671">
        <ele>80.1</ele>
        <time>2026-09-03T08:56:18.518Z</time>
      </trkpt>
      <trkpt lat="49.50696" lon="-1.4067">
        <ele>80.1</ele>
        <time>2026-09-03T08:56:19.580Z</time>
      </trkpt>
      <trkpt lat="49.50695" lon="-1.40668">
        <ele>80</ele>
        <time>2026-09-03T08:56:21.582Z</time>
      </trkpt>
      <trkpt lat="49.50693" lon="-1.40665">
        <ele>79.9</ele>
        <time>2026-09-03T08:56:23.536Z</time>
      </trkpt>
      <trkpt lat="49.50692" lon="-1.40664">
        <ele>79.9</ele>
        <time>2026-09-03T08:56:24.536Z</time>
      </trkpt>
      <trkpt lat="49.50691" lon="-1.40662">
        <ele>79.9</ele>
        <time>2026-09-03T08:56:25.536Z</time>
      </trkpt>
      <trkpt lat="49.5069" lon="-1.4066">
        <ele>79.8</ele>
        <time>2026-09-03T08:56:26.536Z</time>
      </trkpt>
      <trkpt lat="49.50689" lon="-1.40658">
        <ele>79.8</ele>
        <time>2026-09-03T08:56:27.570Z</time>
      </trkpt>
      <trkpt lat="49.50689" lon="-1.40657">
        <ele>79.8</ele>
        <time>2026-09-03T08:56:28.599Z</time>
      </trkpt>
      <trkpt lat="49.50687" lon="-1.40656">
        <ele>79.7</ele>
        <time>2026-09-03T08:56:30.554Z</time>
      </trkpt>
      <trkpt lat="49.50685" lon="-1.40654">
        <ele>79.7</ele>
        <time>2026-09-03T08:56:32.536Z</time>
      </trkpt>
      <trkpt lat="49.50683" lon="-1.40652">
        <ele>79.6</ele>
        <time>2026-09-03T08:56:33.599Z</time>
      </trkpt>
      <trkpt lat="49.50681" lon="-1.4065">
        <ele>79.5</ele>
        <time>2026-09-03T08:56:35.441Z</time>
      </trkpt>
      <trkpt lat="49.5068" lon="-1.40648">
        <ele>79.5</ele>
        <time>2026-09-03T08:56:36.533Z</time>
      </trkpt>
      <trkpt lat="49.50679" lon="-1.40647">
        <ele>79.4</ele>
        <time>2026-09-03T08:56:37.574Z</time>
      </trkpt>
      <trkpt lat="49.50678" lon="-1.40645">
        <ele>79.4</ele>
        <time>2026-09-03T08:56:38.595Z</time>
      </trkpt>
      <trkpt lat="49.50676" lon="-1.40643">
        <ele>79.3</ele>
        <time>2026-09-03T08:56:40.536Z</time>
      </trkpt>
      <trkpt lat="49.50675" lon="-1.40642">
        <ele>79.3</ele>
        <time>2026-09-03T08:56:41.536Z</time>
      </trkpt>
      <trkpt lat="49.50674" lon="-1.4064">
        <ele>79.3</ele>
        <time>2026-09-03T08:56:42.536Z</time>
      </trkpt>
      <trkpt lat="49.50673" lon="-1.40639">
        <ele>79.2</ele>
        <time>2026-09-03T08:56:43.536Z</time>
      </trkpt>
      <trkpt lat="49.50672" lon="-1.40638">
        <ele>79.2</ele>
        <time>2026-09-03T08:56:44.573Z</time>
      </trkpt>
      <trkpt lat="49.50669" lon="-1.40637">
        <ele>79.1</ele>
        <time>2026-09-03T08:56:46.536Z</time>
      </trkpt>
      <trkpt lat="49.50668" lon="-1.40637">
        <ele>79</ele>
        <time>2026-09-03T08:56:47.536Z</time>
      </trkpt>
      <trkpt lat="49.50667" lon="-1.40638">
        <ele>79</ele>
        <time>2026-09-03T08:56:48.536Z</time>
      </trkpt>
      <trkpt lat="49.50666" lon="-1.40639">
        <ele>79</ele>
        <time>2026-09-03T08:56:49.536Z</time>
      </trkpt>
      <trkpt lat="49.50666" lon="-1.40641">
        <ele>79</ele>
        <time>2026-09-03T08:56:50.536Z</time>
      </trkpt>
      <trkpt lat="49.50666" lon="-1.40643">
        <ele>79</ele>
        <time>2026-09-03T08:56:51.536Z</time>
      </trkpt>
      <trkpt lat="49.50667" lon="-1.40645">
        <ele>79</ele>
        <time>2026-09-03T08:56:52.536Z</time>
      </trkpt>
      <trkpt lat="49.50667" lon="-1.40646">
        <ele>79</ele>
        <time>2026-09-03T08:56:53.536Z</time>
      </trkpt>
      <trkpt lat="49.50668" lon="-1.40648">
        <ele>79</ele>
        <time>2026-09-03T08:56:55.536Z</time>
      </trkpt>
      <trkpt lat="49.50669" lon="-1.40649">
        <ele>79.1</ele>
        <time>2026-09-03T08:56:56.536Z</time>
      </trkpt>
      <trkpt lat="49.50669" lon="-1.4065">
        <ele>79.1</ele>
        <time>2026-09-03T08:56:57.541Z</time>
      </trkpt>
      <trkpt lat="49.5067" lon="-1.4065">
        <ele>79.1</ele>
        <time>2026-09-03T08:56:59.536Z</time>
      </trkpt>
      <trkpt lat="49.50671" lon="-1.40651">
        <ele>79.2</ele>
        <time>2026-09-03T08:57:00.536Z</time>
      </trkpt>
      <trkpt lat="49.50671" lon="-1.40652">
        <ele>79.2</ele>
        <time>2026-09-03T08:57:01.536Z</time>
      </trkpt>
      <trkpt lat="49.50671" lon="-1.40653">
        <ele>79.2</ele>
        <time>2026-09-03T08:57:02.536Z</time>
      </trkpt>
      <trkpt lat="49.50671" lon="-1.40653">
        <ele>79.2</ele>
        <time>2026-09-03T08:57:03.536Z</time>
      </trkpt>
      <trkpt lat="49.50671" lon="-1.40654">
        <ele>79.2</ele>
        <time>2026-09-03T08:57:04.536Z</time>
      </trkpt>
      <trkpt lat="49.50671" lon="-1.40656">
        <ele>79.2</ele>
        <time>2026-09-03T08:57:06.536Z</time>
      </trkpt>
      <trkpt lat="49.50668" lon="-1.40653">
        <ele>79</ele>
        <time>2026-09-03T08:57:08.536Z</time>
      </trkpt>
      <trkpt lat="49.50667" lon="-1.4065">
        <ele>79</ele>
        <time>2026-09-03T08:57:09.577Z</time>
      </trkpt>
      <trkpt lat="49.50666" lon="-1.40646">
        <ele>79</ele>
        <time>2026-09-03T08:57:11.536Z</time>
      </trkpt>
      <trkpt lat="49.50665" lon="-1.40644">
        <ele>78.9</ele>
        <time>2026-09-03T08:57:12.536Z</time>
      </trkpt>
      <trkpt lat="49.50663" lon="-1.40644">
        <ele>78.9</ele>
        <time>2026-09-03T08:57:13.536Z</time>
      </trkpt>
      <trkpt lat="49.50662" lon="-1.40646">
        <ele>78.8</ele>
        <time>2026-09-03T08:57:14.536Z</time>
      </trkpt>
      <trkpt lat="49.5066" lon="-1.40648">
        <ele>78.8</ele>
        <time>2026-09-03T08:57:15.536Z</time>
      </trkpt>
      <trkpt lat="49.50658" lon="-1.40646">
        <ele>78.7</ele>
        <time>2026-09-03T08:57:16.537Z</time>
      </trkpt>
      <trkpt lat="49.50656" lon="-1.40643">
        <ele>78.6</ele>
        <time>2026-09-03T08:57:17.538Z</time>
      </trkpt>
      <trkpt lat="49.50655" lon="-1.40641">
        <ele>78.6</ele>
        <time>2026-09-03T08:57:18.540Z</time>
      </trkpt>
      <trkpt lat="49.50653" lon="-1.40636">
        <ele>78.5</ele>
        <time>2026-09-03T08:57:20.582Z</time>
      </trkpt>
      <trkpt lat="49.50652" lon="-1.40632">
        <ele>78.5</ele>
        <time>2026-09-03T08:57:22.475Z</time>
      </trkpt>
      <trkpt lat="49.50651" lon="-1.4063">
        <ele>78.4</ele>
        <time>2026-09-03T08:57:23.496Z</time>
      </trkpt>
      <trkpt lat="49.5065" lon="-1.40628">
        <ele>78.4</ele>
        <time>2026-09-03T08:57:24.498Z</time>
      </trkpt>
      <trkpt lat="49.50649" lon="-1.40626">
        <ele>78.4</ele>
        <time>2026-09-03T08:57:25.559Z</time>
      </trkpt>
      <trkpt lat="49.50648" lon="-1.40624">
        <ele>78.3</ele>
        <time>2026-09-03T08:57:26.581Z</time>
      </trkpt>
      <trkpt lat="49.50647" lon="-1.40622">
        <ele>78.3</ele>
        <time>2026-09-03T08:57:27.592Z</time>
      </trkpt>
      <trkpt lat="49.50644" lon="-1.40618">
        <ele>78.2</ele>
        <time>2026-09-03T08:57:29.536Z</time>
      </trkpt>
      <trkpt lat="49.50642" lon="-1.40616">
        <ele>78.1</ele>
        <time>2026-09-03T08:57:30.536Z</time>
      </trkpt>
      <trkpt lat="49.50642" lon="-1.40614">
        <ele>78.1</ele>
        <time>2026-09-03T08:57:31.536Z</time>
      </trkpt>
      <trkpt lat="49.50639" lon="-1.40609">
        <ele>78</ele>
        <time>2026-09-03T08:57:33.536Z</time>
      </trkpt>
      <trkpt lat="49.50638" lon="-1.40604">
        <ele>78</ele>
        <time>2026-09-03T08:57:35.536Z</time>
      </trkpt>
      <trkpt lat="49.50636" lon="-1.406">
        <ele>77.9</ele>
        <time>2026-09-03T08:57:37.556Z</time>
      </trkpt>
      <trkpt lat="49.50636" lon="-1.40597">
        <ele>77.9</ele>
        <time>2026-09-03T08:57:38.567Z</time>
      </trkpt>
      <trkpt lat="49.50636" lon="-1.40595">
        <ele>77.9</ele>
        <time>2026-09-03T08:57:39.568Z</time>
      </trkpt>
      <trkpt lat="49.50636" lon="-1.40592">
        <ele>77.9</ele>
        <time>2026-09-03T08:57:40.570Z</time>
      </trkpt>
      <trkpt lat="49.50635" lon="-1.40588">
        <ele>77.9</ele>
        <time>2026-09-03T08:57:42.572Z</time>
      </trkpt>
      <trkpt lat="49.50633" lon="-1.40583">
        <ele>77.8</ele>
        <time>2026-09-03T08:57:44.555Z</time>
      </trkpt>
      <trkpt lat="49.50632" lon="-1.40581">
        <ele>77.8</ele>
        <time>2026-09-03T08:57:45.557Z</time>
      </trkpt>
      <trkpt lat="49.50631" lon="-1.40579">
        <ele>77.7</ele>
        <time>2026-09-03T08:57:46.558Z</time>
      </trkpt>
      <trkpt lat="49.50629" lon="-1.40577">
        <ele>77.6</ele>
        <time>2026-09-03T08:57:47.559Z</time>
      </trkpt>
      <trkpt lat="49.50628" lon="-1.40575">
        <ele>77.6</ele>
        <time>2026-09-03T08:57:48.561Z</time>
      </trkpt>
      <trkpt lat="49.50627" lon="-1.40574">
        <ele>77.6</ele>
        <time>2026-09-03T08:57:49.562Z</time>
      </trkpt>
      <trkpt lat="49.50626" lon="-1.40572">
        <ele>77.5</ele>
        <time>2026-09-03T08:57:50.563Z</time>
      </trkpt>
      <trkpt lat="49.50625" lon="-1.40569">
        <ele>77.5</ele>
        <time>2026-09-03T08:57:51.565Z</time>
      </trkpt>
      <trkpt lat="49.50623" lon="-1.40565">
        <ele>77.4</ele>
        <time>2026-09-03T08:57:53.497Z</time>
      </trkpt>
      <trkpt lat="49.50622" lon="-1.40563">
        <ele>77.4</ele>
        <time>2026-09-03T08:57:54.559Z</time>
      </trkpt>
      <trkpt lat="49.50621" lon="-1.40561">
        <ele>77.4</ele>
        <time>2026-09-03T08:57:55.570Z</time>
      </trkpt>
      <trkpt lat="49.5062" lon="-1.40557">
        <ele>77.3</ele>
        <time>2026-09-03T08:57:57.536Z</time>
      </trkpt>
      <trkpt lat="49.5062" lon="-1.40555">
        <ele>77.3</ele>
        <time>2026-09-03T08:57:58.536Z</time>
      </trkpt>
      <trkpt lat="49.50619" lon="-1.40553">
        <ele>77.3</ele>
        <time>2026-09-03T08:57:59.536Z</time>
      </trkpt>
      <trkpt lat="49.50617" lon="-1.4055">
        <ele>77.2</ele>
        <time>2026-09-03T08:58:01.538Z</time>
      </trkpt>
      <trkpt lat="49.50617" lon="-1.40548">
        <ele>77.2</ele>
        <time>2026-09-03T08:58:02.580Z</time>
      </trkpt>
      <trkpt lat="49.50616" lon="-1.40544">
        <ele>77.2</ele>
        <time>2026-09-03T08:58:04.542Z</time>
      </trkpt>
      <trkpt lat="49.50615" lon="-1.40542">
        <ele>77.1</ele>
        <time>2026-09-03T08:58:05.544Z</time>
      </trkpt>
      <trkpt lat="49.50615" lon="-1.4054">
        <ele>77.1</ele>
        <time>2026-09-03T08:58:06.545Z</time>
      </trkpt>
      <trkpt lat="49.50614" lon="-1.40538">
        <ele>77.1</ele>
        <time>2026-09-03T08:58:07.546Z</time>
      </trkpt>
      <trkpt lat="49.50612" lon="-1.40536">
        <ele>77</ele>
        <time>2026-09-03T08:58:09.569Z</time>
      </trkpt>
      <trkpt lat="49.50611" lon="-1.40533">
        <ele>77</ele>
        <time>2026-09-03T08:58:10.590Z</time>
      </trkpt>
      <trkpt lat="49.50609" lon="-1.40531">
        <ele>76.9</ele>
        <time>2026-09-03T08:58:12.553Z</time>
      </trkpt>
      <trkpt lat="49.50606" lon="-1.40528">
        <ele>76.8</ele>
        <time>2026-09-03T08:58:14.495Z</time>
      </trkpt>
      <trkpt lat="49.50605" lon="-1.40526">
        <ele>76.8</ele>
        <time>2026-09-03T08:58:15.557Z</time>
      </trkpt>
      <trkpt lat="49.50604" lon="-1.40524">
        <ele>76.8</ele>
        <time>2026-09-03T08:58:16.559Z</time>
      </trkpt>
      <trkpt lat="49.50604" lon="-1.40523">
        <ele>76.8</ele>
        <time>2026-09-03T08:58:17.560Z</time>
      </trkpt>
      <trkpt lat="49.50602" lon="-1.4052">
        <ele>76.8</ele>
        <time>2026-09-03T08:58:19.536Z</time>
      </trkpt>
      <trkpt lat="49.506" lon="-1.40518">
        <ele>76.7</ele>
        <time>2026-09-03T08:58:21.555Z</time>
      </trkpt>
      <trkpt lat="49.50598" lon="-1.40514">
        <ele>76.8</ele>
        <time>2026-09-03T08:58:23.536Z</time>
      </trkpt>
      <trkpt lat="49.50598" lon="-1.40512">
        <ele>76.8</ele>
        <time>2026-09-03T08:58:24.536Z</time>
      </trkpt>
      <trkpt lat="49.50597" lon="-1.4051">
        <ele>76.8</ele>
        <time>2026-09-03T08:58:25.536Z</time>
      </trkpt>
      <trkpt lat="49.50595" lon="-1.40506">
        <ele>76.9</ele>
        <time>2026-09-03T08:58:27.553Z</time>
      </trkpt>
      <trkpt lat="49.50594" lon="-1.40505">
        <ele>76.9</ele>
        <time>2026-09-03T08:58:28.555Z</time>
      </trkpt>
      <trkpt lat="49.50593" lon="-1.40503">
        <ele>76.9</ele>
        <time>2026-09-03T08:58:29.556Z</time>
      </trkpt>
      <trkpt lat="49.50591" lon="-1.40502">
        <ele>76.9</ele>
        <time>2026-09-03T08:58:30.557Z</time>
      </trkpt>
      <trkpt lat="49.5059" lon="-1.40501">
        <ele>77</ele>
        <time>2026-09-03T08:58:31.559Z</time>
      </trkpt>
      <trkpt lat="49.50589" lon="-1.405">
        <ele>77</ele>
        <time>2026-09-03T08:58:32.560Z</time>
      </trkpt>
      <trkpt lat="49.50586" lon="-1.40497">
        <ele>77</ele>
        <time>2026-09-03T08:58:34.453Z</time>
      </trkpt>
      <trkpt lat="49.50585" lon="-1.40496">
        <ele>77</ele>
        <time>2026-09-03T08:58:35.494Z</time>
      </trkpt>
      <trkpt lat="49.50584" lon="-1.40495">
        <ele>77</ele>
        <time>2026-09-03T08:58:36.536Z</time>
      </trkpt>
      <trkpt lat="49.50584" lon="-1.40495">
        <ele>77</ele>
        <time>2026-09-03T08:58:37.597Z</time>
      </trkpt>
      <trkpt lat="49.50582" lon="-1.40492">
        <ele>76.9</ele>
        <time>2026-09-03T08:58:39.536Z</time>
      </trkpt>
      <trkpt lat="49.50581" lon="-1.40491">
        <ele>76.9</ele>
        <time>2026-09-03T08:58:40.570Z</time>
      </trkpt>
      <trkpt lat="49.50579" lon="-1.40489">
        <ele>76.7</ele>
        <time>2026-09-03T08:58:41.572Z</time>
      </trkpt>
      <trkpt lat="49.50577" lon="-1.40487">
        <ele>76.7</ele>
        <time>2026-09-03T08:58:43.575Z</time>
      </trkpt>
      <trkpt lat="49.50575" lon="-1.40485">
        <ele>76.6</ele>
        <time>2026-09-03T08:58:45.559Z</time>
      </trkpt>
      <trkpt lat="49.50575" lon="-1.40483">
        <ele>76.6</ele>
        <time>2026-09-03T08:58:46.559Z</time>
      </trkpt>
      <trkpt lat="49.50574" lon="-1.40481">
        <ele>76.6</ele>
        <time>2026-09-03T08:58:47.559Z</time>
      </trkpt>
      <trkpt lat="49.50572" lon="-1.4048">
        <ele>76.5</ele>
        <time>2026-09-03T08:58:48.562Z</time>
      </trkpt>
      <trkpt lat="49.5057" lon="-1.40476">
        <ele>76.5</ele>
        <time>2026-09-03T08:58:50.536Z</time>
      </trkpt>
      <trkpt lat="49.50569" lon="-1.40475">
        <ele>76.4</ele>
        <time>2026-09-03T08:58:51.536Z</time>
      </trkpt>
      <trkpt lat="49.50568" lon="-1.40473">
        <ele>76.4</ele>
        <time>2026-09-03T08:58:52.567Z</time>
      </trkpt>
      <trkpt lat="49.50567" lon="-1.40471">
        <ele>76.4</ele>
        <time>2026-09-03T08:58:53.569Z</time>
      </trkpt>
      <trkpt lat="49.50566" lon="-1.4047">
        <ele>76.4</ele>
        <time>2026-09-03T08:58:54.570Z</time>
      </trkpt>
      <trkpt lat="49.50564" lon="-1.40469">
        <ele>76.4</ele>
        <time>2026-09-03T08:58:55.570Z</time>
      </trkpt>
      <trkpt lat="49.50562" lon="-1.40467">
        <ele>76.4</ele>
        <time>2026-09-03T08:58:57.534Z</time>
      </trkpt>
      <trkpt lat="49.50561" lon="-1.40466">
        <ele>76.4</ele>
        <time>2026-09-03T08:58:58.594Z</time>
      </trkpt>
      <trkpt lat="49.50559" lon="-1.40464">
        <ele>76.4</ele>
        <time>2026-09-03T08:59:00.558Z</time>
      </trkpt>
      <trkpt lat="49.50557" lon="-1.40461">
        <ele>76.4</ele>
        <time>2026-09-03T08:59:02.581Z</time>
      </trkpt>
      <trkpt lat="49.50555" lon="-1.40458">
        <ele>76.5</ele>
        <time>2026-09-03T08:59:04.536Z</time>
      </trkpt>
      <trkpt lat="49.50555" lon="-1.40456">
        <ele>76.6</ele>
        <time>2026-09-03T08:59:05.536Z</time>
      </trkpt>
      <trkpt lat="49.50554" lon="-1.40455">
        <ele>76.7</ele>
        <time>2026-09-03T08:59:06.536Z</time>
      </trkpt>
      <trkpt lat="49.50553" lon="-1.40453">
        <ele>76.8</ele>
        <time>2026-09-03T08:59:07.567Z</time>
      </trkpt>
      <trkpt lat="49.50552" lon="-1.40452">
        <ele>76.8</ele>
        <time>2026-09-03T08:59:08.569Z</time>
      </trkpt>
      <trkpt lat="49.50551" lon="-1.40451">
        <ele>76.9</ele>
        <time>2026-09-03T08:59:09.570Z</time>
      </trkpt>
      <trkpt lat="49.5055" lon="-1.4045">
        <ele>77</ele>
        <time>2026-09-03T08:59:10.572Z</time>
      </trkpt>
      <trkpt lat="49.50548" lon="-1.40447">
        <ele>77.2</ele>
        <time>2026-09-03T08:59:12.536Z</time>
      </trkpt>
      <trkpt lat="49.50547" lon="-1.40446">
        <ele>77.2</ele>
        <time>2026-09-03T08:59:13.536Z</time>
      </trkpt>
      <trkpt lat="49.50546" lon="-1.40445">
        <ele>77.3</ele>
        <time>2026-09-03T08:59:14.536Z</time>
      </trkpt>
      <trkpt lat="49.50545" lon="-1.40444">
        <ele>77.4</ele>
        <time>2026-09-03T08:59:15.536Z</time>
      </trkpt>
      <trkpt lat="49.50544" lon="-1.40442">
        <ele>77.5</ele>
        <time>2026-09-03T08:59:16.536Z</time>
      </trkpt>
      <trkpt lat="49.50543" lon="-1.40441">
        <ele>77.6</ele>
        <time>2026-09-03T08:59:17.561Z</time>
      </trkpt>
      <trkpt lat="49.50541" lon="-1.40439">
        <ele>77.7</ele>
        <time>2026-09-03T08:59:19.534Z</time>
      </trkpt>
      <trkpt lat="49.5054" lon="-1.40438">
        <ele>77.8</ele>
        <time>2026-09-03T08:59:20.536Z</time>
      </trkpt>
      <trkpt lat="49.50539" lon="-1.40436">
        <ele>77.8</ele>
        <time>2026-09-03T08:59:21.536Z</time>
      </trkpt>
      <trkpt lat="49.50537" lon="-1.40433">
        <ele>77.9</ele>
        <time>2026-09-03T08:59:23.599Z</time>
      </trkpt>
      <trkpt lat="49.50536" lon="-1.40431">
        <ele>78</ele>
        <time>2026-09-03T08:59:25.536Z</time>
      </trkpt>
      <trkpt lat="49.50534" lon="-1.40428">
        <ele>78</ele>
        <time>2026-09-03T08:59:27.555Z</time>
      </trkpt>
      <trkpt lat="49.50534" lon="-1.40427">
        <ele>78.1</ele>
        <time>2026-09-03T08:59:28.556Z</time>
      </trkpt>
      <trkpt lat="49.50533" lon="-1.40426">
        <ele>78.1</ele>
        <time>2026-09-03T08:59:29.557Z</time>
      </trkpt>
      <trkpt lat="49.50531" lon="-1.40423">
        <ele>78.1</ele>
        <time>2026-09-03T08:59:31.580Z</time>
      </trkpt>
      <trkpt lat="49.50529" lon="-1.40421">
        <ele>78</ele>
        <time>2026-09-03T08:59:33.563Z</time>
      </trkpt>
      <trkpt lat="49.50527" lon="-1.40418">
        <ele>78</ele>
        <time>2026-09-03T08:59:35.535Z</time>
      </trkpt>
      <trkpt lat="49.50526" lon="-1.40417">
        <ele>78.1</ele>
        <time>2026-09-03T08:59:36.567Z</time>
      </trkpt>
      <trkpt lat="49.50525" lon="-1.40415">
        <ele>78.2</ele>
        <time>2026-09-03T08:59:37.568Z</time>
      </trkpt>
      <trkpt lat="49.50523" lon="-1.40412">
        <ele>78.3</ele>
        <time>2026-09-03T08:59:39.571Z</time>
      </trkpt>
      <trkpt lat="49.50521" lon="-1.40409">
        <ele>78.5</ele>
        <time>2026-09-03T08:59:41.536Z</time>
      </trkpt>
      <trkpt lat="49.50519" lon="-1.40407">
        <ele>78.6</ele>
        <time>2026-09-03T08:59:43.536Z</time>
      </trkpt>
      <trkpt lat="49.50518" lon="-1.40406">
        <ele>78.6</ele>
        <time>2026-09-03T08:59:44.558Z</time>
      </trkpt>
      <trkpt lat="49.50518" lon="-1.40406">
        <ele>78.6</ele>
        <time>2026-09-03T08:59:45.559Z</time>
      </trkpt>
      <trkpt lat="49.50516" lon="-1.40403">
        <ele>78.7</ele>
        <time>2026-09-03T08:59:47.572Z</time>
      </trkpt>
      <trkpt lat="49.50513" lon="-1.404">
        <ele>78.8</ele>
        <time>2026-09-03T08:59:49.564Z</time>
      </trkpt>
      <trkpt lat="49.50512" lon="-1.40399">
        <ele>78.8</ele>
        <time>2026-09-03T08:59:50.566Z</time>
      </trkpt>
      <trkpt lat="49.50511" lon="-1.40398">
        <ele>78.9</ele>
        <time>2026-09-03T08:59:51.567Z</time>
      </trkpt>
      <trkpt lat="49.50509" lon="-1.40396">
        <ele>78.9</ele>
        <time>2026-09-03T08:59:53.570Z</time>
      </trkpt>
      <trkpt lat="49.50507" lon="-1.40394">
        <ele>79</ele>
        <time>2026-09-03T08:59:55.536Z</time>
      </trkpt>
      <trkpt lat="49.50505" lon="-1.40393">
        <ele>79</ele>
        <time>2026-09-03T08:59:56.574Z</time>
      </trkpt>
      <trkpt lat="49.50505" lon="-1.40392">
        <ele>79</ele>
        <time>2026-09-03T08:59:57.575Z</time>
      </trkpt>
      <trkpt lat="49.50503" lon="-1.40389">
        <ele>79</ele>
        <time>2026-09-03T08:59:59.578Z</time>
      </trkpt>
      <trkpt lat="49.50502" lon="-1.40387">
        <ele>79.1</ele>
        <time>2026-09-03T09:00:00.579Z</time>
      </trkpt>
      <trkpt lat="49.505" lon="-1.40384">
        <ele>79.2</ele>
        <time>2026-09-03T09:00:02.536Z</time>
      </trkpt>
      <trkpt lat="49.50499" lon="-1.40382">
        <ele>79.2</ele>
        <time>2026-09-03T09:00:03.536Z</time>
      </trkpt>
      <trkpt lat="49.50498" lon="-1.4038">
        <ele>79.3</ele>
        <time>2026-09-03T09:00:04.536Z</time>
      </trkpt>
      <trkpt lat="49.50496" lon="-1.40378">
        <ele>79.4</ele>
        <time>2026-09-03T09:00:06.537Z</time>
      </trkpt>
      <trkpt lat="49.50495" lon="-1.40378">
        <ele>79.4</ele>
        <time>2026-09-03T09:00:07.549Z</time>
      </trkpt>
      <trkpt lat="49.50494" lon="-1.40377">
        <ele>79.4</ele>
        <time>2026-09-03T09:00:08.550Z</time>
      </trkpt>
      <trkpt lat="49.50492" lon="-1.40374">
        <ele>79.5</ele>
        <time>2026-09-03T09:00:10.533Z</time>
      </trkpt>
      <trkpt lat="49.50491" lon="-1.40372">
        <ele>79.6</ele>
        <time>2026-09-03T09:00:11.554Z</time>
      </trkpt>
      <trkpt lat="49.50489" lon="-1.4037">
        <ele>79.7</ele>
        <time>2026-09-03T09:00:13.537Z</time>
      </trkpt>
      <trkpt lat="49.50488" lon="-1.40369">
        <ele>79.7</ele>
        <time>2026-09-03T09:00:14.558Z</time>
      </trkpt>
      <trkpt lat="49.50487" lon="-1.40368">
        <ele>79.8</ele>
        <time>2026-09-03T09:00:15.559Z</time>
      </trkpt>
      <trkpt lat="49.50486" lon="-1.40367">
        <ele>79.8</ele>
        <time>2026-09-03T09:00:16.561Z</time>
      </trkpt>
      <trkpt lat="49.50483" lon="-1.40364">
        <ele>79.9</ele>
        <time>2026-09-03T09:00:18.563Z</time>
      </trkpt>
      <trkpt lat="49.50482" lon="-1.40363">
        <ele>79.9</ele>
        <time>2026-09-03T09:00:19.565Z</time>
      </trkpt>
      <trkpt lat="49.50481" lon="-1.40362">
        <ele>80</ele>
        <time>2026-09-03T09:00:20.566Z</time>
      </trkpt>
      <trkpt lat="49.5048" lon="-1.4036">
        <ele>80</ele>
        <time>2026-09-03T09:00:21.608Z</time>
      </trkpt>
      <trkpt lat="49.50478" lon="-1.40357">
        <ele>80.1</ele>
        <time>2026-09-03T09:00:23.570Z</time>
      </trkpt>
      <trkpt lat="49.50477" lon="-1.40354">
        <ele>80.3</ele>
        <time>2026-09-03T09:00:25.536Z</time>
      </trkpt>
      <trkpt lat="49.50477" lon="-1.40352">
        <ele>80.3</ele>
        <time>2026-09-03T09:00:26.536Z</time>
      </trkpt>
      <trkpt lat="49.50477" lon="-1.4035">
        <ele>80.4</ele>
        <time>2026-09-03T09:00:27.576Z</time>
      </trkpt>
      <trkpt lat="49.50476" lon="-1.40349">
        <ele>80.4</ele>
        <time>2026-09-03T09:00:28.577Z</time>
      </trkpt>
      <trkpt lat="49.50475" lon="-1.40348">
        <ele>80.5</ele>
        <time>2026-09-03T09:00:29.577Z</time>
      </trkpt>
      <trkpt lat="49.50474" lon="-1.40348">
        <ele>80.5</ele>
        <time>2026-09-03T09:00:30.580Z</time>
      </trkpt>
      <trkpt lat="49.50472" lon="-1.40349">
        <ele>80.4</ele>
        <time>2026-09-03T09:00:31.581Z</time>
      </trkpt>
      <trkpt lat="49.50474" lon="-1.40354">
        <ele>80.3</ele>
        <time>2026-09-03T09:00:33.536Z</time>
      </trkpt>
      <trkpt lat="49.50477" lon="-1.40357">
        <ele>80.1</ele>
        <time>2026-09-03T09:00:35.516Z</time>
      </trkpt>
      <trkpt lat="49.50478" lon="-1.40356">
        <ele>80.2</ele>
        <time>2026-09-03T09:00:36.536Z</time>
      </trkpt>
      <trkpt lat="49.50478" lon="-1.40353">
        <ele>80.3</ele>
        <time>2026-09-03T09:00:37.536Z</time>
      </trkpt>
      <trkpt lat="49.50478" lon="-1.4035">
        <ele>80.4</ele>
        <time>2026-09-03T09:00:38.536Z</time>
      </trkpt>
      <trkpt lat="49.50477" lon="-1.40347">
        <ele>80.5</ele>
        <time>2026-09-03T09:00:39.536Z</time>
      </trkpt>
      <trkpt lat="49.50477" lon="-1.40345">
        <ele>80.6</ele>
        <time>2026-09-03T09:00:40.536Z</time>
      </trkpt>
      <trkpt lat="49.50476" lon="-1.40343">
        <ele>80.7</ele>
        <time>2026-09-03T09:00:41.536Z</time>
      </trkpt>
      <trkpt lat="49.50474" lon="-1.40341">
        <ele>80.7</ele>
        <time>2026-09-03T09:00:42.536Z</time>
      </trkpt>
      <trkpt lat="49.50471" lon="-1.40337">
        <ele>80.9</ele>
        <time>2026-09-03T09:00:44.536Z</time>
      </trkpt>
      <trkpt lat="49.5047" lon="-1.40336">
        <ele>80.9</ele>
        <time>2026-09-03T09:00:45.536Z</time>
      </trkpt>
      <trkpt lat="49.50466" lon="-1.40335">
        <ele>80.9</ele>
        <time>2026-09-03T09:00:47.536Z</time>
      </trkpt>
      <trkpt lat="49.50465" lon="-1.40334">
        <ele>81</ele>
        <time>2026-09-03T09:00:48.536Z</time>
      </trkpt>
      <trkpt lat="49.50463" lon="-1.40333">
        <ele>81</ele>
        <time>2026-09-03T09:00:49.536Z</time>
      </trkpt>
      <trkpt lat="49.50462" lon="-1.40333">
        <ele>81</ele>
        <time>2026-09-03T09:00:50.536Z</time>
      </trkpt>
      <trkpt lat="49.50458" lon="-1.40332">
        <ele>81</ele>
        <time>2026-09-03T09:00:52.539Z</time>
      </trkpt>
      <trkpt lat="49.50455" lon="-1.40332">
        <ele>81</ele>
        <time>2026-09-03T09:00:54.536Z</time>
      </trkpt>
      <trkpt lat="49.50452" lon="-1.4033">
        <ele>81.1</ele>
        <time>2026-09-03T09:00:56.536Z</time>
      </trkpt>
      <trkpt lat="49.50451" lon="-1.40325">
        <ele>81.3</ele>
        <time>2026-09-03T09:00:58.536Z</time>
      </trkpt>
      <trkpt lat="49.50451" lon="-1.40322">
        <ele>81.4</ele>
        <time>2026-09-03T09:00:59.536Z</time>
      </trkpt>
      <trkpt lat="49.50452" lon="-1.40318">
        <ele>81.6</ele>
        <time>2026-09-03T09:01:01.434Z</time>
      </trkpt>
      <trkpt lat="49.50452" lon="-1.40316">
        <ele>81.6</ele>
        <time>2026-09-03T09:01:02.536Z</time>
      </trkpt>
      <trkpt lat="49.50452" lon="-1.40314">
        <ele>81.7</ele>
        <time>2026-09-03T09:01:03.536Z</time>
      </trkpt>
      <trkpt lat="49.50452" lon="-1.40313">
        <ele>81.7</ele>
        <time>2026-09-03T09:01:04.536Z</time>
      </trkpt>
      <trkpt lat="49.50452" lon="-1.40312">
        <ele>81.8</ele>
        <time>2026-09-03T09:01:05.536Z</time>
      </trkpt>
      <trkpt lat="49.50451" lon="-1.40313">
        <ele>81.7</ele>
        <time>2026-09-03T09:01:06.536Z</time>
      </trkpt>
      <trkpt lat="49.50451" lon="-1.40313">
        <ele>81.7</ele>
        <time>2026-09-03T09:01:07.536Z</time>
      </trkpt>
      <trkpt lat="49.5045" lon="-1.40313">
        <ele>81.7</ele>
        <time>2026-09-03T09:01:08.536Z</time>
      </trkpt>
      <trkpt lat="49.50449" lon="-1.40313">
        <ele>81.7</ele>
        <time>2026-09-03T09:01:09.536Z</time>
      </trkpt>
      <trkpt lat="49.50449" lon="-1.40313">
        <ele>81.7</ele>
        <time>2026-09-03T09:01:10.538Z</time>
      </trkpt>
      <trkpt lat="49.50449" lon="-1.40313">
        <ele>81.7</ele>
        <time>2026-09-03T09:01:11.539Z</time>
      </trkpt>
      <trkpt lat="49.50448" lon="-1.40312">
        <ele>81.8</ele>
        <time>2026-09-03T09:01:12.541Z</time>
      </trkpt>
      <trkpt lat="49.50447" lon="-1.40312">
        <ele>81.8</ele>
        <time>2026-09-03T09:01:13.542Z</time>
      </trkpt>
      <trkpt lat="49.50446" lon="-1.40313">
        <ele>81.7</ele>
        <time>2026-09-03T09:01:14.561Z</time>
      </trkpt>
      <trkpt lat="49.50442" lon="-1.40315">
        <ele>81.7</ele>
        <time>2026-09-03T09:01:16.564Z</time>
      </trkpt>
      <trkpt lat="49.5044" lon="-1.40314">
        <ele>81.7</ele>
        <time>2026-09-03T09:01:17.566Z</time>
      </trkpt>
      <trkpt lat="49.50438" lon="-1.40312">
        <ele>81.8</ele>
        <time>2026-09-03T09:01:18.567Z</time>
      </trkpt>
      <trkpt lat="49.50436" lon="-1.4031">
        <ele>81.8</ele>
        <time>2026-09-03T09:01:19.569Z</time>
      </trkpt>
      <trkpt lat="49.50434" lon="-1.40304">
        <ele>82.1</ele>
        <time>2026-09-03T09:01:21.536Z</time>
      </trkpt>
      <trkpt lat="49.50434" lon="-1.40302">
        <ele>82.1</ele>
        <time>2026-09-03T09:01:22.536Z</time>
      </trkpt>
      <trkpt lat="49.50433" lon="-1.403">
        <ele>82.2</ele>
        <time>2026-09-03T09:01:23.536Z</time>
      </trkpt>
      <trkpt lat="49.50432" lon="-1.40297">
        <ele>82.3</ele>
        <time>2026-09-03T09:01:24.536Z</time>
      </trkpt>
      <trkpt lat="49.5043" lon="-1.40296">
        <ele>82.3</ele>
        <time>2026-09-03T09:01:25.536Z</time>
      </trkpt>
      <trkpt lat="49.50429" lon="-1.40294">
        <ele>82.4</ele>
        <time>2026-09-03T09:01:26.536Z</time>
      </trkpt>
      <trkpt lat="49.50428" lon="-1.40293">
        <ele>82.5</ele>
        <time>2026-09-03T09:01:27.536Z</time>
      </trkpt>
      <trkpt lat="49.50426" lon="-1.4029">
        <ele>82.6</ele>
        <time>2026-09-03T09:01:29.555Z</time>
      </trkpt>
      <trkpt lat="49.50424" lon="-1.40288">
        <ele>82.6</ele>
        <time>2026-09-03T09:01:31.536Z</time>
      </trkpt>
      <trkpt lat="49.50421" lon="-1.40286">
        <ele>82.7</ele>
        <time>2026-09-03T09:01:33.541Z</time>
      </trkpt>
      <trkpt lat="49.5042" lon="-1.40284">
        <ele>82.8</ele>
        <time>2026-09-03T09:01:35.536Z</time>
      </trkpt>
      <trkpt lat="49.50419" lon="-1.40282">
        <ele>82.8</ele>
        <time>2026-09-03T09:01:36.536Z</time>
      </trkpt>
      <trkpt lat="49.50418" lon="-1.40281">
        <ele>82.9</ele>
        <time>2026-09-03T09:01:37.536Z</time>
      </trkpt>
      <trkpt lat="49.50416" lon="-1.4028">
        <ele>82.9</ele>
        <time>2026-09-03T09:01:38.536Z</time>
      </trkpt>
      <trkpt lat="49.50415" lon="-1.40279">
        <ele>83</ele>
        <time>2026-09-03T09:01:39.536Z</time>
      </trkpt>
      <trkpt lat="49.50414" lon="-1.40278">
        <ele>83</ele>
        <time>2026-09-03T09:01:40.536Z</time>
      </trkpt>
      <trkpt lat="49.50412" lon="-1.40276">
        <ele>83.1</ele>
        <time>2026-09-03T09:01:42.574Z</time>
      </trkpt>
      <trkpt lat="49.5041" lon="-1.40274">
        <ele>83.1</ele>
        <time>2026-09-03T09:01:44.536Z</time>
      </trkpt>
      <trkpt lat="49.50408" lon="-1.40271">
        <ele>83.2</ele>
        <time>2026-09-03T09:01:46.580Z</time>
      </trkpt>
      <trkpt lat="49.50406" lon="-1.40269">
        <ele>83.3</ele>
        <time>2026-09-03T09:01:48.536Z</time>
      </trkpt>
      <trkpt lat="49.50405" lon="-1.40268">
        <ele>83.4</ele>
        <time>2026-09-03T09:01:49.536Z</time>
      </trkpt>
      <trkpt lat="49.50404" lon="-1.40267">
        <ele>83.4</ele>
        <time>2026-09-03T09:01:50.536Z</time>
      </trkpt>
      <trkpt lat="49.50403" lon="-1.40265">
        <ele>83.5</ele>
        <time>2026-09-03T09:01:51.536Z</time>
      </trkpt>
      <trkpt lat="49.50401" lon="-1.40263">
        <ele>83.5</ele>
        <time>2026-09-03T09:01:53.536Z</time>
      </trkpt>
      <trkpt lat="49.504" lon="-1.40262">
        <ele>83.6</ele>
        <time>2026-09-03T09:01:54.536Z</time>
      </trkpt>
      <trkpt lat="49.50399" lon="-1.40261">
        <ele>83.6</ele>
        <time>2026-09-03T09:01:55.536Z</time>
      </trkpt>
      <trkpt lat="49.50397" lon="-1.40258">
        <ele>83.7</ele>
        <time>2026-09-03T09:01:57.536Z</time>
      </trkpt>
      <trkpt lat="49.50396" lon="-1.40257">
        <ele>83.7</ele>
        <time>2026-09-03T09:01:58.607Z</time>
      </trkpt>
      <trkpt lat="49.50394" lon="-1.40255">
        <ele>83.8</ele>
        <time>2026-09-03T09:02:00.570Z</time>
      </trkpt>
      <trkpt lat="49.50394" lon="-1.40254">
        <ele>83.9</ele>
        <time>2026-09-03T09:02:01.571Z</time>
      </trkpt>
      <trkpt lat="49.50393" lon="-1.40253">
        <ele>83.9</ele>
        <time>2026-09-03T09:02:02.572Z</time>
      </trkpt>
      <trkpt lat="49.5039" lon="-1.4025">
        <ele>84</ele>
        <time>2026-09-03T09:02:04.536Z</time>
      </trkpt>
      <trkpt lat="49.50388" lon="-1.40247">
        <ele>84.1</ele>
        <time>2026-09-03T09:02:06.578Z</time>
      </trkpt>
      <trkpt lat="49.50386" lon="-1.40245">
        <ele>84.2</ele>
        <time>2026-09-03T09:02:08.481Z</time>
      </trkpt>
      <trkpt lat="49.50385" lon="-1.40242">
        <ele>84.2</ele>
        <time>2026-09-03T09:02:10.594Z</time>
      </trkpt>
      <trkpt lat="49.50383" lon="-1.40239">
        <ele>84.3</ele>
        <time>2026-09-03T09:02:12.536Z</time>
      </trkpt>
      <trkpt lat="49.50382" lon="-1.40238">
        <ele>84.3</ele>
        <time>2026-09-03T09:02:13.536Z</time>
      </trkpt>
      <trkpt lat="49.50381" lon="-1.40236">
        <ele>84.4</ele>
        <time>2026-09-03T09:02:14.536Z</time>
      </trkpt>
      <trkpt lat="49.50379" lon="-1.40235">
        <ele>84.3</ele>
        <time>2026-09-03T09:02:16.472Z</time>
      </trkpt>
      <trkpt lat="49.50378" lon="-1.40234">
        <ele>84.4</ele>
        <time>2026-09-03T09:02:17.573Z</time>
      </trkpt>
      <trkpt lat="49.50376" lon="-1.40231">
        <ele>84.4</ele>
        <time>2026-09-03T09:02:19.536Z</time>
      </trkpt>
      <trkpt lat="49.50375" lon="-1.4023">
        <ele>84.4</ele>
        <time>2026-09-03T09:02:20.536Z</time>
      </trkpt>
      <trkpt lat="49.50373" lon="-1.40227">
        <ele>84.4</ele>
        <time>2026-09-03T09:02:22.560Z</time>
      </trkpt>
      <trkpt lat="49.50371" lon="-1.40224">
        <ele>84.3</ele>
        <time>2026-09-03T09:02:24.536Z</time>
      </trkpt>
      <trkpt lat="49.5037" lon="-1.40223">
        <ele>84.3</ele>
        <time>2026-09-03T09:02:25.536Z</time>
      </trkpt>
      <trkpt lat="49.50369" lon="-1.40222">
        <ele>84.3</ele>
        <time>2026-09-03T09:02:26.536Z</time>
      </trkpt>
      <trkpt lat="49.50368" lon="-1.40222">
        <ele>84.3</ele>
        <time>2026-09-03T09:02:27.536Z</time>
      </trkpt>
      <trkpt lat="49.50366" lon="-1.4022">
        <ele>84.2</ele>
        <time>2026-09-03T09:02:29.440Z</time>
      </trkpt>
      <trkpt lat="49.50365" lon="-1.40218">
        <ele>84.3</ele>
        <time>2026-09-03T09:02:30.536Z</time>
      </trkpt>
      <trkpt lat="49.50363" lon="-1.40217">
        <ele>84.2</ele>
        <time>2026-09-03T09:02:31.573Z</time>
      </trkpt>
      <trkpt lat="49.50362" lon="-1.40216">
        <ele>84.2</ele>
        <time>2026-09-03T09:02:33.456Z</time>
      </trkpt>
      <trkpt lat="49.50361" lon="-1.40214">
        <ele>84.3</ele>
        <time>2026-09-03T09:02:34.538Z</time>
      </trkpt>
      <trkpt lat="49.5036" lon="-1.40213">
        <ele>84.3</ele>
        <time>2026-09-03T09:02:35.579Z</time>
      </trkpt>
      <trkpt lat="49.50359" lon="-1.40211">
        <ele>84.4</ele>
        <time>2026-09-03T09:02:37.536Z</time>
      </trkpt>
      <trkpt lat="49.50358" lon="-1.4021">
        <ele>84.4</ele>
        <time>2026-09-03T09:02:38.536Z</time>
      </trkpt>
      <trkpt lat="49.50356" lon="-1.40208">
        <ele>84.5</ele>
        <time>2026-09-03T09:02:39.536Z</time>
      </trkpt>
      <trkpt lat="49.50355" lon="-1.40205">
        <ele>84.6</ele>
        <time>2026-09-03T09:02:41.568Z</time>
      </trkpt>
      <trkpt lat="49.50354" lon="-1.40204">
        <ele>84.7</ele>
        <time>2026-09-03T09:02:42.569Z</time>
      </trkpt>
      <trkpt lat="49.50351" lon="-1.40204">
        <ele>84.7</ele>
        <time>2026-09-03T09:02:43.571Z</time>
      </trkpt>
      <trkpt lat="49.5035" lon="-1.40205">
        <ele>84.6</ele>
        <time>2026-09-03T09:02:44.572Z</time>
      </trkpt>
      <trkpt lat="49.5035" lon="-1.40205">
        <ele>84.6</ele>
        <time>2026-09-03T09:02:45.573Z</time>
      </trkpt>
      <trkpt lat="49.5035" lon="-1.40207">
        <ele>84.5</ele>
        <time>2026-09-03T09:02:47.536Z</time>
      </trkpt>
      <trkpt lat="49.5035" lon="-1.40207">
        <ele>84.5</ele>
        <time>2026-09-03T09:02:48.536Z</time>
      </trkpt>
      <trkpt lat="49.5035" lon="-1.40207">
        <ele>84.5</ele>
        <time>2026-09-03T09:02:49.579Z</time>
      </trkpt>
      <trkpt lat="49.5035" lon="-1.40207">
        <ele>84.5</ele>
        <time>2026-09-03T09:02:51.536Z</time>
      </trkpt>
      <trkpt lat="49.5035" lon="-1.40209">
        <ele>84.5</ele>
        <time>2026-09-03T09:02:53.535Z</time>
      </trkpt>
      <trkpt lat="49.50351" lon="-1.4021">
        <ele>84.4</ele>
        <time>2026-09-03T09:02:54.536Z</time>
      </trkpt>
      <trkpt lat="49.50352" lon="-1.40208">
        <ele>84.5</ele>
        <time>2026-09-03T09:02:56.559Z</time>
      </trkpt>
      <trkpt lat="49.50355" lon="-1.40205">
        <ele>84.6</ele>
        <time>2026-09-03T09:02:58.536Z</time>
      </trkpt>
      <trkpt lat="49.50355" lon="-1.40204">
        <ele>84.7</ele>
        <time>2026-09-03T09:02:59.536Z</time>
      </trkpt>
      <trkpt lat="49.50354" lon="-1.40202">
        <ele>84.7</ele>
        <time>2026-09-03T09:03:00.536Z</time>
      </trkpt>
      <trkpt lat="49.50353" lon="-1.402">
        <ele>84.8</ele>
        <time>2026-09-03T09:03:01.536Z</time>
      </trkpt>
      <trkpt lat="49.50353" lon="-1.40198">
        <ele>84.9</ele>
        <time>2026-09-03T09:03:02.536Z</time>
      </trkpt>
      <trkpt lat="49.50353" lon="-1.40197">
        <ele>84.9</ele>
        <time>2026-09-03T09:03:03.536Z</time>
      </trkpt>
      <trkpt lat="49.50353" lon="-1.40195">
        <ele>85</ele>
        <time>2026-09-03T09:03:04.536Z</time>
      </trkpt>
      <trkpt lat="49.50353" lon="-1.40193">
        <ele>85</ele>
        <time>2026-09-03T09:03:05.536Z</time>
      </trkpt>
      <trkpt lat="49.50353" lon="-1.4019">
        <ele>85</ele>
        <time>2026-09-03T09:03:06.536Z</time>
      </trkpt>
      <trkpt lat="49.50353" lon="-1.40189">
        <ele>85</ele>
        <time>2026-09-03T09:03:07.536Z</time>
      </trkpt>
      <trkpt lat="49.50354" lon="-1.40187">
        <ele>85</ele>
        <time>2026-09-03T09:03:08.605Z</time>
      </trkpt>
      <trkpt lat="49.50347" lon="-1.40194">
        <ele>85</ele>
        <time>2026-09-03T09:03:09.570Z</time>
      </trkpt>
      <trkpt lat="49.50339" lon="-1.40201">
        <ele>84.8</ele>
        <time>2026-09-03T09:03:10.536Z</time>
      </trkpt>
      <trkpt lat="49.50337" lon="-1.40202">
        <ele>84.7</ele>
        <time>2026-09-03T09:03:11.536Z</time>
      </trkpt>
      <trkpt lat="49.50336" lon="-1.40202">
        <ele>84.7</ele>
        <time>2026-09-03T09:03:12.536Z</time>
      </trkpt>
      <trkpt lat="49.50334" lon="-1.40201">
        <ele>84.8</ele>
        <time>2026-09-03T09:03:13.536Z</time>
      </trkpt>
      <trkpt lat="49.50334" lon="-1.40201">
        <ele>84.8</ele>
        <time>2026-09-03T09:03:14.536Z</time>
      </trkpt>
      <trkpt lat="49.50334" lon="-1.40201">
        <ele>84.8</ele>
        <time>2026-09-03T09:03:15.536Z</time>
      </trkpt>
      <trkpt lat="49.50334" lon="-1.40202">
        <ele>84.7</ele>
        <time>2026-09-03T09:03:16.536Z</time>
      </trkpt>
      <trkpt lat="49.50334" lon="-1.40202">
        <ele>84.7</ele>
        <time>2026-09-03T09:03:17.536Z</time>
      </trkpt>
      <trkpt lat="49.50334" lon="-1.40202">
        <ele>84.7</ele>
        <time>2026-09-03T09:03:18.682Z</time>
      </trkpt>
      <trkpt lat="49.50333" lon="-1.40203">
        <ele>84.7</ele>
        <time>2026-09-03T09:03:20.232Z</time>
      </trkpt>
      <trkpt lat="49.50333" lon="-1.40205">
        <ele>84.6</ele>
        <time>2026-09-03T09:03:21.294Z</time>
      </trkpt>
      <trkpt lat="49.50332" lon="-1.40206">
        <ele>84.6</ele>
        <time>2026-09-03T09:03:22.335Z</time>
      </trkpt>
      <trkpt lat="49.50328" lon="-1.40205">
        <ele>84.5</ele>
        <time>2026-09-03T09:03:24.358Z</time>
      </trkpt>
      <trkpt lat="49.50326" lon="-1.40205">
        <ele>84.5</ele>
        <time>2026-09-03T09:03:25.540Z</time>
      </trkpt>
      <trkpt lat="49.50326" lon="-1.40207">
        <ele>84.4</ele>
        <time>2026-09-03T09:03:26.542Z</time>
      </trkpt>
      <trkpt lat="49.50326" lon="-1.40208">
        <ele>84.4</ele>
        <time>2026-09-03T09:03:27.543Z</time>
      </trkpt>
      <trkpt lat="49.50325" lon="-1.40209">
        <ele>84.3</ele>
        <time>2026-09-03T09:03:28.545Z</time>
      </trkpt>
      <trkpt lat="49.50324" lon="-1.40208">
        <ele>84.3</ele>
        <time>2026-09-03T09:03:29.546Z</time>
      </trkpt>
      <trkpt lat="49.50323" lon="-1.40207">
        <ele>84.3</ele>
        <time>2026-09-03T09:03:30.548Z</time>
      </trkpt>
      <trkpt lat="49.50321" lon="-1.40206">
        <ele>84.3</ele>
        <time>2026-09-03T09:03:31.550Z</time>
      </trkpt>
      <trkpt lat="49.50318" lon="-1.40208">
        <ele>84.2</ele>
        <time>2026-09-03T09:03:33.553Z</time>
      </trkpt>
      <trkpt lat="49.50317" lon="-1.40209">
        <ele>84.2</ele>
        <time>2026-09-03T09:03:34.554Z</time>
      </trkpt>
      <trkpt lat="49.50316" lon="-1.40208">
        <ele>84.2</ele>
        <time>2026-09-03T09:03:35.556Z</time>
      </trkpt>
      <trkpt lat="49.50315" lon="-1.40208">
        <ele>84.2</ele>
        <time>2026-09-03T09:03:36.557Z</time>
      </trkpt>
      <trkpt lat="49.50314" lon="-1.40208">
        <ele>84.2</ele>
        <time>2026-09-03T09:03:37.559Z</time>
      </trkpt>
      <trkpt lat="49.50313" lon="-1.40208">
        <ele>84.1</ele>
        <time>2026-09-03T09:03:38.560Z</time>
      </trkpt>
      <trkpt lat="49.50312" lon="-1.40207">
        <ele>84.1</ele>
        <time>2026-09-03T09:03:39.562Z</time>
      </trkpt>
      <trkpt lat="49.50311" lon="-1.40207">
        <ele>84.1</ele>
        <time>2026-09-03T09:03:40.563Z</time>
      </trkpt>
      <trkpt lat="49.5031" lon="-1.40206">
        <ele>84.1</ele>
        <time>2026-09-03T09:03:41.565Z</time>
      </trkpt>
      <trkpt lat="49.5031" lon="-1.40205">
        <ele>84.1</ele>
        <time>2026-09-03T09:03:42.566Z</time>
      </trkpt>
      <trkpt lat="49.50309" lon="-1.40204">
        <ele>84.1</ele>
        <time>2026-09-03T09:03:43.568Z</time>
      </trkpt>
      <trkpt lat="49.50307" lon="-1.40202">
        <ele>84</ele>
        <time>2026-09-03T09:03:44.569Z</time>
      </trkpt>
      <trkpt lat="49.50306" lon="-1.40202">
        <ele>84</ele>
        <time>2026-09-03T09:03:45.570Z</time>
      </trkpt>
      <trkpt lat="49.50305" lon="-1.40202">
        <ele>84</ele>
        <time>2026-09-03T09:03:46.572Z</time>
      </trkpt>
      <trkpt lat="49.50303" lon="-1.40202">
        <ele>84</ele>
        <time>2026-09-03T09:03:47.573Z</time>
      </trkpt>
      <trkpt lat="49.50302" lon="-1.40202">
        <ele>84</ele>
        <time>2026-09-03T09:03:48.575Z</time>
      </trkpt>
      <trkpt lat="49.50299" lon="-1.40203">
        <ele>84</ele>
        <time>2026-09-03T09:03:50.438Z</time>
      </trkpt>
      <trkpt lat="49.50297" lon="-1.40204">
        <ele>84</ele>
        <time>2026-09-03T09:03:51.499Z</time>
      </trkpt>
      <trkpt lat="49.50296" lon="-1.40205">
        <ele>84</ele>
        <time>2026-09-03T09:03:52.581Z</time>
      </trkpt>
      <trkpt lat="49.50294" lon="-1.40206">
        <ele>84</ele>
        <time>2026-09-03T09:03:54.543Z</time>
      </trkpt>
      <trkpt lat="49.50292" lon="-1.40207">
        <ele>84</ele>
        <time>2026-09-03T09:03:55.545Z</time>
      </trkpt>
      <trkpt lat="49.5029" lon="-1.4021">
        <ele>84</ele>
        <time>2026-09-03T09:03:57.536Z</time>
      </trkpt>
      <trkpt lat="49.50289" lon="-1.40211">
        <ele>84</ele>
        <time>2026-09-03T09:03:58.569Z</time>
      </trkpt>
      <trkpt lat="49.50287" lon="-1.40213">
        <ele>84</ele>
        <time>2026-09-03T09:04:00.572Z</time>
      </trkpt>
      <trkpt lat="49.50286" lon="-1.40214">
        <ele>84</ele>
        <time>2026-09-03T09:04:01.573Z</time>
      </trkpt>
      <trkpt lat="49.50285" lon="-1.40214">
        <ele>84</ele>
        <time>2026-09-03T09:04:02.575Z</time>
      </trkpt>
      <trkpt lat="49.50283" lon="-1.40214">
        <ele>84</ele>
        <time>2026-09-03T09:04:03.576Z</time>
      </trkpt>
      <trkpt lat="49.50282" lon="-1.40216">
        <ele>84</ele>
        <time>2026-09-03T09:04:05.599Z</time>
      </trkpt>
      <trkpt lat="49.5028" lon="-1.40219">
        <ele>84</ele>
        <time>2026-09-03T09:04:07.512Z</time>
      </trkpt>
      <trkpt lat="49.50279" lon="-1.40219">
        <ele>84</ele>
        <time>2026-09-03T09:04:08.543Z</time>
      </trkpt>
      <trkpt lat="49.50278" lon="-1.4022">
        <ele>84</ele>
        <time>2026-09-03T09:04:09.545Z</time>
      </trkpt>
      <trkpt lat="49.50276" lon="-1.40222">
        <ele>83.9</ele>
        <time>2026-09-03T09:04:11.547Z</time>
      </trkpt>
      <trkpt lat="49.50274" lon="-1.40223">
        <ele>83.8</ele>
        <time>2026-09-03T09:04:12.579Z</time>
      </trkpt>
      <trkpt lat="49.50272" lon="-1.40223">
        <ele>83.8</ele>
        <time>2026-09-03T09:04:14.572Z</time>
      </trkpt>
      <trkpt lat="49.5027" lon="-1.40223">
        <ele>83.7</ele>
        <time>2026-09-03T09:04:16.574Z</time>
      </trkpt>
      <trkpt lat="49.50269" lon="-1.40223">
        <ele>83.7</ele>
        <time>2026-09-03T09:04:17.576Z</time>
      </trkpt>
      <trkpt lat="49.50266" lon="-1.40225">
        <ele>83.5</ele>
        <time>2026-09-03T09:04:19.559Z</time>
      </trkpt>
      <trkpt lat="49.50265" lon="-1.40226">
        <ele>83.5</ele>
        <time>2026-09-03T09:04:21.561Z</time>
      </trkpt>
      <trkpt lat="49.50264" lon="-1.40227">
        <ele>83.4</ele>
        <time>2026-09-03T09:04:22.563Z</time>
      </trkpt>
      <trkpt lat="49.50263" lon="-1.40227">
        <ele>83.4</ele>
        <time>2026-09-03T09:04:23.564Z</time>
      </trkpt>
      <trkpt lat="49.5026" lon="-1.40228">
        <ele>83.3</ele>
        <time>2026-09-03T09:04:25.517Z</time>
      </trkpt>
      <trkpt lat="49.50259" lon="-1.40229">
        <ele>83.2</ele>
        <time>2026-09-03T09:04:26.568Z</time>
      </trkpt>
      <trkpt lat="49.50258" lon="-1.4023">
        <ele>83.2</ele>
        <time>2026-09-03T09:04:27.570Z</time>
      </trkpt>
      <trkpt lat="49.50256" lon="-1.4023">
        <ele>83.2</ele>
        <time>2026-09-03T09:04:28.571Z</time>
      </trkpt>
      <trkpt lat="49.50254" lon="-1.40231">
        <ele>83.1</ele>
        <time>2026-09-03T09:04:29.573Z</time>
      </trkpt>
      <trkpt lat="49.50253" lon="-1.40231">
        <ele>83.1</ele>
        <time>2026-09-03T09:04:30.574Z</time>
      </trkpt>
      <trkpt lat="49.50252" lon="-1.40232">
        <ele>83</ele>
        <time>2026-09-03T09:04:31.575Z</time>
      </trkpt>
      <trkpt lat="49.5025" lon="-1.40233">
        <ele>83</ele>
        <time>2026-09-03T09:04:33.536Z</time>
      </trkpt>
      <trkpt lat="49.50248" lon="-1.40234">
        <ele>83</ele>
        <time>2026-09-03T09:04:34.536Z</time>
      </trkpt>
      <trkpt lat="49.50246" lon="-1.40235">
        <ele>83</ele>
        <time>2026-09-03T09:04:36.531Z</time>
      </trkpt>
      <trkpt lat="49.50244" lon="-1.40236">
        <ele>83</ele>
        <time>2026-09-03T09:04:37.594Z</time>
      </trkpt>
      <trkpt lat="49.50242" lon="-1.40236">
        <ele>83</ele>
        <time>2026-09-03T09:04:39.536Z</time>
      </trkpt>
      <trkpt lat="49.5024" lon="-1.40236">
        <ele>83</ele>
        <time>2026-09-03T09:04:41.539Z</time>
      </trkpt>
      <trkpt lat="49.50237" lon="-1.40235">
        <ele>83</ele>
        <time>2026-09-03T09:04:43.536Z</time>
      </trkpt>
      <trkpt lat="49.50235" lon="-1.40234">
        <ele>83</ele>
        <time>2026-09-03T09:04:44.536Z</time>
      </trkpt>
      <trkpt lat="49.50235" lon="-1.40234">
        <ele>83</ele>
        <time>2026-09-03T09:04:45.536Z</time>
      </trkpt>
      <trkpt lat="49.50233" lon="-1.40234">
        <ele>83</ele>
        <time>2026-09-03T09:04:46.556Z</time>
      </trkpt>
      <trkpt lat="49.50232" lon="-1.40234">
        <ele>83</ele>
        <time>2026-09-03T09:04:47.557Z</time>
      </trkpt>
      <trkpt lat="49.50231" lon="-1.40235">
        <ele>83</ele>
        <time>2026-09-03T09:04:48.559Z</time>
      </trkpt>
      <trkpt lat="49.50229" lon="-1.40236">
        <ele>83</ele>
        <time>2026-09-03T09:04:49.560Z</time>
      </trkpt>
      <trkpt lat="49.50228" lon="-1.40237">
        <ele>83</ele>
        <time>2026-09-03T09:04:50.562Z</time>
      </trkpt>
      <trkpt lat="49.50225" lon="-1.40239">
        <ele>83</ele>
        <time>2026-09-03T09:04:52.574Z</time>
      </trkpt>
      <trkpt lat="49.50224" lon="-1.4024">
        <ele>83</ele>
        <time>2026-09-03T09:04:54.536Z</time>
      </trkpt>
      <trkpt lat="49.50223" lon="-1.4024">
        <ele>83</ele>
        <time>2026-09-03T09:04:55.568Z</time>
      </trkpt>
      <trkpt lat="49.50221" lon="-1.4024">
        <ele>83</ele>
        <time>2026-09-03T09:04:57.536Z</time>
      </trkpt>
      <trkpt lat="49.5022" lon="-1.4024">
        <ele>82.9</ele>
        <time>2026-09-03T09:04:58.536Z</time>
      </trkpt>
      <trkpt lat="49.50219" lon="-1.4024">
        <ele>82.9</ele>
        <time>2026-09-03T09:04:59.536Z</time>
      </trkpt>
      <trkpt lat="49.50216" lon="-1.40239">
        <ele>82.8</ele>
        <time>2026-09-03T09:05:01.577Z</time>
      </trkpt>
      <trkpt lat="49.50214" lon="-1.4024">
        <ele>82.7</ele>
        <time>2026-09-03T09:05:03.599Z</time>
      </trkpt>
      <trkpt lat="49.50211" lon="-1.40241">
        <ele>82.6</ele>
        <time>2026-09-03T09:05:05.542Z</time>
      </trkpt>
      <trkpt lat="49.5021" lon="-1.40241">
        <ele>82.6</ele>
        <time>2026-09-03T09:05:06.544Z</time>
      </trkpt>
      <trkpt lat="49.50209" lon="-1.40241">
        <ele>82.5</ele>
        <time>2026-09-03T09:05:07.545Z</time>
      </trkpt>
      <trkpt lat="49.50207" lon="-1.40244">
        <ele>82.5</ele>
        <time>2026-09-03T09:05:09.538Z</time>
      </trkpt>
      <trkpt lat="49.50206" lon="-1.40245">
        <ele>82.4</ele>
        <time>2026-09-03T09:05:10.579Z</time>
      </trkpt>
      <trkpt lat="49.50204" lon="-1.40246">
        <ele>82.3</ele>
        <time>2026-09-03T09:05:12.612Z</time>
      </trkpt>
      <trkpt lat="49.50202" lon="-1.40246">
        <ele>82.3</ele>
        <time>2026-09-03T09:05:14.535Z</time>
      </trkpt>
      <trkpt lat="49.50201" lon="-1.40246">
        <ele>82.2</ele>
        <time>2026-09-03T09:05:15.536Z</time>
      </trkpt>
      <trkpt lat="49.50199" lon="-1.40246">
        <ele>82.2</ele>
        <time>2026-09-03T09:05:16.536Z</time>
      </trkpt>
      <trkpt lat="49.50198" lon="-1.40246">
        <ele>82.1</ele>
        <time>2026-09-03T09:05:17.536Z</time>
      </trkpt>
      <trkpt lat="49.50197" lon="-1.40247">
        <ele>82.1</ele>
        <time>2026-09-03T09:05:18.560Z</time>
      </trkpt>
      <trkpt lat="49.50196" lon="-1.40248">
        <ele>82.1</ele>
        <time>2026-09-03T09:05:19.562Z</time>
      </trkpt>
      <trkpt lat="49.50195" lon="-1.40248">
        <ele>82</ele>
        <time>2026-09-03T09:05:20.563Z</time>
      </trkpt>
      <trkpt lat="49.50194" lon="-1.40248">
        <ele>82</ele>
        <time>2026-09-03T09:05:21.565Z</time>
      </trkpt>
      <trkpt lat="49.50192" lon="-1.40249">
        <ele>81.9</ele>
        <time>2026-09-03T09:05:22.566Z</time>
      </trkpt>
      <trkpt lat="49.50191" lon="-1.40249">
        <ele>81.9</ele>
        <time>2026-09-03T09:05:23.567Z</time>
      </trkpt>
      <trkpt lat="49.5019" lon="-1.40249">
        <ele>81.8</ele>
        <time>2026-09-03T09:05:24.569Z</time>
      </trkpt>
      <trkpt lat="49.50187" lon="-1.40249">
        <ele>81.7</ele>
        <time>2026-09-03T09:05:26.536Z</time>
      </trkpt>
      <trkpt lat="49.50186" lon="-1.40249">
        <ele>81.7</ele>
        <time>2026-09-03T09:05:27.536Z</time>
      </trkpt>
      <trkpt lat="49.50185" lon="-1.4025">
        <ele>81.7</ele>
        <time>2026-09-03T09:05:28.574Z</time>
      </trkpt>
      <trkpt lat="49.50183" lon="-1.4025">
        <ele>81.6</ele>
        <time>2026-09-03T09:05:29.576Z</time>
      </trkpt>
      <trkpt lat="49.50181" lon="-1.4025">
        <ele>81.5</ele>
        <time>2026-09-03T09:05:31.518Z</time>
      </trkpt>
      <trkpt lat="49.5018" lon="-1.40251">
        <ele>81.5</ele>
        <time>2026-09-03T09:05:32.560Z</time>
      </trkpt>
      <trkpt lat="49.50177" lon="-1.40251">
        <ele>81.4</ele>
        <time>2026-09-03T09:05:34.536Z</time>
      </trkpt>
      <trkpt lat="49.50175" lon="-1.40252">
        <ele>81.3</ele>
        <time>2026-09-03T09:05:35.584Z</time>
      </trkpt>
      <trkpt lat="49.50174" lon="-1.40251">
        <ele>81.3</ele>
        <time>2026-09-03T09:05:36.585Z</time>
      </trkpt>
      <trkpt lat="49.50171" lon="-1.40251">
        <ele>81.2</ele>
        <time>2026-09-03T09:05:38.558Z</time>
      </trkpt>
      <trkpt lat="49.5017" lon="-1.40251">
        <ele>81.1</ele>
        <time>2026-09-03T09:05:39.569Z</time>
      </trkpt>
      <trkpt lat="49.50169" lon="-1.4025">
        <ele>81.1</ele>
        <time>2026-09-03T09:05:40.570Z</time>
      </trkpt>
      <trkpt lat="49.50167" lon="-1.40251">
        <ele>81</ele>
        <time>2026-09-03T09:05:42.536Z</time>
      </trkpt>
      <trkpt lat="49.50165" lon="-1.4025">
        <ele>80.9</ele>
        <time>2026-09-03T09:05:43.575Z</time>
      </trkpt>
      <trkpt lat="49.50164" lon="-1.40251">
        <ele>80.9</ele>
        <time>2026-09-03T09:05:44.576Z</time>
      </trkpt>
      <trkpt lat="49.50162" lon="-1.40251">
        <ele>80.8</ele>
        <time>2026-09-03T09:05:45.578Z</time>
      </trkpt>
      <trkpt lat="49.50161" lon="-1.40252">
        <ele>80.8</ele>
        <time>2026-09-03T09:05:46.579Z</time>
      </trkpt>
      <trkpt lat="49.5016" lon="-1.40253">
        <ele>80.8</ele>
        <time>2026-09-03T09:05:47.580Z</time>
      </trkpt>
      <trkpt lat="49.50157" lon="-1.40255">
        <ele>80.7</ele>
        <time>2026-09-03T09:05:49.536Z</time>
      </trkpt>
      <trkpt lat="49.50155" lon="-1.40256">
        <ele>80.6</ele>
        <time>2026-09-03T09:05:51.516Z</time>
      </trkpt>
      <trkpt lat="49.50154" lon="-1.40256">
        <ele>80.5</ele>
        <time>2026-09-03T09:05:52.536Z</time>
      </trkpt>
      <trkpt lat="49.50153" lon="-1.40256">
        <ele>80.5</ele>
        <time>2026-09-03T09:05:53.569Z</time>
      </trkpt>
      <trkpt lat="49.50151" lon="-1.40256">
        <ele>80.4</ele>
        <time>2026-09-03T09:05:55.571Z</time>
      </trkpt>
      <trkpt lat="49.50148" lon="-1.40256">
        <ele>80.3</ele>
        <time>2026-09-03T09:05:57.533Z</time>
      </trkpt>
      <trkpt lat="49.50147" lon="-1.40256">
        <ele>80.3</ele>
        <time>2026-09-03T09:05:58.556Z</time>
      </trkpt>
      <trkpt lat="49.50145" lon="-1.40257">
        <ele>80.2</ele>
        <time>2026-09-03T09:05:59.637Z</time>
      </trkpt>
      <trkpt lat="49.50143" lon="-1.40257">
        <ele>80.1</ele>
        <time>2026-09-03T09:06:01.536Z</time>
      </trkpt>
      <trkpt lat="49.50142" lon="-1.40258">
        <ele>80.1</ele>
        <time>2026-09-03T09:06:02.581Z</time>
      </trkpt>
      <trkpt lat="49.50141" lon="-1.40258">
        <ele>80.1</ele>
        <time>2026-09-03T09:06:03.582Z</time>
      </trkpt>
      <trkpt lat="49.50139" lon="-1.40259">
        <ele>80</ele>
        <time>2026-09-03T09:06:05.536Z</time>
      </trkpt>
      <trkpt lat="49.50137" lon="-1.40259">
        <ele>80</ele>
        <time>2026-09-03T09:06:06.536Z</time>
      </trkpt>
      <trkpt lat="49.50136" lon="-1.40259">
        <ele>80</ele>
        <time>2026-09-03T09:06:07.536Z</time>
      </trkpt>
      <trkpt lat="49.50134" lon="-1.40259">
        <ele>79.9</ele>
        <time>2026-09-03T09:06:08.569Z</time>
      </trkpt>
      <trkpt lat="49.50133" lon="-1.4026">
        <ele>79.9</ele>
        <time>2026-09-03T09:06:09.571Z</time>
      </trkpt>
      <trkpt lat="49.50131" lon="-1.40261">
        <ele>79.9</ele>
        <time>2026-09-03T09:06:11.453Z</time>
      </trkpt>
      <trkpt lat="49.5013" lon="-1.40261">
        <ele>79.9</ele>
        <time>2026-09-03T09:06:12.515Z</time>
      </trkpt>
      <trkpt lat="49.50128" lon="-1.40261">
        <ele>79.8</ele>
        <time>2026-09-03T09:06:13.576Z</time>
      </trkpt>
      <trkpt lat="49.50126" lon="-1.40263">
        <ele>79.8</ele>
        <time>2026-09-03T09:06:15.536Z</time>
      </trkpt>
      <trkpt lat="49.50125" lon="-1.40263">
        <ele>79.8</ele>
        <time>2026-09-03T09:06:16.560Z</time>
      </trkpt>
      <trkpt lat="49.50123" lon="-1.40263">
        <ele>79.7</ele>
        <time>2026-09-03T09:06:18.513Z</time>
      </trkpt>
      <trkpt lat="49.50122" lon="-1.40263">
        <ele>79.7</ele>
        <time>2026-09-03T09:06:19.574Z</time>
      </trkpt>
      <trkpt lat="49.50121" lon="-1.40263">
        <ele>79.7</ele>
        <time>2026-09-03T09:06:20.596Z</time>
      </trkpt>
      <trkpt lat="49.50119" lon="-1.40263">
        <ele>79.7</ele>
        <time>2026-09-03T09:06:22.568Z</time>
      </trkpt>
      <trkpt lat="49.50117" lon="-1.40264">
        <ele>79.6</ele>
        <time>2026-09-03T09:06:23.570Z</time>
      </trkpt>
      <trkpt lat="49.50115" lon="-1.40264">
        <ele>79.6</ele>
        <time>2026-09-03T09:06:24.591Z</time>
      </trkpt>
      <trkpt lat="49.50113" lon="-1.40264">
        <ele>79.5</ele>
        <time>2026-09-03T09:06:26.554Z</time>
      </trkpt>
      <trkpt lat="49.50111" lon="-1.40265">
        <ele>79.5</ele>
        <time>2026-09-03T09:06:28.536Z</time>
      </trkpt>
      <trkpt lat="49.5011" lon="-1.40265">
        <ele>79.4</ele>
        <time>2026-09-03T09:06:29.538Z</time>
      </trkpt>
      <trkpt lat="49.50109" lon="-1.40265">
        <ele>79.4</ele>
        <time>2026-09-03T09:06:30.539Z</time>
      </trkpt>
      <trkpt lat="49.50107" lon="-1.40265">
        <ele>79.4</ele>
        <time>2026-09-03T09:06:31.541Z</time>
      </trkpt>
      <trkpt lat="49.50105" lon="-1.40265">
        <ele>79.4</ele>
        <time>2026-09-03T09:06:33.536Z</time>
      </trkpt>
      <trkpt lat="49.50104" lon="-1.40265">
        <ele>79.3</ele>
        <time>2026-09-03T09:06:34.536Z</time>
      </trkpt>
      <trkpt lat="49.50102" lon="-1.40268">
        <ele>79.2</ele>
        <time>2026-09-03T09:06:36.497Z</time>
      </trkpt>
      <trkpt lat="49.50101" lon="-1.40269">
        <ele>79.2</ele>
        <time>2026-09-03T09:06:37.539Z</time>
      </trkpt>
      <trkpt lat="49.50099" lon="-1.40269">
        <ele>79.2</ele>
        <time>2026-09-03T09:06:39.536Z</time>
      </trkpt>
      <trkpt lat="49.50097" lon="-1.4027">
        <ele>79.1</ele>
        <time>2026-09-03T09:06:40.536Z</time>
      </trkpt>
      <trkpt lat="49.50096" lon="-1.4027">
        <ele>79.1</ele>
        <time>2026-09-03T09:06:41.536Z</time>
      </trkpt>
      <trkpt lat="49.50094" lon="-1.4027">
        <ele>79.1</ele>
        <time>2026-09-03T09:06:42.536Z</time>
      </trkpt>
      <trkpt lat="49.50093" lon="-1.40271">
        <ele>79.1</ele>
        <time>2026-09-03T09:06:43.537Z</time>
      </trkpt>
      <trkpt lat="49.5009" lon="-1.40271">
        <ele>79.1</ele>
        <time>2026-09-03T09:06:45.536Z</time>
      </trkpt>
      <trkpt lat="49.50088" lon="-1.40272">
        <ele>79</ele>
        <time>2026-09-03T09:06:47.536Z</time>
      </trkpt>
      <trkpt lat="49.50086" lon="-1.40273">
        <ele>79</ele>
        <time>2026-09-03T09:06:49.475Z</time>
      </trkpt>
      <trkpt lat="49.50085" lon="-1.40273">
        <ele>79</ele>
        <time>2026-09-03T09:06:50.536Z</time>
      </trkpt>
      <trkpt lat="49.50083" lon="-1.40273">
        <ele>79</ele>
        <time>2026-09-03T09:06:51.558Z</time>
      </trkpt>
      <trkpt lat="49.50082" lon="-1.40272">
        <ele>79</ele>
        <time>2026-09-03T09:06:52.579Z</time>
      </trkpt>
      <trkpt lat="49.5008" lon="-1.40271">
        <ele>78.9</ele>
        <time>2026-09-03T09:06:54.536Z</time>
      </trkpt>
      <trkpt lat="49.50079" lon="-1.40271">
        <ele>78.8</ele>
        <time>2026-09-03T09:06:55.573Z</time>
      </trkpt>
      <trkpt lat="49.50077" lon="-1.40271">
        <ele>78.8</ele>
        <time>2026-09-03T09:06:56.575Z</time>
      </trkpt>
      <trkpt lat="49.50074" lon="-1.4027">
        <ele>78.7</ele>
        <time>2026-09-03T09:06:58.517Z</time>
      </trkpt>
      <trkpt lat="49.50073" lon="-1.40269">
        <ele>78.6</ele>
        <time>2026-09-03T09:06:59.539Z</time>
      </trkpt>
      <trkpt lat="49.50071" lon="-1.40268">
        <ele>78.6</ele>
        <time>2026-09-03T09:07:01.581Z</time>
      </trkpt>
      <trkpt lat="49.50068" lon="-1.40268">
        <ele>78.4</ele>
        <time>2026-09-03T09:07:03.536Z</time>
      </trkpt>
      <trkpt lat="49.50067" lon="-1.40267">
        <ele>78.4</ele>
        <time>2026-09-03T09:07:04.536Z</time>
      </trkpt>
      <trkpt lat="49.50065" lon="-1.40267">
        <ele>78.3</ele>
        <time>2026-09-03T09:07:05.536Z</time>
      </trkpt>
      <trkpt lat="49.50064" lon="-1.40266">
        <ele>78.3</ele>
        <time>2026-09-03T09:07:06.536Z</time>
      </trkpt>
      <trkpt lat="49.50062" lon="-1.40266">
        <ele>78.2</ele>
        <time>2026-09-03T09:07:07.570Z</time>
      </trkpt>
      <trkpt lat="49.50061" lon="-1.40266">
        <ele>78.2</ele>
        <time>2026-09-03T09:07:08.571Z</time>
      </trkpt>
      <trkpt lat="49.50059" lon="-1.40268">
        <ele>78.1</ele>
        <time>2026-09-03T09:07:10.536Z</time>
      </trkpt>
      <trkpt lat="49.50058" lon="-1.40268">
        <ele>78.1</ele>
        <time>2026-09-03T09:07:11.536Z</time>
      </trkpt>
      <trkpt lat="49.50056" lon="-1.40269">
        <ele>78</ele>
        <time>2026-09-03T09:07:13.498Z</time>
      </trkpt>
      <trkpt lat="49.50055" lon="-1.40269">
        <ele>78</ele>
        <time>2026-09-03T09:07:14.536Z</time>
      </trkpt>
      <trkpt lat="49.50053" lon="-1.40269">
        <ele>77.8</ele>
        <time>2026-09-03T09:07:15.536Z</time>
      </trkpt>
      <trkpt lat="49.50052" lon="-1.40269">
        <ele>77.8</ele>
        <time>2026-09-03T09:07:16.536Z</time>
      </trkpt>
      <trkpt lat="49.50051" lon="-1.4027">
        <ele>77.7</ele>
        <time>2026-09-03T09:07:17.563Z</time>
      </trkpt>
      <trkpt lat="49.5005" lon="-1.40271">
        <ele>77.6</ele>
        <time>2026-09-03T09:07:18.565Z</time>
      </trkpt>
      <trkpt lat="49.50049" lon="-1.40272">
        <ele>77.6</ele>
        <time>2026-09-03T09:07:19.566Z</time>
      </trkpt>
      <trkpt lat="49.50048" lon="-1.40272">
        <ele>77.5</ele>
        <time>2026-09-03T09:07:20.567Z</time>
      </trkpt>
      <trkpt lat="49.50046" lon="-1.40272">
        <ele>77.4</ele>
        <time>2026-09-03T09:07:21.569Z</time>
      </trkpt>
      <trkpt lat="49.50045" lon="-1.40272">
        <ele>77.3</ele>
        <time>2026-09-03T09:07:22.570Z</time>
      </trkpt>
      <trkpt lat="49.50043" lon="-1.40272">
        <ele>77.2</ele>
        <time>2026-09-03T09:07:24.533Z</time>
      </trkpt>
      <trkpt lat="49.50042" lon="-1.40272">
        <ele>77.1</ele>
        <time>2026-09-03T09:07:25.554Z</time>
      </trkpt>
      <trkpt lat="49.5004" lon="-1.40271">
        <ele>77</ele>
        <time>2026-09-03T09:07:27.537Z</time>
      </trkpt>
      <trkpt lat="49.50039" lon="-1.40271">
        <ele>77</ele>
        <time>2026-09-03T09:07:28.578Z</time>
      </trkpt>
      <trkpt lat="49.50036" lon="-1.4027">
        <ele>76.8</ele>
        <time>2026-09-03T09:07:30.559Z</time>
      </trkpt>
      <trkpt lat="49.50034" lon="-1.4027">
        <ele>76.7</ele>
        <time>2026-09-03T09:07:32.543Z</time>
      </trkpt>
      <trkpt lat="49.50033" lon="-1.4027">
        <ele>76.6</ele>
        <time>2026-09-03T09:07:33.599Z</time>
      </trkpt>
      <trkpt lat="49.5003" lon="-1.40272">
        <ele>76.4</ele>
        <time>2026-09-03T09:07:35.568Z</time>
      </trkpt>
      <trkpt lat="49.50029" lon="-1.40273">
        <ele>76.3</ele>
        <time>2026-09-03T09:07:36.569Z</time>
      </trkpt>
      <trkpt lat="49.50028" lon="-1.40274">
        <ele>76.2</ele>
        <time>2026-09-03T09:07:37.570Z</time>
      </trkpt>
      <trkpt lat="49.50025" lon="-1.40276">
        <ele>76.2</ele>
        <time>2026-09-03T09:07:39.573Z</time>
      </trkpt>
      <trkpt lat="49.50025" lon="-1.40276">
        <ele>76.2</ele>
        <time>2026-09-03T09:07:40.574Z</time>
      </trkpt>
      <trkpt lat="49.50022" lon="-1.40276">
        <ele>76.3</ele>
        <time>2026-09-03T09:07:42.496Z</time>
      </trkpt>
      <trkpt lat="49.50021" lon="-1.40277">
        <ele>76.3</ele>
        <time>2026-09-03T09:07:43.558Z</time>
      </trkpt>
      <trkpt lat="49.50019" lon="-1.40276">
        <ele>76.4</ele>
        <time>2026-09-03T09:07:45.536Z</time>
      </trkpt>
      <trkpt lat="49.50018" lon="-1.40276">
        <ele>76.4</ele>
        <time>2026-09-03T09:07:46.536Z</time>
      </trkpt>
      <trkpt lat="49.50016" lon="-1.40276">
        <ele>76.5</ele>
        <time>2026-09-03T09:07:47.536Z</time>
      </trkpt>
      <trkpt lat="49.50015" lon="-1.40276">
        <ele>76.5</ele>
        <time>2026-09-03T09:07:48.536Z</time>
      </trkpt>
      <trkpt lat="49.50014" lon="-1.40276">
        <ele>76.5</ele>
        <time>2026-09-03T09:07:49.546Z</time>
      </trkpt>
      <trkpt lat="49.50011" lon="-1.40276">
        <ele>76.6</ele>
        <time>2026-09-03T09:07:51.589Z</time>
      </trkpt>
      <trkpt lat="49.50009" lon="-1.40277">
        <ele>76.7</ele>
        <time>2026-09-03T09:07:53.536Z</time>
      </trkpt>
      <trkpt lat="49.50007" lon="-1.40277">
        <ele>76.8</ele>
        <time>2026-09-03T09:07:55.555Z</time>
      </trkpt>
      <trkpt lat="49.50004" lon="-1.40279">
        <ele>76.8</ele>
        <time>2026-09-03T09:07:57.537Z</time>
      </trkpt>
      <trkpt lat="49.50002" lon="-1.40281">
        <ele>76.7</ele>
        <time>2026-09-03T09:07:59.560Z</time>
      </trkpt>
      <trkpt lat="49.50002" lon="-1.40281">
        <ele>76.7</ele>
        <time>2026-09-03T09:08:00.581Z</time>
      </trkpt>
      <trkpt lat="49.5" lon="-1.40284">
        <ele>76.6</ele>
        <time>2026-09-03T09:08:02.536Z</time>
      </trkpt>
      <trkpt lat="49.49998" lon="-1.40285">
        <ele>76.5</ele>
        <time>2026-09-03T09:08:03.536Z</time>
      </trkpt>
      <trkpt lat="49.49997" lon="-1.40286">
        <ele>76.4</ele>
        <time>2026-09-03T09:08:04.587Z</time>
      </trkpt>
      <trkpt lat="49.49994" lon="-1.40286">
        <ele>76.5</ele>
        <time>2026-09-03T09:08:06.535Z</time>
      </trkpt>
      <trkpt lat="49.49993" lon="-1.40287">
        <ele>76.4</ele>
        <time>2026-09-03T09:08:07.571Z</time>
      </trkpt>
      <trkpt lat="49.49991" lon="-1.40287">
        <ele>76.4</ele>
        <time>2026-09-03T09:08:09.574Z</time>
      </trkpt>
      <trkpt lat="49.4999" lon="-1.40287">
        <ele>76.5</ele>
        <time>2026-09-03T09:08:10.575Z</time>
      </trkpt>
      <trkpt lat="49.49988" lon="-1.40287">
        <ele>76.5</ele>
        <time>2026-09-03T09:08:12.457Z</time>
      </trkpt>
      <trkpt lat="49.49986" lon="-1.40288">
        <ele>76.4</ele>
        <time>2026-09-03T09:08:13.479Z</time>
      </trkpt>
      <trkpt lat="49.49985" lon="-1.40288">
        <ele>76.5</ele>
        <time>2026-09-03T09:08:14.560Z</time>
      </trkpt>
      <trkpt lat="49.49983" lon="-1.40289">
        <ele>76.4</ele>
        <time>2026-09-03T09:08:16.536Z</time>
      </trkpt>
      <trkpt lat="49.49982" lon="-1.4029">
        <ele>76.4</ele>
        <time>2026-09-03T09:08:17.564Z</time>
      </trkpt>
      <trkpt lat="49.49981" lon="-1.40291">
        <ele>76.4</ele>
        <time>2026-09-03T09:08:18.566Z</time>
      </trkpt>
      <trkpt lat="49.4998" lon="-1.40291">
        <ele>76.4</ele>
        <time>2026-09-03T09:08:19.567Z</time>
      </trkpt>
      <trkpt lat="49.49978" lon="-1.40291">
        <ele>76.4</ele>
        <time>2026-09-03T09:08:20.568Z</time>
      </trkpt>
      <trkpt lat="49.49976" lon="-1.40292">
        <ele>76.4</ele>
        <time>2026-09-03T09:08:22.536Z</time>
      </trkpt>
      <trkpt lat="49.49975" lon="-1.40292">
        <ele>76.4</ele>
        <time>2026-09-03T09:08:23.552Z</time>
      </trkpt>
      <trkpt lat="49.49974" lon="-1.40293">
        <ele>76.4</ele>
        <time>2026-09-03T09:08:24.574Z</time>
      </trkpt>
      <trkpt lat="49.49972" lon="-1.40293">
        <ele>76.5</ele>
        <time>2026-09-03T09:08:26.536Z</time>
      </trkpt>
      <trkpt lat="49.49971" lon="-1.40294">
        <ele>76.4</ele>
        <time>2026-09-03T09:08:27.578Z</time>
      </trkpt>
      <trkpt lat="49.49968" lon="-1.40296">
        <ele>76.3</ele>
        <time>2026-09-03T09:08:29.536Z</time>
      </trkpt>
      <trkpt lat="49.49967" lon="-1.40296">
        <ele>76.3</ele>
        <time>2026-09-03T09:08:30.562Z</time>
      </trkpt>
      <trkpt lat="49.49964" lon="-1.40296">
        <ele>76.3</ele>
        <time>2026-09-03T09:08:32.535Z</time>
      </trkpt>
      <trkpt lat="49.49963" lon="-1.40296">
        <ele>76.3</ele>
        <time>2026-09-03T09:08:33.556Z</time>
      </trkpt>
      <trkpt lat="49.49961" lon="-1.40296">
        <ele>76.3</ele>
        <time>2026-09-03T09:08:35.569Z</time>
      </trkpt>
      <trkpt lat="49.49959" lon="-1.40296">
        <ele>76.3</ele>
        <time>2026-09-03T09:08:36.570Z</time>
      </trkpt>
      <trkpt lat="49.49958" lon="-1.40296">
        <ele>76.3</ele>
        <time>2026-09-03T09:08:37.571Z</time>
      </trkpt>
      <trkpt lat="49.49956" lon="-1.40297">
        <ele>76.3</ele>
        <time>2026-09-03T09:08:38.573Z</time>
      </trkpt>
      <trkpt lat="49.49955" lon="-1.40297">
        <ele>76.3</ele>
        <time>2026-09-03T09:08:39.574Z</time>
      </trkpt>
      <trkpt lat="49.49952" lon="-1.40298">
        <ele>76.3</ele>
        <time>2026-09-03T09:08:41.536Z</time>
      </trkpt>
      <trkpt lat="49.49951" lon="-1.40299">
        <ele>76.2</ele>
        <time>2026-09-03T09:08:42.536Z</time>
      </trkpt>
      <trkpt lat="49.49948" lon="-1.40301">
        <ele>76.2</ele>
        <time>2026-09-03T09:08:44.501Z</time>
      </trkpt>
      <trkpt lat="49.49947" lon="-1.40302">
        <ele>76.1</ele>
        <time>2026-09-03T09:08:45.532Z</time>
      </trkpt>
      <trkpt lat="49.49945" lon="-1.40302">
        <ele>76.1</ele>
        <time>2026-09-03T09:08:46.536Z</time>
      </trkpt>
      <trkpt lat="49.49945" lon="-1.40302">
        <ele>76.1</ele>
        <time>2026-09-03T09:08:47.565Z</time>
      </trkpt>
      <trkpt lat="49.49944" lon="-1.40303">
        <ele>76.1</ele>
        <time>2026-09-03T09:08:48.566Z</time>
      </trkpt>
      <trkpt lat="49.49942" lon="-1.40303">
        <ele>76</ele>
        <time>2026-09-03T09:08:49.567Z</time>
      </trkpt>
      <trkpt lat="49.49942" lon="-1.40303">
        <ele>76</ele>
        <time>2026-09-03T09:08:50.569Z</time>
      </trkpt>
      <trkpt lat="49.4994" lon="-1.40302">
        <ele>76</ele>
        <time>2026-09-03T09:08:51.570Z</time>
      </trkpt>
      <trkpt lat="49.49939" lon="-1.40301">
        <ele>76</ele>
        <time>2026-09-03T09:08:52.572Z</time>
      </trkpt>
      <trkpt lat="49.49938" lon="-1.403">
        <ele>76</ele>
        <time>2026-09-03T09:08:53.573Z</time>
      </trkpt>
      <trkpt lat="49.49938" lon="-1.40299">
        <ele>76</ele>
        <time>2026-09-03T09:08:55.536Z</time>
      </trkpt>
      <trkpt lat="49.49937" lon="-1.40299">
        <ele>76</ele>
        <time>2026-09-03T09:08:56.557Z</time>
      </trkpt>
      <trkpt lat="49.49936" lon="-1.40299">
        <ele>75.9</ele>
        <time>2026-09-03T09:08:58.540Z</time>
      </trkpt>
      <trkpt lat="49.49935" lon="-1.403">
        <ele>75.9</ele>
        <time>2026-09-03T09:08:59.541Z</time>
      </trkpt>
      <trkpt lat="49.49934" lon="-1.40302">
        <ele>75.8</ele>
        <time>2026-09-03T09:09:00.542Z</time>
      </trkpt>
      <trkpt lat="49.49933" lon="-1.40303">
        <ele>75.7</ele>
        <time>2026-09-03T09:09:01.544Z</time>
      </trkpt>
      <trkpt lat="49.49932" lon="-1.40304">
        <ele>75.6</ele>
        <time>2026-09-03T09:09:02.545Z</time>
      </trkpt>
      <trkpt lat="49.4993" lon="-1.40306">
        <ele>75.5</ele>
        <time>2026-09-03T09:09:03.586Z</time>
      </trkpt>
      <trkpt lat="49.49928" lon="-1.40306">
        <ele>75.4</ele>
        <time>2026-09-03T09:09:05.589Z</time>
      </trkpt>
      <trkpt lat="49.49926" lon="-1.40307">
        <ele>75.3</ele>
        <time>2026-09-03T09:09:07.462Z</time>
      </trkpt>
      <trkpt lat="49.49925" lon="-1.40307">
        <ele>75.3</ele>
        <time>2026-09-03T09:09:08.493Z</time>
      </trkpt>
      <trkpt lat="49.49923" lon="-1.40308">
        <ele>75.2</ele>
        <time>2026-09-03T09:09:09.554Z</time>
      </trkpt>
      <trkpt lat="49.4992" lon="-1.40308">
        <ele>75.1</ele>
        <time>2026-09-03T09:09:11.577Z</time>
      </trkpt>
      <trkpt lat="49.49917" lon="-1.40309">
        <ele>75</ele>
        <time>2026-09-03T09:09:13.580Z</time>
      </trkpt>
      <trkpt lat="49.49915" lon="-1.40309">
        <ele>75</ele>
        <time>2026-09-03T09:09:14.581Z</time>
      </trkpt>
      <trkpt lat="49.49914" lon="-1.40309">
        <ele>75</ele>
        <time>2026-09-03T09:09:15.583Z</time>
      </trkpt>
      <trkpt lat="49.49912" lon="-1.40309">
        <ele>75</ele>
        <time>2026-09-03T09:09:17.535Z</time>
      </trkpt>
      <trkpt lat="49.4991" lon="-1.4031">
        <ele>75</ele>
        <time>2026-09-03T09:09:18.576Z</time>
      </trkpt>
      <trkpt lat="49.49908" lon="-1.40311">
        <ele>75</ele>
        <time>2026-09-03T09:09:19.598Z</time>
      </trkpt>
      <trkpt lat="49.49906" lon="-1.40312">
        <ele>75</ele>
        <time>2026-09-03T09:09:21.591Z</time>
      </trkpt>
      <trkpt lat="49.49904" lon="-1.40312">
        <ele>75</ele>
        <time>2026-09-03T09:09:23.559Z</time>
      </trkpt>
      <trkpt lat="49.49903" lon="-1.40313">
        <ele>75</ele>
        <time>2026-09-03T09:09:24.559Z</time>
      </trkpt>
      <trkpt lat="49.49902" lon="-1.40313">
        <ele>75</ele>
        <time>2026-09-03T09:09:25.559Z</time>
      </trkpt>
      <trkpt lat="49.49899" lon="-1.40315">
        <ele>75</ele>
        <time>2026-09-03T09:09:27.459Z</time>
      </trkpt>
      <trkpt lat="49.49898" lon="-1.40316">
        <ele>75</ele>
        <time>2026-09-03T09:09:28.600Z</time>
      </trkpt>
      <trkpt lat="49.49895" lon="-1.40318">
        <ele>75</ele>
        <time>2026-09-03T09:09:30.563Z</time>
      </trkpt>
      <trkpt lat="49.49895" lon="-1.40319">
        <ele>75</ele>
        <time>2026-09-03T09:09:31.564Z</time>
      </trkpt>
      <trkpt lat="49.49894" lon="-1.4032">
        <ele>75</ele>
        <time>2026-09-03T09:09:32.565Z</time>
      </trkpt>
      <trkpt lat="49.49892" lon="-1.40324">
        <ele>75</ele>
        <time>2026-09-03T09:09:34.518Z</time>
      </trkpt>
      <trkpt lat="49.49892" lon="-1.40325">
        <ele>75</ele>
        <time>2026-09-03T09:09:35.579Z</time>
      </trkpt>
      <trkpt lat="49.4989" lon="-1.40329">
        <ele>75</ele>
        <time>2026-09-03T09:09:37.572Z</time>
      </trkpt>
      <trkpt lat="49.49889" lon="-1.4033">
        <ele>75</ele>
        <time>2026-09-03T09:09:38.574Z</time>
      </trkpt>
      <trkpt lat="49.49888" lon="-1.40332">
        <ele>75</ele>
        <time>2026-09-03T09:09:39.575Z</time>
      </trkpt>
      <trkpt lat="49.49887" lon="-1.40333">
        <ele>75</ele>
        <time>2026-09-03T09:09:40.576Z</time>
      </trkpt>
      <trkpt lat="49.49886" lon="-1.40336">
        <ele>75</ele>
        <time>2026-09-03T09:09:42.539Z</time>
      </trkpt>
      <trkpt lat="49.49885" lon="-1.40338">
        <ele>75</ele>
        <time>2026-09-03T09:09:43.580Z</time>
      </trkpt>
      <trkpt lat="49.49883" lon="-1.4034">
        <ele>74.9</ele>
        <time>2026-09-03T09:09:44.612Z</time>
      </trkpt>
      <trkpt lat="49.49882" lon="-1.40341">
        <ele>74.9</ele>
        <time>2026-09-03T09:09:46.564Z</time>
      </trkpt>
      <trkpt lat="49.49881" lon="-1.40343">
        <ele>74.9</ele>
        <time>2026-09-03T09:09:48.536Z</time>
      </trkpt>
      <trkpt lat="49.4988" lon="-1.40344">
        <ele>74.9</ele>
        <time>2026-09-03T09:09:49.536Z</time>
      </trkpt>
      <trkpt lat="49.4988" lon="-1.40345">
        <ele>74.9</ele>
        <time>2026-09-03T09:09:50.536Z</time>
      </trkpt>
      <trkpt lat="49.49879" lon="-1.40347">
        <ele>74.8</ele>
        <time>2026-09-03T09:09:51.536Z</time>
      </trkpt>
      <trkpt lat="49.49877" lon="-1.4035">
        <ele>74.7</ele>
        <time>2026-09-03T09:09:53.574Z</time>
      </trkpt>
      <trkpt lat="49.49876" lon="-1.40353">
        <ele>74.7</ele>
        <time>2026-09-03T09:09:55.556Z</time>
      </trkpt>
      <trkpt lat="49.49876" lon="-1.40355">
        <ele>74.6</ele>
        <time>2026-09-03T09:09:56.578Z</time>
      </trkpt>
      <trkpt lat="49.49875" lon="-1.40356">
        <ele>74.6</ele>
        <time>2026-09-03T09:09:57.579Z</time>
      </trkpt>
      <trkpt lat="49.49874" lon="-1.4036">
        <ele>74.5</ele>
        <time>2026-09-03T09:09:59.562Z</time>
      </trkpt>
      <trkpt lat="49.49873" lon="-1.40361">
        <ele>74.4</ele>
        <time>2026-09-03T09:10:00.563Z</time>
      </trkpt>
      <trkpt lat="49.4987" lon="-1.40363">
        <ele>74.3</ele>
        <time>2026-09-03T09:10:02.556Z</time>
      </trkpt>
      <trkpt lat="49.49869" lon="-1.40365">
        <ele>74.2</ele>
        <time>2026-09-03T09:10:03.597Z</time>
      </trkpt>
      <trkpt lat="49.49868" lon="-1.40368">
        <ele>74.2</ele>
        <time>2026-09-03T09:10:05.570Z</time>
      </trkpt>
      <trkpt lat="49.49866" lon="-1.40369">
        <ele>74.1</ele>
        <time>2026-09-03T09:10:06.571Z</time>
      </trkpt>
      <trkpt lat="49.49865" lon="-1.40372">
        <ele>74.1</ele>
        <time>2026-09-03T09:10:08.534Z</time>
      </trkpt>
      <trkpt lat="49.49864" lon="-1.40374">
        <ele>74.1</ele>
        <time>2026-09-03T09:10:09.555Z</time>
      </trkpt>
      <trkpt lat="49.49863" lon="-1.40377">
        <ele>74</ele>
        <time>2026-09-03T09:10:11.538Z</time>
      </trkpt>
      <trkpt lat="49.49862" lon="-1.40378">
        <ele>74</ele>
        <time>2026-09-03T09:10:12.539Z</time>
      </trkpt>
      <trkpt lat="49.49861" lon="-1.40379">
        <ele>74</ele>
        <time>2026-09-03T09:10:13.541Z</time>
      </trkpt>
      <trkpt lat="49.49861" lon="-1.40381">
        <ele>74</ele>
        <time>2026-09-03T09:10:14.542Z</time>
      </trkpt>
      <trkpt lat="49.4986" lon="-1.40384">
        <ele>74</ele>
        <time>2026-09-03T09:10:15.543Z</time>
      </trkpt>
      <trkpt lat="49.49859" lon="-1.40386">
        <ele>74</ele>
        <time>2026-09-03T09:10:16.545Z</time>
      </trkpt>
      <trkpt lat="49.49858" lon="-1.4039">
        <ele>74</ele>
        <time>2026-09-03T09:10:18.536Z</time>
      </trkpt>
      <trkpt lat="49.49857" lon="-1.40392">
        <ele>73.9</ele>
        <time>2026-09-03T09:10:19.549Z</time>
      </trkpt>
      <trkpt lat="49.49857" lon="-1.40393">
        <ele>73.9</ele>
        <time>2026-09-03T09:10:20.550Z</time>
      </trkpt>
      <trkpt lat="49.49856" lon="-1.40394">
        <ele>73.8</ele>
        <time>2026-09-03T09:10:21.551Z</time>
      </trkpt>
      <trkpt lat="49.49855" lon="-1.40396">
        <ele>73.7</ele>
        <time>2026-09-03T09:10:22.553Z</time>
      </trkpt>
      <trkpt lat="49.49854" lon="-1.40399">
        <ele>73.6</ele>
        <time>2026-09-03T09:10:24.515Z</time>
      </trkpt>
      <trkpt lat="49.49853" lon="-1.40401">
        <ele>73.6</ele>
        <time>2026-09-03T09:10:25.536Z</time>
      </trkpt>
      <trkpt lat="49.49852" lon="-1.40403">
        <ele>73.5</ele>
        <time>2026-09-03T09:10:26.577Z</time>
      </trkpt>
      <trkpt lat="49.49851" lon="-1.40404">
        <ele>73.5</ele>
        <time>2026-09-03T09:10:27.579Z</time>
      </trkpt>
      <trkpt lat="49.49849" lon="-1.40407">
        <ele>73.3</ele>
        <time>2026-09-03T09:10:29.561Z</time>
      </trkpt>
      <trkpt lat="49.49848" lon="-1.4041">
        <ele>73.2</ele>
        <time>2026-09-03T09:10:31.535Z</time>
      </trkpt>
      <trkpt lat="49.49847" lon="-1.40412">
        <ele>73.2</ele>
        <time>2026-09-03T09:10:32.566Z</time>
      </trkpt>
      <trkpt lat="49.49847" lon="-1.40414">
        <ele>73.1</ele>
        <time>2026-09-03T09:10:33.567Z</time>
      </trkpt>
      <trkpt lat="49.49845" lon="-1.40417">
        <ele>73</ele>
        <time>2026-09-03T09:10:35.570Z</time>
      </trkpt>
      <trkpt lat="49.49845" lon="-1.40417">
        <ele>73</ele>
        <time>2026-09-03T09:10:36.571Z</time>
      </trkpt>
      <trkpt lat="49.49843" lon="-1.4042">
        <ele>72.9</ele>
        <time>2026-09-03T09:10:38.536Z</time>
      </trkpt>
      <trkpt lat="49.49843" lon="-1.40421">
        <ele>72.9</ele>
        <time>2026-09-03T09:10:39.536Z</time>
      </trkpt>
      <trkpt lat="49.49842" lon="-1.40423">
        <ele>72.8</ele>
        <time>2026-09-03T09:10:40.537Z</time>
      </trkpt>
      <trkpt lat="49.49841" lon="-1.40425">
        <ele>72.8</ele>
        <time>2026-09-03T09:10:41.538Z</time>
      </trkpt>
      <trkpt lat="49.49838" lon="-1.40429">
        <ele>72.6</ele>
        <time>2026-09-03T09:10:43.536Z</time>
      </trkpt>
      <trkpt lat="49.49837" lon="-1.4043">
        <ele>72.6</ele>
        <time>2026-09-03T09:10:44.536Z</time>
      </trkpt>
      <trkpt lat="49.49836" lon="-1.40431">
        <ele>72.5</ele>
        <time>2026-09-03T09:10:45.536Z</time>
      </trkpt>
      <trkpt lat="49.49834" lon="-1.40432">
        <ele>72.5</ele>
        <time>2026-09-03T09:10:46.536Z</time>
      </trkpt>
      <trkpt lat="49.49833" lon="-1.40433">
        <ele>72.4</ele>
        <time>2026-09-03T09:10:47.536Z</time>
      </trkpt>
      <trkpt lat="49.49832" lon="-1.40435">
        <ele>72.3</ele>
        <time>2026-09-03T09:10:48.536Z</time>
      </trkpt>
      <trkpt lat="49.49832" lon="-1.40436">
        <ele>72.3</ele>
        <time>2026-09-03T09:10:49.536Z</time>
      </trkpt>
      <trkpt lat="49.49831" lon="-1.40438">
        <ele>72.2</ele>
        <time>2026-09-03T09:10:50.536Z</time>
      </trkpt>
      <trkpt lat="49.49829" lon="-1.40441">
        <ele>72.1</ele>
        <time>2026-09-03T09:10:52.533Z</time>
      </trkpt>
      <trkpt lat="49.49828" lon="-1.40441">
        <ele>72.1</ele>
        <time>2026-09-03T09:10:53.536Z</time>
      </trkpt>
      <trkpt lat="49.49826" lon="-1.40442">
        <ele>72.1</ele>
        <time>2026-09-03T09:10:54.556Z</time>
      </trkpt>
      <trkpt lat="49.49825" lon="-1.40443">
        <ele>72.1</ele>
        <time>2026-09-03T09:10:55.577Z</time>
      </trkpt>
      <trkpt lat="49.49822" lon="-1.40445">
        <ele>72</ele>
        <time>2026-09-03T09:10:57.536Z</time>
      </trkpt>
      <trkpt lat="49.49821" lon="-1.40446">
        <ele>72</ele>
        <time>2026-09-03T09:10:58.536Z</time>
      </trkpt>
      <trkpt lat="49.4982" lon="-1.40448">
        <ele>72</ele>
        <time>2026-09-03T09:10:59.536Z</time>
      </trkpt>
      <trkpt lat="49.49818" lon="-1.4045">
        <ele>72</ele>
        <time>2026-09-03T09:11:01.495Z</time>
      </trkpt>
      <trkpt lat="49.49817" lon="-1.40451">
        <ele>72</ele>
        <time>2026-09-03T09:11:02.496Z</time>
      </trkpt>
      <trkpt lat="49.49816" lon="-1.40453">
        <ele>72</ele>
        <time>2026-09-03T09:11:03.558Z</time>
      </trkpt>
      <trkpt lat="49.49815" lon="-1.40454">
        <ele>72</ele>
        <time>2026-09-03T09:11:04.579Z</time>
      </trkpt>
      <trkpt lat="49.49813" lon="-1.40456">
        <ele>72</ele>
        <time>2026-09-03T09:11:06.572Z</time>
      </trkpt>
      <trkpt lat="49.4981" lon="-1.40458">
        <ele>72</ele>
        <time>2026-09-03T09:11:08.574Z</time>
      </trkpt>
      <trkpt lat="49.49808" lon="-1.4046">
        <ele>72</ele>
        <time>2026-09-03T09:11:10.557Z</time>
      </trkpt>
      <trkpt lat="49.49808" lon="-1.40461">
        <ele>72</ele>
        <time>2026-09-03T09:11:11.558Z</time>
      </trkpt>
      <trkpt lat="49.49807" lon="-1.40463">
        <ele>72</ele>
        <time>2026-09-03T09:11:12.560Z</time>
      </trkpt>
      <trkpt lat="49.49806" lon="-1.40464">
        <ele>72</ele>
        <time>2026-09-03T09:11:13.561Z</time>
      </trkpt>
      <trkpt lat="49.49805" lon="-1.40465">
        <ele>72</ele>
        <time>2026-09-03T09:11:14.562Z</time>
      </trkpt>
      <trkpt lat="49.49804" lon="-1.40467">
        <ele>72</ele>
        <time>2026-09-03T09:11:15.564Z</time>
      </trkpt>
      <trkpt lat="49.49803" lon="-1.40469">
        <ele>71.9</ele>
        <time>2026-09-03T09:11:16.599Z</time>
      </trkpt>
      <trkpt lat="49.49801" lon="-1.40471">
        <ele>71.8</ele>
        <time>2026-09-03T09:11:18.535Z</time>
      </trkpt>
      <trkpt lat="49.498" lon="-1.40474">
        <ele>71.7</ele>
        <time>2026-09-03T09:11:20.460Z</time>
      </trkpt>
      <trkpt lat="49.498" lon="-1.40476">
        <ele>71.7</ele>
        <time>2026-09-03T09:11:21.512Z</time>
      </trkpt>
      <trkpt lat="49.49799" lon="-1.40477">
        <ele>71.6</ele>
        <time>2026-09-03T09:11:22.553Z</time>
      </trkpt>
      <trkpt lat="49.49797" lon="-1.4048">
        <ele>71.5</ele>
        <time>2026-09-03T09:11:24.536Z</time>
      </trkpt>
      <trkpt lat="49.49796" lon="-1.40481">
        <ele>71.4</ele>
        <time>2026-09-03T09:11:25.536Z</time>
      </trkpt>
      <trkpt lat="49.49795" lon="-1.40482">
        <ele>71.4</ele>
        <time>2026-09-03T09:11:26.559Z</time>
      </trkpt>
      <trkpt lat="49.49794" lon="-1.40483">
        <ele>71.4</ele>
        <time>2026-09-03T09:11:27.560Z</time>
      </trkpt>
      <trkpt lat="49.49793" lon="-1.40484">
        <ele>71.3</ele>
        <time>2026-09-03T09:11:28.561Z</time>
      </trkpt>
      <trkpt lat="49.49791" lon="-1.40485">
        <ele>71.3</ele>
        <time>2026-09-03T09:11:29.562Z</time>
      </trkpt>
      <trkpt lat="49.49789" lon="-1.40486">
        <ele>71.2</ele>
        <time>2026-09-03T09:11:31.515Z</time>
      </trkpt>
      <trkpt lat="49.49788" lon="-1.40488">
        <ele>71.2</ele>
        <time>2026-09-03T09:11:32.537Z</time>
      </trkpt>
      <trkpt lat="49.49786" lon="-1.40489">
        <ele>71.1</ele>
        <time>2026-09-03T09:11:34.579Z</time>
      </trkpt>
      <trkpt lat="49.49785" lon="-1.4049">
        <ele>71.1</ele>
        <time>2026-09-03T09:11:35.581Z</time>
      </trkpt>
      <trkpt lat="49.49783" lon="-1.40491">
        <ele>71.1</ele>
        <time>2026-09-03T09:11:37.536Z</time>
      </trkpt>
      <trkpt lat="49.49781" lon="-1.40492">
        <ele>71</ele>
        <time>2026-09-03T09:11:38.536Z</time>
      </trkpt>
      <trkpt lat="49.4978" lon="-1.40493">
        <ele>71</ele>
        <time>2026-09-03T09:11:39.536Z</time>
      </trkpt>
      <trkpt lat="49.49779" lon="-1.40495">
        <ele>71</ele>
        <time>2026-09-03T09:11:40.536Z</time>
      </trkpt>
      <trkpt lat="49.49778" lon="-1.40496">
        <ele>71</ele>
        <time>2026-09-03T09:11:41.536Z</time>
      </trkpt>
      <trkpt lat="49.49777" lon="-1.40498">
        <ele>71</ele>
        <time>2026-09-03T09:11:42.560Z</time>
      </trkpt>
      <trkpt lat="49.49775" lon="-1.405">
        <ele>70.9</ele>
        <time>2026-09-03T09:11:44.536Z</time>
      </trkpt>
      <trkpt lat="49.49775" lon="-1.40501">
        <ele>70.9</ele>
        <time>2026-09-03T09:11:45.536Z</time>
      </trkpt>
      <trkpt lat="49.49773" lon="-1.40502">
        <ele>70.8</ele>
        <time>2026-09-03T09:11:46.536Z</time>
      </trkpt>
      <trkpt lat="49.49772" lon="-1.40503">
        <ele>70.7</ele>
        <time>2026-09-03T09:11:47.536Z</time>
      </trkpt>
      <trkpt lat="49.4977" lon="-1.40505">
        <ele>70.6</ele>
        <time>2026-09-03T09:11:49.536Z</time>
      </trkpt>
      <trkpt lat="49.49768" lon="-1.40506">
        <ele>70.5</ele>
        <time>2026-09-03T09:11:50.536Z</time>
      </trkpt>
      <trkpt lat="49.49767" lon="-1.40507">
        <ele>70.5</ele>
        <time>2026-09-03T09:11:51.572Z</time>
      </trkpt>
      <trkpt lat="49.49766" lon="-1.40508">
        <ele>70.4</ele>
        <time>2026-09-03T09:11:52.573Z</time>
      </trkpt>
      <trkpt lat="49.49765" lon="-1.4051">
        <ele>70.3</ele>
        <time>2026-09-03T09:11:53.575Z</time>
      </trkpt>
      <trkpt lat="49.49764" lon="-1.40511">
        <ele>70.3</ele>
        <time>2026-09-03T09:11:54.576Z</time>
      </trkpt>
      <trkpt lat="49.49764" lon="-1.40513">
        <ele>70.3</ele>
        <time>2026-09-03T09:11:55.577Z</time>
      </trkpt>
      <trkpt lat="49.49762" lon="-1.40517">
        <ele>70.2</ele>
        <time>2026-09-03T09:11:57.600Z</time>
      </trkpt>
      <trkpt lat="49.49761" lon="-1.40518">
        <ele>70.1</ele>
        <time>2026-09-03T09:11:58.601Z</time>
      </trkpt>
      <trkpt lat="49.4976" lon="-1.40519">
        <ele>70.1</ele>
        <time>2026-09-03T09:12:00.514Z</time>
      </trkpt>
      <trkpt lat="49.49759" lon="-1.4052">
        <ele>70.1</ele>
        <time>2026-09-03T09:12:01.545Z</time>
      </trkpt>
      <trkpt lat="49.49758" lon="-1.40521">
        <ele>70.1</ele>
        <time>2026-09-03T09:12:02.576Z</time>
      </trkpt>
      <trkpt lat="49.49756" lon="-1.40523">
        <ele>70</ele>
        <time>2026-09-03T09:12:04.549Z</time>
      </trkpt>
      <trkpt lat="49.49754" lon="-1.40527">
        <ele>70</ele>
        <time>2026-09-03T09:12:06.572Z</time>
      </trkpt>
      <trkpt lat="49.49752" lon="-1.40529">
        <ele>70</ele>
        <time>2026-09-03T09:12:08.455Z</time>
      </trkpt>
      <trkpt lat="49.49751" lon="-1.4053">
        <ele>69.9</ele>
        <time>2026-09-03T09:12:09.496Z</time>
      </trkpt>
      <trkpt lat="49.4975" lon="-1.40531">
        <ele>69.9</ele>
        <time>2026-09-03T09:12:10.517Z</time>
      </trkpt>
      <trkpt lat="49.49749" lon="-1.40532">
        <ele>69.8</ele>
        <time>2026-09-03T09:12:11.539Z</time>
      </trkpt>
      <trkpt lat="49.49748" lon="-1.40533">
        <ele>69.7</ele>
        <time>2026-09-03T09:12:12.560Z</time>
      </trkpt>
      <trkpt lat="49.49747" lon="-1.40535">
        <ele>69.6</ele>
        <time>2026-09-03T09:12:13.601Z</time>
      </trkpt>
      <trkpt lat="49.49745" lon="-1.40538">
        <ele>69.5</ele>
        <time>2026-09-03T09:12:15.536Z</time>
      </trkpt>
      <trkpt lat="49.49744" lon="-1.40539">
        <ele>69.4</ele>
        <time>2026-09-03T09:12:16.536Z</time>
      </trkpt>
      <trkpt lat="49.49743" lon="-1.4054">
        <ele>69.3</ele>
        <time>2026-09-03T09:12:17.536Z</time>
      </trkpt>
      <trkpt lat="49.49742" lon="-1.40541">
        <ele>69.2</ele>
        <time>2026-09-03T09:12:18.536Z</time>
      </trkpt>
      <trkpt lat="49.49741" lon="-1.40542">
        <ele>69.2</ele>
        <time>2026-09-03T09:12:19.536Z</time>
      </trkpt>
      <trkpt lat="49.4974" lon="-1.40544">
        <ele>69.1</ele>
        <time>2026-09-03T09:12:20.536Z</time>
      </trkpt>
      <trkpt lat="49.4974" lon="-1.40545">
        <ele>69</ele>
        <time>2026-09-03T09:12:21.536Z</time>
      </trkpt>
      <trkpt lat="49.49739" lon="-1.40547">
        <ele>68.9</ele>
        <time>2026-09-03T09:12:22.536Z</time>
      </trkpt>
      <trkpt lat="49.49738" lon="-1.40548">
        <ele>68.8</ele>
        <time>2026-09-03T09:12:23.555Z</time>
      </trkpt>
      <trkpt lat="49.49737" lon="-1.4055">
        <ele>68.7</ele>
        <time>2026-09-03T09:12:24.556Z</time>
      </trkpt>
      <trkpt lat="49.49736" lon="-1.40551">
        <ele>68.7</ele>
        <time>2026-09-03T09:12:25.578Z</time>
      </trkpt>
      <trkpt lat="49.49734" lon="-1.40553">
        <ele>68.5</ele>
        <time>2026-09-03T09:12:27.536Z</time>
      </trkpt>
      <trkpt lat="49.49732" lon="-1.40555">
        <ele>68.4</ele>
        <time>2026-09-03T09:12:29.493Z</time>
      </trkpt>
      <trkpt lat="49.49731" lon="-1.40557">
        <ele>68.3</ele>
        <time>2026-09-03T09:12:30.514Z</time>
      </trkpt>
      <trkpt lat="49.4973" lon="-1.40557">
        <ele>68.3</ele>
        <time>2026-09-03T09:12:31.576Z</time>
      </trkpt>
      <trkpt lat="49.49728" lon="-1.40559">
        <ele>68.2</ele>
        <time>2026-09-03T09:12:33.588Z</time>
      </trkpt>
      <trkpt lat="49.49726" lon="-1.4056">
        <ele>68.1</ele>
        <time>2026-09-03T09:12:35.536Z</time>
      </trkpt>
      <trkpt lat="49.49725" lon="-1.40561">
        <ele>68.1</ele>
        <time>2026-09-03T09:12:36.536Z</time>
      </trkpt>
      <trkpt lat="49.49722" lon="-1.40564">
        <ele>68</ele>
        <time>2026-09-03T09:12:38.536Z</time>
      </trkpt>
      <trkpt lat="49.49721" lon="-1.40565">
        <ele>68</ele>
        <time>2026-09-03T09:12:39.576Z</time>
      </trkpt>
      <trkpt lat="49.49719" lon="-1.40567">
        <ele>68</ele>
        <time>2026-09-03T09:12:41.536Z</time>
      </trkpt>
      <trkpt lat="49.49717" lon="-1.40569">
        <ele>67.9</ele>
        <time>2026-09-03T09:12:43.582Z</time>
      </trkpt>
      <trkpt lat="49.49715" lon="-1.40571">
        <ele>67.9</ele>
        <time>2026-09-03T09:12:45.536Z</time>
      </trkpt>
      <trkpt lat="49.49714" lon="-1.40572">
        <ele>67.8</ele>
        <time>2026-09-03T09:12:46.536Z</time>
      </trkpt>
      <trkpt lat="49.49713" lon="-1.40573">
        <ele>67.8</ele>
        <time>2026-09-03T09:12:47.587Z</time>
      </trkpt>
      <trkpt lat="49.49711" lon="-1.40574">
        <ele>67.7</ele>
        <time>2026-09-03T09:12:49.599Z</time>
      </trkpt>
      <trkpt lat="49.4971" lon="-1.40575">
        <ele>67.7</ele>
        <time>2026-09-03T09:12:50.599Z</time>
      </trkpt>
      <trkpt lat="49.49708" lon="-1.40577">
        <ele>67.6</ele>
        <time>2026-09-03T09:12:52.574Z</time>
      </trkpt>
      <trkpt lat="49.49707" lon="-1.40578">
        <ele>67.6</ele>
        <time>2026-09-03T09:12:53.575Z</time>
      </trkpt>
      <trkpt lat="49.49705" lon="-1.40581">
        <ele>67.4</ele>
        <time>2026-09-03T09:12:55.498Z</time>
      </trkpt>
      <trkpt lat="49.49703" lon="-1.40582">
        <ele>67.3</ele>
        <time>2026-09-03T09:12:56.539Z</time>
      </trkpt>
      <trkpt lat="49.49702" lon="-1.40583">
        <ele>67.3</ele>
        <time>2026-09-03T09:12:57.600Z</time>
      </trkpt>
      <trkpt lat="49.497" lon="-1.40584">
        <ele>67.2</ele>
        <time>2026-09-03T09:12:59.536Z</time>
      </trkpt>
      <trkpt lat="49.49699" lon="-1.40585">
        <ele>67.1</ele>
        <time>2026-09-03T09:13:00.536Z</time>
      </trkpt>
      <trkpt lat="49.49697" lon="-1.40585">
        <ele>67</ele>
        <time>2026-09-03T09:13:01.536Z</time>
      </trkpt>
      <trkpt lat="49.49696" lon="-1.40587">
        <ele>66.9</ele>
        <time>2026-09-03T09:13:02.536Z</time>
      </trkpt>
      <trkpt lat="49.49693" lon="-1.40589">
        <ele>66.8</ele>
        <time>2026-09-03T09:13:04.460Z</time>
      </trkpt>
      <trkpt lat="49.49692" lon="-1.4059">
        <ele>66.7</ele>
        <time>2026-09-03T09:13:05.521Z</time>
      </trkpt>
      <trkpt lat="49.49691" lon="-1.4059">
        <ele>66.7</ele>
        <time>2026-09-03T09:13:06.552Z</time>
      </trkpt>
      <trkpt lat="49.49688" lon="-1.40591">
        <ele>66.6</ele>
        <time>2026-09-03T09:13:08.536Z</time>
      </trkpt>
      <trkpt lat="49.49686" lon="-1.40591">
        <ele>66.5</ele>
        <time>2026-09-03T09:13:09.536Z</time>
      </trkpt>
      <trkpt lat="49.49685" lon="-1.40591">
        <ele>66.5</ele>
        <time>2026-09-03T09:13:10.536Z</time>
      </trkpt>
      <trkpt lat="49.49683" lon="-1.40591">
        <ele>66.4</ele>
        <time>2026-09-03T09:13:11.536Z</time>
      </trkpt>
      <trkpt lat="49.49682" lon="-1.40591">
        <ele>66.4</ele>
        <time>2026-09-03T09:13:12.536Z</time>
      </trkpt>
      <trkpt lat="49.49681" lon="-1.40591">
        <ele>66.4</ele>
        <time>2026-09-03T09:13:13.536Z</time>
      </trkpt>
      <trkpt lat="49.4968" lon="-1.40592">
        <ele>66.3</ele>
        <time>2026-09-03T09:13:14.536Z</time>
      </trkpt>
      <trkpt lat="49.49679" lon="-1.40592">
        <ele>66.3</ele>
        <time>2026-09-03T09:13:15.536Z</time>
      </trkpt>
      <trkpt lat="49.49677" lon="-1.40592">
        <ele>66.3</ele>
        <time>2026-09-03T09:13:16.536Z</time>
      </trkpt>
      <trkpt lat="49.49676" lon="-1.40592">
        <ele>66.2</ele>
        <time>2026-09-03T09:13:17.536Z</time>
      </trkpt>
      <trkpt lat="49.49674" lon="-1.40593">
        <ele>66.2</ele>
        <time>2026-09-03T09:13:18.536Z</time>
      </trkpt>
      <trkpt lat="49.49673" lon="-1.40593">
        <ele>66.1</ele>
        <time>2026-09-03T09:13:19.536Z</time>
      </trkpt>
      <trkpt lat="49.49672" lon="-1.40593">
        <ele>66.1</ele>
        <time>2026-09-03T09:13:20.571Z</time>
      </trkpt>
      <trkpt lat="49.4967" lon="-1.40593">
        <ele>66.1</ele>
        <time>2026-09-03T09:13:21.573Z</time>
      </trkpt>
      <trkpt lat="49.49668" lon="-1.40593">
        <ele>66</ele>
        <time>2026-09-03T09:13:23.475Z</time>
      </trkpt>
      <trkpt lat="49.49667" lon="-1.40593">
        <ele>66</ele>
        <time>2026-09-03T09:13:24.516Z</time>
      </trkpt>
      <trkpt lat="49.49666" lon="-1.40594">
        <ele>66</ele>
        <time>2026-09-03T09:13:25.558Z</time>
      </trkpt>
      <trkpt lat="49.49665" lon="-1.40594">
        <ele>65.9</ele>
        <time>2026-09-03T09:13:26.579Z</time>
      </trkpt>
      <trkpt lat="49.49662" lon="-1.40594">
        <ele>65.8</ele>
        <time>2026-09-03T09:13:28.582Z</time>
      </trkpt>
      <trkpt lat="49.49661" lon="-1.40595">
        <ele>65.8</ele>
        <time>2026-09-03T09:13:29.583Z</time>
      </trkpt>
      <trkpt lat="49.49658" lon="-1.40596">
        <ele>65.7</ele>
        <time>2026-09-03T09:13:31.536Z</time>
      </trkpt>
      <trkpt lat="49.49655" lon="-1.40595">
        <ele>65.6</ele>
        <time>2026-09-03T09:13:33.559Z</time>
      </trkpt>
      <trkpt lat="49.49652" lon="-1.40594">
        <ele>65.5</ele>
        <time>2026-09-03T09:13:35.536Z</time>
      </trkpt>
      <trkpt lat="49.4965" lon="-1.40594">
        <ele>65.4</ele>
        <time>2026-09-03T09:13:36.536Z</time>
      </trkpt>
      <trkpt lat="49.49649" lon="-1.40594">
        <ele>65.4</ele>
        <time>2026-09-03T09:13:37.574Z</time>
      </trkpt>
      <trkpt lat="49.49648" lon="-1.40594">
        <ele>65.3</ele>
        <time>2026-09-03T09:13:38.599Z</time>
      </trkpt>
      <trkpt lat="49.49646" lon="-1.40594">
        <ele>65.3</ele>
        <time>2026-09-03T09:13:40.558Z</time>
      </trkpt>
      <trkpt lat="49.49644" lon="-1.40594">
        <ele>65.2</ele>
        <time>2026-09-03T09:13:41.559Z</time>
      </trkpt>
      <trkpt lat="49.49643" lon="-1.40595">
        <ele>65.1</ele>
        <time>2026-09-03T09:13:42.561Z</time>
      </trkpt>
      <trkpt lat="49.49641" lon="-1.40595">
        <ele>65.1</ele>
        <time>2026-09-03T09:13:43.562Z</time>
      </trkpt>
      <trkpt lat="49.49638" lon="-1.40594">
        <ele>65</ele>
        <time>2026-09-03T09:13:45.599Z</time>
      </trkpt>
      <trkpt lat="49.49635" lon="-1.40593">
        <ele>64.9</ele>
        <time>2026-09-03T09:13:47.567Z</time>
      </trkpt>
      <trkpt lat="49.49634" lon="-1.40592">
        <ele>64.8</ele>
        <time>2026-09-03T09:13:48.569Z</time>
      </trkpt>
      <trkpt lat="49.49633" lon="-1.40592">
        <ele>64.8</ele>
        <time>2026-09-03T09:13:49.570Z</time>
      </trkpt>
      <trkpt lat="49.49629" lon="-1.40594">
        <ele>64.6</ele>
        <time>2026-09-03T09:13:51.536Z</time>
      </trkpt>
      <trkpt lat="49.49628" lon="-1.40594">
        <ele>64.6</ele>
        <time>2026-09-03T09:13:52.536Z</time>
      </trkpt>
      <trkpt lat="49.49625" lon="-1.40595">
        <ele>64.5</ele>
        <time>2026-09-03T09:13:54.497Z</time>
      </trkpt>
      <trkpt lat="49.49623" lon="-1.40595">
        <ele>64.4</ele>
        <time>2026-09-03T09:13:55.538Z</time>
      </trkpt>
      <trkpt lat="49.49622" lon="-1.40595">
        <ele>64.4</ele>
        <time>2026-09-03T09:13:56.579Z</time>
      </trkpt>
      <trkpt lat="49.4962" lon="-1.40594">
        <ele>64.3</ele>
        <time>2026-09-03T09:13:58.562Z</time>
      </trkpt>
      <trkpt lat="49.49619" lon="-1.40593">
        <ele>64.3</ele>
        <time>2026-09-03T09:13:59.563Z</time>
      </trkpt>
      <trkpt lat="49.49616" lon="-1.40592">
        <ele>64.2</ele>
        <time>2026-09-03T09:14:01.496Z</time>
      </trkpt>
      <trkpt lat="49.49615" lon="-1.40591">
        <ele>64.1</ele>
        <time>2026-09-03T09:14:02.536Z</time>
      </trkpt>
      <trkpt lat="49.49612" lon="-1.4059">
        <ele>64</ele>
        <time>2026-09-03T09:14:04.500Z</time>
      </trkpt>
      <trkpt lat="49.4961" lon="-1.4059">
        <ele>63.9</ele>
        <time>2026-09-03T09:14:06.573Z</time>
      </trkpt>
      <trkpt lat="49.49608" lon="-1.4059">
        <ele>63.8</ele>
        <time>2026-09-03T09:14:08.536Z</time>
      </trkpt>
      <trkpt lat="49.49607" lon="-1.4059">
        <ele>63.7</ele>
        <time>2026-09-03T09:14:09.536Z</time>
      </trkpt>
      <trkpt lat="49.49606" lon="-1.4059">
        <ele>63.6</ele>
        <time>2026-09-03T09:14:10.536Z</time>
      </trkpt>
      <trkpt lat="49.49604" lon="-1.40591">
        <ele>63.5</ele>
        <time>2026-09-03T09:14:11.536Z</time>
      </trkpt>
      <trkpt lat="49.49603" lon="-1.40592">
        <ele>63.4</ele>
        <time>2026-09-03T09:14:12.536Z</time>
      </trkpt>
      <trkpt lat="49.49602" lon="-1.40594">
        <ele>63.3</ele>
        <time>2026-09-03T09:14:13.536Z</time>
      </trkpt>
      <trkpt lat="49.49601" lon="-1.40594">
        <ele>63.3</ele>
        <time>2026-09-03T09:14:14.536Z</time>
      </trkpt>
      <trkpt lat="49.496" lon="-1.40595">
        <ele>63.2</ele>
        <time>2026-09-03T09:14:15.536Z</time>
      </trkpt>
      <trkpt lat="49.49599" lon="-1.40596">
        <ele>63.1</ele>
        <time>2026-09-03T09:14:16.536Z</time>
      </trkpt>
      <trkpt lat="49.49596" lon="-1.40595">
        <ele>62.9</ele>
        <time>2026-09-03T09:14:18.536Z</time>
      </trkpt>
      <trkpt lat="49.49595" lon="-1.40594">
        <ele>62.8</ele>
        <time>2026-09-03T09:14:19.536Z</time>
      </trkpt>
      <trkpt lat="49.49594" lon="-1.40595">
        <ele>62.8</ele>
        <time>2026-09-03T09:14:20.572Z</time>
      </trkpt>
      <trkpt lat="49.49592" lon="-1.40596">
        <ele>62.6</ele>
        <time>2026-09-03T09:14:22.536Z</time>
      </trkpt>
      <trkpt lat="49.49591" lon="-1.40596">
        <ele>62.6</ele>
        <time>2026-09-03T09:14:23.536Z</time>
      </trkpt>
      <trkpt lat="49.49589" lon="-1.40597">
        <ele>62.4</ele>
        <time>2026-09-03T09:14:24.536Z</time>
      </trkpt>
      <trkpt lat="49.49588" lon="-1.40597">
        <ele>62.3</ele>
        <time>2026-09-03T09:14:25.536Z</time>
      </trkpt>
      <trkpt lat="49.49587" lon="-1.40598">
        <ele>62.3</ele>
        <time>2026-09-03T09:14:26.536Z</time>
      </trkpt>
      <trkpt lat="49.49585" lon="-1.40598">
        <ele>62.1</ele>
        <time>2026-09-03T09:14:27.536Z</time>
      </trkpt>
      <trkpt lat="49.49584" lon="-1.40597">
        <ele>62</ele>
        <time>2026-09-03T09:14:28.536Z</time>
      </trkpt>
      <trkpt lat="49.49583" lon="-1.40598">
        <ele>62</ele>
        <time>2026-09-03T09:14:29.536Z</time>
      </trkpt>
      <trkpt lat="49.49582" lon="-1.40602">
        <ele>61.9</ele>
        <time>2026-09-03T09:14:31.517Z</time>
      </trkpt>
      <trkpt lat="49.49581" lon="-1.40602">
        <ele>61.8</ele>
        <time>2026-09-03T09:14:32.536Z</time>
      </trkpt>
      <trkpt lat="49.49577" lon="-1.40602">
        <ele>61.5</ele>
        <time>2026-09-03T09:14:34.536Z</time>
      </trkpt>
      <trkpt lat="49.49575" lon="-1.40602">
        <ele>61.4</ele>
        <time>2026-09-03T09:14:35.536Z</time>
      </trkpt>
      <trkpt lat="49.49574" lon="-1.40603">
        <ele>61.3</ele>
        <time>2026-09-03T09:14:36.536Z</time>
      </trkpt>
      <trkpt lat="49.49573" lon="-1.40604">
        <ele>61.3</ele>
        <time>2026-09-03T09:14:37.536Z</time>
      </trkpt>
      <trkpt lat="49.49572" lon="-1.40605">
        <ele>61.2</ele>
        <time>2026-09-03T09:14:38.536Z</time>
      </trkpt>
      <trkpt lat="49.49571" lon="-1.40606">
        <ele>61.1</ele>
        <time>2026-09-03T09:14:39.536Z</time>
      </trkpt>
      <trkpt lat="49.4957" lon="-1.40608">
        <ele>61</ele>
        <time>2026-09-03T09:14:40.536Z</time>
      </trkpt>
      <trkpt lat="49.49568" lon="-1.40611">
        <ele>60.9</ele>
        <time>2026-09-03T09:14:42.472Z</time>
      </trkpt>
      <trkpt lat="49.49567" lon="-1.40613">
        <ele>60.8</ele>
        <time>2026-09-03T09:14:44.536Z</time>
      </trkpt>
      <trkpt lat="49.49566" lon="-1.40614">
        <ele>60.8</ele>
        <time>2026-09-03T09:14:45.536Z</time>
      </trkpt>
      <trkpt lat="49.49565" lon="-1.40615">
        <ele>60.7</ele>
        <time>2026-09-03T09:14:46.536Z</time>
      </trkpt>
      <trkpt lat="49.49564" lon="-1.40616">
        <ele>60.6</ele>
        <time>2026-09-03T09:14:47.536Z</time>
      </trkpt>
      <trkpt lat="49.49562" lon="-1.40618">
        <ele>60.5</ele>
        <time>2026-09-03T09:14:49.492Z</time>
      </trkpt>
      <trkpt lat="49.49561" lon="-1.40619">
        <ele>60.4</ele>
        <time>2026-09-03T09:14:50.573Z</time>
      </trkpt>
      <trkpt lat="49.49559" lon="-1.40621">
        <ele>60.2</ele>
        <time>2026-09-03T09:14:52.536Z</time>
      </trkpt>
      <trkpt lat="49.49558" lon="-1.40622">
        <ele>60.2</ele>
        <time>2026-09-03T09:14:53.538Z</time>
      </trkpt>
      <trkpt lat="49.49557" lon="-1.40623">
        <ele>60.1</ele>
        <time>2026-09-03T09:14:54.539Z</time>
      </trkpt>
      <trkpt lat="49.49556" lon="-1.40624">
        <ele>60</ele>
        <time>2026-09-03T09:14:55.540Z</time>
      </trkpt>
      <trkpt lat="49.49555" lon="-1.40625">
        <ele>60</ele>
        <time>2026-09-03T09:14:56.542Z</time>
      </trkpt>
      <trkpt lat="49.49554" lon="-1.40626">
        <ele>59.9</ele>
        <time>2026-09-03T09:14:57.543Z</time>
      </trkpt>
      <trkpt lat="49.49553" lon="-1.40626">
        <ele>59.8</ele>
        <time>2026-09-03T09:14:58.544Z</time>
      </trkpt>
      <trkpt lat="49.49551" lon="-1.40627">
        <ele>59.7</ele>
        <time>2026-09-03T09:14:59.546Z</time>
      </trkpt>
      <trkpt lat="49.4955" lon="-1.40628">
        <ele>59.6</ele>
        <time>2026-09-03T09:15:00.547Z</time>
      </trkpt>
      <trkpt lat="49.49548" lon="-1.4063">
        <ele>59.5</ele>
        <time>2026-09-03T09:15:02.480Z</time>
      </trkpt>
      <trkpt lat="49.49546" lon="-1.40631">
        <ele>59.3</ele>
        <time>2026-09-03T09:15:03.541Z</time>
      </trkpt>
      <trkpt lat="49.49544" lon="-1.40632">
        <ele>59.2</ele>
        <time>2026-09-03T09:15:05.554Z</time>
      </trkpt>
      <trkpt lat="49.49543" lon="-1.40634">
        <ele>59.1</ele>
        <time>2026-09-03T09:15:06.555Z</time>
      </trkpt>
      <trkpt lat="49.49542" lon="-1.40634">
        <ele>59</ele>
        <time>2026-09-03T09:15:07.557Z</time>
      </trkpt>
      <trkpt lat="49.49541" lon="-1.40634">
        <ele>59</ele>
        <time>2026-09-03T09:15:08.558Z</time>
      </trkpt>
      <trkpt lat="49.49539" lon="-1.40635">
        <ele>58.8</ele>
        <time>2026-09-03T09:15:10.401Z</time>
      </trkpt>
      <trkpt lat="49.49538" lon="-1.40634">
        <ele>58.7</ele>
        <time>2026-09-03T09:15:11.452Z</time>
      </trkpt>
      <trkpt lat="49.49537" lon="-1.40635">
        <ele>58.7</ele>
        <time>2026-09-03T09:15:12.513Z</time>
      </trkpt>
      <trkpt lat="49.49536" lon="-1.40636">
        <ele>58.6</ele>
        <time>2026-09-03T09:15:13.575Z</time>
      </trkpt>
      <trkpt lat="49.49534" lon="-1.40639">
        <ele>58.4</ele>
        <time>2026-09-03T09:15:15.568Z</time>
      </trkpt>
      <trkpt lat="49.49533" lon="-1.4064">
        <ele>58.4</ele>
        <time>2026-09-03T09:15:16.569Z</time>
      </trkpt>
      <trkpt lat="49.49531" lon="-1.40642">
        <ele>58.2</ele>
        <time>2026-09-03T09:15:18.572Z</time>
      </trkpt>
      <trkpt lat="49.4953" lon="-1.40643">
        <ele>58.1</ele>
        <time>2026-09-03T09:15:19.573Z</time>
      </trkpt>
      <trkpt lat="49.49529" lon="-1.40644">
        <ele>58.1</ele>
        <time>2026-09-03T09:15:20.574Z</time>
      </trkpt>
      <trkpt lat="49.49526" lon="-1.40645">
        <ele>57.9</ele>
        <time>2026-09-03T09:15:22.536Z</time>
      </trkpt>
      <trkpt lat="49.49525" lon="-1.40645">
        <ele>57.8</ele>
        <time>2026-09-03T09:15:23.536Z</time>
      </trkpt>
      <trkpt lat="49.49522" lon="-1.40647">
        <ele>57.6</ele>
        <time>2026-09-03T09:15:25.561Z</time>
      </trkpt>
      <trkpt lat="49.49521" lon="-1.40648">
        <ele>57.5</ele>
        <time>2026-09-03T09:15:26.573Z</time>
      </trkpt>
      <trkpt lat="49.4952" lon="-1.40649">
        <ele>57.4</ele>
        <time>2026-09-03T09:15:27.584Z</time>
      </trkpt>
      <trkpt lat="49.49518" lon="-1.40651">
        <ele>57.3</ele>
        <time>2026-09-03T09:15:29.536Z</time>
      </trkpt>
      <trkpt lat="49.49517" lon="-1.40652">
        <ele>57.2</ele>
        <time>2026-09-03T09:15:30.536Z</time>
      </trkpt>
      <trkpt lat="49.49516" lon="-1.40653">
        <ele>57.2</ele>
        <time>2026-09-03T09:15:31.536Z</time>
      </trkpt>
      <trkpt lat="49.49513" lon="-1.40655">
        <ele>56.9</ele>
        <time>2026-09-03T09:15:33.492Z</time>
      </trkpt>
      <trkpt lat="49.49512" lon="-1.40656">
        <ele>56.9</ele>
        <time>2026-09-03T09:15:34.533Z</time>
      </trkpt>
      <trkpt lat="49.49511" lon="-1.40657">
        <ele>56.8</ele>
        <time>2026-09-03T09:15:35.555Z</time>
      </trkpt>
      <trkpt lat="49.49509" lon="-1.40656">
        <ele>56.6</ele>
        <time>2026-09-03T09:15:37.536Z</time>
      </trkpt>
      <trkpt lat="49.49508" lon="-1.40655">
        <ele>56.6</ele>
        <time>2026-09-03T09:15:38.536Z</time>
      </trkpt>
      <trkpt lat="49.49507" lon="-1.40656">
        <ele>56.5</ele>
        <time>2026-09-03T09:15:39.536Z</time>
      </trkpt>
      <trkpt lat="49.49506" lon="-1.40657">
        <ele>56.4</ele>
        <time>2026-09-03T09:15:40.536Z</time>
      </trkpt>
      <trkpt lat="49.49505" lon="-1.40659">
        <ele>56.4</ele>
        <time>2026-09-03T09:15:41.536Z</time>
      </trkpt>
      <trkpt lat="49.49504" lon="-1.4066">
        <ele>56.3</ele>
        <time>2026-09-03T09:15:42.536Z</time>
      </trkpt>
      <trkpt lat="49.49503" lon="-1.40662">
        <ele>56.2</ele>
        <time>2026-09-03T09:15:43.536Z</time>
      </trkpt>
      <trkpt lat="49.49502" lon="-1.40664">
        <ele>56.1</ele>
        <time>2026-09-03T09:15:44.536Z</time>
      </trkpt>
      <trkpt lat="49.49501" lon="-1.40665">
        <ele>56.1</ele>
        <time>2026-09-03T09:15:45.536Z</time>
      </trkpt>
      <trkpt lat="49.49499" lon="-1.40666">
        <ele>56</ele>
        <time>2026-09-03T09:15:46.536Z</time>
      </trkpt>
      <trkpt lat="49.49497" lon="-1.40668">
        <ele>56</ele>
        <time>2026-09-03T09:15:48.513Z</time>
      </trkpt>
      <trkpt lat="49.49496" lon="-1.40669">
        <ele>56</ele>
        <time>2026-09-03T09:15:49.536Z</time>
      </trkpt>
      <trkpt lat="49.49494" lon="-1.4067">
        <ele>56</ele>
        <time>2026-09-03T09:15:50.536Z</time>
      </trkpt>
      <trkpt lat="49.49493" lon="-1.40671">
        <ele>56</ele>
        <time>2026-09-03T09:15:51.577Z</time>
      </trkpt>
      <trkpt lat="49.4949" lon="-1.40671">
        <ele>56</ele>
        <time>2026-09-03T09:15:53.536Z</time>
      </trkpt>
      <trkpt lat="49.49488" lon="-1.40671">
        <ele>56</ele>
        <time>2026-09-03T09:15:54.536Z</time>
      </trkpt>
      <trkpt lat="49.49487" lon="-1.4067">
        <ele>56</ele>
        <time>2026-09-03T09:15:55.536Z</time>
      </trkpt>
      <trkpt lat="49.49486" lon="-1.4067">
        <ele>56</ele>
        <time>2026-09-03T09:15:56.536Z</time>
      </trkpt>
      <trkpt lat="49.49485" lon="-1.4067">
        <ele>56</ele>
        <time>2026-09-03T09:15:57.536Z</time>
      </trkpt>
      <trkpt lat="49.49482" lon="-1.40669">
        <ele>56</ele>
        <time>2026-09-03T09:15:59.558Z</time>
      </trkpt>
      <trkpt lat="49.4948" lon="-1.4067">
        <ele>56</ele>
        <time>2026-09-03T09:16:01.536Z</time>
      </trkpt>
      <trkpt lat="49.49479" lon="-1.40669">
        <ele>56</ele>
        <time>2026-09-03T09:16:02.536Z</time>
      </trkpt>
      <trkpt lat="49.49478" lon="-1.40669">
        <ele>56</ele>
        <time>2026-09-03T09:16:03.536Z</time>
      </trkpt>
      <trkpt lat="49.49476" lon="-1.40668">
        <ele>56</ele>
        <time>2026-09-03T09:16:04.536Z</time>
      </trkpt>
      <trkpt lat="49.49475" lon="-1.40668">
        <ele>56</ele>
        <time>2026-09-03T09:16:05.537Z</time>
      </trkpt>
      <trkpt lat="49.49474" lon="-1.40668">
        <ele>56</ele>
        <time>2026-09-03T09:16:06.538Z</time>
      </trkpt>
      <trkpt lat="49.49473" lon="-1.40667">
        <ele>56</ele>
        <time>2026-09-03T09:16:07.540Z</time>
      </trkpt>
      <trkpt lat="49.49472" lon="-1.40667">
        <ele>56</ele>
        <time>2026-09-03T09:16:08.541Z</time>
      </trkpt>
      <trkpt lat="49.49471" lon="-1.40665">
        <ele>56.1</ele>
        <time>2026-09-03T09:16:09.543Z</time>
      </trkpt>
      <trkpt lat="49.49469" lon="-1.40664">
        <ele>56.3</ele>
        <time>2026-09-03T09:16:10.544Z</time>
      </trkpt>
      <trkpt lat="49.49468" lon="-1.40662">
        <ele>56.4</ele>
        <time>2026-09-03T09:16:11.545Z</time>
      </trkpt>
      <trkpt lat="49.49467" lon="-1.4066">
        <ele>56.6</ele>
        <time>2026-09-03T09:16:12.547Z</time>
      </trkpt>
      <trkpt lat="49.49467" lon="-1.40658">
        <ele>56.6</ele>
        <time>2026-09-03T09:16:13.548Z</time>
      </trkpt>
      <trkpt lat="49.49466" lon="-1.40657">
        <ele>56.7</ele>
        <time>2026-09-03T09:16:14.550Z</time>
      </trkpt>
      <trkpt lat="49.49464" lon="-1.40655">
        <ele>56.9</ele>
        <time>2026-09-03T09:16:16.573Z</time>
      </trkpt>
      <trkpt lat="49.49462" lon="-1.40653">
        <ele>57</ele>
        <time>2026-09-03T09:16:18.555Z</time>
      </trkpt>
      <trkpt lat="49.49459" lon="-1.40652">
        <ele>57.2</ele>
        <time>2026-09-03T09:16:20.558Z</time>
      </trkpt>
      <trkpt lat="49.49458" lon="-1.40651">
        <ele>57.3</ele>
        <time>2026-09-03T09:16:21.560Z</time>
      </trkpt>
      <trkpt lat="49.49456" lon="-1.40651">
        <ele>57.4</ele>
        <time>2026-09-03T09:16:22.561Z</time>
      </trkpt>
      <trkpt lat="49.49455" lon="-1.4065">
        <ele>57.5</ele>
        <time>2026-09-03T09:16:23.562Z</time>
      </trkpt>
      <trkpt lat="49.49454" lon="-1.40649">
        <ele>57.5</ele>
        <time>2026-09-03T09:16:24.564Z</time>
      </trkpt>
      <trkpt lat="49.49452" lon="-1.40648">
        <ele>57.6</ele>
        <time>2026-09-03T09:16:25.565Z</time>
      </trkpt>
      <trkpt lat="49.49451" lon="-1.40648">
        <ele>57.7</ele>
        <time>2026-09-03T09:16:26.567Z</time>
      </trkpt>
      <trkpt lat="49.49449" lon="-1.40646">
        <ele>57.8</ele>
        <time>2026-09-03T09:16:28.536Z</time>
      </trkpt>
      <trkpt lat="49.49447" lon="-1.40644">
        <ele>57.9</ele>
        <time>2026-09-03T09:16:29.536Z</time>
      </trkpt>
      <trkpt lat="49.49445" lon="-1.40642">
        <ele>58</ele>
        <time>2026-09-03T09:16:31.536Z</time>
      </trkpt>
      <trkpt lat="49.49443" lon="-1.4064">
        <ele>58.1</ele>
        <time>2026-09-03T09:16:33.577Z</time>
      </trkpt>
      <trkpt lat="49.49442" lon="-1.40637">
        <ele>58.2</ele>
        <time>2026-09-03T09:16:35.535Z</time>
      </trkpt>
      <trkpt lat="49.49441" lon="-1.40634">
        <ele>58.4</ele>
        <time>2026-09-03T09:16:36.581Z</time>
      </trkpt>
      <trkpt lat="49.49441" lon="-1.40631">
        <ele>58.5</ele>
        <time>2026-09-03T09:16:38.473Z</time>
      </trkpt>
      <trkpt lat="49.4944" lon="-1.40629">
        <ele>58.6</ele>
        <time>2026-09-03T09:16:39.536Z</time>
      </trkpt>
      <trkpt lat="49.49439" lon="-1.40628">
        <ele>58.7</ele>
        <time>2026-09-03T09:16:40.536Z</time>
      </trkpt>
      <trkpt lat="49.49438" lon="-1.40625">
        <ele>58.8</ele>
        <time>2026-09-03T09:16:42.439Z</time>
      </trkpt>
      <trkpt lat="49.49439" lon="-1.40624">
        <ele>58.8</ele>
        <time>2026-09-03T09:16:43.536Z</time>
      </trkpt>
      <trkpt lat="49.4944" lon="-1.40623">
        <ele>58.8</ele>
        <time>2026-09-03T09:16:44.536Z</time>
      </trkpt>
      <trkpt lat="49.4944" lon="-1.40624">
        <ele>58.8</ele>
        <time>2026-09-03T09:16:45.536Z</time>
      </trkpt>
      <trkpt lat="49.4944" lon="-1.40624">
        <ele>58.8</ele>
        <time>2026-09-03T09:16:46.536Z</time>
      </trkpt>
      <trkpt lat="49.4944" lon="-1.40625">
        <ele>58.7</ele>
        <time>2026-09-03T09:16:47.536Z</time>
      </trkpt>
      <trkpt lat="49.49437" lon="-1.40625">
        <ele>58.9</ele>
        <time>2026-09-03T09:16:49.539Z</time>
      </trkpt>
      <trkpt lat="49.49434" lon="-1.40626">
        <ele>59</ele>
        <time>2026-09-03T09:16:51.536Z</time>
      </trkpt>
      <trkpt lat="49.49433" lon="-1.40626">
        <ele>59.1</ele>
        <time>2026-09-03T09:16:52.536Z</time>
      </trkpt>
      <trkpt lat="49.49432" lon="-1.40626">
        <ele>59.2</ele>
        <time>2026-09-03T09:16:53.536Z</time>
      </trkpt>
      <trkpt lat="49.49429" lon="-1.40625">
        <ele>59.3</ele>
        <time>2026-09-03T09:16:55.536Z</time>
      </trkpt>
      <trkpt lat="49.49428" lon="-1.40625">
        <ele>59.4</ele>
        <time>2026-09-03T09:16:56.536Z</time>
      </trkpt>
      <trkpt lat="49.49427" lon="-1.40624">
        <ele>59.5</ele>
        <time>2026-09-03T09:16:57.536Z</time>
      </trkpt>
      <trkpt lat="49.49426" lon="-1.40623">
        <ele>59.5</ele>
        <time>2026-09-03T09:16:58.536Z</time>
      </trkpt>
      <trkpt lat="49.49423" lon="-1.40623">
        <ele>59.7</ele>
        <time>2026-09-03T09:17:00.514Z</time>
      </trkpt>
      <trkpt lat="49.49422" lon="-1.40623">
        <ele>59.7</ele>
        <time>2026-09-03T09:17:01.535Z</time>
      </trkpt>
      <trkpt lat="49.49421" lon="-1.40624">
        <ele>59.8</ele>
        <time>2026-09-03T09:17:02.536Z</time>
      </trkpt>
      <trkpt lat="49.4942" lon="-1.40625">
        <ele>59.8</ele>
        <time>2026-09-03T09:17:03.536Z</time>
      </trkpt>
      <trkpt lat="49.49419" lon="-1.40626">
        <ele>59.9</ele>
        <time>2026-09-03T09:17:04.536Z</time>
      </trkpt>
      <trkpt lat="49.49418" lon="-1.40627">
        <ele>59.9</ele>
        <time>2026-09-03T09:17:05.541Z</time>
      </trkpt>
      <trkpt lat="49.49415" lon="-1.40629">
        <ele>60.1</ele>
        <time>2026-09-03T09:17:07.536Z</time>
      </trkpt>
      <trkpt lat="49.49414" lon="-1.4063">
        <ele>60.1</ele>
        <time>2026-09-03T09:17:08.536Z</time>
      </trkpt>
      <trkpt lat="49.49413" lon="-1.4063">
        <ele>60.1</ele>
        <time>2026-09-03T09:17:09.536Z</time>
      </trkpt>
      <trkpt lat="49.49412" lon="-1.40631">
        <ele>60.2</ele>
        <time>2026-09-03T09:17:10.536Z</time>
      </trkpt>
      <trkpt lat="49.4941" lon="-1.40632">
        <ele>60.2</ele>
        <time>2026-09-03T09:17:11.536Z</time>
      </trkpt>
      <trkpt lat="49.49409" lon="-1.40633">
        <ele>60.3</ele>
        <time>2026-09-03T09:17:12.536Z</time>
      </trkpt>
      <trkpt lat="49.49407" lon="-1.40636">
        <ele>60.3</ele>
        <time>2026-09-03T09:17:14.454Z</time>
      </trkpt>
      <trkpt lat="49.49406" lon="-1.40637">
        <ele>60.4</ele>
        <time>2026-09-03T09:17:15.495Z</time>
      </trkpt>
      <trkpt lat="49.49405" lon="-1.40638">
        <ele>60.4</ele>
        <time>2026-09-03T09:17:16.577Z</time>
      </trkpt>
      <trkpt lat="49.49403" lon="-1.40641">
        <ele>60.4</ele>
        <time>2026-09-03T09:17:18.539Z</time>
      </trkpt>
      <trkpt lat="49.49402" lon="-1.40642">
        <ele>60.4</ele>
        <time>2026-09-03T09:17:19.541Z</time>
      </trkpt>
      <trkpt lat="49.494" lon="-1.40645">
        <ele>60.4</ele>
        <time>2026-09-03T09:17:21.514Z</time>
      </trkpt>
      <trkpt lat="49.49399" lon="-1.40646">
        <ele>60.4</ele>
        <time>2026-09-03T09:17:22.575Z</time>
      </trkpt>
      <trkpt lat="49.49396" lon="-1.40647">
        <ele>60.5</ele>
        <time>2026-09-03T09:17:24.548Z</time>
      </trkpt>
      <trkpt lat="49.49395" lon="-1.40648">
        <ele>60.5</ele>
        <time>2026-09-03T09:17:25.549Z</time>
      </trkpt>
      <trkpt lat="49.49394" lon="-1.40649">
        <ele>60.5</ele>
        <time>2026-09-03T09:17:26.550Z</time>
      </trkpt>
      <trkpt lat="49.49393" lon="-1.4065">
        <ele>60.5</ele>
        <time>2026-09-03T09:17:27.552Z</time>
      </trkpt>
      <trkpt lat="49.49391" lon="-1.40651">
        <ele>60.5</ele>
        <time>2026-09-03T09:17:28.553Z</time>
      </trkpt>
      <trkpt lat="49.4939" lon="-1.40652">
        <ele>60.5</ele>
        <time>2026-09-03T09:17:29.555Z</time>
      </trkpt>
      <trkpt lat="49.49389" lon="-1.40652">
        <ele>60.5</ele>
        <time>2026-09-03T09:17:30.556Z</time>
      </trkpt>
      <trkpt lat="49.49388" lon="-1.40652">
        <ele>60.5</ele>
        <time>2026-09-03T09:17:31.558Z</time>
      </trkpt>
      <trkpt lat="49.49385" lon="-1.40655">
        <ele>60.5</ele>
        <time>2026-09-03T09:17:33.520Z</time>
      </trkpt>
      <trkpt lat="49.49384" lon="-1.40656">
        <ele>60.5</ele>
        <time>2026-09-03T09:17:34.562Z</time>
      </trkpt>
      <trkpt lat="49.49383" lon="-1.40657">
        <ele>60.5</ele>
        <time>2026-09-03T09:17:35.563Z</time>
      </trkpt>
      <trkpt lat="49.49382" lon="-1.40658">
        <ele>60.5</ele>
        <time>2026-09-03T09:17:36.565Z</time>
      </trkpt>
      <trkpt lat="49.49379" lon="-1.4066">
        <ele>60.5</ele>
        <time>2026-09-03T09:17:38.536Z</time>
      </trkpt>
      <trkpt lat="49.49378" lon="-1.40662">
        <ele>60.5</ele>
        <time>2026-09-03T09:17:39.569Z</time>
      </trkpt>
      <trkpt lat="49.49377" lon="-1.40663">
        <ele>60.5</ele>
        <time>2026-09-03T09:17:40.570Z</time>
      </trkpt>
      <trkpt lat="49.49376" lon="-1.40664">
        <ele>60.5</ele>
        <time>2026-09-03T09:17:41.572Z</time>
      </trkpt>
      <trkpt lat="49.49375" lon="-1.40665">
        <ele>60.5</ele>
        <time>2026-09-03T09:17:42.573Z</time>
      </trkpt>
      <trkpt lat="49.49374" lon="-1.40667">
        <ele>60.5</ele>
        <time>2026-09-03T09:17:43.574Z</time>
      </trkpt>
      <trkpt lat="49.49372" lon="-1.40668">
        <ele>60.6</ele>
        <time>2026-09-03T09:17:45.457Z</time>
      </trkpt>
      <trkpt lat="49.4937" lon="-1.40669">
        <ele>60.6</ele>
        <time>2026-09-03T09:17:46.518Z</time>
      </trkpt>
      <trkpt lat="49.49369" lon="-1.40669">
        <ele>60.6</ele>
        <time>2026-09-03T09:17:47.580Z</time>
      </trkpt>
      <trkpt lat="49.49367" lon="-1.4067">
        <ele>60.7</ele>
        <time>2026-09-03T09:17:49.563Z</time>
      </trkpt>
      <trkpt lat="49.49365" lon="-1.4067">
        <ele>60.7</ele>
        <time>2026-09-03T09:17:51.566Z</time>
      </trkpt>
      <trkpt lat="49.49363" lon="-1.40671">
        <ele>60.8</ele>
        <time>2026-09-03T09:17:52.567Z</time>
      </trkpt>
      <trkpt lat="49.49362" lon="-1.40671">
        <ele>60.8</ele>
        <time>2026-09-03T09:17:53.568Z</time>
      </trkpt>
      <trkpt lat="49.4936" lon="-1.40673">
        <ele>60.8</ele>
        <time>2026-09-03T09:17:55.571Z</time>
      </trkpt>
      <trkpt lat="49.49358" lon="-1.40675">
        <ele>60.8</ele>
        <time>2026-09-03T09:17:57.536Z</time>
      </trkpt>
      <trkpt lat="49.49356" lon="-1.40677">
        <ele>60.8</ele>
        <time>2026-09-03T09:17:59.577Z</time>
      </trkpt>
      <trkpt lat="49.49354" lon="-1.40679">
        <ele>60.8</ele>
        <time>2026-09-03T09:18:01.499Z</time>
      </trkpt>
      <trkpt lat="49.49353" lon="-1.40679">
        <ele>60.8</ele>
        <time>2026-09-03T09:18:02.536Z</time>
      </trkpt>
      <trkpt lat="49.49352" lon="-1.4068">
        <ele>60.8</ele>
        <time>2026-09-03T09:18:03.536Z</time>
      </trkpt>
      <trkpt lat="49.49351" lon="-1.40681">
        <ele>60.8</ele>
        <time>2026-09-03T09:18:04.536Z</time>
      </trkpt>
      <trkpt lat="49.4935" lon="-1.40682">
        <ele>60.8</ele>
        <time>2026-09-03T09:18:05.536Z</time>
      </trkpt>
      <trkpt lat="49.4935" lon="-1.40684">
        <ele>60.8</ele>
        <time>2026-09-03T09:18:06.536Z</time>
      </trkpt>
      <trkpt lat="49.49349" lon="-1.40685">
        <ele>60.8</ele>
        <time>2026-09-03T09:18:07.536Z</time>
      </trkpt>
      <trkpt lat="49.49347" lon="-1.40687">
        <ele>60.8</ele>
        <time>2026-09-03T09:18:09.536Z</time>
      </trkpt>
      <trkpt lat="49.49347" lon="-1.40689">
        <ele>60.7</ele>
        <time>2026-09-03T09:18:10.536Z</time>
      </trkpt>
      <trkpt lat="49.49346" lon="-1.4069">
        <ele>60.7</ele>
        <time>2026-09-03T09:18:11.536Z</time>
      </trkpt>
      <trkpt lat="49.49345" lon="-1.40692">
        <ele>60.7</ele>
        <time>2026-09-03T09:18:12.555Z</time>
      </trkpt>
      <trkpt lat="49.49344" lon="-1.40695">
        <ele>60.6</ele>
        <time>2026-09-03T09:18:14.536Z</time>
      </trkpt>
      <trkpt lat="49.49343" lon="-1.40696">
        <ele>60.6</ele>
        <time>2026-09-03T09:18:15.536Z</time>
      </trkpt>
      <trkpt lat="49.49342" lon="-1.40698">
        <ele>60.6</ele>
        <time>2026-09-03T09:18:16.536Z</time>
      </trkpt>
      <trkpt lat="49.49342" lon="-1.407">
        <ele>60.5</ele>
        <time>2026-09-03T09:18:17.536Z</time>
      </trkpt>
      <trkpt lat="49.49341" lon="-1.40702">
        <ele>60.5</ele>
        <time>2026-09-03T09:18:18.536Z</time>
      </trkpt>
      <trkpt lat="49.49341" lon="-1.40703">
        <ele>60.4</ele>
        <time>2026-09-03T09:18:19.536Z</time>
      </trkpt>
      <trkpt lat="49.4934" lon="-1.40705">
        <ele>60.4</ele>
        <time>2026-09-03T09:18:20.536Z</time>
      </trkpt>
      <trkpt lat="49.4934" lon="-1.40707">
        <ele>60.3</ele>
        <time>2026-09-03T09:18:21.536Z</time>
      </trkpt>
      <trkpt lat="49.49341" lon="-1.40709">
        <ele>60.2</ele>
        <time>2026-09-03T09:18:23.536Z</time>
      </trkpt>
      <trkpt lat="49.49341" lon="-1.4071">
        <ele>60.2</ele>
        <time>2026-09-03T09:18:24.572Z</time>
      </trkpt>
      <trkpt lat="49.49337" lon="-1.40714">
        <ele>60.2</ele>
        <time>2026-09-03T09:18:26.536Z</time>
      </trkpt>
      <trkpt lat="49.49336" lon="-1.40715">
        <ele>60.2</ele>
        <time>2026-09-03T09:18:27.536Z</time>
      </trkpt>
      <trkpt lat="49.49336" lon="-1.40717">
        <ele>60.1</ele>
        <time>2026-09-03T09:18:28.536Z</time>
      </trkpt>
      <trkpt lat="49.49336" lon="-1.40718">
        <ele>60.1</ele>
        <time>2026-09-03T09:18:29.536Z</time>
      </trkpt>
      <trkpt lat="49.49336" lon="-1.4072">
        <ele>60</ele>
        <time>2026-09-03T09:18:30.536Z</time>
      </trkpt>
      <trkpt lat="49.49335" lon="-1.40722">
        <ele>59.9</ele>
        <time>2026-09-03T09:18:31.536Z</time>
      </trkpt>
      <trkpt lat="49.49335" lon="-1.40725">
        <ele>59.9</ele>
        <time>2026-09-03T09:18:33.514Z</time>
      </trkpt>
      <trkpt lat="49.49334" lon="-1.40727">
        <ele>60</ele>
        <time>2026-09-03T09:18:34.556Z</time>
      </trkpt>
      <trkpt lat="49.49333" lon="-1.40731">
        <ele>60</ele>
        <time>2026-09-03T09:18:36.536Z</time>
      </trkpt>
      <trkpt lat="49.49333" lon="-1.40732">
        <ele>60</ele>
        <time>2026-09-03T09:18:37.536Z</time>
      </trkpt>
      <trkpt lat="49.49333" lon="-1.40734">
        <ele>60</ele>
        <time>2026-09-03T09:18:38.536Z</time>
      </trkpt>
      <trkpt lat="49.49334" lon="-1.40735">
        <ele>60</ele>
        <time>2026-09-03T09:18:39.536Z</time>
      </trkpt>
      <trkpt lat="49.49335" lon="-1.40735">
        <ele>59.9</ele>
        <time>2026-09-03T09:18:40.536Z</time>
      </trkpt>
      <trkpt lat="49.49335" lon="-1.40737">
        <ele>59.9</ele>
        <time>2026-09-03T09:18:41.536Z</time>
      </trkpt>
      <trkpt lat="49.49335" lon="-1.40738">
        <ele>59.9</ele>
        <time>2026-09-03T09:18:42.537Z</time>
      </trkpt>
      <trkpt lat="49.49334" lon="-1.4074">
        <ele>60</ele>
        <time>2026-09-03T09:18:43.539Z</time>
      </trkpt>
      <trkpt lat="49.49332" lon="-1.4074">
        <ele>60.1</ele>
        <time>2026-09-03T09:18:44.540Z</time>
      </trkpt>
      <trkpt lat="49.49331" lon="-1.4074">
        <ele>60.1</ele>
        <time>2026-09-03T09:18:45.542Z</time>
      </trkpt>
      <trkpt lat="49.4933" lon="-1.40741">
        <ele>60.2</ele>
        <time>2026-09-03T09:18:46.543Z</time>
      </trkpt>
      <trkpt lat="49.49329" lon="-1.40743">
        <ele>60.2</ele>
        <time>2026-09-03T09:18:47.544Z</time>
      </trkpt>
      <trkpt lat="49.49328" lon="-1.40743">
        <ele>60.2</ele>
        <time>2026-09-03T09:18:48.546Z</time>
      </trkpt>
      <trkpt lat="49.49328" lon="-1.40743">
        <ele>60.2</ele>
        <time>2026-09-03T09:18:49.547Z</time>
      </trkpt>
      <trkpt lat="49.49327" lon="-1.40743">
        <ele>60.3</ele>
        <time>2026-09-03T09:18:50.549Z</time>
      </trkpt>
      <trkpt lat="49.49326" lon="-1.40744">
        <ele>60.3</ele>
        <time>2026-09-03T09:18:51.549Z</time>
      </trkpt>
      <trkpt lat="49.49326" lon="-1.40744">
        <ele>60.3</ele>
        <time>2026-09-03T09:18:52.552Z</time>
      </trkpt>
      <trkpt lat="49.49325" lon="-1.40744">
        <ele>60.4</ele>
        <time>2026-09-03T09:18:53.553Z</time>
      </trkpt>
      <trkpt lat="49.49324" lon="-1.40743">
        <ele>60.4</ele>
        <time>2026-09-03T09:18:54.554Z</time>
      </trkpt>
      <trkpt lat="49.49322" lon="-1.4074">
        <ele>60.6</ele>
        <time>2026-09-03T09:18:56.517Z</time>
      </trkpt>
      <trkpt lat="49.49321" lon="-1.40738">
        <ele>60.6</ele>
        <time>2026-09-03T09:18:57.559Z</time>
      </trkpt>
      <trkpt lat="49.49322" lon="-1.40745">
        <ele>60.5</ele>
        <time>2026-09-03T09:18:58.053Z</time>
      </trkpt>
      <trkpt lat="49.49323" lon="-1.40752">
        <ele>60.3</ele>
        <time>2026-09-03T09:18:58.547Z</time>
      </trkpt>
      <trkpt lat="49.49324" lon="-1.40758">
        <ele>60.1</ele>
        <time>2026-09-03T09:18:59.041Z</time>
      </trkpt>
      <trkpt lat="49.49325" lon="-1.40765">
        <ele>59.9</ele>
        <time>2026-09-03T09:18:59.536Z</time>
      </trkpt>
      <trkpt lat="49.49324" lon="-1.4077">
        <ele>59.9</ele>
        <time>2026-09-03T09:19:01.494Z</time>
      </trkpt>
      <trkpt lat="49.49323" lon="-1.40772">
        <ele>59.9</ele>
        <time>2026-09-03T09:19:02.536Z</time>
      </trkpt>
      <trkpt lat="49.49322" lon="-1.40774">
        <ele>59.9</ele>
        <time>2026-09-03T09:19:03.567Z</time>
      </trkpt>
      <trkpt lat="49.49322" lon="-1.40778">
        <ele>59.8</ele>
        <time>2026-09-03T09:19:05.535Z</time>
      </trkpt>
      <trkpt lat="49.49322" lon="-1.40779">
        <ele>59.8</ele>
        <time>2026-09-03T09:19:06.572Z</time>
      </trkpt>
      <trkpt lat="49.49321" lon="-1.40781">
        <ele>59.8</ele>
        <time>2026-09-03T09:19:07.573Z</time>
      </trkpt>
      <trkpt lat="49.49321" lon="-1.40783">
        <ele>59.7</ele>
        <time>2026-09-03T09:19:08.574Z</time>
      </trkpt>
      <trkpt lat="49.4932" lon="-1.40787">
        <ele>59.6</ele>
        <time>2026-09-03T09:19:10.536Z</time>
      </trkpt>
      <trkpt lat="49.4932" lon="-1.40789">
        <ele>59.6</ele>
        <time>2026-09-03T09:19:11.536Z</time>
      </trkpt>
      <trkpt lat="49.4932" lon="-1.40792">
        <ele>59.4</ele>
        <time>2026-09-03T09:19:13.541Z</time>
      </trkpt>
      <trkpt lat="49.4932" lon="-1.40794">
        <ele>59.4</ele>
        <time>2026-09-03T09:19:14.583Z</time>
      </trkpt>
      <trkpt lat="49.4932" lon="-1.40798">
        <ele>59.2</ele>
        <time>2026-09-03T09:19:16.536Z</time>
      </trkpt>
      <trkpt lat="49.49319" lon="-1.40799">
        <ele>59.3</ele>
        <time>2026-09-03T09:19:17.536Z</time>
      </trkpt>
      <trkpt lat="49.49319" lon="-1.40801">
        <ele>59.2</ele>
        <time>2026-09-03T09:19:18.536Z</time>
      </trkpt>
      <trkpt lat="49.49319" lon="-1.40803">
        <ele>59.1</ele>
        <time>2026-09-03T09:19:19.536Z</time>
      </trkpt>
      <trkpt lat="49.49319" lon="-1.40804">
        <ele>59.1</ele>
        <time>2026-09-03T09:19:20.536Z</time>
      </trkpt>
      <trkpt lat="49.49319" lon="-1.40806">
        <ele>59</ele>
        <time>2026-09-03T09:19:21.536Z</time>
      </trkpt>
      <trkpt lat="49.49318" lon="-1.40807">
        <ele>59.1</ele>
        <time>2026-09-03T09:19:22.536Z</time>
      </trkpt>
      <trkpt lat="49.49317" lon="-1.40809">
        <ele>59.2</ele>
        <time>2026-09-03T09:19:23.536Z</time>
      </trkpt>
      <trkpt lat="49.49316" lon="-1.40811">
        <ele>59.2</ele>
        <time>2026-09-03T09:19:24.536Z</time>
      </trkpt>
      <trkpt lat="49.49315" lon="-1.40812">
        <ele>59.3</ele>
        <time>2026-09-03T09:19:25.536Z</time>
      </trkpt>
      <trkpt lat="49.49316" lon="-1.40817">
        <ele>59.2</ele>
        <time>2026-09-03T09:19:27.536Z</time>
      </trkpt>
      <trkpt lat="49.49317" lon="-1.40818">
        <ele>59.2</ele>
        <time>2026-09-03T09:19:28.536Z</time>
      </trkpt>
      <trkpt lat="49.49318" lon="-1.4082">
        <ele>59.1</ele>
        <time>2026-09-03T09:19:29.554Z</time>
      </trkpt>
      <trkpt lat="49.49319" lon="-1.40824">
        <ele>59</ele>
        <time>2026-09-03T09:19:31.536Z</time>
      </trkpt>
      <trkpt lat="49.49319" lon="-1.40826">
        <ele>59</ele>
        <time>2026-09-03T09:19:32.536Z</time>
      </trkpt>
      <trkpt lat="49.49318" lon="-1.40828">
        <ele>59.1</ele>
        <time>2026-09-03T09:19:33.536Z</time>
      </trkpt>
      <trkpt lat="49.49318" lon="-1.4083">
        <ele>59.1</ele>
        <time>2026-09-03T09:19:34.536Z</time>
      </trkpt>
      <trkpt lat="49.49318" lon="-1.40832">
        <ele>59.1</ele>
        <time>2026-09-03T09:19:35.536Z</time>
      </trkpt>
      <trkpt lat="49.49319" lon="-1.40836">
        <ele>59</ele>
        <time>2026-09-03T09:19:37.535Z</time>
      </trkpt>
      <trkpt lat="49.49319" lon="-1.40838">
        <ele>59</ele>
        <time>2026-09-03T09:19:38.556Z</time>
      </trkpt>
      <trkpt lat="49.49319" lon="-1.4084">
        <ele>59</ele>
        <time>2026-09-03T09:19:39.558Z</time>
      </trkpt>
      <trkpt lat="49.49319" lon="-1.40841">
        <ele>59</ele>
        <time>2026-09-03T09:19:40.560Z</time>
      </trkpt>
      <trkpt lat="49.4932" lon="-1.40843">
        <ele>59</ele>
        <time>2026-09-03T09:19:41.561Z</time>
      </trkpt>
      <trkpt lat="49.4932" lon="-1.40845">
        <ele>59</ele>
        <time>2026-09-03T09:19:42.562Z</time>
      </trkpt>
      <trkpt lat="49.4932" lon="-1.40846">
        <ele>59</ele>
        <time>2026-09-03T09:19:43.566Z</time>
      </trkpt>
      <trkpt lat="49.49319" lon="-1.40848">
        <ele>59</ele>
        <time>2026-09-03T09:19:44.568Z</time>
      </trkpt>
      <trkpt lat="49.49319" lon="-1.4085">
        <ele>59</ele>
        <time>2026-09-03T09:19:46.571Z</time>
      </trkpt>
      <trkpt lat="49.4932" lon="-1.40851">
        <ele>59</ele>
        <time>2026-09-03T09:19:47.572Z</time>
      </trkpt>
      <trkpt lat="49.49319" lon="-1.40848">
        <ele>59</ele>
        <time>2026-09-03T09:19:49.536Z</time>
      </trkpt>
      <trkpt lat="49.49319" lon="-1.40847">
        <ele>59</ele>
        <time>2026-09-03T09:19:50.677Z</time>
      </trkpt>
      <trkpt lat="49.49319" lon="-1.40847">
        <ele>59</ele>
        <time>2026-09-03T09:19:52.536Z</time>
      </trkpt>
      <trkpt lat="49.49319" lon="-1.40848">
        <ele>59</ele>
        <time>2026-09-03T09:19:53.599Z</time>
      </trkpt>
      <trkpt lat="49.4932" lon="-1.40853">
        <ele>59</ele>
        <time>2026-09-03T09:19:55.536Z</time>
      </trkpt>
      <trkpt lat="49.4932" lon="-1.40857">
        <ele>59</ele>
        <time>2026-09-03T09:19:57.615Z</time>
      </trkpt>
      <trkpt lat="49.4932" lon="-1.40862">
        <ele>59</ele>
        <time>2026-09-03T09:19:59.536Z</time>
      </trkpt>
      <trkpt lat="49.49319" lon="-1.40865">
        <ele>59</ele>
        <time>2026-09-03T09:20:00.536Z</time>
      </trkpt>
      <trkpt lat="49.49319" lon="-1.40867">
        <ele>59</ele>
        <time>2026-09-03T09:20:01.536Z</time>
      </trkpt>
      <trkpt lat="49.49319" lon="-1.40869">
        <ele>59</ele>
        <time>2026-09-03T09:20:02.536Z</time>
      </trkpt>
      <trkpt lat="49.49319" lon="-1.40872">
        <ele>59</ele>
        <time>2026-09-03T09:20:03.536Z</time>
      </trkpt>
      <trkpt lat="49.49319" lon="-1.40873">
        <ele>59</ele>
        <time>2026-09-03T09:20:04.536Z</time>
      </trkpt>
      <trkpt lat="49.49318" lon="-1.40875">
        <ele>59.1</ele>
        <time>2026-09-03T09:20:05.536Z</time>
      </trkpt>
      <trkpt lat="49.49318" lon="-1.40877">
        <ele>59.1</ele>
        <time>2026-09-03T09:20:06.536Z</time>
      </trkpt>
      <trkpt lat="49.49319" lon="-1.4088">
        <ele>59</ele>
        <time>2026-09-03T09:20:07.536Z</time>
      </trkpt>
      <trkpt lat="49.49318" lon="-1.40884">
        <ele>59.1</ele>
        <time>2026-09-03T09:20:09.536Z</time>
      </trkpt>
      <trkpt lat="49.49318" lon="-1.40886">
        <ele>59.1</ele>
        <time>2026-09-03T09:20:10.536Z</time>
      </trkpt>
      <trkpt lat="49.49319" lon="-1.40888">
        <ele>59</ele>
        <time>2026-09-03T09:20:11.536Z</time>
      </trkpt>
      <trkpt lat="49.49319" lon="-1.4089">
        <ele>59</ele>
        <time>2026-09-03T09:20:12.536Z</time>
      </trkpt>
      <trkpt lat="49.49319" lon="-1.40892">
        <ele>59</ele>
        <time>2026-09-03T09:20:13.536Z</time>
      </trkpt>
      <trkpt lat="49.49319" lon="-1.40894">
        <ele>59</ele>
        <time>2026-09-03T09:20:14.536Z</time>
      </trkpt>
      <trkpt lat="49.4932" lon="-1.40898">
        <ele>59</ele>
        <time>2026-09-03T09:20:16.535Z</time>
      </trkpt>
      <trkpt lat="49.49321" lon="-1.409">
        <ele>58.9</ele>
        <time>2026-09-03T09:20:17.576Z</time>
      </trkpt>
      <trkpt lat="49.49323" lon="-1.40903">
        <ele>58.7</ele>
        <time>2026-09-03T09:20:19.536Z</time>
      </trkpt>
      <trkpt lat="49.49323" lon="-1.40905">
        <ele>58.7</ele>
        <time>2026-09-03T09:20:20.536Z</time>
      </trkpt>
      <trkpt lat="49.49324" lon="-1.4091">
        <ele>58.7</ele>
        <time>2026-09-03T09:20:22.494Z</time>
      </trkpt>
      <trkpt lat="49.49325" lon="-1.40911">
        <ele>58.6</ele>
        <time>2026-09-03T09:20:23.535Z</time>
      </trkpt>
      <trkpt lat="49.49325" lon="-1.40913">
        <ele>58.6</ele>
        <time>2026-09-03T09:20:24.557Z</time>
      </trkpt>
      <trkpt lat="49.49326" lon="-1.40915">
        <ele>58.5</ele>
        <time>2026-09-03T09:20:26.580Z</time>
      </trkpt>
      <trkpt lat="49.49326" lon="-1.40919">
        <ele>58.5</ele>
        <time>2026-09-03T09:20:28.536Z</time>
      </trkpt>
      <trkpt lat="49.49325" lon="-1.40919">
        <ele>58.6</ele>
        <time>2026-09-03T09:20:29.536Z</time>
      </trkpt>
      <trkpt lat="49.49325" lon="-1.40917">
        <ele>58.6</ele>
        <time>2026-09-03T09:20:30.599Z</time>
      </trkpt>
      <trkpt lat="49.49323" lon="-1.40916">
        <ele>58.7</ele>
        <time>2026-09-03T09:20:32.569Z</time>
      </trkpt>
      <trkpt lat="49.49322" lon="-1.40916">
        <ele>58.8</ele>
        <time>2026-09-03T09:20:33.570Z</time>
      </trkpt>
      <trkpt lat="49.4932" lon="-1.40919">
        <ele>59</ele>
        <time>2026-09-03T09:20:35.573Z</time>
      </trkpt>
      <trkpt lat="49.49321" lon="-1.40926">
        <ele>58.9</ele>
        <time>2026-09-03T09:20:37.536Z</time>
      </trkpt>
      <trkpt lat="49.49322" lon="-1.40929">
        <ele>58.8</ele>
        <time>2026-09-03T09:20:38.577Z</time>
      </trkpt>
      <trkpt lat="49.49323" lon="-1.40931">
        <ele>58.7</ele>
        <time>2026-09-03T09:20:39.579Z</time>
      </trkpt>
      <trkpt lat="49.49326" lon="-1.40935">
        <ele>58.5</ele>
        <time>2026-09-03T09:20:41.536Z</time>
      </trkpt>
      <trkpt lat="49.49327" lon="-1.40937">
        <ele>58.5</ele>
        <time>2026-09-03T09:20:42.536Z</time>
      </trkpt>
      <trkpt lat="49.49329" lon="-1.40938">
        <ele>58.3</ele>
        <time>2026-09-03T09:20:43.536Z</time>
      </trkpt>
      <trkpt lat="49.4933" lon="-1.4094">
        <ele>58.2</ele>
        <time>2026-09-03T09:20:44.536Z</time>
      </trkpt>
      <trkpt lat="49.4933" lon="-1.40942">
        <ele>58.2</ele>
        <time>2026-09-03T09:20:45.536Z</time>
      </trkpt>
      <trkpt lat="49.49332" lon="-1.40944">
        <ele>58.1</ele>
        <time>2026-09-03T09:20:46.536Z</time>
      </trkpt>
      <trkpt lat="49.49332" lon="-1.40945">
        <ele>58.1</ele>
        <time>2026-09-03T09:20:47.536Z</time>
      </trkpt>
      <trkpt lat="49.49333" lon="-1.40947">
        <ele>58</ele>
        <time>2026-09-03T09:20:48.572Z</time>
      </trkpt>
      <trkpt lat="49.49334" lon="-1.40949">
        <ele>58</ele>
        <time>2026-09-03T09:20:49.573Z</time>
      </trkpt>
      <trkpt lat="49.49335" lon="-1.40951">
        <ele>57.9</ele>
        <time>2026-09-03T09:20:51.536Z</time>
      </trkpt>
      <trkpt lat="49.49335" lon="-1.40952">
        <ele>57.9</ele>
        <time>2026-09-03T09:20:52.536Z</time>
      </trkpt>
      <trkpt lat="49.49336" lon="-1.40954">
        <ele>57.8</ele>
        <time>2026-09-03T09:20:53.536Z</time>
      </trkpt>
      <trkpt lat="49.49338" lon="-1.40958">
        <ele>57.7</ele>
        <time>2026-09-03T09:20:55.492Z</time>
      </trkpt>
      <trkpt lat="49.49338" lon="-1.40959">
        <ele>57.7</ele>
        <time>2026-09-03T09:20:56.593Z</time>
      </trkpt>
      <trkpt lat="49.4934" lon="-1.40963">
        <ele>57.5</ele>
        <time>2026-09-03T09:20:58.536Z</time>
      </trkpt>
      <trkpt lat="49.4934" lon="-1.40964">
        <ele>57.5</ele>
        <time>2026-09-03T09:20:59.536Z</time>
      </trkpt>
      <trkpt lat="49.49341" lon="-1.40965">
        <ele>57.4</ele>
        <time>2026-09-03T09:21:00.536Z</time>
      </trkpt>
      <trkpt lat="49.49342" lon="-1.40967">
        <ele>57.4</ele>
        <time>2026-09-03T09:21:01.536Z</time>
      </trkpt>
      <trkpt lat="49.49343" lon="-1.40969">
        <ele>57.3</ele>
        <time>2026-09-03T09:21:02.536Z</time>
      </trkpt>
      <trkpt lat="49.49343" lon="-1.40971">
        <ele>57.3</ele>
        <time>2026-09-03T09:21:03.536Z</time>
      </trkpt>
      <trkpt lat="49.49344" lon="-1.40973">
        <ele>57.2</ele>
        <time>2026-09-03T09:21:04.536Z</time>
      </trkpt>
      <trkpt lat="49.49344" lon="-1.40975">
        <ele>57.2</ele>
        <time>2026-09-03T09:21:05.536Z</time>
      </trkpt>
      <trkpt lat="49.49345" lon="-1.40978">
        <ele>57.2</ele>
        <time>2026-09-03T09:21:07.499Z</time>
      </trkpt>
      <trkpt lat="49.49346" lon="-1.40979">
        <ele>57.1</ele>
        <time>2026-09-03T09:21:08.560Z</time>
      </trkpt>
      <trkpt lat="49.49346" lon="-1.40981">
        <ele>57.1</ele>
        <time>2026-09-03T09:21:09.562Z</time>
      </trkpt>
      <trkpt lat="49.49347" lon="-1.40984">
        <ele>57</ele>
        <time>2026-09-03T09:21:10.563Z</time>
      </trkpt>
      <trkpt lat="49.49347" lon="-1.40989">
        <ele>57</ele>
        <time>2026-09-03T09:21:12.456Z</time>
      </trkpt>
      <trkpt lat="49.49347" lon="-1.40991">
        <ele>57</ele>
        <time>2026-09-03T09:21:13.517Z</time>
      </trkpt>
      <trkpt lat="49.49347" lon="-1.40993">
        <ele>57</ele>
        <time>2026-09-03T09:21:14.579Z</time>
      </trkpt>
      <trkpt lat="49.49347" lon="-1.40996">
        <ele>57</ele>
        <time>2026-09-03T09:21:16.536Z</time>
      </trkpt>
      <trkpt lat="49.49348" lon="-1.40998">
        <ele>56.9</ele>
        <time>2026-09-03T09:21:17.536Z</time>
      </trkpt>
      <trkpt lat="49.49348" lon="-1.41001">
        <ele>56.9</ele>
        <time>2026-09-03T09:21:18.536Z</time>
      </trkpt>
      <trkpt lat="49.49348" lon="-1.41005">
        <ele>56.9</ele>
        <time>2026-09-03T09:21:20.536Z</time>
      </trkpt>
      <trkpt lat="49.49349" lon="-1.41007">
        <ele>56.9</ele>
        <time>2026-09-03T09:21:21.536Z</time>
      </trkpt>
      <trkpt lat="49.49349" lon="-1.41009">
        <ele>56.9</ele>
        <time>2026-09-03T09:21:22.536Z</time>
      </trkpt>
      <trkpt lat="49.4935" lon="-1.41013">
        <ele>56.8</ele>
        <time>2026-09-03T09:21:24.513Z</time>
      </trkpt>
      <trkpt lat="49.49351" lon="-1.41014">
        <ele>56.7</ele>
        <time>2026-09-03T09:21:25.574Z</time>
      </trkpt>
      <trkpt lat="49.49353" lon="-1.41017">
        <ele>56.6</ele>
        <time>2026-09-03T09:21:27.536Z</time>
      </trkpt>
      <trkpt lat="49.49355" lon="-1.41021">
        <ele>56.4</ele>
        <time>2026-09-03T09:21:29.536Z</time>
      </trkpt>
      <trkpt lat="49.49355" lon="-1.41023">
        <ele>56.4</ele>
        <time>2026-09-03T09:21:30.561Z</time>
      </trkpt>
      <trkpt lat="49.49356" lon="-1.41026">
        <ele>56.4</ele>
        <time>2026-09-03T09:21:32.536Z</time>
      </trkpt>
      <trkpt lat="49.49356" lon="-1.41028">
        <ele>56.4</ele>
        <time>2026-09-03T09:21:33.536Z</time>
      </trkpt>
      <trkpt lat="49.49356" lon="-1.4103">
        <ele>56.4</ele>
        <time>2026-09-03T09:21:34.536Z</time>
      </trkpt>
      <trkpt lat="49.49357" lon="-1.41032">
        <ele>56.3</ele>
        <time>2026-09-03T09:21:35.536Z</time>
      </trkpt>
      <trkpt lat="49.49357" lon="-1.41035">
        <ele>56.3</ele>
        <time>2026-09-03T09:21:36.560Z</time>
      </trkpt>
      <trkpt lat="49.49357" lon="-1.41037">
        <ele>56.3</ele>
        <time>2026-09-03T09:21:37.601Z</time>
      </trkpt>
      <trkpt lat="49.49358" lon="-1.41041">
        <ele>56.2</ele>
        <time>2026-09-03T09:21:39.564Z</time>
      </trkpt>
      <trkpt lat="49.49359" lon="-1.41044">
        <ele>56.2</ele>
        <time>2026-09-03T09:21:41.547Z</time>
      </trkpt>
      <trkpt lat="49.49359" lon="-1.41045">
        <ele>56.2</ele>
        <time>2026-09-03T09:21:42.548Z</time>
      </trkpt>
      <trkpt lat="49.49361" lon="-1.41049">
        <ele>56</ele>
        <time>2026-09-03T09:21:44.581Z</time>
      </trkpt>
      <trkpt lat="49.49361" lon="-1.4105">
        <ele>56</ele>
        <time>2026-09-03T09:21:45.612Z</time>
      </trkpt>
      <trkpt lat="49.49363" lon="-1.41054">
        <ele>55.9</ele>
        <time>2026-09-03T09:21:47.475Z</time>
      </trkpt>
      <trkpt lat="49.49364" lon="-1.41056">
        <ele>55.8</ele>
        <time>2026-09-03T09:21:48.557Z</time>
      </trkpt>
      <trkpt lat="49.49364" lon="-1.41058">
        <ele>55.8</ele>
        <time>2026-09-03T09:21:49.618Z</time>
      </trkpt>
      <trkpt lat="49.49365" lon="-1.41061">
        <ele>55.7</ele>
        <time>2026-09-03T09:21:51.536Z</time>
      </trkpt>
      <trkpt lat="49.49365" lon="-1.41063">
        <ele>55.7</ele>
        <time>2026-09-03T09:21:52.536Z</time>
      </trkpt>
      <trkpt lat="49.49365" lon="-1.41065">
        <ele>55.7</ele>
        <time>2026-09-03T09:21:53.536Z</time>
      </trkpt>
      <trkpt lat="49.49365" lon="-1.41067">
        <ele>55.7</ele>
        <time>2026-09-03T09:21:54.536Z</time>
      </trkpt>
      <trkpt lat="49.49365" lon="-1.41069">
        <ele>55.7</ele>
        <time>2026-09-03T09:21:55.536Z</time>
      </trkpt>
      <trkpt lat="49.49366" lon="-1.41071">
        <ele>55.6</ele>
        <time>2026-09-03T09:21:56.536Z</time>
      </trkpt>
      <trkpt lat="49.49366" lon="-1.41073">
        <ele>55.6</ele>
        <time>2026-09-03T09:21:57.599Z</time>
      </trkpt>
      <trkpt lat="49.49367" lon="-1.41076">
        <ele>55.6</ele>
        <time>2026-09-03T09:21:59.536Z</time>
      </trkpt>
      <trkpt lat="49.49369" lon="-1.41079">
        <ele>55.4</ele>
        <time>2026-09-03T09:22:01.536Z</time>
      </trkpt>
      <trkpt lat="49.49369" lon="-1.41083">
        <ele>55.4</ele>
        <time>2026-09-03T09:22:03.578Z</time>
      </trkpt>
      <trkpt lat="49.4937" lon="-1.41086">
        <ele>55.4</ele>
        <time>2026-09-03T09:22:05.480Z</time>
      </trkpt>
      <trkpt lat="49.4937" lon="-1.41088">
        <ele>55.4</ele>
        <time>2026-09-03T09:22:06.552Z</time>
      </trkpt>
      <trkpt lat="49.49369" lon="-1.41091">
        <ele>55.4</ele>
        <time>2026-09-03T09:22:08.536Z</time>
      </trkpt>
      <trkpt lat="49.49369" lon="-1.41093">
        <ele>55.4</ele>
        <time>2026-09-03T09:22:09.536Z</time>
      </trkpt>
      <trkpt lat="49.49369" lon="-1.41095">
        <ele>55.4</ele>
        <time>2026-09-03T09:22:10.536Z</time>
      </trkpt>
      <trkpt lat="49.49369" lon="-1.41097">
        <ele>55.4</ele>
        <time>2026-09-03T09:22:11.536Z</time>
      </trkpt>
      <trkpt lat="49.49369" lon="-1.41099">
        <ele>55.4</ele>
        <time>2026-09-03T09:22:12.536Z</time>
      </trkpt>
      <trkpt lat="49.49369" lon="-1.41102">
        <ele>55.4</ele>
        <time>2026-09-03T09:22:13.599Z</time>
      </trkpt>
      <trkpt lat="49.4937" lon="-1.41105">
        <ele>55.4</ele>
        <time>2026-09-03T09:22:15.536Z</time>
      </trkpt>
      <trkpt lat="49.49371" lon="-1.41108">
        <ele>55.3</ele>
        <time>2026-09-03T09:22:17.517Z</time>
      </trkpt>
      <trkpt lat="49.49372" lon="-1.4111">
        <ele>55.2</ele>
        <time>2026-09-03T09:22:18.538Z</time>
      </trkpt>
      <trkpt lat="49.49373" lon="-1.41112">
        <ele>55.1</ele>
        <time>2026-09-03T09:22:19.620Z</time>
      </trkpt>
      <trkpt lat="49.49374" lon="-1.41115">
        <ele>55.1</ele>
        <time>2026-09-03T09:22:21.599Z</time>
      </trkpt>
      <trkpt lat="49.49374" lon="-1.41118">
        <ele>55.1</ele>
        <time>2026-09-03T09:22:23.596Z</time>
      </trkpt>
      <trkpt lat="49.49374" lon="-1.41122">
        <ele>55.1</ele>
        <time>2026-09-03T09:22:25.536Z</time>
      </trkpt>
      <trkpt lat="49.49373" lon="-1.41124">
        <ele>55.1</ele>
        <time>2026-09-03T09:22:26.536Z</time>
      </trkpt>
      <trkpt lat="49.49373" lon="-1.41127">
        <ele>55.1</ele>
        <time>2026-09-03T09:22:27.536Z</time>
      </trkpt>
      <trkpt lat="49.49373" lon="-1.41129">
        <ele>55.1</ele>
        <time>2026-09-03T09:22:28.592Z</time>
      </trkpt>
      <trkpt lat="49.49373" lon="-1.41132">
        <ele>55.1</ele>
        <time>2026-09-03T09:22:30.594Z</time>
      </trkpt>
      <trkpt lat="49.49373" lon="-1.41136">
        <ele>55.1</ele>
        <time>2026-09-03T09:22:32.478Z</time>
      </trkpt>
      <trkpt lat="49.49373" lon="-1.41138">
        <ele>55.1</ele>
        <time>2026-09-03T09:22:33.519Z</time>
      </trkpt>
      <trkpt lat="49.49373" lon="-1.4114">
        <ele>55.1</ele>
        <time>2026-09-03T09:22:34.536Z</time>
      </trkpt>
      <trkpt lat="49.49372" lon="-1.41141">
        <ele>55.2</ele>
        <time>2026-09-03T09:22:35.536Z</time>
      </trkpt>
      <trkpt lat="49.49372" lon="-1.41142">
        <ele>55.2</ele>
        <time>2026-09-03T09:22:36.536Z</time>
      </trkpt>
      <trkpt lat="49.49373" lon="-1.41146">
        <ele>55.1</ele>
        <time>2026-09-03T09:22:38.576Z</time>
      </trkpt>
      <trkpt lat="49.49373" lon="-1.41149">
        <ele>55.1</ele>
        <time>2026-09-03T09:22:40.549Z</time>
      </trkpt>
      <trkpt lat="49.49373" lon="-1.41151">
        <ele>55.1</ele>
        <time>2026-09-03T09:22:41.550Z</time>
      </trkpt>
      <trkpt lat="49.49373" lon="-1.41153">
        <ele>55.1</ele>
        <time>2026-09-03T09:22:42.552Z</time>
      </trkpt>
      <trkpt lat="49.49374" lon="-1.41155">
        <ele>55.1</ele>
        <time>2026-09-03T09:22:43.553Z</time>
      </trkpt>
      <trkpt lat="49.49373" lon="-1.41159">
        <ele>55.1</ele>
        <time>2026-09-03T09:22:45.536Z</time>
      </trkpt>
      <trkpt lat="49.49373" lon="-1.41161">
        <ele>55.1</ele>
        <time>2026-09-03T09:22:46.557Z</time>
      </trkpt>
      <trkpt lat="49.49373" lon="-1.41164">
        <ele>55.1</ele>
        <time>2026-09-03T09:22:48.536Z</time>
      </trkpt>
      <trkpt lat="49.49374" lon="-1.41166">
        <ele>55.1</ele>
        <time>2026-09-03T09:22:49.536Z</time>
      </trkpt>
      <trkpt lat="49.49374" lon="-1.41168">
        <ele>55.1</ele>
        <time>2026-09-03T09:22:50.536Z</time>
      </trkpt>
      <trkpt lat="49.49376" lon="-1.41172">
        <ele>55.1</ele>
        <time>2026-09-03T09:22:52.556Z</time>
      </trkpt>
      <trkpt lat="49.49377" lon="-1.41174">
        <ele>55.1</ele>
        <time>2026-09-03T09:22:54.599Z</time>
      </trkpt>
      <trkpt lat="49.49378" lon="-1.41176">
        <ele>55.1</ele>
        <time>2026-09-03T09:22:55.599Z</time>
      </trkpt>
      <trkpt lat="49.49378" lon="-1.41179">
        <ele>55.2</ele>
        <time>2026-09-03T09:22:57.533Z</time>
      </trkpt>
      <trkpt lat="49.49378" lon="-1.4118">
        <ele>55.3</ele>
        <time>2026-09-03T09:22:58.536Z</time>
      </trkpt>
      <trkpt lat="49.49378" lon="-1.41182">
        <ele>55.3</ele>
        <time>2026-09-03T09:22:59.536Z</time>
      </trkpt>
      <trkpt lat="49.49379" lon="-1.41184">
        <ele>55.3</ele>
        <time>2026-09-03T09:23:00.577Z</time>
      </trkpt>
      <trkpt lat="49.49379" lon="-1.41187">
        <ele>55.4</ele>
        <time>2026-09-03T09:23:01.578Z</time>
      </trkpt>
      <trkpt lat="49.4938" lon="-1.4119">
        <ele>55.5</ele>
        <time>2026-09-03T09:23:03.581Z</time>
      </trkpt>
      <trkpt lat="49.4938" lon="-1.41193">
        <ele>55.6</ele>
        <time>2026-09-03T09:23:05.536Z</time>
      </trkpt>
      <trkpt lat="49.49381" lon="-1.41196">
        <ele>55.6</ele>
        <time>2026-09-03T09:23:07.456Z</time>
      </trkpt>
      <trkpt lat="49.49382" lon="-1.41198">
        <ele>55.5</ele>
        <time>2026-09-03T09:23:08.498Z</time>
      </trkpt>
      <trkpt lat="49.49382" lon="-1.412">
        <ele>55.5</ele>
        <time>2026-09-03T09:23:09.539Z</time>
      </trkpt>
      <trkpt lat="49.49383" lon="-1.41204">
        <ele>55.5</ele>
        <time>2026-09-03T09:23:11.536Z</time>
      </trkpt>
      <trkpt lat="49.49383" lon="-1.41205">
        <ele>55.5</ele>
        <time>2026-09-03T09:23:12.536Z</time>
      </trkpt>
      <trkpt lat="49.49384" lon="-1.41207">
        <ele>55.4</ele>
        <time>2026-09-03T09:23:13.536Z</time>
      </trkpt>
      <trkpt lat="49.49384" lon="-1.41211">
        <ele>55.5</ele>
        <time>2026-09-03T09:23:15.536Z</time>
      </trkpt>
      <trkpt lat="49.49385" lon="-1.41212">
        <ele>55.4</ele>
        <time>2026-09-03T09:23:16.536Z</time>
      </trkpt>
      <trkpt lat="49.49386" lon="-1.41213">
        <ele>55.3</ele>
        <time>2026-09-03T09:23:17.536Z</time>
      </trkpt>
      <trkpt lat="49.49387" lon="-1.41215">
        <ele>55.2</ele>
        <time>2026-09-03T09:23:18.581Z</time>
      </trkpt>
      <trkpt lat="49.49388" lon="-1.41217">
        <ele>55.1</ele>
        <time>2026-09-03T09:23:20.585Z</time>
      </trkpt>
      <trkpt lat="49.4939" lon="-1.41219">
        <ele>55</ele>
        <time>2026-09-03T09:23:22.536Z</time>
      </trkpt>
      <trkpt lat="49.49391" lon="-1.41221">
        <ele>54.9</ele>
        <time>2026-09-03T09:23:23.536Z</time>
      </trkpt>
      <trkpt lat="49.49392" lon="-1.41222">
        <ele>54.9</ele>
        <time>2026-09-03T09:23:24.536Z</time>
      </trkpt>
      <trkpt lat="49.49392" lon="-1.41224">
        <ele>54.9</ele>
        <time>2026-09-03T09:23:25.536Z</time>
      </trkpt>
      <trkpt lat="49.49394" lon="-1.41225">
        <ele>54.9</ele>
        <time>2026-09-03T09:23:26.573Z</time>
      </trkpt>
      <trkpt lat="49.49395" lon="-1.41227">
        <ele>54.9</ele>
        <time>2026-09-03T09:23:28.536Z</time>
      </trkpt>
      <trkpt lat="49.49397" lon="-1.41228">
        <ele>54.9</ele>
        <time>2026-09-03T09:23:29.577Z</time>
      </trkpt>
      <trkpt lat="49.49398" lon="-1.4123">
        <ele>54.9</ele>
        <time>2026-09-03T09:23:31.536Z</time>
      </trkpt>
      <trkpt lat="49.494" lon="-1.41233">
        <ele>54.8</ele>
        <time>2026-09-03T09:23:33.513Z</time>
      </trkpt>
      <trkpt lat="49.49401" lon="-1.41234">
        <ele>54.8</ele>
        <time>2026-09-03T09:23:34.536Z</time>
      </trkpt>
      <trkpt lat="49.49402" lon="-1.41236">
        <ele>54.8</ele>
        <time>2026-09-03T09:23:35.536Z</time>
      </trkpt>
      <trkpt lat="49.49403" lon="-1.41237">
        <ele>54.8</ele>
        <time>2026-09-03T09:23:36.536Z</time>
      </trkpt>
      <trkpt lat="49.49404" lon="-1.41239">
        <ele>54.7</ele>
        <time>2026-09-03T09:23:37.536Z</time>
      </trkpt>
      <trkpt lat="49.49405" lon="-1.41241">
        <ele>54.7</ele>
        <time>2026-09-03T09:23:38.536Z</time>
      </trkpt>
      <trkpt lat="49.49406" lon="-1.41242">
        <ele>54.7</ele>
        <time>2026-09-03T09:23:39.536Z</time>
      </trkpt>
      <trkpt lat="49.49407" lon="-1.41244">
        <ele>54.6</ele>
        <time>2026-09-03T09:23:40.536Z</time>
      </trkpt>
      <trkpt lat="49.49408" lon="-1.41246">
        <ele>54.6</ele>
        <time>2026-09-03T09:23:41.536Z</time>
      </trkpt>
      <trkpt lat="49.49409" lon="-1.41247">
        <ele>54.5</ele>
        <time>2026-09-03T09:23:42.575Z</time>
      </trkpt>
      <trkpt lat="49.4941" lon="-1.41248">
        <ele>54.5</ele>
        <time>2026-09-03T09:23:43.577Z</time>
      </trkpt>
      <trkpt lat="49.49411" lon="-1.41249">
        <ele>54.4</ele>
        <time>2026-09-03T09:23:44.578Z</time>
      </trkpt>
      <trkpt lat="49.49411" lon="-1.4125">
        <ele>54.4</ele>
        <time>2026-09-03T09:23:46.561Z</time>
      </trkpt>
      <trkpt lat="49.49413" lon="-1.41253">
        <ele>54.3</ele>
        <time>2026-09-03T09:23:48.536Z</time>
      </trkpt>
      <trkpt lat="49.49415" lon="-1.41256">
        <ele>54.1</ele>
        <time>2026-09-03T09:23:50.416Z</time>
      </trkpt>
      <trkpt lat="49.49416" lon="-1.41258">
        <ele>54</ele>
        <time>2026-09-03T09:23:51.457Z</time>
      </trkpt>
      <trkpt lat="49.49417" lon="-1.41259">
        <ele>54</ele>
        <time>2026-09-03T09:23:52.536Z</time>
      </trkpt>
      <trkpt lat="49.49419" lon="-1.41261">
        <ele>53.9</ele>
        <time>2026-09-03T09:23:53.560Z</time>
      </trkpt>
      <trkpt lat="49.49419" lon="-1.41265">
        <ele>53.9</ele>
        <time>2026-09-03T09:23:55.536Z</time>
      </trkpt>
      <trkpt lat="49.4942" lon="-1.41267">
        <ele>53.9</ele>
        <time>2026-09-03T09:23:56.536Z</time>
      </trkpt>
      <trkpt lat="49.49421" lon="-1.41268">
        <ele>53.8</ele>
        <time>2026-09-03T09:23:57.536Z</time>
      </trkpt>
      <trkpt lat="49.49422" lon="-1.41271">
        <ele>53.8</ele>
        <time>2026-09-03T09:23:58.557Z</time>
      </trkpt>
      <trkpt lat="49.49423" lon="-1.41274">
        <ele>53.8</ele>
        <time>2026-09-03T09:24:00.599Z</time>
      </trkpt>
      <trkpt lat="49.49424" lon="-1.41276">
        <ele>53.7</ele>
        <time>2026-09-03T09:24:01.599Z</time>
      </trkpt>
      <trkpt lat="49.49425" lon="-1.41278">
        <ele>53.7</ele>
        <time>2026-09-03T09:24:03.536Z</time>
      </trkpt>
      <trkpt lat="49.49426" lon="-1.41279">
        <ele>53.7</ele>
        <time>2026-09-03T09:24:04.536Z</time>
      </trkpt>
      <trkpt lat="49.49427" lon="-1.41283">
        <ele>53.6</ele>
        <time>2026-09-03T09:24:06.498Z</time>
      </trkpt>
      <trkpt lat="49.49428" lon="-1.41284">
        <ele>53.6</ele>
        <time>2026-09-03T09:24:07.560Z</time>
      </trkpt>
      <trkpt lat="49.49429" lon="-1.41285">
        <ele>53.6</ele>
        <time>2026-09-03T09:24:08.601Z</time>
      </trkpt>
      <trkpt lat="49.49431" lon="-1.41287">
        <ele>53.5</ele>
        <time>2026-09-03T09:24:10.554Z</time>
      </trkpt>
      <trkpt lat="49.49431" lon="-1.41288">
        <ele>53.5</ele>
        <time>2026-09-03T09:24:11.555Z</time>
      </trkpt>
      <trkpt lat="49.49433" lon="-1.41291">
        <ele>53.4</ele>
        <time>2026-09-03T09:24:13.558Z</time>
      </trkpt>
      <trkpt lat="49.49434" lon="-1.41293">
        <ele>53.4</ele>
        <time>2026-09-03T09:24:14.559Z</time>
      </trkpt>
      <trkpt lat="49.49434" lon="-1.41294">
        <ele>53.4</ele>
        <time>2026-09-03T09:24:15.561Z</time>
      </trkpt>
      <trkpt lat="49.49435" lon="-1.41296">
        <ele>53.3</ele>
        <time>2026-09-03T09:24:16.562Z</time>
      </trkpt>
      <trkpt lat="49.49436" lon="-1.41297">
        <ele>53.3</ele>
        <time>2026-09-03T09:24:17.563Z</time>
      </trkpt>
      <trkpt lat="49.49436" lon="-1.41299">
        <ele>53.3</ele>
        <time>2026-09-03T09:24:18.565Z</time>
      </trkpt>
      <trkpt lat="49.49438" lon="-1.41302">
        <ele>53.2</ele>
        <time>2026-09-03T09:24:20.558Z</time>
      </trkpt>
      <trkpt lat="49.49439" lon="-1.41304">
        <ele>53.2</ele>
        <time>2026-09-03T09:24:21.569Z</time>
      </trkpt>
      <trkpt lat="49.49439" lon="-1.41305">
        <ele>53.2</ele>
        <time>2026-09-03T09:24:22.570Z</time>
      </trkpt>
      <trkpt lat="49.49441" lon="-1.41308">
        <ele>53</ele>
        <time>2026-09-03T09:24:24.533Z</time>
      </trkpt>
      <trkpt lat="49.49441" lon="-1.41309">
        <ele>53</ele>
        <time>2026-09-03T09:24:25.536Z</time>
      </trkpt>
      <trkpt lat="49.49441" lon="-1.4131">
        <ele>53</ele>
        <time>2026-09-03T09:24:26.536Z</time>
      </trkpt>
      <trkpt lat="49.49441" lon="-1.41311">
        <ele>53</ele>
        <time>2026-09-03T09:24:27.536Z</time>
      </trkpt>
      <trkpt lat="49.49442" lon="-1.41313">
        <ele>52.8</ele>
        <time>2026-09-03T09:24:28.536Z</time>
      </trkpt>
      <trkpt lat="49.49442" lon="-1.41314">
        <ele>52.8</ele>
        <time>2026-09-03T09:24:29.536Z</time>
      </trkpt>
      <trkpt lat="49.49442" lon="-1.41316">
        <ele>52.7</ele>
        <time>2026-09-03T09:24:30.536Z</time>
      </trkpt>
      <trkpt lat="49.49442" lon="-1.4132">
        <ele>52.6</ele>
        <time>2026-09-03T09:24:31.536Z</time>
      </trkpt>
      <trkpt lat="49.49442" lon="-1.41322">
        <ele>52.5</ele>
        <time>2026-09-03T09:24:33.365Z</time>
      </trkpt>
      <trkpt lat="49.49442" lon="-1.41325">
        <ele>52.4</ele>
        <time>2026-09-03T09:24:34.517Z</time>
      </trkpt>
      <trkpt lat="49.49442" lon="-1.41327">
        <ele>52.4</ele>
        <time>2026-09-03T09:24:35.568Z</time>
      </trkpt>
      <trkpt lat="49.49442" lon="-1.41329">
        <ele>52.3</ele>
        <time>2026-09-03T09:24:36.570Z</time>
      </trkpt>
      <trkpt lat="49.49443" lon="-1.41332">
        <ele>52.1</ele>
        <time>2026-09-03T09:24:38.572Z</time>
      </trkpt>
      <trkpt lat="49.49443" lon="-1.41336">
        <ele>52.1</ele>
        <time>2026-09-03T09:24:40.575Z</time>
      </trkpt>
      <trkpt lat="49.49444" lon="-1.41339">
        <ele>52</ele>
        <time>2026-09-03T09:24:42.558Z</time>
      </trkpt>
      <trkpt lat="49.49445" lon="-1.41341">
        <ele>52</ele>
        <time>2026-09-03T09:24:43.559Z</time>
      </trkpt>
      <trkpt lat="49.49446" lon="-1.41343">
        <ele>51.9</ele>
        <time>2026-09-03T09:24:44.561Z</time>
      </trkpt>
      <trkpt lat="49.49447" lon="-1.41345">
        <ele>51.9</ele>
        <time>2026-09-03T09:24:45.562Z</time>
      </trkpt>
      <trkpt lat="49.49448" lon="-1.41346">
        <ele>51.8</ele>
        <time>2026-09-03T09:24:46.563Z</time>
      </trkpt>
      <trkpt lat="49.4945" lon="-1.4135">
        <ele>51.7</ele>
        <time>2026-09-03T09:24:48.566Z</time>
      </trkpt>
      <trkpt lat="49.4945" lon="-1.41351">
        <ele>51.7</ele>
        <time>2026-09-03T09:24:49.599Z</time>
      </trkpt>
      <trkpt lat="49.49452" lon="-1.41353">
        <ele>51.5</ele>
        <time>2026-09-03T09:24:51.440Z</time>
      </trkpt>
      <trkpt lat="49.49452" lon="-1.41353">
        <ele>51.5</ele>
        <time>2026-09-03T09:24:52.482Z</time>
      </trkpt>
      <trkpt lat="49.49453" lon="-1.41355">
        <ele>51.5</ele>
        <time>2026-09-03T09:24:53.553Z</time>
      </trkpt>
      <trkpt lat="49.49455" lon="-1.41359">
        <ele>51.3</ele>
        <time>2026-09-03T09:24:55.536Z</time>
      </trkpt>
      <trkpt lat="49.49455" lon="-1.4136">
        <ele>51.3</ele>
        <time>2026-09-03T09:24:56.557Z</time>
      </trkpt>
      <trkpt lat="49.49456" lon="-1.41363">
        <ele>51.1</ele>
        <time>2026-09-03T09:24:58.520Z</time>
      </trkpt>
      <trkpt lat="49.49456" lon="-1.41365">
        <ele>51.1</ele>
        <time>2026-09-03T09:24:59.561Z</time>
      </trkpt>
      <trkpt lat="49.49456" lon="-1.41366">
        <ele>51.1</ele>
        <time>2026-09-03T09:25:00.562Z</time>
      </trkpt>
      <trkpt lat="49.49457" lon="-1.41368">
        <ele>51</ele>
        <time>2026-09-03T09:25:01.564Z</time>
      </trkpt>
      <trkpt lat="49.49457" lon="-1.41369">
        <ele>51</ele>
        <time>2026-09-03T09:25:02.564Z</time>
      </trkpt>
      <trkpt lat="49.49457" lon="-1.41371">
        <ele>50.9</ele>
        <time>2026-09-03T09:25:03.567Z</time>
      </trkpt>
      <trkpt lat="49.49457" lon="-1.41376">
        <ele>50.9</ele>
        <time>2026-09-03T09:25:05.536Z</time>
      </trkpt>
      <trkpt lat="49.49457" lon="-1.41378">
        <ele>50.8</ele>
        <time>2026-09-03T09:25:06.536Z</time>
      </trkpt>
      <trkpt lat="49.49457" lon="-1.4138">
        <ele>50.8</ele>
        <time>2026-09-03T09:25:07.536Z</time>
      </trkpt>
      <trkpt lat="49.49458" lon="-1.41385">
        <ele>50.6</ele>
        <time>2026-09-03T09:25:09.535Z</time>
      </trkpt>
      <trkpt lat="49.49458" lon="-1.41386">
        <ele>50.6</ele>
        <time>2026-09-03T09:25:10.536Z</time>
      </trkpt>
      <trkpt lat="49.49459" lon="-1.41388">
        <ele>50.4</ele>
        <time>2026-09-03T09:25:11.538Z</time>
      </trkpt>
      <trkpt lat="49.4946" lon="-1.4139">
        <ele>50.3</ele>
        <time>2026-09-03T09:25:12.539Z</time>
      </trkpt>
      <trkpt lat="49.49461" lon="-1.41393">
        <ele>50.2</ele>
        <time>2026-09-03T09:25:14.532Z</time>
      </trkpt>
      <trkpt lat="49.49462" lon="-1.41395">
        <ele>50.1</ele>
        <time>2026-09-03T09:25:15.543Z</time>
      </trkpt>
      <trkpt lat="49.49463" lon="-1.41397">
        <ele>50</ele>
        <time>2026-09-03T09:25:16.545Z</time>
      </trkpt>
      <trkpt lat="49.49463" lon="-1.41399">
        <ele>50</ele>
        <time>2026-09-03T09:25:17.546Z</time>
      </trkpt>
      <trkpt lat="49.49465" lon="-1.414">
        <ele>49.8</ele>
        <time>2026-09-03T09:25:18.547Z</time>
      </trkpt>
      <trkpt lat="49.49466" lon="-1.41402">
        <ele>49.7</ele>
        <time>2026-09-03T09:25:19.548Z</time>
      </trkpt>
      <trkpt lat="49.49467" lon="-1.41404">
        <ele>49.6</ele>
        <time>2026-09-03T09:25:20.570Z</time>
      </trkpt>
      <trkpt lat="49.49469" lon="-1.41406">
        <ele>49.3</ele>
        <time>2026-09-03T09:25:22.536Z</time>
      </trkpt>
      <trkpt lat="49.4947" lon="-1.41406">
        <ele>49.2</ele>
        <time>2026-09-03T09:25:23.536Z</time>
      </trkpt>
      <trkpt lat="49.49471" lon="-1.41406">
        <ele>49.1</ele>
        <time>2026-09-03T09:25:24.536Z</time>
      </trkpt>
      <trkpt lat="49.49471" lon="-1.41407">
        <ele>49.1</ele>
        <time>2026-09-03T09:25:25.537Z</time>
      </trkpt>
      <trkpt lat="49.49472" lon="-1.41407">
        <ele>49</ele>
        <time>2026-09-03T09:25:26.538Z</time>
      </trkpt>
      <trkpt lat="49.49473" lon="-1.41407">
        <ele>49</ele>
        <time>2026-09-03T09:25:27.540Z</time>
      </trkpt>
      <trkpt lat="49.49475" lon="-1.41409">
        <ele>48.9</ele>
        <time>2026-09-03T09:25:28.601Z</time>
      </trkpt>
      <trkpt lat="49.49477" lon="-1.41411">
        <ele>48.9</ele>
        <time>2026-09-03T09:25:30.514Z</time>
      </trkpt>
      <trkpt lat="49.49478" lon="-1.41413">
        <ele>48.8</ele>
        <time>2026-09-03T09:25:31.575Z</time>
      </trkpt>
      <trkpt lat="49.49478" lon="-1.41415">
        <ele>48.8</ele>
        <time>2026-09-03T09:25:33.536Z</time>
      </trkpt>
      <trkpt lat="49.49479" lon="-1.41416">
        <ele>48.8</ele>
        <time>2026-09-03T09:25:34.536Z</time>
      </trkpt>
      <trkpt lat="49.4948" lon="-1.41418">
        <ele>48.7</ele>
        <time>2026-09-03T09:25:35.536Z</time>
      </trkpt>
      <trkpt lat="49.49481" lon="-1.4142">
        <ele>48.6</ele>
        <time>2026-09-03T09:25:36.536Z</time>
      </trkpt>
      <trkpt lat="49.49482" lon="-1.41421">
        <ele>48.6</ele>
        <time>2026-09-03T09:25:37.536Z</time>
      </trkpt>
      <trkpt lat="49.49483" lon="-1.41423">
        <ele>48.5</ele>
        <time>2026-09-03T09:25:38.536Z</time>
      </trkpt>
      <trkpt lat="49.49484" lon="-1.41425">
        <ele>48.4</ele>
        <time>2026-09-03T09:25:39.536Z</time>
      </trkpt>
      <trkpt lat="49.49485" lon="-1.41426">
        <ele>48.4</ele>
        <time>2026-09-03T09:25:40.558Z</time>
      </trkpt>
      <trkpt lat="49.49486" lon="-1.41428">
        <ele>48.3</ele>
        <time>2026-09-03T09:25:42.560Z</time>
      </trkpt>
      <trkpt lat="49.49487" lon="-1.41429">
        <ele>48.2</ele>
        <time>2026-09-03T09:25:43.562Z</time>
      </trkpt>
      <trkpt lat="49.49488" lon="-1.41431">
        <ele>48.1</ele>
        <time>2026-09-03T09:25:44.563Z</time>
      </trkpt>
      <trkpt lat="49.4949" lon="-1.41434">
        <ele>48</ele>
        <time>2026-09-03T09:25:46.556Z</time>
      </trkpt>
      <trkpt lat="49.49491" lon="-1.41435">
        <ele>47.9</ele>
        <time>2026-09-03T09:25:47.577Z</time>
      </trkpt>
      <trkpt lat="49.49491" lon="-1.41436">
        <ele>47.9</ele>
        <time>2026-09-03T09:25:49.536Z</time>
      </trkpt>
      <trkpt lat="49.49491" lon="-1.41437">
        <ele>47.8</ele>
        <time>2026-09-03T09:25:50.536Z</time>
      </trkpt>
      <trkpt lat="49.49492" lon="-1.41438">
        <ele>47.7</ele>
        <time>2026-09-03T09:25:51.536Z</time>
      </trkpt>
      <trkpt lat="49.49493" lon="-1.4144">
        <ele>47.6</ele>
        <time>2026-09-03T09:25:52.536Z</time>
      </trkpt>
      <trkpt lat="49.49494" lon="-1.41442">
        <ele>47.5</ele>
        <time>2026-09-03T09:25:53.536Z</time>
      </trkpt>
      <trkpt lat="49.49495" lon="-1.41444">
        <ele>47.4</ele>
        <time>2026-09-03T09:25:54.537Z</time>
      </trkpt>
      <trkpt lat="49.49496" lon="-1.41448">
        <ele>47.3</ele>
        <time>2026-09-03T09:25:56.599Z</time>
      </trkpt>
      <trkpt lat="49.49497" lon="-1.4145">
        <ele>47.2</ele>
        <time>2026-09-03T09:25:58.492Z</time>
      </trkpt>
      <trkpt lat="49.49498" lon="-1.41451">
        <ele>47.1</ele>
        <time>2026-09-03T09:25:59.554Z</time>
      </trkpt>
      <trkpt lat="49.49499" lon="-1.41453">
        <ele>47.1</ele>
        <time>2026-09-03T09:26:00.565Z</time>
      </trkpt>
      <trkpt lat="49.495" lon="-1.41455">
        <ele>47</ele>
        <time>2026-09-03T09:26:01.566Z</time>
      </trkpt>
      <trkpt lat="49.49501" lon="-1.41457">
        <ele>47</ele>
        <time>2026-09-03T09:26:02.568Z</time>
      </trkpt>
      <trkpt lat="49.49502" lon="-1.41458">
        <ele>46.9</ele>
        <time>2026-09-03T09:26:03.569Z</time>
      </trkpt>
      <trkpt lat="49.49504" lon="-1.41462">
        <ele>46.9</ele>
        <time>2026-09-03T09:26:05.572Z</time>
      </trkpt>
      <trkpt lat="49.49506" lon="-1.41465">
        <ele>46.8</ele>
        <time>2026-09-03T09:26:07.536Z</time>
      </trkpt>
      <trkpt lat="49.49507" lon="-1.41467">
        <ele>46.7</ele>
        <time>2026-09-03T09:26:08.536Z</time>
      </trkpt>
      <trkpt lat="49.49508" lon="-1.41468">
        <ele>46.7</ele>
        <time>2026-09-03T09:26:09.536Z</time>
      </trkpt>
      <trkpt lat="49.49509" lon="-1.4147">
        <ele>46.7</ele>
        <time>2026-09-03T09:26:10.619Z</time>
      </trkpt>
      <trkpt lat="49.49511" lon="-1.41473">
        <ele>46.6</ele>
        <time>2026-09-03T09:26:12.536Z</time>
      </trkpt>
      <trkpt lat="49.49512" lon="-1.41474">
        <ele>46.6</ele>
        <time>2026-09-03T09:26:13.599Z</time>
      </trkpt>
      <trkpt lat="49.49513" lon="-1.41476">
        <ele>46.5</ele>
        <time>2026-09-03T09:26:15.536Z</time>
      </trkpt>
      <trkpt lat="49.49515" lon="-1.41478">
        <ele>46.5</ele>
        <time>2026-09-03T09:26:17.578Z</time>
      </trkpt>
      <trkpt lat="49.49516" lon="-1.41479">
        <ele>46.4</ele>
        <time>2026-09-03T09:26:18.599Z</time>
      </trkpt>
      <trkpt lat="49.49518" lon="-1.41482">
        <ele>46.4</ele>
        <time>2026-09-03T09:26:20.552Z</time>
      </trkpt>
      <trkpt lat="49.49518" lon="-1.41484">
        <ele>46.4</ele>
        <time>2026-09-03T09:26:21.594Z</time>
      </trkpt>
      <trkpt lat="49.49518" lon="-1.41485">
        <ele>46.4</ele>
        <time>2026-09-03T09:26:23.536Z</time>
      </trkpt>
      <trkpt lat="49.49518" lon="-1.41486">
        <ele>46.4</ele>
        <time>2026-09-03T09:26:24.536Z</time>
      </trkpt>
      <trkpt lat="49.49519" lon="-1.41488">
        <ele>46.3</ele>
        <time>2026-09-03T09:26:25.536Z</time>
      </trkpt>
      <trkpt lat="49.49519" lon="-1.4149">
        <ele>46.3</ele>
        <time>2026-09-03T09:26:26.536Z</time>
      </trkpt>
      <trkpt lat="49.4952" lon="-1.41494">
        <ele>46.3</ele>
        <time>2026-09-03T09:26:28.536Z</time>
      </trkpt>
      <trkpt lat="49.49522" lon="-1.41495">
        <ele>46.2</ele>
        <time>2026-09-03T09:26:29.536Z</time>
      </trkpt>
      <trkpt lat="49.49523" lon="-1.41497">
        <ele>46.2</ele>
        <time>2026-09-03T09:26:30.536Z</time>
      </trkpt>
      <trkpt lat="49.49524" lon="-1.41499">
        <ele>46.1</ele>
        <time>2026-09-03T09:26:32.519Z</time>
      </trkpt>
      <trkpt lat="49.49525" lon="-1.41499">
        <ele>46.1</ele>
        <time>2026-09-03T09:26:33.536Z</time>
      </trkpt>
      <trkpt lat="49.49526" lon="-1.41501">
        <ele>46.1</ele>
        <time>2026-09-03T09:26:34.536Z</time>
      </trkpt>
      <trkpt lat="49.49527" lon="-1.41502">
        <ele>46.1</ele>
        <time>2026-09-03T09:26:35.536Z</time>
      </trkpt>
      <trkpt lat="49.49528" lon="-1.41504">
        <ele>46.1</ele>
        <time>2026-09-03T09:26:36.536Z</time>
      </trkpt>
      <trkpt lat="49.49529" lon="-1.41505">
        <ele>46.2</ele>
        <time>2026-09-03T09:26:37.536Z</time>
      </trkpt>
      <trkpt lat="49.49531" lon="-1.41506">
        <ele>46.2</ele>
        <time>2026-09-03T09:26:38.536Z</time>
      </trkpt>
      <trkpt lat="49.49532" lon="-1.41508">
        <ele>46.3</ele>
        <time>2026-09-03T09:26:39.536Z</time>
      </trkpt>
      <trkpt lat="49.49533" lon="-1.41509">
        <ele>46.3</ele>
        <time>2026-09-03T09:26:40.536Z</time>
      </trkpt>
      <trkpt lat="49.49534" lon="-1.4151">
        <ele>46.4</ele>
        <time>2026-09-03T09:26:41.536Z</time>
      </trkpt>
      <trkpt lat="49.49535" lon="-1.41511">
        <ele>46.4</ele>
        <time>2026-09-03T09:26:42.536Z</time>
      </trkpt>
      <trkpt lat="49.49537" lon="-1.41512">
        <ele>46.4</ele>
        <time>2026-09-03T09:26:44.536Z</time>
      </trkpt>
      <trkpt lat="49.49538" lon="-1.41512">
        <ele>46.4</ele>
        <time>2026-09-03T09:26:45.536Z</time>
      </trkpt>
      <trkpt lat="49.49538" lon="-1.41514">
        <ele>46.5</ele>
        <time>2026-09-03T09:26:46.536Z</time>
      </trkpt>
      <trkpt lat="49.4954" lon="-1.41516">
        <ele>46.6</ele>
        <time>2026-09-03T09:26:48.520Z</time>
      </trkpt>
      <trkpt lat="49.4954" lon="-1.41518">
        <ele>46.6</ele>
        <time>2026-09-03T09:26:49.572Z</time>
      </trkpt>
      <trkpt lat="49.49541" lon="-1.41522">
        <ele>46.8</ele>
        <time>2026-09-03T09:26:51.536Z</time>
      </trkpt>
      <trkpt lat="49.49542" lon="-1.41524">
        <ele>46.9</ele>
        <time>2026-09-03T09:26:52.576Z</time>
      </trkpt>
      <trkpt lat="49.49543" lon="-1.41528">
        <ele>47</ele>
        <time>2026-09-03T09:26:54.536Z</time>
      </trkpt>
      <trkpt lat="49.49543" lon="-1.41529">
        <ele>47</ele>
        <time>2026-09-03T09:26:55.599Z</time>
      </trkpt>
      <trkpt lat="49.49544" lon="-1.41532">
        <ele>47</ele>
        <time>2026-09-03T09:26:57.493Z</time>
      </trkpt>
      <trkpt lat="49.49545" lon="-1.41533">
        <ele>47</ele>
        <time>2026-09-03T09:26:58.536Z</time>
      </trkpt>
      <trkpt lat="49.49546" lon="-1.41534">
        <ele>47.1</ele>
        <time>2026-09-03T09:26:59.536Z</time>
      </trkpt>
      <trkpt lat="49.49548" lon="-1.41538">
        <ele>47.2</ele>
        <time>2026-09-03T09:27:01.536Z</time>
      </trkpt>
      <trkpt lat="49.49549" lon="-1.41539">
        <ele>47.2</ele>
        <time>2026-09-03T09:27:02.536Z</time>
      </trkpt>
      <trkpt lat="49.49549" lon="-1.41541">
        <ele>47.3</ele>
        <time>2026-09-03T09:27:03.551Z</time>
      </trkpt>
      <trkpt lat="49.4955" lon="-1.41542">
        <ele>47.3</ele>
        <time>2026-09-03T09:27:04.552Z</time>
      </trkpt>
      <trkpt lat="49.4955" lon="-1.41543">
        <ele>47.3</ele>
        <time>2026-09-03T09:27:05.553Z</time>
      </trkpt>
      <trkpt lat="49.49551" lon="-1.41545">
        <ele>47.4</ele>
        <time>2026-09-03T09:27:06.555Z</time>
      </trkpt>
      <trkpt lat="49.49552" lon="-1.41547">
        <ele>47.5</ele>
        <time>2026-09-03T09:27:07.556Z</time>
      </trkpt>
      <trkpt lat="49.49553" lon="-1.41548">
        <ele>47.6</ele>
        <time>2026-09-03T09:27:08.558Z</time>
      </trkpt>
      <trkpt lat="49.49554" lon="-1.41551">
        <ele>47.7</ele>
        <time>2026-09-03T09:27:10.601Z</time>
      </trkpt>
      <trkpt lat="49.49556" lon="-1.41554">
        <ele>47.9</ele>
        <time>2026-09-03T09:27:12.453Z</time>
      </trkpt>
      <trkpt lat="49.49556" lon="-1.41555">
        <ele>48</ele>
        <time>2026-09-03T09:27:13.535Z</time>
      </trkpt>
      <trkpt lat="49.49556" lon="-1.41557">
        <ele>48</ele>
        <time>2026-09-03T09:27:14.545Z</time>
      </trkpt>
      <trkpt lat="49.49556" lon="-1.41558">
        <ele>48</ele>
        <time>2026-09-03T09:27:15.547Z</time>
      </trkpt>
      <trkpt lat="49.49556" lon="-1.4156">
        <ele>48</ele>
        <time>2026-09-03T09:27:16.549Z</time>
      </trkpt>
      <trkpt lat="49.49557" lon="-1.41565">
        <ele>48</ele>
        <time>2026-09-03T09:27:18.536Z</time>
      </trkpt>
      <trkpt lat="49.49557" lon="-1.41567">
        <ele>48</ele>
        <time>2026-09-03T09:27:19.536Z</time>
      </trkpt>
      <trkpt lat="49.49558" lon="-1.41569">
        <ele>48</ele>
        <time>2026-09-03T09:27:20.614Z</time>
      </trkpt>
      <trkpt lat="49.49559" lon="-1.41572">
        <ele>48</ele>
        <time>2026-09-03T09:27:22.517Z</time>
      </trkpt>
      <trkpt lat="49.4956" lon="-1.41573">
        <ele>48</ele>
        <time>2026-09-03T09:27:23.536Z</time>
      </trkpt>
      <trkpt lat="49.49562" lon="-1.41576">
        <ele>48</ele>
        <time>2026-09-03T09:27:25.581Z</time>
      </trkpt>
      <trkpt lat="49.49563" lon="-1.41577">
        <ele>48</ele>
        <time>2026-09-03T09:27:26.582Z</time>
      </trkpt>
      <trkpt lat="49.49565" lon="-1.41581">
        <ele>48</ele>
        <time>2026-09-03T09:27:28.536Z</time>
      </trkpt>
      <trkpt lat="49.49565" lon="-1.41582">
        <ele>48</ele>
        <time>2026-09-03T09:27:29.536Z</time>
      </trkpt>
      <trkpt lat="49.49566" lon="-1.41585">
        <ele>48</ele>
        <time>2026-09-03T09:27:31.536Z</time>
      </trkpt>
      <trkpt lat="49.49567" lon="-1.41586">
        <ele>48</ele>
        <time>2026-09-03T09:27:32.536Z</time>
      </trkpt>
      <trkpt lat="49.49568" lon="-1.41588">
        <ele>48.1</ele>
        <time>2026-09-03T09:27:33.536Z</time>
      </trkpt>
      <trkpt lat="49.49568" lon="-1.4159">
        <ele>48.1</ele>
        <time>2026-09-03T09:27:34.536Z</time>
      </trkpt>
      <trkpt lat="49.49567" lon="-1.41592">
        <ele>48.1</ele>
        <time>2026-09-03T09:27:35.555Z</time>
      </trkpt>
      <trkpt lat="49.49567" lon="-1.41594">
        <ele>48.2</ele>
        <time>2026-09-03T09:27:36.599Z</time>
      </trkpt>
      <trkpt lat="49.49567" lon="-1.41598">
        <ele>48.2</ele>
        <time>2026-09-03T09:27:38.579Z</time>
      </trkpt>
      <trkpt lat="49.49568" lon="-1.41601">
        <ele>48.3</ele>
        <time>2026-09-03T09:27:40.521Z</time>
      </trkpt>
      <trkpt lat="49.49569" lon="-1.41602">
        <ele>48.3</ele>
        <time>2026-09-03T09:27:41.536Z</time>
      </trkpt>
      <trkpt lat="49.4957" lon="-1.41604">
        <ele>48.4</ele>
        <time>2026-09-03T09:27:42.604Z</time>
      </trkpt>
      <trkpt lat="49.49572" lon="-1.41606">
        <ele>48.5</ele>
        <time>2026-09-03T09:27:44.537Z</time>
      </trkpt>
      <trkpt lat="49.49573" lon="-1.41609">
        <ele>48.6</ele>
        <time>2026-09-03T09:27:46.536Z</time>
      </trkpt>
      <trkpt lat="49.49573" lon="-1.4161">
        <ele>48.6</ele>
        <time>2026-09-03T09:27:47.536Z</time>
      </trkpt>
      <trkpt lat="49.49574" lon="-1.41612">
        <ele>48.7</ele>
        <time>2026-09-03T09:27:48.536Z</time>
      </trkpt>
      <trkpt lat="49.49576" lon="-1.41615">
        <ele>48.8</ele>
        <time>2026-09-03T09:27:50.536Z</time>
      </trkpt>
      <trkpt lat="49.49577" lon="-1.41618">
        <ele>48.8</ele>
        <time>2026-09-03T09:27:52.558Z</time>
      </trkpt>
      <trkpt lat="49.49578" lon="-1.41619">
        <ele>48.9</ele>
        <time>2026-09-03T09:27:53.559Z</time>
      </trkpt>
      <trkpt lat="49.49578" lon="-1.41621">
        <ele>48.9</ele>
        <time>2026-09-03T09:27:54.560Z</time>
      </trkpt>
      <trkpt lat="49.49578" lon="-1.41622">
        <ele>48.9</ele>
        <time>2026-09-03T09:27:55.562Z</time>
      </trkpt>
      <trkpt lat="49.49579" lon="-1.41624">
        <ele>48.9</ele>
        <time>2026-09-03T09:27:56.563Z</time>
      </trkpt>
      <trkpt lat="49.49581" lon="-1.41626">
        <ele>49</ele>
        <time>2026-09-03T09:27:58.536Z</time>
      </trkpt>
      <trkpt lat="49.49583" lon="-1.41629">
        <ele>49</ele>
        <time>2026-09-03T09:28:00.536Z</time>
      </trkpt>
      <trkpt lat="49.49584" lon="-1.4163">
        <ele>49</ele>
        <time>2026-09-03T09:28:01.536Z</time>
      </trkpt>
      <trkpt lat="49.49585" lon="-1.41632">
        <ele>49.1</ele>
        <time>2026-09-03T09:28:02.536Z</time>
      </trkpt>
      <trkpt lat="49.49586" lon="-1.41634">
        <ele>49.2</ele>
        <time>2026-09-03T09:28:03.536Z</time>
      </trkpt>
      <trkpt lat="49.49583" lon="-1.41634">
        <ele>49</ele>
        <time>2026-09-03T09:28:05.515Z</time>
      </trkpt>
      <trkpt lat="49.49582" lon="-1.41632">
        <ele>49</ele>
        <time>2026-09-03T09:28:06.537Z</time>
      </trkpt>
      <trkpt lat="49.49581" lon="-1.41636">
        <ele>49</ele>
        <time>2026-09-03T09:28:08.640Z</time>
      </trkpt>
      <trkpt lat="49.49582" lon="-1.4164">
        <ele>49.1</ele>
        <time>2026-09-03T09:28:09.701Z</time>
      </trkpt>
      <trkpt lat="49.49583" lon="-1.41643">
        <ele>49.3</ele>
        <time>2026-09-03T09:28:10.752Z</time>
      </trkpt>
      <trkpt lat="49.49584" lon="-1.41645">
        <ele>49.5</ele>
        <time>2026-09-03T09:28:11.854Z</time>
      </trkpt>
      <trkpt lat="49.49585" lon="-1.41648">
        <ele>49.7</ele>
        <time>2026-09-03T09:28:12.955Z</time>
      </trkpt>
      <trkpt lat="49.49585" lon="-1.4165">
        <ele>49.9</ele>
        <time>2026-09-03T09:28:14.017Z</time>
      </trkpt>
      <trkpt lat="49.49586" lon="-1.41652">
        <ele>50</ele>
        <time>2026-09-03T09:28:15.078Z</time>
      </trkpt>
      <trkpt lat="49.49587" lon="-1.41654">
        <ele>50.2</ele>
        <time>2026-09-03T09:28:16.160Z</time>
      </trkpt>
      <trkpt lat="49.49589" lon="-1.41655">
        <ele>50.3</ele>
        <time>2026-09-03T09:28:17.241Z</time>
      </trkpt>
      <trkpt lat="49.4959" lon="-1.41657">
        <ele>50.5</ele>
        <time>2026-09-03T09:28:18.333Z</time>
      </trkpt>
      <trkpt lat="49.49591" lon="-1.41658">
        <ele>50.5</ele>
        <time>2026-09-03T09:28:19.434Z</time>
      </trkpt>
      <trkpt lat="49.49592" lon="-1.41659">
        <ele>50.6</ele>
        <time>2026-09-03T09:28:20.536Z</time>
      </trkpt>
      <trkpt lat="49.49593" lon="-1.41661">
        <ele>50.7</ele>
        <time>2026-09-03T09:28:21.557Z</time>
      </trkpt>
      <trkpt lat="49.49594" lon="-1.41663">
        <ele>50.8</ele>
        <time>2026-09-03T09:28:22.559Z</time>
      </trkpt>
      <trkpt lat="49.49596" lon="-1.41666">
        <ele>51</ele>
        <time>2026-09-03T09:28:24.599Z</time>
      </trkpt>
      <trkpt lat="49.49597" lon="-1.41668">
        <ele>51</ele>
        <time>2026-09-03T09:28:25.603Z</time>
      </trkpt>
      <trkpt lat="49.49598" lon="-1.41672">
        <ele>51.1</ele>
        <time>2026-09-03T09:28:27.536Z</time>
      </trkpt>
      <trkpt lat="49.49599" lon="-1.41675">
        <ele>51.1</ele>
        <time>2026-09-03T09:28:29.578Z</time>
      </trkpt>
      <trkpt lat="49.496" lon="-1.41678">
        <ele>51.2</ele>
        <time>2026-09-03T09:28:31.571Z</time>
      </trkpt>
      <trkpt lat="49.49601" lon="-1.4168">
        <ele>51.2</ele>
        <time>2026-09-03T09:28:32.572Z</time>
      </trkpt>
      <trkpt lat="49.49602" lon="-1.41684">
        <ele>51.2</ele>
        <time>2026-09-03T09:28:34.536Z</time>
      </trkpt>
      <trkpt lat="49.49603" lon="-1.41686">
        <ele>51.2</ele>
        <time>2026-09-03T09:28:35.536Z</time>
      </trkpt>
      <trkpt lat="49.49603" lon="-1.41687">
        <ele>51.2</ele>
        <time>2026-09-03T09:28:36.536Z</time>
      </trkpt>
      <trkpt lat="49.49604" lon="-1.41689">
        <ele>51.2</ele>
        <time>2026-09-03T09:28:37.536Z</time>
      </trkpt>
      <trkpt lat="49.49605" lon="-1.41691">
        <ele>51.2</ele>
        <time>2026-09-03T09:28:38.536Z</time>
      </trkpt>
      <trkpt lat="49.49605" lon="-1.41693">
        <ele>51.2</ele>
        <time>2026-09-03T09:28:39.536Z</time>
      </trkpt>
      <trkpt lat="49.49606" lon="-1.41695">
        <ele>51.2</ele>
        <time>2026-09-03T09:28:40.536Z</time>
      </trkpt>
      <trkpt lat="49.49607" lon="-1.41698">
        <ele>51.3</ele>
        <time>2026-09-03T09:28:42.606Z</time>
      </trkpt>
      <trkpt lat="49.49608" lon="-1.41701">
        <ele>51.3</ele>
        <time>2026-09-03T09:28:44.478Z</time>
      </trkpt>
      <trkpt lat="49.49608" lon="-1.41703">
        <ele>51.4</ele>
        <time>2026-09-03T09:28:45.560Z</time>
      </trkpt>
      <trkpt lat="49.4961" lon="-1.41706">
        <ele>51.5</ele>
        <time>2026-09-03T09:28:47.536Z</time>
      </trkpt>
      <trkpt lat="49.49611" lon="-1.41707">
        <ele>51.5</ele>
        <time>2026-09-03T09:28:48.536Z</time>
      </trkpt>
      <trkpt lat="49.49612" lon="-1.41709">
        <ele>51.6</ele>
        <time>2026-09-03T09:28:49.536Z</time>
      </trkpt>
      <trkpt lat="49.49613" lon="-1.4171">
        <ele>51.7</ele>
        <time>2026-09-03T09:28:50.536Z</time>
      </trkpt>
      <trkpt lat="49.49614" lon="-1.41712">
        <ele>51.8</ele>
        <time>2026-09-03T09:28:51.578Z</time>
      </trkpt>
      <trkpt lat="49.49616" lon="-1.41715">
        <ele>52.1</ele>
        <time>2026-09-03T09:28:53.581Z</time>
      </trkpt>
      <trkpt lat="49.49617" lon="-1.41718">
        <ele>52.3</ele>
        <time>2026-09-03T09:28:55.536Z</time>
      </trkpt>
      <trkpt lat="49.49619" lon="-1.41722">
        <ele>52.6</ele>
        <time>2026-09-03T09:28:57.536Z</time>
      </trkpt>
      <trkpt lat="49.4962" lon="-1.41723">
        <ele>52.7</ele>
        <time>2026-09-03T09:28:58.536Z</time>
      </trkpt>
      <trkpt lat="49.49621" lon="-1.41725">
        <ele>52.9</ele>
        <time>2026-09-03T09:28:59.536Z</time>
      </trkpt>
      <trkpt lat="49.49621" lon="-1.41727">
        <ele>53</ele>
        <time>2026-09-03T09:29:00.536Z</time>
      </trkpt>
      <trkpt lat="49.49622" lon="-1.41729">
        <ele>53.2</ele>
        <time>2026-09-03T09:29:01.536Z</time>
      </trkpt>
      <trkpt lat="49.49623" lon="-1.4173">
        <ele>53.3</ele>
        <time>2026-09-03T09:29:02.536Z</time>
      </trkpt>
      <trkpt lat="49.49624" lon="-1.41732">
        <ele>53.5</ele>
        <time>2026-09-03T09:29:03.536Z</time>
      </trkpt>
      <trkpt lat="49.49625" lon="-1.41734">
        <ele>53.6</ele>
        <time>2026-09-03T09:29:04.536Z</time>
      </trkpt>
      <trkpt lat="49.49626" lon="-1.41735">
        <ele>53.7</ele>
        <time>2026-09-03T09:29:05.536Z</time>
      </trkpt>
      <trkpt lat="49.49626" lon="-1.41737">
        <ele>53.9</ele>
        <time>2026-09-03T09:29:06.536Z</time>
      </trkpt>
      <trkpt lat="49.49627" lon="-1.41739">
        <ele>54</ele>
        <time>2026-09-03T09:29:07.536Z</time>
      </trkpt>
      <trkpt lat="49.49629" lon="-1.41741">
        <ele>54.2</ele>
        <time>2026-09-03T09:29:09.536Z</time>
      </trkpt>
      <trkpt lat="49.49629" lon="-1.41743">
        <ele>54.3</ele>
        <time>2026-09-03T09:29:10.536Z</time>
      </trkpt>
      <trkpt lat="49.4963" lon="-1.41744">
        <ele>54.4</ele>
        <time>2026-09-03T09:29:11.536Z</time>
      </trkpt>
      <trkpt lat="49.4963" lon="-1.41746">
        <ele>54.5</ele>
        <time>2026-09-03T09:29:12.536Z</time>
      </trkpt>
      <trkpt lat="49.4963" lon="-1.4175">
        <ele>54.7</ele>
        <time>2026-09-03T09:29:14.580Z</time>
      </trkpt>
      <trkpt lat="49.49631" lon="-1.41754">
        <ele>54.8</ele>
        <time>2026-09-03T09:29:16.536Z</time>
      </trkpt>
      <trkpt lat="49.49631" lon="-1.41756">
        <ele>54.8</ele>
        <time>2026-09-03T09:29:17.536Z</time>
      </trkpt>
      <trkpt lat="49.49632" lon="-1.41757">
        <ele>54.8</ele>
        <time>2026-09-03T09:29:18.536Z</time>
      </trkpt>
      <trkpt lat="49.49632" lon="-1.41759">
        <ele>54.8</ele>
        <time>2026-09-03T09:29:19.536Z</time>
      </trkpt>
      <trkpt lat="49.49633" lon="-1.41761">
        <ele>54.9</ele>
        <time>2026-09-03T09:29:20.536Z</time>
      </trkpt>
      <trkpt lat="49.49634" lon="-1.41762">
        <ele>54.9</ele>
        <time>2026-09-03T09:29:21.536Z</time>
      </trkpt>
      <trkpt lat="49.49634" lon="-1.41764">
        <ele>54.9</ele>
        <time>2026-09-03T09:29:22.536Z</time>
      </trkpt>
      <trkpt lat="49.49635" lon="-1.41765">
        <ele>54.9</ele>
        <time>2026-09-03T09:29:23.536Z</time>
      </trkpt>
      <trkpt lat="49.49636" lon="-1.41767">
        <ele>55</ele>
        <time>2026-09-03T09:29:24.554Z</time>
      </trkpt>
      <trkpt lat="49.49636" lon="-1.41768">
        <ele>55</ele>
        <time>2026-09-03T09:29:25.575Z</time>
      </trkpt>
      <trkpt lat="49.49637" lon="-1.41769">
        <ele>55</ele>
        <time>2026-09-03T09:29:27.536Z</time>
      </trkpt>
      <trkpt lat="49.49637" lon="-1.41768">
        <ele>55</ele>
        <time>2026-09-03T09:29:28.536Z</time>
      </trkpt>
      <trkpt lat="49.49637" lon="-1.41769">
        <ele>55</ele>
        <time>2026-09-03T09:29:29.536Z</time>
      </trkpt>
      <trkpt lat="49.49637" lon="-1.41769">
        <ele>55</ele>
        <time>2026-09-03T09:29:30.536Z</time>
      </trkpt>
      <trkpt lat="49.49637" lon="-1.41769">
        <ele>55</ele>
        <time>2026-09-03T09:29:31.536Z</time>
      </trkpt>
      <trkpt lat="49.49637" lon="-1.4177">
        <ele>55</ele>
        <time>2026-09-03T09:29:32.536Z</time>
      </trkpt>
      <trkpt lat="49.49637" lon="-1.41771">
        <ele>55</ele>
        <time>2026-09-03T09:29:33.556Z</time>
      </trkpt>
      <trkpt lat="49.49638" lon="-1.41775">
        <ele>55</ele>
        <time>2026-09-03T09:29:35.539Z</time>
      </trkpt>
      <trkpt lat="49.49639" lon="-1.41777">
        <ele>55</ele>
        <time>2026-09-03T09:29:36.541Z</time>
      </trkpt>
      <trkpt lat="49.4964" lon="-1.41779">
        <ele>55.1</ele>
        <time>2026-09-03T09:29:37.602Z</time>
      </trkpt>
      <trkpt lat="49.49641" lon="-1.41781">
        <ele>55.3</ele>
        <time>2026-09-03T09:29:39.565Z</time>
      </trkpt>
      <trkpt lat="49.49642" lon="-1.41783">
        <ele>55.4</ele>
        <time>2026-09-03T09:29:41.536Z</time>
      </trkpt>
      <trkpt lat="49.49642" lon="-1.41785">
        <ele>55.5</ele>
        <time>2026-09-03T09:29:42.536Z</time>
      </trkpt>
      <trkpt lat="49.49642" lon="-1.41786">
        <ele>55.5</ele>
        <time>2026-09-03T09:29:43.536Z</time>
      </trkpt>
      <trkpt lat="49.49642" lon="-1.41787">
        <ele>55.5</ele>
        <time>2026-09-03T09:29:44.536Z</time>
      </trkpt>
      <trkpt lat="49.49643" lon="-1.4179">
        <ele>55.7</ele>
        <time>2026-09-03T09:29:46.575Z</time>
      </trkpt>
      <trkpt lat="49.49644" lon="-1.41793">
        <ele>55.8</ele>
        <time>2026-09-03T09:29:48.558Z</time>
      </trkpt>
      <trkpt lat="49.49644" lon="-1.41794">
        <ele>55.8</ele>
        <time>2026-09-03T09:29:49.558Z</time>
      </trkpt>
      <trkpt lat="49.49645" lon="-1.41795">
        <ele>55.9</ele>
        <time>2026-09-03T09:29:50.560Z</time>
      </trkpt>
      <trkpt lat="49.49646" lon="-1.41797">
        <ele>56</ele>
        <time>2026-09-03T09:29:51.562Z</time>
      </trkpt>
      <trkpt lat="49.49647" lon="-1.418">
        <ele>56.2</ele>
        <time>2026-09-03T09:29:53.536Z</time>
      </trkpt>
      <trkpt lat="49.49648" lon="-1.41802">
        <ele>56.2</ele>
        <time>2026-09-03T09:29:54.536Z</time>
      </trkpt>
      <trkpt lat="49.49649" lon="-1.41803">
        <ele>56.3</ele>
        <time>2026-09-03T09:29:55.557Z</time>
      </trkpt>
      <trkpt lat="49.49649" lon="-1.41805">
        <ele>56.4</ele>
        <time>2026-09-03T09:29:56.569Z</time>
      </trkpt>
      <trkpt lat="49.4965" lon="-1.41807">
        <ele>56.4</ele>
        <time>2026-09-03T09:29:57.570Z</time>
      </trkpt>
      <trkpt lat="49.49651" lon="-1.41809">
        <ele>56.5</ele>
        <time>2026-09-03T09:29:58.572Z</time>
      </trkpt>
      <trkpt lat="49.49651" lon="-1.41811">
        <ele>56.5</ele>
        <time>2026-09-03T09:29:59.573Z</time>
      </trkpt>
      <trkpt lat="49.49653" lon="-1.41814">
        <ele>56.7</ele>
        <time>2026-09-03T09:30:01.476Z</time>
      </trkpt>
      <trkpt lat="49.49654" lon="-1.41816">
        <ele>56.7</ele>
        <time>2026-09-03T09:30:02.497Z</time>
      </trkpt>
      <trkpt lat="49.49655" lon="-1.41818">
        <ele>56.8</ele>
        <time>2026-09-03T09:30:03.579Z</time>
      </trkpt>
      <trkpt lat="49.49655" lon="-1.4182">
        <ele>56.9</ele>
        <time>2026-09-03T09:30:04.580Z</time>
      </trkpt>
      <trkpt lat="49.49656" lon="-1.41821">
        <ele>57</ele>
        <time>2026-09-03T09:30:05.581Z</time>
      </trkpt>
      <trkpt lat="49.49657" lon="-1.41824">
        <ele>57.1</ele>
        <time>2026-09-03T09:30:07.536Z</time>
      </trkpt>
      <trkpt lat="49.49658" lon="-1.41827">
        <ele>57.2</ele>
        <time>2026-09-03T09:30:09.536Z</time>
      </trkpt>
      <trkpt lat="49.49659" lon="-1.41828">
        <ele>57.3</ele>
        <time>2026-09-03T09:30:10.588Z</time>
      </trkpt>
      <trkpt lat="49.4966" lon="-1.4183">
        <ele>57.4</ele>
        <time>2026-09-03T09:30:11.790Z</time>
      </trkpt>
      <trkpt lat="49.49661" lon="-1.41831">
        <ele>57.5</ele>
        <time>2026-09-03T09:30:13.092Z</time>
      </trkpt>
      <trkpt lat="49.49661" lon="-1.41829">
        <ele>57.5</ele>
        <time>2026-09-03T09:30:14.213Z</time>
      </trkpt>
      <trkpt lat="49.4966" lon="-1.41829">
        <ele>57.4</ele>
        <time>2026-09-03T09:30:15.455Z</time>
      </trkpt>
      <trkpt lat="49.49658" lon="-1.41829">
        <ele>57.3</ele>
        <time>2026-09-03T09:30:16.557Z</time>
      </trkpt>
      <trkpt lat="49.49657" lon="-1.4183">
        <ele>57.2</ele>
        <time>2026-09-03T09:30:17.557Z</time>
      </trkpt>
      <trkpt lat="49.49657" lon="-1.41832">
        <ele>57.3</ele>
        <time>2026-09-03T09:30:19.536Z</time>
      </trkpt>
      <trkpt lat="49.49656" lon="-1.41833">
        <ele>57.2</ele>
        <time>2026-09-03T09:30:20.536Z</time>
      </trkpt>
      <trkpt lat="49.49654" lon="-1.41832">
        <ele>57.1</ele>
        <time>2026-09-03T09:30:22.536Z</time>
      </trkpt>
      <trkpt lat="49.49657" lon="-1.41839">
        <ele>57.3</ele>
        <time>2026-09-03T09:30:24.588Z</time>
      </trkpt>
      <trkpt lat="49.49661" lon="-1.41846">
        <ele>57.4</ele>
        <time>2026-09-03T09:30:25.562Z</time>
      </trkpt>
      <trkpt lat="49.49665" lon="-1.41852">
        <ele>57.3</ele>
        <time>2026-09-03T09:30:26.536Z</time>
      </trkpt>
      <trkpt lat="49.49666" lon="-1.41855">
        <ele>57.2</ele>
        <time>2026-09-03T09:30:27.536Z</time>
      </trkpt>
      <trkpt lat="49.49667" lon="-1.41856">
        <ele>57.2</ele>
        <time>2026-09-03T09:30:28.536Z</time>
      </trkpt>
      <trkpt lat="49.49668" lon="-1.41858">
        <ele>57.3</ele>
        <time>2026-09-03T09:30:29.554Z</time>
      </trkpt>
      <trkpt lat="49.4967" lon="-1.41862">
        <ele>57.5</ele>
        <time>2026-09-03T09:30:31.537Z</time>
      </trkpt>
      <trkpt lat="49.49672" lon="-1.41866">
        <ele>58.1</ele>
        <time>2026-09-03T09:30:33.600Z</time>
      </trkpt>
      <trkpt lat="49.49672" lon="-1.4187">
        <ele>58.3</ele>
        <time>2026-09-03T09:30:35.536Z</time>
      </trkpt>
      <trkpt lat="49.49673" lon="-1.41872">
        <ele>58.6</ele>
        <time>2026-09-03T09:30:36.584Z</time>
      </trkpt>
      <trkpt lat="49.49674" lon="-1.41876">
        <ele>59</ele>
        <time>2026-09-03T09:30:38.577Z</time>
      </trkpt>
      <trkpt lat="49.49675" lon="-1.41879">
        <ele>59.3</ele>
        <time>2026-09-03T09:30:40.536Z</time>
      </trkpt>
      <trkpt lat="49.49676" lon="-1.41881">
        <ele>59.5</ele>
        <time>2026-09-03T09:30:41.541Z</time>
      </trkpt>
      <trkpt lat="49.49677" lon="-1.41884">
        <ele>59.8</ele>
        <time>2026-09-03T09:30:43.536Z</time>
      </trkpt>
      <trkpt lat="49.49678" lon="-1.41885">
        <ele>60</ele>
        <time>2026-09-03T09:30:44.536Z</time>
      </trkpt>
      <trkpt lat="49.49678" lon="-1.41887">
        <ele>60.1</ele>
        <time>2026-09-03T09:30:45.536Z</time>
      </trkpt>
      <trkpt lat="49.4968" lon="-1.4189">
        <ele>60.4</ele>
        <time>2026-09-03T09:30:47.536Z</time>
      </trkpt>
      <trkpt lat="49.49681" lon="-1.41892">
        <ele>60.5</ele>
        <time>2026-09-03T09:30:48.536Z</time>
      </trkpt>
      <trkpt lat="49.49681" lon="-1.41893">
        <ele>60.5</ele>
        <time>2026-09-03T09:30:49.536Z</time>
      </trkpt>
      <trkpt lat="49.49682" lon="-1.41895">
        <ele>60.6</ele>
        <time>2026-09-03T09:30:50.553Z</time>
      </trkpt>
      <trkpt lat="49.49684" lon="-1.41898">
        <ele>60.8</ele>
        <time>2026-09-03T09:30:52.536Z</time>
      </trkpt>
      <trkpt lat="49.49685" lon="-1.419">
        <ele>60.9</ele>
        <time>2026-09-03T09:30:53.536Z</time>
      </trkpt>
      <trkpt lat="49.49686" lon="-1.41901">
        <ele>60.9</ele>
        <time>2026-09-03T09:30:54.536Z</time>
      </trkpt>
      <trkpt lat="49.49687" lon="-1.41903">
        <ele>61</ele>
        <time>2026-09-03T09:30:55.560Z</time>
      </trkpt>
      <trkpt lat="49.49689" lon="-1.41906">
        <ele>61</ele>
        <time>2026-09-03T09:30:57.536Z</time>
      </trkpt>
      <trkpt lat="49.49689" lon="-1.41907">
        <ele>61</ele>
        <time>2026-09-03T09:30:58.536Z</time>
      </trkpt>
      <trkpt lat="49.4969" lon="-1.41909">
        <ele>61</ele>
        <time>2026-09-03T09:30:59.536Z</time>
      </trkpt>
      <trkpt lat="49.4969" lon="-1.4191">
        <ele>61</ele>
        <time>2026-09-03T09:31:00.536Z</time>
      </trkpt>
      <trkpt lat="49.49691" lon="-1.41912">
        <ele>61</ele>
        <time>2026-09-03T09:31:01.536Z</time>
      </trkpt>
      <trkpt lat="49.49692" lon="-1.41914">
        <ele>61</ele>
        <time>2026-09-03T09:31:02.536Z</time>
      </trkpt>
      <trkpt lat="49.49692" lon="-1.41915">
        <ele>61</ele>
        <time>2026-09-03T09:31:03.536Z</time>
      </trkpt>
      <trkpt lat="49.49693" lon="-1.41917">
        <ele>60.9</ele>
        <time>2026-09-03T09:31:04.552Z</time>
      </trkpt>
      <trkpt lat="49.49693" lon="-1.41918">
        <ele>60.9</ele>
        <time>2026-09-03T09:31:05.574Z</time>
      </trkpt>
      <trkpt lat="49.49694" lon="-1.41922">
        <ele>61</ele>
        <time>2026-09-03T09:31:07.566Z</time>
      </trkpt>
      <trkpt lat="49.49695" lon="-1.41925">
        <ele>61.1</ele>
        <time>2026-09-03T09:31:09.579Z</time>
      </trkpt>
      <trkpt lat="49.49696" lon="-1.41928">
        <ele>61.2</ele>
        <time>2026-09-03T09:31:11.572Z</time>
      </trkpt>
      <trkpt lat="49.49697" lon="-1.41932">
        <ele>61.3</ele>
        <time>2026-09-03T09:31:13.515Z</time>
      </trkpt>
      <trkpt lat="49.49698" lon="-1.41934">
        <ele>61.4</ele>
        <time>2026-09-03T09:31:14.576Z</time>
      </trkpt>
      <trkpt lat="49.49699" lon="-1.41937">
        <ele>61.5</ele>
        <time>2026-09-03T09:31:16.559Z</time>
      </trkpt>
      <trkpt lat="49.497" lon="-1.41941">
        <ele>61.6</ele>
        <time>2026-09-03T09:31:18.561Z</time>
      </trkpt>
      <trkpt lat="49.49701" lon="-1.41942">
        <ele>61.7</ele>
        <time>2026-09-03T09:31:19.563Z</time>
      </trkpt>
      <trkpt lat="49.49702" lon="-1.41944">
        <ele>61.8</ele>
        <time>2026-09-03T09:31:20.564Z</time>
      </trkpt>
      <trkpt lat="49.49703" lon="-1.41947">
        <ele>62.1</ele>
        <time>2026-09-03T09:31:22.559Z</time>
      </trkpt>
      <trkpt lat="49.49705" lon="-1.41948">
        <ele>62.3</ele>
        <time>2026-09-03T09:31:24.536Z</time>
      </trkpt>
      <trkpt lat="49.49705" lon="-1.41948">
        <ele>62.3</ele>
        <time>2026-09-03T09:31:25.559Z</time>
      </trkpt>
      <trkpt lat="49.49706" lon="-1.41949">
        <ele>62.4</ele>
        <time>2026-09-03T09:31:27.559Z</time>
      </trkpt>
      <trkpt lat="49.49707" lon="-1.41951">
        <ele>62.6</ele>
        <time>2026-09-03T09:31:28.559Z</time>
      </trkpt>
      <trkpt lat="49.49709" lon="-1.41955">
        <ele>62.9</ele>
        <time>2026-09-03T09:31:30.578Z</time>
      </trkpt>
      <trkpt lat="49.49711" lon="-1.41957">
        <ele>63.2</ele>
        <time>2026-09-03T09:31:32.536Z</time>
      </trkpt>
      <trkpt lat="49.49711" lon="-1.41958">
        <ele>63.2</ele>
        <time>2026-09-03T09:31:33.572Z</time>
      </trkpt>
      <trkpt lat="49.49712" lon="-1.41959">
        <ele>63.3</ele>
        <time>2026-09-03T09:31:35.535Z</time>
      </trkpt>
      <trkpt lat="49.49714" lon="-1.41962">
        <ele>63.5</ele>
        <time>2026-09-03T09:31:37.536Z</time>
      </trkpt>
      <trkpt lat="49.49717" lon="-1.41965">
        <ele>63.7</ele>
        <time>2026-09-03T09:31:39.536Z</time>
      </trkpt>
      <trkpt lat="49.49717" lon="-1.41967">
        <ele>63.7</ele>
        <time>2026-09-03T09:31:40.536Z</time>
      </trkpt>
      <trkpt lat="49.49718" lon="-1.41969">
        <ele>63.8</ele>
        <time>2026-09-03T09:31:41.536Z</time>
      </trkpt>
      <trkpt lat="49.49719" lon="-1.4197">
        <ele>63.9</ele>
        <time>2026-09-03T09:31:42.536Z</time>
      </trkpt>
      <trkpt lat="49.4972" lon="-1.41971">
        <ele>63.9</ele>
        <time>2026-09-03T09:31:43.536Z</time>
      </trkpt>
      <trkpt lat="49.49722" lon="-1.41974">
        <ele>64</ele>
        <time>2026-09-03T09:31:45.536Z</time>
      </trkpt>
      <trkpt lat="49.49723" lon="-1.41975">
        <ele>64.1</ele>
        <time>2026-09-03T09:31:46.536Z</time>
      </trkpt>
      <trkpt lat="49.49724" lon="-1.41977">
        <ele>64.1</ele>
        <time>2026-09-03T09:31:47.541Z</time>
      </trkpt>
      <trkpt lat="49.49725" lon="-1.41979">
        <ele>64.2</ele>
        <time>2026-09-03T09:31:49.544Z</time>
      </trkpt>
      <trkpt lat="49.49725" lon="-1.4198">
        <ele>64.2</ele>
        <time>2026-09-03T09:31:50.545Z</time>
      </trkpt>
      <trkpt lat="49.49726" lon="-1.41982">
        <ele>64.3</ele>
        <time>2026-09-03T09:31:51.546Z</time>
      </trkpt>
      <trkpt lat="49.49727" lon="-1.41984">
        <ele>64.3</ele>
        <time>2026-09-03T09:31:52.548Z</time>
      </trkpt>
      <trkpt lat="49.49728" lon="-1.41985">
        <ele>64.4</ele>
        <time>2026-09-03T09:31:53.549Z</time>
      </trkpt>
      <trkpt lat="49.49729" lon="-1.41987">
        <ele>64.5</ele>
        <time>2026-09-03T09:31:54.599Z</time>
      </trkpt>
      <trkpt lat="49.49731" lon="-1.41989">
        <ele>64.6</ele>
        <time>2026-09-03T09:31:56.543Z</time>
      </trkpt>
      <trkpt lat="49.49732" lon="-1.4199">
        <ele>64.7</ele>
        <time>2026-09-03T09:31:57.565Z</time>
      </trkpt>
      <trkpt lat="49.49733" lon="-1.41992">
        <ele>64.8</ele>
        <time>2026-09-03T09:31:59.557Z</time>
      </trkpt>
      <trkpt lat="49.49735" lon="-1.41994">
        <ele>64.9</ele>
        <time>2026-09-03T09:32:01.570Z</time>
      </trkpt>
      <trkpt lat="49.49736" lon="-1.41998">
        <ele>65</ele>
        <time>2026-09-03T09:32:03.536Z</time>
      </trkpt>
      <trkpt lat="49.49737" lon="-1.42">
        <ele>65.1</ele>
        <time>2026-09-03T09:32:04.536Z</time>
      </trkpt>
      <trkpt lat="49.49738" lon="-1.42002">
        <ele>65.1</ele>
        <time>2026-09-03T09:32:05.586Z</time>
      </trkpt>
      <trkpt lat="49.4974" lon="-1.42005">
        <ele>65.2</ele>
        <time>2026-09-03T09:32:07.536Z</time>
      </trkpt>
      <trkpt lat="49.4974" lon="-1.42006">
        <ele>65.2</ele>
        <time>2026-09-03T09:32:08.536Z</time>
      </trkpt>
      <trkpt lat="49.49742" lon="-1.4201">
        <ele>65.3</ele>
        <time>2026-09-03T09:32:10.536Z</time>
      </trkpt>
      <trkpt lat="49.49744" lon="-1.42011">
        <ele>65.3</ele>
        <time>2026-09-03T09:32:11.554Z</time>
      </trkpt>
      <trkpt lat="49.49744" lon="-1.42013">
        <ele>65.3</ele>
        <time>2026-09-03T09:32:12.595Z</time>
      </trkpt>
      <trkpt lat="49.49746" lon="-1.42015">
        <ele>65.3</ele>
        <time>2026-09-03T09:32:14.528Z</time>
      </trkpt>
      <trkpt lat="49.49746" lon="-1.42017">
        <ele>65.3</ele>
        <time>2026-09-03T09:32:15.536Z</time>
      </trkpt>
      <trkpt lat="49.49747" lon="-1.42018">
        <ele>65.3</ele>
        <time>2026-09-03T09:32:16.536Z</time>
      </trkpt>
      <trkpt lat="49.49747" lon="-1.4202">
        <ele>65.2</ele>
        <time>2026-09-03T09:32:17.536Z</time>
      </trkpt>
      <trkpt lat="49.49748" lon="-1.42021">
        <ele>65.2</ele>
        <time>2026-09-03T09:32:18.536Z</time>
      </trkpt>
      <trkpt lat="49.49749" lon="-1.42023">
        <ele>65.2</ele>
        <time>2026-09-03T09:32:19.605Z</time>
      </trkpt>
      <trkpt lat="49.4975" lon="-1.42026">
        <ele>65.1</ele>
        <time>2026-09-03T09:32:21.598Z</time>
      </trkpt>
      <trkpt lat="49.49751" lon="-1.42029">
        <ele>65.1</ele>
        <time>2026-09-03T09:32:23.490Z</time>
      </trkpt>
      <trkpt lat="49.49752" lon="-1.42031">
        <ele>65.1</ele>
        <time>2026-09-03T09:32:24.571Z</time>
      </trkpt>
      <trkpt lat="49.49754" lon="-1.42034">
        <ele>65.3</ele>
        <time>2026-09-03T09:32:26.536Z</time>
      </trkpt>
      <trkpt lat="49.49755" lon="-1.42036">
        <ele>65.4</ele>
        <time>2026-09-03T09:32:27.536Z</time>
      </trkpt>
      <trkpt lat="49.49755" lon="-1.42038">
        <ele>65.4</ele>
        <time>2026-09-03T09:32:28.547Z</time>
      </trkpt>
      <trkpt lat="49.49757" lon="-1.42041">
        <ele>65.5</ele>
        <time>2026-09-03T09:32:30.536Z</time>
      </trkpt>
      <trkpt lat="49.49758" lon="-1.42043">
        <ele>65.6</ele>
        <time>2026-09-03T09:32:31.536Z</time>
      </trkpt>
      <trkpt lat="49.49758" lon="-1.42045">
        <ele>65.6</ele>
        <time>2026-09-03T09:32:32.536Z</time>
      </trkpt>
      <trkpt lat="49.49759" lon="-1.42047">
        <ele>65.6</ele>
        <time>2026-09-03T09:32:33.536Z</time>
      </trkpt>
      <trkpt lat="49.4976" lon="-1.42048">
        <ele>65.7</ele>
        <time>2026-09-03T09:32:34.536Z</time>
      </trkpt>
      <trkpt lat="49.49761" lon="-1.4205">
        <ele>65.8</ele>
        <time>2026-09-03T09:32:35.536Z</time>
      </trkpt>
      <trkpt lat="49.49761" lon="-1.42052">
        <ele>65.8</ele>
        <time>2026-09-03T09:32:36.536Z</time>
      </trkpt>
      <trkpt lat="49.49762" lon="-1.42054">
        <ele>65.9</ele>
        <time>2026-09-03T09:32:37.536Z</time>
      </trkpt>
      <trkpt lat="49.49764" lon="-1.42056">
        <ele>66</ele>
        <time>2026-09-03T09:32:39.532Z</time>
      </trkpt>
      <trkpt lat="49.49765" lon="-1.42057">
        <ele>66.1</ele>
        <time>2026-09-03T09:32:40.583Z</time>
      </trkpt>
      <trkpt lat="49.49766" lon="-1.42059">
        <ele>66.1</ele>
        <time>2026-09-03T09:32:42.536Z</time>
      </trkpt>
      <trkpt lat="49.49768" lon="-1.42063">
        <ele>66.2</ele>
        <time>2026-09-03T09:32:44.536Z</time>
      </trkpt>
      <trkpt lat="49.49769" lon="-1.42065">
        <ele>66.2</ele>
        <time>2026-09-03T09:32:45.536Z</time>
      </trkpt>
      <trkpt lat="49.49769" lon="-1.42066">
        <ele>66.2</ele>
        <time>2026-09-03T09:32:46.582Z</time>
      </trkpt>
      <trkpt lat="49.4977" lon="-1.42068">
        <ele>66.2</ele>
        <time>2026-09-03T09:32:47.583Z</time>
      </trkpt>
      <trkpt lat="49.49771" lon="-1.42071">
        <ele>66.2</ele>
        <time>2026-09-03T09:32:49.536Z</time>
      </trkpt>
      <trkpt lat="49.49772" lon="-1.42073">
        <ele>66.2</ele>
        <time>2026-09-03T09:32:50.536Z</time>
      </trkpt>
      <trkpt lat="49.49773" lon="-1.42075">
        <ele>66.2</ele>
        <time>2026-09-03T09:32:51.536Z</time>
      </trkpt>
      <trkpt lat="49.49774" lon="-1.42077">
        <ele>66.2</ele>
        <time>2026-09-03T09:32:52.536Z</time>
      </trkpt>
      <trkpt lat="49.49775" lon="-1.42079">
        <ele>66.1</ele>
        <time>2026-09-03T09:32:53.536Z</time>
      </trkpt>
      <trkpt lat="49.49776" lon="-1.42081">
        <ele>66.1</ele>
        <time>2026-09-03T09:32:54.536Z</time>
      </trkpt>
      <trkpt lat="49.49778" lon="-1.42084">
        <ele>66</ele>
        <time>2026-09-03T09:32:56.565Z</time>
      </trkpt>
      <trkpt lat="49.4978" lon="-1.42087">
        <ele>66.1</ele>
        <time>2026-09-03T09:32:58.536Z</time>
      </trkpt>
      <trkpt lat="49.49781" lon="-1.42088">
        <ele>66.2</ele>
        <time>2026-09-03T09:32:59.536Z</time>
      </trkpt>
      <trkpt lat="49.49782" lon="-1.4209">
        <ele>66.3</ele>
        <time>2026-09-03T09:33:00.536Z</time>
      </trkpt>
      <trkpt lat="49.49783" lon="-1.42092">
        <ele>66.3</ele>
        <time>2026-09-03T09:33:01.536Z</time>
      </trkpt>
      <trkpt lat="49.49784" lon="-1.42094">
        <ele>66.4</ele>
        <time>2026-09-03T09:33:02.543Z</time>
      </trkpt>
      <trkpt lat="49.49784" lon="-1.42095">
        <ele>66.4</ele>
        <time>2026-09-03T09:33:03.585Z</time>
      </trkpt>
      <trkpt lat="49.49785" lon="-1.42097">
        <ele>66.4</ele>
        <time>2026-09-03T09:33:05.547Z</time>
      </trkpt>
      <trkpt lat="49.49785" lon="-1.42099">
        <ele>66.4</ele>
        <time>2026-09-03T09:33:06.549Z</time>
      </trkpt>
      <trkpt lat="49.49786" lon="-1.42101">
        <ele>66.4</ele>
        <time>2026-09-03T09:33:07.550Z</time>
      </trkpt>
      <trkpt lat="49.49787" lon="-1.42103">
        <ele>66.4</ele>
        <time>2026-09-03T09:33:08.571Z</time>
      </trkpt>
      <trkpt lat="49.49788" lon="-1.42107">
        <ele>66.4</ele>
        <time>2026-09-03T09:33:10.594Z</time>
      </trkpt>
      <trkpt lat="49.49791" lon="-1.42111">
        <ele>66.5</ele>
        <time>2026-09-03T09:33:12.557Z</time>
      </trkpt>
      <trkpt lat="49.49792" lon="-1.42113">
        <ele>66.5</ele>
        <time>2026-09-03T09:33:13.558Z</time>
      </trkpt>
      <trkpt lat="49.49794" lon="-1.42117">
        <ele>66.5</ele>
        <time>2026-09-03T09:33:15.571Z</time>
      </trkpt>
      <trkpt lat="49.49796" lon="-1.4212">
        <ele>66.4</ele>
        <time>2026-09-03T09:33:17.564Z</time>
      </trkpt>
      <trkpt lat="49.49797" lon="-1.42123">
        <ele>66.4</ele>
        <time>2026-09-03T09:33:19.486Z</time>
      </trkpt>
      <trkpt lat="49.49798" lon="-1.42125">
        <ele>66.4</ele>
        <time>2026-09-03T09:33:20.568Z</time>
      </trkpt>
      <trkpt lat="49.49799" lon="-1.42126">
        <ele>66.4</ele>
        <time>2026-09-03T09:33:21.569Z</time>
      </trkpt>
      <trkpt lat="49.498" lon="-1.42128">
        <ele>66.3</ele>
        <time>2026-09-03T09:33:22.571Z</time>
      </trkpt>
      <trkpt lat="49.49801" lon="-1.42129">
        <ele>66.3</ele>
        <time>2026-09-03T09:33:23.572Z</time>
      </trkpt>
      <trkpt lat="49.49802" lon="-1.4213">
        <ele>66.3</ele>
        <time>2026-09-03T09:33:24.573Z</time>
      </trkpt>
      <trkpt lat="49.49803" lon="-1.42132">
        <ele>66.2</ele>
        <time>2026-09-03T09:33:25.575Z</time>
      </trkpt>
      <trkpt lat="49.49804" lon="-1.42134">
        <ele>66.2</ele>
        <time>2026-09-03T09:33:27.507Z</time>
      </trkpt>
      <trkpt lat="49.49804" lon="-1.42136">
        <ele>66.1</ele>
        <time>2026-09-03T09:33:28.579Z</time>
      </trkpt>
      <trkpt lat="49.49805" lon="-1.42139">
        <ele>66</ele>
        <time>2026-09-03T09:33:30.536Z</time>
      </trkpt>
      <trkpt lat="49.49805" lon="-1.4214">
        <ele>66</ele>
        <time>2026-09-03T09:33:31.536Z</time>
      </trkpt>
      <trkpt lat="49.49806" lon="-1.42142">
        <ele>66</ele>
        <time>2026-09-03T09:33:32.536Z</time>
      </trkpt>
      <trkpt lat="49.49807" lon="-1.42144">
        <ele>66</ele>
        <time>2026-09-03T09:33:34.536Z</time>
      </trkpt>
      <trkpt lat="49.49808" lon="-1.42145">
        <ele>66.1</ele>
        <time>2026-09-03T09:33:35.536Z</time>
      </trkpt>
      <trkpt lat="49.49809" lon="-1.42146">
        <ele>66.1</ele>
        <time>2026-09-03T09:33:36.536Z</time>
      </trkpt>
      <trkpt lat="49.4981" lon="-1.42147">
        <ele>66.1</ele>
        <time>2026-09-03T09:33:37.536Z</time>
      </trkpt>
      <trkpt lat="49.49811" lon="-1.42146">
        <ele>66.1</ele>
        <time>2026-09-03T09:33:38.536Z</time>
      </trkpt>
      <trkpt lat="49.49811" lon="-1.42145">
        <ele>66.2</ele>
        <time>2026-09-03T09:33:39.536Z</time>
      </trkpt>
      <trkpt lat="49.49811" lon="-1.42144">
        <ele>66.2</ele>
        <time>2026-09-03T09:33:40.536Z</time>
      </trkpt>
      <trkpt lat="49.49811" lon="-1.42143">
        <ele>66.2</ele>
        <time>2026-09-03T09:33:41.536Z</time>
      </trkpt>
      <trkpt lat="49.49811" lon="-1.42143">
        <ele>66.2</ele>
        <time>2026-09-03T09:33:42.536Z</time>
      </trkpt>
      <trkpt lat="49.49811" lon="-1.42143">
        <ele>66.2</ele>
        <time>2026-09-03T09:33:43.536Z</time>
      </trkpt>
      <trkpt lat="49.49811" lon="-1.42143">
        <ele>66.2</ele>
        <time>2026-09-03T09:33:44.536Z</time>
      </trkpt>
      <trkpt lat="49.49811" lon="-1.42143">
        <ele>66.2</ele>
        <time>2026-09-03T09:33:45.536Z</time>
      </trkpt>
      <trkpt lat="49.49811" lon="-1.42142">
        <ele>66.2</ele>
        <time>2026-09-03T09:33:46.536Z</time>
      </trkpt>
      <trkpt lat="49.49811" lon="-1.42142">
        <ele>66.2</ele>
        <time>2026-09-03T09:33:47.536Z</time>
      </trkpt>
      <trkpt lat="49.49811" lon="-1.42141">
        <ele>66.2</ele>
        <time>2026-09-03T09:33:48.536Z</time>
      </trkpt>
      <trkpt lat="49.49811" lon="-1.42141">
        <ele>66.2</ele>
        <time>2026-09-03T09:33:49.536Z</time>
      </trkpt>
      <trkpt lat="49.49811" lon="-1.4214">
        <ele>66.2</ele>
        <time>2026-09-03T09:33:50.536Z</time>
      </trkpt>
      <trkpt lat="49.49811" lon="-1.4214">
        <ele>66.2</ele>
        <time>2026-09-03T09:33:51.536Z</time>
      </trkpt>
      <trkpt lat="49.49811" lon="-1.4214">
        <ele>66.2</ele>
        <time>2026-09-03T09:33:52.536Z</time>
      </trkpt>
      <trkpt lat="49.49811" lon="-1.4214">
        <ele>66.2</ele>
        <time>2026-09-03T09:33:53.536Z</time>
      </trkpt>
      <trkpt lat="49.49811" lon="-1.4214">
        <ele>66.2</ele>
        <time>2026-09-03T09:33:54.536Z</time>
      </trkpt>
      <trkpt lat="49.49811" lon="-1.4214">
        <ele>66.2</ele>
        <time>2026-09-03T09:33:55.536Z</time>
      </trkpt>
      <trkpt lat="49.49811" lon="-1.4214">
        <ele>66.2</ele>
        <time>2026-09-03T09:33:56.536Z</time>
      </trkpt>
      <trkpt lat="49.49811" lon="-1.4214">
        <ele>66.2</ele>
        <time>2026-09-03T09:33:57.536Z</time>
      </trkpt>
      <trkpt lat="49.49811" lon="-1.4214">
        <ele>66.2</ele>
        <time>2026-09-03T09:33:58.536Z</time>
      </trkpt>
      <trkpt lat="49.49811" lon="-1.4214">
        <ele>66.2</ele>
        <time>2026-09-03T09:33:59.536Z</time>
      </trkpt>
      <trkpt lat="49.4981" lon="-1.4214">
        <ele>66.2</ele>
        <time>2026-09-03T09:34:00.536Z</time>
      </trkpt>
      <trkpt lat="49.49811" lon="-1.42141">
        <ele>66.2</ele>
        <time>2026-09-03T09:34:02.536Z</time>
      </trkpt>
      <trkpt lat="49.49811" lon="-1.42142">
        <ele>66.2</ele>
        <time>2026-09-03T09:34:03.536Z</time>
      </trkpt>
      <trkpt lat="49.49811" lon="-1.42142">
        <ele>66.2</ele>
        <time>2026-09-03T09:34:04.536Z</time>
      </trkpt>
      <trkpt lat="49.49811" lon="-1.42144">
        <ele>66.2</ele>
        <time>2026-09-03T09:34:05.536Z</time>
      </trkpt>
      <trkpt lat="49.49812" lon="-1.42145">
        <ele>66.2</ele>
        <time>2026-09-03T09:34:06.536Z</time>
      </trkpt>
      <trkpt lat="49.49812" lon="-1.42146">
        <ele>66.2</ele>
        <time>2026-09-03T09:34:07.536Z</time>
      </trkpt>
      <trkpt lat="49.49813" lon="-1.42147">
        <ele>66.2</ele>
        <time>2026-09-03T09:34:08.536Z</time>
      </trkpt>
      <trkpt lat="49.49813" lon="-1.42149">
        <ele>66.2</ele>
        <time>2026-09-03T09:34:09.566Z</time>
      </trkpt>
      <trkpt lat="49.49815" lon="-1.42152">
        <ele>66.2</ele>
        <time>2026-09-03T09:34:11.538Z</time>
      </trkpt>
      <trkpt lat="49.49824" lon="-1.42152">
        <ele>66.3</ele>
        <time>2026-09-03T09:34:12.537Z</time>
      </trkpt>
      <trkpt lat="49.49832" lon="-1.42152">
        <ele>66.5</ele>
        <time>2026-09-03T09:34:13.536Z</time>
      </trkpt>
      <trkpt lat="49.49838" lon="-1.4216">
        <ele>66.4</ele>
        <time>2026-09-03T09:34:14.536Z</time>
      </trkpt>
      <trkpt lat="49.49843" lon="-1.42167">
        <ele>66.3</ele>
        <time>2026-09-03T09:34:15.536Z</time>
      </trkpt>
      <trkpt lat="49.49845" lon="-1.42175">
        <ele>66.1</ele>
        <time>2026-09-03T09:34:16.036Z</time>
      </trkpt>
      <trkpt lat="49.49847" lon="-1.42183">
        <ele>65.9</ele>
        <time>2026-09-03T09:34:16.536Z</time>
      </trkpt>
      <trkpt lat="49.49848" lon="-1.4219">
        <ele>65.7</ele>
        <time>2026-09-03T09:34:17.036Z</time>
      </trkpt>
      <trkpt lat="49.49848" lon="-1.42197">
        <ele>65.4</ele>
        <time>2026-09-03T09:34:17.536Z</time>
      </trkpt>
      <trkpt lat="49.49852" lon="-1.42202">
        <ele>65.4</ele>
        <time>2026-09-03T09:34:18.036Z</time>
      </trkpt>
      <trkpt lat="49.49855" lon="-1.42206">
        <ele>65.4</ele>
        <time>2026-09-03T09:34:18.536Z</time>
      </trkpt>
      <trkpt lat="49.49863" lon="-1.42201">
        <ele>65.8</ele>
        <time>2026-09-03T09:34:19.036Z</time>
      </trkpt>
      <trkpt lat="49.4987" lon="-1.42195">
        <ele>66</ele>
        <time>2026-09-03T09:34:19.536Z</time>
      </trkpt>
      <trkpt lat="49.49872" lon="-1.42187">
        <ele>66.3</ele>
        <time>2026-09-03T09:34:19.786Z</time>
      </trkpt>
      <trkpt lat="49.49873" lon="-1.4218">
        <ele>66.5</ele>
        <time>2026-09-03T09:34:20.036Z</time>
      </trkpt>
      <trkpt lat="49.49875" lon="-1.42172">
        <ele>66.8</ele>
        <time>2026-09-03T09:34:20.286Z</time>
      </trkpt>
      <trkpt lat="49.49876" lon="-1.42164">
        <ele>67</ele>
        <time>2026-09-03T09:34:20.536Z</time>
      </trkpt>
      <trkpt lat="49.49871" lon="-1.42154">
        <ele>67</ele>
        <time>2026-09-03T09:34:20.660Z</time>
      </trkpt>
      <trkpt lat="49.49866" lon="-1.42144">
        <ele>67</ele>
        <time>2026-09-03T09:34:20.785Z</time>
      </trkpt>
      <trkpt lat="49.49861" lon="-1.42134">
        <ele>67.2</ele>
        <time>2026-09-03T09:34:20.910Z</time>
      </trkpt>
      <trkpt lat="49.49856" lon="-1.42124">
        <ele>67.5</ele>
        <time>2026-09-03T09:34:21.035Z</time>
      </trkpt>
      <trkpt lat="49.49851" lon="-1.42114">
        <ele>67.9</ele>
        <time>2026-09-03T09:34:21.160Z</time>
      </trkpt>
      <trkpt lat="49.49846" lon="-1.42104">
        <ele>68</ele>
        <time>2026-09-03T09:34:21.285Z</time>
      </trkpt>
      <trkpt lat="49.49841" lon="-1.42094">
        <ele>68</ele>
        <time>2026-09-03T09:34:21.410Z</time>
      </trkpt>
      <trkpt lat="49.49836" lon="-1.42084">
        <ele>68</ele>
        <time>2026-09-03T09:34:21.536Z</time>
      </trkpt>
      <trkpt lat="49.49832" lon="-1.4208">
        <ele>68</ele>
        <time>2026-09-03T09:34:21.661Z</time>
      </trkpt>
      <trkpt lat="49.49828" lon="-1.42076">
        <ele>68</ele>
        <time>2026-09-03T09:34:21.786Z</time>
      </trkpt>
      <trkpt lat="49.49823" lon="-1.42072">
        <ele>68</ele>
        <time>2026-09-03T09:34:21.911Z</time>
      </trkpt>
      <trkpt lat="49.49819" lon="-1.42068">
        <ele>68</ele>
        <time>2026-09-03T09:34:22.036Z</time>
      </trkpt>
      <trkpt lat="49.49815" lon="-1.42064">
        <ele>68</ele>
        <time>2026-09-03T09:34:22.161Z</time>
      </trkpt>
      <trkpt lat="49.49811" lon="-1.4206">
        <ele>68</ele>
        <time>2026-09-03T09:34:22.286Z</time>
      </trkpt>
      <trkpt lat="49.49806" lon="-1.42056">
        <ele>68</ele>
        <time>2026-09-03T09:34:22.411Z</time>
      </trkpt>
      <trkpt lat="49.49802" lon="-1.42052">
        <ele>67.9</ele>
        <time>2026-09-03T09:34:22.536Z</time>
      </trkpt>
      <trkpt lat="49.49808" lon="-1.42052">
        <ele>68</ele>
        <time>2026-09-03T09:34:22.661Z</time>
      </trkpt>
      <trkpt lat="49.49813" lon="-1.42051">
        <ele>68</ele>
        <time>2026-09-03T09:34:22.786Z</time>
      </trkpt>
      <trkpt lat="49.49819" lon="-1.42051">
        <ele>68</ele>
        <time>2026-09-03T09:34:22.911Z</time>
      </trkpt>
      <trkpt lat="49.49825" lon="-1.4205">
        <ele>68</ele>
        <time>2026-09-03T09:34:23.036Z</time>
      </trkpt>
      <trkpt lat="49.4983" lon="-1.4205">
        <ele>68</ele>
        <time>2026-09-03T09:34:23.161Z</time>
      </trkpt>
      <trkpt lat="49.49836" lon="-1.42049">
        <ele>68.1</ele>
        <time>2026-09-03T09:34:23.286Z</time>
      </trkpt>
      <trkpt lat="49.49841" lon="-1.42049">
        <ele>68.3</ele>
        <time>2026-09-03T09:34:23.411Z</time>
      </trkpt>
      <trkpt lat="49.49847" lon="-1.42048">
        <ele>68.5</ele>
        <time>2026-09-03T09:34:23.536Z</time>
      </trkpt>
      <trkpt lat="49.49852" lon="-1.42051">
        <ele>68.7</ele>
        <time>2026-09-03T09:34:23.786Z</time>
      </trkpt>
      <trkpt lat="49.49857" lon="-1.42053">
        <ele>68.8</ele>
        <time>2026-09-03T09:34:24.036Z</time>
      </trkpt>
      <trkpt lat="49.49861" lon="-1.42056">
        <ele>69</ele>
        <time>2026-09-03T09:34:24.286Z</time>
      </trkpt>
      <trkpt lat="49.49866" lon="-1.42058">
        <ele>68.9</ele>
        <time>2026-09-03T09:34:24.536Z</time>
      </trkpt>
      <trkpt lat="49.49872" lon="-1.42064">
        <ele>68.7</ele>
        <time>2026-09-03T09:34:25.536Z</time>
      </trkpt>
      <trkpt lat="49.49873" lon="-1.42069">
        <ele>68.5</ele>
        <time>2026-09-03T09:34:26.536Z</time>
      </trkpt>
      <trkpt lat="49.49872" lon="-1.42075">
        <ele>68.3</ele>
        <time>2026-09-03T09:34:27.536Z</time>
      </trkpt>
      <trkpt lat="49.4987" lon="-1.4208">
        <ele>68.1</ele>
        <time>2026-09-03T09:34:28.536Z</time>
      </trkpt>
      <trkpt lat="49.4987" lon="-1.42084">
        <ele>68</ele>
        <time>2026-09-03T09:34:29.536Z</time>
      </trkpt>
      <trkpt lat="49.4987" lon="-1.42085">
        <ele>68</ele>
        <time>2026-09-03T09:34:30.555Z</time>
      </trkpt>
      <trkpt lat="49.49871" lon="-1.42087">
        <ele>68</ele>
        <time>2026-09-03T09:34:31.556Z</time>
      </trkpt>
      <trkpt lat="49.49871" lon="-1.4209">
        <ele>68</ele>
        <time>2026-09-03T09:34:32.558Z</time>
      </trkpt>
      <trkpt lat="49.49871" lon="-1.42093">
        <ele>68</ele>
        <time>2026-09-03T09:34:33.559Z</time>
      </trkpt>
      <trkpt lat="49.49871" lon="-1.42098">
        <ele>68</ele>
        <time>2026-09-03T09:34:35.492Z</time>
      </trkpt>
      <trkpt lat="49.4987" lon="-1.42102">
        <ele>68</ele>
        <time>2026-09-03T09:34:36.536Z</time>
      </trkpt>
      <trkpt lat="49.4987" lon="-1.42105">
        <ele>68</ele>
        <time>2026-09-03T09:34:37.536Z</time>
      </trkpt>
      <trkpt lat="49.4987" lon="-1.42108">
        <ele>68</ele>
        <time>2026-09-03T09:34:38.536Z</time>
      </trkpt>
      <trkpt lat="49.49869" lon="-1.4211">
        <ele>68</ele>
        <time>2026-09-03T09:34:39.536Z</time>
      </trkpt>
      <trkpt lat="49.49869" lon="-1.42113">
        <ele>67.9</ele>
        <time>2026-09-03T09:34:40.536Z</time>
      </trkpt>
      <trkpt lat="49.49867" lon="-1.42117">
        <ele>67.8</ele>
        <time>2026-09-03T09:34:42.536Z</time>
      </trkpt>
      <trkpt lat="49.49866" lon="-1.4212">
        <ele>67.7</ele>
        <time>2026-09-03T09:34:43.543Z</time>
      </trkpt>
      <trkpt lat="49.49867" lon="-1.42123">
        <ele>67.6</ele>
        <time>2026-09-03T09:34:44.545Z</time>
      </trkpt>
      <trkpt lat="49.49866" lon="-1.42128">
        <ele>67.4</ele>
        <time>2026-09-03T09:34:46.477Z</time>
      </trkpt>
      <trkpt lat="49.49866" lon="-1.42129">
        <ele>67.4</ele>
        <time>2026-09-03T09:34:47.579Z</time>
      </trkpt>
      <trkpt lat="49.49864" lon="-1.42134">
        <ele>67.2</ele>
        <time>2026-09-03T09:34:49.572Z</time>
      </trkpt>
      <trkpt lat="49.49861" lon="-1.4214">
        <ele>67</ele>
        <time>2026-09-03T09:34:51.494Z</time>
      </trkpt>
      <trkpt lat="49.4986" lon="-1.42144">
        <ele>67</ele>
        <time>2026-09-03T09:34:52.556Z</time>
      </trkpt>
      <trkpt lat="49.49859" lon="-1.42147">
        <ele>67</ele>
        <time>2026-09-03T09:34:53.557Z</time>
      </trkpt>
      <trkpt lat="49.49858" lon="-1.42154">
        <ele>66.9</ele>
        <time>2026-09-03T09:34:55.560Z</time>
      </trkpt>
      <trkpt lat="49.49858" lon="-1.42156">
        <ele>66.9</ele>
        <time>2026-09-03T09:34:56.561Z</time>
      </trkpt>
      <trkpt lat="49.49857" lon="-1.42165">
        <ele>66.9</ele>
        <time>2026-09-03T09:34:58.564Z</time>
      </trkpt>
      <trkpt lat="49.49857" lon="-1.42173">
        <ele>66.6</ele>
        <time>2026-09-03T09:35:00.567Z</time>
      </trkpt>
      <trkpt lat="49.49854" lon="-1.42176">
        <ele>66.4</ele>
        <time>2026-09-03T09:35:02.570Z</time>
      </trkpt>
      <trkpt lat="49.4985" lon="-1.42174">
        <ele>66.3</ele>
        <time>2026-09-03T09:35:04.586Z</time>
      </trkpt>
      <trkpt lat="49.4985" lon="-1.42172">
        <ele>66.4</ele>
        <time>2026-09-03T09:35:05.586Z</time>
      </trkpt>
      <trkpt lat="49.4985" lon="-1.42169">
        <ele>66.5</ele>
        <time>2026-09-03T09:35:07.536Z</time>
      </trkpt>
      <trkpt lat="49.49849" lon="-1.42176">
        <ele>66.2</ele>
        <time>2026-09-03T09:35:08.036Z</time>
      </trkpt>
      <trkpt lat="49.49848" lon="-1.42183">
        <ele>65.9</ele>
        <time>2026-09-03T09:35:08.536Z</time>
      </trkpt>
      <trkpt lat="49.49847" lon="-1.42192">
        <ele>65.6</ele>
        <time>2026-09-03T09:35:09.539Z</time>
      </trkpt>
      <trkpt lat="49.49846" lon="-1.42196">
        <ele>65.4</ele>
        <time>2026-09-03T09:35:10.541Z</time>
      </trkpt>
      <trkpt lat="49.49846" lon="-1.42199">
        <ele>65.3</ele>
        <time>2026-09-03T09:35:11.562Z</time>
      </trkpt>
      <trkpt lat="49.49847" lon="-1.422">
        <ele>65.3</ele>
        <time>2026-09-03T09:35:12.563Z</time>
      </trkpt>
      <trkpt lat="49.49847" lon="-1.422">
        <ele>65.3</ele>
        <time>2026-09-03T09:35:13.565Z</time>
      </trkpt>
      <trkpt lat="49.49847" lon="-1.42203">
        <ele>65.2</ele>
        <time>2026-09-03T09:35:14.566Z</time>
      </trkpt>
      <trkpt lat="49.49848" lon="-1.42206">
        <ele>65.1</ele>
        <time>2026-09-03T09:35:15.568Z</time>
      </trkpt>
      <trkpt lat="49.49849" lon="-1.42207">
        <ele>65.1</ele>
        <time>2026-09-03T09:35:16.569Z</time>
      </trkpt>
      <trkpt lat="49.49846" lon="-1.42213">
        <ele>64.8</ele>
        <time>2026-09-03T09:35:18.472Z</time>
      </trkpt>
      <trkpt lat="49.49844" lon="-1.42213">
        <ele>64.7</ele>
        <time>2026-09-03T09:35:19.553Z</time>
      </trkpt>
      <trkpt lat="49.49843" lon="-1.42214">
        <ele>64.6</ele>
        <time>2026-09-03T09:35:20.554Z</time>
      </trkpt>
      <trkpt lat="49.49843" lon="-1.42219">
        <ele>64.5</ele>
        <time>2026-09-03T09:35:22.477Z</time>
      </trkpt>
      <trkpt lat="49.49846" lon="-1.42225">
        <ele>64.4</ele>
        <time>2026-09-03T09:35:24.500Z</time>
      </trkpt>
      <trkpt lat="49.49847" lon="-1.42228">
        <ele>64.4</ele>
        <time>2026-09-03T09:35:25.561Z</time>
      </trkpt>
      <trkpt lat="49.4985" lon="-1.42236">
        <ele>64.3</ele>
        <time>2026-09-03T09:35:27.536Z</time>
      </trkpt>
      <trkpt lat="49.49851" lon="-1.42238">
        <ele>64.3</ele>
        <time>2026-09-03T09:35:28.536Z</time>
      </trkpt>
      <trkpt lat="49.49851" lon="-1.42241">
        <ele>64.2</ele>
        <time>2026-09-03T09:35:29.536Z</time>
      </trkpt>
      <trkpt lat="49.49852" lon="-1.42243">
        <ele>64.2</ele>
        <time>2026-09-03T09:35:30.536Z</time>
      </trkpt>
      <trkpt lat="49.49853" lon="-1.42245">
        <ele>64.1</ele>
        <time>2026-09-03T09:35:31.536Z</time>
      </trkpt>
      <trkpt lat="49.49853" lon="-1.42247">
        <ele>64.1</ele>
        <time>2026-09-03T09:35:32.536Z</time>
      </trkpt>
      <trkpt lat="49.49854" lon="-1.4225">
        <ele>64</ele>
        <time>2026-09-03T09:35:33.536Z</time>
      </trkpt>
      <trkpt lat="49.49854" lon="-1.42254">
        <ele>64</ele>
        <time>2026-09-03T09:35:35.355Z</time>
      </trkpt>
      <trkpt lat="49.49855" lon="-1.42256">
        <ele>64</ele>
        <time>2026-09-03T09:35:36.416Z</time>
      </trkpt>
      <trkpt lat="49.49856" lon="-1.42258">
        <ele>64</ele>
        <time>2026-09-03T09:35:37.497Z</time>
      </trkpt>
      <trkpt lat="49.49856" lon="-1.4226">
        <ele>64</ele>
        <time>2026-09-03T09:35:38.559Z</time>
      </trkpt>
      <trkpt lat="49.49857" lon="-1.42264">
        <ele>64</ele>
        <time>2026-09-03T09:35:40.536Z</time>
      </trkpt>
      <trkpt lat="49.49859" lon="-1.42267">
        <ele>64</ele>
        <time>2026-09-03T09:35:42.586Z</time>
      </trkpt>
      <trkpt lat="49.49859" lon="-1.42268">
        <ele>64</ele>
        <time>2026-09-03T09:35:43.586Z</time>
      </trkpt>
      <trkpt lat="49.49861" lon="-1.42271">
        <ele>64</ele>
        <time>2026-09-03T09:35:45.578Z</time>
      </trkpt>
      <trkpt lat="49.49863" lon="-1.42275">
        <ele>64</ele>
        <time>2026-09-03T09:35:47.536Z</time>
      </trkpt>
      <trkpt lat="49.49864" lon="-1.42277">
        <ele>64</ele>
        <time>2026-09-03T09:35:48.553Z</time>
      </trkpt>
      <trkpt lat="49.49866" lon="-1.42281">
        <ele>63.9</ele>
        <time>2026-09-03T09:35:50.536Z</time>
      </trkpt>
      <trkpt lat="49.49867" lon="-1.42282">
        <ele>63.9</ele>
        <time>2026-09-03T09:35:51.536Z</time>
      </trkpt>
      <trkpt lat="49.49867" lon="-1.42284">
        <ele>63.8</ele>
        <time>2026-09-03T09:35:52.536Z</time>
      </trkpt>
      <trkpt lat="49.49868" lon="-1.42286">
        <ele>63.8</ele>
        <time>2026-09-03T09:35:53.536Z</time>
      </trkpt>
      <trkpt lat="49.49869" lon="-1.42288">
        <ele>63.7</ele>
        <time>2026-09-03T09:35:54.536Z</time>
      </trkpt>
      <trkpt lat="49.4987" lon="-1.4229">
        <ele>63.7</ele>
        <time>2026-09-03T09:35:55.542Z</time>
      </trkpt>
      <trkpt lat="49.4987" lon="-1.42293">
        <ele>63.6</ele>
        <time>2026-09-03T09:35:56.563Z</time>
      </trkpt>
      <trkpt lat="49.49872" lon="-1.42296">
        <ele>63.6</ele>
        <time>2026-09-03T09:35:58.536Z</time>
      </trkpt>
      <trkpt lat="49.49873" lon="-1.42298">
        <ele>63.6</ele>
        <time>2026-09-03T09:35:59.597Z</time>
      </trkpt>
      <trkpt lat="49.49875" lon="-1.42301">
        <ele>63.6</ele>
        <time>2026-09-03T09:36:01.586Z</time>
      </trkpt>
      <trkpt lat="49.49876" lon="-1.42304">
        <ele>63.6</ele>
        <time>2026-09-03T09:36:03.573Z</time>
      </trkpt>
      <trkpt lat="49.49873" lon="-1.42306">
        <ele>63.4</ele>
        <time>2026-09-03T09:36:05.536Z</time>
      </trkpt>
      <trkpt lat="49.49872" lon="-1.42306">
        <ele>63.4</ele>
        <time>2026-09-03T09:36:06.536Z</time>
      </trkpt>
      <trkpt lat="49.49872" lon="-1.42309">
        <ele>63.3</ele>
        <time>2026-09-03T09:36:07.536Z</time>
      </trkpt>
      <trkpt lat="49.49873" lon="-1.42311">
        <ele>63.3</ele>
        <time>2026-09-03T09:36:08.536Z</time>
      </trkpt>
      <trkpt lat="49.49875" lon="-1.42316">
        <ele>63.3</ele>
        <time>2026-09-03T09:36:10.542Z</time>
      </trkpt>
      <trkpt lat="49.49877" lon="-1.42319">
        <ele>63.3</ele>
        <time>2026-09-03T09:36:12.475Z</time>
      </trkpt>
      <trkpt lat="49.49878" lon="-1.42321">
        <ele>63.3</ele>
        <time>2026-09-03T09:36:13.516Z</time>
      </trkpt>
      <trkpt lat="49.49878" lon="-1.42323">
        <ele>63.2</ele>
        <time>2026-09-03T09:36:14.558Z</time>
      </trkpt>
      <trkpt lat="49.49881" lon="-1.42325">
        <ele>63.2</ele>
        <time>2026-09-03T09:36:16.536Z</time>
      </trkpt>
      <trkpt lat="49.49883" lon="-1.42328">
        <ele>63.2</ele>
        <time>2026-09-03T09:36:18.533Z</time>
      </trkpt>
      <trkpt lat="49.49884" lon="-1.4233">
        <ele>63.1</ele>
        <time>2026-09-03T09:36:19.574Z</time>
      </trkpt>
      <trkpt lat="49.49885" lon="-1.42332">
        <ele>63</ele>
        <time>2026-09-03T09:36:21.536Z</time>
      </trkpt>
      <trkpt lat="49.49886" lon="-1.42334">
        <ele>63</ele>
        <time>2026-09-03T09:36:22.538Z</time>
      </trkpt>
      <trkpt lat="49.49887" lon="-1.42338">
        <ele>63</ele>
        <time>2026-09-03T09:36:24.541Z</time>
      </trkpt>
      <trkpt lat="49.49888" lon="-1.42341">
        <ele>63</ele>
        <time>2026-09-03T09:36:26.536Z</time>
      </trkpt>
      <trkpt lat="49.49889" lon="-1.42345">
        <ele>63</ele>
        <time>2026-09-03T09:36:28.497Z</time>
      </trkpt>
      <trkpt lat="49.49889" lon="-1.42347">
        <ele>63</ele>
        <time>2026-09-03T09:36:29.558Z</time>
      </trkpt>
      <trkpt lat="49.4989" lon="-1.4235">
        <ele>63</ele>
        <time>2026-09-03T09:36:31.536Z</time>
      </trkpt>
      <trkpt lat="49.49891" lon="-1.42352">
        <ele>63</ele>
        <time>2026-09-03T09:36:32.536Z</time>
      </trkpt>
      <trkpt lat="49.49892" lon="-1.42356">
        <ele>63</ele>
        <time>2026-09-03T09:36:34.574Z</time>
      </trkpt>
      <trkpt lat="49.49892" lon="-1.42359">
        <ele>63</ele>
        <time>2026-09-03T09:36:36.536Z</time>
      </trkpt>
      <trkpt lat="49.49893" lon="-1.4236">
        <ele>63</ele>
        <time>2026-09-03T09:36:37.536Z</time>
      </trkpt>
      <trkpt lat="49.49893" lon="-1.42363">
        <ele>63</ele>
        <time>2026-09-03T09:36:38.586Z</time>
      </trkpt>
      <trkpt lat="49.49893" lon="-1.42367">
        <ele>63</ele>
        <time>2026-09-03T09:36:40.543Z</time>
      </trkpt>
      <trkpt lat="49.49893" lon="-1.42368">
        <ele>63</ele>
        <time>2026-09-03T09:36:42.576Z</time>
      </trkpt>
      <trkpt lat="49.49893" lon="-1.4237">
        <ele>63</ele>
        <time>2026-09-03T09:36:43.577Z</time>
      </trkpt>
      <trkpt lat="49.49893" lon="-1.42376">
        <ele>63</ele>
        <time>2026-09-03T09:36:45.440Z</time>
      </trkpt>
      <trkpt lat="49.49894" lon="-1.42378">
        <ele>63</ele>
        <time>2026-09-03T09:36:46.491Z</time>
      </trkpt>
      <trkpt lat="49.49894" lon="-1.4238">
        <ele>63</ele>
        <time>2026-09-03T09:36:47.572Z</time>
      </trkpt>
      <trkpt lat="49.49896" lon="-1.42383">
        <ele>63</ele>
        <time>2026-09-03T09:36:49.565Z</time>
      </trkpt>
      <trkpt lat="49.49896" lon="-1.42384">
        <ele>63</ele>
        <time>2026-09-03T09:36:50.586Z</time>
      </trkpt>
      <trkpt lat="49.49897" lon="-1.42388">
        <ele>63</ele>
        <time>2026-09-03T09:36:52.536Z</time>
      </trkpt>
      <trkpt lat="49.49898" lon="-1.4239">
        <ele>63</ele>
        <time>2026-09-03T09:36:53.536Z</time>
      </trkpt>
      <trkpt lat="49.49898" lon="-1.42392">
        <ele>62.9</ele>
        <time>2026-09-03T09:36:54.536Z</time>
      </trkpt>
      <trkpt lat="49.49898" lon="-1.42394">
        <ele>62.9</ele>
        <time>2026-09-03T09:36:55.553Z</time>
      </trkpt>
      <trkpt lat="49.499" lon="-1.42398">
        <ele>62.8</ele>
        <time>2026-09-03T09:36:57.586Z</time>
      </trkpt>
      <trkpt lat="49.499" lon="-1.42402">
        <ele>62.7</ele>
        <time>2026-09-03T09:36:59.559Z</time>
      </trkpt>
      <trkpt lat="49.49901" lon="-1.42404">
        <ele>62.7</ele>
        <time>2026-09-03T09:37:00.560Z</time>
      </trkpt>
      <trkpt lat="49.49901" lon="-1.42406">
        <ele>62.7</ele>
        <time>2026-09-03T09:37:01.561Z</time>
      </trkpt>
      <trkpt lat="49.49902" lon="-1.42408">
        <ele>62.6</ele>
        <time>2026-09-03T09:37:02.563Z</time>
      </trkpt>
      <trkpt lat="49.49903" lon="-1.4241">
        <ele>62.6</ele>
        <time>2026-09-03T09:37:04.536Z</time>
      </trkpt>
      <trkpt lat="49.49903" lon="-1.42412">
        <ele>62.6</ele>
        <time>2026-09-03T09:37:05.547Z</time>
      </trkpt>
      <trkpt lat="49.49904" lon="-1.42413">
        <ele>62.6</ele>
        <time>2026-09-03T09:37:06.568Z</time>
      </trkpt>
      <trkpt lat="49.49904" lon="-1.42415">
        <ele>62.6</ele>
        <time>2026-09-03T09:37:07.569Z</time>
      </trkpt>
      <trkpt lat="49.49905" lon="-1.42419">
        <ele>62.6</ele>
        <time>2026-09-03T09:37:09.572Z</time>
      </trkpt>
      <trkpt lat="49.49906" lon="-1.42423">
        <ele>62.6</ele>
        <time>2026-09-03T09:37:11.536Z</time>
      </trkpt>
      <trkpt lat="49.49907" lon="-1.42424">
        <ele>62.7</ele>
        <time>2026-09-03T09:37:12.536Z</time>
      </trkpt>
      <trkpt lat="49.49907" lon="-1.42426">
        <ele>62.7</ele>
        <time>2026-09-03T09:37:13.536Z</time>
      </trkpt>
      <trkpt lat="49.49907" lon="-1.42428">
        <ele>62.7</ele>
        <time>2026-09-03T09:37:14.536Z</time>
      </trkpt>
      <trkpt lat="49.49908" lon="-1.4243">
        <ele>62.7</ele>
        <time>2026-09-03T09:37:15.536Z</time>
      </trkpt>
      <trkpt lat="49.49908" lon="-1.42432">
        <ele>62.7</ele>
        <time>2026-09-03T09:37:16.541Z</time>
      </trkpt>
      <trkpt lat="49.4991" lon="-1.42437">
        <ele>62.8</ele>
        <time>2026-09-03T09:37:18.536Z</time>
      </trkpt>
      <trkpt lat="49.4991" lon="-1.42439">
        <ele>62.8</ele>
        <time>2026-09-03T09:37:19.536Z</time>
      </trkpt>
      <trkpt lat="49.4991" lon="-1.42442">
        <ele>62.8</ele>
        <time>2026-09-03T09:37:20.536Z</time>
      </trkpt>
      <trkpt lat="49.49911" lon="-1.42444">
        <ele>62.8</ele>
        <time>2026-09-03T09:37:21.586Z</time>
      </trkpt>
      <trkpt lat="49.49912" lon="-1.42447">
        <ele>62.8</ele>
        <time>2026-09-03T09:37:23.451Z</time>
      </trkpt>
      <trkpt lat="49.49913" lon="-1.42449">
        <ele>62.7</ele>
        <time>2026-09-03T09:37:24.512Z</time>
      </trkpt>
      <trkpt lat="49.49913" lon="-1.42451">
        <ele>62.7</ele>
        <time>2026-09-03T09:37:25.573Z</time>
      </trkpt>
      <trkpt lat="49.49914" lon="-1.42454">
        <ele>62.6</ele>
        <time>2026-09-03T09:37:27.576Z</time>
      </trkpt>
      <trkpt lat="49.49916" lon="-1.42457">
        <ele>62.5</ele>
        <time>2026-09-03T09:37:29.536Z</time>
      </trkpt>
      <trkpt lat="49.49916" lon="-1.42457">
        <ele>62.5</ele>
        <time>2026-09-03T09:37:30.580Z</time>
      </trkpt>
      <trkpt lat="49.49916" lon="-1.4246">
        <ele>62.4</ele>
        <time>2026-09-03T09:37:32.536Z</time>
      </trkpt>
      <trkpt lat="49.49916" lon="-1.42462">
        <ele>62.4</ele>
        <time>2026-09-03T09:37:33.545Z</time>
      </trkpt>
      <trkpt lat="49.49918" lon="-1.42467">
        <ele>62.2</ele>
        <time>2026-09-03T09:37:35.536Z</time>
      </trkpt>
      <trkpt lat="49.49918" lon="-1.42469">
        <ele>62.2</ele>
        <time>2026-09-03T09:37:36.536Z</time>
      </trkpt>
      <trkpt lat="49.49918" lon="-1.42471">
        <ele>62.1</ele>
        <time>2026-09-03T09:37:37.536Z</time>
      </trkpt>
      <trkpt lat="49.49918" lon="-1.42473">
        <ele>62</ele>
        <time>2026-09-03T09:37:38.536Z</time>
      </trkpt>
      <trkpt lat="49.49918" lon="-1.42475">
        <ele>62</ele>
        <time>2026-09-03T09:37:39.536Z</time>
      </trkpt>
      <trkpt lat="49.49918" lon="-1.42476">
        <ele>62</ele>
        <time>2026-09-03T09:37:40.536Z</time>
      </trkpt>
      <trkpt lat="49.49918" lon="-1.42478">
        <ele>62</ele>
        <time>2026-09-03T09:37:41.536Z</time>
      </trkpt>
      <trkpt lat="49.49918" lon="-1.4248">
        <ele>62</ele>
        <time>2026-09-03T09:37:42.536Z</time>
      </trkpt>
      <trkpt lat="49.49919" lon="-1.42482">
        <ele>62.1</ele>
        <time>2026-09-03T09:37:43.536Z</time>
      </trkpt>
      <trkpt lat="49.4992" lon="-1.42484">
        <ele>62.1</ele>
        <time>2026-09-03T09:37:44.536Z</time>
      </trkpt>
      <trkpt lat="49.49921" lon="-1.42486">
        <ele>62.2</ele>
        <time>2026-09-03T09:37:45.561Z</time>
      </trkpt>
      <trkpt lat="49.49923" lon="-1.42489">
        <ele>62.2</ele>
        <time>2026-09-03T09:37:47.536Z</time>
      </trkpt>
      <trkpt lat="49.49923" lon="-1.42491">
        <ele>62.2</ele>
        <time>2026-09-03T09:37:48.536Z</time>
      </trkpt>
      <trkpt lat="49.49925" lon="-1.42495">
        <ele>62.3</ele>
        <time>2026-09-03T09:37:50.517Z</time>
      </trkpt>
      <trkpt lat="49.49926" lon="-1.42496">
        <ele>62.3</ele>
        <time>2026-09-03T09:37:51.559Z</time>
      </trkpt>
      <trkpt lat="49.49927" lon="-1.42498">
        <ele>62.4</ele>
        <time>2026-09-03T09:37:52.580Z</time>
      </trkpt>
      <trkpt lat="49.49929" lon="-1.425">
        <ele>62.4</ele>
        <time>2026-09-03T09:37:54.536Z</time>
      </trkpt>
      <trkpt lat="49.4993" lon="-1.42501">
        <ele>62.5</ele>
        <time>2026-09-03T09:37:55.554Z</time>
      </trkpt>
      <trkpt lat="49.49932" lon="-1.42503">
        <ele>62.5</ele>
        <time>2026-09-03T09:37:57.477Z</time>
      </trkpt>
      <trkpt lat="49.49933" lon="-1.42505">
        <ele>62.6</ele>
        <time>2026-09-03T09:37:58.538Z</time>
      </trkpt>
      <trkpt lat="49.49934" lon="-1.42507">
        <ele>62.6</ele>
        <time>2026-09-03T09:37:59.560Z</time>
      </trkpt>
      <trkpt lat="49.49935" lon="-1.4251">
        <ele>62.5</ele>
        <time>2026-09-03T09:38:01.536Z</time>
      </trkpt>
      <trkpt lat="49.49935" lon="-1.42512">
        <ele>62.5</ele>
        <time>2026-09-03T09:38:02.536Z</time>
      </trkpt>
      <trkpt lat="49.49936" lon="-1.42513">
        <ele>62.5</ele>
        <time>2026-09-03T09:38:03.536Z</time>
      </trkpt>
      <trkpt lat="49.49936" lon="-1.42515">
        <ele>62.5</ele>
        <time>2026-09-03T09:38:04.566Z</time>
      </trkpt>
      <trkpt lat="49.49937" lon="-1.42518">
        <ele>62.4</ele>
        <time>2026-09-03T09:38:06.536Z</time>
      </trkpt>
      <trkpt lat="49.49938" lon="-1.4252">
        <ele>62.4</ele>
        <time>2026-09-03T09:38:07.536Z</time>
      </trkpt>
      <trkpt lat="49.49939" lon="-1.42522">
        <ele>62.3</ele>
        <time>2026-09-03T09:38:08.536Z</time>
      </trkpt>
      <trkpt lat="49.4994" lon="-1.42524">
        <ele>62.3</ele>
        <time>2026-09-03T09:38:09.553Z</time>
      </trkpt>
      <trkpt lat="49.49942" lon="-1.42527">
        <ele>62.1</ele>
        <time>2026-09-03T09:38:11.456Z</time>
      </trkpt>
      <trkpt lat="49.49942" lon="-1.42529">
        <ele>62.1</ele>
        <time>2026-09-03T09:38:12.497Z</time>
      </trkpt>
      <trkpt lat="49.49943" lon="-1.42531">
        <ele>62.1</ele>
        <time>2026-09-03T09:38:13.538Z</time>
      </trkpt>
      <trkpt lat="49.49944" lon="-1.42533">
        <ele>62</ele>
        <time>2026-09-03T09:38:14.580Z</time>
      </trkpt>
      <trkpt lat="49.49945" lon="-1.42536">
        <ele>62</ele>
        <time>2026-09-03T09:38:16.536Z</time>
      </trkpt>
      <trkpt lat="49.49946" lon="-1.42538">
        <ele>62</ele>
        <time>2026-09-03T09:38:17.536Z</time>
      </trkpt>
      <trkpt lat="49.49947" lon="-1.42539">
        <ele>62.1</ele>
        <time>2026-09-03T09:38:18.536Z</time>
      </trkpt>
      <trkpt lat="49.49948" lon="-1.42542">
        <ele>62.1</ele>
        <time>2026-09-03T09:38:20.498Z</time>
      </trkpt>
      <trkpt lat="49.49948" lon="-1.42543">
        <ele>62.1</ele>
        <time>2026-09-03T09:38:21.519Z</time>
      </trkpt>
      <trkpt lat="49.49949" lon="-1.42546">
        <ele>62.1</ele>
        <time>2026-09-03T09:38:22.570Z</time>
      </trkpt>
      <trkpt lat="49.49951" lon="-1.4255">
        <ele>62</ele>
        <time>2026-09-03T09:38:24.536Z</time>
      </trkpt>
      <trkpt lat="49.49951" lon="-1.42552">
        <ele>62</ele>
        <time>2026-09-03T09:38:25.536Z</time>
      </trkpt>
      <trkpt lat="49.49951" lon="-1.42554">
        <ele>62</ele>
        <time>2026-09-03T09:38:26.536Z</time>
      </trkpt>
      <trkpt lat="49.49952" lon="-1.42556">
        <ele>62</ele>
        <time>2026-09-03T09:38:27.536Z</time>
      </trkpt>
      <trkpt lat="49.49952" lon="-1.42557">
        <ele>62</ele>
        <time>2026-09-03T09:38:28.579Z</time>
      </trkpt>
      <trkpt lat="49.49952" lon="-1.42559">
        <ele>62</ele>
        <time>2026-09-03T09:38:30.535Z</time>
      </trkpt>
      <trkpt lat="49.49953" lon="-1.4256">
        <ele>62</ele>
        <time>2026-09-03T09:38:31.536Z</time>
      </trkpt>
      <trkpt lat="49.49955" lon="-1.42562">
        <ele>61.9</ele>
        <time>2026-09-03T09:38:33.515Z</time>
      </trkpt>
      <trkpt lat="49.49956" lon="-1.42563">
        <ele>61.9</ele>
        <time>2026-09-03T09:38:34.537Z</time>
      </trkpt>
      <trkpt lat="49.49958" lon="-1.42566">
        <ele>61.8</ele>
        <time>2026-09-03T09:38:36.499Z</time>
      </trkpt>
      <trkpt lat="49.49959" lon="-1.42567">
        <ele>61.8</ele>
        <time>2026-09-03T09:38:37.536Z</time>
      </trkpt>
      <trkpt lat="49.4996" lon="-1.42569">
        <ele>61.7</ele>
        <time>2026-09-03T09:38:38.536Z</time>
      </trkpt>
      <trkpt lat="49.49961" lon="-1.4257">
        <ele>61.7</ele>
        <time>2026-09-03T09:38:39.536Z</time>
      </trkpt>
      <trkpt lat="49.49962" lon="-1.42571">
        <ele>61.6</ele>
        <time>2026-09-03T09:38:40.536Z</time>
      </trkpt>
      <trkpt lat="49.49963" lon="-1.42573">
        <ele>61.6</ele>
        <time>2026-09-03T09:38:41.536Z</time>
      </trkpt>
      <trkpt lat="49.49963" lon="-1.42574">
        <ele>61.6</ele>
        <time>2026-09-03T09:38:42.536Z</time>
      </trkpt>
      <trkpt lat="49.49965" lon="-1.42578">
        <ele>61.4</ele>
        <time>2026-09-03T09:38:44.536Z</time>
      </trkpt>
      <trkpt lat="49.49966" lon="-1.42581">
        <ele>61.3</ele>
        <time>2026-09-03T09:38:46.536Z</time>
      </trkpt>
      <trkpt lat="49.49967" lon="-1.42583">
        <ele>61.2</ele>
        <time>2026-09-03T09:38:47.555Z</time>
      </trkpt>
      <trkpt lat="49.49969" lon="-1.42586">
        <ele>61.1</ele>
        <time>2026-09-03T09:38:49.536Z</time>
      </trkpt>
      <trkpt lat="49.4997" lon="-1.42588">
        <ele>61.1</ele>
        <time>2026-09-03T09:38:50.536Z</time>
      </trkpt>
      <trkpt lat="49.49971" lon="-1.42589">
        <ele>61</ele>
        <time>2026-09-03T09:38:51.536Z</time>
      </trkpt>
      <trkpt lat="49.49972" lon="-1.42591">
        <ele>61</ele>
        <time>2026-09-03T09:38:52.536Z</time>
      </trkpt>
      <trkpt lat="49.49973" lon="-1.42592">
        <ele>61</ele>
        <time>2026-09-03T09:38:53.536Z</time>
      </trkpt>
      <trkpt lat="49.49974" lon="-1.42594">
        <ele>61</ele>
        <time>2026-09-03T09:38:54.536Z</time>
      </trkpt>
      <trkpt lat="49.49974" lon="-1.42595">
        <ele>61</ele>
        <time>2026-09-03T09:38:55.536Z</time>
      </trkpt>
      <trkpt lat="49.49976" lon="-1.42598">
        <ele>60.9</ele>
        <time>2026-09-03T09:38:57.559Z</time>
      </trkpt>
      <trkpt lat="49.49978" lon="-1.42601">
        <ele>60.9</ele>
        <time>2026-09-03T09:38:59.536Z</time>
      </trkpt>
      <trkpt lat="49.49979" lon="-1.42602">
        <ele>60.8</ele>
        <time>2026-09-03T09:39:00.536Z</time>
      </trkpt>
      <trkpt lat="49.4998" lon="-1.42603">
        <ele>60.8</ele>
        <time>2026-09-03T09:39:01.536Z</time>
      </trkpt>
      <trkpt lat="49.49982" lon="-1.42604">
        <ele>60.7</ele>
        <time>2026-09-03T09:39:02.536Z</time>
      </trkpt>
      <trkpt lat="49.49983" lon="-1.42606">
        <ele>60.7</ele>
        <time>2026-09-03T09:39:03.536Z</time>
      </trkpt>
      <trkpt lat="49.49984" lon="-1.42606">
        <ele>60.7</ele>
        <time>2026-09-03T09:39:04.536Z</time>
      </trkpt>
      <trkpt lat="49.49985" lon="-1.42604">
        <ele>60.7</ele>
        <time>2026-09-03T09:39:05.580Z</time>
      </trkpt>
      <trkpt lat="49.49985" lon="-1.42601">
        <ele>60.7</ele>
        <time>2026-09-03T09:39:07.586Z</time>
      </trkpt>
      <trkpt lat="49.49988" lon="-1.42603">
        <ele>60.6</ele>
        <time>2026-09-03T09:39:09.536Z</time>
      </trkpt>
      <trkpt lat="49.49989" lon="-1.42604">
        <ele>60.6</ele>
        <time>2026-09-03T09:39:10.536Z</time>
      </trkpt>
      <trkpt lat="49.4999" lon="-1.42604">
        <ele>60.5</ele>
        <time>2026-09-03T09:39:11.536Z</time>
      </trkpt>
      <trkpt lat="49.49989" lon="-1.42604">
        <ele>60.6</ele>
        <time>2026-09-03T09:39:13.371Z</time>
      </trkpt>
      <trkpt lat="49.49989" lon="-1.42604">
        <ele>60.6</ele>
        <time>2026-09-03T09:39:14.453Z</time>
      </trkpt>
      <trkpt lat="49.4999" lon="-1.42604">
        <ele>60.5</ele>
        <time>2026-09-03T09:39:15.554Z</time>
      </trkpt>
      <trkpt lat="49.4999" lon="-1.42605">
        <ele>60.5</ele>
        <time>2026-09-03T09:39:17.457Z</time>
      </trkpt>
      <trkpt lat="49.49991" lon="-1.42604">
        <ele>60.5</ele>
        <time>2026-09-03T09:39:18.559Z</time>
      </trkpt>
      <trkpt lat="49.49992" lon="-1.42603">
        <ele>60.5</ele>
        <time>2026-09-03T09:39:20.551Z</time>
      </trkpt>
      <trkpt lat="49.49992" lon="-1.42601">
        <ele>60.5</ele>
        <time>2026-09-03T09:39:21.553Z</time>
      </trkpt>
      <trkpt lat="49.49992" lon="-1.42596">
        <ele>60.7</ele>
        <time>2026-09-03T09:39:23.555Z</time>
      </trkpt>
      <trkpt lat="49.49994" lon="-1.42603">
        <ele>60.5</ele>
        <time>2026-09-03T09:39:24.055Z</time>
      </trkpt>
      <trkpt lat="49.49997" lon="-1.42609">
        <ele>60.2</ele>
        <time>2026-09-03T09:39:24.556Z</time>
      </trkpt>
      <trkpt lat="49.49999" lon="-1.42616">
        <ele>59.9</ele>
        <time>2026-09-03T09:39:25.057Z</time>
      </trkpt>
      <trkpt lat="49.50001" lon="-1.42622">
        <ele>59.6</ele>
        <time>2026-09-03T09:39:25.558Z</time>
      </trkpt>
      <trkpt lat="49.50002" lon="-1.42624">
        <ele>59.5</ele>
        <time>2026-09-03T09:39:26.560Z</time>
      </trkpt>
      <trkpt lat="49.50003" lon="-1.42626">
        <ele>59.4</ele>
        <time>2026-09-03T09:39:27.561Z</time>
      </trkpt>
      <trkpt lat="49.50005" lon="-1.42629">
        <ele>59.2</ele>
        <time>2026-09-03T09:39:29.536Z</time>
      </trkpt>
      <trkpt lat="49.50006" lon="-1.42631">
        <ele>59.1</ele>
        <time>2026-09-03T09:39:30.536Z</time>
      </trkpt>
      <trkpt lat="49.50008" lon="-1.42632">
        <ele>59</ele>
        <time>2026-09-03T09:39:31.546Z</time>
      </trkpt>
      <trkpt lat="49.50009" lon="-1.42635">
        <ele>58.8</ele>
        <time>2026-09-03T09:39:33.539Z</time>
      </trkpt>
      <trkpt lat="49.50011" lon="-1.42636">
        <ele>58.7</ele>
        <time>2026-09-03T09:39:34.571Z</time>
      </trkpt>
      <trkpt lat="49.50012" lon="-1.42638">
        <ele>58.6</ele>
        <time>2026-09-03T09:39:36.536Z</time>
      </trkpt>
      <trkpt lat="49.50014" lon="-1.42639">
        <ele>58.5</ele>
        <time>2026-09-03T09:39:37.536Z</time>
      </trkpt>
      <trkpt lat="49.50015" lon="-1.42641">
        <ele>58.4</ele>
        <time>2026-09-03T09:39:38.536Z</time>
      </trkpt>
      <trkpt lat="49.50016" lon="-1.42642">
        <ele>58.3</ele>
        <time>2026-09-03T09:39:39.538Z</time>
      </trkpt>
      <trkpt lat="49.50017" lon="-1.42644">
        <ele>58.2</ele>
        <time>2026-09-03T09:39:40.539Z</time>
      </trkpt>
      <trkpt lat="49.50018" lon="-1.42645">
        <ele>58.1</ele>
        <time>2026-09-03T09:39:41.540Z</time>
      </trkpt>
      <trkpt lat="49.50019" lon="-1.42647">
        <ele>57.9</ele>
        <time>2026-09-03T09:39:42.542Z</time>
      </trkpt>
      <trkpt lat="49.50021" lon="-1.42649">
        <ele>57.7</ele>
        <time>2026-09-03T09:39:44.575Z</time>
      </trkpt>
      <trkpt lat="49.50023" lon="-1.42652">
        <ele>57.4</ele>
        <time>2026-09-03T09:39:46.536Z</time>
      </trkpt>
      <trkpt lat="49.50024" lon="-1.42653">
        <ele>57.3</ele>
        <time>2026-09-03T09:39:47.536Z</time>
      </trkpt>
      <trkpt lat="49.50025" lon="-1.42656">
        <ele>57</ele>
        <time>2026-09-03T09:39:49.536Z</time>
      </trkpt>
      <trkpt lat="49.50025" lon="-1.42657">
        <ele>56.9</ele>
        <time>2026-09-03T09:39:50.586Z</time>
      </trkpt>
      <trkpt lat="49.50027" lon="-1.42659">
        <ele>56.6</ele>
        <time>2026-09-03T09:39:52.575Z</time>
      </trkpt>
      <trkpt lat="49.5003" lon="-1.42661">
        <ele>56.5</ele>
        <time>2026-09-03T09:39:54.558Z</time>
      </trkpt>
      <trkpt lat="49.50031" lon="-1.42663">
        <ele>56.4</ele>
        <time>2026-09-03T09:39:55.560Z</time>
      </trkpt>
      <trkpt lat="49.50032" lon="-1.42664">
        <ele>56.3</ele>
        <time>2026-09-03T09:39:56.561Z</time>
      </trkpt>
      <trkpt lat="49.50033" lon="-1.42665">
        <ele>56.3</ele>
        <time>2026-09-03T09:39:57.562Z</time>
      </trkpt>
      <trkpt lat="49.50034" lon="-1.42669">
        <ele>56.3</ele>
        <time>2026-09-03T09:39:59.495Z</time>
      </trkpt>
      <trkpt lat="49.50035" lon="-1.4267">
        <ele>56.3</ele>
        <time>2026-09-03T09:40:00.557Z</time>
      </trkpt>
      <trkpt lat="49.50037" lon="-1.42673">
        <ele>56.4</ele>
        <time>2026-09-03T09:40:02.536Z</time>
      </trkpt>
      <trkpt lat="49.50038" lon="-1.42674">
        <ele>56.4</ele>
        <time>2026-09-03T09:40:03.536Z</time>
      </trkpt>
      <trkpt lat="49.50039" lon="-1.42675">
        <ele>56.5</ele>
        <time>2026-09-03T09:40:04.536Z</time>
      </trkpt>
      <trkpt lat="49.5004" lon="-1.42677">
        <ele>56.5</ele>
        <time>2026-09-03T09:40:06.514Z</time>
      </trkpt>
      <trkpt lat="49.50041" lon="-1.42678">
        <ele>56.5</ele>
        <time>2026-09-03T09:40:07.556Z</time>
      </trkpt>
      <trkpt lat="49.50041" lon="-1.42678">
        <ele>56.5</ele>
        <time>2026-09-03T09:40:08.557Z</time>
      </trkpt>
      <trkpt lat="49.50043" lon="-1.42681">
        <ele>56.5</ele>
        <time>2026-09-03T09:40:10.535Z</time>
      </trkpt>
      <trkpt lat="49.50044" lon="-1.42683">
        <ele>56.5</ele>
        <time>2026-09-03T09:40:11.536Z</time>
      </trkpt>
      <trkpt lat="49.50047" lon="-1.42686">
        <ele>56.4</ele>
        <time>2026-09-03T09:40:13.535Z</time>
      </trkpt>
      <trkpt lat="49.50048" lon="-1.42687">
        <ele>56.4</ele>
        <time>2026-09-03T09:40:14.536Z</time>
      </trkpt>
      <trkpt lat="49.50049" lon="-1.42688">
        <ele>56.4</ele>
        <time>2026-09-03T09:40:15.547Z</time>
      </trkpt>
      <trkpt lat="49.50051" lon="-1.4269">
        <ele>56.3</ele>
        <time>2026-09-03T09:40:17.536Z</time>
      </trkpt>
      <trkpt lat="49.50052" lon="-1.42691">
        <ele>56.2</ele>
        <time>2026-09-03T09:40:18.536Z</time>
      </trkpt>
      <trkpt lat="49.50053" lon="-1.42693">
        <ele>56.1</ele>
        <time>2026-09-03T09:40:19.536Z</time>
      </trkpt>
      <trkpt lat="49.50054" lon="-1.42694">
        <ele>56.1</ele>
        <time>2026-09-03T09:40:20.574Z</time>
      </trkpt>
      <trkpt lat="49.50056" lon="-1.42697">
        <ele>55.9</ele>
        <time>2026-09-03T09:40:22.516Z</time>
      </trkpt>
      <trkpt lat="49.50057" lon="-1.42698">
        <ele>55.9</ele>
        <time>2026-09-03T09:40:23.578Z</time>
      </trkpt>
      <trkpt lat="49.50058" lon="-1.42701">
        <ele>55.8</ele>
        <time>2026-09-03T09:40:25.536Z</time>
      </trkpt>
      <trkpt lat="49.5006" lon="-1.42703">
        <ele>55.7</ele>
        <time>2026-09-03T09:40:27.492Z</time>
      </trkpt>
      <trkpt lat="49.50062" lon="-1.42705">
        <ele>55.6</ele>
        <time>2026-09-03T09:40:28.555Z</time>
      </trkpt>
      <trkpt lat="49.50064" lon="-1.42707">
        <ele>55.5</ele>
        <time>2026-09-03T09:40:30.536Z</time>
      </trkpt>
      <trkpt lat="49.50065" lon="-1.42709">
        <ele>55.5</ele>
        <time>2026-09-03T09:40:31.569Z</time>
      </trkpt>
      <trkpt lat="49.50066" lon="-1.4271">
        <ele>55.4</ele>
        <time>2026-09-03T09:40:32.570Z</time>
      </trkpt>
      <trkpt lat="49.50067" lon="-1.4271">
        <ele>55.4</ele>
        <time>2026-09-03T09:40:33.571Z</time>
      </trkpt>
      <trkpt lat="49.50068" lon="-1.42712">
        <ele>55.4</ele>
        <time>2026-09-03T09:40:34.572Z</time>
      </trkpt>
      <trkpt lat="49.5007" lon="-1.42715">
        <ele>55.3</ele>
        <time>2026-09-03T09:40:36.586Z</time>
      </trkpt>
      <trkpt lat="49.50073" lon="-1.42718">
        <ele>55.2</ele>
        <time>2026-09-03T09:40:38.586Z</time>
      </trkpt>
      <trkpt lat="49.50074" lon="-1.42721">
        <ele>55</ele>
        <time>2026-09-03T09:40:40.581Z</time>
      </trkpt>
      <trkpt lat="49.50076" lon="-1.42723">
        <ele>55</ele>
        <time>2026-09-03T09:40:42.512Z</time>
      </trkpt>
      <trkpt lat="49.50077" lon="-1.42724">
        <ele>54.9</ele>
        <time>2026-09-03T09:40:43.575Z</time>
      </trkpt>
      <trkpt lat="49.50078" lon="-1.42726">
        <ele>54.8</ele>
        <time>2026-09-03T09:40:45.507Z</time>
      </trkpt>
      <trkpt lat="49.50081" lon="-1.42729">
        <ele>54.6</ele>
        <time>2026-09-03T09:40:47.510Z</time>
      </trkpt>
      <trkpt lat="49.50081" lon="-1.4273">
        <ele>54.5</ele>
        <time>2026-09-03T09:40:48.592Z</time>
      </trkpt>
      <trkpt lat="49.50083" lon="-1.42731">
        <ele>54.4</ele>
        <time>2026-09-03T09:40:50.536Z</time>
      </trkpt>
      <trkpt lat="49.50084" lon="-1.42733">
        <ele>54.2</ele>
        <time>2026-09-03T09:40:51.556Z</time>
      </trkpt>
      <trkpt lat="49.50085" lon="-1.42734">
        <ele>54.2</ele>
        <time>2026-09-03T09:40:52.557Z</time>
      </trkpt>
      <trkpt lat="49.50086" lon="-1.42736">
        <ele>54.1</ele>
        <time>2026-09-03T09:40:53.578Z</time>
      </trkpt>
      <trkpt lat="49.50088" lon="-1.42739">
        <ele>53.9</ele>
        <time>2026-09-03T09:40:55.536Z</time>
      </trkpt>
      <trkpt lat="49.50089" lon="-1.4274">
        <ele>53.9</ele>
        <time>2026-09-03T09:40:56.542Z</time>
      </trkpt>
      <trkpt lat="49.50089" lon="-1.4274">
        <ele>53.9</ele>
        <time>2026-09-03T09:40:58.536Z</time>
      </trkpt>
      <trkpt lat="49.5009" lon="-1.4274">
        <ele>53.9</ele>
        <time>2026-09-03T09:41:00.478Z</time>
      </trkpt>
      <trkpt lat="49.50092" lon="-1.42742">
        <ele>53.8</ele>
        <time>2026-09-03T09:41:01.536Z</time>
      </trkpt>
      <trkpt lat="49.50094" lon="-1.42744">
        <ele>53.7</ele>
        <time>2026-09-03T09:41:02.536Z</time>
      </trkpt>
      <trkpt lat="49.50095" lon="-1.42745">
        <ele>53.7</ele>
        <time>2026-09-03T09:41:03.542Z</time>
      </trkpt>
      <trkpt lat="49.50097" lon="-1.42748">
        <ele>53.6</ele>
        <time>2026-09-03T09:41:05.564Z</time>
      </trkpt>
      <trkpt lat="49.50099" lon="-1.4275">
        <ele>53.6</ele>
        <time>2026-09-03T09:41:07.517Z</time>
      </trkpt>
      <trkpt lat="49.501" lon="-1.42752">
        <ele>53.6</ele>
        <time>2026-09-03T09:41:08.569Z</time>
      </trkpt>
      <trkpt lat="49.50101" lon="-1.42753">
        <ele>53.6</ele>
        <time>2026-09-03T09:41:09.586Z</time>
      </trkpt>
      <trkpt lat="49.50101" lon="-1.42759">
        <ele>53.4</ele>
        <time>2026-09-03T09:41:11.536Z</time>
      </trkpt>
      <trkpt lat="49.501" lon="-1.42762">
        <ele>53.3</ele>
        <time>2026-09-03T09:41:12.536Z</time>
      </trkpt>
      <trkpt lat="49.501" lon="-1.42763">
        <ele>53.3</ele>
        <time>2026-09-03T09:41:13.536Z</time>
      </trkpt>
      <trkpt lat="49.501" lon="-1.42765">
        <ele>53.3</ele>
        <time>2026-09-03T09:41:14.536Z</time>
      </trkpt>
      <trkpt lat="49.50099" lon="-1.42766">
        <ele>53.2</ele>
        <time>2026-09-03T09:41:15.536Z</time>
      </trkpt>
      <trkpt lat="49.501" lon="-1.42767">
        <ele>53.2</ele>
        <time>2026-09-03T09:41:16.536Z</time>
      </trkpt>
      <trkpt lat="49.50101" lon="-1.42766">
        <ele>53.3</ele>
        <time>2026-09-03T09:41:17.536Z</time>
      </trkpt>
      <trkpt lat="49.50102" lon="-1.42765">
        <ele>53.3</ele>
        <time>2026-09-03T09:41:19.584Z</time>
      </trkpt>
      <trkpt lat="49.50104" lon="-1.42767">
        <ele>53.3</ele>
        <time>2026-09-03T09:41:21.536Z</time>
      </trkpt>
      <trkpt lat="49.50105" lon="-1.42768">
        <ele>53.3</ele>
        <time>2026-09-03T09:41:22.536Z</time>
      </trkpt>
      <trkpt lat="49.50106" lon="-1.42769">
        <ele>53.3</ele>
        <time>2026-09-03T09:41:23.536Z</time>
      </trkpt>
      <trkpt lat="49.50106" lon="-1.4277">
        <ele>53.2</ele>
        <time>2026-09-03T09:41:24.536Z</time>
      </trkpt>
      <trkpt lat="49.50107" lon="-1.42771">
        <ele>53.2</ele>
        <time>2026-09-03T09:41:25.536Z</time>
      </trkpt>
      <trkpt lat="49.50108" lon="-1.42771">
        <ele>53.2</ele>
        <time>2026-09-03T09:41:26.553Z</time>
      </trkpt>
      <trkpt lat="49.5011" lon="-1.42773">
        <ele>53.2</ele>
        <time>2026-09-03T09:41:28.536Z</time>
      </trkpt>
      <trkpt lat="49.50111" lon="-1.42775">
        <ele>53.1</ele>
        <time>2026-09-03T09:41:29.536Z</time>
      </trkpt>
      <trkpt lat="49.50112" lon="-1.42778">
        <ele>53</ele>
        <time>2026-09-03T09:41:31.536Z</time>
      </trkpt>
      <trkpt lat="49.50113" lon="-1.42779">
        <ele>53</ele>
        <time>2026-09-03T09:41:32.536Z</time>
      </trkpt>
      <trkpt lat="49.50114" lon="-1.4278">
        <ele>52.9</ele>
        <time>2026-09-03T09:41:33.536Z</time>
      </trkpt>
      <trkpt lat="49.50114" lon="-1.42782">
        <ele>52.9</ele>
        <time>2026-09-03T09:41:34.536Z</time>
      </trkpt>
      <trkpt lat="49.50115" lon="-1.42783">
        <ele>52.8</ele>
        <time>2026-09-03T09:41:35.546Z</time>
      </trkpt>
      <trkpt lat="49.50116" lon="-1.42785">
        <ele>52.8</ele>
        <time>2026-09-03T09:41:36.547Z</time>
      </trkpt>
      <trkpt lat="49.50117" lon="-1.42787">
        <ele>52.7</ele>
        <time>2026-09-03T09:41:37.548Z</time>
      </trkpt>
      <trkpt lat="49.50119" lon="-1.4279">
        <ele>52.7</ele>
        <time>2026-09-03T09:41:39.551Z</time>
      </trkpt>
      <trkpt lat="49.5012" lon="-1.42791">
        <ele>52.7</ele>
        <time>2026-09-03T09:41:40.573Z</time>
      </trkpt>
      <trkpt lat="49.50122" lon="-1.42795">
        <ele>52.6</ele>
        <time>2026-09-03T09:41:42.495Z</time>
      </trkpt>
      <trkpt lat="49.50123" lon="-1.42796">
        <ele>52.6</ele>
        <time>2026-09-03T09:41:43.577Z</time>
      </trkpt>
      <trkpt lat="49.50124" lon="-1.42798">
        <ele>52.6</ele>
        <time>2026-09-03T09:41:44.578Z</time>
      </trkpt>
      <trkpt lat="49.50126" lon="-1.42801">
        <ele>52.6</ele>
        <time>2026-09-03T09:41:46.536Z</time>
      </trkpt>
      <trkpt lat="49.50126" lon="-1.42803">
        <ele>52.6</ele>
        <time>2026-09-03T09:41:47.536Z</time>
      </trkpt>
      <trkpt lat="49.50127" lon="-1.42805">
        <ele>52.6</ele>
        <time>2026-09-03T09:41:48.543Z</time>
      </trkpt>
      <trkpt lat="49.50127" lon="-1.42807">
        <ele>52.6</ele>
        <time>2026-09-03T09:41:49.565Z</time>
      </trkpt>
      <trkpt lat="49.50128" lon="-1.42811">
        <ele>52.6</ele>
        <time>2026-09-03T09:41:51.517Z</time>
      </trkpt>
      <trkpt lat="49.50129" lon="-1.42813">
        <ele>52.6</ele>
        <time>2026-09-03T09:41:52.579Z</time>
      </trkpt>
      <trkpt lat="49.50129" lon="-1.42816">
        <ele>52.6</ele>
        <time>2026-09-03T09:41:54.536Z</time>
      </trkpt>
      <trkpt lat="49.50129" lon="-1.42818">
        <ele>52.6</ele>
        <time>2026-09-03T09:41:55.536Z</time>
      </trkpt>
      <trkpt lat="49.5013" lon="-1.42822">
        <ele>52.7</ele>
        <time>2026-09-03T09:41:57.556Z</time>
      </trkpt>
      <trkpt lat="49.50131" lon="-1.42824">
        <ele>52.7</ele>
        <time>2026-09-03T09:41:58.557Z</time>
      </trkpt>
      <trkpt lat="49.50131" lon="-1.42825">
        <ele>52.7</ele>
        <time>2026-09-03T09:41:59.558Z</time>
      </trkpt>
      <trkpt lat="49.50132" lon="-1.42827">
        <ele>52.8</ele>
        <time>2026-09-03T09:42:00.560Z</time>
      </trkpt>
      <trkpt lat="49.50132" lon="-1.42831">
        <ele>52.8</ele>
        <time>2026-09-03T09:42:02.536Z</time>
      </trkpt>
      <trkpt lat="49.50132" lon="-1.42833">
        <ele>52.8</ele>
        <time>2026-09-03T09:42:03.536Z</time>
      </trkpt>
      <trkpt lat="49.50132" lon="-1.42836">
        <ele>52.8</ele>
        <time>2026-09-03T09:42:05.517Z</time>
      </trkpt>
      <trkpt lat="49.50131" lon="-1.42838">
        <ele>52.9</ele>
        <time>2026-09-03T09:42:06.568Z</time>
      </trkpt>
      <trkpt lat="49.50131" lon="-1.4284">
        <ele>53</ele>
        <time>2026-09-03T09:42:07.569Z</time>
      </trkpt>
      <trkpt lat="49.50129" lon="-1.42843">
        <ele>53</ele>
        <time>2026-09-03T09:42:09.536Z</time>
      </trkpt>
      <trkpt lat="49.50128" lon="-1.42844">
        <ele>53</ele>
        <time>2026-09-03T09:42:10.553Z</time>
      </trkpt>
      <trkpt lat="49.50126" lon="-1.42847">
        <ele>53</ele>
        <time>2026-09-03T09:42:12.536Z</time>
      </trkpt>
      <trkpt lat="49.50125" lon="-1.42847">
        <ele>53</ele>
        <time>2026-09-03T09:42:13.557Z</time>
      </trkpt>
      <trkpt lat="49.50125" lon="-1.42847">
        <ele>53</ele>
        <time>2026-09-03T09:42:14.559Z</time>
      </trkpt>
      <trkpt lat="49.50124" lon="-1.42846">
        <ele>52.9</ele>
        <time>2026-09-03T09:42:15.560Z</time>
      </trkpt>
      <trkpt lat="49.50124" lon="-1.42845">
        <ele>52.9</ele>
        <time>2026-09-03T09:42:16.562Z</time>
      </trkpt>
      <trkpt lat="49.50123" lon="-1.42845">
        <ele>52.8</ele>
        <time>2026-09-03T09:42:17.573Z</time>
      </trkpt>
      <trkpt lat="49.50122" lon="-1.42847">
        <ele>52.9</ele>
        <time>2026-09-03T09:42:18.574Z</time>
      </trkpt>
      <trkpt lat="49.50119" lon="-1.4285">
        <ele>52.9</ele>
        <time>2026-09-03T09:42:20.567Z</time>
      </trkpt>
      <trkpt lat="49.50118" lon="-1.42852">
        <ele>52.9</ele>
        <time>2026-09-03T09:42:21.568Z</time>
      </trkpt>
      <trkpt lat="49.50116" lon="-1.42855">
        <ele>53</ele>
        <time>2026-09-03T09:42:23.571Z</time>
      </trkpt>
      <trkpt lat="49.50113" lon="-1.42858">
        <ele>53</ele>
        <time>2026-09-03T09:42:25.554Z</time>
      </trkpt>
      <trkpt lat="49.50111" lon="-1.4286">
        <ele>53</ele>
        <time>2026-09-03T09:42:27.577Z</time>
      </trkpt>
      <trkpt lat="49.5011" lon="-1.42861">
        <ele>52.9</ele>
        <time>2026-09-03T09:42:28.578Z</time>
      </trkpt>
      <trkpt lat="49.50107" lon="-1.42863">
        <ele>52.8</ele>
        <time>2026-09-03T09:42:30.536Z</time>
      </trkpt>
      <trkpt lat="49.50106" lon="-1.42864">
        <ele>52.7</ele>
        <time>2026-09-03T09:42:31.536Z</time>
      </trkpt>
      <trkpt lat="49.50105" lon="-1.42865">
        <ele>52.7</ele>
        <time>2026-09-03T09:42:32.536Z</time>
      </trkpt>
      <trkpt lat="49.50104" lon="-1.42866">
        <ele>52.7</ele>
        <time>2026-09-03T09:42:33.536Z</time>
      </trkpt>
      <trkpt lat="49.50102" lon="-1.42867">
        <ele>52.6</ele>
        <time>2026-09-03T09:42:35.536Z</time>
      </trkpt>
      <trkpt lat="49.50103" lon="-1.42868">
        <ele>52.7</ele>
        <time>2026-09-03T09:42:36.536Z</time>
      </trkpt>
      <trkpt lat="49.50106" lon="-1.42866">
        <ele>52.8</ele>
        <time>2026-09-03T09:42:38.536Z</time>
      </trkpt>
      <trkpt lat="49.50107" lon="-1.42864">
        <ele>52.8</ele>
        <time>2026-09-03T09:42:39.536Z</time>
      </trkpt>
      <trkpt lat="49.50108" lon="-1.42863">
        <ele>52.8</ele>
        <time>2026-09-03T09:42:40.536Z</time>
      </trkpt>
      <trkpt lat="49.50108" lon="-1.42862">
        <ele>52.8</ele>
        <time>2026-09-03T09:42:41.536Z</time>
      </trkpt>
      <trkpt lat="49.50109" lon="-1.42861">
        <ele>52.8</ele>
        <time>2026-09-03T09:42:42.536Z</time>
      </trkpt>
      <trkpt lat="49.5011" lon="-1.4286">
        <ele>52.9</ele>
        <time>2026-09-03T09:42:43.536Z</time>
      </trkpt>
      <trkpt lat="49.50112" lon="-1.42859">
        <ele>53</ele>
        <time>2026-09-03T09:42:44.536Z</time>
      </trkpt>
      <trkpt lat="49.50114" lon="-1.42858">
        <ele>53</ele>
        <time>2026-09-03T09:42:46.473Z</time>
      </trkpt>
      <trkpt lat="49.50115" lon="-1.42856">
        <ele>53</ele>
        <time>2026-09-03T09:42:47.514Z</time>
      </trkpt>
      <trkpt lat="49.50116" lon="-1.42853">
        <ele>52.9</ele>
        <time>2026-09-03T09:42:48.536Z</time>
      </trkpt>
      <trkpt lat="49.50117" lon="-1.42851">
        <ele>52.8</ele>
        <time>2026-09-03T09:42:49.536Z</time>
      </trkpt>
      <trkpt lat="49.50118" lon="-1.4285">
        <ele>52.8</ele>
        <time>2026-09-03T09:42:50.536Z</time>
      </trkpt>
      <trkpt lat="49.50119" lon="-1.4285">
        <ele>52.9</ele>
        <time>2026-09-03T09:42:51.536Z</time>
      </trkpt>
      <trkpt lat="49.5012" lon="-1.42849">
        <ele>52.9</ele>
        <time>2026-09-03T09:42:52.536Z</time>
      </trkpt>
      <trkpt lat="49.50121" lon="-1.42848">
        <ele>52.9</ele>
        <time>2026-09-03T09:42:53.536Z</time>
      </trkpt>
      <trkpt lat="49.50122" lon="-1.42847">
        <ele>52.9</ele>
        <time>2026-09-03T09:42:54.536Z</time>
      </trkpt>
      <trkpt lat="49.50124" lon="-1.42846">
        <ele>52.9</ele>
        <time>2026-09-03T09:42:56.437Z</time>
      </trkpt>
      <trkpt lat="49.50126" lon="-1.42847">
        <ele>53</ele>
        <time>2026-09-03T09:42:57.559Z</time>
      </trkpt>
      <trkpt lat="49.50127" lon="-1.42848">
        <ele>53.1</ele>
        <time>2026-09-03T09:42:58.560Z</time>
      </trkpt>
      <trkpt lat="49.50128" lon="-1.42851">
        <ele>53.2</ele>
        <time>2026-09-03T09:43:00.543Z</time>
      </trkpt>
      <trkpt lat="49.5013" lon="-1.42852">
        <ele>53.4</ele>
        <time>2026-09-03T09:43:01.544Z</time>
      </trkpt>
      <trkpt lat="49.50131" lon="-1.42853">
        <ele>53.4</ele>
        <time>2026-09-03T09:43:02.546Z</time>
      </trkpt>
      <trkpt lat="49.50132" lon="-1.42854">
        <ele>53.5</ele>
        <time>2026-09-03T09:43:03.547Z</time>
      </trkpt>
      <trkpt lat="49.50131" lon="-1.42859">
        <ele>53.6</ele>
        <time>2026-09-03T09:43:05.540Z</time>
      </trkpt>
      <trkpt lat="49.5013" lon="-1.42864">
        <ele>53.8</ele>
        <time>2026-09-03T09:43:07.535Z</time>
      </trkpt>
      <trkpt lat="49.5013" lon="-1.42866">
        <ele>53.9</ele>
        <time>2026-09-03T09:43:08.536Z</time>
      </trkpt>
      <trkpt lat="49.50129" lon="-1.42868">
        <ele>53.9</ele>
        <time>2026-09-03T09:43:09.536Z</time>
      </trkpt>
      <trkpt lat="49.50129" lon="-1.42871">
        <ele>54</ele>
        <time>2026-09-03T09:43:10.536Z</time>
      </trkpt>
      <trkpt lat="49.50129" lon="-1.42873">
        <ele>54.1</ele>
        <time>2026-09-03T09:43:11.538Z</time>
      </trkpt>
      <trkpt lat="49.50129" lon="-1.42876">
        <ele>54.2</ele>
        <time>2026-09-03T09:43:13.581Z</time>
      </trkpt>
      <trkpt lat="49.50129" lon="-1.4288">
        <ele>54.3</ele>
        <time>2026-09-03T09:43:15.474Z</time>
      </trkpt>
      <trkpt lat="49.50129" lon="-1.42882">
        <ele>54.4</ele>
        <time>2026-09-03T09:43:16.536Z</time>
      </trkpt>
      <trkpt lat="49.50129" lon="-1.42884">
        <ele>54.5</ele>
        <time>2026-09-03T09:43:17.607Z</time>
      </trkpt>
      <trkpt lat="49.50129" lon="-1.42888">
        <ele>54.6</ele>
        <time>2026-09-03T09:43:19.550Z</time>
      </trkpt>
      <trkpt lat="49.50129" lon="-1.42892">
        <ele>54.8</ele>
        <time>2026-09-03T09:43:21.536Z</time>
      </trkpt>
      <trkpt lat="49.5013" lon="-1.42895">
        <ele>54.9</ele>
        <time>2026-09-03T09:43:22.536Z</time>
      </trkpt>
      <trkpt lat="49.5013" lon="-1.42897">
        <ele>55</ele>
        <time>2026-09-03T09:43:23.536Z</time>
      </trkpt>
      <trkpt lat="49.5013" lon="-1.42899">
        <ele>55</ele>
        <time>2026-09-03T09:43:24.536Z</time>
      </trkpt>
      <trkpt lat="49.50131" lon="-1.42901">
        <ele>55.2</ele>
        <time>2026-09-03T09:43:25.536Z</time>
      </trkpt>
      <trkpt lat="49.50131" lon="-1.42904">
        <ele>55.3</ele>
        <time>2026-09-03T09:43:26.580Z</time>
      </trkpt>
      <trkpt lat="49.50133" lon="-1.42908">
        <ele>55.5</ele>
        <time>2026-09-03T09:43:28.536Z</time>
      </trkpt>
      <trkpt lat="49.50133" lon="-1.4291">
        <ele>55.5</ele>
        <time>2026-09-03T09:43:29.564Z</time>
      </trkpt>
      <trkpt lat="49.50134" lon="-1.42912">
        <ele>55.7</ele>
        <time>2026-09-03T09:43:30.565Z</time>
      </trkpt>
      <trkpt lat="49.50134" lon="-1.42915">
        <ele>55.8</ele>
        <time>2026-09-03T09:43:32.536Z</time>
      </trkpt>
      <trkpt lat="49.50134" lon="-1.42917">
        <ele>55.8</ele>
        <time>2026-09-03T09:43:33.539Z</time>
      </trkpt>
      <trkpt lat="49.50134" lon="-1.42921">
        <ele>56</ele>
        <time>2026-09-03T09:43:35.536Z</time>
      </trkpt>
      <trkpt lat="49.50134" lon="-1.42923">
        <ele>56.1</ele>
        <time>2026-09-03T09:43:36.536Z</time>
      </trkpt>
      <trkpt lat="49.50135" lon="-1.42925">
        <ele>56.2</ele>
        <time>2026-09-03T09:43:37.536Z</time>
      </trkpt>
      <trkpt lat="49.50135" lon="-1.42927">
        <ele>56.2</ele>
        <time>2026-09-03T09:43:38.576Z</time>
      </trkpt>
      <trkpt lat="49.50136" lon="-1.4293">
        <ele>56.4</ele>
        <time>2026-09-03T09:43:40.536Z</time>
      </trkpt>
      <trkpt lat="49.50136" lon="-1.42932">
        <ele>56.4</ele>
        <time>2026-09-03T09:43:41.559Z</time>
      </trkpt>
      <trkpt lat="49.50136" lon="-1.42934">
        <ele>56.5</ele>
        <time>2026-09-03T09:43:42.562Z</time>
      </trkpt>
      <trkpt lat="49.50136" lon="-1.42937">
        <ele>56.6</ele>
        <time>2026-09-03T09:43:44.536Z</time>
      </trkpt>
      <trkpt lat="49.50137" lon="-1.42939">
        <ele>56.7</ele>
        <time>2026-09-03T09:43:45.576Z</time>
      </trkpt>
      <trkpt lat="49.50137" lon="-1.42943">
        <ele>56.9</ele>
        <time>2026-09-03T09:43:47.569Z</time>
      </trkpt>
      <trkpt lat="49.50137" lon="-1.42947">
        <ele>56.9</ele>
        <time>2026-09-03T09:43:49.470Z</time>
      </trkpt>
      <trkpt lat="49.50137" lon="-1.42949">
        <ele>56.9</ele>
        <time>2026-09-03T09:43:50.573Z</time>
      </trkpt>
      <trkpt lat="49.50138" lon="-1.42952">
        <ele>57</ele>
        <time>2026-09-03T09:43:52.536Z</time>
      </trkpt>
      <trkpt lat="49.50138" lon="-1.42954">
        <ele>57</ele>
        <time>2026-09-03T09:43:53.557Z</time>
      </trkpt>
      <trkpt lat="49.50139" lon="-1.42957">
        <ele>57</ele>
        <time>2026-09-03T09:43:55.580Z</time>
      </trkpt>
      <trkpt lat="49.50139" lon="-1.42959">
        <ele>57</ele>
        <time>2026-09-03T09:43:57.563Z</time>
      </trkpt>
      <trkpt lat="49.5014" lon="-1.42961">
        <ele>57.1</ele>
        <time>2026-09-03T09:43:58.564Z</time>
      </trkpt>
      <trkpt lat="49.5014" lon="-1.42966">
        <ele>57.1</ele>
        <time>2026-09-03T09:44:00.536Z</time>
      </trkpt>
      <trkpt lat="49.50141" lon="-1.42967">
        <ele>57.1</ele>
        <time>2026-09-03T09:44:01.586Z</time>
      </trkpt>
      <trkpt lat="49.50141" lon="-1.42969">
        <ele>57.1</ele>
        <time>2026-09-03T09:44:03.530Z</time>
      </trkpt>
      <trkpt lat="49.50141" lon="-1.4297">
        <ele>57.1</ele>
        <time>2026-09-03T09:44:04.536Z</time>
      </trkpt>
      <trkpt lat="49.50141" lon="-1.42973">
        <ele>57.2</ele>
        <time>2026-09-03T09:44:05.536Z</time>
      </trkpt>
      <trkpt lat="49.50142" lon="-1.42976">
        <ele>57.4</ele>
        <time>2026-09-03T09:44:06.536Z</time>
      </trkpt>
      <trkpt lat="49.50142" lon="-1.42978">
        <ele>57.4</ele>
        <time>2026-09-03T09:44:07.536Z</time>
      </trkpt>
      <trkpt lat="49.50142" lon="-1.42983">
        <ele>57.6</ele>
        <time>2026-09-03T09:44:09.536Z</time>
      </trkpt>
      <trkpt lat="49.50143" lon="-1.42986">
        <ele>57.8</ele>
        <time>2026-09-03T09:44:10.536Z</time>
      </trkpt>
      <trkpt lat="49.50143" lon="-1.42988">
        <ele>57.9</ele>
        <time>2026-09-03T09:44:11.562Z</time>
      </trkpt>
      <trkpt lat="49.50144" lon="-1.42992">
        <ele>58.1</ele>
        <time>2026-09-03T09:44:13.495Z</time>
      </trkpt>
      <trkpt lat="49.50144" lon="-1.42994">
        <ele>58.2</ele>
        <time>2026-09-03T09:44:14.566Z</time>
      </trkpt>
      <trkpt lat="49.50145" lon="-1.42996">
        <ele>58.3</ele>
        <time>2026-09-03T09:44:15.577Z</time>
      </trkpt>
      <trkpt lat="49.50145" lon="-1.43">
        <ele>58.4</ele>
        <time>2026-09-03T09:44:17.586Z</time>
      </trkpt>
      <trkpt lat="49.50145" lon="-1.43002">
        <ele>58.5</ele>
        <time>2026-09-03T09:44:19.536Z</time>
      </trkpt>
      <trkpt lat="49.50146" lon="-1.43005">
        <ele>58.6</ele>
        <time>2026-09-03T09:44:21.536Z</time>
      </trkpt>
      <trkpt lat="49.50146" lon="-1.43007">
        <ele>58.7</ele>
        <time>2026-09-03T09:44:22.537Z</time>
      </trkpt>
      <trkpt lat="49.50146" lon="-1.4301">
        <ele>58.8</ele>
        <time>2026-09-03T09:44:23.559Z</time>
      </trkpt>
      <trkpt lat="49.50147" lon="-1.43015">
        <ele>59</ele>
        <time>2026-09-03T09:44:25.536Z</time>
      </trkpt>
      <trkpt lat="49.50147" lon="-1.43016">
        <ele>59</ele>
        <time>2026-09-03T09:44:26.536Z</time>
      </trkpt>
      <trkpt lat="49.50148" lon="-1.43018">
        <ele>59.1</ele>
        <time>2026-09-03T09:44:27.536Z</time>
      </trkpt>
      <trkpt lat="49.50148" lon="-1.4302">
        <ele>59.1</ele>
        <time>2026-09-03T09:44:28.536Z</time>
      </trkpt>
      <trkpt lat="49.50148" lon="-1.43022">
        <ele>59.2</ele>
        <time>2026-09-03T09:44:29.536Z</time>
      </trkpt>
      <trkpt lat="49.50149" lon="-1.43023">
        <ele>59.3</ele>
        <time>2026-09-03T09:44:30.536Z</time>
      </trkpt>
      <trkpt lat="49.50149" lon="-1.43025">
        <ele>59.3</ele>
        <time>2026-09-03T09:44:31.536Z</time>
      </trkpt>
      <trkpt lat="49.50149" lon="-1.43027">
        <ele>59.3</ele>
        <time>2026-09-03T09:44:32.536Z</time>
      </trkpt>
      <trkpt lat="49.50149" lon="-1.43029">
        <ele>59.4</ele>
        <time>2026-09-03T09:44:33.536Z</time>
      </trkpt>
      <trkpt lat="49.5015" lon="-1.43031">
        <ele>59.5</ele>
        <time>2026-09-03T09:44:34.536Z</time>
      </trkpt>
      <trkpt lat="49.5015" lon="-1.43035">
        <ele>59.7</ele>
        <time>2026-09-03T09:44:36.496Z</time>
      </trkpt>
      <trkpt lat="49.5015" lon="-1.43037">
        <ele>59.7</ele>
        <time>2026-09-03T09:44:37.536Z</time>
      </trkpt>
      <trkpt lat="49.5015" lon="-1.43039">
        <ele>59.8</ele>
        <time>2026-09-03T09:44:38.539Z</time>
      </trkpt>
      <trkpt lat="49.5015" lon="-1.43043">
        <ele>59.9</ele>
        <time>2026-09-03T09:44:40.592Z</time>
      </trkpt>
      <trkpt lat="49.5015" lon="-1.43047">
        <ele>60.1</ele>
        <time>2026-09-03T09:44:42.544Z</time>
      </trkpt>
      <trkpt lat="49.50151" lon="-1.43048">
        <ele>60.2</ele>
        <time>2026-09-03T09:44:43.546Z</time>
      </trkpt>
      <trkpt lat="49.50151" lon="-1.4305">
        <ele>60.2</ele>
        <time>2026-09-03T09:44:44.548Z</time>
      </trkpt>
      <trkpt lat="49.50152" lon="-1.43054">
        <ele>60.4</ele>
        <time>2026-09-03T09:44:46.470Z</time>
      </trkpt>
      <trkpt lat="49.50152" lon="-1.43056">
        <ele>60.5</ele>
        <time>2026-09-03T09:44:47.572Z</time>
      </trkpt>
      <trkpt lat="49.50153" lon="-1.43059">
        <ele>60.5</ele>
        <time>2026-09-03T09:44:49.536Z</time>
      </trkpt>
      <trkpt lat="49.50154" lon="-1.43063">
        <ele>60.5</ele>
        <time>2026-09-03T09:44:51.578Z</time>
      </trkpt>
      <trkpt lat="49.50155" lon="-1.43066">
        <ele>60.6</ele>
        <time>2026-09-03T09:44:53.536Z</time>
      </trkpt>
      <trkpt lat="49.50155" lon="-1.43068">
        <ele>60.6</ele>
        <time>2026-09-03T09:44:54.536Z</time>
      </trkpt>
      <trkpt lat="49.50155" lon="-1.4307">
        <ele>60.6</ele>
        <time>2026-09-03T09:44:55.536Z</time>
      </trkpt>
      <trkpt lat="49.50156" lon="-1.43072">
        <ele>60.6</ele>
        <time>2026-09-03T09:44:56.536Z</time>
      </trkpt>
      <trkpt lat="49.50156" lon="-1.43075">
        <ele>60.6</ele>
        <time>2026-09-03T09:44:58.557Z</time>
      </trkpt>
      <trkpt lat="49.50157" lon="-1.43079">
        <ele>60.7</ele>
        <time>2026-09-03T09:45:00.550Z</time>
      </trkpt>
      <trkpt lat="49.50157" lon="-1.43083">
        <ele>60.7</ele>
        <time>2026-09-03T09:45:02.536Z</time>
      </trkpt>
      <trkpt lat="49.50157" lon="-1.43084">
        <ele>60.7</ele>
        <time>2026-09-03T09:45:03.536Z</time>
      </trkpt>
      <trkpt lat="49.50157" lon="-1.43086">
        <ele>60.7</ele>
        <time>2026-09-03T09:45:04.536Z</time>
      </trkpt>
      <trkpt lat="49.50158" lon="-1.43088">
        <ele>60.7</ele>
        <time>2026-09-03T09:45:05.536Z</time>
      </trkpt>
      <trkpt lat="49.50158" lon="-1.4309">
        <ele>60.7</ele>
        <time>2026-09-03T09:45:06.536Z</time>
      </trkpt>
      <trkpt lat="49.50158" lon="-1.43093">
        <ele>60.7</ele>
        <time>2026-09-03T09:45:07.540Z</time>
      </trkpt>
      <trkpt lat="49.50159" lon="-1.43097">
        <ele>60.7</ele>
        <time>2026-09-03T09:45:09.553Z</time>
      </trkpt>
      <trkpt lat="49.50159" lon="-1.431">
        <ele>60.7</ele>
        <time>2026-09-03T09:45:11.545Z</time>
      </trkpt>
      <trkpt lat="49.5016" lon="-1.43104">
        <ele>60.8</ele>
        <time>2026-09-03T09:45:13.558Z</time>
      </trkpt>
      <trkpt lat="49.5016" lon="-1.43108">
        <ele>60.8</ele>
        <time>2026-09-03T09:45:15.551Z</time>
      </trkpt>
      <trkpt lat="49.50161" lon="-1.43109">
        <ele>60.8</ele>
        <time>2026-09-03T09:45:16.552Z</time>
      </trkpt>
      <trkpt lat="49.50161" lon="-1.43111">
        <ele>60.8</ele>
        <time>2026-09-03T09:45:17.554Z</time>
      </trkpt>
      <trkpt lat="49.50161" lon="-1.43114">
        <ele>60.7</ele>
        <time>2026-09-03T09:45:18.555Z</time>
      </trkpt>
      <trkpt lat="49.50162" lon="-1.43117">
        <ele>60.7</ele>
        <time>2026-09-03T09:45:20.438Z</time>
      </trkpt>
      <trkpt lat="49.50162" lon="-1.43119">
        <ele>60.6</ele>
        <time>2026-09-03T09:45:21.536Z</time>
      </trkpt>
      <trkpt lat="49.50162" lon="-1.43121">
        <ele>60.5</ele>
        <time>2026-09-03T09:45:22.536Z</time>
      </trkpt>
      <trkpt lat="49.50162" lon="-1.43123">
        <ele>60.5</ele>
        <time>2026-09-03T09:45:23.536Z</time>
      </trkpt>
      <trkpt lat="49.50163" lon="-1.43127">
        <ele>60.4</ele>
        <time>2026-09-03T09:45:25.535Z</time>
      </trkpt>
      <trkpt lat="49.50163" lon="-1.43129">
        <ele>60.3</ele>
        <time>2026-09-03T09:45:26.536Z</time>
      </trkpt>
      <trkpt lat="49.50163" lon="-1.43131">
        <ele>60.2</ele>
        <time>2026-09-03T09:45:27.536Z</time>
      </trkpt>
      <trkpt lat="49.50163" lon="-1.43133">
        <ele>60.2</ele>
        <time>2026-09-03T09:45:28.536Z</time>
      </trkpt>
      <trkpt lat="49.50163" lon="-1.43135">
        <ele>60.1</ele>
        <time>2026-09-03T09:45:29.536Z</time>
      </trkpt>
      <trkpt lat="49.50163" lon="-1.43137">
        <ele>60.1</ele>
        <time>2026-09-03T09:45:30.536Z</time>
      </trkpt>
      <trkpt lat="49.50163" lon="-1.43138">
        <ele>60</ele>
        <time>2026-09-03T09:45:31.536Z</time>
      </trkpt>
      <trkpt lat="49.50164" lon="-1.4314">
        <ele>60</ele>
        <time>2026-09-03T09:45:32.575Z</time>
      </trkpt>
      <trkpt lat="49.50165" lon="-1.43144">
        <ele>60</ele>
        <time>2026-09-03T09:45:34.536Z</time>
      </trkpt>
      <trkpt lat="49.50165" lon="-1.43146">
        <ele>60</ele>
        <time>2026-09-03T09:45:35.536Z</time>
      </trkpt>
      <trkpt lat="49.50166" lon="-1.43148">
        <ele>60</ele>
        <time>2026-09-03T09:45:36.536Z</time>
      </trkpt>
      <trkpt lat="49.50166" lon="-1.43152">
        <ele>60</ele>
        <time>2026-09-03T09:45:38.536Z</time>
      </trkpt>
      <trkpt lat="49.50166" lon="-1.43154">
        <ele>60</ele>
        <time>2026-09-03T09:45:39.545Z</time>
      </trkpt>
      <trkpt lat="49.50166" lon="-1.43156">
        <ele>60</ele>
        <time>2026-09-03T09:45:40.546Z</time>
      </trkpt>
      <trkpt lat="49.50167" lon="-1.43158">
        <ele>60</ele>
        <time>2026-09-03T09:45:41.546Z</time>
      </trkpt>
      <trkpt lat="49.50167" lon="-1.4316">
        <ele>60</ele>
        <time>2026-09-03T09:45:42.549Z</time>
      </trkpt>
      <trkpt lat="49.50167" lon="-1.43162">
        <ele>60</ele>
        <time>2026-09-03T09:45:43.550Z</time>
      </trkpt>
      <trkpt lat="49.50167" lon="-1.43164">
        <ele>60</ele>
        <time>2026-09-03T09:45:44.552Z</time>
      </trkpt>
      <trkpt lat="49.50167" lon="-1.43167">
        <ele>60</ele>
        <time>2026-09-03T09:45:46.374Z</time>
      </trkpt>
      <trkpt lat="49.50168" lon="-1.4317">
        <ele>60</ele>
        <time>2026-09-03T09:45:47.536Z</time>
      </trkpt>
      <trkpt lat="49.50168" lon="-1.43171">
        <ele>60</ele>
        <time>2026-09-03T09:45:48.537Z</time>
      </trkpt>
      <trkpt lat="49.50168" lon="-1.43175">
        <ele>60</ele>
        <time>2026-09-03T09:45:50.536Z</time>
      </trkpt>
      <trkpt lat="49.50168" lon="-1.43177">
        <ele>60</ele>
        <time>2026-09-03T09:45:51.536Z</time>
      </trkpt>
      <trkpt lat="49.50168" lon="-1.43181">
        <ele>60</ele>
        <time>2026-09-03T09:45:53.514Z</time>
      </trkpt>
      <trkpt lat="49.50168" lon="-1.43183">
        <ele>60</ele>
        <time>2026-09-03T09:45:54.536Z</time>
      </trkpt>
      <trkpt lat="49.50168" lon="-1.43185">
        <ele>60</ele>
        <time>2026-09-03T09:45:55.536Z</time>
      </trkpt>
      <trkpt lat="49.50168" lon="-1.43187">
        <ele>60</ele>
        <time>2026-09-03T09:45:56.536Z</time>
      </trkpt>
      <trkpt lat="49.50168" lon="-1.43189">
        <ele>60</ele>
        <time>2026-09-03T09:45:57.536Z</time>
      </trkpt>
      <trkpt lat="49.50168" lon="-1.43191">
        <ele>60</ele>
        <time>2026-09-03T09:45:58.536Z</time>
      </trkpt>
      <trkpt lat="49.50168" lon="-1.43193">
        <ele>60</ele>
        <time>2026-09-03T09:45:59.536Z</time>
      </trkpt>
      <trkpt lat="49.50169" lon="-1.43197">
        <ele>60.1</ele>
        <time>2026-09-03T09:46:01.536Z</time>
      </trkpt>
      <trkpt lat="49.50169" lon="-1.43201">
        <ele>60.1</ele>
        <time>2026-09-03T09:46:03.458Z</time>
      </trkpt>
      <trkpt lat="49.50169" lon="-1.43203">
        <ele>60.1</ele>
        <time>2026-09-03T09:46:04.520Z</time>
      </trkpt>
      <trkpt lat="49.50169" lon="-1.43205">
        <ele>60.1</ele>
        <time>2026-09-03T09:46:05.571Z</time>
      </trkpt>
      <trkpt lat="49.50169" lon="-1.43208">
        <ele>60.1</ele>
        <time>2026-09-03T09:46:07.564Z</time>
      </trkpt>
      <trkpt lat="49.50169" lon="-1.4321">
        <ele>60.1</ele>
        <time>2026-09-03T09:46:08.565Z</time>
      </trkpt>
      <trkpt lat="49.50169" lon="-1.43214">
        <ele>60.1</ele>
        <time>2026-09-03T09:46:10.538Z</time>
      </trkpt>
      <trkpt lat="49.5017" lon="-1.43218">
        <ele>60.1</ele>
        <time>2026-09-03T09:46:12.536Z</time>
      </trkpt>
      <trkpt lat="49.5017" lon="-1.4322">
        <ele>60.1</ele>
        <time>2026-09-03T09:46:13.536Z</time>
      </trkpt>
      <trkpt lat="49.5017" lon="-1.43222">
        <ele>60.1</ele>
        <time>2026-09-03T09:46:14.536Z</time>
      </trkpt>
      <trkpt lat="49.5017" lon="-1.43224">
        <ele>60.1</ele>
        <time>2026-09-03T09:46:15.555Z</time>
      </trkpt>
      <trkpt lat="49.5017" lon="-1.43228">
        <ele>59.9</ele>
        <time>2026-09-03T09:46:17.538Z</time>
      </trkpt>
      <trkpt lat="49.5017" lon="-1.43233">
        <ele>59.7</ele>
        <time>2026-09-03T09:46:19.536Z</time>
      </trkpt>
      <trkpt lat="49.5017" lon="-1.43235">
        <ele>59.7</ele>
        <time>2026-09-03T09:46:20.536Z</time>
      </trkpt>
      <trkpt lat="49.50171" lon="-1.43237">
        <ele>59.6</ele>
        <time>2026-09-03T09:46:21.536Z</time>
      </trkpt>
      <trkpt lat="49.50171" lon="-1.43239">
        <ele>59.6</ele>
        <time>2026-09-03T09:46:22.536Z</time>
      </trkpt>
      <trkpt lat="49.50171" lon="-1.43243">
        <ele>59.4</ele>
        <time>2026-09-03T09:46:24.558Z</time>
      </trkpt>
      <trkpt lat="49.50171" lon="-1.43247">
        <ele>59.3</ele>
        <time>2026-09-03T09:46:26.551Z</time>
      </trkpt>
      <trkpt lat="49.50171" lon="-1.43251">
        <ele>59.2</ele>
        <time>2026-09-03T09:46:28.536Z</time>
      </trkpt>
      <trkpt lat="49.50172" lon="-1.43253">
        <ele>59.2</ele>
        <time>2026-09-03T09:46:29.536Z</time>
      </trkpt>
      <trkpt lat="49.50172" lon="-1.43255">
        <ele>59.2</ele>
        <time>2026-09-03T09:46:30.536Z</time>
      </trkpt>
      <trkpt lat="49.50172" lon="-1.43259">
        <ele>59.2</ele>
        <time>2026-09-03T09:46:32.479Z</time>
      </trkpt>
      <trkpt lat="49.50172" lon="-1.43261">
        <ele>59.2</ele>
        <time>2026-09-03T09:46:33.540Z</time>
      </trkpt>
      <trkpt lat="49.50172" lon="-1.43263">
        <ele>59.2</ele>
        <time>2026-09-03T09:46:34.542Z</time>
      </trkpt>
      <trkpt lat="49.50173" lon="-1.43265">
        <ele>59.2</ele>
        <time>2026-09-03T09:46:35.543Z</time>
      </trkpt>
      <trkpt lat="49.50173" lon="-1.43267">
        <ele>59.2</ele>
        <time>2026-09-03T09:46:36.565Z</time>
      </trkpt>
      <trkpt lat="49.50173" lon="-1.43269">
        <ele>59.2</ele>
        <time>2026-09-03T09:46:37.566Z</time>
      </trkpt>
      <trkpt lat="49.50173" lon="-1.43271">
        <ele>59.2</ele>
        <time>2026-09-03T09:46:38.567Z</time>
      </trkpt>
      <trkpt lat="49.50172" lon="-1.43275">
        <ele>59.2</ele>
        <time>2026-09-03T09:46:40.536Z</time>
      </trkpt>
      <trkpt lat="49.50173" lon="-1.43277">
        <ele>59.2</ele>
        <time>2026-09-03T09:46:41.536Z</time>
      </trkpt>
      <trkpt lat="49.50173" lon="-1.43279">
        <ele>59.2</ele>
        <time>2026-09-03T09:46:42.536Z</time>
      </trkpt>
      <trkpt lat="49.50173" lon="-1.43281">
        <ele>59.1</ele>
        <time>2026-09-03T09:46:43.536Z</time>
      </trkpt>
      <trkpt lat="49.50173" lon="-1.43283">
        <ele>59</ele>
        <time>2026-09-03T09:46:44.536Z</time>
      </trkpt>
      <trkpt lat="49.50174" lon="-1.43288">
        <ele>58.9</ele>
        <time>2026-09-03T09:46:46.498Z</time>
      </trkpt>
      <trkpt lat="49.50174" lon="-1.4329">
        <ele>58.8</ele>
        <time>2026-09-03T09:46:47.540Z</time>
      </trkpt>
      <trkpt lat="49.50174" lon="-1.43294">
        <ele>58.7</ele>
        <time>2026-09-03T09:46:49.543Z</time>
      </trkpt>
      <trkpt lat="49.50174" lon="-1.43296">
        <ele>58.6</ele>
        <time>2026-09-03T09:46:50.544Z</time>
      </trkpt>
      <trkpt lat="49.50174" lon="-1.43298">
        <ele>58.5</ele>
        <time>2026-09-03T09:46:51.546Z</time>
      </trkpt>
      <trkpt lat="49.50174" lon="-1.433">
        <ele>58.5</ele>
        <time>2026-09-03T09:46:52.547Z</time>
      </trkpt>
      <trkpt lat="49.50174" lon="-1.43302">
        <ele>58.4</ele>
        <time>2026-09-03T09:46:53.548Z</time>
      </trkpt>
      <trkpt lat="49.50174" lon="-1.43306">
        <ele>58.3</ele>
        <time>2026-09-03T09:46:55.536Z</time>
      </trkpt>
      <trkpt lat="49.50174" lon="-1.43309">
        <ele>58.3</ele>
        <time>2026-09-03T09:46:56.593Z</time>
      </trkpt>
      <trkpt lat="49.50174" lon="-1.43313">
        <ele>58.3</ele>
        <time>2026-09-03T09:46:58.575Z</time>
      </trkpt>
      <trkpt lat="49.50174" lon="-1.43317">
        <ele>58.3</ele>
        <time>2026-09-03T09:47:00.536Z</time>
      </trkpt>
      <trkpt lat="49.50174" lon="-1.43319">
        <ele>58.3</ele>
        <time>2026-09-03T09:47:01.540Z</time>
      </trkpt>
      <trkpt lat="49.50174" lon="-1.43321">
        <ele>58.3</ele>
        <time>2026-09-03T09:47:02.541Z</time>
      </trkpt>
      <trkpt lat="49.50175" lon="-1.43323">
        <ele>58.3</ele>
        <time>2026-09-03T09:47:03.542Z</time>
      </trkpt>
      <trkpt lat="49.50175" lon="-1.43325">
        <ele>58.3</ele>
        <time>2026-09-03T09:47:04.543Z</time>
      </trkpt>
      <trkpt lat="49.50175" lon="-1.43327">
        <ele>58.3</ele>
        <time>2026-09-03T09:47:05.545Z</time>
      </trkpt>
      <trkpt lat="49.50176" lon="-1.43329">
        <ele>58.3</ele>
        <time>2026-09-03T09:47:06.547Z</time>
      </trkpt>
      <trkpt lat="49.50176" lon="-1.43331">
        <ele>58.3</ele>
        <time>2026-09-03T09:47:07.568Z</time>
      </trkpt>
      <trkpt lat="49.50176" lon="-1.43333">
        <ele>58.3</ele>
        <time>2026-09-03T09:47:08.570Z</time>
      </trkpt>
      <trkpt lat="49.50176" lon="-1.43336">
        <ele>58.2</ele>
        <time>2026-09-03T09:47:10.472Z</time>
      </trkpt>
      <trkpt lat="49.50176" lon="-1.43338">
        <ele>58.2</ele>
        <time>2026-09-03T09:47:11.536Z</time>
      </trkpt>
      <trkpt lat="49.50176" lon="-1.43342">
        <ele>58</ele>
        <time>2026-09-03T09:47:13.536Z</time>
      </trkpt>
      <trkpt lat="49.50176" lon="-1.43345">
        <ele>57.9</ele>
        <time>2026-09-03T09:47:14.536Z</time>
      </trkpt>
      <trkpt lat="49.50176" lon="-1.43347">
        <ele>57.8</ele>
        <time>2026-09-03T09:47:15.536Z</time>
      </trkpt>
      <trkpt lat="49.50176" lon="-1.43349">
        <ele>57.8</ele>
        <time>2026-09-03T09:47:16.541Z</time>
      </trkpt>
      <trkpt lat="49.50176" lon="-1.43351">
        <ele>57.7</ele>
        <time>2026-09-03T09:47:17.542Z</time>
      </trkpt>
      <trkpt lat="49.50176" lon="-1.43355">
        <ele>57.6</ele>
        <time>2026-09-03T09:47:19.515Z</time>
      </trkpt>
      <trkpt lat="49.50176" lon="-1.43358">
        <ele>57.4</ele>
        <time>2026-09-03T09:47:20.566Z</time>
      </trkpt>
      <trkpt lat="49.50176" lon="-1.4336">
        <ele>57.4</ele>
        <time>2026-09-03T09:47:21.568Z</time>
      </trkpt>
      <trkpt lat="49.50176" lon="-1.43362">
        <ele>57.3</ele>
        <time>2026-09-03T09:47:22.569Z</time>
      </trkpt>
      <trkpt lat="49.50176" lon="-1.43364">
        <ele>57.2</ele>
        <time>2026-09-03T09:47:23.571Z</time>
      </trkpt>
      <trkpt lat="49.50176" lon="-1.43366">
        <ele>57.2</ele>
        <time>2026-09-03T09:47:24.572Z</time>
      </trkpt>
      <trkpt lat="49.50176" lon="-1.43368">
        <ele>57.1</ele>
        <time>2026-09-03T09:47:25.573Z</time>
      </trkpt>
      <trkpt lat="49.50176" lon="-1.43372">
        <ele>56.9</ele>
        <time>2026-09-03T09:47:27.536Z</time>
      </trkpt>
      <trkpt lat="49.50175" lon="-1.43375">
        <ele>56.8</ele>
        <time>2026-09-03T09:47:28.536Z</time>
      </trkpt>
      <trkpt lat="49.50176" lon="-1.43377">
        <ele>56.8</ele>
        <time>2026-09-03T09:47:29.539Z</time>
      </trkpt>
      <trkpt lat="49.50175" lon="-1.43379">
        <ele>56.7</ele>
        <time>2026-09-03T09:47:30.561Z</time>
      </trkpt>
      <trkpt lat="49.50175" lon="-1.43381">
        <ele>56.6</ele>
        <time>2026-09-03T09:47:31.562Z</time>
      </trkpt>
      <trkpt lat="49.50175" lon="-1.43383">
        <ele>56.5</ele>
        <time>2026-09-03T09:47:32.563Z</time>
      </trkpt>
      <trkpt lat="49.50174" lon="-1.43386">
        <ele>56.4</ele>
        <time>2026-09-03T09:47:34.436Z</time>
      </trkpt>
      <trkpt lat="49.50173" lon="-1.43387">
        <ele>56.3</ele>
        <time>2026-09-03T09:47:35.536Z</time>
      </trkpt>
      <trkpt lat="49.50173" lon="-1.43389">
        <ele>56.2</ele>
        <time>2026-09-03T09:47:36.536Z</time>
      </trkpt>
      <trkpt lat="49.50173" lon="-1.4339">
        <ele>56.2</ele>
        <time>2026-09-03T09:47:37.536Z</time>
      </trkpt>
      <trkpt lat="49.50174" lon="-1.43392">
        <ele>56.3</ele>
        <time>2026-09-03T09:47:38.536Z</time>
      </trkpt>
      <trkpt lat="49.50174" lon="-1.43393">
        <ele>56.3</ele>
        <time>2026-09-03T09:47:39.536Z</time>
      </trkpt>
      <trkpt lat="49.50175" lon="-1.43395">
        <ele>56.3</ele>
        <time>2026-09-03T09:47:40.536Z</time>
      </trkpt>
      <trkpt lat="49.50176" lon="-1.43396">
        <ele>56.3</ele>
        <time>2026-09-03T09:47:41.536Z</time>
      </trkpt>
      <trkpt lat="49.50176" lon="-1.43398">
        <ele>56.3</ele>
        <time>2026-09-03T09:47:42.536Z</time>
      </trkpt>
      <trkpt lat="49.50176" lon="-1.434">
        <ele>56.3</ele>
        <time>2026-09-03T09:47:43.536Z</time>
      </trkpt>
      <trkpt lat="49.50177" lon="-1.43402">
        <ele>56.4</ele>
        <time>2026-09-03T09:47:44.536Z</time>
      </trkpt>
      <trkpt lat="49.50177" lon="-1.43404">
        <ele>56.4</ele>
        <time>2026-09-03T09:47:45.536Z</time>
      </trkpt>
      <trkpt lat="49.50178" lon="-1.43406">
        <ele>56.4</ele>
        <time>2026-09-03T09:47:46.536Z</time>
      </trkpt>
      <trkpt lat="49.50178" lon="-1.43408">
        <ele>56.4</ele>
        <time>2026-09-03T09:47:47.536Z</time>
      </trkpt>
      <trkpt lat="49.50178" lon="-1.43412">
        <ele>56.4</ele>
        <time>2026-09-03T09:47:49.536Z</time>
      </trkpt>
      <trkpt lat="49.50178" lon="-1.43414">
        <ele>56.4</ele>
        <time>2026-09-03T09:47:50.559Z</time>
      </trkpt>
      <trkpt lat="49.50178" lon="-1.43418">
        <ele>56.3</ele>
        <time>2026-09-03T09:47:52.536Z</time>
      </trkpt>
      <trkpt lat="49.50178" lon="-1.4342">
        <ele>56.2</ele>
        <time>2026-09-03T09:47:53.536Z</time>
      </trkpt>
      <trkpt lat="49.50178" lon="-1.43423">
        <ele>56.1</ele>
        <time>2026-09-03T09:47:54.536Z</time>
      </trkpt>
      <trkpt lat="49.50177" lon="-1.43425">
        <ele>56</ele>
        <time>2026-09-03T09:47:55.556Z</time>
      </trkpt>
      <trkpt lat="49.50177" lon="-1.43429">
        <ele>55.8</ele>
        <time>2026-09-03T09:47:57.559Z</time>
      </trkpt>
      <trkpt lat="49.50176" lon="-1.43433">
        <ele>55.6</ele>
        <time>2026-09-03T09:47:59.536Z</time>
      </trkpt>
      <trkpt lat="49.50176" lon="-1.43434">
        <ele>55.5</ele>
        <time>2026-09-03T09:48:00.536Z</time>
      </trkpt>
      <trkpt lat="49.50176" lon="-1.43436">
        <ele>55.4</ele>
        <time>2026-09-03T09:48:01.536Z</time>
      </trkpt>
      <trkpt lat="49.50177" lon="-1.4344">
        <ele>55.2</ele>
        <time>2026-09-03T09:48:03.538Z</time>
      </trkpt>
      <trkpt lat="49.50178" lon="-1.43443">
        <ele>55.1</ele>
        <time>2026-09-03T09:48:05.551Z</time>
      </trkpt>
      <trkpt lat="49.50179" lon="-1.43446">
        <ele>54.9</ele>
        <time>2026-09-03T09:48:07.514Z</time>
      </trkpt>
      <trkpt lat="49.50179" lon="-1.43448">
        <ele>54.8</ele>
        <time>2026-09-03T09:48:08.575Z</time>
      </trkpt>
      <trkpt lat="49.5018" lon="-1.43451">
        <ele>54.7</ele>
        <time>2026-09-03T09:48:10.536Z</time>
      </trkpt>
      <trkpt lat="49.50181" lon="-1.43453">
        <ele>54.5</ele>
        <time>2026-09-03T09:48:11.536Z</time>
      </trkpt>
      <trkpt lat="49.50181" lon="-1.43454">
        <ele>54.5</ele>
        <time>2026-09-03T09:48:12.536Z</time>
      </trkpt>
      <trkpt lat="49.50181" lon="-1.43455">
        <ele>54.4</ele>
        <time>2026-09-03T09:48:13.542Z</time>
      </trkpt>
      <trkpt lat="49.50182" lon="-1.43457">
        <ele>54.3</ele>
        <time>2026-09-03T09:48:15.536Z</time>
      </trkpt>
      <trkpt lat="49.50182" lon="-1.4346">
        <ele>54.1</ele>
        <time>2026-09-03T09:48:16.536Z</time>
      </trkpt>
      <trkpt lat="49.50183" lon="-1.43462">
        <ele>54</ele>
        <time>2026-09-03T09:48:17.536Z</time>
      </trkpt>
      <trkpt lat="49.50183" lon="-1.43465">
        <ele>53.8</ele>
        <time>2026-09-03T09:48:18.536Z</time>
      </trkpt>
      <trkpt lat="49.50183" lon="-1.43467">
        <ele>53.7</ele>
        <time>2026-09-03T09:48:19.571Z</time>
      </trkpt>
      <trkpt lat="49.50184" lon="-1.43471">
        <ele>53.4</ele>
        <time>2026-09-03T09:48:21.614Z</time>
      </trkpt>
      <trkpt lat="49.50184" lon="-1.43475">
        <ele>53.2</ele>
        <time>2026-09-03T09:48:23.536Z</time>
      </trkpt>
      <trkpt lat="49.50184" lon="-1.43478">
        <ele>53</ele>
        <time>2026-09-03T09:48:24.536Z</time>
      </trkpt>
      <trkpt lat="49.50184" lon="-1.4348">
        <ele>52.8</ele>
        <time>2026-09-03T09:48:25.536Z</time>
      </trkpt>
      <trkpt lat="49.50183" lon="-1.43483">
        <ele>52.6</ele>
        <time>2026-09-03T09:48:26.536Z</time>
      </trkpt>
      <trkpt lat="49.50183" lon="-1.43488">
        <ele>52.3</ele>
        <time>2026-09-03T09:48:28.536Z</time>
      </trkpt>
      <trkpt lat="49.50183" lon="-1.43491">
        <ele>52.1</ele>
        <time>2026-09-03T09:48:29.536Z</time>
      </trkpt>
      <trkpt lat="49.50183" lon="-1.43494">
        <ele>51.8</ele>
        <time>2026-09-03T09:48:30.536Z</time>
      </trkpt>
      <trkpt lat="49.50183" lon="-1.43496">
        <ele>51.7</ele>
        <time>2026-09-03T09:48:31.536Z</time>
      </trkpt>
      <trkpt lat="49.50183" lon="-1.43499">
        <ele>51.5</ele>
        <time>2026-09-03T09:48:32.536Z</time>
      </trkpt>
      <trkpt lat="49.50183" lon="-1.43501">
        <ele>51.3</ele>
        <time>2026-09-03T09:48:33.551Z</time>
      </trkpt>
      <trkpt lat="49.50183" lon="-1.43504">
        <ele>51.1</ele>
        <time>2026-09-03T09:48:34.552Z</time>
      </trkpt>
      <trkpt lat="49.50184" lon="-1.43508">
        <ele>50.7</ele>
        <time>2026-09-03T09:48:36.586Z</time>
      </trkpt>
      <trkpt lat="49.50184" lon="-1.43512">
        <ele>50.3</ele>
        <time>2026-09-03T09:48:38.458Z</time>
      </trkpt>
      <trkpt lat="49.50185" lon="-1.43514">
        <ele>50.2</ele>
        <time>2026-09-03T09:48:39.519Z</time>
      </trkpt>
      <trkpt lat="49.50185" lon="-1.43515">
        <ele>50.1</ele>
        <time>2026-09-03T09:48:40.571Z</time>
      </trkpt>
      <trkpt lat="49.50184" lon="-1.43519">
        <ele>49.8</ele>
        <time>2026-09-03T09:48:42.543Z</time>
      </trkpt>
      <trkpt lat="49.50184" lon="-1.43523">
        <ele>49.4</ele>
        <time>2026-09-03T09:48:44.536Z</time>
      </trkpt>
      <trkpt lat="49.50183" lon="-1.43524">
        <ele>49.3</ele>
        <time>2026-09-03T09:48:45.536Z</time>
      </trkpt>
      <trkpt lat="49.50183" lon="-1.43525">
        <ele>49.2</ele>
        <time>2026-09-03T09:48:46.536Z</time>
      </trkpt>
      <trkpt lat="49.50182" lon="-1.43526">
        <ele>49.2</ele>
        <time>2026-09-03T09:48:47.536Z</time>
      </trkpt>
      <trkpt lat="49.50182" lon="-1.43528">
        <ele>49</ele>
        <time>2026-09-03T09:48:48.536Z</time>
      </trkpt>
      <trkpt lat="49.50181" lon="-1.4353">
        <ele>49</ele>
        <time>2026-09-03T09:48:49.536Z</time>
      </trkpt>
      <trkpt lat="49.5018" lon="-1.43531">
        <ele>49</ele>
        <time>2026-09-03T09:48:50.536Z</time>
      </trkpt>
      <trkpt lat="49.5018" lon="-1.43533">
        <ele>49</ele>
        <time>2026-09-03T09:48:51.536Z</time>
      </trkpt>
      <trkpt lat="49.50179" lon="-1.43535">
        <ele>49</ele>
        <time>2026-09-03T09:48:52.536Z</time>
      </trkpt>
      <trkpt lat="49.50179" lon="-1.43535">
        <ele>49</ele>
        <time>2026-09-03T09:48:53.536Z</time>
      </trkpt>
      <trkpt lat="49.50179" lon="-1.43535">
        <ele>49</ele>
        <time>2026-09-03T09:48:54.536Z</time>
      </trkpt>
      <trkpt lat="49.50179" lon="-1.43535">
        <ele>49</ele>
        <time>2026-09-03T09:48:55.561Z</time>
      </trkpt>
      <trkpt lat="49.50179" lon="-1.43534">
        <ele>49</ele>
        <time>2026-09-03T09:48:57.584Z</time>
      </trkpt>
      <trkpt lat="49.50179" lon="-1.43534">
        <ele>49</ele>
        <time>2026-09-03T09:48:58.586Z</time>
      </trkpt>
      <trkpt lat="49.50179" lon="-1.43533">
        <ele>49</ele>
        <time>2026-09-03T09:49:00.536Z</time>
      </trkpt>
      <trkpt lat="49.50179" lon="-1.43533">
        <ele>49</ele>
        <time>2026-09-03T09:49:02.536Z</time>
      </trkpt>
      <trkpt lat="49.50179" lon="-1.43533">
        <ele>49</ele>
        <time>2026-09-03T09:49:03.536Z</time>
      </trkpt>
      <trkpt lat="49.50179" lon="-1.43532">
        <ele>49</ele>
        <time>2026-09-03T09:49:04.536Z</time>
      </trkpt>
      <trkpt lat="49.50179" lon="-1.43533">
        <ele>49</ele>
        <time>2026-09-03T09:49:05.536Z</time>
      </trkpt>
      <trkpt lat="49.50179" lon="-1.43533">
        <ele>49</ele>
        <time>2026-09-03T09:49:06.557Z</time>
      </trkpt>
      <trkpt lat="49.50179" lon="-1.43532">
        <ele>49</ele>
        <time>2026-09-03T09:49:08.536Z</time>
      </trkpt>
      <trkpt lat="49.50179" lon="-1.43532">
        <ele>49</ele>
        <time>2026-09-03T09:49:09.536Z</time>
      </trkpt>
      <trkpt lat="49.50179" lon="-1.43532">
        <ele>49</ele>
        <time>2026-09-03T09:49:10.536Z</time>
      </trkpt>
      <trkpt lat="49.50179" lon="-1.43532">
        <ele>49</ele>
        <time>2026-09-03T09:49:11.544Z</time>
      </trkpt>
      <trkpt lat="49.50179" lon="-1.43532">
        <ele>49</ele>
        <time>2026-09-03T09:49:12.545Z</time>
      </trkpt>
      <trkpt lat="49.50179" lon="-1.43532">
        <ele>49</ele>
        <time>2026-09-03T09:49:13.547Z</time>
      </trkpt>
      <trkpt lat="49.50179" lon="-1.43533">
        <ele>49</ele>
        <time>2026-09-03T09:49:14.548Z</time>
      </trkpt>
      <trkpt lat="49.50179" lon="-1.43533">
        <ele>49</ele>
        <time>2026-09-03T09:49:15.586Z</time>
      </trkpt>
      <trkpt lat="49.50179" lon="-1.43533">
        <ele>49</ele>
        <time>2026-09-03T09:49:17.536Z</time>
      </trkpt>
      <trkpt lat="49.50179" lon="-1.43533">
        <ele>49</ele>
        <time>2026-09-03T09:49:18.536Z</time>
      </trkpt>
      <trkpt lat="49.50179" lon="-1.43533">
        <ele>49</ele>
        <time>2026-09-03T09:49:19.536Z</time>
      </trkpt>
      <trkpt lat="49.50179" lon="-1.43533">
        <ele>49</ele>
        <time>2026-09-03T09:49:20.536Z</time>
      </trkpt>
      <trkpt lat="49.50179" lon="-1.43533">
        <ele>49</ele>
        <time>2026-09-03T09:49:21.578Z</time>
      </trkpt>
      <trkpt lat="49.50179" lon="-1.43533">
        <ele>49</ele>
        <time>2026-09-03T09:49:23.536Z</time>
      </trkpt>
      <trkpt lat="49.50178" lon="-1.43534">
        <ele>49</ele>
        <time>2026-09-03T09:49:25.544Z</time>
      </trkpt>
      <trkpt lat="49.50179" lon="-1.43534">
        <ele>49</ele>
        <time>2026-09-03T09:49:26.565Z</time>
      </trkpt>
      <trkpt lat="49.50179" lon="-1.43534">
        <ele>49</ele>
        <time>2026-09-03T09:49:28.568Z</time>
      </trkpt>
      <trkpt lat="49.50179" lon="-1.43535">
        <ele>49</ele>
        <time>2026-09-03T09:49:30.550Z</time>
      </trkpt>
      <trkpt lat="49.50178" lon="-1.43538">
        <ele>49</ele>
        <time>2026-09-03T09:49:32.536Z</time>
      </trkpt>
      <trkpt lat="49.50178" lon="-1.43542">
        <ele>49</ele>
        <time>2026-09-03T09:49:34.536Z</time>
      </trkpt>
      <trkpt lat="49.50178" lon="-1.43544">
        <ele>49</ele>
        <time>2026-09-03T09:49:35.536Z</time>
      </trkpt>
      <trkpt lat="49.50178" lon="-1.43545">
        <ele>49</ele>
        <time>2026-09-03T09:49:36.536Z</time>
      </trkpt>
      <trkpt lat="49.50179" lon="-1.43547">
        <ele>49</ele>
        <time>2026-09-03T09:49:37.536Z</time>
      </trkpt>
      <trkpt lat="49.50179" lon="-1.43549">
        <ele>49</ele>
        <time>2026-09-03T09:49:38.536Z</time>
      </trkpt>
      <trkpt lat="49.50179" lon="-1.4355">
        <ele>49</ele>
        <time>2026-09-03T09:49:39.536Z</time>
      </trkpt>
      <trkpt lat="49.50179" lon="-1.43552">
        <ele>49</ele>
        <time>2026-09-03T09:49:40.536Z</time>
      </trkpt>
      <trkpt lat="49.50179" lon="-1.43554">
        <ele>49</ele>
        <time>2026-09-03T09:49:41.536Z</time>
      </trkpt>
      <trkpt lat="49.50178" lon="-1.43556">
        <ele>49</ele>
        <time>2026-09-03T09:49:42.536Z</time>
      </trkpt>
      <trkpt lat="49.50179" lon="-1.43558">
        <ele>49.1</ele>
        <time>2026-09-03T09:49:43.536Z</time>
      </trkpt>
      <trkpt lat="49.50179" lon="-1.43559">
        <ele>49.1</ele>
        <time>2026-09-03T09:49:44.536Z</time>
      </trkpt>
      <trkpt lat="49.50179" lon="-1.43561">
        <ele>49.2</ele>
        <time>2026-09-03T09:49:45.536Z</time>
      </trkpt>
      <trkpt lat="49.50178" lon="-1.43564">
        <ele>49.3</ele>
        <time>2026-09-03T09:49:46.536Z</time>
      </trkpt>
      <trkpt lat="49.50178" lon="-1.43566">
        <ele>49.4</ele>
        <time>2026-09-03T09:49:47.536Z</time>
      </trkpt>
      <trkpt lat="49.50177" lon="-1.43568">
        <ele>49.4</ele>
        <time>2026-09-03T09:49:48.536Z</time>
      </trkpt>
      <trkpt lat="49.50177" lon="-1.43569">
        <ele>49.5</ele>
        <time>2026-09-03T09:49:49.537Z</time>
      </trkpt>
      <trkpt lat="49.50177" lon="-1.43571">
        <ele>49.6</ele>
        <time>2026-09-03T09:49:50.539Z</time>
      </trkpt>
      <trkpt lat="49.50177" lon="-1.43573">
        <ele>49.6</ele>
        <time>2026-09-03T09:49:51.540Z</time>
      </trkpt>
      <trkpt lat="49.50176" lon="-1.43574">
        <ele>49.7</ele>
        <time>2026-09-03T09:49:52.542Z</time>
      </trkpt>
      <trkpt lat="49.50176" lon="-1.43576">
        <ele>49.7</ele>
        <time>2026-09-03T09:49:53.543Z</time>
      </trkpt>
      <trkpt lat="49.50176" lon="-1.43577">
        <ele>49.8</ele>
        <time>2026-09-03T09:49:54.545Z</time>
      </trkpt>
      <trkpt lat="49.50175" lon="-1.43578">
        <ele>49.8</ele>
        <time>2026-09-03T09:49:55.546Z</time>
      </trkpt>
      <trkpt lat="49.50174" lon="-1.43578">
        <ele>49.8</ele>
        <time>2026-09-03T09:49:56.548Z</time>
      </trkpt>
      <trkpt lat="49.50174" lon="-1.43577">
        <ele>49.8</ele>
        <time>2026-09-03T09:49:57.549Z</time>
      </trkpt>
      <trkpt lat="49.50174" lon="-1.43577">
        <ele>49.8</ele>
        <time>2026-09-03T09:49:58.551Z</time>
      </trkpt>
      <trkpt lat="49.50174" lon="-1.43577">
        <ele>49.8</ele>
        <time>2026-09-03T09:49:59.552Z</time>
      </trkpt>
      <trkpt lat="49.50174" lon="-1.43578">
        <ele>49.8</ele>
        <time>2026-09-03T09:50:00.554Z</time>
      </trkpt>
      <trkpt lat="49.50174" lon="-1.4358">
        <ele>49.9</ele>
        <time>2026-09-03T09:50:01.555Z</time>
      </trkpt>
      <trkpt lat="49.50174" lon="-1.43583">
        <ele>50</ele>
        <time>2026-09-03T09:50:02.557Z</time>
      </trkpt>
      <trkpt lat="49.50173" lon="-1.43585">
        <ele>50.1</ele>
        <time>2026-09-03T09:50:03.558Z</time>
      </trkpt>
      <trkpt lat="49.50174" lon="-1.4359">
        <ele>50.2</ele>
        <time>2026-09-03T09:50:05.551Z</time>
      </trkpt>
      <trkpt lat="49.50174" lon="-1.43592">
        <ele>50.3</ele>
        <time>2026-09-03T09:50:06.562Z</time>
      </trkpt>
      <trkpt lat="49.50174" lon="-1.43594">
        <ele>50.4</ele>
        <time>2026-09-03T09:50:07.564Z</time>
      </trkpt>
      <trkpt lat="49.50175" lon="-1.43597">
        <ele>50.5</ele>
        <time>2026-09-03T09:50:08.565Z</time>
      </trkpt>
      <trkpt lat="49.50175" lon="-1.43601">
        <ele>50.6</ele>
        <time>2026-09-03T09:50:10.558Z</time>
      </trkpt>
      <trkpt lat="49.50177" lon="-1.43604">
        <ele>50.7</ele>
        <time>2026-09-03T09:50:12.536Z</time>
      </trkpt>
      <trkpt lat="49.50177" lon="-1.43606">
        <ele>50.8</ele>
        <time>2026-09-03T09:50:13.536Z</time>
      </trkpt>
      <trkpt lat="49.50177" lon="-1.43607">
        <ele>50.9</ele>
        <time>2026-09-03T09:50:14.536Z</time>
      </trkpt>
      <trkpt lat="49.50177" lon="-1.43609">
        <ele>50.9</ele>
        <time>2026-09-03T09:50:15.536Z</time>
      </trkpt>
      <trkpt lat="49.50178" lon="-1.43611">
        <ele>51</ele>
        <time>2026-09-03T09:50:16.537Z</time>
      </trkpt>
      <trkpt lat="49.50177" lon="-1.43613">
        <ele>51.1</ele>
        <time>2026-09-03T09:50:17.538Z</time>
      </trkpt>
      <trkpt lat="49.50177" lon="-1.43615">
        <ele>51.2</ele>
        <time>2026-09-03T09:50:19.536Z</time>
      </trkpt>
      <trkpt lat="49.50177" lon="-1.43618">
        <ele>51.3</ele>
        <time>2026-09-03T09:50:21.536Z</time>
      </trkpt>
      <trkpt lat="49.50177" lon="-1.4362">
        <ele>51.4</ele>
        <time>2026-09-03T09:50:22.546Z</time>
      </trkpt>
      <trkpt lat="49.50177" lon="-1.43623">
        <ele>51.5</ele>
        <time>2026-09-03T09:50:24.568Z</time>
      </trkpt>
      <trkpt lat="49.50177" lon="-1.43626">
        <ele>51.6</ele>
        <time>2026-09-03T09:50:26.551Z</time>
      </trkpt>
      <trkpt lat="49.50177" lon="-1.43628">
        <ele>51.7</ele>
        <time>2026-09-03T09:50:27.573Z</time>
      </trkpt>
      <trkpt lat="49.50177" lon="-1.43629">
        <ele>51.7</ele>
        <time>2026-09-03T09:50:28.573Z</time>
      </trkpt>
      <trkpt lat="49.50177" lon="-1.4363">
        <ele>51.8</ele>
        <time>2026-09-03T09:50:29.576Z</time>
      </trkpt>
      <trkpt lat="49.50176" lon="-1.43631">
        <ele>51.7</ele>
        <time>2026-09-03T09:50:31.538Z</time>
      </trkpt>
      <trkpt lat="49.50176" lon="-1.43632">
        <ele>51.8</ele>
        <time>2026-09-03T09:50:32.540Z</time>
      </trkpt>
      <trkpt lat="49.50177" lon="-1.43635">
        <ele>52</ele>
        <time>2026-09-03T09:50:33.541Z</time>
      </trkpt>
      <trkpt lat="49.50177" lon="-1.43637">
        <ele>52</ele>
        <time>2026-09-03T09:50:34.543Z</time>
      </trkpt>
      <trkpt lat="49.50177" lon="-1.43639">
        <ele>52.1</ele>
        <time>2026-09-03T09:50:35.544Z</time>
      </trkpt>
      <trkpt lat="49.50177" lon="-1.43643">
        <ele>52.2</ele>
        <time>2026-09-03T09:50:37.477Z</time>
      </trkpt>
      <trkpt lat="49.50177" lon="-1.43645">
        <ele>52.3</ele>
        <time>2026-09-03T09:50:38.498Z</time>
      </trkpt>
      <trkpt lat="49.50178" lon="-1.43648">
        <ele>52.4</ele>
        <time>2026-09-03T09:50:39.536Z</time>
      </trkpt>
      <trkpt lat="49.50179" lon="-1.4365">
        <ele>52.6</ele>
        <time>2026-09-03T09:50:40.536Z</time>
      </trkpt>
      <trkpt lat="49.50179" lon="-1.43653">
        <ele>52.6</ele>
        <time>2026-09-03T09:50:41.536Z</time>
      </trkpt>
      <trkpt lat="49.5018" lon="-1.43655">
        <ele>52.7</ele>
        <time>2026-09-03T09:50:42.536Z</time>
      </trkpt>
      <trkpt lat="49.5018" lon="-1.43659">
        <ele>52.8</ele>
        <time>2026-09-03T09:50:44.517Z</time>
      </trkpt>
      <trkpt lat="49.50181" lon="-1.43661">
        <ele>52.9</ele>
        <time>2026-09-03T09:50:45.558Z</time>
      </trkpt>
      <trkpt lat="49.50182" lon="-1.43663">
        <ele>53</ele>
        <time>2026-09-03T09:50:46.560Z</time>
      </trkpt>
      <trkpt lat="49.50182" lon="-1.43665">
        <ele>53.1</ele>
        <time>2026-09-03T09:50:47.561Z</time>
      </trkpt>
      <trkpt lat="49.50182" lon="-1.43669">
        <ele>53.2</ele>
        <time>2026-09-03T09:50:49.536Z</time>
      </trkpt>
      <trkpt lat="49.50182" lon="-1.43671">
        <ele>53.3</ele>
        <time>2026-09-03T09:50:50.536Z</time>
      </trkpt>
      <trkpt lat="49.50181" lon="-1.43674">
        <ele>53.3</ele>
        <time>2026-09-03T09:50:51.536Z</time>
      </trkpt>
      <trkpt lat="49.50181" lon="-1.43676">
        <ele>53.4</ele>
        <time>2026-09-03T09:50:52.536Z</time>
      </trkpt>
      <trkpt lat="49.5018" lon="-1.4368">
        <ele>53.4</ele>
        <time>2026-09-03T09:50:54.511Z</time>
      </trkpt>
      <trkpt lat="49.5018" lon="-1.43682">
        <ele>53.5</ele>
        <time>2026-09-03T09:50:55.552Z</time>
      </trkpt>
      <trkpt lat="49.5018" lon="-1.43684">
        <ele>53.6</ele>
        <time>2026-09-03T09:50:56.554Z</time>
      </trkpt>
      <trkpt lat="49.5018" lon="-1.43687">
        <ele>53.7</ele>
        <time>2026-09-03T09:50:58.536Z</time>
      </trkpt>
      <trkpt lat="49.50179" lon="-1.4369">
        <ele>53.7</ele>
        <time>2026-09-03T09:51:00.499Z</time>
      </trkpt>
      <trkpt lat="49.50179" lon="-1.43693">
        <ele>53.8</ele>
        <time>2026-09-03T09:51:01.571Z</time>
      </trkpt>
      <trkpt lat="49.50179" lon="-1.43696">
        <ele>53.9</ele>
        <time>2026-09-03T09:51:03.536Z</time>
      </trkpt>
      <trkpt lat="49.50179" lon="-1.43698">
        <ele>53.9</ele>
        <time>2026-09-03T09:51:04.536Z</time>
      </trkpt>
      <trkpt lat="49.50179" lon="-1.437">
        <ele>53.9</ele>
        <time>2026-09-03T09:51:05.547Z</time>
      </trkpt>
      <trkpt lat="49.50179" lon="-1.43702">
        <ele>53.9</ele>
        <time>2026-09-03T09:51:06.568Z</time>
      </trkpt>
      <trkpt lat="49.50179" lon="-1.43704">
        <ele>53.9</ele>
        <time>2026-09-03T09:51:07.569Z</time>
      </trkpt>
      <trkpt lat="49.50179" lon="-1.43706">
        <ele>53.9</ele>
        <time>2026-09-03T09:51:08.571Z</time>
      </trkpt>
      <trkpt lat="49.50179" lon="-1.4371">
        <ele>53.9</ele>
        <time>2026-09-03T09:51:10.473Z</time>
      </trkpt>
      <trkpt lat="49.50179" lon="-1.43712">
        <ele>53.9</ele>
        <time>2026-09-03T09:51:11.535Z</time>
      </trkpt>
      <trkpt lat="49.50179" lon="-1.43713">
        <ele>53.9</ele>
        <time>2026-09-03T09:51:12.536Z</time>
      </trkpt>
      <trkpt lat="49.50179" lon="-1.43715">
        <ele>53.9</ele>
        <time>2026-09-03T09:51:13.558Z</time>
      </trkpt>
      <trkpt lat="49.50179" lon="-1.43717">
        <ele>53.9</ele>
        <time>2026-09-03T09:51:14.559Z</time>
      </trkpt>
      <trkpt lat="49.50179" lon="-1.43721">
        <ele>53.9</ele>
        <time>2026-09-03T09:51:16.552Z</time>
      </trkpt>
      <trkpt lat="49.50179" lon="-1.43723">
        <ele>53.9</ele>
        <time>2026-09-03T09:51:17.563Z</time>
      </trkpt>
      <trkpt lat="49.50178" lon="-1.43726">
        <ele>53.8</ele>
        <time>2026-09-03T09:51:19.536Z</time>
      </trkpt>
      <trkpt lat="49.50178" lon="-1.43728">
        <ele>53.8</ele>
        <time>2026-09-03T09:51:20.536Z</time>
      </trkpt>
      <trkpt lat="49.50179" lon="-1.43729">
        <ele>53.9</ele>
        <time>2026-09-03T09:51:21.536Z</time>
      </trkpt>
      <trkpt lat="49.5018" lon="-1.43731">
        <ele>54</ele>
        <time>2026-09-03T09:51:22.536Z</time>
      </trkpt>
      <trkpt lat="49.50181" lon="-1.43732">
        <ele>54</ele>
        <time>2026-09-03T09:51:23.586Z</time>
      </trkpt>
      <trkpt lat="49.50181" lon="-1.43734">
        <ele>54</ele>
        <time>2026-09-03T09:51:24.586Z</time>
      </trkpt>
      <trkpt lat="49.50182" lon="-1.43737">
        <ele>54.1</ele>
        <time>2026-09-03T09:51:26.536Z</time>
      </trkpt>
      <trkpt lat="49.50183" lon="-1.43739">
        <ele>54.2</ele>
        <time>2026-09-03T09:51:27.577Z</time>
      </trkpt>
      <trkpt lat="49.50181" lon="-1.43742">
        <ele>54</ele>
        <time>2026-09-03T09:51:29.536Z</time>
      </trkpt>
      <trkpt lat="49.50179" lon="-1.43742">
        <ele>53.9</ele>
        <time>2026-09-03T09:51:30.536Z</time>
      </trkpt>
      <trkpt lat="49.50178" lon="-1.43742">
        <ele>53.8</ele>
        <time>2026-09-03T09:51:31.536Z</time>
      </trkpt>
      <trkpt lat="49.50177" lon="-1.43742">
        <ele>53.7</ele>
        <time>2026-09-03T09:51:32.536Z</time>
      </trkpt>
      <trkpt lat="49.50177" lon="-1.43741">
        <ele>53.7</ele>
        <time>2026-09-03T09:51:33.586Z</time>
      </trkpt>
      <trkpt lat="49.50177" lon="-1.43742">
        <ele>53.7</ele>
        <time>2026-09-03T09:51:35.536Z</time>
      </trkpt>
      <trkpt lat="49.50177" lon="-1.43742">
        <ele>53.7</ele>
        <time>2026-09-03T09:51:36.536Z</time>
      </trkpt>
      <trkpt lat="49.50177" lon="-1.43742">
        <ele>53.7</ele>
        <time>2026-09-03T09:51:37.536Z</time>
      </trkpt>
      <trkpt lat="49.50177" lon="-1.43742">
        <ele>53.7</ele>
        <time>2026-09-03T09:51:38.536Z</time>
      </trkpt>
      <trkpt lat="49.50177" lon="-1.43742">
        <ele>53.7</ele>
        <time>2026-09-03T09:51:39.554Z</time>
      </trkpt>
      <trkpt lat="49.50177" lon="-1.43742">
        <ele>53.7</ele>
        <time>2026-09-03T09:51:41.577Z</time>
      </trkpt>
      <trkpt lat="49.50177" lon="-1.43742">
        <ele>53.7</ele>
        <time>2026-09-03T09:51:43.560Z</time>
      </trkpt>
      <trkpt lat="49.50177" lon="-1.43742">
        <ele>53.7</ele>
        <time>2026-09-03T09:51:44.562Z</time>
      </trkpt>
      <trkpt lat="49.50177" lon="-1.43742">
        <ele>53.7</ele>
        <time>2026-09-03T09:51:45.563Z</time>
      </trkpt>
      <trkpt lat="49.50177" lon="-1.43742">
        <ele>53.7</ele>
        <time>2026-09-03T09:51:46.564Z</time>
      </trkpt>
      <trkpt lat="49.50177" lon="-1.43742">
        <ele>53.7</ele>
        <time>2026-09-03T09:51:47.566Z</time>
      </trkpt>
      <trkpt lat="49.50177" lon="-1.43742">
        <ele>53.7</ele>
        <time>2026-09-03T09:51:48.567Z</time>
      </trkpt>
      <trkpt lat="49.50177" lon="-1.43742">
        <ele>53.7</ele>
        <time>2026-09-03T09:51:49.569Z</time>
      </trkpt>
      <trkpt lat="49.50177" lon="-1.43742">
        <ele>53.7</ele>
        <time>2026-09-03T09:51:51.536Z</time>
      </trkpt>
      <trkpt lat="49.50177" lon="-1.43742">
        <ele>53.7</ele>
        <time>2026-09-03T09:51:52.536Z</time>
      </trkpt>
      <trkpt lat="49.50177" lon="-1.43742">
        <ele>53.7</ele>
        <time>2026-09-03T09:51:53.536Z</time>
      </trkpt>
      <trkpt lat="49.50177" lon="-1.43742">
        <ele>53.7</ele>
        <time>2026-09-03T09:51:54.536Z</time>
      </trkpt>
      <trkpt lat="49.50177" lon="-1.43742">
        <ele>53.7</ele>
        <time>2026-09-03T09:51:55.537Z</time>
      </trkpt>
      <trkpt lat="49.50176" lon="-1.43742">
        <ele>53.7</ele>
        <time>2026-09-03T09:51:56.559Z</time>
      </trkpt>
      <trkpt lat="49.50176" lon="-1.43741">
        <ele>53.7</ele>
        <time>2026-09-03T09:51:57.560Z</time>
      </trkpt>
      <trkpt lat="49.50175" lon="-1.43743">
        <ele>53.6</ele>
        <time>2026-09-03T09:51:59.536Z</time>
      </trkpt>
      <trkpt lat="49.50174" lon="-1.43748">
        <ele>53.5</ele>
        <time>2026-09-03T09:52:01.576Z</time>
      </trkpt>
      <trkpt lat="49.50174" lon="-1.43754">
        <ele>53.6</ele>
        <time>2026-09-03T09:52:03.548Z</time>
      </trkpt>
      <trkpt lat="49.50174" lon="-1.43757">
        <ele>53.6</ele>
        <time>2026-09-03T09:52:04.550Z</time>
      </trkpt>
      <trkpt lat="49.50175" lon="-1.43759">
        <ele>53.7</ele>
        <time>2026-09-03T09:52:05.550Z</time>
      </trkpt>
      <trkpt lat="49.50175" lon="-1.43762">
        <ele>53.7</ele>
        <time>2026-09-03T09:52:06.553Z</time>
      </trkpt>
      <trkpt lat="49.50175" lon="-1.43764">
        <ele>53.8</ele>
        <time>2026-09-03T09:52:07.554Z</time>
      </trkpt>
      <trkpt lat="49.50176" lon="-1.43766">
        <ele>53.9</ele>
        <time>2026-09-03T09:52:08.555Z</time>
      </trkpt>
      <trkpt lat="49.50176" lon="-1.43771">
        <ele>53.9</ele>
        <time>2026-09-03T09:52:10.538Z</time>
      </trkpt>
      <trkpt lat="49.50177" lon="-1.43775">
        <ele>54.1</ele>
        <time>2026-09-03T09:52:12.571Z</time>
      </trkpt>
      <trkpt lat="49.50177" lon="-1.43779">
        <ele>54.1</ele>
        <time>2026-09-03T09:52:14.536Z</time>
      </trkpt>
      <trkpt lat="49.50177" lon="-1.43781">
        <ele>54.1</ele>
        <time>2026-09-03T09:52:15.536Z</time>
      </trkpt>
      <trkpt lat="49.50177" lon="-1.43786">
        <ele>54.2</ele>
        <time>2026-09-03T09:52:17.538Z</time>
      </trkpt>
      <trkpt lat="49.50177" lon="-1.43788">
        <ele>54.2</ele>
        <time>2026-09-03T09:52:18.550Z</time>
      </trkpt>
      <trkpt lat="49.50177" lon="-1.4379">
        <ele>54.2</ele>
        <time>2026-09-03T09:52:19.551Z</time>
      </trkpt>
      <trkpt lat="49.50178" lon="-1.43792">
        <ele>54.3</ele>
        <time>2026-09-03T09:52:20.552Z</time>
      </trkpt>
      <trkpt lat="49.50178" lon="-1.43793">
        <ele>54.3</ele>
        <time>2026-09-03T09:52:21.554Z</time>
      </trkpt>
      <trkpt lat="49.50178" lon="-1.43795">
        <ele>54.3</ele>
        <time>2026-09-03T09:52:22.555Z</time>
      </trkpt>
      <trkpt lat="49.50178" lon="-1.43797">
        <ele>54.4</ele>
        <time>2026-09-03T09:52:23.557Z</time>
      </trkpt>
      <trkpt lat="49.50179" lon="-1.43801">
        <ele>54.4</ele>
        <time>2026-09-03T09:52:25.536Z</time>
      </trkpt>
      <trkpt lat="49.50179" lon="-1.43803">
        <ele>54.4</ele>
        <time>2026-09-03T09:52:26.581Z</time>
      </trkpt>
      <trkpt lat="49.50179" lon="-1.43807">
        <ele>54.4</ele>
        <time>2026-09-03T09:52:28.494Z</time>
      </trkpt>
      <trkpt lat="49.50179" lon="-1.43808">
        <ele>54.4</ele>
        <time>2026-09-03T09:52:29.536Z</time>
      </trkpt>
      <trkpt lat="49.50179" lon="-1.4381">
        <ele>54.4</ele>
        <time>2026-09-03T09:52:30.536Z</time>
      </trkpt>
      <trkpt lat="49.50179" lon="-1.43812">
        <ele>54.4</ele>
        <time>2026-09-03T09:52:31.536Z</time>
      </trkpt>
      <trkpt lat="49.50179" lon="-1.43814">
        <ele>54.4</ele>
        <time>2026-09-03T09:52:32.536Z</time>
      </trkpt>
      <trkpt lat="49.50179" lon="-1.43818">
        <ele>54.4</ele>
        <time>2026-09-03T09:52:34.552Z</time>
      </trkpt>
      <trkpt lat="49.50178" lon="-1.4382">
        <ele>54.4</ele>
        <time>2026-09-03T09:52:35.554Z</time>
      </trkpt>
      <trkpt lat="49.50178" lon="-1.43822">
        <ele>54.4</ele>
        <time>2026-09-03T09:52:36.575Z</time>
      </trkpt>
      <trkpt lat="49.50178" lon="-1.43824">
        <ele>54.4</ele>
        <time>2026-09-03T09:52:37.577Z</time>
      </trkpt>
      <trkpt lat="49.50179" lon="-1.43826">
        <ele>54.4</ele>
        <time>2026-09-03T09:52:39.535Z</time>
      </trkpt>
      <trkpt lat="49.5018" lon="-1.43826">
        <ele>54.5</ele>
        <time>2026-09-03T09:52:40.536Z</time>
      </trkpt>
      <trkpt lat="49.5018" lon="-1.43827">
        <ele>54.5</ele>
        <time>2026-09-03T09:52:41.536Z</time>
      </trkpt>
      <trkpt lat="49.5018" lon="-1.43831">
        <ele>54.5</ele>
        <time>2026-09-03T09:52:43.575Z</time>
      </trkpt>
      <trkpt lat="49.5018" lon="-1.43833">
        <ele>54.5</ele>
        <time>2026-09-03T09:52:44.586Z</time>
      </trkpt>
      <trkpt lat="49.50179" lon="-1.43837">
        <ele>54.5</ele>
        <time>2026-09-03T09:52:46.549Z</time>
      </trkpt>
      <trkpt lat="49.50179" lon="-1.43839">
        <ele>54.5</ele>
        <time>2026-09-03T09:52:47.551Z</time>
      </trkpt>
      <trkpt lat="49.50179" lon="-1.43841">
        <ele>54.6</ele>
        <time>2026-09-03T09:52:48.552Z</time>
      </trkpt>
      <trkpt lat="49.50179" lon="-1.43844">
        <ele>54.6</ele>
        <time>2026-09-03T09:52:49.553Z</time>
      </trkpt>
      <trkpt lat="49.50179" lon="-1.43846">
        <ele>54.6</ele>
        <time>2026-09-03T09:52:50.555Z</time>
      </trkpt>
      <trkpt lat="49.50178" lon="-1.43849">
        <ele>54.6</ele>
        <time>2026-09-03T09:52:52.538Z</time>
      </trkpt>
      <trkpt lat="49.50178" lon="-1.43853">
        <ele>54.7</ele>
        <time>2026-09-03T09:52:54.536Z</time>
      </trkpt>
      <trkpt lat="49.50178" lon="-1.43856">
        <ele>54.7</ele>
        <time>2026-09-03T09:52:56.533Z</time>
      </trkpt>
      <trkpt lat="49.50177" lon="-1.43858">
        <ele>54.7</ele>
        <time>2026-09-03T09:52:57.545Z</time>
      </trkpt>
      <trkpt lat="49.50177" lon="-1.4386">
        <ele>54.7</ele>
        <time>2026-09-03T09:52:58.546Z</time>
      </trkpt>
      <trkpt lat="49.50177" lon="-1.43862">
        <ele>54.7</ele>
        <time>2026-09-03T09:52:59.568Z</time>
      </trkpt>
      <trkpt lat="49.50177" lon="-1.43864">
        <ele>54.7</ele>
        <time>2026-09-03T09:53:00.569Z</time>
      </trkpt>
      <trkpt lat="49.50177" lon="-1.43866">
        <ele>54.7</ele>
        <time>2026-09-03T09:53:01.571Z</time>
      </trkpt>
      <trkpt lat="49.50177" lon="-1.43868">
        <ele>54.7</ele>
        <time>2026-09-03T09:53:02.572Z</time>
      </trkpt>
      <trkpt lat="49.50176" lon="-1.43871">
        <ele>54.6</ele>
        <time>2026-09-03T09:53:04.475Z</time>
      </trkpt>
      <trkpt lat="49.50176" lon="-1.43873">
        <ele>54.5</ele>
        <time>2026-09-03T09:53:05.536Z</time>
      </trkpt>
      <trkpt lat="49.50176" lon="-1.43875">
        <ele>54.5</ele>
        <time>2026-09-03T09:53:06.578Z</time>
      </trkpt>
      <trkpt lat="49.50175" lon="-1.43879">
        <ele>54.4</ele>
        <time>2026-09-03T09:53:08.581Z</time>
      </trkpt>
      <trkpt lat="49.50174" lon="-1.43882">
        <ele>54.3</ele>
        <time>2026-09-03T09:53:10.473Z</time>
      </trkpt>
      <trkpt lat="49.50175" lon="-1.43884">
        <ele>54.4</ele>
        <time>2026-09-03T09:53:11.555Z</time>
      </trkpt>
      <trkpt lat="49.50175" lon="-1.43888">
        <ele>54.3</ele>
        <time>2026-09-03T09:53:13.536Z</time>
      </trkpt>
      <trkpt lat="49.50175" lon="-1.4389">
        <ele>54.3</ele>
        <time>2026-09-03T09:53:14.536Z</time>
      </trkpt>
      <trkpt lat="49.50174" lon="-1.43892">
        <ele>54.3</ele>
        <time>2026-09-03T09:53:15.536Z</time>
      </trkpt>
      <trkpt lat="49.50174" lon="-1.43894">
        <ele>54.3</ele>
        <time>2026-09-03T09:53:16.536Z</time>
      </trkpt>
      <trkpt lat="49.50174" lon="-1.43896">
        <ele>54.3</ele>
        <time>2026-09-03T09:53:17.536Z</time>
      </trkpt>
      <trkpt lat="49.50175" lon="-1.43898">
        <ele>54.4</ele>
        <time>2026-09-03T09:53:18.536Z</time>
      </trkpt>
      <trkpt lat="49.50175" lon="-1.439">
        <ele>54.4</ele>
        <time>2026-09-03T09:53:19.536Z</time>
      </trkpt>
      <trkpt lat="49.50175" lon="-1.43902">
        <ele>54.4</ele>
        <time>2026-09-03T09:53:20.538Z</time>
      </trkpt>
      <trkpt lat="49.50175" lon="-1.43905">
        <ele>54.5</ele>
        <time>2026-09-03T09:53:22.535Z</time>
      </trkpt>
      <trkpt lat="49.50175" lon="-1.43907">
        <ele>54.5</ele>
        <time>2026-09-03T09:53:23.536Z</time>
      </trkpt>
      <trkpt lat="49.50175" lon="-1.4391">
        <ele>54.5</ele>
        <time>2026-09-03T09:53:25.535Z</time>
      </trkpt>
      <trkpt lat="49.50175" lon="-1.43912">
        <ele>54.5</ele>
        <time>2026-09-03T09:53:26.546Z</time>
      </trkpt>
      <trkpt lat="49.50175" lon="-1.43914">
        <ele>54.6</ele>
        <time>2026-09-03T09:53:27.548Z</time>
      </trkpt>
      <trkpt lat="49.50174" lon="-1.43916">
        <ele>54.5</ele>
        <time>2026-09-03T09:53:28.549Z</time>
      </trkpt>
      <trkpt lat="49.50174" lon="-1.43918">
        <ele>54.5</ele>
        <time>2026-09-03T09:53:29.550Z</time>
      </trkpt>
      <trkpt lat="49.50174" lon="-1.4392">
        <ele>54.5</ele>
        <time>2026-09-03T09:53:30.552Z</time>
      </trkpt>
      <trkpt lat="49.50174" lon="-1.43922">
        <ele>54.5</ele>
        <time>2026-09-03T09:53:31.553Z</time>
      </trkpt>
      <trkpt lat="49.50174" lon="-1.43924">
        <ele>54.5</ele>
        <time>2026-09-03T09:53:32.555Z</time>
      </trkpt>
      <trkpt lat="49.50173" lon="-1.43928">
        <ele>54.5</ele>
        <time>2026-09-03T09:53:34.517Z</time>
      </trkpt>
      <trkpt lat="49.50173" lon="-1.4393">
        <ele>54.5</ele>
        <time>2026-09-03T09:53:35.536Z</time>
      </trkpt>
      <trkpt lat="49.50173" lon="-1.43932">
        <ele>54.5</ele>
        <time>2026-09-03T09:53:36.536Z</time>
      </trkpt>
      <trkpt lat="49.50172" lon="-1.43934">
        <ele>54.4</ele>
        <time>2026-09-03T09:53:37.536Z</time>
      </trkpt>
      <trkpt lat="49.50172" lon="-1.43938">
        <ele>54.4</ele>
        <time>2026-09-03T09:53:39.536Z</time>
      </trkpt>
      <trkpt lat="49.50172" lon="-1.4394">
        <ele>54.4</ele>
        <time>2026-09-03T09:53:40.536Z</time>
      </trkpt>
      <trkpt lat="49.50172" lon="-1.43942">
        <ele>54.4</ele>
        <time>2026-09-03T09:53:41.536Z</time>
      </trkpt>
      <trkpt lat="49.50171" lon="-1.43944">
        <ele>54.3</ele>
        <time>2026-09-03T09:53:42.536Z</time>
      </trkpt>
      <trkpt lat="49.50171" lon="-1.43946">
        <ele>54.4</ele>
        <time>2026-09-03T09:53:43.536Z</time>
      </trkpt>
      <trkpt lat="49.50171" lon="-1.43948">
        <ele>54.4</ele>
        <time>2026-09-03T09:53:44.536Z</time>
      </trkpt>
      <trkpt lat="49.50171" lon="-1.4395">
        <ele>54.5</ele>
        <time>2026-09-03T09:53:45.553Z</time>
      </trkpt>
      <trkpt lat="49.50171" lon="-1.43952">
        <ele>54.5</ele>
        <time>2026-09-03T09:53:46.555Z</time>
      </trkpt>
      <trkpt lat="49.5017" lon="-1.43955">
        <ele>54.6</ele>
        <time>2026-09-03T09:53:48.536Z</time>
      </trkpt>
      <trkpt lat="49.50171" lon="-1.43957">
        <ele>54.7</ele>
        <time>2026-09-03T09:53:49.536Z</time>
      </trkpt>
      <trkpt lat="49.50171" lon="-1.43961">
        <ele>54.8</ele>
        <time>2026-09-03T09:53:51.492Z</time>
      </trkpt>
      <trkpt lat="49.5017" lon="-1.43963">
        <ele>54.8</ele>
        <time>2026-09-03T09:53:52.573Z</time>
      </trkpt>
      <trkpt lat="49.5017" lon="-1.43967">
        <ele>55</ele>
        <time>2026-09-03T09:53:54.546Z</time>
      </trkpt>
      <trkpt lat="49.5017" lon="-1.43969">
        <ele>55</ele>
        <time>2026-09-03T09:53:55.547Z</time>
      </trkpt>
      <trkpt lat="49.50171" lon="-1.43971">
        <ele>55.1</ele>
        <time>2026-09-03T09:53:56.549Z</time>
      </trkpt>
      <trkpt lat="49.50172" lon="-1.43974">
        <ele>55.2</ele>
        <time>2026-09-03T09:53:58.472Z</time>
      </trkpt>
      <trkpt lat="49.50172" lon="-1.43976">
        <ele>55.2</ele>
        <time>2026-09-03T09:53:59.493Z</time>
      </trkpt>
      <trkpt lat="49.50172" lon="-1.43977">
        <ele>55.2</ele>
        <time>2026-09-03T09:54:00.494Z</time>
      </trkpt>
      <trkpt lat="49.50172" lon="-1.4398">
        <ele>55.2</ele>
        <time>2026-09-03T09:54:01.556Z</time>
      </trkpt>
      <trkpt lat="49.50172" lon="-1.43984">
        <ele>55.2</ele>
        <time>2026-09-03T09:54:03.539Z</time>
      </trkpt>
      <trkpt lat="49.50172" lon="-1.43986">
        <ele>55.2</ele>
        <time>2026-09-03T09:54:04.540Z</time>
      </trkpt>
      <trkpt lat="49.50171" lon="-1.43987">
        <ele>55.2</ele>
        <time>2026-09-03T09:54:05.542Z</time>
      </trkpt>
      <trkpt lat="49.50171" lon="-1.43991">
        <ele>55.2</ele>
        <time>2026-09-03T09:54:07.534Z</time>
      </trkpt>
      <trkpt lat="49.50171" lon="-1.43993">
        <ele>55.2</ele>
        <time>2026-09-03T09:54:08.576Z</time>
      </trkpt>
      <trkpt lat="49.50171" lon="-1.43996">
        <ele>55.2</ele>
        <time>2026-09-03T09:54:10.549Z</time>
      </trkpt>
      <trkpt lat="49.50171" lon="-1.43998">
        <ele>55.2</ele>
        <time>2026-09-03T09:54:11.550Z</time>
      </trkpt>
      <trkpt lat="49.50171" lon="-1.44">
        <ele>55.2</ele>
        <time>2026-09-03T09:54:12.552Z</time>
      </trkpt>
      <trkpt lat="49.50171" lon="-1.44002">
        <ele>55.2</ele>
        <time>2026-09-03T09:54:13.553Z</time>
      </trkpt>
      <trkpt lat="49.50171" lon="-1.44004">
        <ele>55.2</ele>
        <time>2026-09-03T09:54:14.554Z</time>
      </trkpt>
      <trkpt lat="49.50171" lon="-1.44006">
        <ele>55.2</ele>
        <time>2026-09-03T09:54:15.576Z</time>
      </trkpt>
      <trkpt lat="49.50171" lon="-1.44009">
        <ele>55.2</ele>
        <time>2026-09-03T09:54:17.438Z</time>
      </trkpt>
      <trkpt lat="49.50171" lon="-1.44011">
        <ele>55.2</ele>
        <time>2026-09-03T09:54:18.480Z</time>
      </trkpt>
      <trkpt lat="49.50172" lon="-1.44013">
        <ele>55.2</ele>
        <time>2026-09-03T09:54:19.491Z</time>
      </trkpt>
      <trkpt lat="49.50172" lon="-1.44015">
        <ele>55.2</ele>
        <time>2026-09-03T09:54:20.563Z</time>
      </trkpt>
      <trkpt lat="49.50172" lon="-1.44016">
        <ele>55.2</ele>
        <time>2026-09-03T09:54:21.564Z</time>
      </trkpt>
      <trkpt lat="49.50172" lon="-1.4402">
        <ele>55.2</ele>
        <time>2026-09-03T09:54:23.567Z</time>
      </trkpt>
      <trkpt lat="49.50172" lon="-1.44022">
        <ele>55.2</ele>
        <time>2026-09-03T09:54:24.569Z</time>
      </trkpt>
      <trkpt lat="49.50172" lon="-1.44026">
        <ele>55.2</ele>
        <time>2026-09-03T09:54:26.571Z</time>
      </trkpt>
      <trkpt lat="49.50172" lon="-1.44029">
        <ele>55.2</ele>
        <time>2026-09-03T09:54:28.536Z</time>
      </trkpt>
      <trkpt lat="49.50171" lon="-1.44031">
        <ele>55.2</ele>
        <time>2026-09-03T09:54:29.536Z</time>
      </trkpt>
      <trkpt lat="49.50172" lon="-1.44033">
        <ele>55.2</ele>
        <time>2026-09-03T09:54:30.536Z</time>
      </trkpt>
      <trkpt lat="49.50172" lon="-1.44035">
        <ele>55.2</ele>
        <time>2026-09-03T09:54:31.536Z</time>
      </trkpt>
      <trkpt lat="49.50172" lon="-1.44037">
        <ele>55.2</ele>
        <time>2026-09-03T09:54:32.536Z</time>
      </trkpt>
      <trkpt lat="49.50172" lon="-1.44039">
        <ele>55.2</ele>
        <time>2026-09-03T09:54:33.536Z</time>
      </trkpt>
      <trkpt lat="49.50172" lon="-1.44041">
        <ele>55.2</ele>
        <time>2026-09-03T09:54:34.536Z</time>
      </trkpt>
      <trkpt lat="49.50171" lon="-1.44044">
        <ele>55.2</ele>
        <time>2026-09-03T09:54:36.456Z</time>
      </trkpt>
      <trkpt lat="49.50171" lon="-1.44046">
        <ele>55.2</ele>
        <time>2026-09-03T09:54:37.517Z</time>
      </trkpt>
      <trkpt lat="49.50171" lon="-1.44048">
        <ele>55.2</ele>
        <time>2026-09-03T09:54:38.579Z</time>
      </trkpt>
      <trkpt lat="49.50171" lon="-1.44051">
        <ele>55.2</ele>
        <time>2026-09-03T09:54:40.536Z</time>
      </trkpt>
      <trkpt lat="49.50171" lon="-1.44054">
        <ele>55.2</ele>
        <time>2026-09-03T09:54:42.534Z</time>
      </trkpt>
      <trkpt lat="49.50171" lon="-1.44056">
        <ele>55.2</ele>
        <time>2026-09-03T09:54:43.556Z</time>
      </trkpt>
      <trkpt lat="49.50171" lon="-1.4406">
        <ele>55.2</ele>
        <time>2026-09-03T09:54:45.536Z</time>
      </trkpt>
      <trkpt lat="49.50171" lon="-1.44062">
        <ele>55.2</ele>
        <time>2026-09-03T09:54:46.536Z</time>
      </trkpt>
      <trkpt lat="49.50171" lon="-1.44064">
        <ele>55.2</ele>
        <time>2026-09-03T09:54:47.536Z</time>
      </trkpt>
      <trkpt lat="49.50172" lon="-1.44066">
        <ele>55.2</ele>
        <time>2026-09-03T09:54:48.543Z</time>
      </trkpt>
      <trkpt lat="49.50172" lon="-1.44068">
        <ele>55.2</ele>
        <time>2026-09-03T09:54:49.544Z</time>
      </trkpt>
      <trkpt lat="49.50172" lon="-1.4407">
        <ele>55.2</ele>
        <time>2026-09-03T09:54:50.546Z</time>
      </trkpt>
      <trkpt lat="49.50172" lon="-1.44072">
        <ele>55.2</ele>
        <time>2026-09-03T09:54:51.567Z</time>
      </trkpt>
      <trkpt lat="49.50172" lon="-1.44076">
        <ele>55.2</ele>
        <time>2026-09-03T09:54:53.580Z</time>
      </trkpt>
      <trkpt lat="49.50172" lon="-1.4408">
        <ele>55.2</ele>
        <time>2026-09-03T09:54:55.536Z</time>
      </trkpt>
      <trkpt lat="49.50172" lon="-1.44084">
        <ele>55.2</ele>
        <time>2026-09-03T09:54:57.576Z</time>
      </trkpt>
      <trkpt lat="49.50172" lon="-1.44088">
        <ele>55.2</ele>
        <time>2026-09-03T09:54:59.558Z</time>
      </trkpt>
      <trkpt lat="49.50172" lon="-1.4409">
        <ele>55.2</ele>
        <time>2026-09-03T09:55:00.560Z</time>
      </trkpt>
      <trkpt lat="49.50172" lon="-1.44092">
        <ele>55.2</ele>
        <time>2026-09-03T09:55:01.561Z</time>
      </trkpt>
      <trkpt lat="49.50172" lon="-1.44094">
        <ele>55.2</ele>
        <time>2026-09-03T09:55:02.563Z</time>
      </trkpt>
      <trkpt lat="49.50172" lon="-1.44095">
        <ele>55.2</ele>
        <time>2026-09-03T09:55:03.564Z</time>
      </trkpt>
      <trkpt lat="49.50172" lon="-1.44099">
        <ele>55.2</ele>
        <time>2026-09-03T09:55:05.497Z</time>
      </trkpt>
      <trkpt lat="49.50171" lon="-1.44101">
        <ele>55.2</ele>
        <time>2026-09-03T09:55:06.558Z</time>
      </trkpt>
      <trkpt lat="49.50171" lon="-1.44102">
        <ele>55.2</ele>
        <time>2026-09-03T09:55:07.570Z</time>
      </trkpt>
      <trkpt lat="49.50171" lon="-1.44105">
        <ele>55.2</ele>
        <time>2026-09-03T09:55:09.573Z</time>
      </trkpt>
      <trkpt lat="49.5017" lon="-1.44108">
        <ele>55.1</ele>
        <time>2026-09-03T09:55:11.576Z</time>
      </trkpt>
      <trkpt lat="49.5017" lon="-1.44112">
        <ele>55.2</ele>
        <time>2026-09-03T09:55:13.536Z</time>
      </trkpt>
      <trkpt lat="49.5017" lon="-1.44113">
        <ele>55.2</ele>
        <time>2026-09-03T09:55:14.536Z</time>
      </trkpt>
      <trkpt lat="49.5017" lon="-1.44115">
        <ele>55.3</ele>
        <time>2026-09-03T09:55:15.536Z</time>
      </trkpt>
      <trkpt lat="49.5017" lon="-1.44117">
        <ele>55.3</ele>
        <time>2026-09-03T09:55:16.536Z</time>
      </trkpt>
      <trkpt lat="49.5017" lon="-1.44119">
        <ele>55.4</ele>
        <time>2026-09-03T09:55:17.536Z</time>
      </trkpt>
      <trkpt lat="49.5017" lon="-1.44121">
        <ele>55.5</ele>
        <time>2026-09-03T09:55:18.536Z</time>
      </trkpt>
      <trkpt lat="49.50169" lon="-1.44123">
        <ele>55.5</ele>
        <time>2026-09-03T09:55:19.536Z</time>
      </trkpt>
      <trkpt lat="49.50169" lon="-1.44126">
        <ele>55.6</ele>
        <time>2026-09-03T09:55:21.540Z</time>
      </trkpt>
      <trkpt lat="49.50168" lon="-1.4413">
        <ele>55.7</ele>
        <time>2026-09-03T09:55:23.536Z</time>
      </trkpt>
      <trkpt lat="49.50168" lon="-1.44131">
        <ele>55.8</ele>
        <time>2026-09-03T09:55:24.536Z</time>
      </trkpt>
      <trkpt lat="49.50167" lon="-1.44135">
        <ele>55.9</ele>
        <time>2026-09-03T09:55:26.536Z</time>
      </trkpt>
      <trkpt lat="49.50167" lon="-1.44137">
        <ele>55.9</ele>
        <time>2026-09-03T09:55:27.536Z</time>
      </trkpt>
      <trkpt lat="49.50166" lon="-1.44139">
        <ele>56</ele>
        <time>2026-09-03T09:55:28.536Z</time>
      </trkpt>
      <trkpt lat="49.50166" lon="-1.44141">
        <ele>55.9</ele>
        <time>2026-09-03T09:55:29.536Z</time>
      </trkpt>
      <trkpt lat="49.50166" lon="-1.44143">
        <ele>55.8</ele>
        <time>2026-09-03T09:55:30.543Z</time>
      </trkpt>
      <trkpt lat="49.50166" lon="-1.44145">
        <ele>55.8</ele>
        <time>2026-09-03T09:55:31.544Z</time>
      </trkpt>
      <trkpt lat="49.50166" lon="-1.44148">
        <ele>55.7</ele>
        <time>2026-09-03T09:55:33.477Z</time>
      </trkpt>
      <trkpt lat="49.50166" lon="-1.4415">
        <ele>55.6</ele>
        <time>2026-09-03T09:55:34.558Z</time>
      </trkpt>
      <trkpt lat="49.50166" lon="-1.44152">
        <ele>55.5</ele>
        <time>2026-09-03T09:55:35.570Z</time>
      </trkpt>
      <trkpt lat="49.50166" lon="-1.44154">
        <ele>55.5</ele>
        <time>2026-09-03T09:55:36.571Z</time>
      </trkpt>
      <trkpt lat="49.50166" lon="-1.44155">
        <ele>55.4</ele>
        <time>2026-09-03T09:55:37.573Z</time>
      </trkpt>
      <trkpt lat="49.50166" lon="-1.44159">
        <ele>55.3</ele>
        <time>2026-09-03T09:55:39.536Z</time>
      </trkpt>
      <trkpt lat="49.50166" lon="-1.4416">
        <ele>55.3</ele>
        <time>2026-09-03T09:55:40.536Z</time>
      </trkpt>
      <trkpt lat="49.50166" lon="-1.44163">
        <ele>55.1</ele>
        <time>2026-09-03T09:55:41.538Z</time>
      </trkpt>
      <trkpt lat="49.50166" lon="-1.44164">
        <ele>55.1</ele>
        <time>2026-09-03T09:55:42.540Z</time>
      </trkpt>
      <trkpt lat="49.50166" lon="-1.44166">
        <ele>55</ele>
        <time>2026-09-03T09:55:43.541Z</time>
      </trkpt>
      <trkpt lat="49.50166" lon="-1.44168">
        <ele>55</ele>
        <time>2026-09-03T09:55:44.543Z</time>
      </trkpt>
      <trkpt lat="49.50166" lon="-1.44169">
        <ele>55</ele>
        <time>2026-09-03T09:55:45.544Z</time>
      </trkpt>
      <trkpt lat="49.50166" lon="-1.44171">
        <ele>55</ele>
        <time>2026-09-03T09:55:46.565Z</time>
      </trkpt>
      <trkpt lat="49.50167" lon="-1.44174">
        <ele>55</ele>
        <time>2026-09-03T09:55:48.458Z</time>
      </trkpt>
      <trkpt lat="49.50167" lon="-1.44176">
        <ele>55</ele>
        <time>2026-09-03T09:55:49.500Z</time>
      </trkpt>
      <trkpt lat="49.50167" lon="-1.44178">
        <ele>55</ele>
        <time>2026-09-03T09:55:50.571Z</time>
      </trkpt>
      <trkpt lat="49.50167" lon="-1.44182">
        <ele>55</ele>
        <time>2026-09-03T09:55:52.536Z</time>
      </trkpt>
      <trkpt lat="49.50168" lon="-1.44184">
        <ele>55.1</ele>
        <time>2026-09-03T09:55:53.536Z</time>
      </trkpt>
      <trkpt lat="49.50168" lon="-1.44186">
        <ele>55.1</ele>
        <time>2026-09-03T09:55:54.537Z</time>
      </trkpt>
      <trkpt lat="49.50168" lon="-1.44187">
        <ele>55.1</ele>
        <time>2026-09-03T09:55:55.558Z</time>
      </trkpt>
      <trkpt lat="49.50168" lon="-1.44189">
        <ele>55.1</ele>
        <time>2026-09-03T09:55:56.560Z</time>
      </trkpt>
      <trkpt lat="49.50168" lon="-1.44191">
        <ele>55.1</ele>
        <time>2026-09-03T09:55:57.561Z</time>
      </trkpt>
      <trkpt lat="49.50168" lon="-1.44195">
        <ele>55.1</ele>
        <time>2026-09-03T09:55:59.573Z</time>
      </trkpt>
      <trkpt lat="49.50168" lon="-1.44198">
        <ele>55.2</ele>
        <time>2026-09-03T09:56:01.536Z</time>
      </trkpt>
      <trkpt lat="49.50168" lon="-1.44202">
        <ele>55.4</ele>
        <time>2026-09-03T09:56:03.520Z</time>
      </trkpt>
      <trkpt lat="49.50168" lon="-1.44203">
        <ele>55.4</ele>
        <time>2026-09-03T09:56:04.536Z</time>
      </trkpt>
      <trkpt lat="49.50168" lon="-1.44205">
        <ele>55.5</ele>
        <time>2026-09-03T09:56:05.536Z</time>
      </trkpt>
      <trkpt lat="49.50168" lon="-1.44207">
        <ele>55.5</ele>
        <time>2026-09-03T09:56:06.536Z</time>
      </trkpt>
      <trkpt lat="49.50168" lon="-1.44211">
        <ele>55.7</ele>
        <time>2026-09-03T09:56:08.536Z</time>
      </trkpt>
      <trkpt lat="49.50167" lon="-1.44213">
        <ele>55.7</ele>
        <time>2026-09-03T09:56:09.538Z</time>
      </trkpt>
      <trkpt lat="49.50167" lon="-1.44217">
        <ele>55.8</ele>
        <time>2026-09-03T09:56:11.536Z</time>
      </trkpt>
      <trkpt lat="49.50167" lon="-1.44219">
        <ele>55.9</ele>
        <time>2026-09-03T09:56:12.536Z</time>
      </trkpt>
      <trkpt lat="49.50167" lon="-1.44221">
        <ele>56</ele>
        <time>2026-09-03T09:56:13.574Z</time>
      </trkpt>
      <trkpt lat="49.50167" lon="-1.44224">
        <ele>56.1</ele>
        <time>2026-09-03T09:56:15.547Z</time>
      </trkpt>
      <trkpt lat="49.50167" lon="-1.44226">
        <ele>56.1</ele>
        <time>2026-09-03T09:56:16.548Z</time>
      </trkpt>
      <trkpt lat="49.50167" lon="-1.44228">
        <ele>56.2</ele>
        <time>2026-09-03T09:56:17.550Z</time>
      </trkpt>
      <trkpt lat="49.50168" lon="-1.44232">
        <ele>56.4</ele>
        <time>2026-09-03T09:56:19.552Z</time>
      </trkpt>
      <trkpt lat="49.50168" lon="-1.44234">
        <ele>56.5</ele>
        <time>2026-09-03T09:56:20.554Z</time>
      </trkpt>
      <trkpt lat="49.50169" lon="-1.44235">
        <ele>56.5</ele>
        <time>2026-09-03T09:56:21.555Z</time>
      </trkpt>
      <trkpt lat="49.50169" lon="-1.44237">
        <ele>56.6</ele>
        <time>2026-09-03T09:56:22.557Z</time>
      </trkpt>
      <trkpt lat="49.50169" lon="-1.44239">
        <ele>56.7</ele>
        <time>2026-09-03T09:56:23.558Z</time>
      </trkpt>
      <trkpt lat="49.50169" lon="-1.44241">
        <ele>56.8</ele>
        <time>2026-09-03T09:56:24.560Z</time>
      </trkpt>
      <trkpt lat="49.5017" lon="-1.44243">
        <ele>56.9</ele>
        <time>2026-09-03T09:56:25.561Z</time>
      </trkpt>
      <trkpt lat="49.5017" lon="-1.44247">
        <ele>57</ele>
        <time>2026-09-03T09:56:27.574Z</time>
      </trkpt>
      <trkpt lat="49.5017" lon="-1.44248">
        <ele>57</ele>
        <time>2026-09-03T09:56:28.575Z</time>
      </trkpt>
      <trkpt lat="49.50171" lon="-1.44252">
        <ele>57.2</ele>
        <time>2026-09-03T09:56:30.568Z</time>
      </trkpt>
      <trkpt lat="49.50171" lon="-1.44256">
        <ele>57.2</ele>
        <time>2026-09-03T09:56:32.551Z</time>
      </trkpt>
      <trkpt lat="49.50171" lon="-1.44258">
        <ele>57.2</ele>
        <time>2026-09-03T09:56:33.572Z</time>
      </trkpt>
      <trkpt lat="49.50171" lon="-1.4426">
        <ele>57.2</ele>
        <time>2026-09-03T09:56:34.574Z</time>
      </trkpt>
      <trkpt lat="49.50171" lon="-1.44263">
        <ele>57.2</ele>
        <time>2026-09-03T09:56:36.536Z</time>
      </trkpt>
      <trkpt lat="49.50171" lon="-1.44265">
        <ele>57.2</ele>
        <time>2026-09-03T09:56:37.536Z</time>
      </trkpt>
      <trkpt lat="49.50172" lon="-1.44267">
        <ele>57.2</ele>
        <time>2026-09-03T09:56:38.536Z</time>
      </trkpt>
      <trkpt lat="49.50172" lon="-1.44269">
        <ele>57.2</ele>
        <time>2026-09-03T09:56:39.536Z</time>
      </trkpt>
      <trkpt lat="49.50173" lon="-1.44271">
        <ele>57.2</ele>
        <time>2026-09-03T09:56:40.536Z</time>
      </trkpt>
      <trkpt lat="49.50174" lon="-1.44274">
        <ele>57.3</ele>
        <time>2026-09-03T09:56:42.575Z</time>
      </trkpt>
      <trkpt lat="49.50174" lon="-1.44278">
        <ele>57.3</ele>
        <time>2026-09-03T09:56:44.458Z</time>
      </trkpt>
      <trkpt lat="49.50174" lon="-1.4428">
        <ele>57.3</ele>
        <time>2026-09-03T09:56:45.550Z</time>
      </trkpt>
      <trkpt lat="49.50174" lon="-1.44282">
        <ele>57.3</ele>
        <time>2026-09-03T09:56:46.551Z</time>
      </trkpt>
      <trkpt lat="49.50174" lon="-1.44284">
        <ele>57.3</ele>
        <time>2026-09-03T09:56:47.552Z</time>
      </trkpt>
      <trkpt lat="49.50174" lon="-1.44286">
        <ele>57.3</ele>
        <time>2026-09-03T09:56:48.554Z</time>
      </trkpt>
      <trkpt lat="49.50174" lon="-1.44287">
        <ele>57.3</ele>
        <time>2026-09-03T09:56:49.575Z</time>
      </trkpt>
      <trkpt lat="49.50174" lon="-1.44291">
        <ele>57.3</ele>
        <time>2026-09-03T09:56:51.536Z</time>
      </trkpt>
      <trkpt lat="49.50174" lon="-1.44295">
        <ele>57.3</ele>
        <time>2026-09-03T09:56:53.491Z</time>
      </trkpt>
      <trkpt lat="49.50174" lon="-1.44296">
        <ele>57.3</ele>
        <time>2026-09-03T09:56:54.492Z</time>
      </trkpt>
      <trkpt lat="49.50174" lon="-1.44298">
        <ele>57.3</ele>
        <time>2026-09-03T09:56:55.534Z</time>
      </trkpt>
      <trkpt lat="49.50174" lon="-1.443">
        <ele>57.3</ele>
        <time>2026-09-03T09:56:56.536Z</time>
      </trkpt>
      <trkpt lat="49.50174" lon="-1.44302">
        <ele>57.3</ele>
        <time>2026-09-03T09:56:57.536Z</time>
      </trkpt>
      <trkpt lat="49.50174" lon="-1.44304">
        <ele>57.3</ele>
        <time>2026-09-03T09:56:58.548Z</time>
      </trkpt>
      <trkpt lat="49.50174" lon="-1.44306">
        <ele>57.3</ele>
        <time>2026-09-03T09:56:59.549Z</time>
      </trkpt>
      <trkpt lat="49.50173" lon="-1.44307">
        <ele>57.2</ele>
        <time>2026-09-03T09:57:00.551Z</time>
      </trkpt>
      <trkpt lat="49.50173" lon="-1.44311">
        <ele>57.2</ele>
        <time>2026-09-03T09:57:02.536Z</time>
      </trkpt>
      <trkpt lat="49.50173" lon="-1.44313">
        <ele>57.2</ele>
        <time>2026-09-03T09:57:03.536Z</time>
      </trkpt>
      <trkpt lat="49.50174" lon="-1.44315">
        <ele>57.3</ele>
        <time>2026-09-03T09:57:04.537Z</time>
      </trkpt>
      <trkpt lat="49.50174" lon="-1.44316">
        <ele>57.3</ele>
        <time>2026-09-03T09:57:05.558Z</time>
      </trkpt>
      <trkpt lat="49.50174" lon="-1.44318">
        <ele>57.3</ele>
        <time>2026-09-03T09:57:06.560Z</time>
      </trkpt>
      <trkpt lat="49.50174" lon="-1.4432">
        <ele>57.3</ele>
        <time>2026-09-03T09:57:07.561Z</time>
      </trkpt>
      <trkpt lat="49.50173" lon="-1.44324">
        <ele>57.2</ele>
        <time>2026-09-03T09:57:09.564Z</time>
      </trkpt>
      <trkpt lat="49.50173" lon="-1.44326">
        <ele>57.2</ele>
        <time>2026-09-03T09:57:10.565Z</time>
      </trkpt>
      <trkpt lat="49.50173" lon="-1.4433">
        <ele>57.2</ele>
        <time>2026-09-03T09:57:12.458Z</time>
      </trkpt>
      <trkpt lat="49.50173" lon="-1.44332">
        <ele>57.2</ele>
        <time>2026-09-03T09:57:13.519Z</time>
      </trkpt>
      <trkpt lat="49.50173" lon="-1.44333">
        <ele>57.2</ele>
        <time>2026-09-03T09:57:14.536Z</time>
      </trkpt>
      <trkpt lat="49.50173" lon="-1.44335">
        <ele>57.2</ele>
        <time>2026-09-03T09:57:15.536Z</time>
      </trkpt>
      <trkpt lat="49.50172" lon="-1.44337">
        <ele>57.2</ele>
        <time>2026-09-03T09:57:16.536Z</time>
      </trkpt>
      <trkpt lat="49.50172" lon="-1.44339">
        <ele>57.2</ele>
        <time>2026-09-03T09:57:17.536Z</time>
      </trkpt>
      <trkpt lat="49.50172" lon="-1.44341">
        <ele>57.1</ele>
        <time>2026-09-03T09:57:18.557Z</time>
      </trkpt>
      <trkpt lat="49.50172" lon="-1.44343">
        <ele>57.1</ele>
        <time>2026-09-03T09:57:19.558Z</time>
      </trkpt>
      <trkpt lat="49.50172" lon="-1.44345">
        <ele>57.1</ele>
        <time>2026-09-03T09:57:20.560Z</time>
      </trkpt>
      <trkpt lat="49.50172" lon="-1.44346">
        <ele>57.1</ele>
        <time>2026-09-03T09:57:21.561Z</time>
      </trkpt>
      <trkpt lat="49.50172" lon="-1.4435">
        <ele>57.1</ele>
        <time>2026-09-03T09:57:23.536Z</time>
      </trkpt>
      <trkpt lat="49.50172" lon="-1.44351">
        <ele>57.1</ele>
        <time>2026-09-03T09:57:24.536Z</time>
      </trkpt>
      <trkpt lat="49.50172" lon="-1.44352">
        <ele>57.1</ele>
        <time>2026-09-03T09:57:25.536Z</time>
      </trkpt>
      <trkpt lat="49.50173" lon="-1.44353">
        <ele>57.1</ele>
        <time>2026-09-03T09:57:26.536Z</time>
      </trkpt>
      <trkpt lat="49.50172" lon="-1.44357">
        <ele>57</ele>
        <time>2026-09-03T09:57:28.431Z</time>
      </trkpt>
      <trkpt lat="49.50172" lon="-1.44359">
        <ele>57</ele>
        <time>2026-09-03T09:57:29.536Z</time>
      </trkpt>
      <trkpt lat="49.50171" lon="-1.4436">
        <ele>57</ele>
        <time>2026-09-03T09:57:30.536Z</time>
      </trkpt>
      <trkpt lat="49.50171" lon="-1.44362">
        <ele>57</ele>
        <time>2026-09-03T09:57:31.555Z</time>
      </trkpt>
      <trkpt lat="49.50171" lon="-1.44364">
        <ele>56.9</ele>
        <time>2026-09-03T09:57:32.557Z</time>
      </trkpt>
      <trkpt lat="49.50172" lon="-1.44367">
        <ele>56.8</ele>
        <time>2026-09-03T09:57:34.540Z</time>
      </trkpt>
      <trkpt lat="49.50172" lon="-1.4437">
        <ele>56.7</ele>
        <time>2026-09-03T09:57:36.543Z</time>
      </trkpt>
      <trkpt lat="49.50172" lon="-1.44372">
        <ele>56.7</ele>
        <time>2026-09-03T09:57:37.544Z</time>
      </trkpt>
      <trkpt lat="49.50172" lon="-1.44374">
        <ele>56.6</ele>
        <time>2026-09-03T09:57:38.586Z</time>
      </trkpt>
      <trkpt lat="49.50172" lon="-1.44377">
        <ele>56.5</ele>
        <time>2026-09-03T09:57:40.479Z</time>
      </trkpt>
      <trkpt lat="49.50172" lon="-1.44379">
        <ele>56.5</ele>
        <time>2026-09-03T09:57:41.570Z</time>
      </trkpt>
      <trkpt lat="49.50172" lon="-1.44383">
        <ele>56.4</ele>
        <time>2026-09-03T09:57:43.536Z</time>
      </trkpt>
      <trkpt lat="49.50172" lon="-1.44385">
        <ele>56.3</ele>
        <time>2026-09-03T09:57:44.536Z</time>
      </trkpt>
      <trkpt lat="49.50172" lon="-1.44387">
        <ele>56.2</ele>
        <time>2026-09-03T09:57:45.536Z</time>
      </trkpt>
      <trkpt lat="49.50171" lon="-1.4439">
        <ele>56.1</ele>
        <time>2026-09-03T09:57:47.559Z</time>
      </trkpt>
      <trkpt lat="49.50171" lon="-1.44392">
        <ele>56</ele>
        <time>2026-09-03T09:57:48.561Z</time>
      </trkpt>
      <trkpt lat="49.50171" lon="-1.44394">
        <ele>56</ele>
        <time>2026-09-03T09:57:49.562Z</time>
      </trkpt>
      <trkpt lat="49.5017" lon="-1.44398">
        <ele>55.8</ele>
        <time>2026-09-03T09:57:51.536Z</time>
      </trkpt>
      <trkpt lat="49.50169" lon="-1.44401">
        <ele>55.6</ele>
        <time>2026-09-03T09:57:53.518Z</time>
      </trkpt>
      <trkpt lat="49.50169" lon="-1.44404">
        <ele>55.5</ele>
        <time>2026-09-03T09:57:54.536Z</time>
      </trkpt>
      <trkpt lat="49.50169" lon="-1.44406">
        <ele>55.5</ele>
        <time>2026-09-03T09:57:55.571Z</time>
      </trkpt>
      <trkpt lat="49.50169" lon="-1.44408">
        <ele>55.4</ele>
        <time>2026-09-03T09:57:56.573Z</time>
      </trkpt>
      <trkpt lat="49.50168" lon="-1.44409">
        <ele>55.3</ele>
        <time>2026-09-03T09:57:57.574Z</time>
      </trkpt>
      <trkpt lat="49.50168" lon="-1.44411">
        <ele>55.3</ele>
        <time>2026-09-03T09:57:58.576Z</time>
      </trkpt>
      <trkpt lat="49.50168" lon="-1.44413">
        <ele>55.2</ele>
        <time>2026-09-03T09:58:00.536Z</time>
      </trkpt>
      <trkpt lat="49.50168" lon="-1.44415">
        <ele>55.1</ele>
        <time>2026-09-03T09:58:01.536Z</time>
      </trkpt>
      <trkpt lat="49.50168" lon="-1.44416">
        <ele>55.1</ele>
        <time>2026-09-03T09:58:02.582Z</time>
      </trkpt>
      <trkpt lat="49.50168" lon="-1.44419">
        <ele>55</ele>
        <time>2026-09-03T09:58:04.536Z</time>
      </trkpt>
      <trkpt lat="49.50168" lon="-1.4442">
        <ele>55</ele>
        <time>2026-09-03T09:58:05.536Z</time>
      </trkpt>
      <trkpt lat="49.50168" lon="-1.44423">
        <ele>55</ele>
        <time>2026-09-03T09:58:07.536Z</time>
      </trkpt>
      <trkpt lat="49.50168" lon="-1.44425">
        <ele>55</ele>
        <time>2026-09-03T09:58:08.536Z</time>
      </trkpt>
      <trkpt lat="49.50168" lon="-1.44426">
        <ele>55</ele>
        <time>2026-09-03T09:58:09.572Z</time>
      </trkpt>
      <trkpt lat="49.50168" lon="-1.4443">
        <ele>55</ele>
        <time>2026-09-03T09:58:11.536Z</time>
      </trkpt>
      <trkpt lat="49.50168" lon="-1.44431">
        <ele>55</ele>
        <time>2026-09-03T09:58:12.536Z</time>
      </trkpt>
      <trkpt lat="49.50168" lon="-1.44432">
        <ele>55</ele>
        <time>2026-09-03T09:58:13.536Z</time>
      </trkpt>
      <trkpt lat="49.50166" lon="-1.44435">
        <ele>55</ele>
        <time>2026-09-03T09:58:15.511Z</time>
      </trkpt>
      <trkpt lat="49.50166" lon="-1.44437">
        <ele>55</ele>
        <time>2026-09-03T09:58:16.552Z</time>
      </trkpt>
      <trkpt lat="49.50165" lon="-1.44441">
        <ele>55</ele>
        <time>2026-09-03T09:58:18.536Z</time>
      </trkpt>
      <trkpt lat="49.50165" lon="-1.44443">
        <ele>55</ele>
        <time>2026-09-03T09:58:19.536Z</time>
      </trkpt>
      <trkpt lat="49.50165" lon="-1.44445">
        <ele>55</ele>
        <time>2026-09-03T09:58:20.536Z</time>
      </trkpt>
      <trkpt lat="49.50165" lon="-1.44447">
        <ele>55</ele>
        <time>2026-09-03T09:58:21.536Z</time>
      </trkpt>
      <trkpt lat="49.50165" lon="-1.4445">
        <ele>55</ele>
        <time>2026-09-03T09:58:23.553Z</time>
      </trkpt>
      <trkpt lat="49.50165" lon="-1.44454">
        <ele>55</ele>
        <time>2026-09-03T09:58:25.536Z</time>
      </trkpt>
      <trkpt lat="49.50165" lon="-1.44456">
        <ele>55</ele>
        <time>2026-09-03T09:58:26.536Z</time>
      </trkpt>
      <trkpt lat="49.50165" lon="-1.44457">
        <ele>55</ele>
        <time>2026-09-03T09:58:27.536Z</time>
      </trkpt>
      <trkpt lat="49.50165" lon="-1.44459">
        <ele>55</ele>
        <time>2026-09-03T09:58:28.536Z</time>
      </trkpt>
      <trkpt lat="49.50166" lon="-1.44461">
        <ele>55</ele>
        <time>2026-09-03T09:58:29.536Z</time>
      </trkpt>
      <trkpt lat="49.50166" lon="-1.44463">
        <ele>55</ele>
        <time>2026-09-03T09:58:30.536Z</time>
      </trkpt>
      <trkpt lat="49.50167" lon="-1.44465">
        <ele>55</ele>
        <time>2026-09-03T09:58:31.536Z</time>
      </trkpt>
      <trkpt lat="49.50167" lon="-1.44467">
        <ele>55</ele>
        <time>2026-09-03T09:58:32.536Z</time>
      </trkpt>
      <trkpt lat="49.50167" lon="-1.44469">
        <ele>55</ele>
        <time>2026-09-03T09:58:33.536Z</time>
      </trkpt>
      <trkpt lat="49.50167" lon="-1.44471">
        <ele>55</ele>
        <time>2026-09-03T09:58:34.536Z</time>
      </trkpt>
      <trkpt lat="49.50167" lon="-1.44473">
        <ele>55</ele>
        <time>2026-09-03T09:58:35.536Z</time>
      </trkpt>
      <trkpt lat="49.50166" lon="-1.44477">
        <ele>54.8</ele>
        <time>2026-09-03T09:58:37.536Z</time>
      </trkpt>
      <trkpt lat="49.50165" lon="-1.4448">
        <ele>54.7</ele>
        <time>2026-09-03T09:58:39.536Z</time>
      </trkpt>
      <trkpt lat="49.50165" lon="-1.44482">
        <ele>54.6</ele>
        <time>2026-09-03T09:58:40.537Z</time>
      </trkpt>
      <trkpt lat="49.50164" lon="-1.44484">
        <ele>54.6</ele>
        <time>2026-09-03T09:58:41.539Z</time>
      </trkpt>
      <trkpt lat="49.50164" lon="-1.44487">
        <ele>54.5</ele>
        <time>2026-09-03T09:58:42.540Z</time>
      </trkpt>
      <trkpt lat="49.50164" lon="-1.4449">
        <ele>54.4</ele>
        <time>2026-09-03T09:58:44.543Z</time>
      </trkpt>
      <trkpt lat="49.50164" lon="-1.44492">
        <ele>54.3</ele>
        <time>2026-09-03T09:58:45.545Z</time>
      </trkpt>
      <trkpt lat="49.50164" lon="-1.44494">
        <ele>54.2</ele>
        <time>2026-09-03T09:58:46.546Z</time>
      </trkpt>
      <trkpt lat="49.50164" lon="-1.44497">
        <ele>54.1</ele>
        <time>2026-09-03T09:58:48.579Z</time>
      </trkpt>
      <trkpt lat="49.50163" lon="-1.445">
        <ele>54</ele>
        <time>2026-09-03T09:58:50.552Z</time>
      </trkpt>
      <trkpt lat="49.50164" lon="-1.44501">
        <ele>54</ele>
        <time>2026-09-03T09:58:51.553Z</time>
      </trkpt>
      <trkpt lat="49.50164" lon="-1.44503">
        <ele>54</ele>
        <time>2026-09-03T09:58:52.555Z</time>
      </trkpt>
      <trkpt lat="49.50164" lon="-1.44506">
        <ele>54</ele>
        <time>2026-09-03T09:58:54.558Z</time>
      </trkpt>
      <trkpt lat="49.50165" lon="-1.44507">
        <ele>54</ele>
        <time>2026-09-03T09:58:55.559Z</time>
      </trkpt>
      <trkpt lat="49.50165" lon="-1.44509">
        <ele>54</ele>
        <time>2026-09-03T09:58:56.561Z</time>
      </trkpt>
      <trkpt lat="49.50165" lon="-1.4451">
        <ele>54</ele>
        <time>2026-09-03T09:58:57.562Z</time>
      </trkpt>
      <trkpt lat="49.50164" lon="-1.44513">
        <ele>54</ele>
        <time>2026-09-03T09:58:59.495Z</time>
      </trkpt>
      <trkpt lat="49.50163" lon="-1.44515">
        <ele>54</ele>
        <time>2026-09-03T09:59:00.567Z</time>
      </trkpt>
      <trkpt lat="49.50163" lon="-1.44516">
        <ele>54</ele>
        <time>2026-09-03T09:59:01.568Z</time>
      </trkpt>
      <trkpt lat="49.50162" lon="-1.44517">
        <ele>54</ele>
        <time>2026-09-03T09:59:02.569Z</time>
      </trkpt>
      <trkpt lat="49.50162" lon="-1.44519">
        <ele>54</ele>
        <time>2026-09-03T09:59:04.536Z</time>
      </trkpt>
      <trkpt lat="49.50162" lon="-1.4452">
        <ele>54</ele>
        <time>2026-09-03T09:59:05.574Z</time>
      </trkpt>
      <trkpt lat="49.50162" lon="-1.44524">
        <ele>54</ele>
        <time>2026-09-03T09:59:07.536Z</time>
      </trkpt>
      <trkpt lat="49.50162" lon="-1.44526">
        <ele>54</ele>
        <time>2026-09-03T09:59:08.536Z</time>
      </trkpt>
      <trkpt lat="49.50163" lon="-1.44527">
        <ele>54</ele>
        <time>2026-09-03T09:59:09.536Z</time>
      </trkpt>
      <trkpt lat="49.50163" lon="-1.44529">
        <ele>54</ele>
        <time>2026-09-03T09:59:10.536Z</time>
      </trkpt>
      <trkpt lat="49.50164" lon="-1.44532">
        <ele>53.8</ele>
        <time>2026-09-03T09:59:12.554Z</time>
      </trkpt>
      <trkpt lat="49.50165" lon="-1.44535">
        <ele>53.7</ele>
        <time>2026-09-03T09:59:14.536Z</time>
      </trkpt>
      <trkpt lat="49.50165" lon="-1.44538">
        <ele>53.6</ele>
        <time>2026-09-03T09:59:15.536Z</time>
      </trkpt>
      <trkpt lat="49.50165" lon="-1.44539">
        <ele>53.6</ele>
        <time>2026-09-03T09:59:16.536Z</time>
      </trkpt>
      <trkpt lat="49.50166" lon="-1.44541">
        <ele>53.5</ele>
        <time>2026-09-03T09:59:17.536Z</time>
      </trkpt>
      <trkpt lat="49.50166" lon="-1.44543">
        <ele>53.5</ele>
        <time>2026-09-03T09:59:18.536Z</time>
      </trkpt>
      <trkpt lat="49.50166" lon="-1.44545">
        <ele>53.4</ele>
        <time>2026-09-03T09:59:19.536Z</time>
      </trkpt>
      <trkpt lat="49.50165" lon="-1.44547">
        <ele>53.3</ele>
        <time>2026-09-03T09:59:20.536Z</time>
      </trkpt>
      <trkpt lat="49.50165" lon="-1.44549">
        <ele>53.2</ele>
        <time>2026-09-03T09:59:21.536Z</time>
      </trkpt>
      <trkpt lat="49.50165" lon="-1.44551">
        <ele>53.2</ele>
        <time>2026-09-03T09:59:22.536Z</time>
      </trkpt>
      <trkpt lat="49.50164" lon="-1.44554">
        <ele>53.1</ele>
        <time>2026-09-03T09:59:23.536Z</time>
      </trkpt>
      <trkpt lat="49.50164" lon="-1.44557">
        <ele>53</ele>
        <time>2026-09-03T09:59:25.533Z</time>
      </trkpt>
      <trkpt lat="49.50165" lon="-1.44559">
        <ele>53</ele>
        <time>2026-09-03T09:59:26.536Z</time>
      </trkpt>
      <trkpt lat="49.50165" lon="-1.44561">
        <ele>53</ele>
        <time>2026-09-03T09:59:27.536Z</time>
      </trkpt>
      <trkpt lat="49.50165" lon="-1.44563">
        <ele>53</ele>
        <time>2026-09-03T09:59:28.536Z</time>
      </trkpt>
      <trkpt lat="49.50166" lon="-1.44565">
        <ele>53</ele>
        <time>2026-09-03T09:59:29.536Z</time>
      </trkpt>
      <trkpt lat="49.50166" lon="-1.44567">
        <ele>53</ele>
        <time>2026-09-03T09:59:30.536Z</time>
      </trkpt>
      <trkpt lat="49.50165" lon="-1.4457">
        <ele>53</ele>
        <time>2026-09-03T09:59:31.536Z</time>
      </trkpt>
      <trkpt lat="49.50165" lon="-1.44571">
        <ele>53</ele>
        <time>2026-09-03T09:59:32.536Z</time>
      </trkpt>
      <trkpt lat="49.50166" lon="-1.44573">
        <ele>53</ele>
        <time>2026-09-03T09:59:33.536Z</time>
      </trkpt>
      <trkpt lat="49.50166" lon="-1.44575">
        <ele>53</ele>
        <time>2026-09-03T09:59:34.536Z</time>
      </trkpt>
      <trkpt lat="49.50167" lon="-1.44578">
        <ele>53</ele>
        <time>2026-09-03T09:59:36.536Z</time>
      </trkpt>
      <trkpt lat="49.50167" lon="-1.4458">
        <ele>53</ele>
        <time>2026-09-03T09:59:37.536Z</time>
      </trkpt>
      <trkpt lat="49.50166" lon="-1.44584">
        <ele>53</ele>
        <time>2026-09-03T09:59:39.536Z</time>
      </trkpt>
      <trkpt lat="49.50165" lon="-1.44585">
        <ele>53</ele>
        <time>2026-09-03T09:59:40.536Z</time>
      </trkpt>
      <trkpt lat="49.50165" lon="-1.44586">
        <ele>53</ele>
        <time>2026-09-03T09:59:41.536Z</time>
      </trkpt>
      <trkpt lat="49.50164" lon="-1.44589">
        <ele>53</ele>
        <time>2026-09-03T09:59:43.519Z</time>
      </trkpt>
      <trkpt lat="49.50164" lon="-1.44591">
        <ele>53</ele>
        <time>2026-09-03T09:59:44.536Z</time>
      </trkpt>
      <trkpt lat="49.50164" lon="-1.44592">
        <ele>53</ele>
        <time>2026-09-03T09:59:45.536Z</time>
      </trkpt>
      <trkpt lat="49.50164" lon="-1.44594">
        <ele>53</ele>
        <time>2026-09-03T09:59:46.536Z</time>
      </trkpt>
      <trkpt lat="49.50164" lon="-1.44595">
        <ele>53</ele>
        <time>2026-09-03T09:59:47.536Z</time>
      </trkpt>
      <trkpt lat="49.50163" lon="-1.44596">
        <ele>53</ele>
        <time>2026-09-03T09:59:48.536Z</time>
      </trkpt>
      <trkpt lat="49.50162" lon="-1.44596">
        <ele>53</ele>
        <time>2026-09-03T09:59:49.537Z</time>
      </trkpt>
      <trkpt lat="49.50162" lon="-1.44598">
        <ele>53</ele>
        <time>2026-09-03T09:59:50.579Z</time>
      </trkpt>
      <trkpt lat="49.50161" lon="-1.44602">
        <ele>53</ele>
        <time>2026-09-03T09:59:52.542Z</time>
      </trkpt>
      <trkpt lat="49.5016" lon="-1.44608">
        <ele>53</ele>
        <time>2026-09-03T09:59:54.555Z</time>
      </trkpt>
      <trkpt lat="49.50161" lon="-1.44614">
        <ele>53</ele>
        <time>2026-09-03T09:59:56.548Z</time>
      </trkpt>
      <trkpt lat="49.50161" lon="-1.44617">
        <ele>53</ele>
        <time>2026-09-03T09:59:57.549Z</time>
      </trkpt>
      <trkpt lat="49.50162" lon="-1.44619">
        <ele>53</ele>
        <time>2026-09-03T09:59:58.550Z</time>
      </trkpt>
      <trkpt lat="49.50162" lon="-1.44621">
        <ele>53</ele>
        <time>2026-09-03T09:59:59.552Z</time>
      </trkpt>
      <trkpt lat="49.50162" lon="-1.44625">
        <ele>53</ele>
        <time>2026-09-03T10:00:01.555Z</time>
      </trkpt>
      <trkpt lat="49.50162" lon="-1.44627">
        <ele>53</ele>
        <time>2026-09-03T10:00:02.556Z</time>
      </trkpt>
      <trkpt lat="49.50162" lon="-1.44628">
        <ele>53</ele>
        <time>2026-09-03T10:00:03.558Z</time>
      </trkpt>
      <trkpt lat="49.50162" lon="-1.44629">
        <ele>53</ele>
        <time>2026-09-03T10:00:04.559Z</time>
      </trkpt>
      <trkpt lat="49.50162" lon="-1.44631">
        <ele>53</ele>
        <time>2026-09-03T10:00:05.561Z</time>
      </trkpt>
      <trkpt lat="49.50163" lon="-1.44632">
        <ele>53</ele>
        <time>2026-09-03T10:00:06.562Z</time>
      </trkpt>
      <trkpt lat="49.50163" lon="-1.44635">
        <ele>53</ele>
        <time>2026-09-03T10:00:08.555Z</time>
      </trkpt>
      <trkpt lat="49.50164" lon="-1.44634">
        <ele>53</ele>
        <time>2026-09-03T10:00:09.566Z</time>
      </trkpt>
      <trkpt lat="49.50165" lon="-1.44634">
        <ele>53</ele>
        <time>2026-09-03T10:00:10.568Z</time>
      </trkpt>
      <trkpt lat="49.50165" lon="-1.44639">
        <ele>53</ele>
        <time>2026-09-03T10:00:12.531Z</time>
      </trkpt>
      <trkpt lat="49.50164" lon="-1.44641">
        <ele>53</ele>
        <time>2026-09-03T10:00:13.536Z</time>
      </trkpt>
      <trkpt lat="49.50163" lon="-1.44643">
        <ele>53</ele>
        <time>2026-09-03T10:00:14.536Z</time>
      </trkpt>
      <trkpt lat="49.50163" lon="-1.44645">
        <ele>53</ele>
        <time>2026-09-03T10:00:15.575Z</time>
      </trkpt>
      <trkpt lat="49.50162" lon="-1.44646">
        <ele>53</ele>
        <time>2026-09-03T10:00:16.577Z</time>
      </trkpt>
      <trkpt lat="49.50161" lon="-1.44648">
        <ele>53</ele>
        <time>2026-09-03T10:00:17.578Z</time>
      </trkpt>
      <trkpt lat="49.50161" lon="-1.4465">
        <ele>53</ele>
        <time>2026-09-03T10:00:18.579Z</time>
      </trkpt>
      <trkpt lat="49.50161" lon="-1.44651">
        <ele>53</ele>
        <time>2026-09-03T10:00:19.581Z</time>
      </trkpt>
      <trkpt lat="49.5016" lon="-1.44655">
        <ele>53</ele>
        <time>2026-09-03T10:00:21.536Z</time>
      </trkpt>
      <trkpt lat="49.50159" lon="-1.44659">
        <ele>53</ele>
        <time>2026-09-03T10:00:23.517Z</time>
      </trkpt>
      <trkpt lat="49.50158" lon="-1.44661">
        <ele>53</ele>
        <time>2026-09-03T10:00:24.536Z</time>
      </trkpt>
      <trkpt lat="49.50158" lon="-1.44663">
        <ele>53</ele>
        <time>2026-09-03T10:00:25.536Z</time>
      </trkpt>
      <trkpt lat="49.50158" lon="-1.44665">
        <ele>53</ele>
        <time>2026-09-03T10:00:26.536Z</time>
      </trkpt>
      <trkpt lat="49.50157" lon="-1.44667">
        <ele>53</ele>
        <time>2026-09-03T10:00:27.536Z</time>
      </trkpt>
      <trkpt lat="49.50157" lon="-1.44669">
        <ele>53</ele>
        <time>2026-09-03T10:00:28.536Z</time>
      </trkpt>
      <trkpt lat="49.50156" lon="-1.44671">
        <ele>53</ele>
        <time>2026-09-03T10:00:29.536Z</time>
      </trkpt>
      <trkpt lat="49.50156" lon="-1.44675">
        <ele>53</ele>
        <time>2026-09-03T10:00:31.398Z</time>
      </trkpt>
      <trkpt lat="49.50155" lon="-1.44677">
        <ele>53</ele>
        <time>2026-09-03T10:00:32.536Z</time>
      </trkpt>
      <trkpt lat="49.50155" lon="-1.44679">
        <ele>53</ele>
        <time>2026-09-03T10:00:33.536Z</time>
      </trkpt>
      <trkpt lat="49.50155" lon="-1.44681">
        <ele>53</ele>
        <time>2026-09-03T10:00:34.536Z</time>
      </trkpt>
      <trkpt lat="49.50154" lon="-1.44683">
        <ele>53</ele>
        <time>2026-09-03T10:00:35.536Z</time>
      </trkpt>
      <trkpt lat="49.50154" lon="-1.44685">
        <ele>53</ele>
        <time>2026-09-03T10:00:36.536Z</time>
      </trkpt>
      <trkpt lat="49.50153" lon="-1.44687">
        <ele>53</ele>
        <time>2026-09-03T10:00:37.536Z</time>
      </trkpt>
      <trkpt lat="49.50152" lon="-1.44691">
        <ele>53</ele>
        <time>2026-09-03T10:00:39.580Z</time>
      </trkpt>
      <trkpt lat="49.50154" lon="-1.44693">
        <ele>53</ele>
        <time>2026-09-03T10:00:41.536Z</time>
      </trkpt>
      <trkpt lat="49.50155" lon="-1.44691">
        <ele>53</ele>
        <time>2026-09-03T10:00:42.536Z</time>
      </trkpt>
      <trkpt lat="49.50157" lon="-1.44689">
        <ele>53</ele>
        <time>2026-09-03T10:00:43.536Z</time>
      </trkpt>
      <trkpt lat="49.50158" lon="-1.44689">
        <ele>53</ele>
        <time>2026-09-03T10:00:44.536Z</time>
      </trkpt>
      <trkpt lat="49.5016" lon="-1.4469">
        <ele>53</ele>
        <time>2026-09-03T10:00:45.536Z</time>
      </trkpt>
      <trkpt lat="49.5016" lon="-1.44691">
        <ele>53</ele>
        <time>2026-09-03T10:00:46.536Z</time>
      </trkpt>
      <trkpt lat="49.50161" lon="-1.44693">
        <ele>53</ele>
        <time>2026-09-03T10:00:47.536Z</time>
      </trkpt>
      <trkpt lat="49.50161" lon="-1.44696">
        <ele>53</ele>
        <time>2026-09-03T10:00:48.536Z</time>
      </trkpt>
      <trkpt lat="49.50161" lon="-1.447">
        <ele>53</ele>
        <time>2026-09-03T10:00:49.536Z</time>
      </trkpt>
      <trkpt lat="49.50161" lon="-1.44702">
        <ele>53</ele>
        <time>2026-09-03T10:00:50.536Z</time>
      </trkpt>
      <trkpt lat="49.50161" lon="-1.44705">
        <ele>53</ele>
        <time>2026-09-03T10:00:51.536Z</time>
      </trkpt>
      <trkpt lat="49.50161" lon="-1.44709">
        <ele>53</ele>
        <time>2026-09-03T10:00:53.540Z</time>
      </trkpt>
      <trkpt lat="49.5016" lon="-1.44714">
        <ele>53</ele>
        <time>2026-09-03T10:00:55.536Z</time>
      </trkpt>
      <trkpt lat="49.50159" lon="-1.44717">
        <ele>53</ele>
        <time>2026-09-03T10:00:56.536Z</time>
      </trkpt>
      <trkpt lat="49.50159" lon="-1.44719">
        <ele>53</ele>
        <time>2026-09-03T10:00:57.536Z</time>
      </trkpt>
      <trkpt lat="49.50159" lon="-1.44723">
        <ele>53</ele>
        <time>2026-09-03T10:00:58.537Z</time>
      </trkpt>
      <trkpt lat="49.50158" lon="-1.44724">
        <ele>53</ele>
        <time>2026-09-03T10:00:59.539Z</time>
      </trkpt>
      <trkpt lat="49.50157" lon="-1.44727">
        <ele>53</ele>
        <time>2026-09-03T10:01:00.540Z</time>
      </trkpt>
      <trkpt lat="49.50157" lon="-1.44729">
        <ele>53</ele>
        <time>2026-09-03T10:01:01.542Z</time>
      </trkpt>
      <trkpt lat="49.50157" lon="-1.44731">
        <ele>53</ele>
        <time>2026-09-03T10:01:02.543Z</time>
      </trkpt>
      <trkpt lat="49.50157" lon="-1.44733">
        <ele>53</ele>
        <time>2026-09-03T10:01:03.545Z</time>
      </trkpt>
      <trkpt lat="49.50157" lon="-1.44735">
        <ele>53</ele>
        <time>2026-09-03T10:01:04.546Z</time>
      </trkpt>
      <trkpt lat="49.50157" lon="-1.44737">
        <ele>53</ele>
        <time>2026-09-03T10:01:05.548Z</time>
      </trkpt>
      <trkpt lat="49.50156" lon="-1.4474">
        <ele>53</ele>
        <time>2026-09-03T10:01:06.549Z</time>
      </trkpt>
      <trkpt lat="49.50156" lon="-1.44741">
        <ele>53</ele>
        <time>2026-09-03T10:01:07.551Z</time>
      </trkpt>
      <trkpt lat="49.50156" lon="-1.44743">
        <ele>53</ele>
        <time>2026-09-03T10:01:08.552Z</time>
      </trkpt>
      <trkpt lat="49.50155" lon="-1.44745">
        <ele>53</ele>
        <time>2026-09-03T10:01:09.554Z</time>
      </trkpt>
      <trkpt lat="49.50155" lon="-1.44747">
        <ele>53</ele>
        <time>2026-09-03T10:01:10.575Z</time>
      </trkpt>
      <trkpt lat="49.50155" lon="-1.44751">
        <ele>53</ele>
        <time>2026-09-03T10:01:12.558Z</time>
      </trkpt>
      <trkpt lat="49.50155" lon="-1.44753">
        <ele>53</ele>
        <time>2026-09-03T10:01:13.560Z</time>
      </trkpt>
      <trkpt lat="49.50155" lon="-1.44756">
        <ele>53</ele>
        <time>2026-09-03T10:01:14.560Z</time>
      </trkpt>
      <trkpt lat="49.50155" lon="-1.44757">
        <ele>53</ele>
        <time>2026-09-03T10:01:15.563Z</time>
      </trkpt>
      <trkpt lat="49.50155" lon="-1.44759">
        <ele>53</ele>
        <time>2026-09-03T10:01:16.564Z</time>
      </trkpt>
      <trkpt lat="49.50155" lon="-1.44761">
        <ele>53</ele>
        <time>2026-09-03T10:01:17.566Z</time>
      </trkpt>
      <trkpt lat="49.50155" lon="-1.44763">
        <ele>53</ele>
        <time>2026-09-03T10:01:18.567Z</time>
      </trkpt>
      <trkpt lat="49.50155" lon="-1.44765">
        <ele>53</ele>
        <time>2026-09-03T10:01:19.569Z</time>
      </trkpt>
      <trkpt lat="49.50155" lon="-1.44768">
        <ele>53</ele>
        <time>2026-09-03T10:01:21.572Z</time>
      </trkpt>
      <trkpt lat="49.50155" lon="-1.44772">
        <ele>53</ele>
        <time>2026-09-03T10:01:23.536Z</time>
      </trkpt>
      <trkpt lat="49.50154" lon="-1.44773">
        <ele>53</ele>
        <time>2026-09-03T10:01:24.576Z</time>
      </trkpt>
      <trkpt lat="49.50154" lon="-1.44777">
        <ele>53</ele>
        <time>2026-09-03T10:01:26.499Z</time>
      </trkpt>
      <trkpt lat="49.50153" lon="-1.44778">
        <ele>53</ele>
        <time>2026-09-03T10:01:27.536Z</time>
      </trkpt>
      <trkpt lat="49.50153" lon="-1.4478">
        <ele>53.1</ele>
        <time>2026-09-03T10:01:28.536Z</time>
      </trkpt>
      <trkpt lat="49.50153" lon="-1.44782">
        <ele>53.2</ele>
        <time>2026-09-03T10:01:29.536Z</time>
      </trkpt>
      <trkpt lat="49.50152" lon="-1.44784">
        <ele>53.2</ele>
        <time>2026-09-03T10:01:30.536Z</time>
      </trkpt>
      <trkpt lat="49.50152" lon="-1.44786">
        <ele>53.3</ele>
        <time>2026-09-03T10:01:31.536Z</time>
      </trkpt>
      <trkpt lat="49.50151" lon="-1.44788">
        <ele>53.4</ele>
        <time>2026-09-03T10:01:32.536Z</time>
      </trkpt>
      <trkpt lat="49.50151" lon="-1.4479">
        <ele>53.4</ele>
        <time>2026-09-03T10:01:33.536Z</time>
      </trkpt>
      <trkpt lat="49.50151" lon="-1.44792">
        <ele>53.5</ele>
        <time>2026-09-03T10:01:34.536Z</time>
      </trkpt>
      <trkpt lat="49.5015" lon="-1.44794">
        <ele>53.6</ele>
        <time>2026-09-03T10:01:35.536Z</time>
      </trkpt>
      <trkpt lat="49.5015" lon="-1.44798">
        <ele>53.7</ele>
        <time>2026-09-03T10:01:37.436Z</time>
      </trkpt>
      <trkpt lat="49.50149" lon="-1.448">
        <ele>53.8</ele>
        <time>2026-09-03T10:01:38.517Z</time>
      </trkpt>
      <trkpt lat="49.50149" lon="-1.44803">
        <ele>53.9</ele>
        <time>2026-09-03T10:01:39.579Z</time>
      </trkpt>
      <trkpt lat="49.5015" lon="-1.44806">
        <ele>54</ele>
        <time>2026-09-03T10:01:41.536Z</time>
      </trkpt>
      <trkpt lat="49.5015" lon="-1.44808">
        <ele>54</ele>
        <time>2026-09-03T10:01:42.536Z</time>
      </trkpt>
      <trkpt lat="49.50149" lon="-1.4481">
        <ele>54</ele>
        <time>2026-09-03T10:01:43.536Z</time>
      </trkpt>
      <trkpt lat="49.50149" lon="-1.44812">
        <ele>54</ele>
        <time>2026-09-03T10:01:44.536Z</time>
      </trkpt>
      <trkpt lat="49.50148" lon="-1.44813">
        <ele>54</ele>
        <time>2026-09-03T10:01:45.536Z</time>
      </trkpt>
      <trkpt lat="49.50148" lon="-1.44815">
        <ele>54</ele>
        <time>2026-09-03T10:01:46.536Z</time>
      </trkpt>
      <trkpt lat="49.50148" lon="-1.44817">
        <ele>54</ele>
        <time>2026-09-03T10:01:47.536Z</time>
      </trkpt>
      <trkpt lat="49.50148" lon="-1.44819">
        <ele>54</ele>
        <time>2026-09-03T10:01:48.536Z</time>
      </trkpt>
      <trkpt lat="49.50148" lon="-1.4482">
        <ele>54</ele>
        <time>2026-09-03T10:01:49.536Z</time>
      </trkpt>
      <trkpt lat="49.50148" lon="-1.44822">
        <ele>54</ele>
        <time>2026-09-03T10:01:50.536Z</time>
      </trkpt>
      <trkpt lat="49.50148" lon="-1.44826">
        <ele>54</ele>
        <time>2026-09-03T10:01:52.458Z</time>
      </trkpt>
      <trkpt lat="49.50148" lon="-1.44828">
        <ele>54</ele>
        <time>2026-09-03T10:01:53.536Z</time>
      </trkpt>
      <trkpt lat="49.50148" lon="-1.4483">
        <ele>54</ele>
        <time>2026-09-03T10:01:54.542Z</time>
      </trkpt>
      <trkpt lat="49.50146" lon="-1.44834">
        <ele>54</ele>
        <time>2026-09-03T10:01:56.536Z</time>
      </trkpt>
      <trkpt lat="49.50145" lon="-1.44834">
        <ele>54</ele>
        <time>2026-09-03T10:01:57.536Z</time>
      </trkpt>
      <trkpt lat="49.50145" lon="-1.44836">
        <ele>54</ele>
        <time>2026-09-03T10:01:58.536Z</time>
      </trkpt>
      <trkpt lat="49.50144" lon="-1.4484">
        <ele>54</ele>
        <time>2026-09-03T10:02:00.491Z</time>
      </trkpt>
      <trkpt lat="49.50145" lon="-1.44843">
        <ele>54</ele>
        <time>2026-09-03T10:02:01.572Z</time>
      </trkpt>
      <trkpt lat="49.50146" lon="-1.44847">
        <ele>54</ele>
        <time>2026-09-03T10:02:03.536Z</time>
      </trkpt>
      <trkpt lat="49.50146" lon="-1.44848">
        <ele>54</ele>
        <time>2026-09-03T10:02:04.537Z</time>
      </trkpt>
      <trkpt lat="49.50146" lon="-1.4485">
        <ele>54</ele>
        <time>2026-09-03T10:02:05.539Z</time>
      </trkpt>
      <trkpt lat="49.50146" lon="-1.44854">
        <ele>54</ele>
        <time>2026-09-03T10:02:07.552Z</time>
      </trkpt>
      <trkpt lat="49.50146" lon="-1.44858">
        <ele>54</ele>
        <time>2026-09-03T10:02:09.545Z</time>
      </trkpt>
      <trkpt lat="49.50146" lon="-1.4486">
        <ele>54</ele>
        <time>2026-09-03T10:02:10.546Z</time>
      </trkpt>
      <trkpt lat="49.50146" lon="-1.44862">
        <ele>54</ele>
        <time>2026-09-03T10:02:11.548Z</time>
      </trkpt>
      <trkpt lat="49.50145" lon="-1.44865">
        <ele>54</ele>
        <time>2026-09-03T10:02:13.551Z</time>
      </trkpt>
      <trkpt lat="49.50144" lon="-1.44868">
        <ele>54</ele>
        <time>2026-09-03T10:02:14.552Z</time>
      </trkpt>
      <trkpt lat="49.50144" lon="-1.4487">
        <ele>54</ele>
        <time>2026-09-03T10:02:15.554Z</time>
      </trkpt>
      <trkpt lat="49.50144" lon="-1.44872">
        <ele>54</ele>
        <time>2026-09-03T10:02:16.556Z</time>
      </trkpt>
      <trkpt lat="49.50143" lon="-1.44874">
        <ele>54</ele>
        <time>2026-09-03T10:02:17.557Z</time>
      </trkpt>
      <trkpt lat="49.50143" lon="-1.44878">
        <ele>54</ele>
        <time>2026-09-03T10:02:19.560Z</time>
      </trkpt>
      <trkpt lat="49.50143" lon="-1.44881">
        <ele>54</ele>
        <time>2026-09-03T10:02:20.562Z</time>
      </trkpt>
      <trkpt lat="49.50143" lon="-1.44882">
        <ele>54</ele>
        <time>2026-09-03T10:02:21.563Z</time>
      </trkpt>
      <trkpt lat="49.50143" lon="-1.44884">
        <ele>54</ele>
        <time>2026-09-03T10:02:22.565Z</time>
      </trkpt>
      <trkpt lat="49.50142" lon="-1.44887">
        <ele>54</ele>
        <time>2026-09-03T10:02:23.567Z</time>
      </trkpt>
      <trkpt lat="49.50142" lon="-1.44889">
        <ele>54</ele>
        <time>2026-09-03T10:02:24.578Z</time>
      </trkpt>
      <trkpt lat="49.50142" lon="-1.44894">
        <ele>54</ele>
        <time>2026-09-03T10:02:26.536Z</time>
      </trkpt>
      <trkpt lat="49.50141" lon="-1.44896">
        <ele>54</ele>
        <time>2026-09-03T10:02:27.536Z</time>
      </trkpt>
      <trkpt lat="49.50141" lon="-1.44899">
        <ele>54</ele>
        <time>2026-09-03T10:02:28.574Z</time>
      </trkpt>
      <trkpt lat="49.50141" lon="-1.44902">
        <ele>54</ele>
        <time>2026-09-03T10:02:30.437Z</time>
      </trkpt>
      <trkpt lat="49.50141" lon="-1.44905">
        <ele>54</ele>
        <time>2026-09-03T10:02:31.519Z</time>
      </trkpt>
      <trkpt lat="49.50141" lon="-1.44907">
        <ele>54</ele>
        <time>2026-09-03T10:02:32.536Z</time>
      </trkpt>
      <trkpt lat="49.5014" lon="-1.44908">
        <ele>54</ele>
        <time>2026-09-03T10:02:33.536Z</time>
      </trkpt>
      <trkpt lat="49.5014" lon="-1.4491">
        <ele>54</ele>
        <time>2026-09-03T10:02:34.536Z</time>
      </trkpt>
      <trkpt lat="49.5014" lon="-1.44912">
        <ele>54</ele>
        <time>2026-09-03T10:02:35.536Z</time>
      </trkpt>
      <trkpt lat="49.5014" lon="-1.44915">
        <ele>54</ele>
        <time>2026-09-03T10:02:36.537Z</time>
      </trkpt>
      <trkpt lat="49.5014" lon="-1.44917">
        <ele>54</ele>
        <time>2026-09-03T10:02:38.536Z</time>
      </trkpt>
      <trkpt lat="49.5014" lon="-1.44919">
        <ele>54</ele>
        <time>2026-09-03T10:02:39.536Z</time>
      </trkpt>
      <trkpt lat="49.5014" lon="-1.44921">
        <ele>54</ele>
        <time>2026-09-03T10:02:40.536Z</time>
      </trkpt>
      <trkpt lat="49.50141" lon="-1.44932">
        <ele>54</ele>
        <time>2026-09-03T10:02:49.098Z</time>
      </trkpt>
      <trkpt lat="49.50141" lon="-1.44942">
        <ele>54</ele>
        <time>2026-09-03T10:02:57.660Z</time>
      </trkpt>
      <trkpt lat="49.50142" lon="-1.44953">
        <ele>54</ele>
        <time>2026-09-03T10:03:06.222Z</time>
      </trkpt>
      <trkpt lat="49.50142" lon="-1.44964">
        <ele>54</ele>
        <time>2026-09-03T10:03:14.784Z</time>
      </trkpt>
      <trkpt lat="49.50143" lon="-1.44974">
        <ele>54</ele>
        <time>2026-09-03T10:03:23.346Z</time>
      </trkpt>
      <trkpt lat="49.50143" lon="-1.44985">
        <ele>54</ele>
        <time>2026-09-03T10:03:31.908Z</time>
      </trkpt>
      <trkpt lat="49.50144" lon="-1.44995">
        <ele>54</ele>
        <time>2026-09-03T10:03:40.470Z</time>
      </trkpt>
      <trkpt lat="49.50145" lon="-1.45006">
        <ele>54</ele>
        <time>2026-09-03T10:03:49.032Z</time>
      </trkpt>
      <trkpt lat="49.50145" lon="-1.45017">
        <ele>54</ele>
        <time>2026-09-03T10:03:57.594Z</time>
      </trkpt>
      <trkpt lat="49.50146" lon="-1.45027">
        <ele>54</ele>
        <time>2026-09-03T10:04:06.156Z</time>
      </trkpt>
      <trkpt lat="49.50146" lon="-1.45038">
        <ele>54.3</ele>
        <time>2026-09-03T10:04:14.719Z</time>
      </trkpt>
      <trkpt lat="49.50147" lon="-1.45049">
        <ele>54.5</ele>
        <time>2026-09-03T10:04:23.282Z</time>
      </trkpt>
      <trkpt lat="49.50147" lon="-1.45059">
        <ele>54.7</ele>
        <time>2026-09-03T10:04:31.845Z</time>
      </trkpt>
      <trkpt lat="49.50148" lon="-1.4507">
        <ele>54.7</ele>
        <time>2026-09-03T10:04:40.408Z</time>
      </trkpt>
      <trkpt lat="49.50148" lon="-1.4508">
        <ele>54.7</ele>
        <time>2026-09-03T10:04:48.971Z</time>
      </trkpt>
      <trkpt lat="49.50149" lon="-1.45091">
        <ele>54.4</ele>
        <time>2026-09-03T10:04:57.534Z</time>
      </trkpt>
      <trkpt lat="49.50148" lon="-1.45093">
        <ele>54.3</ele>
        <time>2026-09-03T10:04:58.534Z</time>
      </trkpt>
      <trkpt lat="49.50148" lon="-1.45095">
        <ele>54.3</ele>
        <time>2026-09-03T10:04:59.534Z</time>
      </trkpt>
      <trkpt lat="49.50148" lon="-1.45096">
        <ele>54.2</ele>
        <time>2026-09-03T10:05:00.534Z</time>
      </trkpt>
      <trkpt lat="49.50147" lon="-1.45098">
        <ele>54.2</ele>
        <time>2026-09-03T10:05:02.384Z</time>
      </trkpt>
      <trkpt lat="49.50146" lon="-1.451">
        <ele>54.1</ele>
        <time>2026-09-03T10:05:03.534Z</time>
      </trkpt>
      <trkpt lat="49.50146" lon="-1.45104">
        <ele>54</ele>
        <time>2026-09-03T10:05:05.534Z</time>
      </trkpt>
      <trkpt lat="49.50146" lon="-1.45106">
        <ele>53.9</ele>
        <time>2026-09-03T10:05:06.534Z</time>
      </trkpt>
      <trkpt lat="49.50147" lon="-1.45107">
        <ele>53.9</ele>
        <time>2026-09-03T10:05:07.534Z</time>
      </trkpt>
      <trkpt lat="49.50148" lon="-1.45108">
        <ele>53.8</ele>
        <time>2026-09-03T10:05:08.534Z</time>
      </trkpt>
      <trkpt lat="49.5015" lon="-1.45111">
        <ele>53.6</ele>
        <time>2026-09-03T10:05:10.534Z</time>
      </trkpt>
      <trkpt lat="49.5015" lon="-1.45113">
        <ele>53.6</ele>
        <time>2026-09-03T10:05:11.534Z</time>
      </trkpt>
      <trkpt lat="49.5015" lon="-1.45114">
        <ele>53.5</ele>
        <time>2026-09-03T10:05:12.534Z</time>
      </trkpt>
      <trkpt lat="49.50151" lon="-1.45116">
        <ele>53.5</ele>
        <time>2026-09-03T10:05:13.534Z</time>
      </trkpt>
      <trkpt lat="49.50151" lon="-1.45118">
        <ele>53.4</ele>
        <time>2026-09-03T10:05:14.534Z</time>
      </trkpt>
      <trkpt lat="49.50151" lon="-1.4512">
        <ele>53.4</ele>
        <time>2026-09-03T10:05:15.534Z</time>
      </trkpt>
      <trkpt lat="49.50151" lon="-1.45121">
        <ele>53.4</ele>
        <time>2026-09-03T10:05:16.534Z</time>
      </trkpt>
      <trkpt lat="49.50152" lon="-1.45123">
        <ele>53.3</ele>
        <time>2026-09-03T10:05:17.534Z</time>
      </trkpt>
      <trkpt lat="49.50153" lon="-1.45125">
        <ele>53.2</ele>
        <time>2026-09-03T10:05:18.534Z</time>
      </trkpt>
      <trkpt lat="49.50153" lon="-1.45126">
        <ele>53.2</ele>
        <time>2026-09-03T10:05:19.534Z</time>
      </trkpt>
      <trkpt lat="49.50153" lon="-1.45128">
        <ele>53.2</ele>
        <time>2026-09-03T10:05:20.534Z</time>
      </trkpt>
      <trkpt lat="49.50154" lon="-1.45129">
        <ele>53.2</ele>
        <time>2026-09-03T10:05:21.534Z</time>
      </trkpt>
      <trkpt lat="49.50154" lon="-1.45133">
        <ele>53.1</ele>
        <time>2026-09-03T10:05:23.534Z</time>
      </trkpt>
      <trkpt lat="49.50154" lon="-1.45137">
        <ele>53</ele>
        <time>2026-09-03T10:05:25.534Z</time>
      </trkpt>
      <trkpt lat="49.50154" lon="-1.45138">
        <ele>53</ele>
        <time>2026-09-03T10:05:26.534Z</time>
      </trkpt>
      <trkpt lat="49.50154" lon="-1.4514">
        <ele>53</ele>
        <time>2026-09-03T10:05:27.534Z</time>
      </trkpt>
      <trkpt lat="49.50153" lon="-1.45142">
        <ele>53</ele>
        <time>2026-09-03T10:05:28.534Z</time>
      </trkpt>
      <trkpt lat="49.50153" lon="-1.45144">
        <ele>53</ele>
        <time>2026-09-03T10:05:29.557Z</time>
      </trkpt>
      <trkpt lat="49.50152" lon="-1.45149">
        <ele>53</ele>
        <time>2026-09-03T10:05:31.534Z</time>
      </trkpt>
      <trkpt lat="49.50152" lon="-1.4515">
        <ele>53</ele>
        <time>2026-09-03T10:05:32.551Z</time>
      </trkpt>
      <trkpt lat="49.50152" lon="-1.45152">
        <ele>53</ele>
        <time>2026-09-03T10:05:33.553Z</time>
      </trkpt>
      <trkpt lat="49.50152" lon="-1.45154">
        <ele>53</ele>
        <time>2026-09-03T10:05:34.575Z</time>
      </trkpt>
      <trkpt lat="49.50153" lon="-1.45157">
        <ele>53</ele>
        <time>2026-09-03T10:05:36.498Z</time>
      </trkpt>
      <trkpt lat="49.50154" lon="-1.45159">
        <ele>53</ele>
        <time>2026-09-03T10:05:37.534Z</time>
      </trkpt>
      <trkpt lat="49.50154" lon="-1.45162">
        <ele>53</ele>
        <time>2026-09-03T10:05:38.534Z</time>
      </trkpt>
      <trkpt lat="49.50154" lon="-1.45164">
        <ele>53</ele>
        <time>2026-09-03T10:05:39.534Z</time>
      </trkpt>
      <trkpt lat="49.50155" lon="-1.45165">
        <ele>53</ele>
        <time>2026-09-03T10:05:40.584Z</time>
      </trkpt>
      <trkpt lat="49.50155" lon="-1.45169">
        <ele>53</ele>
        <time>2026-09-03T10:05:42.534Z</time>
      </trkpt>
      <trkpt lat="49.50155" lon="-1.45171">
        <ele>52.9</ele>
        <time>2026-09-03T10:05:43.534Z</time>
      </trkpt>
      <trkpt lat="49.50155" lon="-1.45173">
        <ele>52.9</ele>
        <time>2026-09-03T10:05:44.534Z</time>
      </trkpt>
      <trkpt lat="49.50155" lon="-1.45174">
        <ele>52.8</ele>
        <time>2026-09-03T10:05:45.534Z</time>
      </trkpt>
      <trkpt lat="49.50155" lon="-1.45176">
        <ele>52.8</ele>
        <time>2026-09-03T10:05:46.534Z</time>
      </trkpt>
      <trkpt lat="49.50155" lon="-1.45178">
        <ele>52.8</ele>
        <time>2026-09-03T10:05:47.534Z</time>
      </trkpt>
      <trkpt lat="49.50156" lon="-1.4518">
        <ele>52.7</ele>
        <time>2026-09-03T10:05:48.534Z</time>
      </trkpt>
      <trkpt lat="49.50156" lon="-1.45182">
        <ele>52.7</ele>
        <time>2026-09-03T10:05:49.534Z</time>
      </trkpt>
      <trkpt lat="49.50157" lon="-1.45185">
        <ele>52.6</ele>
        <time>2026-09-03T10:05:51.534Z</time>
      </trkpt>
      <trkpt lat="49.50159" lon="-1.45185">
        <ele>52.5</ele>
        <time>2026-09-03T10:05:52.534Z</time>
      </trkpt>
      <trkpt lat="49.50159" lon="-1.45186">
        <ele>52.5</ele>
        <time>2026-09-03T10:05:53.534Z</time>
      </trkpt>
      <trkpt lat="49.50158" lon="-1.45188">
        <ele>52.5</ele>
        <time>2026-09-03T10:05:54.534Z</time>
      </trkpt>
      <trkpt lat="49.50158" lon="-1.45189">
        <ele>52.4</ele>
        <time>2026-09-03T10:05:55.547Z</time>
      </trkpt>
      <trkpt lat="49.50158" lon="-1.4519">
        <ele>52.4</ele>
        <time>2026-09-03T10:05:56.549Z</time>
      </trkpt>
      <trkpt lat="49.50158" lon="-1.45192">
        <ele>52.4</ele>
        <time>2026-09-03T10:05:57.550Z</time>
      </trkpt>
      <trkpt lat="49.50157" lon="-1.45193">
        <ele>52.4</ele>
        <time>2026-09-03T10:05:58.552Z</time>
      </trkpt>
      <trkpt lat="49.50156" lon="-1.45196">
        <ele>52.4</ele>
        <time>2026-09-03T10:05:59.553Z</time>
      </trkpt>
      <trkpt lat="49.50154" lon="-1.45196">
        <ele>52.4</ele>
        <time>2026-09-03T10:06:00.555Z</time>
      </trkpt>
      <trkpt lat="49.50151" lon="-1.45197">
        <ele>52.5</ele>
        <time>2026-09-03T10:06:02.533Z</time>
      </trkpt>
      <trkpt lat="49.50149" lon="-1.45197">
        <ele>52.6</ele>
        <time>2026-09-03T10:06:04.471Z</time>
      </trkpt>
      <trkpt lat="49.50148" lon="-1.45197">
        <ele>52.6</ele>
        <time>2026-09-03T10:06:05.553Z</time>
      </trkpt>
      <trkpt lat="49.50146" lon="-1.45201">
        <ele>52.6</ele>
        <time>2026-09-03T10:06:07.585Z</time>
      </trkpt>
      <trkpt lat="49.50144" lon="-1.45205">
        <ele>52.5</ele>
        <time>2026-09-03T10:06:09.589Z</time>
      </trkpt>
      <trkpt lat="49.50142" lon="-1.45207">
        <ele>52.5</ele>
        <time>2026-09-03T10:06:11.492Z</time>
      </trkpt>
      <trkpt lat="49.50141" lon="-1.45207">
        <ele>52.5</ele>
        <time>2026-09-03T10:06:12.553Z</time>
      </trkpt>
      <trkpt lat="49.5014" lon="-1.45207">
        <ele>52.5</ele>
        <time>2026-09-03T10:06:13.615Z</time>
      </trkpt>
      <trkpt lat="49.50138" lon="-1.45207">
        <ele>52.5</ele>
        <time>2026-09-03T10:06:15.534Z</time>
      </trkpt>
      <trkpt lat="49.50137" lon="-1.45208">
        <ele>52.5</ele>
        <time>2026-09-03T10:06:16.534Z</time>
      </trkpt>
      <trkpt lat="49.50136" lon="-1.45209">
        <ele>52.5</ele>
        <time>2026-09-03T10:06:17.534Z</time>
      </trkpt>
      <trkpt lat="49.50135" lon="-1.4521">
        <ele>52.4</ele>
        <time>2026-09-03T10:06:18.534Z</time>
      </trkpt>
      <trkpt lat="49.50134" lon="-1.45211">
        <ele>52.4</ele>
        <time>2026-09-03T10:06:19.534Z</time>
      </trkpt>
      <trkpt lat="49.50133" lon="-1.45211">
        <ele>52.4</ele>
        <time>2026-09-03T10:06:20.585Z</time>
      </trkpt>
      <trkpt lat="49.50132" lon="-1.45213">
        <ele>52.3</ele>
        <time>2026-09-03T10:06:21.627Z</time>
      </trkpt>
      <trkpt lat="49.50129" lon="-1.45215">
        <ele>52.3</ele>
        <time>2026-09-03T10:06:23.530Z</time>
      </trkpt>
      <trkpt lat="49.50128" lon="-1.45217">
        <ele>52.2</ele>
        <time>2026-09-03T10:06:24.531Z</time>
      </trkpt>
      <trkpt lat="49.50128" lon="-1.45218">
        <ele>52.2</ele>
        <time>2026-09-03T10:06:25.534Z</time>
      </trkpt>
      <trkpt lat="49.5013" lon="-1.45218">
        <ele>52.2</ele>
        <time>2026-09-03T10:06:26.534Z</time>
      </trkpt>
      <trkpt lat="49.5013" lon="-1.45219">
        <ele>52.1</ele>
        <time>2026-09-03T10:06:27.576Z</time>
      </trkpt>
      <trkpt lat="49.5013" lon="-1.45223">
        <ele>52</ele>
        <time>2026-09-03T10:06:29.534Z</time>
      </trkpt>
      <trkpt lat="49.50129" lon="-1.45224">
        <ele>52</ele>
        <time>2026-09-03T10:06:30.534Z</time>
      </trkpt>
      <trkpt lat="49.50129" lon="-1.45226">
        <ele>52</ele>
        <time>2026-09-03T10:06:31.551Z</time>
      </trkpt>
      <trkpt lat="49.50128" lon="-1.45227">
        <ele>52</ele>
        <time>2026-09-03T10:06:32.573Z</time>
      </trkpt>
      <trkpt lat="49.50127" lon="-1.45229">
        <ele>52</ele>
        <time>2026-09-03T10:06:33.574Z</time>
      </trkpt>
      <trkpt lat="49.50124" lon="-1.4523">
        <ele>52</ele>
        <time>2026-09-03T10:06:35.534Z</time>
      </trkpt>
      <trkpt lat="49.50123" lon="-1.45232">
        <ele>52</ele>
        <time>2026-09-03T10:06:36.534Z</time>
      </trkpt>
      <trkpt lat="49.50122" lon="-1.45233">
        <ele>52</ele>
        <time>2026-09-03T10:06:37.534Z</time>
      </trkpt>
      <trkpt lat="49.50122" lon="-1.45235">
        <ele>52</ele>
        <time>2026-09-03T10:06:38.534Z</time>
      </trkpt>
      <trkpt lat="49.50123" lon="-1.45238">
        <ele>52</ele>
        <time>2026-09-03T10:06:40.535Z</time>
      </trkpt>
      <trkpt lat="49.50125" lon="-1.45239">
        <ele>52</ele>
        <time>2026-09-03T10:06:41.536Z</time>
      </trkpt>
      <trkpt lat="49.50126" lon="-1.4524">
        <ele>52</ele>
        <time>2026-09-03T10:06:42.538Z</time>
      </trkpt>
      <trkpt lat="49.50127" lon="-1.45239">
        <ele>52</ele>
        <time>2026-09-03T10:06:43.539Z</time>
      </trkpt>
      <trkpt lat="49.50127" lon="-1.45239">
        <ele>52</ele>
        <time>2026-09-03T10:06:44.541Z</time>
      </trkpt>
      <trkpt lat="49.50127" lon="-1.45239">
        <ele>52</ele>
        <time>2026-09-03T10:06:45.542Z</time>
      </trkpt>
      <trkpt lat="49.50127" lon="-1.4524">
        <ele>52</ele>
        <time>2026-09-03T10:06:46.544Z</time>
      </trkpt>
      <trkpt lat="49.50127" lon="-1.45243">
        <ele>52</ele>
        <time>2026-09-03T10:06:47.545Z</time>
      </trkpt>
      <trkpt lat="49.50125" lon="-1.45244">
        <ele>52</ele>
        <time>2026-09-03T10:06:48.547Z</time>
      </trkpt>
      <trkpt lat="49.50123" lon="-1.45245">
        <ele>52</ele>
        <time>2026-09-03T10:06:49.548Z</time>
      </trkpt>
      <trkpt lat="49.50121" lon="-1.45246">
        <ele>52</ele>
        <time>2026-09-03T10:06:51.571Z</time>
      </trkpt>
      <trkpt lat="49.50125" lon="-1.45252">
        <ele>52</ele>
        <time>2026-09-03T10:06:53.534Z</time>
      </trkpt>
      <trkpt lat="49.50129" lon="-1.45256">
        <ele>52</ele>
        <time>2026-09-03T10:06:55.497Z</time>
      </trkpt>
      <trkpt lat="49.5013" lon="-1.45258">
        <ele>52</ele>
        <time>2026-09-03T10:06:56.529Z</time>
      </trkpt>
      <trkpt lat="49.5013" lon="-1.45259">
        <ele>52</ele>
        <time>2026-09-03T10:06:57.590Z</time>
      </trkpt>
      <trkpt lat="49.50131" lon="-1.45261">
        <ele>52</ele>
        <time>2026-09-03T10:06:59.563Z</time>
      </trkpt>
      <trkpt lat="49.50132" lon="-1.45261">
        <ele>52</ele>
        <time>2026-09-03T10:07:00.564Z</time>
      </trkpt>
      <trkpt lat="49.50132" lon="-1.45261">
        <ele>52</ele>
        <time>2026-09-03T10:07:01.566Z</time>
      </trkpt>
      <trkpt lat="49.50133" lon="-1.45263">
        <ele>52</ele>
        <time>2026-09-03T10:07:03.534Z</time>
      </trkpt>
      <trkpt lat="49.50133" lon="-1.45267">
        <ele>52</ele>
        <time>2026-09-03T10:07:05.492Z</time>
      </trkpt>
      <trkpt lat="49.50134" lon="-1.45269">
        <ele>52</ele>
        <time>2026-09-03T10:07:06.553Z</time>
      </trkpt>
      <trkpt lat="49.50137" lon="-1.45273">
        <ele>52</ele>
        <time>2026-09-03T10:07:08.534Z</time>
      </trkpt>
      <trkpt lat="49.50137" lon="-1.45275">
        <ele>52</ele>
        <time>2026-09-03T10:07:09.538Z</time>
      </trkpt>
      <trkpt lat="49.50139" lon="-1.45276">
        <ele>52</ele>
        <time>2026-09-03T10:07:10.559Z</time>
      </trkpt>
      <trkpt lat="49.5014" lon="-1.45277">
        <ele>52</ele>
        <time>2026-09-03T10:07:11.561Z</time>
      </trkpt>
      <trkpt lat="49.50141" lon="-1.45278">
        <ele>51.9</ele>
        <time>2026-09-03T10:07:12.562Z</time>
      </trkpt>
      <trkpt lat="49.50141" lon="-1.45279">
        <ele>51.9</ele>
        <time>2026-09-03T10:07:13.564Z</time>
      </trkpt>
      <trkpt lat="49.5014" lon="-1.45279">
        <ele>52</ele>
        <time>2026-09-03T10:07:14.565Z</time>
      </trkpt>
      <trkpt lat="49.50141" lon="-1.4528">
        <ele>51.9</ele>
        <time>2026-09-03T10:07:15.577Z</time>
      </trkpt>
      <trkpt lat="49.50143" lon="-1.45282">
        <ele>51.9</ele>
        <time>2026-09-03T10:07:17.534Z</time>
      </trkpt>
      <trkpt lat="49.50145" lon="-1.45284">
        <ele>51.8</ele>
        <time>2026-09-03T10:07:18.534Z</time>
      </trkpt>
      <trkpt lat="49.50146" lon="-1.45285">
        <ele>51.7</ele>
        <time>2026-09-03T10:07:19.534Z</time>
      </trkpt>
      <trkpt lat="49.50149" lon="-1.45288">
        <ele>51.6</ele>
        <time>2026-09-03T10:07:21.604Z</time>
      </trkpt>
      <trkpt lat="49.50152" lon="-1.45289">
        <ele>51.5</ele>
        <time>2026-09-03T10:07:23.534Z</time>
      </trkpt>
      <trkpt lat="49.50153" lon="-1.4529">
        <ele>51.5</ele>
        <time>2026-09-03T10:07:24.534Z</time>
      </trkpt>
      <trkpt lat="49.50154" lon="-1.45291">
        <ele>51.5</ele>
        <time>2026-09-03T10:07:25.541Z</time>
      </trkpt>
      <trkpt lat="49.50155" lon="-1.45293">
        <ele>51.4</ele>
        <time>2026-09-03T10:07:26.543Z</time>
      </trkpt>
      <trkpt lat="49.50154" lon="-1.45294">
        <ele>51.5</ele>
        <time>2026-09-03T10:07:27.545Z</time>
      </trkpt>
      <trkpt lat="49.50155" lon="-1.45295">
        <ele>51.4</ele>
        <time>2026-09-03T10:07:29.557Z</time>
      </trkpt>
      <trkpt lat="49.50159" lon="-1.45294">
        <ele>51.3</ele>
        <time>2026-09-03T10:07:31.534Z</time>
      </trkpt>
      <trkpt lat="49.50161" lon="-1.45293">
        <ele>51.2</ele>
        <time>2026-09-03T10:07:32.534Z</time>
      </trkpt>
      <trkpt lat="49.50162" lon="-1.45293">
        <ele>51.2</ele>
        <time>2026-09-03T10:07:33.534Z</time>
      </trkpt>
      <trkpt lat="49.50164" lon="-1.45294">
        <ele>51.1</ele>
        <time>2026-09-03T10:07:34.534Z</time>
      </trkpt>
      <trkpt lat="49.50165" lon="-1.45294">
        <ele>51.1</ele>
        <time>2026-09-03T10:07:35.534Z</time>
      </trkpt>
      <trkpt lat="49.50166" lon="-1.45295">
        <ele>51</ele>
        <time>2026-09-03T10:07:36.534Z</time>
      </trkpt>
      <trkpt lat="49.50167" lon="-1.45295">
        <ele>51</ele>
        <time>2026-09-03T10:07:37.534Z</time>
      </trkpt>
      <trkpt lat="49.50169" lon="-1.45298">
        <ele>50.9</ele>
        <time>2026-09-03T10:07:39.512Z</time>
      </trkpt>
      <trkpt lat="49.5017" lon="-1.45299">
        <ele>50.9</ele>
        <time>2026-09-03T10:07:40.574Z</time>
      </trkpt>
      <trkpt lat="49.50172" lon="-1.45301">
        <ele>50.8</ele>
        <time>2026-09-03T10:07:42.534Z</time>
      </trkpt>
      <trkpt lat="49.50173" lon="-1.45302">
        <ele>50.8</ele>
        <time>2026-09-03T10:07:43.534Z</time>
      </trkpt>
      <trkpt lat="49.50174" lon="-1.45302">
        <ele>50.8</ele>
        <time>2026-09-03T10:07:44.534Z</time>
      </trkpt>
      <trkpt lat="49.50176" lon="-1.45304">
        <ele>50.7</ele>
        <time>2026-09-03T10:07:46.572Z</time>
      </trkpt>
      <trkpt lat="49.50179" lon="-1.45306">
        <ele>50.6</ele>
        <time>2026-09-03T10:07:48.535Z</time>
      </trkpt>
      <trkpt lat="49.5018" lon="-1.45309">
        <ele>50.6</ele>
        <time>2026-09-03T10:07:50.534Z</time>
      </trkpt>
      <trkpt lat="49.50181" lon="-1.45311">
        <ele>50.7</ele>
        <time>2026-09-03T10:07:51.534Z</time>
      </trkpt>
      <trkpt lat="49.50182" lon="-1.45312">
        <ele>50.7</ele>
        <time>2026-09-03T10:07:52.561Z</time>
      </trkpt>
      <trkpt lat="49.50183" lon="-1.45314">
        <ele>50.7</ele>
        <time>2026-09-03T10:07:53.563Z</time>
      </trkpt>
      <trkpt lat="49.50184" lon="-1.45315">
        <ele>50.7</ele>
        <time>2026-09-03T10:07:54.564Z</time>
      </trkpt>
      <trkpt lat="49.50186" lon="-1.45318">
        <ele>50.8</ele>
        <time>2026-09-03T10:07:56.534Z</time>
      </trkpt>
      <trkpt lat="49.50187" lon="-1.45319">
        <ele>50.8</ele>
        <time>2026-09-03T10:07:57.534Z</time>
      </trkpt>
      <trkpt lat="49.5019" lon="-1.45322">
        <ele>50.8</ele>
        <time>2026-09-03T10:07:59.571Z</time>
      </trkpt>
      <trkpt lat="49.50192" lon="-1.45325">
        <ele>50.8</ele>
        <time>2026-09-03T10:08:01.554Z</time>
      </trkpt>
      <trkpt lat="49.50193" lon="-1.45326">
        <ele>50.8</ele>
        <time>2026-09-03T10:08:02.556Z</time>
      </trkpt>
      <trkpt lat="49.50194" lon="-1.45327">
        <ele>50.8</ele>
        <time>2026-09-03T10:08:03.557Z</time>
      </trkpt>
      <trkpt lat="49.50196" lon="-1.4533">
        <ele>50.8</ele>
        <time>2026-09-03T10:08:05.440Z</time>
      </trkpt>
      <trkpt lat="49.50197" lon="-1.45332">
        <ele>50.9</ele>
        <time>2026-09-03T10:08:06.471Z</time>
      </trkpt>
      <trkpt lat="49.50198" lon="-1.45333">
        <ele>50.9</ele>
        <time>2026-09-03T10:08:07.513Z</time>
      </trkpt>
      <trkpt lat="49.50199" lon="-1.45335">
        <ele>50.8</ele>
        <time>2026-09-03T10:08:08.554Z</time>
      </trkpt>
      <trkpt lat="49.502" lon="-1.45338">
        <ele>50.8</ele>
        <time>2026-09-03T10:08:10.533Z</time>
      </trkpt>
      <trkpt lat="49.50201" lon="-1.45339">
        <ele>50.8</ele>
        <time>2026-09-03T10:08:11.534Z</time>
      </trkpt>
      <trkpt lat="49.50203" lon="-1.45338">
        <ele>50.7</ele>
        <time>2026-09-03T10:08:12.534Z</time>
      </trkpt>
      <trkpt lat="49.50202" lon="-1.45337">
        <ele>50.7</ele>
        <time>2026-09-03T10:08:13.534Z</time>
      </trkpt>
      <trkpt lat="49.50201" lon="-1.45336">
        <ele>50.8</ele>
        <time>2026-09-03T10:08:14.534Z</time>
      </trkpt>
      <trkpt lat="49.502" lon="-1.45335">
        <ele>50.8</ele>
        <time>2026-09-03T10:08:15.554Z</time>
      </trkpt>
      <trkpt lat="49.502" lon="-1.45335">
        <ele>50.8</ele>
        <time>2026-09-03T10:08:16.556Z</time>
      </trkpt>
      <trkpt lat="49.50199" lon="-1.45336">
        <ele>50.8</ele>
        <time>2026-09-03T10:08:17.557Z</time>
      </trkpt>
      <trkpt lat="49.50199" lon="-1.45338">
        <ele>50.8</ele>
        <time>2026-09-03T10:08:18.559Z</time>
      </trkpt>
      <trkpt lat="49.502" lon="-1.45339">
        <ele>50.8</ele>
        <time>2026-09-03T10:08:19.560Z</time>
      </trkpt>
      <trkpt lat="49.502" lon="-1.45338">
        <ele>50.8</ele>
        <time>2026-09-03T10:08:20.562Z</time>
      </trkpt>
      <trkpt lat="49.502" lon="-1.45338">
        <ele>50.8</ele>
        <time>2026-09-03T10:08:21.562Z</time>
      </trkpt>
      <trkpt lat="49.502" lon="-1.45337">
        <ele>50.8</ele>
        <time>2026-09-03T10:08:22.565Z</time>
      </trkpt>
      <trkpt lat="49.50201" lon="-1.45338">
        <ele>50.8</ele>
        <time>2026-09-03T10:08:23.566Z</time>
      </trkpt>
      <trkpt lat="49.50203" lon="-1.4534">
        <ele>50.7</ele>
        <time>2026-09-03T10:08:25.534Z</time>
      </trkpt>
      <trkpt lat="49.50204" lon="-1.45343">
        <ele>50.7</ele>
        <time>2026-09-03T10:08:26.550Z</time>
      </trkpt>
      <trkpt lat="49.50206" lon="-1.45349">
        <ele>50.6</ele>
        <time>2026-09-03T10:08:28.533Z</time>
      </trkpt>
      <trkpt lat="49.50207" lon="-1.45351">
        <ele>50.5</ele>
        <time>2026-09-03T10:08:29.534Z</time>
      </trkpt>
      <trkpt lat="49.50208" lon="-1.45353">
        <ele>50.5</ele>
        <time>2026-09-03T10:08:30.534Z</time>
      </trkpt>
      <trkpt lat="49.5021" lon="-1.45355">
        <ele>50.4</ele>
        <time>2026-09-03T10:08:31.534Z</time>
      </trkpt>
      <trkpt lat="49.50213" lon="-1.45356">
        <ele>50.3</ele>
        <time>2026-09-03T10:08:32.534Z</time>
      </trkpt>
      <trkpt lat="49.50213" lon="-1.45357">
        <ele>50.3</ele>
        <time>2026-09-03T10:08:33.540Z</time>
      </trkpt>
      <trkpt lat="49.50215" lon="-1.45358">
        <ele>50.3</ele>
        <time>2026-09-03T10:08:34.542Z</time>
      </trkpt>
      <trkpt lat="49.50216" lon="-1.45359">
        <ele>50.2</ele>
        <time>2026-09-03T10:08:35.543Z</time>
      </trkpt>
      <trkpt lat="49.50218" lon="-1.4536">
        <ele>50.2</ele>
        <time>2026-09-03T10:08:36.565Z</time>
      </trkpt>
      <trkpt lat="49.50221" lon="-1.45361">
        <ele>50</ele>
        <time>2026-09-03T10:08:38.457Z</time>
      </trkpt>
      <trkpt lat="49.50224" lon="-1.45362">
        <ele>50</ele>
        <time>2026-09-03T10:08:39.549Z</time>
      </trkpt>
      <trkpt lat="49.50225" lon="-1.45362">
        <ele>50</ele>
        <time>2026-09-03T10:08:40.591Z</time>
      </trkpt>
      <trkpt lat="49.50228" lon="-1.45363">
        <ele>50.1</ele>
        <time>2026-09-03T10:08:42.573Z</time>
      </trkpt>
      <trkpt lat="49.50231" lon="-1.45362">
        <ele>50</ele>
        <time>2026-09-03T10:08:44.534Z</time>
      </trkpt>
      <trkpt lat="49.50232" lon="-1.45363">
        <ele>50</ele>
        <time>2026-09-03T10:08:45.578Z</time>
      </trkpt>
      <trkpt lat="49.50235" lon="-1.45365">
        <ele>50.1</ele>
        <time>2026-09-03T10:08:47.581Z</time>
      </trkpt>
      <trkpt lat="49.50236" lon="-1.45366">
        <ele>50.1</ele>
        <time>2026-09-03T10:08:49.534Z</time>
      </trkpt>
      <trkpt lat="49.50237" lon="-1.45368">
        <ele>50.1</ele>
        <time>2026-09-03T10:08:50.534Z</time>
      </trkpt>
      <trkpt lat="49.50238" lon="-1.45369">
        <ele>50.1</ele>
        <time>2026-09-03T10:08:51.534Z</time>
      </trkpt>
      <trkpt lat="49.5024" lon="-1.45371">
        <ele>50.1</ele>
        <time>2026-09-03T10:08:52.578Z</time>
      </trkpt>
      <trkpt lat="49.50241" lon="-1.45373">
        <ele>50.1</ele>
        <time>2026-09-03T10:08:54.571Z</time>
      </trkpt>
      <trkpt lat="49.50243" lon="-1.45375">
        <ele>50.1</ele>
        <time>2026-09-03T10:08:56.494Z</time>
      </trkpt>
      <trkpt lat="49.50243" lon="-1.45376">
        <ele>50.1</ele>
        <time>2026-09-03T10:08:57.555Z</time>
      </trkpt>
      <trkpt lat="49.50244" lon="-1.45377">
        <ele>50.1</ele>
        <time>2026-09-03T10:08:58.577Z</time>
      </trkpt>
      <trkpt lat="49.50245" lon="-1.45379">
        <ele>50.1</ele>
        <time>2026-09-03T10:09:00.534Z</time>
      </trkpt>
      <trkpt lat="49.50246" lon="-1.4538">
        <ele>50.1</ele>
        <time>2026-09-03T10:09:01.534Z</time>
      </trkpt>
      <trkpt lat="49.50246" lon="-1.45381">
        <ele>50.1</ele>
        <time>2026-09-03T10:09:02.534Z</time>
      </trkpt>
      <trkpt lat="49.50248" lon="-1.45383">
        <ele>50.1</ele>
        <time>2026-09-03T10:09:03.534Z</time>
      </trkpt>
      <trkpt lat="49.50249" lon="-1.45383">
        <ele>50</ele>
        <time>2026-09-03T10:09:04.534Z</time>
      </trkpt>
      <trkpt lat="49.50251" lon="-1.45383">
        <ele>50</ele>
        <time>2026-09-03T10:09:05.547Z</time>
      </trkpt>
      <trkpt lat="49.50252" lon="-1.45383">
        <ele>50</ele>
        <time>2026-09-03T10:09:06.548Z</time>
      </trkpt>
      <trkpt lat="49.50253" lon="-1.45383">
        <ele>50</ele>
        <time>2026-09-03T10:09:07.550Z</time>
      </trkpt>
      <trkpt lat="49.50254" lon="-1.45384">
        <ele>50</ele>
        <time>2026-09-03T10:09:08.551Z</time>
      </trkpt>
      <trkpt lat="49.50255" lon="-1.45384">
        <ele>50</ele>
        <time>2026-09-03T10:09:09.552Z</time>
      </trkpt>
      <trkpt lat="49.50255" lon="-1.45384">
        <ele>50</ele>
        <time>2026-09-03T10:09:10.554Z</time>
      </trkpt>
      <trkpt lat="49.50255" lon="-1.45385">
        <ele>50</ele>
        <time>2026-09-03T10:09:11.555Z</time>
      </trkpt>
      <trkpt lat="49.50256" lon="-1.45386">
        <ele>50</ele>
        <time>2026-09-03T10:09:12.557Z</time>
      </trkpt>
      <trkpt lat="49.50257" lon="-1.45387">
        <ele>50</ele>
        <time>2026-09-03T10:09:13.558Z</time>
      </trkpt>
      <trkpt lat="49.50258" lon="-1.45388">
        <ele>50</ele>
        <time>2026-09-03T10:09:14.560Z</time>
      </trkpt>
      <trkpt lat="49.50259" lon="-1.45389">
        <ele>50</ele>
        <time>2026-09-03T10:09:15.561Z</time>
      </trkpt>
      <trkpt lat="49.5026" lon="-1.4539">
        <ele>50</ele>
        <time>2026-09-03T10:09:16.563Z</time>
      </trkpt>
      <trkpt lat="49.50262" lon="-1.45392">
        <ele>50</ele>
        <time>2026-09-03T10:09:18.566Z</time>
      </trkpt>
      <trkpt lat="49.50263" lon="-1.45393">
        <ele>49.9</ele>
        <time>2026-09-03T10:09:19.567Z</time>
      </trkpt>
      <trkpt lat="49.50265" lon="-1.45393">
        <ele>49.9</ele>
        <time>2026-09-03T10:09:20.569Z</time>
      </trkpt>
      <trkpt lat="49.50266" lon="-1.45394">
        <ele>49.9</ele>
        <time>2026-09-03T10:09:21.570Z</time>
      </trkpt>
      <trkpt lat="49.50267" lon="-1.45394">
        <ele>49.9</ele>
        <time>2026-09-03T10:09:22.572Z</time>
      </trkpt>
      <trkpt lat="49.50269" lon="-1.45396">
        <ele>49.8</ele>
        <time>2026-09-03T10:09:24.534Z</time>
      </trkpt>
      <trkpt lat="49.5027" lon="-1.45398">
        <ele>49.8</ele>
        <time>2026-09-03T10:09:25.534Z</time>
      </trkpt>
      <trkpt lat="49.50271" lon="-1.45399">
        <ele>49.7</ele>
        <time>2026-09-03T10:09:26.534Z</time>
      </trkpt>
      <trkpt lat="49.50273" lon="-1.454">
        <ele>49.7</ele>
        <time>2026-09-03T10:09:27.534Z</time>
      </trkpt>
      <trkpt lat="49.50274" lon="-1.454">
        <ele>49.7</ele>
        <time>2026-09-03T10:09:28.534Z</time>
      </trkpt>
      <trkpt lat="49.50275" lon="-1.454">
        <ele>49.6</ele>
        <time>2026-09-03T10:09:29.572Z</time>
      </trkpt>
      <trkpt lat="49.50277" lon="-1.45401">
        <ele>49.6</ele>
        <time>2026-09-03T10:09:30.574Z</time>
      </trkpt>
      <trkpt lat="49.5028" lon="-1.45402">
        <ele>49.5</ele>
        <time>2026-09-03T10:09:32.534Z</time>
      </trkpt>
      <trkpt lat="49.50281" lon="-1.45402">
        <ele>49.5</ele>
        <time>2026-09-03T10:09:33.534Z</time>
      </trkpt>
      <trkpt lat="49.50283" lon="-1.45403">
        <ele>49.4</ele>
        <time>2026-09-03T10:09:34.534Z</time>
      </trkpt>
      <trkpt lat="49.50285" lon="-1.45403">
        <ele>49.4</ele>
        <time>2026-09-03T10:09:36.573Z</time>
      </trkpt>
      <trkpt lat="49.50288" lon="-1.45403">
        <ele>49.3</ele>
        <time>2026-09-03T10:09:38.435Z</time>
      </trkpt>
      <trkpt lat="49.50289" lon="-1.45404">
        <ele>49.3</ele>
        <time>2026-09-03T10:09:39.537Z</time>
      </trkpt>
      <trkpt lat="49.50291" lon="-1.45405">
        <ele>49.2</ele>
        <time>2026-09-03T10:09:40.539Z</time>
      </trkpt>
      <trkpt lat="49.50292" lon="-1.45406">
        <ele>49.2</ele>
        <time>2026-09-03T10:09:41.560Z</time>
      </trkpt>
      <trkpt lat="49.50293" lon="-1.45406">
        <ele>49.2</ele>
        <time>2026-09-03T10:09:42.562Z</time>
      </trkpt>
      <trkpt lat="49.50295" lon="-1.45406">
        <ele>49.1</ele>
        <time>2026-09-03T10:09:43.563Z</time>
      </trkpt>
      <trkpt lat="49.50296" lon="-1.45407">
        <ele>49.1</ele>
        <time>2026-09-03T10:09:44.584Z</time>
      </trkpt>
      <trkpt lat="49.50299" lon="-1.45408">
        <ele>49.1</ele>
        <time>2026-09-03T10:09:46.534Z</time>
      </trkpt>
      <trkpt lat="49.503" lon="-1.45408">
        <ele>49.1</ele>
        <time>2026-09-03T10:09:47.534Z</time>
      </trkpt>
      <trkpt lat="49.50302" lon="-1.45408">
        <ele>49</ele>
        <time>2026-09-03T10:09:49.572Z</time>
      </trkpt>
      <trkpt lat="49.50305" lon="-1.45409">
        <ele>49</ele>
        <time>2026-09-03T10:09:51.535Z</time>
      </trkpt>
      <trkpt lat="49.50305" lon="-1.45409">
        <ele>49</ele>
        <time>2026-09-03T10:09:52.536Z</time>
      </trkpt>
      <trkpt lat="49.50306" lon="-1.4541">
        <ele>49</ele>
        <time>2026-09-03T10:09:53.538Z</time>
      </trkpt>
      <trkpt lat="49.50307" lon="-1.45411">
        <ele>49</ele>
        <time>2026-09-03T10:09:54.539Z</time>
      </trkpt>
      <trkpt lat="49.50309" lon="-1.45412">
        <ele>49</ele>
        <time>2026-09-03T10:09:56.372Z</time>
      </trkpt>
      <trkpt lat="49.5031" lon="-1.45412">
        <ele>49</ele>
        <time>2026-09-03T10:09:57.433Z</time>
      </trkpt>
      <trkpt lat="49.5031" lon="-1.45413">
        <ele>49</ele>
        <time>2026-09-03T10:09:58.555Z</time>
      </trkpt>
      <trkpt lat="49.50312" lon="-1.45415">
        <ele>49</ele>
        <time>2026-09-03T10:10:00.534Z</time>
      </trkpt>
      <trkpt lat="49.50313" lon="-1.45416">
        <ele>49</ele>
        <time>2026-09-03T10:10:01.534Z</time>
      </trkpt>
      <trkpt lat="49.50314" lon="-1.45416">
        <ele>49</ele>
        <time>2026-09-03T10:10:02.534Z</time>
      </trkpt>
      <trkpt lat="49.50315" lon="-1.45417">
        <ele>49</ele>
        <time>2026-09-03T10:10:03.534Z</time>
      </trkpt>
      <trkpt lat="49.50316" lon="-1.45417">
        <ele>49</ele>
        <time>2026-09-03T10:10:04.553Z</time>
      </trkpt>
      <trkpt lat="49.50317" lon="-1.45418">
        <ele>49</ele>
        <time>2026-09-03T10:10:05.555Z</time>
      </trkpt>
      <trkpt lat="49.5032" lon="-1.45419">
        <ele>49</ele>
        <time>2026-09-03T10:10:07.558Z</time>
      </trkpt>
      <trkpt lat="49.50322" lon="-1.4542">
        <ele>48.9</ele>
        <time>2026-09-03T10:10:09.534Z</time>
      </trkpt>
      <trkpt lat="49.50324" lon="-1.45421">
        <ele>48.9</ele>
        <time>2026-09-03T10:10:11.564Z</time>
      </trkpt>
      <trkpt lat="49.50325" lon="-1.45422">
        <ele>48.9</ele>
        <time>2026-09-03T10:10:12.566Z</time>
      </trkpt>
      <trkpt lat="49.50326" lon="-1.45423">
        <ele>48.8</ele>
        <time>2026-09-03T10:10:13.567Z</time>
      </trkpt>
      <trkpt lat="49.50327" lon="-1.45423">
        <ele>48.8</ele>
        <time>2026-09-03T10:10:14.569Z</time>
      </trkpt>
      <trkpt lat="49.50329" lon="-1.45425">
        <ele>48.7</ele>
        <time>2026-09-03T10:10:16.571Z</time>
      </trkpt>
      <trkpt lat="49.50331" lon="-1.45427">
        <ele>48.7</ele>
        <time>2026-09-03T10:10:18.574Z</time>
      </trkpt>
      <trkpt lat="49.50332" lon="-1.45428">
        <ele>48.6</ele>
        <time>2026-09-03T10:10:19.576Z</time>
      </trkpt>
      <trkpt lat="49.50333" lon="-1.45429">
        <ele>48.6</ele>
        <time>2026-09-03T10:10:20.577Z</time>
      </trkpt>
      <trkpt lat="49.50335" lon="-1.4543">
        <ele>48.5</ele>
        <time>2026-09-03T10:10:22.534Z</time>
      </trkpt>
      <trkpt lat="49.50336" lon="-1.45431">
        <ele>48.4</ele>
        <time>2026-09-03T10:10:23.534Z</time>
      </trkpt>
      <trkpt lat="49.50337" lon="-1.45432">
        <ele>48.4</ele>
        <time>2026-09-03T10:10:24.534Z</time>
      </trkpt>
      <trkpt lat="49.50339" lon="-1.45432">
        <ele>48.4</ele>
        <time>2026-09-03T10:10:25.534Z</time>
      </trkpt>
      <trkpt lat="49.5034" lon="-1.45433">
        <ele>48.3</ele>
        <time>2026-09-03T10:10:26.534Z</time>
      </trkpt>
      <trkpt lat="49.50342" lon="-1.45434">
        <ele>48.3</ele>
        <time>2026-09-03T10:10:27.534Z</time>
      </trkpt>
      <trkpt lat="49.50343" lon="-1.45435">
        <ele>48.2</ele>
        <time>2026-09-03T10:10:28.534Z</time>
      </trkpt>
      <trkpt lat="49.50344" lon="-1.45436">
        <ele>48.2</ele>
        <time>2026-09-03T10:10:29.534Z</time>
      </trkpt>
      <trkpt lat="49.50345" lon="-1.45436">
        <ele>48.2</ele>
        <time>2026-09-03T10:10:30.534Z</time>
      </trkpt>
      <trkpt lat="49.50347" lon="-1.45437">
        <ele>48.1</ele>
        <time>2026-09-03T10:10:31.553Z</time>
      </trkpt>
      <trkpt lat="49.50349" lon="-1.45439">
        <ele>48.1</ele>
        <time>2026-09-03T10:10:33.576Z</time>
      </trkpt>
      <trkpt lat="49.50351" lon="-1.45441">
        <ele>48</ele>
        <time>2026-09-03T10:10:35.534Z</time>
      </trkpt>
      <trkpt lat="49.50352" lon="-1.45442">
        <ele>48</ele>
        <time>2026-09-03T10:10:36.581Z</time>
      </trkpt>
      <trkpt lat="49.50354" lon="-1.45443">
        <ele>48</ele>
        <time>2026-09-03T10:10:37.582Z</time>
      </trkpt>
      <trkpt lat="49.50356" lon="-1.45445">
        <ele>48</ele>
        <time>2026-09-03T10:10:39.534Z</time>
      </trkpt>
      <trkpt lat="49.50359" lon="-1.45447">
        <ele>48</ele>
        <time>2026-09-03T10:10:41.538Z</time>
      </trkpt>
      <trkpt lat="49.50361" lon="-1.45448">
        <ele>48</ele>
        <time>2026-09-03T10:10:43.534Z</time>
      </trkpt>
      <trkpt lat="49.50363" lon="-1.4545">
        <ele>48</ele>
        <time>2026-09-03T10:10:45.534Z</time>
      </trkpt>
      <trkpt lat="49.50365" lon="-1.45451">
        <ele>48</ele>
        <time>2026-09-03T10:10:46.575Z</time>
      </trkpt>
      <trkpt lat="49.50367" lon="-1.45453">
        <ele>48</ele>
        <time>2026-09-03T10:10:48.534Z</time>
      </trkpt>
      <trkpt lat="49.50368" lon="-1.45454">
        <ele>48</ele>
        <time>2026-09-03T10:10:49.534Z</time>
      </trkpt>
      <trkpt lat="49.5037" lon="-1.45455">
        <ele>48</ele>
        <time>2026-09-03T10:10:50.534Z</time>
      </trkpt>
      <trkpt lat="49.50371" lon="-1.45456">
        <ele>48</ele>
        <time>2026-09-03T10:10:51.542Z</time>
      </trkpt>
      <trkpt lat="49.50373" lon="-1.45457">
        <ele>48</ele>
        <time>2026-09-03T10:10:53.545Z</time>
      </trkpt>
      <trkpt lat="49.50374" lon="-1.45458">
        <ele>48</ele>
        <time>2026-09-03T10:10:54.547Z</time>
      </trkpt>
      <trkpt lat="49.50375" lon="-1.45458">
        <ele>48</ele>
        <time>2026-09-03T10:10:55.548Z</time>
      </trkpt>
      <trkpt lat="49.50377" lon="-1.45459">
        <ele>48</ele>
        <time>2026-09-03T10:10:56.550Z</time>
      </trkpt>
      <trkpt lat="49.50378" lon="-1.45459">
        <ele>48</ele>
        <time>2026-09-03T10:10:57.551Z</time>
      </trkpt>
      <trkpt lat="49.50381" lon="-1.45459">
        <ele>48</ele>
        <time>2026-09-03T10:10:59.574Z</time>
      </trkpt>
      <trkpt lat="49.50382" lon="-1.4546">
        <ele>48</ele>
        <time>2026-09-03T10:11:00.575Z</time>
      </trkpt>
      <trkpt lat="49.50384" lon="-1.4546">
        <ele>48</ele>
        <time>2026-09-03T10:11:01.577Z</time>
      </trkpt>
      <trkpt lat="49.50385" lon="-1.4546">
        <ele>48</ele>
        <time>2026-09-03T10:11:02.579Z</time>
      </trkpt>
      <trkpt lat="49.50387" lon="-1.45461">
        <ele>48</ele>
        <time>2026-09-03T10:11:04.571Z</time>
      </trkpt>
      <trkpt lat="49.50388" lon="-1.45461">
        <ele>48</ele>
        <time>2026-09-03T10:11:05.573Z</time>
      </trkpt>
      <trkpt lat="49.5039" lon="-1.45462">
        <ele>48.1</ele>
        <time>2026-09-03T10:11:07.546Z</time>
      </trkpt>
      <trkpt lat="49.50392" lon="-1.45462">
        <ele>48.2</ele>
        <time>2026-09-03T10:11:09.549Z</time>
      </trkpt>
      <trkpt lat="49.50394" lon="-1.45463">
        <ele>48.4</ele>
        <time>2026-09-03T10:11:10.550Z</time>
      </trkpt>
      <trkpt lat="49.50395" lon="-1.45466">
        <ele>48.4</ele>
        <time>2026-09-03T10:11:12.533Z</time>
      </trkpt>
      <trkpt lat="49.50397" lon="-1.45467">
        <ele>48.6</ele>
        <time>2026-09-03T10:11:13.534Z</time>
      </trkpt>
      <trkpt lat="49.50399" lon="-1.4547">
        <ele>48.7</ele>
        <time>2026-09-03T10:11:15.537Z</time>
      </trkpt>
      <trkpt lat="49.504" lon="-1.45471">
        <ele>48.8</ele>
        <time>2026-09-03T10:11:16.559Z</time>
      </trkpt>
      <trkpt lat="49.50401" lon="-1.45473">
        <ele>48.9</ele>
        <time>2026-09-03T10:11:17.560Z</time>
      </trkpt>
      <trkpt lat="49.50403" lon="-1.45475">
        <ele>49</ele>
        <time>2026-09-03T10:11:19.573Z</time>
      </trkpt>
      <trkpt lat="49.50404" lon="-1.45477">
        <ele>49</ele>
        <time>2026-09-03T10:11:21.534Z</time>
      </trkpt>
      <trkpt lat="49.50406" lon="-1.45478">
        <ele>49.1</ele>
        <time>2026-09-03T10:11:22.534Z</time>
      </trkpt>
      <trkpt lat="49.50407" lon="-1.45479">
        <ele>49.1</ele>
        <time>2026-09-03T10:11:23.534Z</time>
      </trkpt>
      <trkpt lat="49.50408" lon="-1.4548">
        <ele>49.2</ele>
        <time>2026-09-03T10:11:24.534Z</time>
      </trkpt>
      <trkpt lat="49.5041" lon="-1.45482">
        <ele>49.3</ele>
        <time>2026-09-03T10:11:26.553Z</time>
      </trkpt>
      <trkpt lat="49.50411" lon="-1.45484">
        <ele>49.3</ele>
        <time>2026-09-03T10:11:27.554Z</time>
      </trkpt>
      <trkpt lat="49.50413" lon="-1.45486">
        <ele>49.3</ele>
        <time>2026-09-03T10:11:29.558Z</time>
      </trkpt>
      <trkpt lat="49.50414" lon="-1.45487">
        <ele>49.3</ele>
        <time>2026-09-03T10:11:30.569Z</time>
      </trkpt>
      <trkpt lat="49.50416" lon="-1.45488">
        <ele>49.4</ele>
        <time>2026-09-03T10:11:31.581Z</time>
      </trkpt>
      <trkpt lat="49.50417" lon="-1.45489">
        <ele>49.4</ele>
        <time>2026-09-03T10:11:33.453Z</time>
      </trkpt>
      <trkpt lat="49.50419" lon="-1.45491">
        <ele>49.4</ele>
        <time>2026-09-03T10:11:34.495Z</time>
      </trkpt>
      <trkpt lat="49.5042" lon="-1.45492">
        <ele>49.4</ele>
        <time>2026-09-03T10:11:35.536Z</time>
      </trkpt>
      <trkpt lat="49.50422" lon="-1.45494">
        <ele>49.4</ele>
        <time>2026-09-03T10:11:37.569Z</time>
      </trkpt>
      <trkpt lat="49.50425" lon="-1.45496">
        <ele>49.4</ele>
        <time>2026-09-03T10:11:39.572Z</time>
      </trkpt>
      <trkpt lat="49.50425" lon="-1.45496">
        <ele>49.4</ele>
        <time>2026-09-03T10:11:40.574Z</time>
      </trkpt>
      <trkpt lat="49.50427" lon="-1.45497">
        <ele>49.4</ele>
        <time>2026-09-03T10:11:41.595Z</time>
      </trkpt>
      <trkpt lat="49.50429" lon="-1.45498">
        <ele>49.5</ele>
        <time>2026-09-03T10:11:43.534Z</time>
      </trkpt>
      <trkpt lat="49.5043" lon="-1.45499">
        <ele>49.5</ele>
        <time>2026-09-03T10:11:44.534Z</time>
      </trkpt>
      <trkpt lat="49.50432" lon="-1.455">
        <ele>49.6</ele>
        <time>2026-09-03T10:11:46.534Z</time>
      </trkpt>
      <trkpt lat="49.50434" lon="-1.45501">
        <ele>49.6</ele>
        <time>2026-09-03T10:11:47.544Z</time>
      </trkpt>
      <trkpt lat="49.50435" lon="-1.45501">
        <ele>49.6</ele>
        <time>2026-09-03T10:11:48.565Z</time>
      </trkpt>
      <trkpt lat="49.50437" lon="-1.45503">
        <ele>49.7</ele>
        <time>2026-09-03T10:11:50.568Z</time>
      </trkpt>
      <trkpt lat="49.50439" lon="-1.45505">
        <ele>49.7</ele>
        <time>2026-09-03T10:11:52.534Z</time>
      </trkpt>
      <trkpt lat="49.5044" lon="-1.45506">
        <ele>49.7</ele>
        <time>2026-09-03T10:11:53.552Z</time>
      </trkpt>
      <trkpt lat="49.50441" lon="-1.45507">
        <ele>49.7</ele>
        <time>2026-09-03T10:11:54.554Z</time>
      </trkpt>
      <trkpt lat="49.50442" lon="-1.45508">
        <ele>49.6</ele>
        <time>2026-09-03T10:11:55.575Z</time>
      </trkpt>
      <trkpt lat="49.50445" lon="-1.45509">
        <ele>49.7</ele>
        <time>2026-09-03T10:11:57.534Z</time>
      </trkpt>
      <trkpt lat="49.50446" lon="-1.4551">
        <ele>49.7</ele>
        <time>2026-09-03T10:11:58.534Z</time>
      </trkpt>
      <trkpt lat="49.50447" lon="-1.45511">
        <ele>49.7</ele>
        <time>2026-09-03T10:11:59.534Z</time>
      </trkpt>
      <trkpt lat="49.50449" lon="-1.45512">
        <ele>49.7</ele>
        <time>2026-09-03T10:12:01.574Z</time>
      </trkpt>
      <trkpt lat="49.5045" lon="-1.45513">
        <ele>49.7</ele>
        <time>2026-09-03T10:12:02.575Z</time>
      </trkpt>
      <trkpt lat="49.50453" lon="-1.45515">
        <ele>49.8</ele>
        <time>2026-09-03T10:12:04.568Z</time>
      </trkpt>
      <trkpt lat="49.50454" lon="-1.45516">
        <ele>49.8</ele>
        <time>2026-09-03T10:12:05.570Z</time>
      </trkpt>
      <trkpt lat="49.50455" lon="-1.45516">
        <ele>49.8</ele>
        <time>2026-09-03T10:12:06.591Z</time>
      </trkpt>
      <trkpt lat="49.50457" lon="-1.45518">
        <ele>49.8</ele>
        <time>2026-09-03T10:12:08.534Z</time>
      </trkpt>
      <trkpt lat="49.50458" lon="-1.45519">
        <ele>49.8</ele>
        <time>2026-09-03T10:12:09.556Z</time>
      </trkpt>
      <trkpt lat="49.50459" lon="-1.4552">
        <ele>49.8</ele>
        <time>2026-09-03T10:12:10.557Z</time>
      </trkpt>
      <trkpt lat="49.50462" lon="-1.45523">
        <ele>49.8</ele>
        <time>2026-09-03T10:12:12.590Z</time>
      </trkpt>
      <trkpt lat="49.50463" lon="-1.45524">
        <ele>49.8</ele>
        <time>2026-09-03T10:12:14.583Z</time>
      </trkpt>
      <trkpt lat="49.50465" lon="-1.45525">
        <ele>49.8</ele>
        <time>2026-09-03T10:12:16.534Z</time>
      </trkpt>
      <trkpt lat="49.50466" lon="-1.45526">
        <ele>49.8</ele>
        <time>2026-09-03T10:12:17.534Z</time>
      </trkpt>
      <trkpt lat="49.50469" lon="-1.45527">
        <ele>49.9</ele>
        <time>2026-09-03T10:12:19.534Z</time>
      </trkpt>
      <trkpt lat="49.5047" lon="-1.45528">
        <ele>49.9</ele>
        <time>2026-09-03T10:12:20.534Z</time>
      </trkpt>
      <trkpt lat="49.50471" lon="-1.45528">
        <ele>50</ele>
        <time>2026-09-03T10:12:21.553Z</time>
      </trkpt>
      <trkpt lat="49.50472" lon="-1.45529">
        <ele>50</ele>
        <time>2026-09-03T10:12:22.554Z</time>
      </trkpt>
      <trkpt lat="49.50473" lon="-1.45529">
        <ele>50</ele>
        <time>2026-09-03T10:12:23.556Z</time>
      </trkpt>
      <trkpt lat="49.50475" lon="-1.4553">
        <ele>50.1</ele>
        <time>2026-09-03T10:12:24.557Z</time>
      </trkpt>
      <trkpt lat="49.50476" lon="-1.4553">
        <ele>50.1</ele>
        <time>2026-09-03T10:12:25.559Z</time>
      </trkpt>
      <trkpt lat="49.50477" lon="-1.45531">
        <ele>50.2</ele>
        <time>2026-09-03T10:12:26.560Z</time>
      </trkpt>
      <trkpt lat="49.50478" lon="-1.45532">
        <ele>50.2</ele>
        <time>2026-09-03T10:12:27.562Z</time>
      </trkpt>
      <trkpt lat="49.50481" lon="-1.45533">
        <ele>50.3</ele>
        <time>2026-09-03T10:12:29.594Z</time>
      </trkpt>
      <trkpt lat="49.50482" lon="-1.45534">
        <ele>50.3</ele>
        <time>2026-09-03T10:12:31.534Z</time>
      </trkpt>
      <trkpt lat="49.50485" lon="-1.45535">
        <ele>50.3</ele>
        <time>2026-09-03T10:12:33.534Z</time>
      </trkpt>
      <trkpt lat="49.50486" lon="-1.45535">
        <ele>50.4</ele>
        <time>2026-09-03T10:12:34.534Z</time>
      </trkpt>
      <trkpt lat="49.50487" lon="-1.45536">
        <ele>50.4</ele>
        <time>2026-09-03T10:12:35.534Z</time>
      </trkpt>
      <trkpt lat="49.50488" lon="-1.45536">
        <ele>50.4</ele>
        <time>2026-09-03T10:12:36.555Z</time>
      </trkpt>
      <trkpt lat="49.50489" lon="-1.45537">
        <ele>50.4</ele>
        <time>2026-09-03T10:12:37.556Z</time>
      </trkpt>
      <trkpt lat="49.5049" lon="-1.45539">
        <ele>50.4</ele>
        <time>2026-09-03T10:12:38.557Z</time>
      </trkpt>
      <trkpt lat="49.50491" lon="-1.4554">
        <ele>50.4</ele>
        <time>2026-09-03T10:12:39.559Z</time>
      </trkpt>
      <trkpt lat="49.50492" lon="-1.45541">
        <ele>50.4</ele>
        <time>2026-09-03T10:12:40.560Z</time>
      </trkpt>
      <trkpt lat="49.50493" lon="-1.45542">
        <ele>50.4</ele>
        <time>2026-09-03T10:12:41.562Z</time>
      </trkpt>
      <trkpt lat="49.50494" lon="-1.45542">
        <ele>50.4</ele>
        <time>2026-09-03T10:12:42.563Z</time>
      </trkpt>
      <trkpt lat="49.50495" lon="-1.45544">
        <ele>50.3</ele>
        <time>2026-09-03T10:12:44.516Z</time>
      </trkpt>
      <trkpt lat="49.50496" lon="-1.45545">
        <ele>50.3</ele>
        <time>2026-09-03T10:12:45.568Z</time>
      </trkpt>
      <trkpt lat="49.50497" lon="-1.45546">
        <ele>50.3</ele>
        <time>2026-09-03T10:12:46.569Z</time>
      </trkpt>
      <trkpt lat="49.50498" lon="-1.45547">
        <ele>50.3</ele>
        <time>2026-09-03T10:12:47.570Z</time>
      </trkpt>
      <trkpt lat="49.50499" lon="-1.45548">
        <ele>50.3</ele>
        <time>2026-09-03T10:12:48.572Z</time>
      </trkpt>
      <trkpt lat="49.505" lon="-1.4555">
        <ele>50.2</ele>
        <time>2026-09-03T10:12:49.573Z</time>
      </trkpt>
      <trkpt lat="49.50502" lon="-1.45552">
        <ele>50.1</ele>
        <time>2026-09-03T10:12:51.536Z</time>
      </trkpt>
      <trkpt lat="49.50504" lon="-1.45554">
        <ele>50</ele>
        <time>2026-09-03T10:12:53.534Z</time>
      </trkpt>
      <trkpt lat="49.50506" lon="-1.45555">
        <ele>50</ele>
        <time>2026-09-03T10:12:55.534Z</time>
      </trkpt>
      <trkpt lat="49.50507" lon="-1.45556">
        <ele>50</ele>
        <time>2026-09-03T10:12:56.534Z</time>
      </trkpt>
      <trkpt lat="49.50508" lon="-1.45557">
        <ele>50</ele>
        <time>2026-09-03T10:12:57.534Z</time>
      </trkpt>
      <trkpt lat="49.50509" lon="-1.45558">
        <ele>50</ele>
        <time>2026-09-03T10:12:58.534Z</time>
      </trkpt>
      <trkpt lat="49.5051" lon="-1.45559">
        <ele>50</ele>
        <time>2026-09-03T10:12:59.604Z</time>
      </trkpt>
      <trkpt lat="49.50512" lon="-1.45561">
        <ele>49.9</ele>
        <time>2026-09-03T10:13:01.604Z</time>
      </trkpt>
      <trkpt lat="49.50513" lon="-1.45562">
        <ele>49.9</ele>
        <time>2026-09-03T10:13:03.534Z</time>
      </trkpt>
      <trkpt lat="49.50513" lon="-1.45563">
        <ele>49.9</ele>
        <time>2026-09-03T10:13:04.534Z</time>
      </trkpt>
      <trkpt lat="49.50516" lon="-1.45564">
        <ele>49.8</ele>
        <time>2026-09-03T10:13:06.578Z</time>
      </trkpt>
      <trkpt lat="49.50519" lon="-1.45567">
        <ele>49.7</ele>
        <time>2026-09-03T10:13:08.534Z</time>
      </trkpt>
      <trkpt lat="49.5052" lon="-1.45569">
        <ele>49.7</ele>
        <time>2026-09-03T10:13:09.582Z</time>
      </trkpt>
      <trkpt lat="49.50522" lon="-1.45571">
        <ele>49.6</ele>
        <time>2026-09-03T10:13:11.545Z</time>
      </trkpt>
      <trkpt lat="49.50525" lon="-1.45573">
        <ele>49.4</ele>
        <time>2026-09-03T10:13:13.458Z</time>
      </trkpt>
      <trkpt lat="49.50527" lon="-1.45574">
        <ele>49.4</ele>
        <time>2026-09-03T10:13:14.509Z</time>
      </trkpt>
      <trkpt lat="49.50529" lon="-1.45575">
        <ele>49.3</ele>
        <time>2026-09-03T10:13:15.591Z</time>
      </trkpt>
      <trkpt lat="49.50531" lon="-1.45576">
        <ele>49.1</ele>
        <time>2026-09-03T10:13:17.594Z</time>
      </trkpt>
      <trkpt lat="49.50533" lon="-1.45578">
        <ele>49</ele>
        <time>2026-09-03T10:13:19.576Z</time>
      </trkpt>
      <trkpt lat="49.50535" lon="-1.45581">
        <ele>48.8</ele>
        <time>2026-09-03T10:13:21.533Z</time>
      </trkpt>
      <trkpt lat="49.50536" lon="-1.45583">
        <ele>48.7</ele>
        <time>2026-09-03T10:13:22.534Z</time>
      </trkpt>
      <trkpt lat="49.50538" lon="-1.45584">
        <ele>48.6</ele>
        <time>2026-09-03T10:13:23.534Z</time>
      </trkpt>
      <trkpt lat="49.50539" lon="-1.45585">
        <ele>48.6</ele>
        <time>2026-09-03T10:13:24.534Z</time>
      </trkpt>
      <trkpt lat="49.5054" lon="-1.45587">
        <ele>48.6</ele>
        <time>2026-09-03T10:13:25.545Z</time>
      </trkpt>
      <trkpt lat="49.50542" lon="-1.4559">
        <ele>48.5</ele>
        <time>2026-09-03T10:13:27.498Z</time>
      </trkpt>
      <trkpt lat="49.50543" lon="-1.45592">
        <ele>48.5</ele>
        <time>2026-09-03T10:13:28.570Z</time>
      </trkpt>
      <trkpt lat="49.50545" lon="-1.45595">
        <ele>48.4</ele>
        <time>2026-09-03T10:13:30.534Z</time>
      </trkpt>
      <trkpt lat="49.50546" lon="-1.45596">
        <ele>48.3</ele>
        <time>2026-09-03T10:13:31.534Z</time>
      </trkpt>
      <trkpt lat="49.50547" lon="-1.45597">
        <ele>48.3</ele>
        <time>2026-09-03T10:13:32.575Z</time>
      </trkpt>
      <trkpt lat="49.50548" lon="-1.45598">
        <ele>48.3</ele>
        <time>2026-09-03T10:13:34.534Z</time>
      </trkpt>
      <trkpt lat="49.50549" lon="-1.45599">
        <ele>48.2</ele>
        <time>2026-09-03T10:13:35.539Z</time>
      </trkpt>
      <trkpt lat="49.50552" lon="-1.45602">
        <ele>48.1</ele>
        <time>2026-09-03T10:13:37.534Z</time>
      </trkpt>
      <trkpt lat="49.50554" lon="-1.45605">
        <ele>48.1</ele>
        <time>2026-09-03T10:13:39.515Z</time>
      </trkpt>
      <trkpt lat="49.50555" lon="-1.45606">
        <ele>48</ele>
        <time>2026-09-03T10:13:40.547Z</time>
      </trkpt>
      <trkpt lat="49.50557" lon="-1.45609">
        <ele>47.9</ele>
        <time>2026-09-03T10:13:42.549Z</time>
      </trkpt>
      <trkpt lat="49.50559" lon="-1.45611">
        <ele>47.8</ele>
        <time>2026-09-03T10:13:43.551Z</time>
      </trkpt>
      <trkpt lat="49.5056" lon="-1.45612">
        <ele>47.7</ele>
        <time>2026-09-03T10:13:44.552Z</time>
      </trkpt>
      <trkpt lat="49.50562" lon="-1.45614">
        <ele>47.5</ele>
        <time>2026-09-03T10:13:46.575Z</time>
      </trkpt>
      <trkpt lat="49.50563" lon="-1.45616">
        <ele>47.5</ele>
        <time>2026-09-03T10:13:47.576Z</time>
      </trkpt>
      <trkpt lat="49.50566" lon="-1.45618">
        <ele>47.2</ele>
        <time>2026-09-03T10:13:49.559Z</time>
      </trkpt>
      <trkpt lat="49.50567" lon="-1.45619">
        <ele>47.2</ele>
        <time>2026-09-03T10:13:50.561Z</time>
      </trkpt>
      <trkpt lat="49.50569" lon="-1.4562">
        <ele>47</ele>
        <time>2026-09-03T10:13:51.562Z</time>
      </trkpt>
      <trkpt lat="49.5057" lon="-1.4562">
        <ele>47</ele>
        <time>2026-09-03T10:13:52.624Z</time>
      </trkpt>
      <trkpt lat="49.50572" lon="-1.45621">
        <ele>46.8</ele>
        <time>2026-09-03T10:13:54.566Z</time>
      </trkpt>
      <trkpt lat="49.50574" lon="-1.45621">
        <ele>46.7</ele>
        <time>2026-09-03T10:13:56.534Z</time>
      </trkpt>
      <trkpt lat="49.50576" lon="-1.45623">
        <ele>46.5</ele>
        <time>2026-09-03T10:13:58.532Z</time>
      </trkpt>
      <trkpt lat="49.50577" lon="-1.45624">
        <ele>46.5</ele>
        <time>2026-09-03T10:13:59.534Z</time>
      </trkpt>
      <trkpt lat="49.50578" lon="-1.45625">
        <ele>46.4</ele>
        <time>2026-09-03T10:14:00.534Z</time>
      </trkpt>
      <trkpt lat="49.5058" lon="-1.45627">
        <ele>46.2</ele>
        <time>2026-09-03T10:14:01.556Z</time>
      </trkpt>
      <trkpt lat="49.50582" lon="-1.45629">
        <ele>46.1</ele>
        <time>2026-09-03T10:14:03.534Z</time>
      </trkpt>
      <trkpt lat="49.50584" lon="-1.4563">
        <ele>45.9</ele>
        <time>2026-09-03T10:14:04.534Z</time>
      </trkpt>
      <trkpt lat="49.50585" lon="-1.45631">
        <ele>45.8</ele>
        <time>2026-09-03T10:14:05.534Z</time>
      </trkpt>
      <trkpt lat="49.50587" lon="-1.45632">
        <ele>45.6</ele>
        <time>2026-09-03T10:14:06.543Z</time>
      </trkpt>
      <trkpt lat="49.50589" lon="-1.45634">
        <ele>45.4</ele>
        <time>2026-09-03T10:14:08.566Z</time>
      </trkpt>
      <trkpt lat="49.50591" lon="-1.45636">
        <ele>45.2</ele>
        <time>2026-09-03T10:14:09.578Z</time>
      </trkpt>
      <trkpt lat="49.50593" lon="-1.45638">
        <ele>45</ele>
        <time>2026-09-03T10:14:11.534Z</time>
      </trkpt>
      <trkpt lat="49.50595" lon="-1.4564">
        <ele>44.7</ele>
        <time>2026-09-03T10:14:12.534Z</time>
      </trkpt>
      <trkpt lat="49.50597" lon="-1.45642">
        <ele>44.5</ele>
        <time>2026-09-03T10:14:14.515Z</time>
      </trkpt>
      <trkpt lat="49.50598" lon="-1.45644">
        <ele>44.3</ele>
        <time>2026-09-03T10:14:15.556Z</time>
      </trkpt>
      <trkpt lat="49.50601" lon="-1.45646">
        <ele>44</ele>
        <time>2026-09-03T10:14:17.533Z</time>
      </trkpt>
      <trkpt lat="49.50602" lon="-1.45648">
        <ele>43.9</ele>
        <time>2026-09-03T10:14:18.534Z</time>
      </trkpt>
      <trkpt lat="49.50603" lon="-1.45649">
        <ele>43.8</ele>
        <time>2026-09-03T10:14:19.534Z</time>
      </trkpt>
      <trkpt lat="49.50604" lon="-1.45651">
        <ele>43.7</ele>
        <time>2026-09-03T10:14:20.583Z</time>
      </trkpt>
      <trkpt lat="49.50607" lon="-1.45653">
        <ele>43.4</ele>
        <time>2026-09-03T10:14:22.534Z</time>
      </trkpt>
      <trkpt lat="49.50608" lon="-1.45653">
        <ele>43.3</ele>
        <time>2026-09-03T10:14:23.534Z</time>
      </trkpt>
      <trkpt lat="49.5061" lon="-1.45654">
        <ele>43.1</ele>
        <time>2026-09-03T10:14:24.549Z</time>
      </trkpt>
      <trkpt lat="49.50611" lon="-1.45655">
        <ele>43</ele>
        <time>2026-09-03T10:14:25.550Z</time>
      </trkpt>
      <trkpt lat="49.50613" lon="-1.45657">
        <ele>42.9</ele>
        <time>2026-09-03T10:14:27.534Z</time>
      </trkpt>
      <trkpt lat="49.50615" lon="-1.45658">
        <ele>42.7</ele>
        <time>2026-09-03T10:14:28.534Z</time>
      </trkpt>
      <trkpt lat="49.50618" lon="-1.4566">
        <ele>42.5</ele>
        <time>2026-09-03T10:14:30.517Z</time>
      </trkpt>
      <trkpt lat="49.50619" lon="-1.45661">
        <ele>42.4</ele>
        <time>2026-09-03T10:14:31.549Z</time>
      </trkpt>
      <trkpt lat="49.5062" lon="-1.45662">
        <ele>42.4</ele>
        <time>2026-09-03T10:14:32.570Z</time>
      </trkpt>
      <trkpt lat="49.5062" lon="-1.45663">
        <ele>42.4</ele>
        <time>2026-09-03T10:14:33.581Z</time>
      </trkpt>
      <trkpt lat="49.50621" lon="-1.45664">
        <ele>42.3</ele>
        <time>2026-09-03T10:14:34.583Z</time>
      </trkpt>
      <trkpt lat="49.50623" lon="-1.45666">
        <ele>42.1</ele>
        <time>2026-09-03T10:14:36.546Z</time>
      </trkpt>
      <trkpt lat="49.50621" lon="-1.45662">
        <ele>42.3</ele>
        <time>2026-09-03T10:14:38.534Z</time>
      </trkpt>
      <trkpt lat="49.50621" lon="-1.45662">
        <ele>42.3</ele>
        <time>2026-09-03T10:14:39.570Z</time>
      </trkpt>
      <trkpt lat="49.50621" lon="-1.45662">
        <ele>42.3</ele>
        <time>2026-09-03T10:14:40.571Z</time>
      </trkpt>
      <trkpt lat="49.5062" lon="-1.45663">
        <ele>42.4</ele>
        <time>2026-09-03T10:14:41.573Z</time>
      </trkpt>
      <trkpt lat="49.5062" lon="-1.45663">
        <ele>42.4</ele>
        <time>2026-09-03T10:14:42.574Z</time>
      </trkpt>
      <trkpt lat="49.5062" lon="-1.45667">
        <ele>42.4</ele>
        <time>2026-09-03T10:15:26.536Z</time>
      </trkpt>
      <trkpt lat="49.50621" lon="-1.45668">
        <ele>42.3</ele>
        <time>2026-09-03T10:15:27.557Z</time>
      </trkpt>
      <trkpt lat="49.50624" lon="-1.4567">
        <ele>42</ele>
        <time>2026-09-03T10:15:29.534Z</time>
      </trkpt>
      <trkpt lat="49.50625" lon="-1.45671">
        <ele>41.9</ele>
        <time>2026-09-03T10:15:30.551Z</time>
      </trkpt>
      <trkpt lat="49.50628" lon="-1.45672">
        <ele>41.7</ele>
        <time>2026-09-03T10:15:32.534Z</time>
      </trkpt>
      <trkpt lat="49.50631" lon="-1.45675">
        <ele>41.5</ele>
        <time>2026-09-03T10:15:34.534Z</time>
      </trkpt>
      <trkpt lat="49.50632" lon="-1.45675">
        <ele>41.4</ele>
        <time>2026-09-03T10:15:35.608Z</time>
      </trkpt>
      <trkpt lat="49.50636" lon="-1.45677">
        <ele>41.2</ele>
        <time>2026-09-03T10:15:37.611Z</time>
      </trkpt>
      <trkpt lat="49.50638" lon="-1.45679">
        <ele>41</ele>
        <time>2026-09-03T10:15:39.534Z</time>
      </trkpt>
      <trkpt lat="49.5064" lon="-1.45679">
        <ele>40.9</ele>
        <time>2026-09-03T10:15:40.575Z</time>
      </trkpt>
      <trkpt lat="49.50639" lon="-1.45686">
        <ele>41</ele>
        <time>2026-09-03T10:15:42.534Z</time>
      </trkpt>
      <trkpt lat="49.5064" lon="-1.45689">
        <ele>40.9</ele>
        <time>2026-09-03T10:15:43.534Z</time>
      </trkpt>
      <trkpt lat="49.50642" lon="-1.4569">
        <ele>40.8</ele>
        <time>2026-09-03T10:15:45.534Z</time>
      </trkpt>
      <trkpt lat="49.50643" lon="-1.45691">
        <ele>40.7</ele>
        <time>2026-09-03T10:15:46.564Z</time>
      </trkpt>
      <trkpt lat="49.50645" lon="-1.45693">
        <ele>40.6</ele>
        <time>2026-09-03T10:15:48.534Z</time>
      </trkpt>
      <trkpt lat="49.50646" lon="-1.45694">
        <ele>40.5</ele>
        <time>2026-09-03T10:15:49.534Z</time>
      </trkpt>
      <trkpt lat="49.50648" lon="-1.45695">
        <ele>40.3</ele>
        <time>2026-09-03T10:15:50.534Z</time>
      </trkpt>
      <trkpt lat="49.50651" lon="-1.45699">
        <ele>40</ele>
        <time>2026-09-03T10:15:52.534Z</time>
      </trkpt>
      <trkpt lat="49.50652" lon="-1.457">
        <ele>40</ele>
        <time>2026-09-03T10:15:53.613Z</time>
      </trkpt>
      <trkpt lat="49.50654" lon="-1.45703">
        <ele>39.8</ele>
        <time>2026-09-03T10:15:55.556Z</time>
      </trkpt>
      <trkpt lat="49.50654" lon="-1.45703">
        <ele>39.8</ele>
        <time>2026-09-03T10:15:57.534Z</time>
      </trkpt>
      <trkpt lat="49.50655" lon="-1.45704">
        <ele>39.7</ele>
        <time>2026-09-03T10:15:58.604Z</time>
      </trkpt>
      <trkpt lat="49.50656" lon="-1.45708">
        <ele>39.6</ele>
        <time>2026-09-03T10:16:00.503Z</time>
      </trkpt>
      <trkpt lat="49.50657" lon="-1.45709">
        <ele>39.5</ele>
        <time>2026-09-03T10:16:01.534Z</time>
      </trkpt>
      <trkpt lat="49.50658" lon="-1.45711">
        <ele>39.4</ele>
        <time>2026-09-03T10:16:02.536Z</time>
      </trkpt>
      <trkpt lat="49.50659" lon="-1.45715">
        <ele>39.3</ele>
        <time>2026-09-03T10:16:04.529Z</time>
      </trkpt>
      <trkpt lat="49.5066" lon="-1.45716">
        <ele>39.3</ele>
        <time>2026-09-03T10:16:05.534Z</time>
      </trkpt>
      <trkpt lat="49.5066" lon="-1.45718">
        <ele>39.3</ele>
        <time>2026-09-03T10:16:07.573Z</time>
      </trkpt>
      <trkpt lat="49.5066" lon="-1.45719">
        <ele>39.3</ele>
        <time>2026-09-03T10:16:08.574Z</time>
      </trkpt>
      <trkpt lat="49.5066" lon="-1.45721">
        <ele>39.3</ele>
        <time>2026-09-03T10:16:10.517Z</time>
      </trkpt>
      <trkpt lat="49.5066" lon="-1.45722">
        <ele>39.2</ele>
        <time>2026-09-03T10:16:11.534Z</time>
      </trkpt>
      <trkpt lat="49.50659" lon="-1.45723">
        <ele>39.3</ele>
        <time>2026-09-03T10:16:12.534Z</time>
      </trkpt>
      <trkpt lat="49.5066" lon="-1.45728">
        <ele>39.2</ele>
        <time>2026-09-03T10:16:14.563Z</time>
      </trkpt>
      <trkpt lat="49.50661" lon="-1.4573">
        <ele>39.2</ele>
        <time>2026-09-03T10:16:15.584Z</time>
      </trkpt>
      <trkpt lat="49.50663" lon="-1.45729">
        <ele>39.1</ele>
        <time>2026-09-03T10:16:17.534Z</time>
      </trkpt>
      <trkpt lat="49.50663" lon="-1.45731">
        <ele>39.1</ele>
        <time>2026-09-03T10:16:18.534Z</time>
      </trkpt>
      <trkpt lat="49.50664" lon="-1.45732">
        <ele>39.1</ele>
        <time>2026-09-03T10:16:19.534Z</time>
      </trkpt>
      <trkpt lat="49.50665" lon="-1.45733">
        <ele>39.1</ele>
        <time>2026-09-03T10:16:20.534Z</time>
      </trkpt>
      <trkpt lat="49.50666" lon="-1.45734">
        <ele>39</ele>
        <time>2026-09-03T10:16:21.534Z</time>
      </trkpt>
      <trkpt lat="49.50666" lon="-1.45735">
        <ele>39</ele>
        <time>2026-09-03T10:16:22.534Z</time>
      </trkpt>
      <trkpt lat="49.50666" lon="-1.45736">
        <ele>39</ele>
        <time>2026-09-03T10:16:23.535Z</time>
      </trkpt>
      <trkpt lat="49.50666" lon="-1.45737">
        <ele>39</ele>
        <time>2026-09-03T10:16:24.556Z</time>
      </trkpt>
      <trkpt lat="49.50667" lon="-1.45738">
        <ele>39</ele>
        <time>2026-09-03T10:16:25.558Z</time>
      </trkpt>
      <trkpt lat="49.50669" lon="-1.45741">
        <ele>38.9</ele>
        <time>2026-09-03T10:16:27.450Z</time>
      </trkpt>
      <trkpt lat="49.5067" lon="-1.45741">
        <ele>38.8</ele>
        <time>2026-09-03T10:16:28.534Z</time>
      </trkpt>
      <trkpt lat="49.50671" lon="-1.45741">
        <ele>38.7</ele>
        <time>2026-09-03T10:16:29.534Z</time>
      </trkpt>
      <trkpt lat="49.50673" lon="-1.4574">
        <ele>38.6</ele>
        <time>2026-09-03T10:16:30.534Z</time>
      </trkpt>
      <trkpt lat="49.50675" lon="-1.4574">
        <ele>38.5</ele>
        <time>2026-09-03T10:16:31.566Z</time>
      </trkpt>
      <trkpt lat="49.50679" lon="-1.45737">
        <ele>38.3</ele>
        <time>2026-09-03T10:16:33.534Z</time>
      </trkpt>
      <trkpt lat="49.50679" lon="-1.45736">
        <ele>38.3</ele>
        <time>2026-09-03T10:16:34.534Z</time>
      </trkpt>
      <trkpt lat="49.50679" lon="-1.45734">
        <ele>38.4</ele>
        <time>2026-09-03T10:16:36.534Z</time>
      </trkpt>
      <trkpt lat="49.50678" lon="-1.45734">
        <ele>38.4</ele>
        <time>2026-09-03T10:16:37.555Z</time>
      </trkpt>
      <trkpt lat="49.50678" lon="-1.45735">
        <ele>38.4</ele>
        <time>2026-09-03T10:16:39.534Z</time>
      </trkpt>
      <trkpt lat="49.50678" lon="-1.45736">
        <ele>38.4</ele>
        <time>2026-09-03T10:16:40.534Z</time>
      </trkpt>
      <trkpt lat="49.50678" lon="-1.45736">
        <ele>38.4</ele>
        <time>2026-09-03T10:16:41.570Z</time>
      </trkpt>
      <trkpt lat="49.50678" lon="-1.45736">
        <ele>38.4</ele>
        <time>2026-09-03T10:16:43.534Z</time>
      </trkpt>
      <trkpt lat="49.50678" lon="-1.45736">
        <ele>38.4</ele>
        <time>2026-09-03T10:16:45.546Z</time>
      </trkpt>
      <trkpt lat="49.50677" lon="-1.45737">
        <ele>38.4</ele>
        <time>2026-09-03T10:16:46.547Z</time>
      </trkpt>
      <trkpt lat="49.50672" lon="-1.45744">
        <ele>38.7</ele>
        <time>2026-09-03T10:16:48.550Z</time>
      </trkpt>
      <trkpt lat="49.50672" lon="-1.45744">
        <ele>38.7</ele>
        <time>2026-09-03T10:16:49.604Z</time>
      </trkpt>
      <trkpt lat="49.50671" lon="-1.45742">
        <ele>38.7</ele>
        <time>2026-09-03T10:16:51.574Z</time>
      </trkpt>
      <trkpt lat="49.5067" lon="-1.45741">
        <ele>38.8</ele>
        <time>2026-09-03T10:16:53.437Z</time>
      </trkpt>
      <trkpt lat="49.50669" lon="-1.4574">
        <ele>38.9</ele>
        <time>2026-09-03T10:16:54.538Z</time>
      </trkpt>
      <trkpt lat="49.50668" lon="-1.45741">
        <ele>38.9</ele>
        <time>2026-09-03T10:16:55.540Z</time>
      </trkpt>
      <trkpt lat="49.50667" lon="-1.45741">
        <ele>39</ele>
        <time>2026-09-03T10:16:56.541Z</time>
      </trkpt>
      <trkpt lat="49.50667" lon="-1.4574">
        <ele>39</ele>
        <time>2026-09-03T10:16:57.562Z</time>
      </trkpt>
      <trkpt lat="49.50668" lon="-1.45738">
        <ele>38.9</ele>
        <time>2026-09-03T10:16:58.564Z</time>
      </trkpt>
      <trkpt lat="49.50669" lon="-1.45737">
        <ele>38.9</ele>
        <time>2026-09-03T10:16:59.565Z</time>
      </trkpt>
      <trkpt lat="49.50671" lon="-1.45736">
        <ele>38.8</ele>
        <time>2026-09-03T10:17:01.534Z</time>
      </trkpt>
      <trkpt lat="49.50672" lon="-1.45736">
        <ele>38.7</ele>
        <time>2026-09-03T10:17:02.534Z</time>
      </trkpt>
      <trkpt lat="49.50673" lon="-1.45737">
        <ele>38.7</ele>
        <time>2026-09-03T10:17:03.534Z</time>
      </trkpt>
      <trkpt lat="49.50674" lon="-1.45738">
        <ele>38.6</ele>
        <time>2026-09-03T10:17:04.534Z</time>
      </trkpt>
      <trkpt lat="49.50675" lon="-1.45739">
        <ele>38.5</ele>
        <time>2026-09-03T10:17:05.534Z</time>
      </trkpt>
      <trkpt lat="49.50676" lon="-1.45742">
        <ele>38.4</ele>
        <time>2026-09-03T10:17:07.516Z</time>
      </trkpt>
      <trkpt lat="49.50675" lon="-1.45743">
        <ele>38.5</ele>
        <time>2026-09-03T10:17:08.534Z</time>
      </trkpt>
      <trkpt lat="49.50672" lon="-1.45749">
        <ele>38.6</ele>
        <time>2026-09-03T10:17:09.579Z</time>
      </trkpt>
      <trkpt lat="49.5067" lon="-1.45748">
        <ele>38.8</ele>
        <time>2026-09-03T10:17:11.534Z</time>
      </trkpt>
      <trkpt lat="49.5067" lon="-1.45747">
        <ele>38.8</ele>
        <time>2026-09-03T10:17:12.534Z</time>
      </trkpt>
      <trkpt lat="49.5067" lon="-1.45746">
        <ele>38.8</ele>
        <time>2026-09-03T10:17:13.534Z</time>
      </trkpt>
    </trkseg>
  </trk>
</gpx>